<?xml version="1.0" encoding="UTF-8" standalone="no" ?>
<gpx xmlns="http://www.topografix.com/GPX/1/1" xmlns:xsi="http://www.w3.org/2001/XMLSchema-instance" xsi:schemaLocation="http://www.topografix.com/GPX/1/1 http://www.topografix.com/GPX/1/1/gpx.xsd" version="1.1" creator="VisuGPX - https://www.visugpx.com">
  <metadata>
    <name>ski Tour des Aiguilles de l'Argentiere</name>
  </metadata>
  <trk>
    <name><![CDATA[ski Tour des Aiguilles de l'Argentiere]]></name>
    <trkseg>
      <trkpt lat="45.25392" lon="6.18708">
        <ele>1584.1999511719</ele>
        <time>2019-05-01T05:30:20.000Z</time>
      </trkpt>
      <trkpt lat="45.25391" lon="6.18707">
        <ele>1584.4000244141</ele>
        <time>2019-05-01T05:30:30.000Z</time>
      </trkpt>
      <trkpt lat="45.25391" lon="6.18708">
        <ele>1584.1999511719</ele>
        <time>2019-05-01T05:30:37.000Z</time>
      </trkpt>
      <trkpt lat="45.25391" lon="6.18708">
        <ele>1583.4000244141</ele>
        <time>2019-05-01T05:30:59.000Z</time>
      </trkpt>
      <trkpt lat="45.25391" lon="6.18707">
        <ele>1583.5999755859</ele>
        <time>2019-05-01T05:31:17.000Z</time>
      </trkpt>
      <trkpt lat="45.2539" lon="6.18709">
        <ele>1583.5999755859</ele>
        <time>2019-05-01T05:31:25.000Z</time>
      </trkpt>
      <trkpt lat="45.2539" lon="6.18709">
        <ele>1583.5999755859</ele>
        <time>2019-05-01T05:31:26.000Z</time>
      </trkpt>
      <trkpt lat="45.25391" lon="6.18707">
        <ele>1583.5999755859</ele>
        <time>2019-05-01T05:31:29.000Z</time>
      </trkpt>
      <trkpt lat="45.25391" lon="6.18707">
        <ele>1583.5999755859</ele>
        <time>2019-05-01T05:31:44.000Z</time>
      </trkpt>
      <trkpt lat="45.25391" lon="6.18707">
        <ele>1583.5999755859</ele>
        <time>2019-05-01T05:31:55.000Z</time>
      </trkpt>
      <trkpt lat="45.25391" lon="6.18708">
        <ele>1583.5999755859</ele>
        <time>2019-05-01T05:32:02.000Z</time>
      </trkpt>
      <trkpt lat="45.25391" lon="6.18708">
        <ele>1583.4000244141</ele>
        <time>2019-05-01T05:32:12.000Z</time>
      </trkpt>
      <trkpt lat="45.25391" lon="6.18708">
        <ele>1583.4000244141</ele>
        <time>2019-05-01T05:32:26.000Z</time>
      </trkpt>
      <trkpt lat="45.25391" lon="6.18708">
        <ele>1583.8000488281</ele>
        <time>2019-05-01T05:32:38.000Z</time>
      </trkpt>
      <trkpt lat="45.25391" lon="6.18708">
        <ele>1583.5999755859</ele>
        <time>2019-05-01T05:32:50.000Z</time>
      </trkpt>
      <trkpt lat="45.25391" lon="6.18707">
        <ele>1583.5999755859</ele>
        <time>2019-05-01T05:33:08.000Z</time>
      </trkpt>
      <trkpt lat="45.25391" lon="6.18707">
        <ele>1583.5999755859</ele>
        <time>2019-05-01T05:33:10.000Z</time>
      </trkpt>
      <trkpt lat="45.25391" lon="6.18707">
        <ele>1583.5999755859</ele>
        <time>2019-05-01T05:33:17.000Z</time>
      </trkpt>
      <trkpt lat="45.25391" lon="6.18707">
        <ele>1583.8000488281</ele>
        <time>2019-05-01T05:33:26.000Z</time>
      </trkpt>
      <trkpt lat="45.25391" lon="6.18707">
        <ele>1583.5999755859</ele>
        <time>2019-05-01T05:33:34.000Z</time>
      </trkpt>
      <trkpt lat="45.25391" lon="6.18707">
        <ele>1583.4000244141</ele>
        <time>2019-05-01T05:33:43.000Z</time>
      </trkpt>
      <trkpt lat="45.25392" lon="6.18706">
        <ele>1583.4000244141</ele>
        <time>2019-05-01T05:33:54.000Z</time>
      </trkpt>
      <trkpt lat="45.25392" lon="6.18706">
        <ele>1583.4000244141</ele>
        <time>2019-05-01T05:34:03.000Z</time>
      </trkpt>
      <trkpt lat="45.25392" lon="6.18706">
        <ele>1583.4000244141</ele>
        <time>2019-05-01T05:34:11.000Z</time>
      </trkpt>
      <trkpt lat="45.25392" lon="6.18706">
        <ele>1583.4000244141</ele>
        <time>2019-05-01T05:34:22.000Z</time>
      </trkpt>
      <trkpt lat="45.2539" lon="6.18705">
        <ele>1583.5999755859</ele>
        <time>2019-05-01T05:34:28.000Z</time>
      </trkpt>
      <trkpt lat="45.25387" lon="6.18701">
        <ele>1583.8000488281</ele>
        <time>2019-05-01T05:34:33.000Z</time>
      </trkpt>
      <trkpt lat="45.25383" lon="6.18697">
        <ele>1584.1999511719</ele>
        <time>2019-05-01T05:34:39.000Z</time>
      </trkpt>
      <trkpt lat="45.25382" lon="6.18696">
        <ele>1584.4000244141</ele>
        <time>2019-05-01T05:34:43.000Z</time>
      </trkpt>
      <trkpt lat="45.2538" lon="6.18695">
        <ele>1584.4000244141</ele>
        <time>2019-05-01T05:34:44.000Z</time>
      </trkpt>
      <trkpt lat="45.25375" lon="6.18695">
        <ele>1584.5999755859</ele>
        <time>2019-05-01T05:34:50.000Z</time>
      </trkpt>
      <trkpt lat="45.2537" lon="6.18694">
        <ele>1584.8000488281</ele>
        <time>2019-05-01T05:34:55.000Z</time>
      </trkpt>
      <trkpt lat="45.25363" lon="6.1869">
        <ele>1585.1999511719</ele>
        <time>2019-05-01T05:35:01.000Z</time>
      </trkpt>
      <trkpt lat="45.25362" lon="6.18689">
        <ele>1585.4000244141</ele>
        <time>2019-05-01T05:35:02.000Z</time>
      </trkpt>
      <trkpt lat="45.25358" lon="6.18685">
        <ele>1585.8000488281</ele>
        <time>2019-05-01T05:35:06.000Z</time>
      </trkpt>
      <trkpt lat="45.25357" lon="6.18681">
        <ele>1586.4000244141</ele>
        <time>2019-05-01T05:35:11.000Z</time>
      </trkpt>
      <trkpt lat="45.25356" lon="6.18679">
        <ele>1586.5999755859</ele>
        <time>2019-05-01T05:35:12.000Z</time>
      </trkpt>
      <trkpt lat="45.25354" lon="6.18674">
        <ele>1587.4000244141</ele>
        <time>2019-05-01T05:35:17.000Z</time>
      </trkpt>
      <trkpt lat="45.25354" lon="6.18673">
        <ele>1587.4000244141</ele>
        <time>2019-05-01T05:35:18.000Z</time>
      </trkpt>
      <trkpt lat="45.25353" lon="6.18668">
        <ele>1587.8000488281</ele>
        <time>2019-05-01T05:35:22.000Z</time>
      </trkpt>
      <trkpt lat="45.25353" lon="6.18659">
        <ele>1587.5999755859</ele>
        <time>2019-05-01T05:35:27.000Z</time>
      </trkpt>
      <trkpt lat="45.25354" lon="6.18656">
        <ele>1587.4000244141</ele>
        <time>2019-05-01T05:35:29.000Z</time>
      </trkpt>
      <trkpt lat="45.25355" lon="6.1865">
        <ele>1587.1999511719</ele>
        <time>2019-05-01T05:35:32.000Z</time>
      </trkpt>
      <trkpt lat="45.25357" lon="6.18641">
        <ele>1587.4000244141</ele>
        <time>2019-05-01T05:35:37.000Z</time>
      </trkpt>
      <trkpt lat="45.25356" lon="6.18635">
        <ele>1587.8000488281</ele>
        <time>2019-05-01T05:35:41.000Z</time>
      </trkpt>
      <trkpt lat="45.25356" lon="6.18633">
        <ele>1587.8000488281</ele>
        <time>2019-05-01T05:35:42.000Z</time>
      </trkpt>
      <trkpt lat="45.25353" lon="6.18626">
        <ele>1588.1999511719</ele>
        <time>2019-05-01T05:35:46.000Z</time>
      </trkpt>
      <trkpt lat="45.25353" lon="6.18625">
        <ele>1588.1999511719</ele>
        <time>2019-05-01T05:35:47.000Z</time>
      </trkpt>
      <trkpt lat="45.25347" lon="6.18618">
        <ele>1588.4000244141</ele>
        <time>2019-05-01T05:35:52.000Z</time>
      </trkpt>
      <trkpt lat="45.25346" lon="6.18617">
        <ele>1588.5999755859</ele>
        <time>2019-05-01T05:35:53.000Z</time>
      </trkpt>
      <trkpt lat="45.25339" lon="6.18612">
        <ele>1589</ele>
        <time>2019-05-01T05:35:59.000Z</time>
      </trkpt>
      <trkpt lat="45.25332" lon="6.18606">
        <ele>1589.4000244141</ele>
        <time>2019-05-01T05:36:05.000Z</time>
      </trkpt>
      <trkpt lat="45.25332" lon="6.18605">
        <ele>1589.5999755859</ele>
        <time>2019-05-01T05:36:06.000Z</time>
      </trkpt>
      <trkpt lat="45.25327" lon="6.18603">
        <ele>1590</ele>
        <time>2019-05-01T05:36:11.000Z</time>
      </trkpt>
      <trkpt lat="45.2532" lon="6.18597">
        <ele>1590.4000244141</ele>
        <time>2019-05-01T05:36:16.000Z</time>
      </trkpt>
      <trkpt lat="45.25318" lon="6.18595">
        <ele>1590.5999755859</ele>
        <time>2019-05-01T05:36:19.000Z</time>
      </trkpt>
      <trkpt lat="45.25314" lon="6.18593">
        <ele>1590.8000488281</ele>
        <time>2019-05-01T05:36:22.000Z</time>
      </trkpt>
      <trkpt lat="45.25308" lon="6.18588">
        <ele>1591</ele>
        <time>2019-05-01T05:36:27.000Z</time>
      </trkpt>
      <trkpt lat="45.25303" lon="6.18585">
        <ele>1591.4000244141</ele>
        <time>2019-05-01T05:36:32.000Z</time>
      </trkpt>
      <trkpt lat="45.25299" lon="6.18583">
        <ele>1591.5999755859</ele>
        <time>2019-05-01T05:36:35.000Z</time>
      </trkpt>
      <trkpt lat="45.25296" lon="6.18581">
        <ele>1592</ele>
        <time>2019-05-01T05:36:37.000Z</time>
      </trkpt>
      <trkpt lat="45.25292" lon="6.1858">
        <ele>1592.1999511719</ele>
        <time>2019-05-01T05:36:40.000Z</time>
      </trkpt>
      <trkpt lat="45.2529" lon="6.18579">
        <ele>1592.4000244141</ele>
        <time>2019-05-01T05:36:42.000Z</time>
      </trkpt>
      <trkpt lat="45.25286" lon="6.18576">
        <ele>1592.5999755859</ele>
        <time>2019-05-01T05:36:47.000Z</time>
      </trkpt>
      <trkpt lat="45.25285" lon="6.18574">
        <ele>1592.5999755859</ele>
        <time>2019-05-01T05:36:49.000Z</time>
      </trkpt>
      <trkpt lat="45.2528" lon="6.18572">
        <ele>1592.8000488281</ele>
        <time>2019-05-01T05:36:52.000Z</time>
      </trkpt>
      <trkpt lat="45.25276" lon="6.18569">
        <ele>1592.8000488281</ele>
        <time>2019-05-01T05:36:56.000Z</time>
      </trkpt>
      <trkpt lat="45.25271" lon="6.18561">
        <ele>1593.1999511719</ele>
        <time>2019-05-01T05:37:02.000Z</time>
      </trkpt>
      <trkpt lat="45.25269" lon="6.18555">
        <ele>1593.5999755859</ele>
        <time>2019-05-01T05:37:06.000Z</time>
      </trkpt>
      <trkpt lat="45.25269" lon="6.18553">
        <ele>1593.5999755859</ele>
        <time>2019-05-01T05:37:07.000Z</time>
      </trkpt>
      <trkpt lat="45.25268" lon="6.18551">
        <ele>1593.8000488281</ele>
        <time>2019-05-01T05:37:08.000Z</time>
      </trkpt>
      <trkpt lat="45.25265" lon="6.18544">
        <ele>1594</ele>
        <time>2019-05-01T05:37:13.000Z</time>
      </trkpt>
      <trkpt lat="45.25262" lon="6.18542">
        <ele>1594.4000244141</ele>
        <time>2019-05-01T05:37:16.000Z</time>
      </trkpt>
      <trkpt lat="45.2526" lon="6.1854">
        <ele>1594.5999755859</ele>
        <time>2019-05-01T05:37:18.000Z</time>
      </trkpt>
      <trkpt lat="45.25257" lon="6.18539">
        <ele>1594.8000488281</ele>
        <time>2019-05-01T05:37:21.000Z</time>
      </trkpt>
      <trkpt lat="45.25256" lon="6.18538">
        <ele>1595</ele>
        <time>2019-05-01T05:37:22.000Z</time>
      </trkpt>
      <trkpt lat="45.25255" lon="6.18537">
        <ele>1595.1999511719</ele>
        <time>2019-05-01T05:37:24.000Z</time>
      </trkpt>
      <trkpt lat="45.25251" lon="6.18535">
        <ele>1595.5999755859</ele>
        <time>2019-05-01T05:37:28.000Z</time>
      </trkpt>
      <trkpt lat="45.25249" lon="6.18532">
        <ele>1595.8000488281</ele>
        <time>2019-05-01T05:37:32.000Z</time>
      </trkpt>
      <trkpt lat="45.25247" lon="6.18529">
        <ele>1596</ele>
        <time>2019-05-01T05:37:34.000Z</time>
      </trkpt>
      <trkpt lat="45.25246" lon="6.18527">
        <ele>1596.1999511719</ele>
        <time>2019-05-01T05:37:36.000Z</time>
      </trkpt>
      <trkpt lat="45.25244" lon="6.18522">
        <ele>1596.5999755859</ele>
        <time>2019-05-01T05:37:39.000Z</time>
      </trkpt>
      <trkpt lat="45.25243" lon="6.18518">
        <ele>1596.8000488281</ele>
        <time>2019-05-01T05:37:43.000Z</time>
      </trkpt>
      <trkpt lat="45.25243" lon="6.18517">
        <ele>1597</ele>
        <time>2019-05-01T05:37:44.000Z</time>
      </trkpt>
      <trkpt lat="45.25242" lon="6.1851">
        <ele>1597.8000488281</ele>
        <time>2019-05-01T05:37:49.000Z</time>
      </trkpt>
      <trkpt lat="45.25242" lon="6.18508">
        <ele>1598</ele>
        <time>2019-05-01T05:37:50.000Z</time>
      </trkpt>
      <trkpt lat="45.25241" lon="6.18502">
        <ele>1598.1999511719</ele>
        <time>2019-05-01T05:37:54.000Z</time>
      </trkpt>
      <trkpt lat="45.25242" lon="6.18494">
        <ele>1598</ele>
        <time>2019-05-01T05:37:58.000Z</time>
      </trkpt>
      <trkpt lat="45.25244" lon="6.18487">
        <ele>1597.8000488281</ele>
        <time>2019-05-01T05:38:03.000Z</time>
      </trkpt>
      <trkpt lat="45.25244" lon="6.18477">
        <ele>1598</ele>
        <time>2019-05-01T05:38:09.000Z</time>
      </trkpt>
      <trkpt lat="45.25244" lon="6.18474">
        <ele>1597.8000488281</ele>
        <time>2019-05-01T05:38:11.000Z</time>
      </trkpt>
      <trkpt lat="45.25242" lon="6.18467">
        <ele>1597.8000488281</ele>
        <time>2019-05-01T05:38:15.000Z</time>
      </trkpt>
      <trkpt lat="45.25242" lon="6.18466">
        <ele>1597.8000488281</ele>
        <time>2019-05-01T05:38:16.000Z</time>
      </trkpt>
      <trkpt lat="45.2524" lon="6.18462">
        <ele>1597.8000488281</ele>
        <time>2019-05-01T05:38:18.000Z</time>
      </trkpt>
      <trkpt lat="45.2524" lon="6.18458">
        <ele>1597.8000488281</ele>
        <time>2019-05-01T05:38:20.000Z</time>
      </trkpt>
      <trkpt lat="45.25238" lon="6.18447">
        <ele>1598.4000244141</ele>
        <time>2019-05-01T05:38:26.000Z</time>
      </trkpt>
      <trkpt lat="45.25238" lon="6.18445">
        <ele>1598.4000244141</ele>
        <time>2019-05-01T05:38:27.000Z</time>
      </trkpt>
      <trkpt lat="45.25238" lon="6.1844">
        <ele>1598.4000244141</ele>
        <time>2019-05-01T05:38:30.000Z</time>
      </trkpt>
      <trkpt lat="45.25237" lon="6.18438">
        <ele>1598.5999755859</ele>
        <time>2019-05-01T05:38:31.000Z</time>
      </trkpt>
      <trkpt lat="45.25236" lon="6.18431">
        <ele>1598.8000488281</ele>
        <time>2019-05-01T05:38:35.000Z</time>
      </trkpt>
      <trkpt lat="45.25235" lon="6.1843">
        <ele>1598.8000488281</ele>
        <time>2019-05-01T05:38:36.000Z</time>
      </trkpt>
      <trkpt lat="45.25234" lon="6.18425">
        <ele>1599</ele>
        <time>2019-05-01T05:38:38.000Z</time>
      </trkpt>
      <trkpt lat="45.25232" lon="6.18422">
        <ele>1599.1999511719</ele>
        <time>2019-05-01T05:38:41.000Z</time>
      </trkpt>
      <trkpt lat="45.25231" lon="6.1842">
        <ele>1599.1999511719</ele>
        <time>2019-05-01T05:38:42.000Z</time>
      </trkpt>
      <trkpt lat="45.25229" lon="6.18414">
        <ele>1599.5999755859</ele>
        <time>2019-05-01T05:38:47.000Z</time>
      </trkpt>
      <trkpt lat="45.25227" lon="6.18407">
        <ele>1599.8000488281</ele>
        <time>2019-05-01T05:38:52.000Z</time>
      </trkpt>
      <trkpt lat="45.25226" lon="6.18403">
        <ele>1600</ele>
        <time>2019-05-01T05:38:54.000Z</time>
      </trkpt>
      <trkpt lat="45.25226" lon="6.18397">
        <ele>1600.1999511719</ele>
        <time>2019-05-01T05:38:58.000Z</time>
      </trkpt>
      <trkpt lat="45.25225" lon="6.18389">
        <ele>1600.4000244141</ele>
        <time>2019-05-01T05:39:03.000Z</time>
      </trkpt>
      <trkpt lat="45.25224" lon="6.18383">
        <ele>1600.5999755859</ele>
        <time>2019-05-01T05:39:06.000Z</time>
      </trkpt>
      <trkpt lat="45.25223" lon="6.18378">
        <ele>1600.5999755859</ele>
        <time>2019-05-01T05:39:08.000Z</time>
      </trkpt>
      <trkpt lat="45.25222" lon="6.18371">
        <ele>1600.8000488281</ele>
        <time>2019-05-01T05:39:12.000Z</time>
      </trkpt>
      <trkpt lat="45.25222" lon="6.18365">
        <ele>1601</ele>
        <time>2019-05-01T05:39:15.000Z</time>
      </trkpt>
      <trkpt lat="45.25223" lon="6.18362">
        <ele>1601.1999511719</ele>
        <time>2019-05-01T05:39:17.000Z</time>
      </trkpt>
      <trkpt lat="45.25221" lon="6.18351">
        <ele>1601.4000244141</ele>
        <time>2019-05-01T05:39:22.000Z</time>
      </trkpt>
      <trkpt lat="45.2522" lon="6.18339">
        <ele>1601.8000488281</ele>
        <time>2019-05-01T05:39:28.000Z</time>
      </trkpt>
      <trkpt lat="45.2522" lon="6.18337">
        <ele>1601.8000488281</ele>
        <time>2019-05-01T05:39:29.000Z</time>
      </trkpt>
      <trkpt lat="45.2522" lon="6.18332">
        <ele>1602</ele>
        <time>2019-05-01T05:39:32.000Z</time>
      </trkpt>
      <trkpt lat="45.25219" lon="6.1833">
        <ele>1602.1999511719</ele>
        <time>2019-05-01T05:39:33.000Z</time>
      </trkpt>
      <trkpt lat="45.25217" lon="6.18322">
        <ele>1602.5999755859</ele>
        <time>2019-05-01T05:39:38.000Z</time>
      </trkpt>
      <trkpt lat="45.25213" lon="6.1831">
        <ele>1603</ele>
        <time>2019-05-01T05:39:45.000Z</time>
      </trkpt>
      <trkpt lat="45.25212" lon="6.18307">
        <ele>1603.1999511719</ele>
        <time>2019-05-01T05:39:47.000Z</time>
      </trkpt>
      <trkpt lat="45.25209" lon="6.18304">
        <ele>1603.1999511719</ele>
        <time>2019-05-01T05:39:50.000Z</time>
      </trkpt>
      <trkpt lat="45.25205" lon="6.18294">
        <ele>1603.8000488281</ele>
        <time>2019-05-01T05:39:56.000Z</time>
      </trkpt>
      <trkpt lat="45.252" lon="6.18288">
        <ele>1604</ele>
        <time>2019-05-01T05:40:01.000Z</time>
      </trkpt>
      <trkpt lat="45.25199" lon="6.18285">
        <ele>1604.1999511719</ele>
        <time>2019-05-01T05:40:03.000Z</time>
      </trkpt>
      <trkpt lat="45.25199" lon="6.18283">
        <ele>1604.1999511719</ele>
        <time>2019-05-01T05:40:04.000Z</time>
      </trkpt>
      <trkpt lat="45.25197" lon="6.1828">
        <ele>1604.1999511719</ele>
        <time>2019-05-01T05:40:06.000Z</time>
      </trkpt>
      <trkpt lat="45.25195" lon="6.18275">
        <ele>1604.4000244141</ele>
        <time>2019-05-01T05:40:10.000Z</time>
      </trkpt>
      <trkpt lat="45.25194" lon="6.18274">
        <ele>1604.4000244141</ele>
        <time>2019-05-01T05:40:11.000Z</time>
      </trkpt>
      <trkpt lat="45.2519" lon="6.18267">
        <ele>1604.8000488281</ele>
        <time>2019-05-01T05:40:15.000Z</time>
      </trkpt>
      <trkpt lat="45.2519" lon="6.18265">
        <ele>1604.8000488281</ele>
        <time>2019-05-01T05:40:16.000Z</time>
      </trkpt>
      <trkpt lat="45.25188" lon="6.1826">
        <ele>1605.1999511719</ele>
        <time>2019-05-01T05:40:19.000Z</time>
      </trkpt>
      <trkpt lat="45.25185" lon="6.18255">
        <ele>1605.4000244141</ele>
        <time>2019-05-01T05:40:22.000Z</time>
      </trkpt>
      <trkpt lat="45.25183" lon="6.18243">
        <ele>1605.8000488281</ele>
        <time>2019-05-01T05:40:29.000Z</time>
      </trkpt>
      <trkpt lat="45.25182" lon="6.1824">
        <ele>1606</ele>
        <time>2019-05-01T05:40:31.000Z</time>
      </trkpt>
      <trkpt lat="45.2518" lon="6.18233">
        <ele>1606</ele>
        <time>2019-05-01T05:40:34.000Z</time>
      </trkpt>
      <trkpt lat="45.25179" lon="6.1823">
        <ele>1606.1999511719</ele>
        <time>2019-05-01T05:40:36.000Z</time>
      </trkpt>
      <trkpt lat="45.25179" lon="6.18229">
        <ele>1606.4000244141</ele>
        <time>2019-05-01T05:40:37.000Z</time>
      </trkpt>
      <trkpt lat="45.25177" lon="6.18226">
        <ele>1606.5999755859</ele>
        <time>2019-05-01T05:40:39.000Z</time>
      </trkpt>
      <trkpt lat="45.25172" lon="6.1822">
        <ele>1607.1999511719</ele>
        <time>2019-05-01T05:40:44.000Z</time>
      </trkpt>
      <trkpt lat="45.25169" lon="6.18217">
        <ele>1607.4000244141</ele>
        <time>2019-05-01T05:40:47.000Z</time>
      </trkpt>
      <trkpt lat="45.25167" lon="6.18215">
        <ele>1607.5999755859</ele>
        <time>2019-05-01T05:40:49.000Z</time>
      </trkpt>
      <trkpt lat="45.25161" lon="6.18211">
        <ele>1608</ele>
        <time>2019-05-01T05:40:54.000Z</time>
      </trkpt>
      <trkpt lat="45.25155" lon="6.18208">
        <ele>1608.4000244141</ele>
        <time>2019-05-01T05:40:59.000Z</time>
      </trkpt>
      <trkpt lat="45.25152" lon="6.18206">
        <ele>1608.5999755859</ele>
        <time>2019-05-01T05:41:01.000Z</time>
      </trkpt>
      <trkpt lat="45.2515" lon="6.18204">
        <ele>1609</ele>
        <time>2019-05-01T05:41:04.000Z</time>
      </trkpt>
      <trkpt lat="45.25143" lon="6.18198">
        <ele>1609.4000244141</ele>
        <time>2019-05-01T05:41:10.000Z</time>
      </trkpt>
      <trkpt lat="45.25137" lon="6.18192">
        <ele>1609.4000244141</ele>
        <time>2019-05-01T05:41:15.000Z</time>
      </trkpt>
      <trkpt lat="45.25133" lon="6.18189">
        <ele>1609.5999755859</ele>
        <time>2019-05-01T05:41:18.000Z</time>
      </trkpt>
      <trkpt lat="45.2513" lon="6.18187">
        <ele>1609.8000488281</ele>
        <time>2019-05-01T05:41:21.000Z</time>
      </trkpt>
      <trkpt lat="45.25123" lon="6.18183">
        <ele>1610.1999511719</ele>
        <time>2019-05-01T05:41:27.000Z</time>
      </trkpt>
      <trkpt lat="45.25121" lon="6.1818">
        <ele>1610.5999755859</ele>
        <time>2019-05-01T05:41:34.000Z</time>
      </trkpt>
      <trkpt lat="45.2512" lon="6.18179">
        <ele>1610.8000488281</ele>
        <time>2019-05-01T05:41:40.000Z</time>
      </trkpt>
      <trkpt lat="45.2512" lon="6.18179">
        <ele>1610.8000488281</ele>
        <time>2019-05-01T05:41:49.000Z</time>
      </trkpt>
      <trkpt lat="45.2512" lon="6.18179">
        <ele>1610.8000488281</ele>
        <time>2019-05-01T05:42:00.000Z</time>
      </trkpt>
      <trkpt lat="45.2512" lon="6.18179">
        <ele>1610.8000488281</ele>
        <time>2019-05-01T05:42:10.000Z</time>
      </trkpt>
      <trkpt lat="45.2512" lon="6.18179">
        <ele>1611</ele>
        <time>2019-05-01T05:42:20.000Z</time>
      </trkpt>
      <trkpt lat="45.2512" lon="6.18179">
        <ele>1611</ele>
        <time>2019-05-01T05:42:33.000Z</time>
      </trkpt>
      <trkpt lat="45.2512" lon="6.18179">
        <ele>1611</ele>
        <time>2019-05-01T05:42:47.000Z</time>
      </trkpt>
      <trkpt lat="45.2512" lon="6.18179">
        <ele>1611</ele>
        <time>2019-05-01T05:43:03.000Z</time>
      </trkpt>
      <trkpt lat="45.2512" lon="6.18179">
        <ele>1611</ele>
        <time>2019-05-01T05:43:14.000Z</time>
      </trkpt>
      <trkpt lat="45.2512" lon="6.18179">
        <ele>1610.8000488281</ele>
        <time>2019-05-01T05:43:32.000Z</time>
      </trkpt>
      <trkpt lat="45.2512" lon="6.18179">
        <ele>1611</ele>
        <time>2019-05-01T05:43:40.000Z</time>
      </trkpt>
      <trkpt lat="45.2512" lon="6.18179">
        <ele>1610.8000488281</ele>
        <time>2019-05-01T05:43:55.000Z</time>
      </trkpt>
      <trkpt lat="45.2512" lon="6.18179">
        <ele>1610.8000488281</ele>
        <time>2019-05-01T05:44:06.000Z</time>
      </trkpt>
      <trkpt lat="45.2512" lon="6.18179">
        <ele>1611</ele>
        <time>2019-05-01T05:44:20.000Z</time>
      </trkpt>
      <trkpt lat="45.2512" lon="6.18179">
        <ele>1611</ele>
        <time>2019-05-01T05:44:40.000Z</time>
      </trkpt>
      <trkpt lat="45.25119" lon="6.18179">
        <ele>1611</ele>
        <time>2019-05-01T05:44:53.000Z</time>
      </trkpt>
      <trkpt lat="45.25119" lon="6.18179">
        <ele>1611.1999511719</ele>
        <time>2019-05-01T05:44:59.000Z</time>
      </trkpt>
      <trkpt lat="45.25119" lon="6.18179">
        <ele>1611.1999511719</ele>
        <time>2019-05-01T05:45:12.000Z</time>
      </trkpt>
      <trkpt lat="45.25119" lon="6.18179">
        <ele>1611</ele>
        <time>2019-05-01T05:45:23.000Z</time>
      </trkpt>
      <trkpt lat="45.25119" lon="6.18179">
        <ele>1611</ele>
        <time>2019-05-01T05:45:34.000Z</time>
      </trkpt>
      <trkpt lat="45.25119" lon="6.18179">
        <ele>1611</ele>
        <time>2019-05-01T05:45:37.000Z</time>
      </trkpt>
      <trkpt lat="45.25116" lon="6.18177">
        <ele>1611.1999511719</ele>
        <time>2019-05-01T05:45:39.000Z</time>
      </trkpt>
      <trkpt lat="45.25111" lon="6.18174">
        <ele>1611.4000244141</ele>
        <time>2019-05-01T05:45:44.000Z</time>
      </trkpt>
      <trkpt lat="45.25106" lon="6.18172">
        <ele>1611.5999755859</ele>
        <time>2019-05-01T05:45:48.000Z</time>
      </trkpt>
      <trkpt lat="45.25103" lon="6.18171">
        <ele>1611.8000488281</ele>
        <time>2019-05-01T05:45:50.000Z</time>
      </trkpt>
      <trkpt lat="45.251" lon="6.1817">
        <ele>1612</ele>
        <time>2019-05-01T05:45:52.000Z</time>
      </trkpt>
      <trkpt lat="45.25096" lon="6.18169">
        <ele>1612.4000244141</ele>
        <time>2019-05-01T05:45:55.000Z</time>
      </trkpt>
      <trkpt lat="45.25091" lon="6.18167">
        <ele>1612.8000488281</ele>
        <time>2019-05-01T05:45:59.000Z</time>
      </trkpt>
      <trkpt lat="45.25088" lon="6.18166">
        <ele>1612.8000488281</ele>
        <time>2019-05-01T05:46:01.000Z</time>
      </trkpt>
      <trkpt lat="45.25081" lon="6.18162">
        <ele>1613.1999511719</ele>
        <time>2019-05-01T05:46:07.000Z</time>
      </trkpt>
      <trkpt lat="45.25077" lon="6.18158">
        <ele>1613.5999755859</ele>
        <time>2019-05-01T05:46:11.000Z</time>
      </trkpt>
      <trkpt lat="45.25074" lon="6.18153">
        <ele>1613.8000488281</ele>
        <time>2019-05-01T05:46:16.000Z</time>
      </trkpt>
      <trkpt lat="45.25074" lon="6.18152">
        <ele>1614</ele>
        <time>2019-05-01T05:46:17.000Z</time>
      </trkpt>
      <trkpt lat="45.25072" lon="6.18147">
        <ele>1614.4000244141</ele>
        <time>2019-05-01T05:46:21.000Z</time>
      </trkpt>
      <trkpt lat="45.25069" lon="6.1814">
        <ele>1614.8000488281</ele>
        <time>2019-05-01T05:46:26.000Z</time>
      </trkpt>
      <trkpt lat="45.25066" lon="6.18133">
        <ele>1615.1999511719</ele>
        <time>2019-05-01T05:46:31.000Z</time>
      </trkpt>
      <trkpt lat="45.25064" lon="6.18127">
        <ele>1615.4000244141</ele>
        <time>2019-05-01T05:46:36.000Z</time>
      </trkpt>
      <trkpt lat="45.25061" lon="6.18122">
        <ele>1615.5999755859</ele>
        <time>2019-05-01T05:46:40.000Z</time>
      </trkpt>
      <trkpt lat="45.2506" lon="6.18118">
        <ele>1616</ele>
        <time>2019-05-01T05:46:43.000Z</time>
      </trkpt>
      <trkpt lat="45.25059" lon="6.18116">
        <ele>1616</ele>
        <time>2019-05-01T05:46:44.000Z</time>
      </trkpt>
      <trkpt lat="45.25055" lon="6.1811">
        <ele>1616.5999755859</ele>
        <time>2019-05-01T05:46:49.000Z</time>
      </trkpt>
      <trkpt lat="45.25055" lon="6.18109">
        <ele>1616.5999755859</ele>
        <time>2019-05-01T05:46:50.000Z</time>
      </trkpt>
      <trkpt lat="45.25054" lon="6.18105">
        <ele>1617</ele>
        <time>2019-05-01T05:46:53.000Z</time>
      </trkpt>
      <trkpt lat="45.25053" lon="6.18104">
        <ele>1617</ele>
        <time>2019-05-01T05:46:54.000Z</time>
      </trkpt>
      <trkpt lat="45.2505" lon="6.18099">
        <ele>1617.1999511719</ele>
        <time>2019-05-01T05:46:58.000Z</time>
      </trkpt>
      <trkpt lat="45.25047" lon="6.18092">
        <ele>1617.8000488281</ele>
        <time>2019-05-01T05:47:04.000Z</time>
      </trkpt>
      <trkpt lat="45.25046" lon="6.1809">
        <ele>1618</ele>
        <time>2019-05-01T05:47:06.000Z</time>
      </trkpt>
      <trkpt lat="45.25044" lon="6.18088">
        <ele>1618.4000244141</ele>
        <time>2019-05-01T05:47:09.000Z</time>
      </trkpt>
      <trkpt lat="45.25041" lon="6.18085">
        <ele>1618.8000488281</ele>
        <time>2019-05-01T05:47:14.000Z</time>
      </trkpt>
      <trkpt lat="45.25038" lon="6.18079">
        <ele>1619</ele>
        <time>2019-05-01T05:47:19.000Z</time>
      </trkpt>
      <trkpt lat="45.25036" lon="6.18078">
        <ele>1619</ele>
        <time>2019-05-01T05:47:21.000Z</time>
      </trkpt>
      <trkpt lat="45.25035" lon="6.18075">
        <ele>1619.1999511719</ele>
        <time>2019-05-01T05:47:23.000Z</time>
      </trkpt>
      <trkpt lat="45.25031" lon="6.18071">
        <ele>1619.5999755859</ele>
        <time>2019-05-01T05:47:28.000Z</time>
      </trkpt>
      <trkpt lat="45.2503" lon="6.1807">
        <ele>1619.8000488281</ele>
        <time>2019-05-01T05:47:29.000Z</time>
      </trkpt>
      <trkpt lat="45.25027" lon="6.18066">
        <ele>1620</ele>
        <time>2019-05-01T05:47:33.000Z</time>
      </trkpt>
      <trkpt lat="45.25024" lon="6.18063">
        <ele>1620.1999511719</ele>
        <time>2019-05-01T05:47:36.000Z</time>
      </trkpt>
      <trkpt lat="45.25022" lon="6.18061">
        <ele>1620.4000244141</ele>
        <time>2019-05-01T05:47:39.000Z</time>
      </trkpt>
      <trkpt lat="45.25019" lon="6.18055">
        <ele>1621</ele>
        <time>2019-05-01T05:47:45.000Z</time>
      </trkpt>
      <trkpt lat="45.25018" lon="6.18053">
        <ele>1621.1999511719</ele>
        <time>2019-05-01T05:47:47.000Z</time>
      </trkpt>
      <trkpt lat="45.25016" lon="6.18051">
        <ele>1621.4000244141</ele>
        <time>2019-05-01T05:47:49.000Z</time>
      </trkpt>
      <trkpt lat="45.25015" lon="6.18049">
        <ele>1621.5999755859</ele>
        <time>2019-05-01T05:47:50.000Z</time>
      </trkpt>
      <trkpt lat="45.25013" lon="6.18045">
        <ele>1622.1999511719</ele>
        <time>2019-05-01T05:47:55.000Z</time>
      </trkpt>
      <trkpt lat="45.25006" lon="6.18038">
        <ele>1623</ele>
        <time>2019-05-01T05:48:02.000Z</time>
      </trkpt>
      <trkpt lat="45.25004" lon="6.18037">
        <ele>1623.4000244141</ele>
        <time>2019-05-01T05:48:04.000Z</time>
      </trkpt>
      <trkpt lat="45.25001" lon="6.18033">
        <ele>1623.5999755859</ele>
        <time>2019-05-01T05:48:08.000Z</time>
      </trkpt>
      <trkpt lat="45.24997" lon="6.18028">
        <ele>1623.5999755859</ele>
        <time>2019-05-01T05:48:13.000Z</time>
      </trkpt>
      <trkpt lat="45.24992" lon="6.18024">
        <ele>1623.8000488281</ele>
        <time>2019-05-01T05:48:18.000Z</time>
      </trkpt>
      <trkpt lat="45.24987" lon="6.18019">
        <ele>1624</ele>
        <time>2019-05-01T05:48:23.000Z</time>
      </trkpt>
      <trkpt lat="45.24985" lon="6.18015">
        <ele>1624.4000244141</ele>
        <time>2019-05-01T05:48:26.000Z</time>
      </trkpt>
      <trkpt lat="45.24984" lon="6.18014">
        <ele>1624.4000244141</ele>
        <time>2019-05-01T05:48:27.000Z</time>
      </trkpt>
      <trkpt lat="45.2498" lon="6.18008">
        <ele>1625</ele>
        <time>2019-05-01T05:48:33.000Z</time>
      </trkpt>
      <trkpt lat="45.24978" lon="6.18003">
        <ele>1625.5999755859</ele>
        <time>2019-05-01T05:48:37.000Z</time>
      </trkpt>
      <trkpt lat="45.24978" lon="6.18002">
        <ele>1625.8000488281</ele>
        <time>2019-05-01T05:48:38.000Z</time>
      </trkpt>
      <trkpt lat="45.24974" lon="6.17996">
        <ele>1626.5999755859</ele>
        <time>2019-05-01T05:48:43.000Z</time>
      </trkpt>
      <trkpt lat="45.24973" lon="6.17995">
        <ele>1626.5999755859</ele>
        <time>2019-05-01T05:48:44.000Z</time>
      </trkpt>
      <trkpt lat="45.24969" lon="6.17987">
        <ele>1627.4000244141</ele>
        <time>2019-05-01T05:48:51.000Z</time>
      </trkpt>
      <trkpt lat="45.24966" lon="6.17982">
        <ele>1627.5999755859</ele>
        <time>2019-05-01T05:48:56.000Z</time>
      </trkpt>
      <trkpt lat="45.24962" lon="6.17975">
        <ele>1627.8000488281</ele>
        <time>2019-05-01T05:49:01.000Z</time>
      </trkpt>
      <trkpt lat="45.24961" lon="6.17973">
        <ele>1627.8000488281</ele>
        <time>2019-05-01T05:49:03.000Z</time>
      </trkpt>
      <trkpt lat="45.24959" lon="6.17968">
        <ele>1628</ele>
        <time>2019-05-01T05:49:06.000Z</time>
      </trkpt>
      <trkpt lat="45.24956" lon="6.17961">
        <ele>1628.4000244141</ele>
        <time>2019-05-01T05:49:11.000Z</time>
      </trkpt>
      <trkpt lat="45.24955" lon="6.1796">
        <ele>1628.4000244141</ele>
        <time>2019-05-01T05:49:12.000Z</time>
      </trkpt>
      <trkpt lat="45.24954" lon="6.17957">
        <ele>1628.5999755859</ele>
        <time>2019-05-01T05:49:14.000Z</time>
      </trkpt>
      <trkpt lat="45.24953" lon="6.17955">
        <ele>1628.8000488281</ele>
        <time>2019-05-01T05:49:16.000Z</time>
      </trkpt>
      <trkpt lat="45.24952" lon="6.17954">
        <ele>1628.8000488281</ele>
        <time>2019-05-01T05:49:17.000Z</time>
      </trkpt>
      <trkpt lat="45.24949" lon="6.17945">
        <ele>1629.5999755859</ele>
        <time>2019-05-01T05:49:23.000Z</time>
      </trkpt>
      <trkpt lat="45.24948" lon="6.17944">
        <ele>1629.5999755859</ele>
        <time>2019-05-01T05:49:24.000Z</time>
      </trkpt>
      <trkpt lat="45.24947" lon="6.17938">
        <ele>1630</ele>
        <time>2019-05-01T05:49:28.000Z</time>
      </trkpt>
      <trkpt lat="45.24946" lon="6.17935">
        <ele>1630.4000244141</ele>
        <time>2019-05-01T05:49:31.000Z</time>
      </trkpt>
      <trkpt lat="45.24945" lon="6.17933">
        <ele>1630.5999755859</ele>
        <time>2019-05-01T05:49:33.000Z</time>
      </trkpt>
      <trkpt lat="45.24944" lon="6.17931">
        <ele>1630.5999755859</ele>
        <time>2019-05-01T05:49:34.000Z</time>
      </trkpt>
      <trkpt lat="45.24944" lon="6.17927">
        <ele>1630.8000488281</ele>
        <time>2019-05-01T05:49:37.000Z</time>
      </trkpt>
      <trkpt lat="45.24943" lon="6.17921">
        <ele>1631</ele>
        <time>2019-05-01T05:49:41.000Z</time>
      </trkpt>
      <trkpt lat="45.24942" lon="6.17919">
        <ele>1631</ele>
        <time>2019-05-01T05:49:42.000Z</time>
      </trkpt>
      <trkpt lat="45.24942" lon="6.17916">
        <ele>1631.4000244141</ele>
        <time>2019-05-01T05:49:44.000Z</time>
      </trkpt>
      <trkpt lat="45.24942" lon="6.17914">
        <ele>1631.5999755859</ele>
        <time>2019-05-01T05:49:46.000Z</time>
      </trkpt>
      <trkpt lat="45.2494" lon="6.17908">
        <ele>1632</ele>
        <time>2019-05-01T05:49:50.000Z</time>
      </trkpt>
      <trkpt lat="45.24938" lon="6.17899">
        <ele>1632.1999511719</ele>
        <time>2019-05-01T05:49:55.000Z</time>
      </trkpt>
      <trkpt lat="45.24935" lon="6.17893">
        <ele>1632.4000244141</ele>
        <time>2019-05-01T05:50:00.000Z</time>
      </trkpt>
      <trkpt lat="45.24932" lon="6.17886">
        <ele>1632.5999755859</ele>
        <time>2019-05-01T05:50:06.000Z</time>
      </trkpt>
      <trkpt lat="45.24931" lon="6.17886">
        <ele>1632.5999755859</ele>
        <time>2019-05-01T05:50:07.000Z</time>
      </trkpt>
      <trkpt lat="45.24929" lon="6.17881">
        <ele>1632.8000488281</ele>
        <time>2019-05-01T05:50:10.000Z</time>
      </trkpt>
      <trkpt lat="45.24928" lon="6.1788">
        <ele>1632.8000488281</ele>
        <time>2019-05-01T05:50:11.000Z</time>
      </trkpt>
      <trkpt lat="45.24927" lon="6.17874">
        <ele>1633</ele>
        <time>2019-05-01T05:50:15.000Z</time>
      </trkpt>
      <trkpt lat="45.24923" lon="6.17868">
        <ele>1633.1999511719</ele>
        <time>2019-05-01T05:50:20.000Z</time>
      </trkpt>
      <trkpt lat="45.24919" lon="6.17863">
        <ele>1633.4000244141</ele>
        <time>2019-05-01T05:50:25.000Z</time>
      </trkpt>
      <trkpt lat="45.24913" lon="6.17859">
        <ele>1633.4000244141</ele>
        <time>2019-05-01T05:50:30.000Z</time>
      </trkpt>
      <trkpt lat="45.2491" lon="6.17855">
        <ele>1633.8000488281</ele>
        <time>2019-05-01T05:50:34.000Z</time>
      </trkpt>
      <trkpt lat="45.24909" lon="6.17855">
        <ele>1633.8000488281</ele>
        <time>2019-05-01T05:50:35.000Z</time>
      </trkpt>
      <trkpt lat="45.24905" lon="6.1785">
        <ele>1634.1999511719</ele>
        <time>2019-05-01T05:50:40.000Z</time>
      </trkpt>
      <trkpt lat="45.249" lon="6.17845">
        <ele>1634.5999755859</ele>
        <time>2019-05-01T05:50:45.000Z</time>
      </trkpt>
      <trkpt lat="45.24899" lon="6.17844">
        <ele>1634.8000488281</ele>
        <time>2019-05-01T05:50:47.000Z</time>
      </trkpt>
      <trkpt lat="45.24896" lon="6.17842">
        <ele>1635.1999511719</ele>
        <time>2019-05-01T05:50:50.000Z</time>
      </trkpt>
      <trkpt lat="45.2489" lon="6.17837">
        <ele>1635.4000244141</ele>
        <time>2019-05-01T05:50:55.000Z</time>
      </trkpt>
      <trkpt lat="45.24888" lon="6.17834">
        <ele>1635.8000488281</ele>
        <time>2019-05-01T05:50:59.000Z</time>
      </trkpt>
      <trkpt lat="45.24886" lon="6.17832">
        <ele>1636</ele>
        <time>2019-05-01T05:51:01.000Z</time>
      </trkpt>
      <trkpt lat="45.24882" lon="6.1783">
        <ele>1636.1999511719</ele>
        <time>2019-05-01T05:51:05.000Z</time>
      </trkpt>
      <trkpt lat="45.24878" lon="6.17826">
        <ele>1636.5999755859</ele>
        <time>2019-05-01T05:51:10.000Z</time>
      </trkpt>
      <trkpt lat="45.24874" lon="6.17821">
        <ele>1637</ele>
        <time>2019-05-01T05:51:14.000Z</time>
      </trkpt>
      <trkpt lat="45.24867" lon="6.17818">
        <ele>1637.4000244141</ele>
        <time>2019-05-01T05:51:20.000Z</time>
      </trkpt>
      <trkpt lat="45.24861" lon="6.17814">
        <ele>1637.8000488281</ele>
        <time>2019-05-01T05:51:25.000Z</time>
      </trkpt>
      <trkpt lat="45.24858" lon="6.17813">
        <ele>1638</ele>
        <time>2019-05-01T05:51:28.000Z</time>
      </trkpt>
      <trkpt lat="45.24856" lon="6.17811">
        <ele>1638.1999511719</ele>
        <time>2019-05-01T05:51:30.000Z</time>
      </trkpt>
      <trkpt lat="45.24854" lon="6.17809">
        <ele>1638.5999755859</ele>
        <time>2019-05-01T05:51:33.000Z</time>
      </trkpt>
      <trkpt lat="45.24852" lon="6.17808">
        <ele>1638.5999755859</ele>
        <time>2019-05-01T05:51:34.000Z</time>
      </trkpt>
      <trkpt lat="45.24847" lon="6.17804">
        <ele>1639</ele>
        <time>2019-05-01T05:51:39.000Z</time>
      </trkpt>
      <trkpt lat="45.24847" lon="6.17803">
        <ele>1639</ele>
        <time>2019-05-01T05:51:40.000Z</time>
      </trkpt>
      <trkpt lat="45.24843" lon="6.17799">
        <ele>1639.1999511719</ele>
        <time>2019-05-01T05:51:44.000Z</time>
      </trkpt>
      <trkpt lat="45.2484" lon="6.17797">
        <ele>1639.5999755859</ele>
        <time>2019-05-01T05:51:49.000Z</time>
      </trkpt>
      <trkpt lat="45.24836" lon="6.17792">
        <ele>1640.1999511719</ele>
        <time>2019-05-01T05:51:54.000Z</time>
      </trkpt>
      <trkpt lat="45.24832" lon="6.17787">
        <ele>1640.8000488281</ele>
        <time>2019-05-01T05:52:00.000Z</time>
      </trkpt>
      <trkpt lat="45.24829" lon="6.17783">
        <ele>1641.1999511719</ele>
        <time>2019-05-01T05:52:04.000Z</time>
      </trkpt>
      <trkpt lat="45.24828" lon="6.17782">
        <ele>1641.1999511719</ele>
        <time>2019-05-01T05:52:05.000Z</time>
      </trkpt>
      <trkpt lat="45.24825" lon="6.17775">
        <ele>1641.5999755859</ele>
        <time>2019-05-01T05:52:10.000Z</time>
      </trkpt>
      <trkpt lat="45.24823" lon="6.1777">
        <ele>1642</ele>
        <time>2019-05-01T05:52:14.000Z</time>
      </trkpt>
      <trkpt lat="45.24822" lon="6.17768">
        <ele>1642.1999511719</ele>
        <time>2019-05-01T05:52:15.000Z</time>
      </trkpt>
      <trkpt lat="45.24822" lon="6.17767">
        <ele>1642.1999511719</ele>
        <time>2019-05-01T05:52:16.000Z</time>
      </trkpt>
      <trkpt lat="45.24818" lon="6.17762">
        <ele>1642.8000488281</ele>
        <time>2019-05-01T05:52:20.000Z</time>
      </trkpt>
      <trkpt lat="45.24816" lon="6.17758">
        <ele>1643.1999511719</ele>
        <time>2019-05-01T05:52:24.000Z</time>
      </trkpt>
      <trkpt lat="45.24815" lon="6.17757">
        <ele>1643.4000244141</ele>
        <time>2019-05-01T05:52:25.000Z</time>
      </trkpt>
      <trkpt lat="45.24812" lon="6.1775">
        <ele>1644.1999511719</ele>
        <time>2019-05-01T05:52:32.000Z</time>
      </trkpt>
      <trkpt lat="45.24811" lon="6.17749">
        <ele>1644.4000244141</ele>
        <time>2019-05-01T05:52:33.000Z</time>
      </trkpt>
      <trkpt lat="45.2481" lon="6.17743">
        <ele>1645</ele>
        <time>2019-05-01T05:52:38.000Z</time>
      </trkpt>
      <trkpt lat="45.24808" lon="6.1774">
        <ele>1645.4000244141</ele>
        <time>2019-05-01T05:52:42.000Z</time>
      </trkpt>
      <trkpt lat="45.24805" lon="6.17731">
        <ele>1646</ele>
        <time>2019-05-01T05:52:48.000Z</time>
      </trkpt>
      <trkpt lat="45.24803" lon="6.17726">
        <ele>1646.4000244141</ele>
        <time>2019-05-01T05:52:52.000Z</time>
      </trkpt>
      <trkpt lat="45.24803" lon="6.17724">
        <ele>1646.5999755859</ele>
        <time>2019-05-01T05:52:54.000Z</time>
      </trkpt>
      <trkpt lat="45.24801" lon="6.17719">
        <ele>1647</ele>
        <time>2019-05-01T05:52:58.000Z</time>
      </trkpt>
      <trkpt lat="45.248" lon="6.17717">
        <ele>1647</ele>
        <time>2019-05-01T05:53:00.000Z</time>
      </trkpt>
      <trkpt lat="45.24798" lon="6.17713">
        <ele>1647.1999511719</ele>
        <time>2019-05-01T05:53:03.000Z</time>
      </trkpt>
      <trkpt lat="45.24797" lon="6.1771">
        <ele>1647.4000244141</ele>
        <time>2019-05-01T05:53:05.000Z</time>
      </trkpt>
      <trkpt lat="45.24796" lon="6.17708">
        <ele>1647.4000244141</ele>
        <time>2019-05-01T05:53:06.000Z</time>
      </trkpt>
      <trkpt lat="45.24794" lon="6.17704">
        <ele>1648</ele>
        <time>2019-05-01T05:53:09.000Z</time>
      </trkpt>
      <trkpt lat="45.24793" lon="6.17702">
        <ele>1648.1999511719</ele>
        <time>2019-05-01T05:53:11.000Z</time>
      </trkpt>
      <trkpt lat="45.24793" lon="6.17697">
        <ele>1648.5999755859</ele>
        <time>2019-05-01T05:53:15.000Z</time>
      </trkpt>
      <trkpt lat="45.24792" lon="6.17696">
        <ele>1648.5999755859</ele>
        <time>2019-05-01T05:53:16.000Z</time>
      </trkpt>
      <trkpt lat="45.24789" lon="6.17687">
        <ele>1649.5999755859</ele>
        <time>2019-05-01T05:53:23.000Z</time>
      </trkpt>
      <trkpt lat="45.24787" lon="6.17682">
        <ele>1650.4000244141</ele>
        <time>2019-05-01T05:53:28.000Z</time>
      </trkpt>
      <trkpt lat="45.24786" lon="6.1768">
        <ele>1650.8000488281</ele>
        <time>2019-05-01T05:53:30.000Z</time>
      </trkpt>
      <trkpt lat="45.24782" lon="6.17675">
        <ele>1651.5999755859</ele>
        <time>2019-05-01T05:53:36.000Z</time>
      </trkpt>
      <trkpt lat="45.24781" lon="6.17673">
        <ele>1651.8000488281</ele>
        <time>2019-05-01T05:53:38.000Z</time>
      </trkpt>
      <trkpt lat="45.24778" lon="6.17671">
        <ele>1652.1999511719</ele>
        <time>2019-05-01T05:53:41.000Z</time>
      </trkpt>
      <trkpt lat="45.24775" lon="6.17668">
        <ele>1652.8000488281</ele>
        <time>2019-05-01T05:53:46.000Z</time>
      </trkpt>
      <trkpt lat="45.24773" lon="6.17667">
        <ele>1652.8000488281</ele>
        <time>2019-05-01T05:53:48.000Z</time>
      </trkpt>
      <trkpt lat="45.24769" lon="6.17665">
        <ele>1653.4000244141</ele>
        <time>2019-05-01T05:53:52.000Z</time>
      </trkpt>
      <trkpt lat="45.24766" lon="6.17663">
        <ele>1653.8000488281</ele>
        <time>2019-05-01T05:53:56.000Z</time>
      </trkpt>
      <trkpt lat="45.24766" lon="6.17662">
        <ele>1654</ele>
        <time>2019-05-01T05:53:57.000Z</time>
      </trkpt>
      <trkpt lat="45.24763" lon="6.17659">
        <ele>1654.1999511719</ele>
        <time>2019-05-01T05:54:00.000Z</time>
      </trkpt>
      <trkpt lat="45.24761" lon="6.17657">
        <ele>1654.4000244141</ele>
        <time>2019-05-01T05:54:02.000Z</time>
      </trkpt>
      <trkpt lat="45.24754" lon="6.17653">
        <ele>1654.8000488281</ele>
        <time>2019-05-01T05:54:07.000Z</time>
      </trkpt>
      <trkpt lat="45.24753" lon="6.17653">
        <ele>1655</ele>
        <time>2019-05-01T05:54:09.000Z</time>
      </trkpt>
      <trkpt lat="45.24749" lon="6.1765">
        <ele>1655.1999511719</ele>
        <time>2019-05-01T05:54:12.000Z</time>
      </trkpt>
      <trkpt lat="45.24745" lon="6.17644">
        <ele>1655.5999755859</ele>
        <time>2019-05-01T05:54:17.000Z</time>
      </trkpt>
      <trkpt lat="45.24745" lon="6.17641">
        <ele>1655.8000488281</ele>
        <time>2019-05-01T05:54:19.000Z</time>
      </trkpt>
      <trkpt lat="45.24744" lon="6.1764">
        <ele>1656</ele>
        <time>2019-05-01T05:54:20.000Z</time>
      </trkpt>
      <trkpt lat="45.24743" lon="6.17637">
        <ele>1656</ele>
        <time>2019-05-01T05:54:22.000Z</time>
      </trkpt>
      <trkpt lat="45.24739" lon="6.17629">
        <ele>1656.4000244141</ele>
        <time>2019-05-01T05:54:27.000Z</time>
      </trkpt>
      <trkpt lat="45.24735" lon="6.17623">
        <ele>1657</ele>
        <time>2019-05-01T05:54:32.000Z</time>
      </trkpt>
      <trkpt lat="45.24729" lon="6.17618">
        <ele>1658</ele>
        <time>2019-05-01T05:54:38.000Z</time>
      </trkpt>
      <trkpt lat="45.24727" lon="6.17616">
        <ele>1658.1999511719</ele>
        <time>2019-05-01T05:54:40.000Z</time>
      </trkpt>
      <trkpt lat="45.24723" lon="6.17613">
        <ele>1658.8000488281</ele>
        <time>2019-05-01T05:54:44.000Z</time>
      </trkpt>
      <trkpt lat="45.2472" lon="6.1761">
        <ele>1659.1999511719</ele>
        <time>2019-05-01T05:54:47.000Z</time>
      </trkpt>
      <trkpt lat="45.24719" lon="6.17608">
        <ele>1659.8000488281</ele>
        <time>2019-05-01T05:54:51.000Z</time>
      </trkpt>
      <trkpt lat="45.24715" lon="6.17608">
        <ele>1660.4000244141</ele>
        <time>2019-05-01T05:54:55.000Z</time>
      </trkpt>
      <trkpt lat="45.24714" lon="6.17607">
        <ele>1660.4000244141</ele>
        <time>2019-05-01T05:54:56.000Z</time>
      </trkpt>
      <trkpt lat="45.24711" lon="6.17601">
        <ele>1661</ele>
        <time>2019-05-01T05:55:02.000Z</time>
      </trkpt>
      <trkpt lat="45.24707" lon="6.17597">
        <ele>1661.4000244141</ele>
        <time>2019-05-01T05:55:06.000Z</time>
      </trkpt>
      <trkpt lat="45.24707" lon="6.17596">
        <ele>1661.5999755859</ele>
        <time>2019-05-01T05:55:07.000Z</time>
      </trkpt>
      <trkpt lat="45.24703" lon="6.17589">
        <ele>1662.1999511719</ele>
        <time>2019-05-01T05:55:12.000Z</time>
      </trkpt>
      <trkpt lat="45.24702" lon="6.17587">
        <ele>1662.4000244141</ele>
        <time>2019-05-01T05:55:14.000Z</time>
      </trkpt>
      <trkpt lat="45.24697" lon="6.17582">
        <ele>1662.8000488281</ele>
        <time>2019-05-01T05:55:19.000Z</time>
      </trkpt>
      <trkpt lat="45.24694" lon="6.17581">
        <ele>1663.4000244141</ele>
        <time>2019-05-01T05:55:24.000Z</time>
      </trkpt>
      <trkpt lat="45.24689" lon="6.1758">
        <ele>1664.1999511719</ele>
        <time>2019-05-01T05:55:29.000Z</time>
      </trkpt>
      <trkpt lat="45.24688" lon="6.17579">
        <ele>1664.5999755859</ele>
        <time>2019-05-01T05:55:31.000Z</time>
      </trkpt>
      <trkpt lat="45.24683" lon="6.17579">
        <ele>1665.1999511719</ele>
        <time>2019-05-01T05:55:35.000Z</time>
      </trkpt>
      <trkpt lat="45.2468" lon="6.17579">
        <ele>1665.5999755859</ele>
        <time>2019-05-01T05:55:38.000Z</time>
      </trkpt>
      <trkpt lat="45.24677" lon="6.17577">
        <ele>1665.8000488281</ele>
        <time>2019-05-01T05:55:41.000Z</time>
      </trkpt>
      <trkpt lat="45.24674" lon="6.17574">
        <ele>1666.4000244141</ele>
        <time>2019-05-01T05:55:45.000Z</time>
      </trkpt>
      <trkpt lat="45.24671" lon="6.17572">
        <ele>1666.8000488281</ele>
        <time>2019-05-01T05:55:49.000Z</time>
      </trkpt>
      <trkpt lat="45.24669" lon="6.17572">
        <ele>1667</ele>
        <time>2019-05-01T05:55:51.000Z</time>
      </trkpt>
      <trkpt lat="45.2466" lon="6.17571">
        <ele>1667.5999755859</ele>
        <time>2019-05-01T05:55:58.000Z</time>
      </trkpt>
      <trkpt lat="45.24658" lon="6.17568">
        <ele>1667.8000488281</ele>
        <time>2019-05-01T05:56:02.000Z</time>
      </trkpt>
      <trkpt lat="45.24657" lon="6.17567">
        <ele>1668</ele>
        <time>2019-05-01T05:56:03.000Z</time>
      </trkpt>
      <trkpt lat="45.24654" lon="6.17565">
        <ele>1668.4000244141</ele>
        <time>2019-05-01T05:56:07.000Z</time>
      </trkpt>
      <trkpt lat="45.24648" lon="6.17561">
        <ele>1669</ele>
        <time>2019-05-01T05:56:12.000Z</time>
      </trkpt>
      <trkpt lat="45.24647" lon="6.1756">
        <ele>1669</ele>
        <time>2019-05-01T05:56:13.000Z</time>
      </trkpt>
      <trkpt lat="45.24642" lon="6.17558">
        <ele>1669.4000244141</ele>
        <time>2019-05-01T05:56:18.000Z</time>
      </trkpt>
      <trkpt lat="45.24639" lon="6.17557">
        <ele>1670</ele>
        <time>2019-05-01T05:56:21.000Z</time>
      </trkpt>
      <trkpt lat="45.24638" lon="6.17558">
        <ele>1670.1999511719</ele>
        <time>2019-05-01T05:56:23.000Z</time>
      </trkpt>
      <trkpt lat="45.24637" lon="6.17559">
        <ele>1670.5999755859</ele>
        <time>2019-05-01T05:56:26.000Z</time>
      </trkpt>
      <trkpt lat="45.24636" lon="6.17561">
        <ele>1671</ele>
        <time>2019-05-01T05:56:28.000Z</time>
      </trkpt>
      <trkpt lat="45.24636" lon="6.17563">
        <ele>1671.1999511719</ele>
        <time>2019-05-01T05:56:29.000Z</time>
      </trkpt>
      <trkpt lat="45.24635" lon="6.17565">
        <ele>1671.4000244141</ele>
        <time>2019-05-01T05:56:31.000Z</time>
      </trkpt>
      <trkpt lat="45.24635" lon="6.17566">
        <ele>1671.8000488281</ele>
        <time>2019-05-01T05:56:33.000Z</time>
      </trkpt>
      <trkpt lat="45.24634" lon="6.17566">
        <ele>1672.4000244141</ele>
        <time>2019-05-01T05:56:35.000Z</time>
      </trkpt>
      <trkpt lat="45.24633" lon="6.17566">
        <ele>1672.5999755859</ele>
        <time>2019-05-01T05:56:36.000Z</time>
      </trkpt>
      <trkpt lat="45.24631" lon="6.17566">
        <ele>1673</ele>
        <time>2019-05-01T05:56:38.000Z</time>
      </trkpt>
      <trkpt lat="45.24631" lon="6.17565">
        <ele>1673.4000244141</ele>
        <time>2019-05-01T05:56:40.000Z</time>
      </trkpt>
      <trkpt lat="45.24628" lon="6.17564">
        <ele>1674.4000244141</ele>
        <time>2019-05-01T05:56:44.000Z</time>
      </trkpt>
      <trkpt lat="45.24628" lon="6.17564">
        <ele>1674.5999755859</ele>
        <time>2019-05-01T05:56:45.000Z</time>
      </trkpt>
      <trkpt lat="45.24624" lon="6.17565">
        <ele>1675.5999755859</ele>
        <time>2019-05-01T05:56:49.000Z</time>
      </trkpt>
      <trkpt lat="45.24624" lon="6.17565">
        <ele>1675.8000488281</ele>
        <time>2019-05-01T05:56:50.000Z</time>
      </trkpt>
      <trkpt lat="45.24623" lon="6.17567">
        <ele>1676.8000488281</ele>
        <time>2019-05-01T05:56:53.000Z</time>
      </trkpt>
      <trkpt lat="45.24623" lon="6.17567">
        <ele>1677</ele>
        <time>2019-05-01T05:56:54.000Z</time>
      </trkpt>
      <trkpt lat="45.24623" lon="6.1757">
        <ele>1677.5999755859</ele>
        <time>2019-05-01T05:56:56.000Z</time>
      </trkpt>
      <trkpt lat="45.24623" lon="6.1757">
        <ele>1677.8000488281</ele>
        <time>2019-05-01T05:56:57.000Z</time>
      </trkpt>
      <trkpt lat="45.24623" lon="6.17571">
        <ele>1678.4000244141</ele>
        <time>2019-05-01T05:56:59.000Z</time>
      </trkpt>
      <trkpt lat="45.24622" lon="6.17574">
        <ele>1679</ele>
        <time>2019-05-01T05:57:01.000Z</time>
      </trkpt>
      <trkpt lat="45.2462" lon="6.17575">
        <ele>1679.5999755859</ele>
        <time>2019-05-01T05:57:03.000Z</time>
      </trkpt>
      <trkpt lat="45.24618" lon="6.17576">
        <ele>1680</ele>
        <time>2019-05-01T05:57:05.000Z</time>
      </trkpt>
      <trkpt lat="45.24617" lon="6.17577">
        <ele>1680.5999755859</ele>
        <time>2019-05-01T05:57:08.000Z</time>
      </trkpt>
      <trkpt lat="45.24616" lon="6.17577">
        <ele>1681.1999511719</ele>
        <time>2019-05-01T05:57:10.000Z</time>
      </trkpt>
      <trkpt lat="45.24615" lon="6.17577">
        <ele>1681.4000244141</ele>
        <time>2019-05-01T05:57:11.000Z</time>
      </trkpt>
      <trkpt lat="45.24612" lon="6.17579">
        <ele>1682.1999511719</ele>
        <time>2019-05-01T05:57:16.000Z</time>
      </trkpt>
      <trkpt lat="45.2461" lon="6.17583">
        <ele>1683</ele>
        <time>2019-05-01T05:57:21.000Z</time>
      </trkpt>
      <trkpt lat="45.24608" lon="6.17583">
        <ele>1683.4000244141</ele>
        <time>2019-05-01T05:57:23.000Z</time>
      </trkpt>
      <trkpt lat="45.24605" lon="6.17585">
        <ele>1684.4000244141</ele>
        <time>2019-05-01T05:57:27.000Z</time>
      </trkpt>
      <trkpt lat="45.24605" lon="6.17585">
        <ele>1684.4000244141</ele>
        <time>2019-05-01T05:57:28.000Z</time>
      </trkpt>
      <trkpt lat="45.24605" lon="6.17586">
        <ele>1685.4000244141</ele>
        <time>2019-05-01T05:57:33.000Z</time>
      </trkpt>
      <trkpt lat="45.24605" lon="6.17586">
        <ele>1685.5999755859</ele>
        <time>2019-05-01T05:57:34.000Z</time>
      </trkpt>
      <trkpt lat="45.24602" lon="6.17588">
        <ele>1685.8000488281</ele>
        <time>2019-05-01T05:57:39.000Z</time>
      </trkpt>
      <trkpt lat="45.24599" lon="6.17592">
        <ele>1686.4000244141</ele>
        <time>2019-05-01T05:57:44.000Z</time>
      </trkpt>
      <trkpt lat="45.24597" lon="6.17592">
        <ele>1686.8000488281</ele>
        <time>2019-05-01T05:57:47.000Z</time>
      </trkpt>
      <trkpt lat="45.24593" lon="6.17593">
        <ele>1687.1999511719</ele>
        <time>2019-05-01T05:57:50.000Z</time>
      </trkpt>
      <trkpt lat="45.24589" lon="6.17592">
        <ele>1687.8000488281</ele>
        <time>2019-05-01T05:57:54.000Z</time>
      </trkpt>
      <trkpt lat="45.24589" lon="6.17592">
        <ele>1688.1999511719</ele>
        <time>2019-05-01T05:57:55.000Z</time>
      </trkpt>
      <trkpt lat="45.24585" lon="6.17592">
        <ele>1688.8000488281</ele>
        <time>2019-05-01T05:57:59.000Z</time>
      </trkpt>
      <trkpt lat="45.24583" lon="6.17592">
        <ele>1689.1999511719</ele>
        <time>2019-05-01T05:58:00.000Z</time>
      </trkpt>
      <trkpt lat="45.24578" lon="6.17592">
        <ele>1690</ele>
        <time>2019-05-01T05:58:04.000Z</time>
      </trkpt>
      <trkpt lat="45.24576" lon="6.17594">
        <ele>1690.5999755859</ele>
        <time>2019-05-01T05:58:07.000Z</time>
      </trkpt>
      <trkpt lat="45.24576" lon="6.17594">
        <ele>1691.1999511719</ele>
        <time>2019-05-01T05:58:10.000Z</time>
      </trkpt>
      <trkpt lat="45.24576" lon="6.17594">
        <ele>1691.5999755859</ele>
        <time>2019-05-01T05:58:16.000Z</time>
      </trkpt>
      <trkpt lat="45.24572" lon="6.17593">
        <ele>1692</ele>
        <time>2019-05-01T05:58:23.000Z</time>
      </trkpt>
      <trkpt lat="45.24571" lon="6.17593">
        <ele>1692.1999511719</ele>
        <time>2019-05-01T05:58:24.000Z</time>
      </trkpt>
      <trkpt lat="45.24569" lon="6.17594">
        <ele>1692.8000488281</ele>
        <time>2019-05-01T05:58:29.000Z</time>
      </trkpt>
      <trkpt lat="45.2457" lon="6.17596">
        <ele>1692.8000488281</ele>
        <time>2019-05-01T05:58:32.000Z</time>
      </trkpt>
      <trkpt lat="45.24571" lon="6.17596">
        <ele>1693</ele>
        <time>2019-05-01T05:58:33.000Z</time>
      </trkpt>
      <trkpt lat="45.24573" lon="6.17598">
        <ele>1693.4000244141</ele>
        <time>2019-05-01T05:58:37.000Z</time>
      </trkpt>
      <trkpt lat="45.24574" lon="6.176">
        <ele>1693.4000244141</ele>
        <time>2019-05-01T05:58:39.000Z</time>
      </trkpt>
      <trkpt lat="45.24573" lon="6.17602">
        <ele>1693.8000488281</ele>
        <time>2019-05-01T05:58:41.000Z</time>
      </trkpt>
      <trkpt lat="45.24574" lon="6.17602">
        <ele>1694</ele>
        <time>2019-05-01T05:58:42.000Z</time>
      </trkpt>
      <trkpt lat="45.24574" lon="6.17604">
        <ele>1694.4000244141</ele>
        <time>2019-05-01T05:58:43.000Z</time>
      </trkpt>
      <trkpt lat="45.24574" lon="6.17608">
        <ele>1695.5999755859</ele>
        <time>2019-05-01T05:58:48.000Z</time>
      </trkpt>
      <trkpt lat="45.24573" lon="6.17612">
        <ele>1696.1999511719</ele>
        <time>2019-05-01T05:58:52.000Z</time>
      </trkpt>
      <trkpt lat="45.24573" lon="6.17614">
        <ele>1696.8000488281</ele>
        <time>2019-05-01T05:58:54.000Z</time>
      </trkpt>
      <trkpt lat="45.24573" lon="6.17618">
        <ele>1697.8000488281</ele>
        <time>2019-05-01T05:58:58.000Z</time>
      </trkpt>
      <trkpt lat="45.24572" lon="6.17621">
        <ele>1698</ele>
        <time>2019-05-01T05:58:59.000Z</time>
      </trkpt>
      <trkpt lat="45.24572" lon="6.17621">
        <ele>1698.5999755859</ele>
        <time>2019-05-01T05:59:02.000Z</time>
      </trkpt>
      <trkpt lat="45.24572" lon="6.17625">
        <ele>1699.1999511719</ele>
        <time>2019-05-01T05:59:05.000Z</time>
      </trkpt>
      <trkpt lat="45.24571" lon="6.17626">
        <ele>1700</ele>
        <time>2019-05-01T05:59:08.000Z</time>
      </trkpt>
      <trkpt lat="45.24571" lon="6.17626">
        <ele>1700.1999511719</ele>
        <time>2019-05-01T05:59:09.000Z</time>
      </trkpt>
      <trkpt lat="45.24569" lon="6.17626">
        <ele>1700.1999511719</ele>
        <time>2019-05-01T05:59:10.000Z</time>
      </trkpt>
      <trkpt lat="45.24568" lon="6.17626">
        <ele>1700.4000244141</ele>
        <time>2019-05-01T05:59:12.000Z</time>
      </trkpt>
      <trkpt lat="45.24565" lon="6.17625">
        <ele>1701.1999511719</ele>
        <time>2019-05-01T05:59:16.000Z</time>
      </trkpt>
      <trkpt lat="45.24565" lon="6.17625">
        <ele>1701.4000244141</ele>
        <time>2019-05-01T05:59:17.000Z</time>
      </trkpt>
      <trkpt lat="45.24559" lon="6.17625">
        <ele>1702.4000244141</ele>
        <time>2019-05-01T05:59:23.000Z</time>
      </trkpt>
      <trkpt lat="45.24554" lon="6.17626">
        <ele>1703.5999755859</ele>
        <time>2019-05-01T05:59:28.000Z</time>
      </trkpt>
      <trkpt lat="45.24552" lon="6.17626">
        <ele>1704</ele>
        <time>2019-05-01T05:59:30.000Z</time>
      </trkpt>
      <trkpt lat="45.24551" lon="6.17626">
        <ele>1704.5999755859</ele>
        <time>2019-05-01T05:59:32.000Z</time>
      </trkpt>
      <trkpt lat="45.2455" lon="6.17626">
        <ele>1705.1999511719</ele>
        <time>2019-05-01T05:59:35.000Z</time>
      </trkpt>
      <trkpt lat="45.24547" lon="6.17625">
        <ele>1705.8000488281</ele>
        <time>2019-05-01T05:59:39.000Z</time>
      </trkpt>
      <trkpt lat="45.24546" lon="6.17623">
        <ele>1706</ele>
        <time>2019-05-01T05:59:40.000Z</time>
      </trkpt>
      <trkpt lat="45.24545" lon="6.17624">
        <ele>1706</ele>
        <time>2019-05-01T05:59:41.000Z</time>
      </trkpt>
      <trkpt lat="45.24542" lon="6.17622">
        <ele>1706.5999755859</ele>
        <time>2019-05-01T05:59:46.000Z</time>
      </trkpt>
      <trkpt lat="45.2454" lon="6.17621">
        <ele>1707</ele>
        <time>2019-05-01T05:59:48.000Z</time>
      </trkpt>
      <trkpt lat="45.24537" lon="6.17621">
        <ele>1707.5999755859</ele>
        <time>2019-05-01T05:59:52.000Z</time>
      </trkpt>
      <trkpt lat="45.24534" lon="6.17621">
        <ele>1708</ele>
        <time>2019-05-01T05:59:55.000Z</time>
      </trkpt>
      <trkpt lat="45.24533" lon="6.17621">
        <ele>1708.1999511719</ele>
        <time>2019-05-01T05:59:57.000Z</time>
      </trkpt>
      <trkpt lat="45.2453" lon="6.17618">
        <ele>1708.8000488281</ele>
        <time>2019-05-01T06:00:01.000Z</time>
      </trkpt>
      <trkpt lat="45.2453" lon="6.17618">
        <ele>1709</ele>
        <time>2019-05-01T06:00:02.000Z</time>
      </trkpt>
      <trkpt lat="45.24526" lon="6.17612">
        <ele>1709.8000488281</ele>
        <time>2019-05-01T06:00:07.000Z</time>
      </trkpt>
      <trkpt lat="45.24523" lon="6.17608">
        <ele>1709.5999755859</ele>
        <time>2019-05-01T06:00:12.000Z</time>
      </trkpt>
      <trkpt lat="45.2452" lon="6.17602">
        <ele>1710</ele>
        <time>2019-05-01T06:00:18.000Z</time>
      </trkpt>
      <trkpt lat="45.2452" lon="6.17601">
        <ele>1710.1999511719</ele>
        <time>2019-05-01T06:00:19.000Z</time>
      </trkpt>
      <trkpt lat="45.24517" lon="6.17595">
        <ele>1710.8000488281</ele>
        <time>2019-05-01T06:00:23.000Z</time>
      </trkpt>
      <trkpt lat="45.24514" lon="6.17591">
        <ele>1711.1999511719</ele>
        <time>2019-05-01T06:00:28.000Z</time>
      </trkpt>
      <trkpt lat="45.24513" lon="6.17591">
        <ele>1711.4000244141</ele>
        <time>2019-05-01T06:00:29.000Z</time>
      </trkpt>
      <trkpt lat="45.24511" lon="6.17589">
        <ele>1711.5999755859</ele>
        <time>2019-05-01T06:00:32.000Z</time>
      </trkpt>
      <trkpt lat="45.24508" lon="6.17586">
        <ele>1712.1999511719</ele>
        <time>2019-05-01T06:00:36.000Z</time>
      </trkpt>
      <trkpt lat="45.24507" lon="6.17585">
        <ele>1712.4000244141</ele>
        <time>2019-05-01T06:00:37.000Z</time>
      </trkpt>
      <trkpt lat="45.24506" lon="6.17587">
        <ele>1712.8000488281</ele>
        <time>2019-05-01T06:00:41.000Z</time>
      </trkpt>
      <trkpt lat="45.24506" lon="6.17587">
        <ele>1713</ele>
        <time>2019-05-01T06:00:58.000Z</time>
      </trkpt>
      <trkpt lat="45.24506" lon="6.17587">
        <ele>1713</ele>
        <time>2019-05-01T06:01:10.000Z</time>
      </trkpt>
      <trkpt lat="45.24506" lon="6.17586">
        <ele>1713</ele>
        <time>2019-05-01T06:01:22.000Z</time>
      </trkpt>
      <trkpt lat="45.24506" lon="6.17586">
        <ele>1713</ele>
        <time>2019-05-01T06:01:35.000Z</time>
      </trkpt>
      <trkpt lat="45.24506" lon="6.17586">
        <ele>1713.1999511719</ele>
        <time>2019-05-01T06:01:51.000Z</time>
      </trkpt>
      <trkpt lat="45.24505" lon="6.17587">
        <ele>1713</ele>
        <time>2019-05-01T06:02:05.000Z</time>
      </trkpt>
      <trkpt lat="45.24504" lon="6.17587">
        <ele>1713</ele>
        <time>2019-05-01T06:02:12.000Z</time>
      </trkpt>
      <trkpt lat="45.24504" lon="6.17587">
        <ele>1713.1999511719</ele>
        <time>2019-05-01T06:02:23.000Z</time>
      </trkpt>
      <trkpt lat="45.24501" lon="6.17585">
        <ele>1713.1999511719</ele>
        <time>2019-05-01T06:02:28.000Z</time>
      </trkpt>
      <trkpt lat="45.24495" lon="6.17583">
        <ele>1713.4000244141</ele>
        <time>2019-05-01T06:02:33.000Z</time>
      </trkpt>
      <trkpt lat="45.24494" lon="6.17582">
        <ele>1713.4000244141</ele>
        <time>2019-05-01T06:02:34.000Z</time>
      </trkpt>
      <trkpt lat="45.24492" lon="6.1758">
        <ele>1713.8000488281</ele>
        <time>2019-05-01T06:02:37.000Z</time>
      </trkpt>
      <trkpt lat="45.24488" lon="6.17577">
        <ele>1714.4000244141</ele>
        <time>2019-05-01T06:02:41.000Z</time>
      </trkpt>
      <trkpt lat="45.24487" lon="6.17578">
        <ele>1714.4000244141</ele>
        <time>2019-05-01T06:02:42.000Z</time>
      </trkpt>
      <trkpt lat="45.24483" lon="6.17576">
        <ele>1715.1999511719</ele>
        <time>2019-05-01T06:02:45.000Z</time>
      </trkpt>
      <trkpt lat="45.24481" lon="6.17574">
        <ele>1715.5999755859</ele>
        <time>2019-05-01T06:02:48.000Z</time>
      </trkpt>
      <trkpt lat="45.24478" lon="6.17571">
        <ele>1716</ele>
        <time>2019-05-01T06:02:51.000Z</time>
      </trkpt>
      <trkpt lat="45.24478" lon="6.1757">
        <ele>1716</ele>
        <time>2019-05-01T06:02:52.000Z</time>
      </trkpt>
      <trkpt lat="45.24477" lon="6.17567">
        <ele>1716.4000244141</ele>
        <time>2019-05-01T06:02:55.000Z</time>
      </trkpt>
      <trkpt lat="45.24476" lon="6.17566">
        <ele>1716.4000244141</ele>
        <time>2019-05-01T06:02:56.000Z</time>
      </trkpt>
      <trkpt lat="45.24475" lon="6.17567">
        <ele>1716.5999755859</ele>
        <time>2019-05-01T06:02:59.000Z</time>
      </trkpt>
      <trkpt lat="45.24475" lon="6.17567">
        <ele>1716.8000488281</ele>
        <time>2019-05-01T06:03:00.000Z</time>
      </trkpt>
      <trkpt lat="45.24475" lon="6.17566">
        <ele>1717</ele>
        <time>2019-05-01T06:03:08.000Z</time>
      </trkpt>
      <trkpt lat="45.24472" lon="6.17564">
        <ele>1717.1999511719</ele>
        <time>2019-05-01T06:03:11.000Z</time>
      </trkpt>
      <trkpt lat="45.24471" lon="6.17564">
        <ele>1717.1999511719</ele>
        <time>2019-05-01T06:03:12.000Z</time>
      </trkpt>
      <trkpt lat="45.24468" lon="6.17562">
        <ele>1717.8000488281</ele>
        <time>2019-05-01T06:03:15.000Z</time>
      </trkpt>
      <trkpt lat="45.24468" lon="6.17562">
        <ele>1718</ele>
        <time>2019-05-01T06:03:16.000Z</time>
      </trkpt>
      <trkpt lat="45.24465" lon="6.17557">
        <ele>1718.5999755859</ele>
        <time>2019-05-01T06:03:20.000Z</time>
      </trkpt>
      <trkpt lat="45.24463" lon="6.17552">
        <ele>1719</ele>
        <time>2019-05-01T06:03:23.000Z</time>
      </trkpt>
      <trkpt lat="45.24462" lon="6.17551">
        <ele>1719.1999511719</ele>
        <time>2019-05-01T06:03:25.000Z</time>
      </trkpt>
      <trkpt lat="45.24457" lon="6.17544">
        <ele>1720</ele>
        <time>2019-05-01T06:03:30.000Z</time>
      </trkpt>
      <trkpt lat="45.24454" lon="6.1754">
        <ele>1720.5999755859</ele>
        <time>2019-05-01T06:03:35.000Z</time>
      </trkpt>
      <trkpt lat="45.2445" lon="6.17537">
        <ele>1721</ele>
        <time>2019-05-01T06:03:40.000Z</time>
      </trkpt>
      <trkpt lat="45.24448" lon="6.17536">
        <ele>1721</ele>
        <time>2019-05-01T06:03:41.000Z</time>
      </trkpt>
      <trkpt lat="45.24444" lon="6.1753">
        <ele>1721.4000244141</ele>
        <time>2019-05-01T06:03:45.000Z</time>
      </trkpt>
      <trkpt lat="45.24439" lon="6.17525">
        <ele>1721.8000488281</ele>
        <time>2019-05-01T06:03:51.000Z</time>
      </trkpt>
      <trkpt lat="45.24437" lon="6.17523">
        <ele>1722</ele>
        <time>2019-05-01T06:03:54.000Z</time>
      </trkpt>
      <trkpt lat="45.24437" lon="6.17522">
        <ele>1722.1999511719</ele>
        <time>2019-05-01T06:03:55.000Z</time>
      </trkpt>
      <trkpt lat="45.24437" lon="6.17522">
        <ele>1722.1999511719</ele>
        <time>2019-05-01T06:03:56.000Z</time>
      </trkpt>
      <trkpt lat="45.24434" lon="6.17517">
        <ele>1723</ele>
        <time>2019-05-01T06:04:01.000Z</time>
      </trkpt>
      <trkpt lat="45.24432" lon="6.17517">
        <ele>1723.1999511719</ele>
        <time>2019-05-01T06:04:03.000Z</time>
      </trkpt>
      <trkpt lat="45.2443" lon="6.17517">
        <ele>1723.8000488281</ele>
        <time>2019-05-01T06:04:06.000Z</time>
      </trkpt>
      <trkpt lat="45.24427" lon="6.17514">
        <ele>1724.1999511719</ele>
        <time>2019-05-01T06:04:09.000Z</time>
      </trkpt>
      <trkpt lat="45.24426" lon="6.17513">
        <ele>1724.5999755859</ele>
        <time>2019-05-01T06:04:11.000Z</time>
      </trkpt>
      <trkpt lat="45.24421" lon="6.17506">
        <ele>1725.1999511719</ele>
        <time>2019-05-01T06:04:17.000Z</time>
      </trkpt>
      <trkpt lat="45.2442" lon="6.17504">
        <ele>1725.4000244141</ele>
        <time>2019-05-01T06:04:18.000Z</time>
      </trkpt>
      <trkpt lat="45.24418" lon="6.17503">
        <ele>1726.1999511719</ele>
        <time>2019-05-01T06:04:22.000Z</time>
      </trkpt>
      <trkpt lat="45.24415" lon="6.17499">
        <ele>1726.4000244141</ele>
        <time>2019-05-01T06:04:26.000Z</time>
      </trkpt>
      <trkpt lat="45.24414" lon="6.17498">
        <ele>1726.5999755859</ele>
        <time>2019-05-01T06:04:27.000Z</time>
      </trkpt>
      <trkpt lat="45.24411" lon="6.17489">
        <ele>1727</ele>
        <time>2019-05-01T06:04:32.000Z</time>
      </trkpt>
      <trkpt lat="45.24408" lon="6.17485">
        <ele>1727.4000244141</ele>
        <time>2019-05-01T06:04:36.000Z</time>
      </trkpt>
      <trkpt lat="45.24407" lon="6.17484">
        <ele>1727.4000244141</ele>
        <time>2019-05-01T06:04:37.000Z</time>
      </trkpt>
      <trkpt lat="45.24403" lon="6.17482">
        <ele>1728</ele>
        <time>2019-05-01T06:04:41.000Z</time>
      </trkpt>
      <trkpt lat="45.24402" lon="6.17481">
        <ele>1728.4000244141</ele>
        <time>2019-05-01T06:04:43.000Z</time>
      </trkpt>
      <trkpt lat="45.244" lon="6.1748">
        <ele>1728.5999755859</ele>
        <time>2019-05-01T06:04:44.000Z</time>
      </trkpt>
      <trkpt lat="45.244" lon="6.1748">
        <ele>1728.8000488281</ele>
        <time>2019-05-01T06:04:45.000Z</time>
      </trkpt>
      <trkpt lat="45.24396" lon="6.17477">
        <ele>1729.1999511719</ele>
        <time>2019-05-01T06:04:49.000Z</time>
      </trkpt>
      <trkpt lat="45.24395" lon="6.17473">
        <ele>1729.4000244141</ele>
        <time>2019-05-01T06:04:52.000Z</time>
      </trkpt>
      <trkpt lat="45.24394" lon="6.17472">
        <ele>1729.5999755859</ele>
        <time>2019-05-01T06:04:54.000Z</time>
      </trkpt>
      <trkpt lat="45.24392" lon="6.17471">
        <ele>1730</ele>
        <time>2019-05-01T06:04:57.000Z</time>
      </trkpt>
      <trkpt lat="45.24391" lon="6.17471">
        <ele>1730.4000244141</ele>
        <time>2019-05-01T06:05:00.000Z</time>
      </trkpt>
      <trkpt lat="45.2439" lon="6.17468">
        <ele>1730.8000488281</ele>
        <time>2019-05-01T06:05:04.000Z</time>
      </trkpt>
      <trkpt lat="45.24388" lon="6.17461">
        <ele>1731.4000244141</ele>
        <time>2019-05-01T06:05:08.000Z</time>
      </trkpt>
      <trkpt lat="45.24385" lon="6.17459">
        <ele>1731.8000488281</ele>
        <time>2019-05-01T06:05:12.000Z</time>
      </trkpt>
      <trkpt lat="45.24384" lon="6.17457">
        <ele>1731.8000488281</ele>
        <time>2019-05-01T06:05:13.000Z</time>
      </trkpt>
      <trkpt lat="45.24382" lon="6.17455">
        <ele>1732.4000244141</ele>
        <time>2019-05-01T06:05:17.000Z</time>
      </trkpt>
      <trkpt lat="45.2438" lon="6.1745">
        <ele>1733</ele>
        <time>2019-05-01T06:05:21.000Z</time>
      </trkpt>
      <trkpt lat="45.24379" lon="6.17448">
        <ele>1733</ele>
        <time>2019-05-01T06:05:22.000Z</time>
      </trkpt>
      <trkpt lat="45.24379" lon="6.17443">
        <ele>1733.4000244141</ele>
        <time>2019-05-01T06:05:26.000Z</time>
      </trkpt>
      <trkpt lat="45.24378" lon="6.17441">
        <ele>1733.5999755859</ele>
        <time>2019-05-01T06:05:27.000Z</time>
      </trkpt>
      <trkpt lat="45.24376" lon="6.17434">
        <ele>1734</ele>
        <time>2019-05-01T06:05:32.000Z</time>
      </trkpt>
      <trkpt lat="45.24373" lon="6.1743">
        <ele>1734.5999755859</ele>
        <time>2019-05-01T06:05:37.000Z</time>
      </trkpt>
      <trkpt lat="45.24372" lon="6.17427">
        <ele>1734.8000488281</ele>
        <time>2019-05-01T06:05:39.000Z</time>
      </trkpt>
      <trkpt lat="45.24371" lon="6.17424">
        <ele>1735</ele>
        <time>2019-05-01T06:05:42.000Z</time>
      </trkpt>
      <trkpt lat="45.24369" lon="6.17422">
        <ele>1735.1999511719</ele>
        <time>2019-05-01T06:05:44.000Z</time>
      </trkpt>
      <trkpt lat="45.24368" lon="6.17421">
        <ele>1735.4000244141</ele>
        <time>2019-05-01T06:05:46.000Z</time>
      </trkpt>
      <trkpt lat="45.24367" lon="6.1742">
        <ele>1735.5999755859</ele>
        <time>2019-05-01T06:05:47.000Z</time>
      </trkpt>
      <trkpt lat="45.24366" lon="6.17416">
        <ele>1735.8000488281</ele>
        <time>2019-05-01T06:05:50.000Z</time>
      </trkpt>
      <trkpt lat="45.24364" lon="6.17414">
        <ele>1736</ele>
        <time>2019-05-01T06:05:52.000Z</time>
      </trkpt>
      <trkpt lat="45.24364" lon="6.17412">
        <ele>1736</ele>
        <time>2019-05-01T06:05:54.000Z</time>
      </trkpt>
      <trkpt lat="45.24363" lon="6.17408">
        <ele>1736.4000244141</ele>
        <time>2019-05-01T06:05:56.000Z</time>
      </trkpt>
      <trkpt lat="45.24361" lon="6.17405">
        <ele>1736.8000488281</ele>
        <time>2019-05-01T06:06:00.000Z</time>
      </trkpt>
      <trkpt lat="45.24357" lon="6.17401">
        <ele>1737.1999511719</ele>
        <time>2019-05-01T06:06:04.000Z</time>
      </trkpt>
      <trkpt lat="45.24356" lon="6.174">
        <ele>1737.1999511719</ele>
        <time>2019-05-01T06:06:05.000Z</time>
      </trkpt>
      <trkpt lat="45.24351" lon="6.17395">
        <ele>1737.5999755859</ele>
        <time>2019-05-01T06:06:10.000Z</time>
      </trkpt>
      <trkpt lat="45.24346" lon="6.17392">
        <ele>1738</ele>
        <time>2019-05-01T06:06:15.000Z</time>
      </trkpt>
      <trkpt lat="45.24345" lon="6.17391">
        <ele>1738</ele>
        <time>2019-05-01T06:06:16.000Z</time>
      </trkpt>
      <trkpt lat="45.24345" lon="6.1739">
        <ele>1738.1999511719</ele>
        <time>2019-05-01T06:06:17.000Z</time>
      </trkpt>
      <trkpt lat="45.24343" lon="6.17387">
        <ele>1738.4000244141</ele>
        <time>2019-05-01T06:06:20.000Z</time>
      </trkpt>
      <trkpt lat="45.24339" lon="6.17382">
        <ele>1738.8000488281</ele>
        <time>2019-05-01T06:06:24.000Z</time>
      </trkpt>
      <trkpt lat="45.24338" lon="6.1738">
        <ele>1739</ele>
        <time>2019-05-01T06:06:26.000Z</time>
      </trkpt>
      <trkpt lat="45.24338" lon="6.17378">
        <ele>1739.1999511719</ele>
        <time>2019-05-01T06:06:28.000Z</time>
      </trkpt>
      <trkpt lat="45.24337" lon="6.17376">
        <ele>1739.1999511719</ele>
        <time>2019-05-01T06:06:29.000Z</time>
      </trkpt>
      <trkpt lat="45.24334" lon="6.1737">
        <ele>1739.5999755859</ele>
        <time>2019-05-01T06:06:34.000Z</time>
      </trkpt>
      <trkpt lat="45.24331" lon="6.17368">
        <ele>1740.1999511719</ele>
        <time>2019-05-01T06:06:37.000Z</time>
      </trkpt>
      <trkpt lat="45.24331" lon="6.17368">
        <ele>1740.1999511719</ele>
        <time>2019-05-01T06:06:38.000Z</time>
      </trkpt>
      <trkpt lat="45.2433" lon="6.17367">
        <ele>1740.4000244141</ele>
        <time>2019-05-01T06:06:39.000Z</time>
      </trkpt>
      <trkpt lat="45.24329" lon="6.17367">
        <ele>1740.4000244141</ele>
        <time>2019-05-01T06:06:40.000Z</time>
      </trkpt>
      <trkpt lat="45.24326" lon="6.17366">
        <ele>1740.8000488281</ele>
        <time>2019-05-01T06:06:43.000Z</time>
      </trkpt>
      <trkpt lat="45.24325" lon="6.17364">
        <ele>1741.1999511719</ele>
        <time>2019-05-01T06:06:45.000Z</time>
      </trkpt>
      <trkpt lat="45.24323" lon="6.17362">
        <ele>1741.5999755859</ele>
        <time>2019-05-01T06:06:48.000Z</time>
      </trkpt>
      <trkpt lat="45.2432" lon="6.17358">
        <ele>1742.1999511719</ele>
        <time>2019-05-01T06:06:53.000Z</time>
      </trkpt>
      <trkpt lat="45.2432" lon="6.17356">
        <ele>1742.4000244141</ele>
        <time>2019-05-01T06:06:54.000Z</time>
      </trkpt>
      <trkpt lat="45.24319" lon="6.17355">
        <ele>1742.8000488281</ele>
        <time>2019-05-01T06:06:57.000Z</time>
      </trkpt>
      <trkpt lat="45.24317" lon="6.17351">
        <ele>1743.4000244141</ele>
        <time>2019-05-01T06:07:01.000Z</time>
      </trkpt>
      <trkpt lat="45.24317" lon="6.17351">
        <ele>1743.5999755859</ele>
        <time>2019-05-01T06:07:02.000Z</time>
      </trkpt>
      <trkpt lat="45.24315" lon="6.17347">
        <ele>1744.1999511719</ele>
        <time>2019-05-01T06:07:07.000Z</time>
      </trkpt>
      <trkpt lat="45.24314" lon="6.17346">
        <ele>1744.4000244141</ele>
        <time>2019-05-01T06:07:08.000Z</time>
      </trkpt>
      <trkpt lat="45.24313" lon="6.17343">
        <ele>1744.8000488281</ele>
        <time>2019-05-01T06:07:12.000Z</time>
      </trkpt>
      <trkpt lat="45.24311" lon="6.17338">
        <ele>1745.4000244141</ele>
        <time>2019-05-01T06:07:17.000Z</time>
      </trkpt>
      <trkpt lat="45.24309" lon="6.17334">
        <ele>1745.5999755859</ele>
        <time>2019-05-01T06:07:20.000Z</time>
      </trkpt>
      <trkpt lat="45.24308" lon="6.17332">
        <ele>1745.8000488281</ele>
        <time>2019-05-01T06:07:22.000Z</time>
      </trkpt>
      <trkpt lat="45.24308" lon="6.17329">
        <ele>1746</ele>
        <time>2019-05-01T06:07:24.000Z</time>
      </trkpt>
      <trkpt lat="45.24307" lon="6.17326">
        <ele>1746.1999511719</ele>
        <time>2019-05-01T06:07:27.000Z</time>
      </trkpt>
      <trkpt lat="45.24305" lon="6.17324">
        <ele>1746.4000244141</ele>
        <time>2019-05-01T06:07:29.000Z</time>
      </trkpt>
      <trkpt lat="45.24304" lon="6.17325">
        <ele>1746.5999755859</ele>
        <time>2019-05-01T06:07:30.000Z</time>
      </trkpt>
      <trkpt lat="45.24302" lon="6.17325">
        <ele>1746.5999755859</ele>
        <time>2019-05-01T06:07:31.000Z</time>
      </trkpt>
      <trkpt lat="45.243" lon="6.1732">
        <ele>1747.4000244141</ele>
        <time>2019-05-01T06:07:36.000Z</time>
      </trkpt>
      <trkpt lat="45.24299" lon="6.1732">
        <ele>1747.5999755859</ele>
        <time>2019-05-01T06:07:38.000Z</time>
      </trkpt>
      <trkpt lat="45.24297" lon="6.17316">
        <ele>1748</ele>
        <time>2019-05-01T06:07:41.000Z</time>
      </trkpt>
      <trkpt lat="45.24294" lon="6.17311">
        <ele>1748.5999755859</ele>
        <time>2019-05-01T06:07:46.000Z</time>
      </trkpt>
      <trkpt lat="45.24293" lon="6.17311">
        <ele>1748.5999755859</ele>
        <time>2019-05-01T06:07:48.000Z</time>
      </trkpt>
      <trkpt lat="45.2429" lon="6.17307">
        <ele>1749</ele>
        <time>2019-05-01T06:07:52.000Z</time>
      </trkpt>
      <trkpt lat="45.24286" lon="6.17305">
        <ele>1749.5999755859</ele>
        <time>2019-05-01T06:07:57.000Z</time>
      </trkpt>
      <trkpt lat="45.24285" lon="6.17302">
        <ele>1749.8000488281</ele>
        <time>2019-05-01T06:07:59.000Z</time>
      </trkpt>
      <trkpt lat="45.24285" lon="6.17301">
        <ele>1749.8000488281</ele>
        <time>2019-05-01T06:08:00.000Z</time>
      </trkpt>
      <trkpt lat="45.24283" lon="6.17298">
        <ele>1750.1999511719</ele>
        <time>2019-05-01T06:08:02.000Z</time>
      </trkpt>
      <trkpt lat="45.24281" lon="6.17293">
        <ele>1750.5999755859</ele>
        <time>2019-05-01T06:08:07.000Z</time>
      </trkpt>
      <trkpt lat="45.2428" lon="6.1729">
        <ele>1750.8000488281</ele>
        <time>2019-05-01T06:08:09.000Z</time>
      </trkpt>
      <trkpt lat="45.24281" lon="6.17288">
        <ele>1750.8000488281</ele>
        <time>2019-05-01T06:08:10.000Z</time>
      </trkpt>
      <trkpt lat="45.24281" lon="6.17286">
        <ele>1751</ele>
        <time>2019-05-01T06:08:11.000Z</time>
      </trkpt>
      <trkpt lat="45.24281" lon="6.17284">
        <ele>1751.1999511719</ele>
        <time>2019-05-01T06:08:12.000Z</time>
      </trkpt>
      <trkpt lat="45.24281" lon="6.17277">
        <ele>1751.5999755859</ele>
        <time>2019-05-01T06:08:15.000Z</time>
      </trkpt>
      <trkpt lat="45.24281" lon="6.17276">
        <ele>1751.8000488281</ele>
        <time>2019-05-01T06:08:16.000Z</time>
      </trkpt>
      <trkpt lat="45.2428" lon="6.17271">
        <ele>1752</ele>
        <time>2019-05-01T06:08:18.000Z</time>
      </trkpt>
      <trkpt lat="45.24277" lon="6.17269">
        <ele>1752.5999755859</ele>
        <time>2019-05-01T06:08:21.000Z</time>
      </trkpt>
      <trkpt lat="45.24276" lon="6.17266">
        <ele>1752.8000488281</ele>
        <time>2019-05-01T06:08:25.000Z</time>
      </trkpt>
      <trkpt lat="45.24275" lon="6.17257">
        <ele>1753.1999511719</ele>
        <time>2019-05-01T06:08:30.000Z</time>
      </trkpt>
      <trkpt lat="45.24276" lon="6.17249">
        <ele>1753.5999755859</ele>
        <time>2019-05-01T06:08:34.000Z</time>
      </trkpt>
      <trkpt lat="45.24274" lon="6.17244">
        <ele>1754</ele>
        <time>2019-05-01T06:08:38.000Z</time>
      </trkpt>
      <trkpt lat="45.24273" lon="6.17238">
        <ele>1754.5999755859</ele>
        <time>2019-05-01T06:08:43.000Z</time>
      </trkpt>
      <trkpt lat="45.24271" lon="6.17235">
        <ele>1755</ele>
        <time>2019-05-01T06:08:46.000Z</time>
      </trkpt>
      <trkpt lat="45.2427" lon="6.17234">
        <ele>1755.1999511719</ele>
        <time>2019-05-01T06:08:47.000Z</time>
      </trkpt>
      <trkpt lat="45.2427" lon="6.17228">
        <ele>1755.5999755859</ele>
        <time>2019-05-01T06:08:50.000Z</time>
      </trkpt>
      <trkpt lat="45.2427" lon="6.17227">
        <ele>1755.8000488281</ele>
        <time>2019-05-01T06:08:51.000Z</time>
      </trkpt>
      <trkpt lat="45.24271" lon="6.17221">
        <ele>1756.1999511719</ele>
        <time>2019-05-01T06:08:56.000Z</time>
      </trkpt>
      <trkpt lat="45.2427" lon="6.17216">
        <ele>1756.5999755859</ele>
        <time>2019-05-01T06:09:00.000Z</time>
      </trkpt>
      <trkpt lat="45.24269" lon="6.17209">
        <ele>1757</ele>
        <time>2019-05-01T06:09:05.000Z</time>
      </trkpt>
      <trkpt lat="45.24268" lon="6.17204">
        <ele>1757.1999511719</ele>
        <time>2019-05-01T06:09:07.000Z</time>
      </trkpt>
      <trkpt lat="45.24267" lon="6.172">
        <ele>1757.5999755859</ele>
        <time>2019-05-01T06:09:10.000Z</time>
      </trkpt>
      <trkpt lat="45.24267" lon="6.17188">
        <ele>1758.1999511719</ele>
        <time>2019-05-01T06:09:16.000Z</time>
      </trkpt>
      <trkpt lat="45.24266" lon="6.17186">
        <ele>1758.4000244141</ele>
        <time>2019-05-01T06:09:18.000Z</time>
      </trkpt>
      <trkpt lat="45.24265" lon="6.17183">
        <ele>1758.5999755859</ele>
        <time>2019-05-01T06:09:21.000Z</time>
      </trkpt>
      <trkpt lat="45.24265" lon="6.17176">
        <ele>1759.1999511719</ele>
        <time>2019-05-01T06:09:26.000Z</time>
      </trkpt>
      <trkpt lat="45.24264" lon="6.17174">
        <ele>1759.1999511719</ele>
        <time>2019-05-01T06:09:27.000Z</time>
      </trkpt>
      <trkpt lat="45.24264" lon="6.17173">
        <ele>1759.4000244141</ele>
        <time>2019-05-01T06:09:28.000Z</time>
      </trkpt>
      <trkpt lat="45.24263" lon="6.1717">
        <ele>1759.8000488281</ele>
        <time>2019-05-01T06:09:30.000Z</time>
      </trkpt>
      <trkpt lat="45.24264" lon="6.17168">
        <ele>1760</ele>
        <time>2019-05-01T06:09:31.000Z</time>
      </trkpt>
      <trkpt lat="45.24262" lon="6.17161">
        <ele>1760.4000244141</ele>
        <time>2019-05-01T06:09:36.000Z</time>
      </trkpt>
      <trkpt lat="45.24262" lon="6.1716">
        <ele>1760.5999755859</ele>
        <time>2019-05-01T06:09:37.000Z</time>
      </trkpt>
      <trkpt lat="45.24261" lon="6.17153">
        <ele>1761.1999511719</ele>
        <time>2019-05-01T06:09:42.000Z</time>
      </trkpt>
      <trkpt lat="45.24259" lon="6.17151">
        <ele>1761.4000244141</ele>
        <time>2019-05-01T06:09:45.000Z</time>
      </trkpt>
      <trkpt lat="45.24259" lon="6.17151">
        <ele>1761.4000244141</ele>
        <time>2019-05-01T06:09:46.000Z</time>
      </trkpt>
      <trkpt lat="45.24259" lon="6.17149">
        <ele>1761.5999755859</ele>
        <time>2019-05-01T06:09:47.000Z</time>
      </trkpt>
      <trkpt lat="45.24258" lon="6.17146">
        <ele>1762</ele>
        <time>2019-05-01T06:09:51.000Z</time>
      </trkpt>
      <trkpt lat="45.24257" lon="6.17145">
        <ele>1762</ele>
        <time>2019-05-01T06:09:52.000Z</time>
      </trkpt>
      <trkpt lat="45.24254" lon="6.17146">
        <ele>1762.4000244141</ele>
        <time>2019-05-01T06:09:55.000Z</time>
      </trkpt>
      <trkpt lat="45.24253" lon="6.17145">
        <ele>1762.8000488281</ele>
        <time>2019-05-01T06:09:56.000Z</time>
      </trkpt>
      <trkpt lat="45.24253" lon="6.17142">
        <ele>1763.4000244141</ele>
        <time>2019-05-01T06:10:00.000Z</time>
      </trkpt>
      <trkpt lat="45.24253" lon="6.17137">
        <ele>1763.8000488281</ele>
        <time>2019-05-01T06:10:03.000Z</time>
      </trkpt>
      <trkpt lat="45.24252" lon="6.17135">
        <ele>1764</ele>
        <time>2019-05-01T06:10:04.000Z</time>
      </trkpt>
      <trkpt lat="45.24253" lon="6.17129">
        <ele>1764.5999755859</ele>
        <time>2019-05-01T06:10:08.000Z</time>
      </trkpt>
      <trkpt lat="45.24253" lon="6.17124">
        <ele>1764.8000488281</ele>
        <time>2019-05-01T06:10:11.000Z</time>
      </trkpt>
      <trkpt lat="45.24253" lon="6.17122">
        <ele>1765</ele>
        <time>2019-05-01T06:10:12.000Z</time>
      </trkpt>
      <trkpt lat="45.24253" lon="6.17122">
        <ele>1765</ele>
        <time>2019-05-01T06:10:13.000Z</time>
      </trkpt>
      <trkpt lat="45.24252" lon="6.17113">
        <ele>1765.4000244141</ele>
        <time>2019-05-01T06:10:18.000Z</time>
      </trkpt>
      <trkpt lat="45.24252" lon="6.1711">
        <ele>1766</ele>
        <time>2019-05-01T06:10:21.000Z</time>
      </trkpt>
      <trkpt lat="45.24253" lon="6.17108">
        <ele>1766</ele>
        <time>2019-05-01T06:10:22.000Z</time>
      </trkpt>
      <trkpt lat="45.24252" lon="6.17106">
        <ele>1766</ele>
        <time>2019-05-01T06:10:23.000Z</time>
      </trkpt>
      <trkpt lat="45.24251" lon="6.17102">
        <ele>1766.4000244141</ele>
        <time>2019-05-01T06:10:26.000Z</time>
      </trkpt>
      <trkpt lat="45.24251" lon="6.17099">
        <ele>1766.5999755859</ele>
        <time>2019-05-01T06:10:28.000Z</time>
      </trkpt>
      <trkpt lat="45.24251" lon="6.17097">
        <ele>1766.8000488281</ele>
        <time>2019-05-01T06:10:30.000Z</time>
      </trkpt>
      <trkpt lat="45.24251" lon="6.17095">
        <ele>1767</ele>
        <time>2019-05-01T06:10:31.000Z</time>
      </trkpt>
      <trkpt lat="45.24252" lon="6.17091">
        <ele>1767.4000244141</ele>
        <time>2019-05-01T06:10:35.000Z</time>
      </trkpt>
      <trkpt lat="45.24255" lon="6.17083">
        <ele>1768</ele>
        <time>2019-05-01T06:10:40.000Z</time>
      </trkpt>
      <trkpt lat="45.24255" lon="6.17081">
        <ele>1768.1999511719</ele>
        <time>2019-05-01T06:10:41.000Z</time>
      </trkpt>
      <trkpt lat="45.24256" lon="6.17076">
        <ele>1768.5999755859</ele>
        <time>2019-05-01T06:10:44.000Z</time>
      </trkpt>
      <trkpt lat="45.24256" lon="6.17076">
        <ele>1768.8000488281</ele>
        <time>2019-05-01T06:10:46.000Z</time>
      </trkpt>
      <trkpt lat="45.24256" lon="6.17073">
        <ele>1769.1999511719</ele>
        <time>2019-05-01T06:10:49.000Z</time>
      </trkpt>
      <trkpt lat="45.24256" lon="6.17071">
        <ele>1769.4000244141</ele>
        <time>2019-05-01T06:10:51.000Z</time>
      </trkpt>
      <trkpt lat="45.24256" lon="6.17066">
        <ele>1770.1999511719</ele>
        <time>2019-05-01T06:10:56.000Z</time>
      </trkpt>
      <trkpt lat="45.24256" lon="6.17063">
        <ele>1770.1999511719</ele>
        <time>2019-05-01T06:10:59.000Z</time>
      </trkpt>
      <trkpt lat="45.24257" lon="6.17061">
        <ele>1770.4000244141</ele>
        <time>2019-05-01T06:11:01.000Z</time>
      </trkpt>
      <trkpt lat="45.24261" lon="6.17052">
        <ele>1770.1999511719</ele>
        <time>2019-05-01T06:11:06.000Z</time>
      </trkpt>
      <trkpt lat="45.24263" lon="6.17045">
        <ele>1770</ele>
        <time>2019-05-01T06:11:10.000Z</time>
      </trkpt>
      <trkpt lat="45.24266" lon="6.17035">
        <ele>1770.4000244141</ele>
        <time>2019-05-01T06:11:15.000Z</time>
      </trkpt>
      <trkpt lat="45.24267" lon="6.17029">
        <ele>1770.4000244141</ele>
        <time>2019-05-01T06:11:18.000Z</time>
      </trkpt>
      <trkpt lat="45.24268" lon="6.17027">
        <ele>1770.5999755859</ele>
        <time>2019-05-01T06:11:20.000Z</time>
      </trkpt>
      <trkpt lat="45.24269" lon="6.1702">
        <ele>1771.1999511719</ele>
        <time>2019-05-01T06:11:25.000Z</time>
      </trkpt>
      <trkpt lat="45.24269" lon="6.17017">
        <ele>1772</ele>
        <time>2019-05-01T06:11:29.000Z</time>
      </trkpt>
      <trkpt lat="45.24268" lon="6.17014">
        <ele>1772.4000244141</ele>
        <time>2019-05-01T06:11:31.000Z</time>
      </trkpt>
      <trkpt lat="45.24269" lon="6.1701">
        <ele>1773</ele>
        <time>2019-05-01T06:11:34.000Z</time>
      </trkpt>
      <trkpt lat="45.2427" lon="6.17003">
        <ele>1773.4000244141</ele>
        <time>2019-05-01T06:11:38.000Z</time>
      </trkpt>
      <trkpt lat="45.24272" lon="6.16998">
        <ele>1773.5999755859</ele>
        <time>2019-05-01T06:11:42.000Z</time>
      </trkpt>
      <trkpt lat="45.24275" lon="6.16991">
        <ele>1774</ele>
        <time>2019-05-01T06:11:47.000Z</time>
      </trkpt>
      <trkpt lat="45.24275" lon="6.16986">
        <ele>1774.5999755859</ele>
        <time>2019-05-01T06:11:51.000Z</time>
      </trkpt>
      <trkpt lat="45.24274" lon="6.16983">
        <ele>1775</ele>
        <time>2019-05-01T06:11:53.000Z</time>
      </trkpt>
      <trkpt lat="45.24275" lon="6.1698">
        <ele>1775.1999511719</ele>
        <time>2019-05-01T06:11:55.000Z</time>
      </trkpt>
      <trkpt lat="45.24275" lon="6.16978">
        <ele>1776</ele>
        <time>2019-05-01T06:11:57.000Z</time>
      </trkpt>
      <trkpt lat="45.24274" lon="6.16973">
        <ele>1776.8000488281</ele>
        <time>2019-05-01T06:12:01.000Z</time>
      </trkpt>
      <trkpt lat="45.24274" lon="6.16974">
        <ele>1777</ele>
        <time>2019-05-01T06:12:02.000Z</time>
      </trkpt>
      <trkpt lat="45.24274" lon="6.1697">
        <ele>1777.8000488281</ele>
        <time>2019-05-01T06:12:06.000Z</time>
      </trkpt>
      <trkpt lat="45.24274" lon="6.16971">
        <ele>1778.1999511719</ele>
        <time>2019-05-01T06:12:07.000Z</time>
      </trkpt>
      <trkpt lat="45.24274" lon="6.16964">
        <ele>1778.8000488281</ele>
        <time>2019-05-01T06:12:11.000Z</time>
      </trkpt>
      <trkpt lat="45.24274" lon="6.16962">
        <ele>1779.1999511719</ele>
        <time>2019-05-01T06:12:13.000Z</time>
      </trkpt>
      <trkpt lat="45.24274" lon="6.16957">
        <ele>1779.8000488281</ele>
        <time>2019-05-01T06:12:17.000Z</time>
      </trkpt>
      <trkpt lat="45.24274" lon="6.16954">
        <ele>1780.1999511719</ele>
        <time>2019-05-01T06:12:20.000Z</time>
      </trkpt>
      <trkpt lat="45.24274" lon="6.16951">
        <ele>1780.8000488281</ele>
        <time>2019-05-01T06:12:22.000Z</time>
      </trkpt>
      <trkpt lat="45.24276" lon="6.16947">
        <ele>1781.1999511719</ele>
        <time>2019-05-01T06:12:24.000Z</time>
      </trkpt>
      <trkpt lat="45.24276" lon="6.16947">
        <ele>1781.4000244141</ele>
        <time>2019-05-01T06:12:25.000Z</time>
      </trkpt>
      <trkpt lat="45.24277" lon="6.16944">
        <ele>1781.5999755859</ele>
        <time>2019-05-01T06:12:27.000Z</time>
      </trkpt>
      <trkpt lat="45.24278" lon="6.16939">
        <ele>1782.4000244141</ele>
        <time>2019-05-01T06:12:32.000Z</time>
      </trkpt>
      <trkpt lat="45.24279" lon="6.16937">
        <ele>1782.4000244141</ele>
        <time>2019-05-01T06:12:33.000Z</time>
      </trkpt>
      <trkpt lat="45.24281" lon="6.16935">
        <ele>1783.5999755859</ele>
        <time>2019-05-01T06:12:38.000Z</time>
      </trkpt>
      <trkpt lat="45.24281" lon="6.16933">
        <ele>1783.8000488281</ele>
        <time>2019-05-01T06:12:39.000Z</time>
      </trkpt>
      <trkpt lat="45.24281" lon="6.16934">
        <ele>1784.4000244141</ele>
        <time>2019-05-01T06:12:44.000Z</time>
      </trkpt>
      <trkpt lat="45.24281" lon="6.16936">
        <ele>1784.1999511719</ele>
        <time>2019-05-01T06:12:52.000Z</time>
      </trkpt>
      <trkpt lat="45.24281" lon="6.16936">
        <ele>1784.1999511719</ele>
        <time>2019-05-01T06:13:00.000Z</time>
      </trkpt>
      <trkpt lat="45.24282" lon="6.16935">
        <ele>1784.4000244141</ele>
        <time>2019-05-01T06:13:07.000Z</time>
      </trkpt>
      <trkpt lat="45.24282" lon="6.16935">
        <ele>1784.5999755859</ele>
        <time>2019-05-01T06:13:10.000Z</time>
      </trkpt>
      <trkpt lat="45.2428" lon="6.16936">
        <ele>1784.4000244141</ele>
        <time>2019-05-01T06:13:15.000Z</time>
      </trkpt>
      <trkpt lat="45.24281" lon="6.16937">
        <ele>1784.1999511719</ele>
        <time>2019-05-01T06:13:21.000Z</time>
      </trkpt>
      <trkpt lat="45.24281" lon="6.16937">
        <ele>1783.5999755859</ele>
        <time>2019-05-01T06:13:28.000Z</time>
      </trkpt>
      <trkpt lat="45.24281" lon="6.16937">
        <ele>1783.5999755859</ele>
        <time>2019-05-01T06:13:29.000Z</time>
      </trkpt>
      <trkpt lat="45.24283" lon="6.16937">
        <ele>1783.5999755859</ele>
        <time>2019-05-01T06:13:38.000Z</time>
      </trkpt>
      <trkpt lat="45.24285" lon="6.16936">
        <ele>1783.8000488281</ele>
        <time>2019-05-01T06:13:40.000Z</time>
      </trkpt>
      <trkpt lat="45.24287" lon="6.16936">
        <ele>1784.4000244141</ele>
        <time>2019-05-01T06:13:43.000Z</time>
      </trkpt>
      <trkpt lat="45.24288" lon="6.16934">
        <ele>1784.8000488281</ele>
        <time>2019-05-01T06:13:45.000Z</time>
      </trkpt>
      <trkpt lat="45.24291" lon="6.16933">
        <ele>1785.8000488281</ele>
        <time>2019-05-01T06:13:50.000Z</time>
      </trkpt>
      <trkpt lat="45.24291" lon="6.16933">
        <ele>1786.1999511719</ele>
        <time>2019-05-01T06:14:01.000Z</time>
      </trkpt>
      <trkpt lat="45.24291" lon="6.16933">
        <ele>1786</ele>
        <time>2019-05-01T06:14:15.000Z</time>
      </trkpt>
      <trkpt lat="45.24291" lon="6.16933">
        <ele>1786.1999511719</ele>
        <time>2019-05-01T06:14:25.000Z</time>
      </trkpt>
      <trkpt lat="45.24291" lon="6.16932">
        <ele>1786.1999511719</ele>
        <time>2019-05-01T06:14:29.000Z</time>
      </trkpt>
      <trkpt lat="45.24291" lon="6.16932">
        <ele>1786.1999511719</ele>
        <time>2019-05-01T06:14:41.000Z</time>
      </trkpt>
      <trkpt lat="45.24291" lon="6.16932">
        <ele>1786.1999511719</ele>
        <time>2019-05-01T06:14:54.000Z</time>
      </trkpt>
      <trkpt lat="45.24291" lon="6.16933">
        <ele>1786.1999511719</ele>
        <time>2019-05-01T06:15:08.000Z</time>
      </trkpt>
      <trkpt lat="45.24291" lon="6.16933">
        <ele>1786.1999511719</ele>
        <time>2019-05-01T06:15:21.000Z</time>
      </trkpt>
      <trkpt lat="45.24291" lon="6.16933">
        <ele>1786</ele>
        <time>2019-05-01T06:15:33.000Z</time>
      </trkpt>
      <trkpt lat="45.24291" lon="6.16933">
        <ele>1786.1999511719</ele>
        <time>2019-05-01T06:15:45.000Z</time>
      </trkpt>
      <trkpt lat="45.24292" lon="6.16933">
        <ele>1786.1999511719</ele>
        <time>2019-05-01T06:16:00.000Z</time>
      </trkpt>
      <trkpt lat="45.24292" lon="6.16933">
        <ele>1786.1999511719</ele>
        <time>2019-05-01T06:16:01.000Z</time>
      </trkpt>
      <trkpt lat="45.24292" lon="6.16933">
        <ele>1786</ele>
        <time>2019-05-01T06:16:17.000Z</time>
      </trkpt>
      <trkpt lat="45.24292" lon="6.16933">
        <ele>1786.1999511719</ele>
        <time>2019-05-01T06:16:32.000Z</time>
      </trkpt>
      <trkpt lat="45.24292" lon="6.16933">
        <ele>1786.1999511719</ele>
        <time>2019-05-01T06:16:50.000Z</time>
      </trkpt>
      <trkpt lat="45.24292" lon="6.16934">
        <ele>1786</ele>
        <time>2019-05-01T06:16:59.000Z</time>
      </trkpt>
      <trkpt lat="45.24292" lon="6.16934">
        <ele>1786</ele>
        <time>2019-05-01T06:17:11.000Z</time>
      </trkpt>
      <trkpt lat="45.24292" lon="6.16934">
        <ele>1786.1999511719</ele>
        <time>2019-05-01T06:17:19.000Z</time>
      </trkpt>
      <trkpt lat="45.24292" lon="6.16934">
        <ele>1786.1999511719</ele>
        <time>2019-05-01T06:17:24.000Z</time>
      </trkpt>
      <trkpt lat="45.24292" lon="6.16934">
        <ele>1786</ele>
        <time>2019-05-01T06:17:38.000Z</time>
      </trkpt>
      <trkpt lat="45.24292" lon="6.16934">
        <ele>1786</ele>
        <time>2019-05-01T06:17:48.000Z</time>
      </trkpt>
      <trkpt lat="45.24291" lon="6.16932">
        <ele>1786.1999511719</ele>
        <time>2019-05-01T06:17:59.000Z</time>
      </trkpt>
      <trkpt lat="45.24292" lon="6.1693">
        <ele>1786</ele>
        <time>2019-05-01T06:18:05.000Z</time>
      </trkpt>
      <trkpt lat="45.24292" lon="6.16929">
        <ele>1786</ele>
        <time>2019-05-01T06:18:06.000Z</time>
      </trkpt>
      <trkpt lat="45.24293" lon="6.16925">
        <ele>1786.5999755859</ele>
        <time>2019-05-01T06:18:10.000Z</time>
      </trkpt>
      <trkpt lat="45.24294" lon="6.16924">
        <ele>1787</ele>
        <time>2019-05-01T06:18:12.000Z</time>
      </trkpt>
      <trkpt lat="45.24295" lon="6.16924">
        <ele>1787.5999755859</ele>
        <time>2019-05-01T06:18:15.000Z</time>
      </trkpt>
      <trkpt lat="45.24296" lon="6.16922">
        <ele>1788</ele>
        <time>2019-05-01T06:18:19.000Z</time>
      </trkpt>
      <trkpt lat="45.24297" lon="6.16922">
        <ele>1788.1999511719</ele>
        <time>2019-05-01T06:18:20.000Z</time>
      </trkpt>
      <trkpt lat="45.243" lon="6.16918">
        <ele>1789</ele>
        <time>2019-05-01T06:18:25.000Z</time>
      </trkpt>
      <trkpt lat="45.243" lon="6.16916">
        <ele>1789</ele>
        <time>2019-05-01T06:18:26.000Z</time>
      </trkpt>
      <trkpt lat="45.24303" lon="6.16911">
        <ele>1790</ele>
        <time>2019-05-01T06:18:31.000Z</time>
      </trkpt>
      <trkpt lat="45.24303" lon="6.1691">
        <ele>1790.1999511719</ele>
        <time>2019-05-01T06:18:32.000Z</time>
      </trkpt>
      <trkpt lat="45.24306" lon="6.16907">
        <ele>1791.4000244141</ele>
        <time>2019-05-01T06:18:37.000Z</time>
      </trkpt>
      <trkpt lat="45.24309" lon="6.16904">
        <ele>1792.1999511719</ele>
        <time>2019-05-01T06:18:42.000Z</time>
      </trkpt>
      <trkpt lat="45.24309" lon="6.16904">
        <ele>1792.4000244141</ele>
        <time>2019-05-01T06:18:43.000Z</time>
      </trkpt>
      <trkpt lat="45.24309" lon="6.16904">
        <ele>1793.4000244141</ele>
        <time>2019-05-01T06:18:48.000Z</time>
      </trkpt>
      <trkpt lat="45.24309" lon="6.16904">
        <ele>1793.5999755859</ele>
        <time>2019-05-01T06:18:50.000Z</time>
      </trkpt>
      <trkpt lat="45.2431" lon="6.169">
        <ele>1793.8000488281</ele>
        <time>2019-05-01T06:18:54.000Z</time>
      </trkpt>
      <trkpt lat="45.24312" lon="6.16895">
        <ele>1794.5999755859</ele>
        <time>2019-05-01T06:18:58.000Z</time>
      </trkpt>
      <trkpt lat="45.24313" lon="6.1689">
        <ele>1795.5999755859</ele>
        <time>2019-05-01T06:19:02.000Z</time>
      </trkpt>
      <trkpt lat="45.24313" lon="6.16886">
        <ele>1796.5999755859</ele>
        <time>2019-05-01T06:19:07.000Z</time>
      </trkpt>
      <trkpt lat="45.24312" lon="6.16885">
        <ele>1796.8000488281</ele>
        <time>2019-05-01T06:19:08.000Z</time>
      </trkpt>
      <trkpt lat="45.2431" lon="6.16882">
        <ele>1798</ele>
        <time>2019-05-01T06:19:12.000Z</time>
      </trkpt>
      <trkpt lat="45.24305" lon="6.16878">
        <ele>1799.1999511719</ele>
        <time>2019-05-01T06:19:17.000Z</time>
      </trkpt>
      <trkpt lat="45.24305" lon="6.16878">
        <ele>1799.4000244141</ele>
        <time>2019-05-01T06:19:18.000Z</time>
      </trkpt>
      <trkpt lat="45.24303" lon="6.16876">
        <ele>1800.1999511719</ele>
        <time>2019-05-01T06:19:21.000Z</time>
      </trkpt>
      <trkpt lat="45.243" lon="6.16874">
        <ele>1801</ele>
        <time>2019-05-01T06:19:25.000Z</time>
      </trkpt>
      <trkpt lat="45.243" lon="6.16873">
        <ele>1801.4000244141</ele>
        <time>2019-05-01T06:19:27.000Z</time>
      </trkpt>
      <trkpt lat="45.24299" lon="6.16871">
        <ele>1802.1999511719</ele>
        <time>2019-05-01T06:19:31.000Z</time>
      </trkpt>
      <trkpt lat="45.24298" lon="6.16871">
        <ele>1802.4000244141</ele>
        <time>2019-05-01T06:19:32.000Z</time>
      </trkpt>
      <trkpt lat="45.24297" lon="6.16869">
        <ele>1803.1999511719</ele>
        <time>2019-05-01T06:19:35.000Z</time>
      </trkpt>
      <trkpt lat="45.24296" lon="6.16869">
        <ele>1803.5999755859</ele>
        <time>2019-05-01T06:19:37.000Z</time>
      </trkpt>
      <trkpt lat="45.24294" lon="6.16866">
        <ele>1804.4000244141</ele>
        <time>2019-05-01T06:19:42.000Z</time>
      </trkpt>
      <trkpt lat="45.24294" lon="6.16866">
        <ele>1804.5999755859</ele>
        <time>2019-05-01T06:19:43.000Z</time>
      </trkpt>
      <trkpt lat="45.24292" lon="6.16862">
        <ele>1805.5999755859</ele>
        <time>2019-05-01T06:19:48.000Z</time>
      </trkpt>
      <trkpt lat="45.24292" lon="6.16861">
        <ele>1805.8000488281</ele>
        <time>2019-05-01T06:19:49.000Z</time>
      </trkpt>
      <trkpt lat="45.24293" lon="6.16858">
        <ele>1806.5999755859</ele>
        <time>2019-05-01T06:19:53.000Z</time>
      </trkpt>
      <trkpt lat="45.24293" lon="6.16857">
        <ele>1806.8000488281</ele>
        <time>2019-05-01T06:19:54.000Z</time>
      </trkpt>
      <trkpt lat="45.24294" lon="6.16857">
        <ele>1807</ele>
        <time>2019-05-01T06:19:55.000Z</time>
      </trkpt>
      <trkpt lat="45.24295" lon="6.16855">
        <ele>1807.8000488281</ele>
        <time>2019-05-01T06:19:57.000Z</time>
      </trkpt>
      <trkpt lat="45.24296" lon="6.16854">
        <ele>1808</ele>
        <time>2019-05-01T06:19:58.000Z</time>
      </trkpt>
      <trkpt lat="45.24297" lon="6.16848">
        <ele>1809</ele>
        <time>2019-05-01T06:20:02.000Z</time>
      </trkpt>
      <trkpt lat="45.24297" lon="6.16845">
        <ele>1810.1999511719</ele>
        <time>2019-05-01T06:20:08.000Z</time>
      </trkpt>
      <trkpt lat="45.24297" lon="6.16842">
        <ele>1811</ele>
        <time>2019-05-01T06:20:13.000Z</time>
      </trkpt>
      <trkpt lat="45.24297" lon="6.1684">
        <ele>1811.4000244141</ele>
        <time>2019-05-01T06:20:15.000Z</time>
      </trkpt>
      <trkpt lat="45.24296" lon="6.16839">
        <ele>1812</ele>
        <time>2019-05-01T06:20:18.000Z</time>
      </trkpt>
      <trkpt lat="45.24295" lon="6.16838">
        <ele>1812.4000244141</ele>
        <time>2019-05-01T06:20:20.000Z</time>
      </trkpt>
      <trkpt lat="45.24295" lon="6.16837">
        <ele>1813.5999755859</ele>
        <time>2019-05-01T06:20:24.000Z</time>
      </trkpt>
      <trkpt lat="45.24293" lon="6.16833">
        <ele>1814.5999755859</ele>
        <time>2019-05-01T06:20:30.000Z</time>
      </trkpt>
      <trkpt lat="45.24293" lon="6.16832">
        <ele>1815</ele>
        <time>2019-05-01T06:20:31.000Z</time>
      </trkpt>
      <trkpt lat="45.24293" lon="6.16829">
        <ele>1815.8000488281</ele>
        <time>2019-05-01T06:20:35.000Z</time>
      </trkpt>
      <trkpt lat="45.24293" lon="6.16827">
        <ele>1816.1999511719</ele>
        <time>2019-05-01T06:20:37.000Z</time>
      </trkpt>
      <trkpt lat="45.24292" lon="6.16823">
        <ele>1817</ele>
        <time>2019-05-01T06:20:41.000Z</time>
      </trkpt>
      <trkpt lat="45.24292" lon="6.16822">
        <ele>1817.1999511719</ele>
        <time>2019-05-01T06:20:42.000Z</time>
      </trkpt>
      <trkpt lat="45.24291" lon="6.1682">
        <ele>1818</ele>
        <time>2019-05-01T06:20:45.000Z</time>
      </trkpt>
      <trkpt lat="45.24291" lon="6.16818">
        <ele>1818.5999755859</ele>
        <time>2019-05-01T06:20:47.000Z</time>
      </trkpt>
      <trkpt lat="45.24289" lon="6.16816">
        <ele>1819.1999511719</ele>
        <time>2019-05-01T06:20:50.000Z</time>
      </trkpt>
      <trkpt lat="45.24288" lon="6.16816">
        <ele>1819.4000244141</ele>
        <time>2019-05-01T06:20:51.000Z</time>
      </trkpt>
      <trkpt lat="45.24287" lon="6.16815">
        <ele>1819.5999755859</ele>
        <time>2019-05-01T06:20:52.000Z</time>
      </trkpt>
      <trkpt lat="45.24287" lon="6.16813">
        <ele>1820.4000244141</ele>
        <time>2019-05-01T06:20:55.000Z</time>
      </trkpt>
      <trkpt lat="45.24285" lon="6.16812">
        <ele>1821</ele>
        <time>2019-05-01T06:20:58.000Z</time>
      </trkpt>
      <trkpt lat="45.24282" lon="6.16811">
        <ele>1821.5999755859</ele>
        <time>2019-05-01T06:21:01.000Z</time>
      </trkpt>
      <trkpt lat="45.24281" lon="6.16811">
        <ele>1821.8000488281</ele>
        <time>2019-05-01T06:21:02.000Z</time>
      </trkpt>
      <trkpt lat="45.24278" lon="6.1681">
        <ele>1822.5999755859</ele>
        <time>2019-05-01T06:21:07.000Z</time>
      </trkpt>
      <trkpt lat="45.24275" lon="6.16808">
        <ele>1823.8000488281</ele>
        <time>2019-05-01T06:21:12.000Z</time>
      </trkpt>
      <trkpt lat="45.24272" lon="6.16808">
        <ele>1824.5999755859</ele>
        <time>2019-05-01T06:21:16.000Z</time>
      </trkpt>
      <trkpt lat="45.24271" lon="6.16809">
        <ele>1825</ele>
        <time>2019-05-01T06:21:18.000Z</time>
      </trkpt>
      <trkpt lat="45.24269" lon="6.1681">
        <ele>1825.5999755859</ele>
        <time>2019-05-01T06:21:21.000Z</time>
      </trkpt>
      <trkpt lat="45.24267" lon="6.1681">
        <ele>1826</ele>
        <time>2019-05-01T06:21:24.000Z</time>
      </trkpt>
      <trkpt lat="45.24267" lon="6.1681">
        <ele>1826.4000244141</ele>
        <time>2019-05-01T06:21:26.000Z</time>
      </trkpt>
      <trkpt lat="45.24267" lon="6.16808">
        <ele>1827.1999511719</ele>
        <time>2019-05-01T06:21:29.000Z</time>
      </trkpt>
      <trkpt lat="45.24268" lon="6.16804">
        <ele>1827.8000488281</ele>
        <time>2019-05-01T06:21:32.000Z</time>
      </trkpt>
      <trkpt lat="45.24269" lon="6.16802">
        <ele>1828.4000244141</ele>
        <time>2019-05-01T06:21:34.000Z</time>
      </trkpt>
      <trkpt lat="45.24271" lon="6.16799">
        <ele>1828.8000488281</ele>
        <time>2019-05-01T06:21:37.000Z</time>
      </trkpt>
      <trkpt lat="45.24272" lon="6.16796">
        <ele>1829.4000244141</ele>
        <time>2019-05-01T06:21:41.000Z</time>
      </trkpt>
      <trkpt lat="45.24273" lon="6.16795">
        <ele>1829.4000244141</ele>
        <time>2019-05-01T06:21:42.000Z</time>
      </trkpt>
      <trkpt lat="45.24276" lon="6.1679">
        <ele>1830.4000244141</ele>
        <time>2019-05-01T06:21:48.000Z</time>
      </trkpt>
      <trkpt lat="45.2428" lon="6.16784">
        <ele>1831</ele>
        <time>2019-05-01T06:21:54.000Z</time>
      </trkpt>
      <trkpt lat="45.24281" lon="6.16781">
        <ele>1831.8000488281</ele>
        <time>2019-05-01T06:21:57.000Z</time>
      </trkpt>
      <trkpt lat="45.24282" lon="6.16779">
        <ele>1832.1999511719</ele>
        <time>2019-05-01T06:22:00.000Z</time>
      </trkpt>
      <trkpt lat="45.24284" lon="6.16777">
        <ele>1833</ele>
        <time>2019-05-01T06:22:03.000Z</time>
      </trkpt>
      <trkpt lat="45.24285" lon="6.16776">
        <ele>1833.4000244141</ele>
        <time>2019-05-01T06:22:06.000Z</time>
      </trkpt>
      <trkpt lat="45.24286" lon="6.16773">
        <ele>1834</ele>
        <time>2019-05-01T06:22:10.000Z</time>
      </trkpt>
      <trkpt lat="45.24286" lon="6.16771">
        <ele>1834.4000244141</ele>
        <time>2019-05-01T06:22:12.000Z</time>
      </trkpt>
      <trkpt lat="45.24287" lon="6.16769">
        <ele>1835.1999511719</ele>
        <time>2019-05-01T06:22:16.000Z</time>
      </trkpt>
      <trkpt lat="45.24287" lon="6.16769">
        <ele>1835.4000244141</ele>
        <time>2019-05-01T06:22:17.000Z</time>
      </trkpt>
      <trkpt lat="45.2429" lon="6.16765">
        <ele>1836.4000244141</ele>
        <time>2019-05-01T06:22:22.000Z</time>
      </trkpt>
      <trkpt lat="45.2429" lon="6.16765">
        <ele>1836.4000244141</ele>
        <time>2019-05-01T06:22:23.000Z</time>
      </trkpt>
      <trkpt lat="45.24291" lon="6.16764">
        <ele>1837.4000244141</ele>
        <time>2019-05-01T06:22:27.000Z</time>
      </trkpt>
      <trkpt lat="45.24292" lon="6.16763">
        <ele>1837.5999755859</ele>
        <time>2019-05-01T06:22:28.000Z</time>
      </trkpt>
      <trkpt lat="45.24292" lon="6.16761">
        <ele>1838</ele>
        <time>2019-05-01T06:22:30.000Z</time>
      </trkpt>
      <trkpt lat="45.24292" lon="6.16759">
        <ele>1838.4000244141</ele>
        <time>2019-05-01T06:22:32.000Z</time>
      </trkpt>
      <trkpt lat="45.24291" lon="6.16759">
        <ele>1838.5999755859</ele>
        <time>2019-05-01T06:22:33.000Z</time>
      </trkpt>
      <trkpt lat="45.24288" lon="6.16757">
        <ele>1839.5999755859</ele>
        <time>2019-05-01T06:22:38.000Z</time>
      </trkpt>
      <trkpt lat="45.24286" lon="6.16757">
        <ele>1840</ele>
        <time>2019-05-01T06:22:40.000Z</time>
      </trkpt>
      <trkpt lat="45.24285" lon="6.16757">
        <ele>1840.1999511719</ele>
        <time>2019-05-01T06:22:42.000Z</time>
      </trkpt>
      <trkpt lat="45.24282" lon="6.16758">
        <ele>1840.8000488281</ele>
        <time>2019-05-01T06:22:45.000Z</time>
      </trkpt>
      <trkpt lat="45.24281" lon="6.1676">
        <ele>1841</ele>
        <time>2019-05-01T06:22:47.000Z</time>
      </trkpt>
      <trkpt lat="45.24277" lon="6.16761">
        <ele>1842</ele>
        <time>2019-05-01T06:22:52.000Z</time>
      </trkpt>
      <trkpt lat="45.24276" lon="6.16761">
        <ele>1842.1999511719</ele>
        <time>2019-05-01T06:22:54.000Z</time>
      </trkpt>
      <trkpt lat="45.24274" lon="6.16762">
        <ele>1843</ele>
        <time>2019-05-01T06:22:58.000Z</time>
      </trkpt>
      <trkpt lat="45.24273" lon="6.16762">
        <ele>1843.1999511719</ele>
        <time>2019-05-01T06:22:59.000Z</time>
      </trkpt>
      <trkpt lat="45.2427" lon="6.16763">
        <ele>1843.5999755859</ele>
        <time>2019-05-01T06:23:03.000Z</time>
      </trkpt>
      <trkpt lat="45.24269" lon="6.16764">
        <ele>1844</ele>
        <time>2019-05-01T06:23:05.000Z</time>
      </trkpt>
      <trkpt lat="45.24267" lon="6.16765">
        <ele>1844.5999755859</ele>
        <time>2019-05-01T06:23:08.000Z</time>
      </trkpt>
      <trkpt lat="45.24267" lon="6.16765">
        <ele>1845.1999511719</ele>
        <time>2019-05-01T06:23:10.000Z</time>
      </trkpt>
      <trkpt lat="45.24266" lon="6.16765">
        <ele>1845.5999755859</ele>
        <time>2019-05-01T06:23:13.000Z</time>
      </trkpt>
      <trkpt lat="45.24265" lon="6.16765">
        <ele>1846</ele>
        <time>2019-05-01T06:23:17.000Z</time>
      </trkpt>
      <trkpt lat="45.24266" lon="6.16764">
        <ele>1846.1999511719</ele>
        <time>2019-05-01T06:23:18.000Z</time>
      </trkpt>
      <trkpt lat="45.24266" lon="6.16759">
        <ele>1846.5999755859</ele>
        <time>2019-05-01T06:23:22.000Z</time>
      </trkpt>
      <trkpt lat="45.24268" lon="6.16756">
        <ele>1847.1999511719</ele>
        <time>2019-05-01T06:23:26.000Z</time>
      </trkpt>
      <trkpt lat="45.24268" lon="6.16754">
        <ele>1847.4000244141</ele>
        <time>2019-05-01T06:23:27.000Z</time>
      </trkpt>
      <trkpt lat="45.24271" lon="6.16749">
        <ele>1848.4000244141</ele>
        <time>2019-05-01T06:23:32.000Z</time>
      </trkpt>
      <trkpt lat="45.24271" lon="6.16748">
        <ele>1849</ele>
        <time>2019-05-01T06:23:34.000Z</time>
      </trkpt>
      <trkpt lat="45.24273" lon="6.16744">
        <ele>1849.5999755859</ele>
        <time>2019-05-01T06:23:37.000Z</time>
      </trkpt>
      <trkpt lat="45.24274" lon="6.16741">
        <ele>1850</ele>
        <time>2019-05-01T06:23:40.000Z</time>
      </trkpt>
      <trkpt lat="45.24275" lon="6.16739">
        <ele>1850.5999755859</ele>
        <time>2019-05-01T06:23:43.000Z</time>
      </trkpt>
      <trkpt lat="45.24276" lon="6.16738">
        <ele>1851</ele>
        <time>2019-05-01T06:23:45.000Z</time>
      </trkpt>
      <trkpt lat="45.24277" lon="6.16736">
        <ele>1851.8000488281</ele>
        <time>2019-05-01T06:23:49.000Z</time>
      </trkpt>
      <trkpt lat="45.24278" lon="6.16734">
        <ele>1852.1999511719</ele>
        <time>2019-05-01T06:23:51.000Z</time>
      </trkpt>
      <trkpt lat="45.24277" lon="6.16734">
        <ele>1852.8000488281</ele>
        <time>2019-05-01T06:23:56.000Z</time>
      </trkpt>
      <trkpt lat="45.24275" lon="6.16735">
        <ele>1852.8000488281</ele>
        <time>2019-05-01T06:23:57.000Z</time>
      </trkpt>
      <trkpt lat="45.24273" lon="6.16736">
        <ele>1853.1999511719</ele>
        <time>2019-05-01T06:24:00.000Z</time>
      </trkpt>
      <trkpt lat="45.24269" lon="6.16738">
        <ele>1854</ele>
        <time>2019-05-01T06:24:05.000Z</time>
      </trkpt>
      <trkpt lat="45.24265" lon="6.16739">
        <ele>1855</ele>
        <time>2019-05-01T06:24:10.000Z</time>
      </trkpt>
      <trkpt lat="45.24264" lon="6.1674">
        <ele>1855.1999511719</ele>
        <time>2019-05-01T06:24:11.000Z</time>
      </trkpt>
      <trkpt lat="45.24262" lon="6.16741">
        <ele>1855.5999755859</ele>
        <time>2019-05-01T06:24:14.000Z</time>
      </trkpt>
      <trkpt lat="45.2426" lon="6.16743">
        <ele>1856.1999511719</ele>
        <time>2019-05-01T06:24:17.000Z</time>
      </trkpt>
      <trkpt lat="45.24258" lon="6.16744">
        <ele>1856.4000244141</ele>
        <time>2019-05-01T06:24:19.000Z</time>
      </trkpt>
      <trkpt lat="45.24255" lon="6.16745">
        <ele>1857.4000244141</ele>
        <time>2019-05-01T06:24:22.000Z</time>
      </trkpt>
      <trkpt lat="45.24254" lon="6.16746">
        <ele>1857.5999755859</ele>
        <time>2019-05-01T06:24:24.000Z</time>
      </trkpt>
      <trkpt lat="45.24253" lon="6.16746">
        <ele>1858.4000244141</ele>
        <time>2019-05-01T06:24:27.000Z</time>
      </trkpt>
      <trkpt lat="45.24253" lon="6.16746">
        <ele>1858.5999755859</ele>
        <time>2019-05-01T06:24:28.000Z</time>
      </trkpt>
      <trkpt lat="45.24248" lon="6.16749">
        <ele>1859.4000244141</ele>
        <time>2019-05-01T06:24:33.000Z</time>
      </trkpt>
      <trkpt lat="45.24248" lon="6.1675">
        <ele>1859.4000244141</ele>
        <time>2019-05-01T06:24:34.000Z</time>
      </trkpt>
      <trkpt lat="45.24248" lon="6.16749">
        <ele>1860.1999511719</ele>
        <time>2019-05-01T06:24:38.000Z</time>
      </trkpt>
      <trkpt lat="45.24248" lon="6.16749">
        <ele>1860.4000244141</ele>
        <time>2019-05-01T06:24:39.000Z</time>
      </trkpt>
      <trkpt lat="45.24248" lon="6.16747">
        <ele>1860.5999755859</ele>
        <time>2019-05-01T06:24:40.000Z</time>
      </trkpt>
      <trkpt lat="45.2425" lon="6.16744">
        <ele>1861</ele>
        <time>2019-05-01T06:24:42.000Z</time>
      </trkpt>
      <trkpt lat="45.24251" lon="6.1674">
        <ele>1861.4000244141</ele>
        <time>2019-05-01T06:24:46.000Z</time>
      </trkpt>
      <trkpt lat="45.24252" lon="6.16738">
        <ele>1861.8000488281</ele>
        <time>2019-05-01T06:24:48.000Z</time>
      </trkpt>
      <trkpt lat="45.24253" lon="6.16735">
        <ele>1862.4000244141</ele>
        <time>2019-05-01T06:24:51.000Z</time>
      </trkpt>
      <trkpt lat="45.24253" lon="6.16732">
        <ele>1862.8000488281</ele>
        <time>2019-05-01T06:24:53.000Z</time>
      </trkpt>
      <trkpt lat="45.24254" lon="6.16729">
        <ele>1863.4000244141</ele>
        <time>2019-05-01T06:24:56.000Z</time>
      </trkpt>
      <trkpt lat="45.24256" lon="6.16726">
        <ele>1864</ele>
        <time>2019-05-01T06:24:59.000Z</time>
      </trkpt>
      <trkpt lat="45.24256" lon="6.16724">
        <ele>1864.4000244141</ele>
        <time>2019-05-01T06:25:01.000Z</time>
      </trkpt>
      <trkpt lat="45.24258" lon="6.1672">
        <ele>1865</ele>
        <time>2019-05-01T06:25:05.000Z</time>
      </trkpt>
      <trkpt lat="45.2426" lon="6.16717">
        <ele>1865.5999755859</ele>
        <time>2019-05-01T06:25:08.000Z</time>
      </trkpt>
      <trkpt lat="45.24261" lon="6.16716">
        <ele>1866.1999511719</ele>
        <time>2019-05-01T06:25:10.000Z</time>
      </trkpt>
      <trkpt lat="45.24262" lon="6.16714">
        <ele>1867</ele>
        <time>2019-05-01T06:25:15.000Z</time>
      </trkpt>
      <trkpt lat="45.24263" lon="6.16713">
        <ele>1867.1999511719</ele>
        <time>2019-05-01T06:25:16.000Z</time>
      </trkpt>
      <trkpt lat="45.24264" lon="6.16709">
        <ele>1868</ele>
        <time>2019-05-01T06:25:20.000Z</time>
      </trkpt>
      <trkpt lat="45.24265" lon="6.16708">
        <ele>1868.1999511719</ele>
        <time>2019-05-01T06:25:22.000Z</time>
      </trkpt>
      <trkpt lat="45.24265" lon="6.16707">
        <ele>1868.5999755859</ele>
        <time>2019-05-01T06:25:24.000Z</time>
      </trkpt>
      <trkpt lat="45.24266" lon="6.16705">
        <ele>1869.4000244141</ele>
        <time>2019-05-01T06:25:28.000Z</time>
      </trkpt>
      <trkpt lat="45.24266" lon="6.16703">
        <ele>1869.4000244141</ele>
        <time>2019-05-01T06:25:29.000Z</time>
      </trkpt>
      <trkpt lat="45.24267" lon="6.16701">
        <ele>1870.5999755859</ele>
        <time>2019-05-01T06:25:33.000Z</time>
      </trkpt>
      <trkpt lat="45.24267" lon="6.16701">
        <ele>1870.8000488281</ele>
        <time>2019-05-01T06:25:34.000Z</time>
      </trkpt>
      <trkpt lat="45.24266" lon="6.16699">
        <ele>1871.5999755859</ele>
        <time>2019-05-01T06:25:38.000Z</time>
      </trkpt>
      <trkpt lat="45.24266" lon="6.16699">
        <ele>1871.5999755859</ele>
        <time>2019-05-01T06:25:39.000Z</time>
      </trkpt>
      <trkpt lat="45.24262" lon="6.16698">
        <ele>1872.8000488281</ele>
        <time>2019-05-01T06:25:44.000Z</time>
      </trkpt>
      <trkpt lat="45.24258" lon="6.16697">
        <ele>1873.8000488281</ele>
        <time>2019-05-01T06:25:50.000Z</time>
      </trkpt>
      <trkpt lat="45.24253" lon="6.16695">
        <ele>1875</ele>
        <time>2019-05-01T06:25:56.000Z</time>
      </trkpt>
      <trkpt lat="45.24251" lon="6.16695">
        <ele>1876</ele>
        <time>2019-05-01T06:26:00.000Z</time>
      </trkpt>
      <trkpt lat="45.2425" lon="6.16695">
        <ele>1876.1999511719</ele>
        <time>2019-05-01T06:26:01.000Z</time>
      </trkpt>
      <trkpt lat="45.24247" lon="6.16696">
        <ele>1877</ele>
        <time>2019-05-01T06:26:05.000Z</time>
      </trkpt>
      <trkpt lat="45.24247" lon="6.16697">
        <ele>1877.1999511719</ele>
        <time>2019-05-01T06:26:06.000Z</time>
      </trkpt>
      <trkpt lat="45.24244" lon="6.16698">
        <ele>1878.1999511719</ele>
        <time>2019-05-01T06:26:11.000Z</time>
      </trkpt>
      <trkpt lat="45.2424" lon="6.16699">
        <ele>1879.4000244141</ele>
        <time>2019-05-01T06:26:16.000Z</time>
      </trkpt>
      <trkpt lat="45.2424" lon="6.167">
        <ele>1879.5999755859</ele>
        <time>2019-05-01T06:26:17.000Z</time>
      </trkpt>
      <trkpt lat="45.24237" lon="6.16701">
        <ele>1880.5999755859</ele>
        <time>2019-05-01T06:26:21.000Z</time>
      </trkpt>
      <trkpt lat="45.24237" lon="6.16701">
        <ele>1880.8000488281</ele>
        <time>2019-05-01T06:26:22.000Z</time>
      </trkpt>
      <trkpt lat="45.24233" lon="6.16704">
        <ele>1881.5999755859</ele>
        <time>2019-05-01T06:26:26.000Z</time>
      </trkpt>
      <trkpt lat="45.24232" lon="6.16705">
        <ele>1881.8000488281</ele>
        <time>2019-05-01T06:26:27.000Z</time>
      </trkpt>
      <trkpt lat="45.2423" lon="6.16707">
        <ele>1882.4000244141</ele>
        <time>2019-05-01T06:26:31.000Z</time>
      </trkpt>
      <trkpt lat="45.24228" lon="6.16707">
        <ele>1882.8000488281</ele>
        <time>2019-05-01T06:26:33.000Z</time>
      </trkpt>
      <trkpt lat="45.24225" lon="6.16707">
        <ele>1883.4000244141</ele>
        <time>2019-05-01T06:26:36.000Z</time>
      </trkpt>
      <trkpt lat="45.24223" lon="6.16707">
        <ele>1884</ele>
        <time>2019-05-01T06:26:39.000Z</time>
      </trkpt>
      <trkpt lat="45.24223" lon="6.16707">
        <ele>1884.4000244141</ele>
        <time>2019-05-01T06:26:41.000Z</time>
      </trkpt>
      <trkpt lat="45.24221" lon="6.16705">
        <ele>1885</ele>
        <time>2019-05-01T06:26:44.000Z</time>
      </trkpt>
      <trkpt lat="45.24221" lon="6.16704">
        <ele>1885.5999755859</ele>
        <time>2019-05-01T06:26:46.000Z</time>
      </trkpt>
      <trkpt lat="45.2422" lon="6.16703">
        <ele>1886</ele>
        <time>2019-05-01T06:26:48.000Z</time>
      </trkpt>
      <trkpt lat="45.24219" lon="6.16701">
        <ele>1886.8000488281</ele>
        <time>2019-05-01T06:26:52.000Z</time>
      </trkpt>
      <trkpt lat="45.24219" lon="6.16701">
        <ele>1887.1999511719</ele>
        <time>2019-05-01T06:26:53.000Z</time>
      </trkpt>
      <trkpt lat="45.24218" lon="6.16695">
        <ele>1888.1999511719</ele>
        <time>2019-05-01T06:26:58.000Z</time>
      </trkpt>
      <trkpt lat="45.24217" lon="6.16691">
        <ele>1889</ele>
        <time>2019-05-01T06:27:03.000Z</time>
      </trkpt>
      <trkpt lat="45.24217" lon="6.1669">
        <ele>1889.1999511719</ele>
        <time>2019-05-01T06:27:04.000Z</time>
      </trkpt>
      <trkpt lat="45.24215" lon="6.16684">
        <ele>1890.4000244141</ele>
        <time>2019-05-01T06:27:09.000Z</time>
      </trkpt>
      <trkpt lat="45.24215" lon="6.16682">
        <ele>1891.4000244141</ele>
        <time>2019-05-01T06:27:13.000Z</time>
      </trkpt>
      <trkpt lat="45.24214" lon="6.16681">
        <ele>1892</ele>
        <time>2019-05-01T06:27:15.000Z</time>
      </trkpt>
      <trkpt lat="45.24214" lon="6.16678">
        <ele>1892.5999755859</ele>
        <time>2019-05-01T06:27:18.000Z</time>
      </trkpt>
      <trkpt lat="45.24214" lon="6.16675">
        <ele>1893.5999755859</ele>
        <time>2019-05-01T06:27:22.000Z</time>
      </trkpt>
      <trkpt lat="45.24214" lon="6.16674">
        <ele>1893.8000488281</ele>
        <time>2019-05-01T06:27:23.000Z</time>
      </trkpt>
      <trkpt lat="45.24212" lon="6.1667">
        <ele>1894.5999755859</ele>
        <time>2019-05-01T06:27:28.000Z</time>
      </trkpt>
      <trkpt lat="45.24212" lon="6.16669">
        <ele>1894.8000488281</ele>
        <time>2019-05-01T06:27:29.000Z</time>
      </trkpt>
      <trkpt lat="45.24211" lon="6.16665">
        <ele>1896</ele>
        <time>2019-05-01T06:27:34.000Z</time>
      </trkpt>
      <trkpt lat="45.2421" lon="6.16665">
        <ele>1896.1999511719</ele>
        <time>2019-05-01T06:27:35.000Z</time>
      </trkpt>
      <trkpt lat="45.24208" lon="6.16663">
        <ele>1897.1999511719</ele>
        <time>2019-05-01T06:27:40.000Z</time>
      </trkpt>
      <trkpt lat="45.24206" lon="6.16662">
        <ele>1898.1999511719</ele>
        <time>2019-05-01T06:27:46.000Z</time>
      </trkpt>
      <trkpt lat="45.24205" lon="6.16654">
        <ele>1899.1999511719</ele>
        <time>2019-05-01T06:27:52.000Z</time>
      </trkpt>
      <trkpt lat="45.24205" lon="6.16653">
        <ele>1899.4000244141</ele>
        <time>2019-05-01T06:27:53.000Z</time>
      </trkpt>
      <trkpt lat="45.24203" lon="6.16649">
        <ele>1900.5999755859</ele>
        <time>2019-05-01T06:27:58.000Z</time>
      </trkpt>
      <trkpt lat="45.24201" lon="6.16644">
        <ele>1901.8000488281</ele>
        <time>2019-05-01T06:28:04.000Z</time>
      </trkpt>
      <trkpt lat="45.24201" lon="6.16643">
        <ele>1902</ele>
        <time>2019-05-01T06:28:05.000Z</time>
      </trkpt>
      <trkpt lat="45.24201" lon="6.16637">
        <ele>1903</ele>
        <time>2019-05-01T06:28:09.000Z</time>
      </trkpt>
      <trkpt lat="45.24201" lon="6.16634">
        <ele>1903.4000244141</ele>
        <time>2019-05-01T06:28:11.000Z</time>
      </trkpt>
      <trkpt lat="45.242" lon="6.16632">
        <ele>1904.1999511719</ele>
        <time>2019-05-01T06:28:15.000Z</time>
      </trkpt>
      <trkpt lat="45.24199" lon="6.16629">
        <ele>1904.5999755859</ele>
        <time>2019-05-01T06:28:17.000Z</time>
      </trkpt>
      <trkpt lat="45.24199" lon="6.16626">
        <ele>1905.1999511719</ele>
        <time>2019-05-01T06:28:20.000Z</time>
      </trkpt>
      <trkpt lat="45.24199" lon="6.16623">
        <ele>1905.8000488281</ele>
        <time>2019-05-01T06:28:22.000Z</time>
      </trkpt>
      <trkpt lat="45.24199" lon="6.16623">
        <ele>1906.4000244141</ele>
        <time>2019-05-01T06:28:26.000Z</time>
      </trkpt>
      <trkpt lat="45.24199" lon="6.16623">
        <ele>1906.4000244141</ele>
        <time>2019-05-01T06:28:32.000Z</time>
      </trkpt>
      <trkpt lat="45.24199" lon="6.16623">
        <ele>1906.4000244141</ele>
        <time>2019-05-01T06:28:43.000Z</time>
      </trkpt>
      <trkpt lat="45.24198" lon="6.16622">
        <ele>1906.5999755859</ele>
        <time>2019-05-01T06:28:52.000Z</time>
      </trkpt>
      <trkpt lat="45.24198" lon="6.16622">
        <ele>1907.1999511719</ele>
        <time>2019-05-01T06:29:04.000Z</time>
      </trkpt>
      <trkpt lat="45.24198" lon="6.16622">
        <ele>1907.1999511719</ele>
        <time>2019-05-01T06:29:18.000Z</time>
      </trkpt>
      <trkpt lat="45.24197" lon="6.16619">
        <ele>1907.1999511719</ele>
        <time>2019-05-01T06:29:31.000Z</time>
      </trkpt>
      <trkpt lat="45.24197" lon="6.16617">
        <ele>1907.4000244141</ele>
        <time>2019-05-01T06:29:33.000Z</time>
      </trkpt>
      <trkpt lat="45.24196" lon="6.16614">
        <ele>1908.1999511719</ele>
        <time>2019-05-01T06:29:36.000Z</time>
      </trkpt>
      <trkpt lat="45.24195" lon="6.16612">
        <ele>1908.5999755859</ele>
        <time>2019-05-01T06:29:39.000Z</time>
      </trkpt>
      <trkpt lat="45.24194" lon="6.16606">
        <ele>1909.1999511719</ele>
        <time>2019-05-01T06:29:43.000Z</time>
      </trkpt>
      <trkpt lat="45.24193" lon="6.16603">
        <ele>1909.5999755859</ele>
        <time>2019-05-01T06:29:46.000Z</time>
      </trkpt>
      <trkpt lat="45.24191" lon="6.166">
        <ele>1910.1999511719</ele>
        <time>2019-05-01T06:29:50.000Z</time>
      </trkpt>
      <trkpt lat="45.2419" lon="6.16598">
        <ele>1910.8000488281</ele>
        <time>2019-05-01T06:29:53.000Z</time>
      </trkpt>
      <trkpt lat="45.2419" lon="6.16596">
        <ele>1911.1999511719</ele>
        <time>2019-05-01T06:29:56.000Z</time>
      </trkpt>
      <trkpt lat="45.24189" lon="6.16593">
        <ele>1911.8000488281</ele>
        <time>2019-05-01T06:29:59.000Z</time>
      </trkpt>
      <trkpt lat="45.24188" lon="6.16591">
        <ele>1912.1999511719</ele>
        <time>2019-05-01T06:30:02.000Z</time>
      </trkpt>
      <trkpt lat="45.24187" lon="6.16587">
        <ele>1913</ele>
        <time>2019-05-01T06:30:06.000Z</time>
      </trkpt>
      <trkpt lat="45.24186" lon="6.16587">
        <ele>1913.5999755859</ele>
        <time>2019-05-01T06:30:10.000Z</time>
      </trkpt>
      <trkpt lat="45.24184" lon="6.16583">
        <ele>1914</ele>
        <time>2019-05-01T06:30:15.000Z</time>
      </trkpt>
      <trkpt lat="45.24183" lon="6.16583">
        <ele>1914.1999511719</ele>
        <time>2019-05-01T06:30:16.000Z</time>
      </trkpt>
      <trkpt lat="45.24183" lon="6.1658">
        <ele>1914.5999755859</ele>
        <time>2019-05-01T06:30:19.000Z</time>
      </trkpt>
      <trkpt lat="45.24182" lon="6.16579">
        <ele>1915</ele>
        <time>2019-05-01T06:30:21.000Z</time>
      </trkpt>
      <trkpt lat="45.24182" lon="6.16578">
        <ele>1915.4000244141</ele>
        <time>2019-05-01T06:30:22.000Z</time>
      </trkpt>
      <trkpt lat="45.24181" lon="6.16575">
        <ele>1916</ele>
        <time>2019-05-01T06:30:25.000Z</time>
      </trkpt>
      <trkpt lat="45.24181" lon="6.16573">
        <ele>1916.4000244141</ele>
        <time>2019-05-01T06:30:27.000Z</time>
      </trkpt>
      <trkpt lat="45.24178" lon="6.16568">
        <ele>1917.1999511719</ele>
        <time>2019-05-01T06:30:32.000Z</time>
      </trkpt>
      <trkpt lat="45.24177" lon="6.16567">
        <ele>1917.5999755859</ele>
        <time>2019-05-01T06:30:34.000Z</time>
      </trkpt>
      <trkpt lat="45.24176" lon="6.16564">
        <ele>1918.4000244141</ele>
        <time>2019-05-01T06:30:38.000Z</time>
      </trkpt>
      <trkpt lat="45.24175" lon="6.16563">
        <ele>1918.5999755859</ele>
        <time>2019-05-01T06:30:40.000Z</time>
      </trkpt>
      <trkpt lat="45.24173" lon="6.16559">
        <ele>1919.4000244141</ele>
        <time>2019-05-01T06:30:45.000Z</time>
      </trkpt>
      <trkpt lat="45.24172" lon="6.16558">
        <ele>1920</ele>
        <time>2019-05-01T06:30:47.000Z</time>
      </trkpt>
      <trkpt lat="45.2417" lon="6.16555">
        <ele>1920.5999755859</ele>
        <time>2019-05-01T06:30:50.000Z</time>
      </trkpt>
      <trkpt lat="45.2417" lon="6.16555">
        <ele>1921.1999511719</ele>
        <time>2019-05-01T06:30:54.000Z</time>
      </trkpt>
      <trkpt lat="45.24167" lon="6.16551">
        <ele>1921.5999755859</ele>
        <time>2019-05-01T06:30:59.000Z</time>
      </trkpt>
      <trkpt lat="45.24166" lon="6.16551">
        <ele>1921.5999755859</ele>
        <time>2019-05-01T06:31:00.000Z</time>
      </trkpt>
      <trkpt lat="45.24163" lon="6.16547">
        <ele>1922.5999755859</ele>
        <time>2019-05-01T06:31:06.000Z</time>
      </trkpt>
      <trkpt lat="45.24163" lon="6.16547">
        <ele>1922.8000488281</ele>
        <time>2019-05-01T06:31:07.000Z</time>
      </trkpt>
      <trkpt lat="45.24161" lon="6.16544">
        <ele>1923.5999755859</ele>
        <time>2019-05-01T06:31:12.000Z</time>
      </trkpt>
      <trkpt lat="45.2416" lon="6.16542">
        <ele>1923.8000488281</ele>
        <time>2019-05-01T06:31:14.000Z</time>
      </trkpt>
      <trkpt lat="45.24159" lon="6.1654">
        <ele>1924.5999755859</ele>
        <time>2019-05-01T06:31:18.000Z</time>
      </trkpt>
      <trkpt lat="45.24156" lon="6.16537">
        <ele>1925.1999511719</ele>
        <time>2019-05-01T06:31:22.000Z</time>
      </trkpt>
      <trkpt lat="45.24156" lon="6.16536">
        <ele>1925.8000488281</ele>
        <time>2019-05-01T06:31:24.000Z</time>
      </trkpt>
      <trkpt lat="45.24153" lon="6.16531">
        <ele>1926.8000488281</ele>
        <time>2019-05-01T06:31:29.000Z</time>
      </trkpt>
      <trkpt lat="45.24152" lon="6.16531">
        <ele>1927</ele>
        <time>2019-05-01T06:31:30.000Z</time>
      </trkpt>
      <trkpt lat="45.2415" lon="6.16528">
        <ele>1928</ele>
        <time>2019-05-01T06:31:35.000Z</time>
      </trkpt>
      <trkpt lat="45.24149" lon="6.16525">
        <ele>1928.4000244141</ele>
        <time>2019-05-01T06:31:37.000Z</time>
      </trkpt>
      <trkpt lat="45.24147" lon="6.16523">
        <ele>1929</ele>
        <time>2019-05-01T06:31:40.000Z</time>
      </trkpt>
      <trkpt lat="45.24144" lon="6.1652">
        <ele>1929.5999755859</ele>
        <time>2019-05-01T06:31:43.000Z</time>
      </trkpt>
      <trkpt lat="45.24144" lon="6.16518">
        <ele>1930.1999511719</ele>
        <time>2019-05-01T06:31:46.000Z</time>
      </trkpt>
      <trkpt lat="45.24143" lon="6.16515">
        <ele>1931</ele>
        <time>2019-05-01T06:31:50.000Z</time>
      </trkpt>
      <trkpt lat="45.24142" lon="6.16514">
        <ele>1931.1999511719</ele>
        <time>2019-05-01T06:31:52.000Z</time>
      </trkpt>
      <trkpt lat="45.2414" lon="6.16511">
        <ele>1931.8000488281</ele>
        <time>2019-05-01T06:31:56.000Z</time>
      </trkpt>
      <trkpt lat="45.24139" lon="6.1651">
        <ele>1932.4000244141</ele>
        <time>2019-05-01T06:31:58.000Z</time>
      </trkpt>
      <trkpt lat="45.24136" lon="6.16505">
        <ele>1933.1999511719</ele>
        <time>2019-05-01T06:32:03.000Z</time>
      </trkpt>
      <trkpt lat="45.24136" lon="6.16504">
        <ele>1933.4000244141</ele>
        <time>2019-05-01T06:32:04.000Z</time>
      </trkpt>
      <trkpt lat="45.24132" lon="6.165">
        <ele>1934.4000244141</ele>
        <time>2019-05-01T06:32:10.000Z</time>
      </trkpt>
      <trkpt lat="45.24127" lon="6.16497">
        <ele>1935.5999755859</ele>
        <time>2019-05-01T06:32:16.000Z</time>
      </trkpt>
      <trkpt lat="45.24127" lon="6.16498">
        <ele>1935.8000488281</ele>
        <time>2019-05-01T06:32:17.000Z</time>
      </trkpt>
      <trkpt lat="45.24123" lon="6.16498">
        <ele>1936.5999755859</ele>
        <time>2019-05-01T06:32:21.000Z</time>
      </trkpt>
      <trkpt lat="45.24122" lon="6.16499">
        <ele>1937.4000244141</ele>
        <time>2019-05-01T06:32:24.000Z</time>
      </trkpt>
      <trkpt lat="45.24121" lon="6.165">
        <ele>1937.5999755859</ele>
        <time>2019-05-01T06:32:26.000Z</time>
      </trkpt>
      <trkpt lat="45.24119" lon="6.16501">
        <ele>1938.8000488281</ele>
        <time>2019-05-01T06:32:32.000Z</time>
      </trkpt>
      <trkpt lat="45.24118" lon="6.165">
        <ele>1938.8000488281</ele>
        <time>2019-05-01T06:32:33.000Z</time>
      </trkpt>
      <trkpt lat="45.24117" lon="6.16495">
        <ele>1939.8000488281</ele>
        <time>2019-05-01T06:32:38.000Z</time>
      </trkpt>
      <trkpt lat="45.24118" lon="6.16493">
        <ele>1940</ele>
        <time>2019-05-01T06:32:40.000Z</time>
      </trkpt>
      <trkpt lat="45.24118" lon="6.16489">
        <ele>1940.8000488281</ele>
        <time>2019-05-01T06:32:45.000Z</time>
      </trkpt>
      <trkpt lat="45.24118" lon="6.16489">
        <ele>1941.1999511719</ele>
        <time>2019-05-01T06:32:46.000Z</time>
      </trkpt>
      <trkpt lat="45.24119" lon="6.16485">
        <ele>1942</ele>
        <time>2019-05-01T06:32:50.000Z</time>
      </trkpt>
      <trkpt lat="45.2412" lon="6.16483">
        <ele>1942.1999511719</ele>
        <time>2019-05-01T06:32:52.000Z</time>
      </trkpt>
      <trkpt lat="45.24121" lon="6.16478">
        <ele>1943</ele>
        <time>2019-05-01T06:32:56.000Z</time>
      </trkpt>
      <trkpt lat="45.24121" lon="6.16477">
        <ele>1943.1999511719</ele>
        <time>2019-05-01T06:32:57.000Z</time>
      </trkpt>
      <trkpt lat="45.24121" lon="6.16471">
        <ele>1944.1999511719</ele>
        <time>2019-05-01T06:33:03.000Z</time>
      </trkpt>
      <trkpt lat="45.24123" lon="6.16465">
        <ele>1945.4000244141</ele>
        <time>2019-05-01T06:33:09.000Z</time>
      </trkpt>
      <trkpt lat="45.24124" lon="6.16462">
        <ele>1946.4000244141</ele>
        <time>2019-05-01T06:33:14.000Z</time>
      </trkpt>
      <trkpt lat="45.24125" lon="6.16459">
        <ele>1947</ele>
        <time>2019-05-01T06:33:17.000Z</time>
      </trkpt>
      <trkpt lat="45.24125" lon="6.16458">
        <ele>1947.4000244141</ele>
        <time>2019-05-01T06:33:19.000Z</time>
      </trkpt>
      <trkpt lat="45.24125" lon="6.16456">
        <ele>1947.5999755859</ele>
        <time>2019-05-01T06:33:20.000Z</time>
      </trkpt>
      <trkpt lat="45.24124" lon="6.16454">
        <ele>1948.5999755859</ele>
        <time>2019-05-01T06:33:24.000Z</time>
      </trkpt>
      <trkpt lat="45.24123" lon="6.16453">
        <ele>1948.8000488281</ele>
        <time>2019-05-01T06:33:25.000Z</time>
      </trkpt>
      <trkpt lat="45.24123" lon="6.16451">
        <ele>1949.8000488281</ele>
        <time>2019-05-01T06:33:30.000Z</time>
      </trkpt>
      <trkpt lat="45.24122" lon="6.16449">
        <ele>1950.8000488281</ele>
        <time>2019-05-01T06:33:34.000Z</time>
      </trkpt>
      <trkpt lat="45.24119" lon="6.16448">
        <ele>1951.8000488281</ele>
        <time>2019-05-01T06:33:40.000Z</time>
      </trkpt>
      <trkpt lat="45.24116" lon="6.16448">
        <ele>1952.5999755859</ele>
        <time>2019-05-01T06:33:44.000Z</time>
      </trkpt>
      <trkpt lat="45.24115" lon="6.16448">
        <ele>1953</ele>
        <time>2019-05-01T06:33:46.000Z</time>
      </trkpt>
      <trkpt lat="45.24113" lon="6.16442">
        <ele>1954.1999511719</ele>
        <time>2019-05-01T06:33:52.000Z</time>
      </trkpt>
      <trkpt lat="45.24115" lon="6.16436">
        <ele>1955.1999511719</ele>
        <time>2019-05-01T06:33:57.000Z</time>
      </trkpt>
      <trkpt lat="45.24116" lon="6.16436">
        <ele>1955.5999755859</ele>
        <time>2019-05-01T06:33:58.000Z</time>
      </trkpt>
      <trkpt lat="45.24118" lon="6.16435">
        <ele>1956.1999511719</ele>
        <time>2019-05-01T06:34:02.000Z</time>
      </trkpt>
      <trkpt lat="45.24118" lon="6.16433">
        <ele>1956.5999755859</ele>
        <time>2019-05-01T06:34:04.000Z</time>
      </trkpt>
      <trkpt lat="45.24119" lon="6.16431">
        <ele>1957.1999511719</ele>
        <time>2019-05-01T06:34:07.000Z</time>
      </trkpt>
      <trkpt lat="45.24121" lon="6.1643">
        <ele>1957.8000488281</ele>
        <time>2019-05-01T06:34:10.000Z</time>
      </trkpt>
      <trkpt lat="45.24122" lon="6.16428">
        <ele>1958.4000244141</ele>
        <time>2019-05-01T06:34:12.000Z</time>
      </trkpt>
      <trkpt lat="45.24123" lon="6.16427">
        <ele>1958.4000244141</ele>
        <time>2019-05-01T06:34:13.000Z</time>
      </trkpt>
      <trkpt lat="45.24124" lon="6.16424">
        <ele>1959</ele>
        <time>2019-05-01T06:34:16.000Z</time>
      </trkpt>
      <trkpt lat="45.24125" lon="6.16424">
        <ele>1959.4000244141</ele>
        <time>2019-05-01T06:34:18.000Z</time>
      </trkpt>
      <trkpt lat="45.24126" lon="6.16422">
        <ele>1960</ele>
        <time>2019-05-01T06:34:21.000Z</time>
      </trkpt>
      <trkpt lat="45.24126" lon="6.16422">
        <ele>1960.4000244141</ele>
        <time>2019-05-01T06:34:23.000Z</time>
      </trkpt>
      <trkpt lat="45.24126" lon="6.16422">
        <ele>1961</ele>
        <time>2019-05-01T06:34:27.000Z</time>
      </trkpt>
      <trkpt lat="45.24126" lon="6.16422">
        <ele>1961.5999755859</ele>
        <time>2019-05-01T06:34:29.000Z</time>
      </trkpt>
      <trkpt lat="45.24123" lon="6.1642">
        <ele>1962.8000488281</ele>
        <time>2019-05-01T06:34:34.000Z</time>
      </trkpt>
      <trkpt lat="45.24122" lon="6.1642">
        <ele>1963</ele>
        <time>2019-05-01T06:34:36.000Z</time>
      </trkpt>
      <trkpt lat="45.2412" lon="6.1642">
        <ele>1963.8000488281</ele>
        <time>2019-05-01T06:34:40.000Z</time>
      </trkpt>
      <trkpt lat="45.24117" lon="6.1642">
        <ele>1964.5999755859</ele>
        <time>2019-05-01T06:34:44.000Z</time>
      </trkpt>
      <trkpt lat="45.24117" lon="6.16419">
        <ele>1964.8000488281</ele>
        <time>2019-05-01T06:34:45.000Z</time>
      </trkpt>
      <trkpt lat="45.24116" lon="6.16419">
        <ele>1966</ele>
        <time>2019-05-01T06:34:49.000Z</time>
      </trkpt>
      <trkpt lat="45.24116" lon="6.16419">
        <ele>1966.4000244141</ele>
        <time>2019-05-01T06:34:51.000Z</time>
      </trkpt>
      <trkpt lat="45.24117" lon="6.16415">
        <ele>1966.8000488281</ele>
        <time>2019-05-01T06:34:55.000Z</time>
      </trkpt>
      <trkpt lat="45.24118" lon="6.16412">
        <ele>1967</ele>
        <time>2019-05-01T06:34:58.000Z</time>
      </trkpt>
      <trkpt lat="45.24118" lon="6.16412">
        <ele>1967.1999511719</ele>
        <time>2019-05-01T06:34:59.000Z</time>
      </trkpt>
      <trkpt lat="45.24118" lon="6.16408">
        <ele>1968</ele>
        <time>2019-05-01T06:35:03.000Z</time>
      </trkpt>
      <trkpt lat="45.24119" lon="6.16408">
        <ele>1968.1999511719</ele>
        <time>2019-05-01T06:35:04.000Z</time>
      </trkpt>
      <trkpt lat="45.2412" lon="6.16402">
        <ele>1969</ele>
        <time>2019-05-01T06:35:08.000Z</time>
      </trkpt>
      <trkpt lat="45.24121" lon="6.16403">
        <ele>1969.1999511719</ele>
        <time>2019-05-01T06:35:09.000Z</time>
      </trkpt>
      <trkpt lat="45.24124" lon="6.16401">
        <ele>1970.1999511719</ele>
        <time>2019-05-01T06:35:12.000Z</time>
      </trkpt>
      <trkpt lat="45.24124" lon="6.164">
        <ele>1970.4000244141</ele>
        <time>2019-05-01T06:35:13.000Z</time>
      </trkpt>
      <trkpt lat="45.24125" lon="6.16398">
        <ele>1970.8000488281</ele>
        <time>2019-05-01T06:35:15.000Z</time>
      </trkpt>
      <trkpt lat="45.24126" lon="6.16397">
        <ele>1971.1999511719</ele>
        <time>2019-05-01T06:35:18.000Z</time>
      </trkpt>
      <trkpt lat="45.24127" lon="6.16397">
        <ele>1971.4000244141</ele>
        <time>2019-05-01T06:35:20.000Z</time>
      </trkpt>
      <trkpt lat="45.24129" lon="6.16397">
        <ele>1972</ele>
        <time>2019-05-01T06:35:24.000Z</time>
      </trkpt>
      <trkpt lat="45.2413" lon="6.16396">
        <ele>1972.5999755859</ele>
        <time>2019-05-01T06:35:28.000Z</time>
      </trkpt>
      <trkpt lat="45.24129" lon="6.16395">
        <ele>1973.1999511719</ele>
        <time>2019-05-01T06:35:30.000Z</time>
      </trkpt>
      <trkpt lat="45.24126" lon="6.16392">
        <ele>1973.8000488281</ele>
        <time>2019-05-01T06:35:34.000Z</time>
      </trkpt>
      <trkpt lat="45.24123" lon="6.16389">
        <ele>1975</ele>
        <time>2019-05-01T06:35:40.000Z</time>
      </trkpt>
      <trkpt lat="45.2412" lon="6.16386">
        <ele>1976</ele>
        <time>2019-05-01T06:35:46.000Z</time>
      </trkpt>
      <trkpt lat="45.2412" lon="6.16385">
        <ele>1976.1999511719</ele>
        <time>2019-05-01T06:35:47.000Z</time>
      </trkpt>
      <trkpt lat="45.24118" lon="6.16383">
        <ele>1977</ele>
        <time>2019-05-01T06:35:51.000Z</time>
      </trkpt>
      <trkpt lat="45.24117" lon="6.16382">
        <ele>1977.4000244141</ele>
        <time>2019-05-01T06:35:53.000Z</time>
      </trkpt>
      <trkpt lat="45.24116" lon="6.1638">
        <ele>1978.1999511719</ele>
        <time>2019-05-01T06:35:56.000Z</time>
      </trkpt>
      <trkpt lat="45.24115" lon="6.16378">
        <ele>1979.1999511719</ele>
        <time>2019-05-01T06:35:59.000Z</time>
      </trkpt>
      <trkpt lat="45.24115" lon="6.16377">
        <ele>1979.4000244141</ele>
        <time>2019-05-01T06:36:00.000Z</time>
      </trkpt>
      <trkpt lat="45.24114" lon="6.16374">
        <ele>1980.4000244141</ele>
        <time>2019-05-01T06:36:04.000Z</time>
      </trkpt>
      <trkpt lat="45.24113" lon="6.16373">
        <ele>1980.5999755859</ele>
        <time>2019-05-01T06:36:05.000Z</time>
      </trkpt>
      <trkpt lat="45.24113" lon="6.16371">
        <ele>1981.5999755859</ele>
        <time>2019-05-01T06:36:08.000Z</time>
      </trkpt>
      <trkpt lat="45.24112" lon="6.16368">
        <ele>1982.4000244141</ele>
        <time>2019-05-01T06:36:12.000Z</time>
      </trkpt>
      <trkpt lat="45.24111" lon="6.16366">
        <ele>1982.5999755859</ele>
        <time>2019-05-01T06:36:13.000Z</time>
      </trkpt>
      <trkpt lat="45.2411" lon="6.16363">
        <ele>1983.8000488281</ele>
        <time>2019-05-01T06:36:17.000Z</time>
      </trkpt>
      <trkpt lat="45.24109" lon="6.16359">
        <ele>1984.8000488281</ele>
        <time>2019-05-01T06:36:21.000Z</time>
      </trkpt>
      <trkpt lat="45.24109" lon="6.16358">
        <ele>1985.5999755859</ele>
        <time>2019-05-01T06:36:23.000Z</time>
      </trkpt>
      <trkpt lat="45.24108" lon="6.16355">
        <ele>1986</ele>
        <time>2019-05-01T06:36:25.000Z</time>
      </trkpt>
      <trkpt lat="45.24107" lon="6.16351">
        <ele>1987</ele>
        <time>2019-05-01T06:36:29.000Z</time>
      </trkpt>
      <trkpt lat="45.24106" lon="6.16349">
        <ele>1987.1999511719</ele>
        <time>2019-05-01T06:36:30.000Z</time>
      </trkpt>
      <trkpt lat="45.24106" lon="6.16348">
        <ele>1988.1999511719</ele>
        <time>2019-05-01T06:36:34.000Z</time>
      </trkpt>
      <trkpt lat="45.24105" lon="6.16342">
        <ele>1989.4000244141</ele>
        <time>2019-05-01T06:36:40.000Z</time>
      </trkpt>
      <trkpt lat="45.24103" lon="6.16337">
        <ele>1990.5999755859</ele>
        <time>2019-05-01T06:36:46.000Z</time>
      </trkpt>
      <trkpt lat="45.24103" lon="6.16336">
        <ele>1991</ele>
        <time>2019-05-01T06:36:48.000Z</time>
      </trkpt>
      <trkpt lat="45.24103" lon="6.16333">
        <ele>1991.5999755859</ele>
        <time>2019-05-01T06:36:51.000Z</time>
      </trkpt>
      <trkpt lat="45.24102" lon="6.1633">
        <ele>1992.4000244141</ele>
        <time>2019-05-01T06:36:55.000Z</time>
      </trkpt>
      <trkpt lat="45.24102" lon="6.16326">
        <ele>1992.8000488281</ele>
        <time>2019-05-01T06:36:58.000Z</time>
      </trkpt>
      <trkpt lat="45.24101" lon="6.16323">
        <ele>1993.5999755859</ele>
        <time>2019-05-01T06:37:02.000Z</time>
      </trkpt>
      <trkpt lat="45.241" lon="6.16323">
        <ele>1994</ele>
        <time>2019-05-01T06:37:04.000Z</time>
      </trkpt>
      <trkpt lat="45.241" lon="6.16319">
        <ele>1994.4000244141</ele>
        <time>2019-05-01T06:37:09.000Z</time>
      </trkpt>
      <trkpt lat="45.24101" lon="6.16318">
        <ele>1994.8000488281</ele>
        <time>2019-05-01T06:37:10.000Z</time>
      </trkpt>
      <trkpt lat="45.24101" lon="6.16315">
        <ele>1995.1999511719</ele>
        <time>2019-05-01T06:37:12.000Z</time>
      </trkpt>
      <trkpt lat="45.24102" lon="6.16311">
        <ele>1996.1999511719</ele>
        <time>2019-05-01T06:37:17.000Z</time>
      </trkpt>
      <trkpt lat="45.24102" lon="6.1631">
        <ele>1996.5999755859</ele>
        <time>2019-05-01T06:37:19.000Z</time>
      </trkpt>
      <trkpt lat="45.24103" lon="6.16309">
        <ele>1997</ele>
        <time>2019-05-01T06:37:21.000Z</time>
      </trkpt>
      <trkpt lat="45.24104" lon="6.1631">
        <ele>1997.1999511719</ele>
        <time>2019-05-01T06:37:23.000Z</time>
      </trkpt>
      <trkpt lat="45.24104" lon="6.16309">
        <ele>1997.8000488281</ele>
        <time>2019-05-01T06:37:27.000Z</time>
      </trkpt>
      <trkpt lat="45.24106" lon="6.16308">
        <ele>1998.4000244141</ele>
        <time>2019-05-01T06:37:30.000Z</time>
      </trkpt>
      <trkpt lat="45.24107" lon="6.16309">
        <ele>1998.8000488281</ele>
        <time>2019-05-01T06:37:32.000Z</time>
      </trkpt>
      <trkpt lat="45.24108" lon="6.16308">
        <ele>1999.4000244141</ele>
        <time>2019-05-01T06:37:35.000Z</time>
      </trkpt>
      <trkpt lat="45.24108" lon="6.16307">
        <ele>1999.8000488281</ele>
        <time>2019-05-01T06:37:37.000Z</time>
      </trkpt>
      <trkpt lat="45.24107" lon="6.16303">
        <ele>2000.5999755859</ele>
        <time>2019-05-01T06:37:41.000Z</time>
      </trkpt>
      <trkpt lat="45.24106" lon="6.16303">
        <ele>2000.8000488281</ele>
        <time>2019-05-01T06:37:42.000Z</time>
      </trkpt>
      <trkpt lat="45.24103" lon="6.16299">
        <ele>2001.8000488281</ele>
        <time>2019-05-01T06:37:47.000Z</time>
      </trkpt>
      <trkpt lat="45.24102" lon="6.16294">
        <ele>2002.8000488281</ele>
        <time>2019-05-01T06:37:53.000Z</time>
      </trkpt>
      <trkpt lat="45.24102" lon="6.16293">
        <ele>2003.1999511719</ele>
        <time>2019-05-01T06:37:54.000Z</time>
      </trkpt>
      <trkpt lat="45.241" lon="6.16291">
        <ele>2003.8000488281</ele>
        <time>2019-05-01T06:37:58.000Z</time>
      </trkpt>
      <trkpt lat="45.241" lon="6.1629">
        <ele>2004</ele>
        <time>2019-05-01T06:37:59.000Z</time>
      </trkpt>
      <trkpt lat="45.241" lon="6.16284">
        <ele>2005</ele>
        <time>2019-05-01T06:38:04.000Z</time>
      </trkpt>
      <trkpt lat="45.241" lon="6.16284">
        <ele>2005.1999511719</ele>
        <time>2019-05-01T06:38:05.000Z</time>
      </trkpt>
      <trkpt lat="45.241" lon="6.16279">
        <ele>2006.1999511719</ele>
        <time>2019-05-01T06:38:10.000Z</time>
      </trkpt>
      <trkpt lat="45.241" lon="6.16278">
        <ele>2006.4000244141</ele>
        <time>2019-05-01T06:38:11.000Z</time>
      </trkpt>
      <trkpt lat="45.241" lon="6.16273">
        <ele>2007.4000244141</ele>
        <time>2019-05-01T06:38:16.000Z</time>
      </trkpt>
      <trkpt lat="45.241" lon="6.16273">
        <ele>2007.5999755859</ele>
        <time>2019-05-01T06:38:17.000Z</time>
      </trkpt>
      <trkpt lat="45.24099" lon="6.1627">
        <ele>2008.4000244141</ele>
        <time>2019-05-01T06:38:21.000Z</time>
      </trkpt>
      <trkpt lat="45.24099" lon="6.16268">
        <ele>2008.8000488281</ele>
        <time>2019-05-01T06:38:23.000Z</time>
      </trkpt>
      <trkpt lat="45.24099" lon="6.16266">
        <ele>2009.4000244141</ele>
        <time>2019-05-01T06:38:24.000Z</time>
      </trkpt>
      <trkpt lat="45.24099" lon="6.16263">
        <ele>2010.4000244141</ele>
        <time>2019-05-01T06:38:28.000Z</time>
      </trkpt>
      <trkpt lat="45.24099" lon="6.16262">
        <ele>2010.5999755859</ele>
        <time>2019-05-01T06:38:29.000Z</time>
      </trkpt>
      <trkpt lat="45.24098" lon="6.16257">
        <ele>2011.4000244141</ele>
        <time>2019-05-01T06:38:33.000Z</time>
      </trkpt>
      <trkpt lat="45.24098" lon="6.16256">
        <ele>2011.5999755859</ele>
        <time>2019-05-01T06:38:34.000Z</time>
      </trkpt>
      <trkpt lat="45.24097" lon="6.16252">
        <ele>2012.5999755859</ele>
        <time>2019-05-01T06:38:38.000Z</time>
      </trkpt>
      <trkpt lat="45.24097" lon="6.1625">
        <ele>2012.8000488281</ele>
        <time>2019-05-01T06:38:39.000Z</time>
      </trkpt>
      <trkpt lat="45.24096" lon="6.16246">
        <ele>2013.5999755859</ele>
        <time>2019-05-01T06:38:43.000Z</time>
      </trkpt>
      <trkpt lat="45.24096" lon="6.16245">
        <ele>2013.8000488281</ele>
        <time>2019-05-01T06:38:44.000Z</time>
      </trkpt>
      <trkpt lat="45.24095" lon="6.16241">
        <ele>2014.5999755859</ele>
        <time>2019-05-01T06:38:48.000Z</time>
      </trkpt>
      <trkpt lat="45.24095" lon="6.16239">
        <ele>2015</ele>
        <time>2019-05-01T06:38:50.000Z</time>
      </trkpt>
      <trkpt lat="45.24094" lon="6.16235">
        <ele>2015.5999755859</ele>
        <time>2019-05-01T06:38:54.000Z</time>
      </trkpt>
      <trkpt lat="45.24092" lon="6.16231">
        <ele>2016.1999511719</ele>
        <time>2019-05-01T06:38:57.000Z</time>
      </trkpt>
      <trkpt lat="45.24092" lon="6.16228">
        <ele>2016.5999755859</ele>
        <time>2019-05-01T06:39:00.000Z</time>
      </trkpt>
      <trkpt lat="45.24091" lon="6.16225">
        <ele>2017.1999511719</ele>
        <time>2019-05-01T06:39:03.000Z</time>
      </trkpt>
      <trkpt lat="45.2409" lon="6.16223">
        <ele>2017.8000488281</ele>
        <time>2019-05-01T06:39:06.000Z</time>
      </trkpt>
      <trkpt lat="45.24089" lon="6.1622">
        <ele>2018.4000244141</ele>
        <time>2019-05-01T06:39:09.000Z</time>
      </trkpt>
      <trkpt lat="45.24087" lon="6.16217">
        <ele>2019.5999755859</ele>
        <time>2019-05-01T06:39:13.000Z</time>
      </trkpt>
      <trkpt lat="45.24085" lon="6.16213">
        <ele>2021</ele>
        <time>2019-05-01T06:39:18.000Z</time>
      </trkpt>
      <trkpt lat="45.24085" lon="6.16213">
        <ele>2021.1999511719</ele>
        <time>2019-05-01T06:39:19.000Z</time>
      </trkpt>
      <trkpt lat="45.24084" lon="6.16211">
        <ele>2022</ele>
        <time>2019-05-01T06:39:22.000Z</time>
      </trkpt>
      <trkpt lat="45.24082" lon="6.16209">
        <ele>2023</ele>
        <time>2019-05-01T06:39:27.000Z</time>
      </trkpt>
      <trkpt lat="45.24082" lon="6.16208">
        <ele>2023.4000244141</ele>
        <time>2019-05-01T06:39:28.000Z</time>
      </trkpt>
      <trkpt lat="45.2408" lon="6.16205">
        <ele>2024.1999511719</ele>
        <time>2019-05-01T06:39:32.000Z</time>
      </trkpt>
      <trkpt lat="45.24079" lon="6.16202">
        <ele>2025.5999755859</ele>
        <time>2019-05-01T06:39:36.000Z</time>
      </trkpt>
      <trkpt lat="45.24077" lon="6.16199">
        <ele>2026.5999755859</ele>
        <time>2019-05-01T06:39:41.000Z</time>
      </trkpt>
      <trkpt lat="45.24077" lon="6.16199">
        <ele>2026.8000488281</ele>
        <time>2019-05-01T06:39:42.000Z</time>
      </trkpt>
      <trkpt lat="45.24075" lon="6.16195">
        <ele>2027.5999755859</ele>
        <time>2019-05-01T06:39:47.000Z</time>
      </trkpt>
      <trkpt lat="45.24074" lon="6.16194">
        <ele>2028</ele>
        <time>2019-05-01T06:39:49.000Z</time>
      </trkpt>
      <trkpt lat="45.24072" lon="6.16192">
        <ele>2028.5999755859</ele>
        <time>2019-05-01T06:39:52.000Z</time>
      </trkpt>
      <trkpt lat="45.24071" lon="6.16189">
        <ele>2029.1999511719</ele>
        <time>2019-05-01T06:39:55.000Z</time>
      </trkpt>
      <trkpt lat="45.2407" lon="6.16187">
        <ele>2029.8000488281</ele>
        <time>2019-05-01T06:39:57.000Z</time>
      </trkpt>
      <trkpt lat="45.24068" lon="6.16183">
        <ele>2031</ele>
        <time>2019-05-01T06:40:02.000Z</time>
      </trkpt>
      <trkpt lat="45.24068" lon="6.16182">
        <ele>2031.1999511719</ele>
        <time>2019-05-01T06:40:03.000Z</time>
      </trkpt>
      <trkpt lat="45.24066" lon="6.16179">
        <ele>2031.8000488281</ele>
        <time>2019-05-01T06:40:07.000Z</time>
      </trkpt>
      <trkpt lat="45.24066" lon="6.16179">
        <ele>2032</ele>
        <time>2019-05-01T06:40:08.000Z</time>
      </trkpt>
      <trkpt lat="45.24066" lon="6.16178">
        <ele>2032.5999755859</ele>
        <time>2019-05-01T06:40:16.000Z</time>
      </trkpt>
      <trkpt lat="45.24063" lon="6.16173">
        <ele>2033.1999511719</ele>
        <time>2019-05-01T06:40:21.000Z</time>
      </trkpt>
      <trkpt lat="45.2406" lon="6.16169">
        <ele>2034.1999511719</ele>
        <time>2019-05-01T06:40:26.000Z</time>
      </trkpt>
      <trkpt lat="45.2406" lon="6.16169">
        <ele>2034.4000244141</ele>
        <time>2019-05-01T06:40:27.000Z</time>
      </trkpt>
      <trkpt lat="45.2406" lon="6.16167">
        <ele>2034.5999755859</ele>
        <time>2019-05-01T06:40:28.000Z</time>
      </trkpt>
      <trkpt lat="45.24059" lon="6.16164">
        <ele>2035.1999511719</ele>
        <time>2019-05-01T06:40:31.000Z</time>
      </trkpt>
      <trkpt lat="45.24059" lon="6.16163">
        <ele>2035.4000244141</ele>
        <time>2019-05-01T06:40:32.000Z</time>
      </trkpt>
      <trkpt lat="45.24056" lon="6.16157">
        <ele>2036.5999755859</ele>
        <time>2019-05-01T06:40:38.000Z</time>
      </trkpt>
      <trkpt lat="45.24055" lon="6.16153">
        <ele>2037.4000244141</ele>
        <time>2019-05-01T06:40:43.000Z</time>
      </trkpt>
      <trkpt lat="45.24054" lon="6.16152">
        <ele>2037.5999755859</ele>
        <time>2019-05-01T06:40:44.000Z</time>
      </trkpt>
      <trkpt lat="45.24052" lon="6.16149">
        <ele>2038.5999755859</ele>
        <time>2019-05-01T06:40:48.000Z</time>
      </trkpt>
      <trkpt lat="45.24052" lon="6.16148">
        <ele>2038.5999755859</ele>
        <time>2019-05-01T06:40:49.000Z</time>
      </trkpt>
      <trkpt lat="45.2405" lon="6.16145">
        <ele>2039.4000244141</ele>
        <time>2019-05-01T06:40:54.000Z</time>
      </trkpt>
      <trkpt lat="45.24048" lon="6.16143">
        <ele>2039.8000488281</ele>
        <time>2019-05-01T06:40:56.000Z</time>
      </trkpt>
      <trkpt lat="45.24047" lon="6.1614">
        <ele>2040.4000244141</ele>
        <time>2019-05-01T06:40:59.000Z</time>
      </trkpt>
      <trkpt lat="45.24046" lon="6.16139">
        <ele>2040.8000488281</ele>
        <time>2019-05-01T06:41:01.000Z</time>
      </trkpt>
      <trkpt lat="45.24045" lon="6.16138">
        <ele>2041.1999511719</ele>
        <time>2019-05-01T06:41:03.000Z</time>
      </trkpt>
      <trkpt lat="45.24043" lon="6.16133">
        <ele>2042</ele>
        <time>2019-05-01T06:41:08.000Z</time>
      </trkpt>
      <trkpt lat="45.2404" lon="6.16129">
        <ele>2043</ele>
        <time>2019-05-01T06:41:14.000Z</time>
      </trkpt>
      <trkpt lat="45.24038" lon="6.16124">
        <ele>2043.8000488281</ele>
        <time>2019-05-01T06:41:19.000Z</time>
      </trkpt>
      <trkpt lat="45.24037" lon="6.16122">
        <ele>2044</ele>
        <time>2019-05-01T06:41:21.000Z</time>
      </trkpt>
      <trkpt lat="45.24035" lon="6.16116">
        <ele>2044.8000488281</ele>
        <time>2019-05-01T06:41:25.000Z</time>
      </trkpt>
      <trkpt lat="45.24034" lon="6.16116">
        <ele>2045.1999511719</ele>
        <time>2019-05-01T06:41:27.000Z</time>
      </trkpt>
      <trkpt lat="45.24034" lon="6.16114">
        <ele>2045.4000244141</ele>
        <time>2019-05-01T06:41:29.000Z</time>
      </trkpt>
      <trkpt lat="45.24032" lon="6.1611">
        <ele>2046</ele>
        <time>2019-05-01T06:41:33.000Z</time>
      </trkpt>
      <trkpt lat="45.24032" lon="6.16109">
        <ele>2046.1999511719</ele>
        <time>2019-05-01T06:41:34.000Z</time>
      </trkpt>
      <trkpt lat="45.24029" lon="6.16104">
        <ele>2047.4000244141</ele>
        <time>2019-05-01T06:41:39.000Z</time>
      </trkpt>
      <trkpt lat="45.24027" lon="6.16099">
        <ele>2048</ele>
        <time>2019-05-01T06:41:44.000Z</time>
      </trkpt>
      <trkpt lat="45.24026" lon="6.16097">
        <ele>2048.3999023438</ele>
        <time>2019-05-01T06:41:46.000Z</time>
      </trkpt>
      <trkpt lat="45.24024" lon="6.16094">
        <ele>2049</ele>
        <time>2019-05-01T06:41:50.000Z</time>
      </trkpt>
      <trkpt lat="45.24024" lon="6.16093">
        <ele>2049.3999023438</ele>
        <time>2019-05-01T06:41:52.000Z</time>
      </trkpt>
      <trkpt lat="45.24022" lon="6.1609">
        <ele>2049.8000488281</ele>
        <time>2019-05-01T06:41:55.000Z</time>
      </trkpt>
      <trkpt lat="45.2402" lon="6.16087">
        <ele>2050.8000488281</ele>
        <time>2019-05-01T06:42:00.000Z</time>
      </trkpt>
      <trkpt lat="45.24018" lon="6.16083">
        <ele>2051.6000976562</ele>
        <time>2019-05-01T06:42:05.000Z</time>
      </trkpt>
      <trkpt lat="45.24018" lon="6.16082">
        <ele>2051.8000488281</ele>
        <time>2019-05-01T06:42:06.000Z</time>
      </trkpt>
      <trkpt lat="45.24016" lon="6.16078">
        <ele>2052.6000976562</ele>
        <time>2019-05-01T06:42:11.000Z</time>
      </trkpt>
      <trkpt lat="45.24016" lon="6.16076">
        <ele>2052.8000488281</ele>
        <time>2019-05-01T06:42:13.000Z</time>
      </trkpt>
      <trkpt lat="45.24015" lon="6.16074">
        <ele>2053.1999511719</ele>
        <time>2019-05-01T06:42:16.000Z</time>
      </trkpt>
      <trkpt lat="45.24014" lon="6.16069">
        <ele>2053.8000488281</ele>
        <time>2019-05-01T06:42:19.000Z</time>
      </trkpt>
      <trkpt lat="45.24014" lon="6.16067">
        <ele>2054.1999511719</ele>
        <time>2019-05-01T06:42:21.000Z</time>
      </trkpt>
      <trkpt lat="45.24013" lon="6.16064">
        <ele>2055</ele>
        <time>2019-05-01T06:42:24.000Z</time>
      </trkpt>
      <trkpt lat="45.24013" lon="6.16062">
        <ele>2055.1999511719</ele>
        <time>2019-05-01T06:42:26.000Z</time>
      </trkpt>
      <trkpt lat="45.24012" lon="6.16059">
        <ele>2056</ele>
        <time>2019-05-01T06:42:30.000Z</time>
      </trkpt>
      <trkpt lat="45.24011" lon="6.16058">
        <ele>2056.1999511719</ele>
        <time>2019-05-01T06:42:31.000Z</time>
      </trkpt>
      <trkpt lat="45.2401" lon="6.16054">
        <ele>2057</ele>
        <time>2019-05-01T06:42:36.000Z</time>
      </trkpt>
      <trkpt lat="45.24008" lon="6.16048">
        <ele>2058</ele>
        <time>2019-05-01T06:42:41.000Z</time>
      </trkpt>
      <trkpt lat="45.24008" lon="6.16047">
        <ele>2058.1999511719</ele>
        <time>2019-05-01T06:42:42.000Z</time>
      </trkpt>
      <trkpt lat="45.24007" lon="6.16044">
        <ele>2059</ele>
        <time>2019-05-01T06:42:46.000Z</time>
      </trkpt>
      <trkpt lat="45.24006" lon="6.16043">
        <ele>2059.3999023438</ele>
        <time>2019-05-01T06:42:48.000Z</time>
      </trkpt>
      <trkpt lat="45.24004" lon="6.16039">
        <ele>2060.1999511719</ele>
        <time>2019-05-01T06:42:53.000Z</time>
      </trkpt>
      <trkpt lat="45.24004" lon="6.16037">
        <ele>2060.6000976562</ele>
        <time>2019-05-01T06:42:55.000Z</time>
      </trkpt>
      <trkpt lat="45.24003" lon="6.16034">
        <ele>2061.1999511719</ele>
        <time>2019-05-01T06:42:59.000Z</time>
      </trkpt>
      <trkpt lat="45.24002" lon="6.16032">
        <ele>2061.6000976562</ele>
        <time>2019-05-01T06:43:01.000Z</time>
      </trkpt>
      <trkpt lat="45.24002" lon="6.16032">
        <ele>2061.6000976562</ele>
        <time>2019-05-01T06:43:02.000Z</time>
      </trkpt>
      <trkpt lat="45.24001" lon="6.1603">
        <ele>2062</ele>
        <time>2019-05-01T06:43:04.000Z</time>
      </trkpt>
      <trkpt lat="45.24" lon="6.16025">
        <ele>2062.8000488281</ele>
        <time>2019-05-01T06:43:09.000Z</time>
      </trkpt>
      <trkpt lat="45.23999" lon="6.1602">
        <ele>2064</ele>
        <time>2019-05-01T06:43:14.000Z</time>
      </trkpt>
      <trkpt lat="45.23999" lon="6.16019">
        <ele>2064</ele>
        <time>2019-05-01T06:43:15.000Z</time>
      </trkpt>
      <trkpt lat="45.23999" lon="6.16014">
        <ele>2065</ele>
        <time>2019-05-01T06:43:20.000Z</time>
      </trkpt>
      <trkpt lat="45.23998" lon="6.16013">
        <ele>2065.1999511719</ele>
        <time>2019-05-01T06:43:21.000Z</time>
      </trkpt>
      <trkpt lat="45.23998" lon="6.16008">
        <ele>2066</ele>
        <time>2019-05-01T06:43:26.000Z</time>
      </trkpt>
      <trkpt lat="45.23996" lon="6.16003">
        <ele>2066.8000488281</ele>
        <time>2019-05-01T06:43:31.000Z</time>
      </trkpt>
      <trkpt lat="45.23996" lon="6.16003">
        <ele>2067</ele>
        <time>2019-05-01T06:43:32.000Z</time>
      </trkpt>
      <trkpt lat="45.23996" lon="6.15998">
        <ele>2068</ele>
        <time>2019-05-01T06:43:36.000Z</time>
      </trkpt>
      <trkpt lat="45.23996" lon="6.15997">
        <ele>2068.1999511719</ele>
        <time>2019-05-01T06:43:37.000Z</time>
      </trkpt>
      <trkpt lat="45.23995" lon="6.15994">
        <ele>2069</ele>
        <time>2019-05-01T06:43:41.000Z</time>
      </trkpt>
      <trkpt lat="45.23995" lon="6.15992">
        <ele>2069.1999511719</ele>
        <time>2019-05-01T06:43:42.000Z</time>
      </trkpt>
      <trkpt lat="45.23994" lon="6.15987">
        <ele>2070</ele>
        <time>2019-05-01T06:43:47.000Z</time>
      </trkpt>
      <trkpt lat="45.23993" lon="6.15985">
        <ele>2070.3999023438</ele>
        <time>2019-05-01T06:43:49.000Z</time>
      </trkpt>
      <trkpt lat="45.23992" lon="6.15981">
        <ele>2071</ele>
        <time>2019-05-01T06:43:53.000Z</time>
      </trkpt>
      <trkpt lat="45.23992" lon="6.1598">
        <ele>2071.3999023438</ele>
        <time>2019-05-01T06:43:55.000Z</time>
      </trkpt>
      <trkpt lat="45.23991" lon="6.15976">
        <ele>2072.1999511719</ele>
        <time>2019-05-01T06:43:59.000Z</time>
      </trkpt>
      <trkpt lat="45.23991" lon="6.15976">
        <ele>2072.6000976562</ele>
        <time>2019-05-01T06:44:00.000Z</time>
      </trkpt>
      <trkpt lat="45.2399" lon="6.15972">
        <ele>2073.3999023438</ele>
        <time>2019-05-01T06:44:04.000Z</time>
      </trkpt>
      <trkpt lat="45.2399" lon="6.1597">
        <ele>2073.8000488281</ele>
        <time>2019-05-01T06:44:06.000Z</time>
      </trkpt>
      <trkpt lat="45.23989" lon="6.15966">
        <ele>2074.3999023438</ele>
        <time>2019-05-01T06:44:10.000Z</time>
      </trkpt>
      <trkpt lat="45.23988" lon="6.15962">
        <ele>2074.8000488281</ele>
        <time>2019-05-01T06:44:13.000Z</time>
      </trkpt>
      <trkpt lat="45.23988" lon="6.15961">
        <ele>2075.3999023438</ele>
        <time>2019-05-01T06:44:15.000Z</time>
      </trkpt>
      <trkpt lat="45.23988" lon="6.15959">
        <ele>2075.8000488281</ele>
        <time>2019-05-01T06:44:18.000Z</time>
      </trkpt>
      <trkpt lat="45.23987" lon="6.15952">
        <ele>2077</ele>
        <time>2019-05-01T06:44:24.000Z</time>
      </trkpt>
      <trkpt lat="45.23986" lon="6.15948">
        <ele>2078</ele>
        <time>2019-05-01T06:44:29.000Z</time>
      </trkpt>
      <trkpt lat="45.23986" lon="6.15946">
        <ele>2078.1999511719</ele>
        <time>2019-05-01T06:44:30.000Z</time>
      </trkpt>
      <trkpt lat="45.23985" lon="6.15943">
        <ele>2079.1999511719</ele>
        <time>2019-05-01T06:44:35.000Z</time>
      </trkpt>
      <trkpt lat="45.23984" lon="6.15937">
        <ele>2080.1999511719</ele>
        <time>2019-05-01T06:44:40.000Z</time>
      </trkpt>
      <trkpt lat="45.23984" lon="6.15937">
        <ele>2080.3999023438</ele>
        <time>2019-05-01T06:44:41.000Z</time>
      </trkpt>
      <trkpt lat="45.23984" lon="6.15938">
        <ele>2081.1999511719</ele>
        <time>2019-05-01T06:44:46.000Z</time>
      </trkpt>
      <trkpt lat="45.23984" lon="6.15938">
        <ele>2081.3999023438</ele>
        <time>2019-05-01T06:44:49.000Z</time>
      </trkpt>
      <trkpt lat="45.23984" lon="6.15938">
        <ele>2081.3999023438</ele>
        <time>2019-05-01T06:45:02.000Z</time>
      </trkpt>
      <trkpt lat="45.23984" lon="6.15938">
        <ele>2081.3999023438</ele>
        <time>2019-05-01T06:45:13.000Z</time>
      </trkpt>
      <trkpt lat="45.23984" lon="6.15937">
        <ele>2081.3999023438</ele>
        <time>2019-05-01T06:45:36.000Z</time>
      </trkpt>
      <trkpt lat="45.23983" lon="6.15937">
        <ele>2081.3999023438</ele>
        <time>2019-05-01T06:45:48.000Z</time>
      </trkpt>
      <trkpt lat="45.23983" lon="6.15937">
        <ele>2081.8000488281</ele>
        <time>2019-05-01T06:46:02.000Z</time>
      </trkpt>
      <trkpt lat="45.23983" lon="6.15937">
        <ele>2081.8000488281</ele>
        <time>2019-05-01T06:46:11.000Z</time>
      </trkpt>
      <trkpt lat="45.23983" lon="6.15937">
        <ele>2081.6000976562</ele>
        <time>2019-05-01T06:46:28.000Z</time>
      </trkpt>
      <trkpt lat="45.23983" lon="6.15937">
        <ele>2081.6000976562</ele>
        <time>2019-05-01T06:46:39.000Z</time>
      </trkpt>
      <trkpt lat="45.23981" lon="6.15932">
        <ele>2081.6000976562</ele>
        <time>2019-05-01T06:46:46.000Z</time>
      </trkpt>
      <trkpt lat="45.23979" lon="6.15927">
        <ele>2082.6000976562</ele>
        <time>2019-05-01T06:46:51.000Z</time>
      </trkpt>
      <trkpt lat="45.23978" lon="6.15923">
        <ele>2083.6000976562</ele>
        <time>2019-05-01T06:46:56.000Z</time>
      </trkpt>
      <trkpt lat="45.23977" lon="6.15919">
        <ele>2084.1999511719</ele>
        <time>2019-05-01T06:46:59.000Z</time>
      </trkpt>
      <trkpt lat="45.23976" lon="6.15916">
        <ele>2084.6000976562</ele>
        <time>2019-05-01T06:47:02.000Z</time>
      </trkpt>
      <trkpt lat="45.23977" lon="6.15916">
        <ele>2084.8000488281</ele>
        <time>2019-05-01T06:47:03.000Z</time>
      </trkpt>
      <trkpt lat="45.23976" lon="6.15912">
        <ele>2085.6000976562</ele>
        <time>2019-05-01T06:47:07.000Z</time>
      </trkpt>
      <trkpt lat="45.23976" lon="6.15909">
        <ele>2085.8000488281</ele>
        <time>2019-05-01T06:47:09.000Z</time>
      </trkpt>
      <trkpt lat="45.23975" lon="6.15906">
        <ele>2086.8000488281</ele>
        <time>2019-05-01T06:47:13.000Z</time>
      </trkpt>
      <trkpt lat="45.23974" lon="6.15901">
        <ele>2087.8000488281</ele>
        <time>2019-05-01T06:47:18.000Z</time>
      </trkpt>
      <trkpt lat="45.23974" lon="6.15901">
        <ele>2088</ele>
        <time>2019-05-01T06:47:19.000Z</time>
      </trkpt>
      <trkpt lat="45.23973" lon="6.15897">
        <ele>2088.8000488281</ele>
        <time>2019-05-01T06:47:23.000Z</time>
      </trkpt>
      <trkpt lat="45.23972" lon="6.15897">
        <ele>2089</ele>
        <time>2019-05-01T06:47:24.000Z</time>
      </trkpt>
      <trkpt lat="45.23971" lon="6.15893">
        <ele>2089.6000976562</ele>
        <time>2019-05-01T06:47:28.000Z</time>
      </trkpt>
      <trkpt lat="45.2397" lon="6.15891">
        <ele>2090.1999511719</ele>
        <time>2019-05-01T06:47:31.000Z</time>
      </trkpt>
      <trkpt lat="45.2397" lon="6.1589">
        <ele>2090.6000976562</ele>
        <time>2019-05-01T06:47:33.000Z</time>
      </trkpt>
      <trkpt lat="45.23969" lon="6.15886">
        <ele>2091.1999511719</ele>
        <time>2019-05-01T06:47:36.000Z</time>
      </trkpt>
      <trkpt lat="45.23968" lon="6.15883">
        <ele>2091.8000488281</ele>
        <time>2019-05-01T06:47:39.000Z</time>
      </trkpt>
      <trkpt lat="45.23967" lon="6.1588">
        <ele>2092.3999023438</ele>
        <time>2019-05-01T06:47:43.000Z</time>
      </trkpt>
      <trkpt lat="45.23966" lon="6.15878">
        <ele>2092.6000976562</ele>
        <time>2019-05-01T06:47:45.000Z</time>
      </trkpt>
      <trkpt lat="45.23965" lon="6.15876">
        <ele>2093.3999023438</ele>
        <time>2019-05-01T06:47:50.000Z</time>
      </trkpt>
      <trkpt lat="45.23965" lon="6.15875">
        <ele>2093.6000976562</ele>
        <time>2019-05-01T06:47:51.000Z</time>
      </trkpt>
      <trkpt lat="45.23965" lon="6.15872">
        <ele>2094.3999023438</ele>
        <time>2019-05-01T06:47:56.000Z</time>
      </trkpt>
      <trkpt lat="45.23964" lon="6.15871">
        <ele>2094.6000976562</ele>
        <time>2019-05-01T06:47:57.000Z</time>
      </trkpt>
      <trkpt lat="45.23962" lon="6.15867">
        <ele>2095.3999023438</ele>
        <time>2019-05-01T06:48:01.000Z</time>
      </trkpt>
      <trkpt lat="45.2396" lon="6.15863">
        <ele>2096</ele>
        <time>2019-05-01T06:48:04.000Z</time>
      </trkpt>
      <trkpt lat="45.23959" lon="6.15861">
        <ele>2096.3999023438</ele>
        <time>2019-05-01T06:48:07.000Z</time>
      </trkpt>
      <trkpt lat="45.23958" lon="6.1586">
        <ele>2097.1999511719</ele>
        <time>2019-05-01T06:48:11.000Z</time>
      </trkpt>
      <trkpt lat="45.23957" lon="6.15858">
        <ele>2097.6000976562</ele>
        <time>2019-05-01T06:48:13.000Z</time>
      </trkpt>
      <trkpt lat="45.23957" lon="6.15856">
        <ele>2098.1999511719</ele>
        <time>2019-05-01T06:48:16.000Z</time>
      </trkpt>
      <trkpt lat="45.23955" lon="6.15854">
        <ele>2098.6000976562</ele>
        <time>2019-05-01T06:48:20.000Z</time>
      </trkpt>
      <trkpt lat="45.23955" lon="6.15854">
        <ele>2098.8000488281</ele>
        <time>2019-05-01T06:48:21.000Z</time>
      </trkpt>
      <trkpt lat="45.23951" lon="6.1585">
        <ele>2099.8000488281</ele>
        <time>2019-05-01T06:48:26.000Z</time>
      </trkpt>
      <trkpt lat="45.2395" lon="6.15848">
        <ele>2100.6000976562</ele>
        <time>2019-05-01T06:48:31.000Z</time>
      </trkpt>
      <trkpt lat="45.23948" lon="6.15847">
        <ele>2101</ele>
        <time>2019-05-01T06:48:33.000Z</time>
      </trkpt>
      <trkpt lat="45.23947" lon="6.15845">
        <ele>2101.3999023438</ele>
        <time>2019-05-01T06:48:36.000Z</time>
      </trkpt>
      <trkpt lat="45.23947" lon="6.15844">
        <ele>2102</ele>
        <time>2019-05-01T06:48:39.000Z</time>
      </trkpt>
      <trkpt lat="45.23945" lon="6.15843">
        <ele>2102.3999023438</ele>
        <time>2019-05-01T06:48:42.000Z</time>
      </trkpt>
      <trkpt lat="45.23943" lon="6.15839">
        <ele>2103</ele>
        <time>2019-05-01T06:48:46.000Z</time>
      </trkpt>
      <trkpt lat="45.23943" lon="6.15839">
        <ele>2103.1999511719</ele>
        <time>2019-05-01T06:48:47.000Z</time>
      </trkpt>
      <trkpt lat="45.2394" lon="6.15837">
        <ele>2104</ele>
        <time>2019-05-01T06:48:51.000Z</time>
      </trkpt>
      <trkpt lat="45.23939" lon="6.15836">
        <ele>2104.3999023438</ele>
        <time>2019-05-01T06:48:53.000Z</time>
      </trkpt>
      <trkpt lat="45.23938" lon="6.15832">
        <ele>2104.8000488281</ele>
        <time>2019-05-01T06:48:57.000Z</time>
      </trkpt>
      <trkpt lat="45.23937" lon="6.1583">
        <ele>2105.1999511719</ele>
        <time>2019-05-01T06:48:59.000Z</time>
      </trkpt>
      <trkpt lat="45.23936" lon="6.15829">
        <ele>2105.8000488281</ele>
        <time>2019-05-01T06:49:02.000Z</time>
      </trkpt>
      <trkpt lat="45.23934" lon="6.15826">
        <ele>2106.1999511719</ele>
        <time>2019-05-01T06:49:06.000Z</time>
      </trkpt>
      <trkpt lat="45.23934" lon="6.15824">
        <ele>2106.6000976562</ele>
        <time>2019-05-01T06:49:08.000Z</time>
      </trkpt>
      <trkpt lat="45.23933" lon="6.15821">
        <ele>2107.3999023438</ele>
        <time>2019-05-01T06:49:12.000Z</time>
      </trkpt>
      <trkpt lat="45.23931" lon="6.15818">
        <ele>2108</ele>
        <time>2019-05-01T06:49:15.000Z</time>
      </trkpt>
      <trkpt lat="45.23931" lon="6.15817">
        <ele>2108.3999023438</ele>
        <time>2019-05-01T06:49:18.000Z</time>
      </trkpt>
      <trkpt lat="45.2393" lon="6.15816">
        <ele>2108.8000488281</ele>
        <time>2019-05-01T06:49:20.000Z</time>
      </trkpt>
      <trkpt lat="45.2393" lon="6.15816">
        <ele>2109.3999023438</ele>
        <time>2019-05-01T06:49:28.000Z</time>
      </trkpt>
      <trkpt lat="45.2393" lon="6.15816">
        <ele>2109.3999023438</ele>
        <time>2019-05-01T06:49:33.000Z</time>
      </trkpt>
      <trkpt lat="45.2393" lon="6.15816">
        <ele>2109.3999023438</ele>
        <time>2019-05-01T06:49:42.000Z</time>
      </trkpt>
      <trkpt lat="45.2393" lon="6.15816">
        <ele>2109.3999023438</ele>
        <time>2019-05-01T06:49:59.000Z</time>
      </trkpt>
      <trkpt lat="45.2393" lon="6.15816">
        <ele>2109.1999511719</ele>
        <time>2019-05-01T06:50:14.000Z</time>
      </trkpt>
      <trkpt lat="45.23931" lon="6.15816">
        <ele>2109</ele>
        <time>2019-05-01T06:50:31.000Z</time>
      </trkpt>
      <trkpt lat="45.23931" lon="6.15816">
        <ele>2109</ele>
        <time>2019-05-01T06:50:49.000Z</time>
      </trkpt>
      <trkpt lat="45.23931" lon="6.15816">
        <ele>2109</ele>
        <time>2019-05-01T06:51:07.000Z</time>
      </trkpt>
      <trkpt lat="45.23931" lon="6.15816">
        <ele>2109</ele>
        <time>2019-05-01T06:51:27.000Z</time>
      </trkpt>
      <trkpt lat="45.23931" lon="6.15813">
        <ele>2109</ele>
        <time>2019-05-01T06:51:39.000Z</time>
      </trkpt>
      <trkpt lat="45.23932" lon="6.1581">
        <ele>2109.1999511719</ele>
        <time>2019-05-01T06:51:42.000Z</time>
      </trkpt>
      <trkpt lat="45.23932" lon="6.1581">
        <ele>2109.3999023438</ele>
        <time>2019-05-01T06:51:43.000Z</time>
      </trkpt>
      <trkpt lat="45.23933" lon="6.15808">
        <ele>2110.3999023438</ele>
        <time>2019-05-01T06:51:48.000Z</time>
      </trkpt>
      <trkpt lat="45.23934" lon="6.15806">
        <ele>2110.3999023438</ele>
        <time>2019-05-01T06:51:49.000Z</time>
      </trkpt>
      <trkpt lat="45.23935" lon="6.15804">
        <ele>2111</ele>
        <time>2019-05-01T06:51:53.000Z</time>
      </trkpt>
      <trkpt lat="45.23936" lon="6.15803">
        <ele>2111.3999023438</ele>
        <time>2019-05-01T06:51:55.000Z</time>
      </trkpt>
      <trkpt lat="45.23936" lon="6.15803">
        <ele>2112</ele>
        <time>2019-05-01T06:51:58.000Z</time>
      </trkpt>
      <trkpt lat="45.23938" lon="6.15801">
        <ele>2112.6000976562</ele>
        <time>2019-05-01T06:52:01.000Z</time>
      </trkpt>
      <trkpt lat="45.23939" lon="6.158">
        <ele>2112.8000488281</ele>
        <time>2019-05-01T06:52:02.000Z</time>
      </trkpt>
      <trkpt lat="45.23939" lon="6.15799">
        <ele>2113.6000976562</ele>
        <time>2019-05-01T06:52:07.000Z</time>
      </trkpt>
      <trkpt lat="45.23941" lon="6.15796">
        <ele>2114</ele>
        <time>2019-05-01T06:52:12.000Z</time>
      </trkpt>
      <trkpt lat="45.23946" lon="6.15792">
        <ele>2114.6000976562</ele>
        <time>2019-05-01T06:52:16.000Z</time>
      </trkpt>
      <trkpt lat="45.23946" lon="6.15791">
        <ele>2115.3999023438</ele>
        <time>2019-05-01T06:52:21.000Z</time>
      </trkpt>
      <trkpt lat="45.23947" lon="6.1579">
        <ele>2115.8000488281</ele>
        <time>2019-05-01T06:52:23.000Z</time>
      </trkpt>
      <trkpt lat="45.23949" lon="6.15789">
        <ele>2116.3999023438</ele>
        <time>2019-05-01T06:52:26.000Z</time>
      </trkpt>
      <trkpt lat="45.23951" lon="6.15788">
        <ele>2116.8000488281</ele>
        <time>2019-05-01T06:52:28.000Z</time>
      </trkpt>
      <trkpt lat="45.23952" lon="6.15787">
        <ele>2117.3999023438</ele>
        <time>2019-05-01T06:52:31.000Z</time>
      </trkpt>
      <trkpt lat="45.23954" lon="6.15785">
        <ele>2118</ele>
        <time>2019-05-01T06:52:34.000Z</time>
      </trkpt>
      <trkpt lat="45.23955" lon="6.15785">
        <ele>2118.1999511719</ele>
        <time>2019-05-01T06:52:36.000Z</time>
      </trkpt>
      <trkpt lat="45.23957" lon="6.15783">
        <ele>2119</ele>
        <time>2019-05-01T06:52:41.000Z</time>
      </trkpt>
      <trkpt lat="45.23961" lon="6.15782">
        <ele>2119.8000488281</ele>
        <time>2019-05-01T06:52:46.000Z</time>
      </trkpt>
      <trkpt lat="45.2396" lon="6.15782">
        <ele>2120</ele>
        <time>2019-05-01T06:52:47.000Z</time>
      </trkpt>
      <trkpt lat="45.23961" lon="6.15781">
        <ele>2120.1999511719</ele>
        <time>2019-05-01T06:52:48.000Z</time>
      </trkpt>
      <trkpt lat="45.23964" lon="6.15779">
        <ele>2121</ele>
        <time>2019-05-01T06:52:51.000Z</time>
      </trkpt>
      <trkpt lat="45.23965" lon="6.15779">
        <ele>2121</ele>
        <time>2019-05-01T06:52:52.000Z</time>
      </trkpt>
      <trkpt lat="45.23963" lon="6.15778">
        <ele>2121.8000488281</ele>
        <time>2019-05-01T06:52:57.000Z</time>
      </trkpt>
      <trkpt lat="45.23962" lon="6.15777">
        <ele>2122</ele>
        <time>2019-05-01T06:52:58.000Z</time>
      </trkpt>
      <trkpt lat="45.23965" lon="6.15779">
        <ele>2122.8000488281</ele>
        <time>2019-05-01T06:53:02.000Z</time>
      </trkpt>
      <trkpt lat="45.23966" lon="6.1578">
        <ele>2123.1999511719</ele>
        <time>2019-05-01T06:53:04.000Z</time>
      </trkpt>
      <trkpt lat="45.23968" lon="6.15782">
        <ele>2123.6000976562</ele>
        <time>2019-05-01T06:53:08.000Z</time>
      </trkpt>
      <trkpt lat="45.2397" lon="6.15782">
        <ele>2124.1999511719</ele>
        <time>2019-05-01T06:53:11.000Z</time>
      </trkpt>
      <trkpt lat="45.23974" lon="6.15782">
        <ele>2125</ele>
        <time>2019-05-01T06:53:15.000Z</time>
      </trkpt>
      <trkpt lat="45.23975" lon="6.15782">
        <ele>2125.1999511719</ele>
        <time>2019-05-01T06:53:16.000Z</time>
      </trkpt>
      <trkpt lat="45.2398" lon="6.15783">
        <ele>2126.1999511719</ele>
        <time>2019-05-01T06:53:22.000Z</time>
      </trkpt>
      <trkpt lat="45.23982" lon="6.15781">
        <ele>2127.1999511719</ele>
        <time>2019-05-01T06:53:27.000Z</time>
      </trkpt>
      <trkpt lat="45.23986" lon="6.15782">
        <ele>2128.1999511719</ele>
        <time>2019-05-01T06:53:31.000Z</time>
      </trkpt>
      <trkpt lat="45.23986" lon="6.15782">
        <ele>2128.3999023438</ele>
        <time>2019-05-01T06:53:32.000Z</time>
      </trkpt>
      <trkpt lat="45.23991" lon="6.15784">
        <ele>2129.6000976562</ele>
        <time>2019-05-01T06:53:37.000Z</time>
      </trkpt>
      <trkpt lat="45.23992" lon="6.15784">
        <ele>2129.8000488281</ele>
        <time>2019-05-01T06:53:38.000Z</time>
      </trkpt>
      <trkpt lat="45.23995" lon="6.15787">
        <ele>2130.3999023438</ele>
        <time>2019-05-01T06:53:41.000Z</time>
      </trkpt>
      <trkpt lat="45.23997" lon="6.15788">
        <ele>2130.8000488281</ele>
        <time>2019-05-01T06:53:43.000Z</time>
      </trkpt>
      <trkpt lat="45.23999" lon="6.15788">
        <ele>2131</ele>
        <time>2019-05-01T06:53:44.000Z</time>
      </trkpt>
      <trkpt lat="45.24001" lon="6.15789">
        <ele>2131.3999023438</ele>
        <time>2019-05-01T06:53:46.000Z</time>
      </trkpt>
      <trkpt lat="45.24004" lon="6.15791">
        <ele>2132</ele>
        <time>2019-05-01T06:53:49.000Z</time>
      </trkpt>
      <trkpt lat="45.24004" lon="6.15791">
        <ele>2132.1999511719</ele>
        <time>2019-05-01T06:53:50.000Z</time>
      </trkpt>
      <trkpt lat="45.24006" lon="6.1579">
        <ele>2133</ele>
        <time>2019-05-01T06:53:55.000Z</time>
      </trkpt>
      <trkpt lat="45.24006" lon="6.15783">
        <ele>2134</ele>
        <time>2019-05-01T06:53:59.000Z</time>
      </trkpt>
      <trkpt lat="45.24007" lon="6.15783">
        <ele>2134.1999511719</ele>
        <time>2019-05-01T06:54:00.000Z</time>
      </trkpt>
      <trkpt lat="45.24006" lon="6.15778">
        <ele>2135.3999023438</ele>
        <time>2019-05-01T06:54:04.000Z</time>
      </trkpt>
      <trkpt lat="45.24005" lon="6.15777">
        <ele>2135.8000488281</ele>
        <time>2019-05-01T06:54:06.000Z</time>
      </trkpt>
      <trkpt lat="45.24005" lon="6.15774">
        <ele>2136.3999023438</ele>
        <time>2019-05-01T06:54:09.000Z</time>
      </trkpt>
      <trkpt lat="45.24004" lon="6.15772">
        <ele>2137</ele>
        <time>2019-05-01T06:54:11.000Z</time>
      </trkpt>
      <trkpt lat="45.24004" lon="6.1577">
        <ele>2137.3999023438</ele>
        <time>2019-05-01T06:54:13.000Z</time>
      </trkpt>
      <trkpt lat="45.24004" lon="6.1577">
        <ele>2137.8000488281</ele>
        <time>2019-05-01T06:54:15.000Z</time>
      </trkpt>
      <trkpt lat="45.24004" lon="6.15766">
        <ele>2138.6000976562</ele>
        <time>2019-05-01T06:54:19.000Z</time>
      </trkpt>
      <trkpt lat="45.24004" lon="6.15764">
        <ele>2138.8000488281</ele>
        <time>2019-05-01T06:54:20.000Z</time>
      </trkpt>
      <trkpt lat="45.24003" lon="6.15758">
        <ele>2140</ele>
        <time>2019-05-01T06:54:25.000Z</time>
      </trkpt>
      <trkpt lat="45.24002" lon="6.15754">
        <ele>2141</ele>
        <time>2019-05-01T06:54:30.000Z</time>
      </trkpt>
      <trkpt lat="45.24002" lon="6.15752">
        <ele>2142</ele>
        <time>2019-05-01T06:54:35.000Z</time>
      </trkpt>
      <trkpt lat="45.24002" lon="6.15752">
        <ele>2142.1999511719</ele>
        <time>2019-05-01T06:54:36.000Z</time>
      </trkpt>
      <trkpt lat="45.24005" lon="6.15751">
        <ele>2143.1999511719</ele>
        <time>2019-05-01T06:54:41.000Z</time>
      </trkpt>
      <trkpt lat="45.24008" lon="6.15751">
        <ele>2144</ele>
        <time>2019-05-01T06:54:46.000Z</time>
      </trkpt>
      <trkpt lat="45.24009" lon="6.15751">
        <ele>2144.1999511719</ele>
        <time>2019-05-01T06:54:47.000Z</time>
      </trkpt>
      <trkpt lat="45.2401" lon="6.15752">
        <ele>2144.1999511719</ele>
        <time>2019-05-01T06:54:48.000Z</time>
      </trkpt>
      <trkpt lat="45.24012" lon="6.15752">
        <ele>2145.1999511719</ele>
        <time>2019-05-01T06:54:52.000Z</time>
      </trkpt>
      <trkpt lat="45.24014" lon="6.15753">
        <ele>2145.3999023438</ele>
        <time>2019-05-01T06:54:53.000Z</time>
      </trkpt>
      <trkpt lat="45.24016" lon="6.15753">
        <ele>2146</ele>
        <time>2019-05-01T06:54:57.000Z</time>
      </trkpt>
      <trkpt lat="45.24018" lon="6.15753">
        <ele>2146.3999023438</ele>
        <time>2019-05-01T06:55:00.000Z</time>
      </trkpt>
      <trkpt lat="45.24022" lon="6.15754">
        <ele>2146.8000488281</ele>
        <time>2019-05-01T06:55:03.000Z</time>
      </trkpt>
      <trkpt lat="45.24027" lon="6.15755">
        <ele>2147.6000976562</ele>
        <time>2019-05-01T06:55:08.000Z</time>
      </trkpt>
      <trkpt lat="45.24028" lon="6.15755">
        <ele>2147.8000488281</ele>
        <time>2019-05-01T06:55:09.000Z</time>
      </trkpt>
      <trkpt lat="45.24029" lon="6.15755">
        <ele>2148.6000976562</ele>
        <time>2019-05-01T06:55:13.000Z</time>
      </trkpt>
      <trkpt lat="45.2403" lon="6.15754">
        <ele>2148.8000488281</ele>
        <time>2019-05-01T06:55:14.000Z</time>
      </trkpt>
      <trkpt lat="45.24034" lon="6.15754">
        <ele>2149.6000976562</ele>
        <time>2019-05-01T06:55:19.000Z</time>
      </trkpt>
      <trkpt lat="45.24036" lon="6.15754">
        <ele>2149.8000488281</ele>
        <time>2019-05-01T06:55:21.000Z</time>
      </trkpt>
      <trkpt lat="45.2404" lon="6.15754">
        <ele>2150.3999023438</ele>
        <time>2019-05-01T06:55:25.000Z</time>
      </trkpt>
      <trkpt lat="45.24042" lon="6.15753">
        <ele>2150.8000488281</ele>
        <time>2019-05-01T06:55:28.000Z</time>
      </trkpt>
      <trkpt lat="45.24042" lon="6.15753">
        <ele>2151</ele>
        <time>2019-05-01T06:55:30.000Z</time>
      </trkpt>
      <trkpt lat="45.24045" lon="6.15752">
        <ele>2151.8000488281</ele>
        <time>2019-05-01T06:55:35.000Z</time>
      </trkpt>
      <trkpt lat="45.24045" lon="6.15752">
        <ele>2152</ele>
        <time>2019-05-01T06:55:36.000Z</time>
      </trkpt>
      <trkpt lat="45.24048" lon="6.15751">
        <ele>2152.8000488281</ele>
        <time>2019-05-01T06:55:41.000Z</time>
      </trkpt>
      <trkpt lat="45.24048" lon="6.15751">
        <ele>2153</ele>
        <time>2019-05-01T06:55:43.000Z</time>
      </trkpt>
      <trkpt lat="45.2405" lon="6.15751">
        <ele>2153.6000976562</ele>
        <time>2019-05-01T06:55:46.000Z</time>
      </trkpt>
      <trkpt lat="45.24051" lon="6.15749">
        <ele>2154.1999511719</ele>
        <time>2019-05-01T06:55:50.000Z</time>
      </trkpt>
      <trkpt lat="45.24055" lon="6.15748">
        <ele>2154.8000488281</ele>
        <time>2019-05-01T06:55:55.000Z</time>
      </trkpt>
      <trkpt lat="45.24058" lon="6.15748">
        <ele>2155.3999023438</ele>
        <time>2019-05-01T06:55:58.000Z</time>
      </trkpt>
      <trkpt lat="45.24059" lon="6.15747">
        <ele>2155.6000976562</ele>
        <time>2019-05-01T06:56:00.000Z</time>
      </trkpt>
      <trkpt lat="45.24063" lon="6.15746">
        <ele>2156.3999023438</ele>
        <time>2019-05-01T06:56:04.000Z</time>
      </trkpt>
      <trkpt lat="45.24063" lon="6.15746">
        <ele>2156.6000976562</ele>
        <time>2019-05-01T06:56:05.000Z</time>
      </trkpt>
      <trkpt lat="45.24064" lon="6.15744">
        <ele>2157</ele>
        <time>2019-05-01T06:56:09.000Z</time>
      </trkpt>
      <trkpt lat="45.24064" lon="6.15744">
        <ele>2157.3999023438</ele>
        <time>2019-05-01T06:56:11.000Z</time>
      </trkpt>
      <trkpt lat="45.24064" lon="6.15744">
        <ele>2157.3999023438</ele>
        <time>2019-05-01T06:56:12.000Z</time>
      </trkpt>
      <trkpt lat="45.24064" lon="6.15744">
        <ele>2157.3999023438</ele>
        <time>2019-05-01T06:56:31.000Z</time>
      </trkpt>
      <trkpt lat="45.2407" lon="6.15743">
        <ele>2157.8000488281</ele>
        <time>2019-05-01T06:56:36.000Z</time>
      </trkpt>
      <trkpt lat="45.24075" lon="6.15743">
        <ele>2158.3999023438</ele>
        <time>2019-05-01T06:56:40.000Z</time>
      </trkpt>
      <trkpt lat="45.24077" lon="6.15743">
        <ele>2158.8000488281</ele>
        <time>2019-05-01T06:56:41.000Z</time>
      </trkpt>
      <trkpt lat="45.2408" lon="6.15744">
        <ele>2159.3999023438</ele>
        <time>2019-05-01T06:56:44.000Z</time>
      </trkpt>
      <trkpt lat="45.24081" lon="6.15744">
        <ele>2159.6000976562</ele>
        <time>2019-05-01T06:56:45.000Z</time>
      </trkpt>
      <trkpt lat="45.24082" lon="6.15744">
        <ele>2159.8000488281</ele>
        <time>2019-05-01T06:56:46.000Z</time>
      </trkpt>
      <trkpt lat="45.24083" lon="6.15745">
        <ele>2160</ele>
        <time>2019-05-01T06:56:47.000Z</time>
      </trkpt>
      <trkpt lat="45.24084" lon="6.15745">
        <ele>2160.6000976562</ele>
        <time>2019-05-01T06:56:49.000Z</time>
      </trkpt>
      <trkpt lat="45.24087" lon="6.15747">
        <ele>2161.3999023438</ele>
        <time>2019-05-01T06:56:52.000Z</time>
      </trkpt>
      <trkpt lat="45.24088" lon="6.15747">
        <ele>2161.8000488281</ele>
        <time>2019-05-01T06:56:54.000Z</time>
      </trkpt>
      <trkpt lat="45.24091" lon="6.15748">
        <ele>2162.6000976562</ele>
        <time>2019-05-01T06:56:57.000Z</time>
      </trkpt>
      <trkpt lat="45.24093" lon="6.15749">
        <ele>2163</ele>
        <time>2019-05-01T06:56:59.000Z</time>
      </trkpt>
      <trkpt lat="45.24095" lon="6.1575">
        <ele>2163.8000488281</ele>
        <time>2019-05-01T06:57:03.000Z</time>
      </trkpt>
      <trkpt lat="45.24096" lon="6.1575">
        <ele>2164.1999511719</ele>
        <time>2019-05-01T06:57:04.000Z</time>
      </trkpt>
      <trkpt lat="45.24099" lon="6.15751">
        <ele>2165.1999511719</ele>
        <time>2019-05-01T06:57:08.000Z</time>
      </trkpt>
      <trkpt lat="45.24101" lon="6.15752">
        <ele>2165.3999023438</ele>
        <time>2019-05-01T06:57:09.000Z</time>
      </trkpt>
      <trkpt lat="45.24103" lon="6.15753">
        <ele>2166.1999511719</ele>
        <time>2019-05-01T06:57:13.000Z</time>
      </trkpt>
      <trkpt lat="45.24105" lon="6.15755">
        <ele>2166.8000488281</ele>
        <time>2019-05-01T06:57:15.000Z</time>
      </trkpt>
      <trkpt lat="45.24107" lon="6.15755">
        <ele>2167.3999023438</ele>
        <time>2019-05-01T06:57:18.000Z</time>
      </trkpt>
      <trkpt lat="45.24109" lon="6.15756">
        <ele>2168</ele>
        <time>2019-05-01T06:57:21.000Z</time>
      </trkpt>
      <trkpt lat="45.24111" lon="6.15756">
        <ele>2168.3999023438</ele>
        <time>2019-05-01T06:57:23.000Z</time>
      </trkpt>
      <trkpt lat="45.24113" lon="6.15757">
        <ele>2169.1999511719</ele>
        <time>2019-05-01T06:57:27.000Z</time>
      </trkpt>
      <trkpt lat="45.24114" lon="6.15756">
        <ele>2169.6000976562</ele>
        <time>2019-05-01T06:57:29.000Z</time>
      </trkpt>
      <trkpt lat="45.24116" lon="6.15757">
        <ele>2170.1999511719</ele>
        <time>2019-05-01T06:57:32.000Z</time>
      </trkpt>
      <trkpt lat="45.24118" lon="6.15758">
        <ele>2170.6000976562</ele>
        <time>2019-05-01T06:57:34.000Z</time>
      </trkpt>
      <trkpt lat="45.2412" lon="6.15758">
        <ele>2171.6000976562</ele>
        <time>2019-05-01T06:57:38.000Z</time>
      </trkpt>
      <trkpt lat="45.24123" lon="6.15758">
        <ele>2172.8000488281</ele>
        <time>2019-05-01T06:57:44.000Z</time>
      </trkpt>
      <trkpt lat="45.24127" lon="6.15758">
        <ele>2173.8000488281</ele>
        <time>2019-05-01T06:57:49.000Z</time>
      </trkpt>
      <trkpt lat="45.24131" lon="6.15757">
        <ele>2174.8000488281</ele>
        <time>2019-05-01T06:57:54.000Z</time>
      </trkpt>
      <trkpt lat="45.24134" lon="6.15755">
        <ele>2176</ele>
        <time>2019-05-01T06:57:59.000Z</time>
      </trkpt>
      <trkpt lat="45.24138" lon="6.15751">
        <ele>2177</ele>
        <time>2019-05-01T06:58:03.000Z</time>
      </trkpt>
      <trkpt lat="45.24138" lon="6.15751">
        <ele>2177.1999511719</ele>
        <time>2019-05-01T06:58:04.000Z</time>
      </trkpt>
      <trkpt lat="45.24139" lon="6.15747">
        <ele>2177.6000976562</ele>
        <time>2019-05-01T06:58:06.000Z</time>
      </trkpt>
      <trkpt lat="45.2414" lon="6.15745">
        <ele>2178</ele>
        <time>2019-05-01T06:58:08.000Z</time>
      </trkpt>
      <trkpt lat="45.2414" lon="6.15744">
        <ele>2178.1999511719</ele>
        <time>2019-05-01T06:58:09.000Z</time>
      </trkpt>
      <trkpt lat="45.2414" lon="6.15741">
        <ele>2179</ele>
        <time>2019-05-01T06:58:13.000Z</time>
      </trkpt>
      <trkpt lat="45.2414" lon="6.15741">
        <ele>2179.1999511719</ele>
        <time>2019-05-01T06:58:14.000Z</time>
      </trkpt>
      <trkpt lat="45.2414" lon="6.15735">
        <ele>2179.8000488281</ele>
        <time>2019-05-01T06:58:18.000Z</time>
      </trkpt>
      <trkpt lat="45.2414" lon="6.15733">
        <ele>2180.1999511719</ele>
        <time>2019-05-01T06:58:20.000Z</time>
      </trkpt>
      <trkpt lat="45.24139" lon="6.1573">
        <ele>2180.8000488281</ele>
        <time>2019-05-01T06:58:23.000Z</time>
      </trkpt>
      <trkpt lat="45.24139" lon="6.15728">
        <ele>2181.1999511719</ele>
        <time>2019-05-01T06:58:25.000Z</time>
      </trkpt>
      <trkpt lat="45.24139" lon="6.15724">
        <ele>2182</ele>
        <time>2019-05-01T06:58:29.000Z</time>
      </trkpt>
      <trkpt lat="45.24139" lon="6.15721">
        <ele>2182.3999023438</ele>
        <time>2019-05-01T06:58:31.000Z</time>
      </trkpt>
      <trkpt lat="45.24139" lon="6.15721">
        <ele>2183</ele>
        <time>2019-05-01T06:58:34.000Z</time>
      </trkpt>
      <trkpt lat="45.24139" lon="6.15719">
        <ele>2183.3999023438</ele>
        <time>2019-05-01T06:58:37.000Z</time>
      </trkpt>
      <trkpt lat="45.24139" lon="6.15716">
        <ele>2183.8000488281</ele>
        <time>2019-05-01T06:58:39.000Z</time>
      </trkpt>
      <trkpt lat="45.24139" lon="6.15714">
        <ele>2184.6000976562</ele>
        <time>2019-05-01T06:58:42.000Z</time>
      </trkpt>
      <trkpt lat="45.24139" lon="6.15711">
        <ele>2185</ele>
        <time>2019-05-01T06:58:44.000Z</time>
      </trkpt>
      <trkpt lat="45.2414" lon="6.15707">
        <ele>2185.6000976562</ele>
        <time>2019-05-01T06:58:48.000Z</time>
      </trkpt>
      <trkpt lat="45.2414" lon="6.15707">
        <ele>2186</ele>
        <time>2019-05-01T06:58:49.000Z</time>
      </trkpt>
      <trkpt lat="45.2414" lon="6.15703">
        <ele>2186.8000488281</ele>
        <time>2019-05-01T06:58:52.000Z</time>
      </trkpt>
      <trkpt lat="45.2414" lon="6.15701">
        <ele>2187</ele>
        <time>2019-05-01T06:58:53.000Z</time>
      </trkpt>
      <trkpt lat="45.2414" lon="6.157">
        <ele>2187.3999023438</ele>
        <time>2019-05-01T06:58:55.000Z</time>
      </trkpt>
      <trkpt lat="45.24139" lon="6.15698">
        <ele>2187.8000488281</ele>
        <time>2019-05-01T06:58:57.000Z</time>
      </trkpt>
      <trkpt lat="45.24139" lon="6.15696">
        <ele>2188.3999023438</ele>
        <time>2019-05-01T06:59:00.000Z</time>
      </trkpt>
      <trkpt lat="45.24139" lon="6.15695">
        <ele>2188.8000488281</ele>
        <time>2019-05-01T06:59:02.000Z</time>
      </trkpt>
      <trkpt lat="45.24139" lon="6.15693">
        <ele>2189.8000488281</ele>
        <time>2019-05-01T06:59:07.000Z</time>
      </trkpt>
      <trkpt lat="45.24141" lon="6.15688">
        <ele>2190.8000488281</ele>
        <time>2019-05-01T06:59:12.000Z</time>
      </trkpt>
      <trkpt lat="45.24141" lon="6.15687">
        <ele>2191.1999511719</ele>
        <time>2019-05-01T06:59:13.000Z</time>
      </trkpt>
      <trkpt lat="45.24142" lon="6.15686">
        <ele>2191.8000488281</ele>
        <time>2019-05-01T06:59:16.000Z</time>
      </trkpt>
      <trkpt lat="45.24142" lon="6.15684">
        <ele>2192.1999511719</ele>
        <time>2019-05-01T06:59:18.000Z</time>
      </trkpt>
      <trkpt lat="45.24144" lon="6.15682">
        <ele>2192.8000488281</ele>
        <time>2019-05-01T06:59:20.000Z</time>
      </trkpt>
      <trkpt lat="45.24144" lon="6.1568">
        <ele>2193</ele>
        <time>2019-05-01T06:59:22.000Z</time>
      </trkpt>
      <trkpt lat="45.24144" lon="6.1568">
        <ele>2193.1999511719</ele>
        <time>2019-05-01T06:59:23.000Z</time>
      </trkpt>
      <trkpt lat="45.24144" lon="6.15679">
        <ele>2193.3999023438</ele>
        <time>2019-05-01T06:59:24.000Z</time>
      </trkpt>
      <trkpt lat="45.24146" lon="6.15678">
        <ele>2194.3999023438</ele>
        <time>2019-05-01T06:59:28.000Z</time>
      </trkpt>
      <trkpt lat="45.24147" lon="6.15677">
        <ele>2194.6000976562</ele>
        <time>2019-05-01T06:59:29.000Z</time>
      </trkpt>
      <trkpt lat="45.24149" lon="6.15674">
        <ele>2195.6000976562</ele>
        <time>2019-05-01T06:59:34.000Z</time>
      </trkpt>
      <trkpt lat="45.24152" lon="6.15673">
        <ele>2196.8000488281</ele>
        <time>2019-05-01T06:59:39.000Z</time>
      </trkpt>
      <trkpt lat="45.24155" lon="6.15673">
        <ele>2197.3999023438</ele>
        <time>2019-05-01T06:59:42.000Z</time>
      </trkpt>
      <trkpt lat="45.24156" lon="6.15673">
        <ele>2197.8000488281</ele>
        <time>2019-05-01T06:59:44.000Z</time>
      </trkpt>
      <trkpt lat="45.24157" lon="6.15673">
        <ele>2197.8000488281</ele>
        <time>2019-05-01T06:59:45.000Z</time>
      </trkpt>
      <trkpt lat="45.24159" lon="6.15674">
        <ele>2198.6000976562</ele>
        <time>2019-05-01T06:59:49.000Z</time>
      </trkpt>
      <trkpt lat="45.2416" lon="6.15673">
        <ele>2199</ele>
        <time>2019-05-01T06:59:51.000Z</time>
      </trkpt>
      <trkpt lat="45.24161" lon="6.15672">
        <ele>2199.6000976562</ele>
        <time>2019-05-01T06:59:54.000Z</time>
      </trkpt>
      <trkpt lat="45.24164" lon="6.15674">
        <ele>2200.1999511719</ele>
        <time>2019-05-01T06:59:57.000Z</time>
      </trkpt>
      <trkpt lat="45.24165" lon="6.15674">
        <ele>2200.6000976562</ele>
        <time>2019-05-01T06:59:59.000Z</time>
      </trkpt>
      <trkpt lat="45.24168" lon="6.15674">
        <ele>2201.1999511719</ele>
        <time>2019-05-01T07:00:01.000Z</time>
      </trkpt>
      <trkpt lat="45.2417" lon="6.15674">
        <ele>2202</ele>
        <time>2019-05-01T07:00:05.000Z</time>
      </trkpt>
      <trkpt lat="45.24171" lon="6.15674">
        <ele>2202.1999511719</ele>
        <time>2019-05-01T07:00:06.000Z</time>
      </trkpt>
      <trkpt lat="45.24172" lon="6.15674">
        <ele>2202.6000976562</ele>
        <time>2019-05-01T07:00:09.000Z</time>
      </trkpt>
      <trkpt lat="45.24176" lon="6.15674">
        <ele>2203.1999511719</ele>
        <time>2019-05-01T07:00:13.000Z</time>
      </trkpt>
      <trkpt lat="45.24176" lon="6.15675">
        <ele>2203.3999023438</ele>
        <time>2019-05-01T07:00:14.000Z</time>
      </trkpt>
      <trkpt lat="45.24179" lon="6.15675">
        <ele>2204.3999023438</ele>
        <time>2019-05-01T07:00:19.000Z</time>
      </trkpt>
      <trkpt lat="45.24182" lon="6.15674">
        <ele>2205.3999023438</ele>
        <time>2019-05-01T07:00:24.000Z</time>
      </trkpt>
      <trkpt lat="45.24184" lon="6.15674">
        <ele>2205.8000488281</ele>
        <time>2019-05-01T07:00:25.000Z</time>
      </trkpt>
      <trkpt lat="45.24184" lon="6.15673">
        <ele>2206</ele>
        <time>2019-05-01T07:00:26.000Z</time>
      </trkpt>
      <trkpt lat="45.24186" lon="6.15672">
        <ele>2206.1999511719</ele>
        <time>2019-05-01T07:00:29.000Z</time>
      </trkpt>
      <trkpt lat="45.24189" lon="6.1567">
        <ele>2206.8000488281</ele>
        <time>2019-05-01T07:00:32.000Z</time>
      </trkpt>
      <trkpt lat="45.24189" lon="6.1567">
        <ele>2207</ele>
        <time>2019-05-01T07:00:34.000Z</time>
      </trkpt>
      <trkpt lat="45.24193" lon="6.15667">
        <ele>2207.6000976562</ele>
        <time>2019-05-01T07:00:39.000Z</time>
      </trkpt>
      <trkpt lat="45.24193" lon="6.15665">
        <ele>2207.8000488281</ele>
        <time>2019-05-01T07:00:41.000Z</time>
      </trkpt>
      <trkpt lat="45.24194" lon="6.15664">
        <ele>2208</ele>
        <time>2019-05-01T07:00:42.000Z</time>
      </trkpt>
      <trkpt lat="45.24193" lon="6.15664">
        <ele>2208.3999023438</ele>
        <time>2019-05-01T07:00:45.000Z</time>
      </trkpt>
      <trkpt lat="45.24193" lon="6.15663">
        <ele>2209</ele>
        <time>2019-05-01T07:00:47.000Z</time>
      </trkpt>
      <trkpt lat="45.24193" lon="6.15662">
        <ele>2209.3999023438</ele>
        <time>2019-05-01T07:00:49.000Z</time>
      </trkpt>
      <trkpt lat="45.24192" lon="6.1566">
        <ele>2209.8000488281</ele>
        <time>2019-05-01T07:00:51.000Z</time>
      </trkpt>
      <trkpt lat="45.24192" lon="6.1566">
        <ele>2210</ele>
        <time>2019-05-01T07:00:52.000Z</time>
      </trkpt>
      <trkpt lat="45.2419" lon="6.15659">
        <ele>2210.3999023438</ele>
        <time>2019-05-01T07:00:54.000Z</time>
      </trkpt>
      <trkpt lat="45.24188" lon="6.15656">
        <ele>2211</ele>
        <time>2019-05-01T07:00:57.000Z</time>
      </trkpt>
      <trkpt lat="45.24187" lon="6.15656">
        <ele>2211.3999023438</ele>
        <time>2019-05-01T07:00:59.000Z</time>
      </trkpt>
      <trkpt lat="45.24183" lon="6.15653">
        <ele>2212.1999511719</ele>
        <time>2019-05-01T07:01:04.000Z</time>
      </trkpt>
      <trkpt lat="45.24183" lon="6.15653">
        <ele>2212.3999023438</ele>
        <time>2019-05-01T07:01:05.000Z</time>
      </trkpt>
      <trkpt lat="45.24181" lon="6.1565">
        <ele>2213.3999023438</ele>
        <time>2019-05-01T07:01:10.000Z</time>
      </trkpt>
      <trkpt lat="45.2418" lon="6.15649">
        <ele>2213.8000488281</ele>
        <time>2019-05-01T07:01:12.000Z</time>
      </trkpt>
      <trkpt lat="45.2418" lon="6.15648">
        <ele>2214.3999023438</ele>
        <time>2019-05-01T07:01:15.000Z</time>
      </trkpt>
      <trkpt lat="45.2418" lon="6.15648">
        <ele>2214.8000488281</ele>
        <time>2019-05-01T07:01:19.000Z</time>
      </trkpt>
      <trkpt lat="45.2418" lon="6.15648">
        <ele>2215.1999511719</ele>
        <time>2019-05-01T07:01:37.000Z</time>
      </trkpt>
      <trkpt lat="45.24179" lon="6.15646">
        <ele>2215.1999511719</ele>
        <time>2019-05-01T07:01:55.000Z</time>
      </trkpt>
      <trkpt lat="45.24178" lon="6.15641">
        <ele>2215.3999023438</ele>
        <time>2019-05-01T07:02:00.000Z</time>
      </trkpt>
      <trkpt lat="45.24178" lon="6.1564">
        <ele>2216</ele>
        <time>2019-05-01T07:02:02.000Z</time>
      </trkpt>
      <trkpt lat="45.24178" lon="6.15637">
        <ele>2216.1999511719</ele>
        <time>2019-05-01T07:02:03.000Z</time>
      </trkpt>
      <trkpt lat="45.24178" lon="6.15635">
        <ele>2216.6000976562</ele>
        <time>2019-05-01T07:02:04.000Z</time>
      </trkpt>
      <trkpt lat="45.24177" lon="6.15634">
        <ele>2217</ele>
        <time>2019-05-01T07:02:06.000Z</time>
      </trkpt>
      <trkpt lat="45.24177" lon="6.15632">
        <ele>2217.6000976562</ele>
        <time>2019-05-01T07:02:08.000Z</time>
      </trkpt>
      <trkpt lat="45.24177" lon="6.15626">
        <ele>2218.6000976562</ele>
        <time>2019-05-01T07:02:12.000Z</time>
      </trkpt>
      <trkpt lat="45.24177" lon="6.15624">
        <ele>2219</ele>
        <time>2019-05-01T07:02:13.000Z</time>
      </trkpt>
      <trkpt lat="45.24177" lon="6.15621">
        <ele>2220</ele>
        <time>2019-05-01T07:02:17.000Z</time>
      </trkpt>
      <trkpt lat="45.24176" lon="6.15619">
        <ele>2220.1999511719</ele>
        <time>2019-05-01T07:02:18.000Z</time>
      </trkpt>
      <trkpt lat="45.24176" lon="6.15618">
        <ele>2220.6000976562</ele>
        <time>2019-05-01T07:02:19.000Z</time>
      </trkpt>
      <trkpt lat="45.24175" lon="6.15617">
        <ele>2221</ele>
        <time>2019-05-01T07:02:21.000Z</time>
      </trkpt>
      <trkpt lat="45.24174" lon="6.15614">
        <ele>2221.8000488281</ele>
        <time>2019-05-01T07:02:24.000Z</time>
      </trkpt>
      <trkpt lat="45.24173" lon="6.15611">
        <ele>2222.6000976562</ele>
        <time>2019-05-01T07:02:26.000Z</time>
      </trkpt>
      <trkpt lat="45.24172" lon="6.15608">
        <ele>2223.6000976562</ele>
        <time>2019-05-01T07:02:31.000Z</time>
      </trkpt>
      <trkpt lat="45.24172" lon="6.15603">
        <ele>2224.6000976562</ele>
        <time>2019-05-01T07:02:36.000Z</time>
      </trkpt>
      <trkpt lat="45.24171" lon="6.15599">
        <ele>2225.8000488281</ele>
        <time>2019-05-01T07:02:41.000Z</time>
      </trkpt>
      <trkpt lat="45.24171" lon="6.15595">
        <ele>2226.8000488281</ele>
        <time>2019-05-01T07:02:46.000Z</time>
      </trkpt>
      <trkpt lat="45.24171" lon="6.15593">
        <ele>2227</ele>
        <time>2019-05-01T07:02:47.000Z</time>
      </trkpt>
      <trkpt lat="45.24171" lon="6.15589">
        <ele>2227.8000488281</ele>
        <time>2019-05-01T07:02:50.000Z</time>
      </trkpt>
      <trkpt lat="45.2417" lon="6.15587">
        <ele>2228.6000976562</ele>
        <time>2019-05-01T07:02:53.000Z</time>
      </trkpt>
      <trkpt lat="45.24171" lon="6.15585">
        <ele>2229</ele>
        <time>2019-05-01T07:02:55.000Z</time>
      </trkpt>
      <trkpt lat="45.24171" lon="6.15584">
        <ele>2229.3999023438</ele>
        <time>2019-05-01T07:02:57.000Z</time>
      </trkpt>
      <trkpt lat="45.2417" lon="6.15579">
        <ele>2230.1999511719</ele>
        <time>2019-05-01T07:03:01.000Z</time>
      </trkpt>
      <trkpt lat="45.2417" lon="6.15578">
        <ele>2230.3999023438</ele>
        <time>2019-05-01T07:03:02.000Z</time>
      </trkpt>
      <trkpt lat="45.2417" lon="6.15577">
        <ele>2231.1999511719</ele>
        <time>2019-05-01T07:03:06.000Z</time>
      </trkpt>
      <trkpt lat="45.2417" lon="6.15573">
        <ele>2232.3999023438</ele>
        <time>2019-05-01T07:03:11.000Z</time>
      </trkpt>
      <trkpt lat="45.2417" lon="6.15571">
        <ele>2233.1999511719</ele>
        <time>2019-05-01T07:03:15.000Z</time>
      </trkpt>
      <trkpt lat="45.2417" lon="6.15571">
        <ele>2233.3999023438</ele>
        <time>2019-05-01T07:03:16.000Z</time>
      </trkpt>
      <trkpt lat="45.2417" lon="6.15568">
        <ele>2234</ele>
        <time>2019-05-01T07:03:20.000Z</time>
      </trkpt>
      <trkpt lat="45.24171" lon="6.15567">
        <ele>2234.3999023438</ele>
        <time>2019-05-01T07:03:22.000Z</time>
      </trkpt>
      <trkpt lat="45.24172" lon="6.15566">
        <ele>2235</ele>
        <time>2019-05-01T07:03:25.000Z</time>
      </trkpt>
      <trkpt lat="45.24174" lon="6.15566">
        <ele>2235.6000976562</ele>
        <time>2019-05-01T07:03:27.000Z</time>
      </trkpt>
      <trkpt lat="45.24175" lon="6.15566">
        <ele>2235.8000488281</ele>
        <time>2019-05-01T07:03:28.000Z</time>
      </trkpt>
      <trkpt lat="45.24177" lon="6.15566">
        <ele>2236.3999023438</ele>
        <time>2019-05-01T07:03:31.000Z</time>
      </trkpt>
      <trkpt lat="45.24178" lon="6.15566">
        <ele>2236.6000976562</ele>
        <time>2019-05-01T07:03:33.000Z</time>
      </trkpt>
      <trkpt lat="45.24181" lon="6.15567">
        <ele>2237.6000976562</ele>
        <time>2019-05-01T07:03:38.000Z</time>
      </trkpt>
      <trkpt lat="45.24181" lon="6.15567">
        <ele>2237.8000488281</ele>
        <time>2019-05-01T07:03:39.000Z</time>
      </trkpt>
      <trkpt lat="45.24185" lon="6.15568">
        <ele>2238.8000488281</ele>
        <time>2019-05-01T07:03:45.000Z</time>
      </trkpt>
      <trkpt lat="45.24186" lon="6.15568">
        <ele>2238.8000488281</ele>
        <time>2019-05-01T07:03:46.000Z</time>
      </trkpt>
      <trkpt lat="45.24191" lon="6.15569">
        <ele>2239.6000976562</ele>
        <time>2019-05-01T07:03:51.000Z</time>
      </trkpt>
      <trkpt lat="45.24193" lon="6.1557">
        <ele>2240</ele>
        <time>2019-05-01T07:03:53.000Z</time>
      </trkpt>
      <trkpt lat="45.24195" lon="6.1557">
        <ele>2240.3999023438</ele>
        <time>2019-05-01T07:03:56.000Z</time>
      </trkpt>
      <trkpt lat="45.242" lon="6.15571">
        <ele>2241</ele>
        <time>2019-05-01T07:04:01.000Z</time>
      </trkpt>
      <trkpt lat="45.24203" lon="6.15572">
        <ele>2241.8000488281</ele>
        <time>2019-05-01T07:04:07.000Z</time>
      </trkpt>
      <trkpt lat="45.24203" lon="6.15572">
        <ele>2242.1999511719</ele>
        <time>2019-05-01T07:04:09.000Z</time>
      </trkpt>
      <trkpt lat="45.24203" lon="6.1557">
        <ele>2242.6000976562</ele>
        <time>2019-05-01T07:04:12.000Z</time>
      </trkpt>
      <trkpt lat="45.24203" lon="6.15569">
        <ele>2242.8000488281</ele>
        <time>2019-05-01T07:04:13.000Z</time>
      </trkpt>
      <trkpt lat="45.24202" lon="6.15568">
        <ele>2243.3999023438</ele>
        <time>2019-05-01T07:04:15.000Z</time>
      </trkpt>
      <trkpt lat="45.24201" lon="6.15566">
        <ele>2243.8000488281</ele>
        <time>2019-05-01T07:04:17.000Z</time>
      </trkpt>
      <trkpt lat="45.242" lon="6.15562">
        <ele>2244.3999023438</ele>
        <time>2019-05-01T07:04:21.000Z</time>
      </trkpt>
      <trkpt lat="45.24199" lon="6.15561">
        <ele>2244.6000976562</ele>
        <time>2019-05-01T07:04:22.000Z</time>
      </trkpt>
      <trkpt lat="45.24197" lon="6.15558">
        <ele>2245.6000976562</ele>
        <time>2019-05-01T07:04:27.000Z</time>
      </trkpt>
      <trkpt lat="45.24197" lon="6.15556">
        <ele>2245.8000488281</ele>
        <time>2019-05-01T07:04:28.000Z</time>
      </trkpt>
      <trkpt lat="45.24196" lon="6.15552">
        <ele>2246.8000488281</ele>
        <time>2019-05-01T07:04:33.000Z</time>
      </trkpt>
      <trkpt lat="45.24196" lon="6.15551">
        <ele>2246.8000488281</ele>
        <time>2019-05-01T07:04:34.000Z</time>
      </trkpt>
      <trkpt lat="45.24194" lon="6.15548">
        <ele>2247.6000976562</ele>
        <time>2019-05-01T07:04:39.000Z</time>
      </trkpt>
      <trkpt lat="45.24194" lon="6.15546">
        <ele>2247.8000488281</ele>
        <time>2019-05-01T07:04:40.000Z</time>
      </trkpt>
      <trkpt lat="45.24193" lon="6.15541">
        <ele>2248.6000976562</ele>
        <time>2019-05-01T07:04:44.000Z</time>
      </trkpt>
      <trkpt lat="45.24193" lon="6.15539">
        <ele>2249</ele>
        <time>2019-05-01T07:04:46.000Z</time>
      </trkpt>
      <trkpt lat="45.24193" lon="6.15536">
        <ele>2249.6000976562</ele>
        <time>2019-05-01T07:04:49.000Z</time>
      </trkpt>
      <trkpt lat="45.24193" lon="6.15534">
        <ele>2250</ele>
        <time>2019-05-01T07:04:51.000Z</time>
      </trkpt>
      <trkpt lat="45.24192" lon="6.15532">
        <ele>2250.6000976562</ele>
        <time>2019-05-01T07:04:54.000Z</time>
      </trkpt>
      <trkpt lat="45.24194" lon="6.15531">
        <ele>2251.1999511719</ele>
        <time>2019-05-01T07:04:58.000Z</time>
      </trkpt>
      <trkpt lat="45.24195" lon="6.15531">
        <ele>2251.8000488281</ele>
        <time>2019-05-01T07:05:00.000Z</time>
      </trkpt>
      <trkpt lat="45.24196" lon="6.15532">
        <ele>2252.3999023438</ele>
        <time>2019-05-01T07:05:03.000Z</time>
      </trkpt>
      <trkpt lat="45.24198" lon="6.15532">
        <ele>2253</ele>
        <time>2019-05-01T07:05:06.000Z</time>
      </trkpt>
      <trkpt lat="45.24201" lon="6.15532">
        <ele>2253.3999023438</ele>
        <time>2019-05-01T07:05:09.000Z</time>
      </trkpt>
      <trkpt lat="45.24203" lon="6.15533">
        <ele>2254</ele>
        <time>2019-05-01T07:05:12.000Z</time>
      </trkpt>
      <trkpt lat="45.24204" lon="6.15533">
        <ele>2254.6000976562</ele>
        <time>2019-05-01T07:05:14.000Z</time>
      </trkpt>
      <trkpt lat="45.24207" lon="6.15534">
        <ele>2255</ele>
        <time>2019-05-01T07:05:17.000Z</time>
      </trkpt>
      <trkpt lat="45.24209" lon="6.15534">
        <ele>2255.6000976562</ele>
        <time>2019-05-01T07:05:20.000Z</time>
      </trkpt>
      <trkpt lat="45.24211" lon="6.15535">
        <ele>2256</ele>
        <time>2019-05-01T07:05:23.000Z</time>
      </trkpt>
      <trkpt lat="45.24212" lon="6.15535">
        <ele>2256.6000976562</ele>
        <time>2019-05-01T07:05:26.000Z</time>
      </trkpt>
      <trkpt lat="45.24212" lon="6.15535">
        <ele>2256.6000976562</ele>
        <time>2019-05-01T07:05:27.000Z</time>
      </trkpt>
      <trkpt lat="45.24213" lon="6.15535">
        <ele>2257</ele>
        <time>2019-05-01T07:05:29.000Z</time>
      </trkpt>
      <trkpt lat="45.24216" lon="6.15537">
        <ele>2257.8000488281</ele>
        <time>2019-05-01T07:05:33.000Z</time>
      </trkpt>
      <trkpt lat="45.24217" lon="6.15537">
        <ele>2258</ele>
        <time>2019-05-01T07:05:35.000Z</time>
      </trkpt>
      <trkpt lat="45.2422" lon="6.15538">
        <ele>2258.8000488281</ele>
        <time>2019-05-01T07:05:39.000Z</time>
      </trkpt>
      <trkpt lat="45.24221" lon="6.15538">
        <ele>2259</ele>
        <time>2019-05-01T07:05:41.000Z</time>
      </trkpt>
      <trkpt lat="45.24221" lon="6.15535">
        <ele>2259.8000488281</ele>
        <time>2019-05-01T07:05:45.000Z</time>
      </trkpt>
      <trkpt lat="45.24221" lon="6.15534">
        <ele>2260.1999511719</ele>
        <time>2019-05-01T07:05:46.000Z</time>
      </trkpt>
      <trkpt lat="45.24221" lon="6.15533">
        <ele>2260.3999023438</ele>
        <time>2019-05-01T07:05:47.000Z</time>
      </trkpt>
      <trkpt lat="45.24221" lon="6.15531">
        <ele>2261</ele>
        <time>2019-05-01T07:05:49.000Z</time>
      </trkpt>
      <trkpt lat="45.24221" lon="6.15529">
        <ele>2261.1999511719</ele>
        <time>2019-05-01T07:05:51.000Z</time>
      </trkpt>
      <trkpt lat="45.2422" lon="6.15523">
        <ele>2262</ele>
        <time>2019-05-01T07:05:55.000Z</time>
      </trkpt>
      <trkpt lat="45.2422" lon="6.15521">
        <ele>2262.1999511719</ele>
        <time>2019-05-01T07:05:57.000Z</time>
      </trkpt>
      <trkpt lat="45.2422" lon="6.15517">
        <ele>2263</ele>
        <time>2019-05-01T07:06:02.000Z</time>
      </trkpt>
      <trkpt lat="45.2422" lon="6.15511">
        <ele>2263.6000976562</ele>
        <time>2019-05-01T07:06:07.000Z</time>
      </trkpt>
      <trkpt lat="45.24219" lon="6.15508">
        <ele>2264</ele>
        <time>2019-05-01T07:06:10.000Z</time>
      </trkpt>
      <trkpt lat="45.24219" lon="6.15507">
        <ele>2264</ele>
        <time>2019-05-01T07:06:11.000Z</time>
      </trkpt>
      <trkpt lat="45.24219" lon="6.15502">
        <ele>2264.8000488281</ele>
        <time>2019-05-01T07:06:16.000Z</time>
      </trkpt>
      <trkpt lat="45.2422" lon="6.155">
        <ele>2265</ele>
        <time>2019-05-01T07:06:18.000Z</time>
      </trkpt>
      <trkpt lat="45.24222" lon="6.15497">
        <ele>2265.3999023438</ele>
        <time>2019-05-01T07:06:21.000Z</time>
      </trkpt>
      <trkpt lat="45.24224" lon="6.15494">
        <ele>2266.1999511719</ele>
        <time>2019-05-01T07:06:25.000Z</time>
      </trkpt>
      <trkpt lat="45.24225" lon="6.15492">
        <ele>2266.6000976562</ele>
        <time>2019-05-01T07:06:27.000Z</time>
      </trkpt>
      <trkpt lat="45.24226" lon="6.1549">
        <ele>2267.1999511719</ele>
        <time>2019-05-01T07:06:29.000Z</time>
      </trkpt>
      <trkpt lat="45.24228" lon="6.15488">
        <ele>2267.8000488281</ele>
        <time>2019-05-01T07:06:32.000Z</time>
      </trkpt>
      <trkpt lat="45.2423" lon="6.15486">
        <ele>2268</ele>
        <time>2019-05-01T07:06:35.000Z</time>
      </trkpt>
      <trkpt lat="45.2423" lon="6.15485">
        <ele>2268.1999511719</ele>
        <time>2019-05-01T07:06:36.000Z</time>
      </trkpt>
      <trkpt lat="45.24231" lon="6.15485">
        <ele>2268.3999023438</ele>
        <time>2019-05-01T07:06:37.000Z</time>
      </trkpt>
      <trkpt lat="45.24234" lon="6.15481">
        <ele>2269.3999023438</ele>
        <time>2019-05-01T07:06:42.000Z</time>
      </trkpt>
      <trkpt lat="45.24237" lon="6.15478">
        <ele>2270</ele>
        <time>2019-05-01T07:06:46.000Z</time>
      </trkpt>
      <trkpt lat="45.24238" lon="6.15476">
        <ele>2270.3999023438</ele>
        <time>2019-05-01T07:06:48.000Z</time>
      </trkpt>
      <trkpt lat="45.24239" lon="6.15475">
        <ele>2270.8000488281</ele>
        <time>2019-05-01T07:06:50.000Z</time>
      </trkpt>
      <trkpt lat="45.24242" lon="6.15471">
        <ele>2271.3999023438</ele>
        <time>2019-05-01T07:06:54.000Z</time>
      </trkpt>
      <trkpt lat="45.24242" lon="6.15471">
        <ele>2271.3999023438</ele>
        <time>2019-05-01T07:06:55.000Z</time>
      </trkpt>
      <trkpt lat="45.24242" lon="6.1547">
        <ele>2272</ele>
        <time>2019-05-01T07:07:00.000Z</time>
      </trkpt>
      <trkpt lat="45.24242" lon="6.1547">
        <ele>2272.3999023438</ele>
        <time>2019-05-01T07:07:14.000Z</time>
      </trkpt>
      <trkpt lat="45.24242" lon="6.1547">
        <ele>2272.3999023438</ele>
        <time>2019-05-01T07:07:17.000Z</time>
      </trkpt>
      <trkpt lat="45.24244" lon="6.15467">
        <ele>2272.3999023438</ele>
        <time>2019-05-01T07:07:22.000Z</time>
      </trkpt>
      <trkpt lat="45.24247" lon="6.15463">
        <ele>2272.8000488281</ele>
        <time>2019-05-01T07:07:26.000Z</time>
      </trkpt>
      <trkpt lat="45.24249" lon="6.1546">
        <ele>2273.3999023438</ele>
        <time>2019-05-01T07:07:29.000Z</time>
      </trkpt>
      <trkpt lat="45.2425" lon="6.15459">
        <ele>2273.8000488281</ele>
        <time>2019-05-01T07:07:31.000Z</time>
      </trkpt>
      <trkpt lat="45.24251" lon="6.15456">
        <ele>2274.3999023438</ele>
        <time>2019-05-01T07:07:34.000Z</time>
      </trkpt>
      <trkpt lat="45.24252" lon="6.15455">
        <ele>2275</ele>
        <time>2019-05-01T07:07:36.000Z</time>
      </trkpt>
      <trkpt lat="45.24253" lon="6.15453">
        <ele>2275.8000488281</ele>
        <time>2019-05-01T07:07:38.000Z</time>
      </trkpt>
      <trkpt lat="45.24254" lon="6.1545">
        <ele>2276.6000976562</ele>
        <time>2019-05-01T07:07:41.000Z</time>
      </trkpt>
      <trkpt lat="45.24254" lon="6.15449">
        <ele>2277</ele>
        <time>2019-05-01T07:07:42.000Z</time>
      </trkpt>
      <trkpt lat="45.24256" lon="6.15446">
        <ele>2278</ele>
        <time>2019-05-01T07:07:46.000Z</time>
      </trkpt>
      <trkpt lat="45.24256" lon="6.15443">
        <ele>2279</ele>
        <time>2019-05-01T07:07:50.000Z</time>
      </trkpt>
      <trkpt lat="45.24257" lon="6.15441">
        <ele>2279.1999511719</ele>
        <time>2019-05-01T07:07:51.000Z</time>
      </trkpt>
      <trkpt lat="45.24258" lon="6.1544">
        <ele>2280</ele>
        <time>2019-05-01T07:07:54.000Z</time>
      </trkpt>
      <trkpt lat="45.24258" lon="6.15439">
        <ele>2280.3999023438</ele>
        <time>2019-05-01T07:07:56.000Z</time>
      </trkpt>
      <trkpt lat="45.2426" lon="6.15436">
        <ele>2281.1999511719</ele>
        <time>2019-05-01T07:07:59.000Z</time>
      </trkpt>
      <trkpt lat="45.2426" lon="6.15434">
        <ele>2281.6000976562</ele>
        <time>2019-05-01T07:08:01.000Z</time>
      </trkpt>
      <trkpt lat="45.24261" lon="6.15434">
        <ele>2282.3999023438</ele>
        <time>2019-05-01T07:08:03.000Z</time>
      </trkpt>
      <trkpt lat="45.24262" lon="6.15432">
        <ele>2283</ele>
        <time>2019-05-01T07:08:05.000Z</time>
      </trkpt>
      <trkpt lat="45.24264" lon="6.15431">
        <ele>2283.6000976562</ele>
        <time>2019-05-01T07:08:08.000Z</time>
      </trkpt>
      <trkpt lat="45.24264" lon="6.1543">
        <ele>2284.1999511719</ele>
        <time>2019-05-01T07:08:10.000Z</time>
      </trkpt>
      <trkpt lat="45.24266" lon="6.15428">
        <ele>2284.6000976562</ele>
        <time>2019-05-01T07:08:12.000Z</time>
      </trkpt>
      <trkpt lat="45.24268" lon="6.15427">
        <ele>2285</ele>
        <time>2019-05-01T07:08:14.000Z</time>
      </trkpt>
      <trkpt lat="45.24268" lon="6.15427">
        <ele>2285.1999511719</ele>
        <time>2019-05-01T07:08:15.000Z</time>
      </trkpt>
      <trkpt lat="45.2427" lon="6.15427">
        <ele>2285.3999023438</ele>
        <time>2019-05-01T07:08:17.000Z</time>
      </trkpt>
      <trkpt lat="45.24272" lon="6.15425">
        <ele>2286.1999511719</ele>
        <time>2019-05-01T07:08:21.000Z</time>
      </trkpt>
      <trkpt lat="45.24272" lon="6.15424">
        <ele>2286.3999023438</ele>
        <time>2019-05-01T07:08:22.000Z</time>
      </trkpt>
      <trkpt lat="45.24276" lon="6.15423">
        <ele>2287.3999023438</ele>
        <time>2019-05-01T07:08:27.000Z</time>
      </trkpt>
      <trkpt lat="45.24278" lon="6.15422">
        <ele>2288.1999511719</ele>
        <time>2019-05-01T07:08:31.000Z</time>
      </trkpt>
      <trkpt lat="45.24278" lon="6.15422">
        <ele>2288.6000976562</ele>
        <time>2019-05-01T07:08:33.000Z</time>
      </trkpt>
      <trkpt lat="45.2428" lon="6.15421">
        <ele>2288.8000488281</ele>
        <time>2019-05-01T07:08:36.000Z</time>
      </trkpt>
      <trkpt lat="45.24284" lon="6.15419">
        <ele>2289.1999511719</ele>
        <time>2019-05-01T07:08:40.000Z</time>
      </trkpt>
      <trkpt lat="45.24285" lon="6.15418">
        <ele>2289.6000976562</ele>
        <time>2019-05-01T07:08:42.000Z</time>
      </trkpt>
      <trkpt lat="45.24287" lon="6.15417">
        <ele>2290.1999511719</ele>
        <time>2019-05-01T07:08:44.000Z</time>
      </trkpt>
      <trkpt lat="45.24289" lon="6.15415">
        <ele>2290.8000488281</ele>
        <time>2019-05-01T07:08:47.000Z</time>
      </trkpt>
      <trkpt lat="45.2429" lon="6.15414">
        <ele>2291.1999511719</ele>
        <time>2019-05-01T07:08:49.000Z</time>
      </trkpt>
      <trkpt lat="45.24291" lon="6.15414">
        <ele>2292</ele>
        <time>2019-05-01T07:08:51.000Z</time>
      </trkpt>
      <trkpt lat="45.24293" lon="6.15411">
        <ele>2292.6000976562</ele>
        <time>2019-05-01T07:08:54.000Z</time>
      </trkpt>
      <trkpt lat="45.24294" lon="6.1541">
        <ele>2293</ele>
        <time>2019-05-01T07:08:56.000Z</time>
      </trkpt>
      <trkpt lat="45.24295" lon="6.15409">
        <ele>2293.3999023438</ele>
        <time>2019-05-01T07:08:58.000Z</time>
      </trkpt>
      <trkpt lat="45.24296" lon="6.15407">
        <ele>2294.1999511719</ele>
        <time>2019-05-01T07:09:01.000Z</time>
      </trkpt>
      <trkpt lat="45.24297" lon="6.15405">
        <ele>2294.8000488281</ele>
        <time>2019-05-01T07:09:04.000Z</time>
      </trkpt>
      <trkpt lat="45.24298" lon="6.15404">
        <ele>2295.1999511719</ele>
        <time>2019-05-01T07:09:06.000Z</time>
      </trkpt>
      <trkpt lat="45.24298" lon="6.15402">
        <ele>2295.8000488281</ele>
        <time>2019-05-01T07:09:08.000Z</time>
      </trkpt>
      <trkpt lat="45.24299" lon="6.15402">
        <ele>2296.3999023438</ele>
        <time>2019-05-01T07:09:11.000Z</time>
      </trkpt>
      <trkpt lat="45.24299" lon="6.15401">
        <ele>2296.6000976562</ele>
        <time>2019-05-01T07:09:12.000Z</time>
      </trkpt>
      <trkpt lat="45.243" lon="6.154">
        <ele>2297.3999023438</ele>
        <time>2019-05-01T07:09:16.000Z</time>
      </trkpt>
      <trkpt lat="45.24302" lon="6.15396">
        <ele>2298.6000976562</ele>
        <time>2019-05-01T07:09:22.000Z</time>
      </trkpt>
      <trkpt lat="45.24304" lon="6.15394">
        <ele>2299.1999511719</ele>
        <time>2019-05-01T07:09:34.000Z</time>
      </trkpt>
      <trkpt lat="45.24305" lon="6.15391">
        <ele>2299.6000976562</ele>
        <time>2019-05-01T07:09:37.000Z</time>
      </trkpt>
      <trkpt lat="45.24306" lon="6.15389">
        <ele>2300</ele>
        <time>2019-05-01T07:09:38.000Z</time>
      </trkpt>
      <trkpt lat="45.24307" lon="6.15388">
        <ele>2300.6000976562</ele>
        <time>2019-05-01T07:09:41.000Z</time>
      </trkpt>
      <trkpt lat="45.24307" lon="6.15387">
        <ele>2300.8000488281</ele>
        <time>2019-05-01T07:09:42.000Z</time>
      </trkpt>
      <trkpt lat="45.2431" lon="6.15382">
        <ele>2301.8000488281</ele>
        <time>2019-05-01T07:09:47.000Z</time>
      </trkpt>
      <trkpt lat="45.24312" lon="6.15378">
        <ele>2302.6000976562</ele>
        <time>2019-05-01T07:09:52.000Z</time>
      </trkpt>
      <trkpt lat="45.24312" lon="6.15378">
        <ele>2302.8000488281</ele>
        <time>2019-05-01T07:09:53.000Z</time>
      </trkpt>
      <trkpt lat="45.24313" lon="6.15375">
        <ele>2303.6000976562</ele>
        <time>2019-05-01T07:09:57.000Z</time>
      </trkpt>
      <trkpt lat="45.24314" lon="6.15374">
        <ele>2304</ele>
        <time>2019-05-01T07:09:59.000Z</time>
      </trkpt>
      <trkpt lat="45.24314" lon="6.15373">
        <ele>2304.6000976562</ele>
        <time>2019-05-01T07:10:03.000Z</time>
      </trkpt>
      <trkpt lat="45.24316" lon="6.15368">
        <ele>2305.1999511719</ele>
        <time>2019-05-01T07:10:07.000Z</time>
      </trkpt>
      <trkpt lat="45.24317" lon="6.15366">
        <ele>2306</ele>
        <time>2019-05-01T07:10:11.000Z</time>
      </trkpt>
      <trkpt lat="45.24318" lon="6.15365">
        <ele>2306.1999511719</ele>
        <time>2019-05-01T07:10:12.000Z</time>
      </trkpt>
      <trkpt lat="45.24318" lon="6.15362">
        <ele>2306.8000488281</ele>
        <time>2019-05-01T07:10:15.000Z</time>
      </trkpt>
      <trkpt lat="45.24318" lon="6.1536">
        <ele>2307.1999511719</ele>
        <time>2019-05-01T07:10:17.000Z</time>
      </trkpt>
      <trkpt lat="45.24319" lon="6.15359">
        <ele>2307.6000976562</ele>
        <time>2019-05-01T07:10:19.000Z</time>
      </trkpt>
      <trkpt lat="45.24319" lon="6.15357">
        <ele>2308.1999511719</ele>
        <time>2019-05-01T07:10:23.000Z</time>
      </trkpt>
      <trkpt lat="45.24319" lon="6.15356">
        <ele>2308.6000976562</ele>
        <time>2019-05-01T07:10:24.000Z</time>
      </trkpt>
      <trkpt lat="45.2432" lon="6.15353">
        <ele>2309.3999023438</ele>
        <time>2019-05-01T07:10:28.000Z</time>
      </trkpt>
      <trkpt lat="45.24321" lon="6.15352">
        <ele>2309.6000976562</ele>
        <time>2019-05-01T07:10:29.000Z</time>
      </trkpt>
      <trkpt lat="45.24321" lon="6.1535">
        <ele>2310.1999511719</ele>
        <time>2019-05-01T07:10:32.000Z</time>
      </trkpt>
      <trkpt lat="45.24322" lon="6.15349">
        <ele>2310.3999023438</ele>
        <time>2019-05-01T07:10:34.000Z</time>
      </trkpt>
      <trkpt lat="45.24323" lon="6.15345">
        <ele>2311</ele>
        <time>2019-05-01T07:10:37.000Z</time>
      </trkpt>
      <trkpt lat="45.24324" lon="6.15343">
        <ele>2311.6000976562</ele>
        <time>2019-05-01T07:10:40.000Z</time>
      </trkpt>
      <trkpt lat="45.24325" lon="6.1534">
        <ele>2312.6000976562</ele>
        <time>2019-05-01T07:10:45.000Z</time>
      </trkpt>
      <trkpt lat="45.24327" lon="6.15334">
        <ele>2313.3999023438</ele>
        <time>2019-05-01T07:10:49.000Z</time>
      </trkpt>
      <trkpt lat="45.24328" lon="6.15332">
        <ele>2313.6000976562</ele>
        <time>2019-05-01T07:10:50.000Z</time>
      </trkpt>
      <trkpt lat="45.24328" lon="6.15331">
        <ele>2314</ele>
        <time>2019-05-01T07:10:52.000Z</time>
      </trkpt>
      <trkpt lat="45.24328" lon="6.15327">
        <ele>2314.8000488281</ele>
        <time>2019-05-01T07:10:57.000Z</time>
      </trkpt>
      <trkpt lat="45.24328" lon="6.15325">
        <ele>2315.6000976562</ele>
        <time>2019-05-01T07:11:01.000Z</time>
      </trkpt>
      <trkpt lat="45.24328" lon="6.15324">
        <ele>2315.8000488281</ele>
        <time>2019-05-01T07:11:02.000Z</time>
      </trkpt>
      <trkpt lat="45.24329" lon="6.1532">
        <ele>2316.3999023438</ele>
        <time>2019-05-01T07:11:06.000Z</time>
      </trkpt>
      <trkpt lat="45.24329" lon="6.15319">
        <ele>2316.8000488281</ele>
        <time>2019-05-01T07:11:08.000Z</time>
      </trkpt>
      <trkpt lat="45.24329" lon="6.15318">
        <ele>2317.1999511719</ele>
        <time>2019-05-01T07:11:10.000Z</time>
      </trkpt>
      <trkpt lat="45.24328" lon="6.15313">
        <ele>2318</ele>
        <time>2019-05-01T07:11:14.000Z</time>
      </trkpt>
      <trkpt lat="45.24328" lon="6.15311">
        <ele>2318.1999511719</ele>
        <time>2019-05-01T07:11:15.000Z</time>
      </trkpt>
      <trkpt lat="45.24328" lon="6.15309">
        <ele>2319</ele>
        <time>2019-05-01T07:11:19.000Z</time>
      </trkpt>
      <trkpt lat="45.24327" lon="6.15304">
        <ele>2319.8000488281</ele>
        <time>2019-05-01T07:11:24.000Z</time>
      </trkpt>
      <trkpt lat="45.24327" lon="6.15303">
        <ele>2320</ele>
        <time>2019-05-01T07:11:25.000Z</time>
      </trkpt>
      <trkpt lat="45.24326" lon="6.15301">
        <ele>2320.6000976562</ele>
        <time>2019-05-01T07:11:28.000Z</time>
      </trkpt>
      <trkpt lat="45.24327" lon="6.15299">
        <ele>2321.1999511719</ele>
        <time>2019-05-01T07:11:31.000Z</time>
      </trkpt>
      <trkpt lat="45.24328" lon="6.15298">
        <ele>2321.8000488281</ele>
        <time>2019-05-01T07:11:33.000Z</time>
      </trkpt>
      <trkpt lat="45.24329" lon="6.15296">
        <ele>2322.1999511719</ele>
        <time>2019-05-01T07:11:36.000Z</time>
      </trkpt>
      <trkpt lat="45.24331" lon="6.15296">
        <ele>2322.8000488281</ele>
        <time>2019-05-01T07:11:38.000Z</time>
      </trkpt>
      <trkpt lat="45.24333" lon="6.15296">
        <ele>2323.1999511719</ele>
        <time>2019-05-01T07:11:40.000Z</time>
      </trkpt>
      <trkpt lat="45.24333" lon="6.15295">
        <ele>2323.3999023438</ele>
        <time>2019-05-01T07:11:41.000Z</time>
      </trkpt>
      <trkpt lat="45.24334" lon="6.15295">
        <ele>2323.6000976562</ele>
        <time>2019-05-01T07:11:42.000Z</time>
      </trkpt>
      <trkpt lat="45.24336" lon="6.15295">
        <ele>2324.3999023438</ele>
        <time>2019-05-01T07:11:46.000Z</time>
      </trkpt>
      <trkpt lat="45.24336" lon="6.15295">
        <ele>2324.6000976562</ele>
        <time>2019-05-01T07:11:47.000Z</time>
      </trkpt>
      <trkpt lat="45.24339" lon="6.15295">
        <ele>2325.6000976562</ele>
        <time>2019-05-01T07:11:52.000Z</time>
      </trkpt>
      <trkpt lat="45.24339" lon="6.15295">
        <ele>2325.8000488281</ele>
        <time>2019-05-01T07:11:53.000Z</time>
      </trkpt>
      <trkpt lat="45.24342" lon="6.15294">
        <ele>2326.6000976562</ele>
        <time>2019-05-01T07:11:58.000Z</time>
      </trkpt>
      <trkpt lat="45.24343" lon="6.15294">
        <ele>2326.8000488281</ele>
        <time>2019-05-01T07:11:59.000Z</time>
      </trkpt>
      <trkpt lat="45.24343" lon="6.15293">
        <ele>2327.1999511719</ele>
        <time>2019-05-01T07:12:01.000Z</time>
      </trkpt>
      <trkpt lat="45.24344" lon="6.15293">
        <ele>2327.8000488281</ele>
        <time>2019-05-01T07:12:03.000Z</time>
      </trkpt>
      <trkpt lat="45.24346" lon="6.15291">
        <ele>2328.8000488281</ele>
        <time>2019-05-01T07:12:08.000Z</time>
      </trkpt>
      <trkpt lat="45.24347" lon="6.15289">
        <ele>2329.6000976562</ele>
        <time>2019-05-01T07:12:12.000Z</time>
      </trkpt>
      <trkpt lat="45.24348" lon="6.15288">
        <ele>2329.8000488281</ele>
        <time>2019-05-01T07:12:13.000Z</time>
      </trkpt>
      <trkpt lat="45.24348" lon="6.15286">
        <ele>2330.3999023438</ele>
        <time>2019-05-01T07:12:16.000Z</time>
      </trkpt>
      <trkpt lat="45.24349" lon="6.15285">
        <ele>2331</ele>
        <time>2019-05-01T07:12:19.000Z</time>
      </trkpt>
      <trkpt lat="45.2435" lon="6.15284">
        <ele>2331.6000976562</ele>
        <time>2019-05-01T07:12:21.000Z</time>
      </trkpt>
      <trkpt lat="45.24352" lon="6.15281">
        <ele>2332.1999511719</ele>
        <time>2019-05-01T07:12:24.000Z</time>
      </trkpt>
      <trkpt lat="45.24352" lon="6.15279">
        <ele>2332.8000488281</ele>
        <time>2019-05-01T07:12:27.000Z</time>
      </trkpt>
      <trkpt lat="45.24353" lon="6.15278">
        <ele>2333.1999511719</ele>
        <time>2019-05-01T07:12:29.000Z</time>
      </trkpt>
      <trkpt lat="45.24354" lon="6.15277">
        <ele>2333.8000488281</ele>
        <time>2019-05-01T07:12:31.000Z</time>
      </trkpt>
      <trkpt lat="45.24354" lon="6.15276">
        <ele>2334.1999511719</ele>
        <time>2019-05-01T07:12:33.000Z</time>
      </trkpt>
      <trkpt lat="45.24355" lon="6.15273">
        <ele>2334.8000488281</ele>
        <time>2019-05-01T07:12:36.000Z</time>
      </trkpt>
      <trkpt lat="45.24355" lon="6.15271">
        <ele>2335.3999023438</ele>
        <time>2019-05-01T07:12:39.000Z</time>
      </trkpt>
      <trkpt lat="45.24356" lon="6.1527">
        <ele>2335.6000976562</ele>
        <time>2019-05-01T07:12:40.000Z</time>
      </trkpt>
      <trkpt lat="45.24357" lon="6.15268">
        <ele>2336.3999023438</ele>
        <time>2019-05-01T07:12:44.000Z</time>
      </trkpt>
      <trkpt lat="45.24357" lon="6.15267">
        <ele>2336.6000976562</ele>
        <time>2019-05-01T07:12:45.000Z</time>
      </trkpt>
      <trkpt lat="45.24359" lon="6.15262">
        <ele>2337.3999023438</ele>
        <time>2019-05-01T07:12:49.000Z</time>
      </trkpt>
      <trkpt lat="45.24359" lon="6.15262">
        <ele>2337.6000976562</ele>
        <time>2019-05-01T07:12:50.000Z</time>
      </trkpt>
      <trkpt lat="45.24359" lon="6.15261">
        <ele>2338.6000976562</ele>
        <time>2019-05-01T07:12:54.000Z</time>
      </trkpt>
      <trkpt lat="45.24361" lon="6.15257">
        <ele>2339.6000976562</ele>
        <time>2019-05-01T07:12:59.000Z</time>
      </trkpt>
      <trkpt lat="45.24361" lon="6.15257">
        <ele>2339.8000488281</ele>
        <time>2019-05-01T07:13:00.000Z</time>
      </trkpt>
      <trkpt lat="45.24363" lon="6.15253">
        <ele>2340.8000488281</ele>
        <time>2019-05-01T07:13:05.000Z</time>
      </trkpt>
      <trkpt lat="45.24363" lon="6.15252">
        <ele>2341</ele>
        <time>2019-05-01T07:13:06.000Z</time>
      </trkpt>
      <trkpt lat="45.24364" lon="6.15248">
        <ele>2341.6000976562</ele>
        <time>2019-05-01T07:13:09.000Z</time>
      </trkpt>
      <trkpt lat="45.24364" lon="6.15248">
        <ele>2341.8000488281</ele>
        <time>2019-05-01T07:13:10.000Z</time>
      </trkpt>
      <trkpt lat="45.24364" lon="6.15247">
        <ele>2342.1999511719</ele>
        <time>2019-05-01T07:13:12.000Z</time>
      </trkpt>
      <trkpt lat="45.24365" lon="6.15244">
        <ele>2342.3999023438</ele>
        <time>2019-05-01T07:13:14.000Z</time>
      </trkpt>
      <trkpt lat="45.24365" lon="6.15243">
        <ele>2343.1999511719</ele>
        <time>2019-05-01T07:13:17.000Z</time>
      </trkpt>
      <trkpt lat="45.24365" lon="6.15242">
        <ele>2343.3999023438</ele>
        <time>2019-05-01T07:13:18.000Z</time>
      </trkpt>
      <trkpt lat="45.24366" lon="6.1524">
        <ele>2343.8000488281</ele>
        <time>2019-05-01T07:13:22.000Z</time>
      </trkpt>
      <trkpt lat="45.24367" lon="6.15239">
        <ele>2344.3999023438</ele>
        <time>2019-05-01T07:13:24.000Z</time>
      </trkpt>
      <trkpt lat="45.24368" lon="6.15237">
        <ele>2344.8000488281</ele>
        <time>2019-05-01T07:13:26.000Z</time>
      </trkpt>
      <trkpt lat="45.24369" lon="6.15238">
        <ele>2345.3999023438</ele>
        <time>2019-05-01T07:13:29.000Z</time>
      </trkpt>
      <trkpt lat="45.24372" lon="6.15239">
        <ele>2346</ele>
        <time>2019-05-01T07:13:32.000Z</time>
      </trkpt>
      <trkpt lat="45.24374" lon="6.15239">
        <ele>2346.6000976562</ele>
        <time>2019-05-01T07:13:36.000Z</time>
      </trkpt>
      <trkpt lat="45.24375" lon="6.15239">
        <ele>2346.8000488281</ele>
        <time>2019-05-01T07:13:37.000Z</time>
      </trkpt>
      <trkpt lat="45.24376" lon="6.1524">
        <ele>2347.6000976562</ele>
        <time>2019-05-01T07:13:41.000Z</time>
      </trkpt>
      <trkpt lat="45.24376" lon="6.1524">
        <ele>2347.8000488281</ele>
        <time>2019-05-01T07:13:42.000Z</time>
      </trkpt>
      <trkpt lat="45.24381" lon="6.15241">
        <ele>2348.6000976562</ele>
        <time>2019-05-01T07:13:48.000Z</time>
      </trkpt>
      <trkpt lat="45.24385" lon="6.15243">
        <ele>2349.3999023438</ele>
        <time>2019-05-01T07:13:53.000Z</time>
      </trkpt>
      <trkpt lat="45.24386" lon="6.15245">
        <ele>2349.8000488281</ele>
        <time>2019-05-01T07:13:55.000Z</time>
      </trkpt>
      <trkpt lat="45.24388" lon="6.15247">
        <ele>2350.1999511719</ele>
        <time>2019-05-01T07:13:58.000Z</time>
      </trkpt>
      <trkpt lat="45.2439" lon="6.1525">
        <ele>2351</ele>
        <time>2019-05-01T07:14:02.000Z</time>
      </trkpt>
      <trkpt lat="45.24391" lon="6.15254">
        <ele>2351.6000976562</ele>
        <time>2019-05-01T07:14:06.000Z</time>
      </trkpt>
      <trkpt lat="45.24392" lon="6.15256">
        <ele>2352</ele>
        <time>2019-05-01T07:14:08.000Z</time>
      </trkpt>
      <trkpt lat="45.24393" lon="6.15259">
        <ele>2352.3999023438</ele>
        <time>2019-05-01T07:14:11.000Z</time>
      </trkpt>
      <trkpt lat="45.24394" lon="6.15262">
        <ele>2353.1999511719</ele>
        <time>2019-05-01T07:14:15.000Z</time>
      </trkpt>
      <trkpt lat="45.24394" lon="6.15263">
        <ele>2353.3999023438</ele>
        <time>2019-05-01T07:14:16.000Z</time>
      </trkpt>
      <trkpt lat="45.24395" lon="6.15268">
        <ele>2354.3999023438</ele>
        <time>2019-05-01T07:14:21.000Z</time>
      </trkpt>
      <trkpt lat="45.24396" lon="6.15273">
        <ele>2355.6000976562</ele>
        <time>2019-05-01T07:14:27.000Z</time>
      </trkpt>
      <trkpt lat="45.24397" lon="6.15275">
        <ele>2355.8000488281</ele>
        <time>2019-05-01T07:14:29.000Z</time>
      </trkpt>
      <trkpt lat="45.24397" lon="6.15276">
        <ele>2356.3999023438</ele>
        <time>2019-05-01T07:14:32.000Z</time>
      </trkpt>
      <trkpt lat="45.24398" lon="6.15277">
        <ele>2356.6000976562</ele>
        <time>2019-05-01T07:14:34.000Z</time>
      </trkpt>
      <trkpt lat="45.24399" lon="6.15279">
        <ele>2357</ele>
        <time>2019-05-01T07:14:36.000Z</time>
      </trkpt>
      <trkpt lat="45.24399" lon="6.15279">
        <ele>2357.1999511719</ele>
        <time>2019-05-01T07:14:37.000Z</time>
      </trkpt>
      <trkpt lat="45.244" lon="6.15279">
        <ele>2357.8000488281</ele>
        <time>2019-05-01T07:14:40.000Z</time>
      </trkpt>
      <trkpt lat="45.244" lon="6.15278">
        <ele>2358</ele>
        <time>2019-05-01T07:14:41.000Z</time>
      </trkpt>
      <trkpt lat="45.24401" lon="6.15278">
        <ele>2358.1999511719</ele>
        <time>2019-05-01T07:14:42.000Z</time>
      </trkpt>
      <trkpt lat="45.24403" lon="6.15276">
        <ele>2359</ele>
        <time>2019-05-01T07:14:46.000Z</time>
      </trkpt>
      <trkpt lat="45.24405" lon="6.15274">
        <ele>2359.6000976562</ele>
        <time>2019-05-01T07:14:50.000Z</time>
      </trkpt>
      <trkpt lat="45.24406" lon="6.15273">
        <ele>2360</ele>
        <time>2019-05-01T07:14:52.000Z</time>
      </trkpt>
      <trkpt lat="45.24409" lon="6.1527">
        <ele>2360.3999023438</ele>
        <time>2019-05-01T07:14:56.000Z</time>
      </trkpt>
      <trkpt lat="45.24413" lon="6.15268">
        <ele>2360.8000488281</ele>
        <time>2019-05-01T07:15:02.000Z</time>
      </trkpt>
      <trkpt lat="45.24415" lon="6.15267">
        <ele>2361</ele>
        <time>2019-05-01T07:15:04.000Z</time>
      </trkpt>
      <trkpt lat="45.24415" lon="6.15267">
        <ele>2361.3999023438</ele>
        <time>2019-05-01T07:15:07.000Z</time>
      </trkpt>
      <trkpt lat="45.24418" lon="6.15265">
        <ele>2362.1999511719</ele>
        <time>2019-05-01T07:15:11.000Z</time>
      </trkpt>
      <trkpt lat="45.24419" lon="6.15265">
        <ele>2362.1999511719</ele>
        <time>2019-05-01T07:15:12.000Z</time>
      </trkpt>
      <trkpt lat="45.24421" lon="6.15262">
        <ele>2363.1999511719</ele>
        <time>2019-05-01T07:15:17.000Z</time>
      </trkpt>
      <trkpt lat="45.24422" lon="6.15262">
        <ele>2363.1999511719</ele>
        <time>2019-05-01T07:15:18.000Z</time>
      </trkpt>
      <trkpt lat="45.24423" lon="6.15261">
        <ele>2363.3999023438</ele>
        <time>2019-05-01T07:15:19.000Z</time>
      </trkpt>
      <trkpt lat="45.24425" lon="6.15259">
        <ele>2363.8000488281</ele>
        <time>2019-05-01T07:15:22.000Z</time>
      </trkpt>
      <trkpt lat="45.2443" lon="6.15257">
        <ele>2364.3999023438</ele>
        <time>2019-05-01T07:15:27.000Z</time>
      </trkpt>
      <trkpt lat="45.24434" lon="6.15255">
        <ele>2365</ele>
        <time>2019-05-01T07:15:32.000Z</time>
      </trkpt>
      <trkpt lat="45.24437" lon="6.15253">
        <ele>2365.3999023438</ele>
        <time>2019-05-01T07:15:36.000Z</time>
      </trkpt>
      <trkpt lat="45.24438" lon="6.15253">
        <ele>2365.6000976562</ele>
        <time>2019-05-01T07:15:37.000Z</time>
      </trkpt>
      <trkpt lat="45.24441" lon="6.15251">
        <ele>2366.1999511719</ele>
        <time>2019-05-01T07:15:41.000Z</time>
      </trkpt>
      <trkpt lat="45.24441" lon="6.15251">
        <ele>2366.3999023438</ele>
        <time>2019-05-01T07:15:42.000Z</time>
      </trkpt>
      <trkpt lat="45.24446" lon="6.15248">
        <ele>2367</ele>
        <time>2019-05-01T07:15:47.000Z</time>
      </trkpt>
      <trkpt lat="45.24448" lon="6.15247">
        <ele>2367.3999023438</ele>
        <time>2019-05-01T07:15:50.000Z</time>
      </trkpt>
      <trkpt lat="45.2445" lon="6.15247">
        <ele>2367.6000976562</ele>
        <time>2019-05-01T07:15:52.000Z</time>
      </trkpt>
      <trkpt lat="45.24454" lon="6.15244">
        <ele>2368.1999511719</ele>
        <time>2019-05-01T07:15:57.000Z</time>
      </trkpt>
      <trkpt lat="45.24456" lon="6.15243">
        <ele>2368.6000976562</ele>
        <time>2019-05-01T07:15:59.000Z</time>
      </trkpt>
      <trkpt lat="45.24459" lon="6.1524">
        <ele>2369.1999511719</ele>
        <time>2019-05-01T07:16:03.000Z</time>
      </trkpt>
      <trkpt lat="45.24462" lon="6.15237">
        <ele>2369.6000976562</ele>
        <time>2019-05-01T07:16:07.000Z</time>
      </trkpt>
      <trkpt lat="45.24463" lon="6.15236">
        <ele>2369.8000488281</ele>
        <time>2019-05-01T07:16:08.000Z</time>
      </trkpt>
      <trkpt lat="45.24465" lon="6.15234">
        <ele>2370</ele>
        <time>2019-05-01T07:16:12.000Z</time>
      </trkpt>
      <trkpt lat="45.24468" lon="6.15229">
        <ele>2370.6000976562</ele>
        <time>2019-05-01T07:16:17.000Z</time>
      </trkpt>
      <trkpt lat="45.24469" lon="6.15227">
        <ele>2370.6000976562</ele>
        <time>2019-05-01T07:16:19.000Z</time>
      </trkpt>
      <trkpt lat="45.24471" lon="6.15223">
        <ele>2371.3999023438</ele>
        <time>2019-05-01T07:16:23.000Z</time>
      </trkpt>
      <trkpt lat="45.24472" lon="6.1522">
        <ele>2371.8000488281</ele>
        <time>2019-05-01T07:16:26.000Z</time>
      </trkpt>
      <trkpt lat="45.24473" lon="6.15219">
        <ele>2372.3999023438</ele>
        <time>2019-05-01T07:16:28.000Z</time>
      </trkpt>
      <trkpt lat="45.24475" lon="6.15217">
        <ele>2373</ele>
        <time>2019-05-01T07:16:31.000Z</time>
      </trkpt>
      <trkpt lat="45.24476" lon="6.15215">
        <ele>2373.3999023438</ele>
        <time>2019-05-01T07:16:33.000Z</time>
      </trkpt>
      <trkpt lat="45.24479" lon="6.15212">
        <ele>2374</ele>
        <time>2019-05-01T07:16:37.000Z</time>
      </trkpt>
      <trkpt lat="45.24479" lon="6.15211">
        <ele>2374.1999511719</ele>
        <time>2019-05-01T07:16:38.000Z</time>
      </trkpt>
      <trkpt lat="45.24481" lon="6.15207">
        <ele>2375</ele>
        <time>2019-05-01T07:16:43.000Z</time>
      </trkpt>
      <trkpt lat="45.24482" lon="6.15206">
        <ele>2375.1999511719</ele>
        <time>2019-05-01T07:16:44.000Z</time>
      </trkpt>
      <trkpt lat="45.24483" lon="6.15203">
        <ele>2376.1999511719</ele>
        <time>2019-05-01T07:16:49.000Z</time>
      </trkpt>
      <trkpt lat="45.24484" lon="6.15202">
        <ele>2376.3999023438</ele>
        <time>2019-05-01T07:16:50.000Z</time>
      </trkpt>
      <trkpt lat="45.24485" lon="6.15201">
        <ele>2376.8000488281</ele>
        <time>2019-05-01T07:16:51.000Z</time>
      </trkpt>
      <trkpt lat="45.24486" lon="6.15199">
        <ele>2377.1999511719</ele>
        <time>2019-05-01T07:16:54.000Z</time>
      </trkpt>
      <trkpt lat="45.24486" lon="6.15198">
        <ele>2377.3999023438</ele>
        <time>2019-05-01T07:16:55.000Z</time>
      </trkpt>
      <trkpt lat="45.24489" lon="6.15195">
        <ele>2378</ele>
        <time>2019-05-01T07:16:59.000Z</time>
      </trkpt>
      <trkpt lat="45.24489" lon="6.15193">
        <ele>2378.3999023438</ele>
        <time>2019-05-01T07:17:02.000Z</time>
      </trkpt>
      <trkpt lat="45.24489" lon="6.15189">
        <ele>2379.1999511719</ele>
        <time>2019-05-01T07:17:05.000Z</time>
      </trkpt>
      <trkpt lat="45.2449" lon="6.15188">
        <ele>2379.6000976562</ele>
        <time>2019-05-01T07:17:07.000Z</time>
      </trkpt>
      <trkpt lat="45.2449" lon="6.15186">
        <ele>2380</ele>
        <time>2019-05-01T07:17:09.000Z</time>
      </trkpt>
      <trkpt lat="45.2449" lon="6.15182">
        <ele>2380.6000976562</ele>
        <time>2019-05-01T07:17:13.000Z</time>
      </trkpt>
      <trkpt lat="45.2449" lon="6.15181">
        <ele>2380.8000488281</ele>
        <time>2019-05-01T07:17:14.000Z</time>
      </trkpt>
      <trkpt lat="45.2449" lon="6.15176">
        <ele>2381.8000488281</ele>
        <time>2019-05-01T07:17:18.000Z</time>
      </trkpt>
      <trkpt lat="45.24491" lon="6.15175">
        <ele>2381.8000488281</ele>
        <time>2019-05-01T07:17:19.000Z</time>
      </trkpt>
      <trkpt lat="45.2449" lon="6.15169">
        <ele>2382.6000976562</ele>
        <time>2019-05-01T07:17:25.000Z</time>
      </trkpt>
      <trkpt lat="45.2449" lon="6.15168">
        <ele>2382.8000488281</ele>
        <time>2019-05-01T07:17:26.000Z</time>
      </trkpt>
      <trkpt lat="45.2449" lon="6.15164">
        <ele>2383.3999023438</ele>
        <time>2019-05-01T07:17:30.000Z</time>
      </trkpt>
      <trkpt lat="45.2449" lon="6.15161">
        <ele>2383.8000488281</ele>
        <time>2019-05-01T07:17:34.000Z</time>
      </trkpt>
      <trkpt lat="45.2449" lon="6.1516">
        <ele>2384.1999511719</ele>
        <time>2019-05-01T07:17:36.000Z</time>
      </trkpt>
      <trkpt lat="45.24491" lon="6.15156">
        <ele>2385</ele>
        <time>2019-05-01T07:17:39.000Z</time>
      </trkpt>
      <trkpt lat="45.24491" lon="6.15155">
        <ele>2385.3999023438</ele>
        <time>2019-05-01T07:17:41.000Z</time>
      </trkpt>
      <trkpt lat="45.24492" lon="6.15147">
        <ele>2386</ele>
        <time>2019-05-01T07:17:46.000Z</time>
      </trkpt>
      <trkpt lat="45.24492" lon="6.15147">
        <ele>2386.1999511719</ele>
        <time>2019-05-01T07:17:47.000Z</time>
      </trkpt>
      <trkpt lat="45.24492" lon="6.15144">
        <ele>2386.8000488281</ele>
        <time>2019-05-01T07:17:50.000Z</time>
      </trkpt>
      <trkpt lat="45.24492" lon="6.15143">
        <ele>2387.3999023438</ele>
        <time>2019-05-01T07:17:52.000Z</time>
      </trkpt>
      <trkpt lat="45.24492" lon="6.15139">
        <ele>2388</ele>
        <time>2019-05-01T07:17:55.000Z</time>
      </trkpt>
      <trkpt lat="45.24492" lon="6.15138">
        <ele>2388.3999023438</ele>
        <time>2019-05-01T07:17:57.000Z</time>
      </trkpt>
      <trkpt lat="45.24493" lon="6.15137">
        <ele>2388.8000488281</ele>
        <time>2019-05-01T07:17:59.000Z</time>
      </trkpt>
      <trkpt lat="45.24493" lon="6.15134">
        <ele>2389.8000488281</ele>
        <time>2019-05-01T07:18:03.000Z</time>
      </trkpt>
      <trkpt lat="45.24493" lon="6.15131">
        <ele>2390.1999511719</ele>
        <time>2019-05-01T07:18:05.000Z</time>
      </trkpt>
      <trkpt lat="45.24493" lon="6.15129">
        <ele>2391</ele>
        <time>2019-05-01T07:18:09.000Z</time>
      </trkpt>
      <trkpt lat="45.24494" lon="6.15124">
        <ele>2391.8000488281</ele>
        <time>2019-05-01T07:18:14.000Z</time>
      </trkpt>
      <trkpt lat="45.24494" lon="6.15123">
        <ele>2392</ele>
        <time>2019-05-01T07:18:15.000Z</time>
      </trkpt>
      <trkpt lat="45.24494" lon="6.15119">
        <ele>2392.8000488281</ele>
        <time>2019-05-01T07:18:20.000Z</time>
      </trkpt>
      <trkpt lat="45.24494" lon="6.15119">
        <ele>2393</ele>
        <time>2019-05-01T07:18:21.000Z</time>
      </trkpt>
      <trkpt lat="45.24495" lon="6.15113">
        <ele>2394.1999511719</ele>
        <time>2019-05-01T07:18:27.000Z</time>
      </trkpt>
      <trkpt lat="45.24495" lon="6.15108">
        <ele>2395</ele>
        <time>2019-05-01T07:18:31.000Z</time>
      </trkpt>
      <trkpt lat="45.24496" lon="6.15105">
        <ele>2395.3999023438</ele>
        <time>2019-05-01T07:18:33.000Z</time>
      </trkpt>
      <trkpt lat="45.24496" lon="6.15101">
        <ele>2396</ele>
        <time>2019-05-01T07:18:37.000Z</time>
      </trkpt>
      <trkpt lat="45.24496" lon="6.15097">
        <ele>2396.3999023438</ele>
        <time>2019-05-01T07:18:40.000Z</time>
      </trkpt>
      <trkpt lat="45.24497" lon="6.15094">
        <ele>2396.8000488281</ele>
        <time>2019-05-01T07:18:43.000Z</time>
      </trkpt>
      <trkpt lat="45.24497" lon="6.15089">
        <ele>2397.3999023438</ele>
        <time>2019-05-01T07:18:48.000Z</time>
      </trkpt>
      <trkpt lat="45.24498" lon="6.15087">
        <ele>2397.3999023438</ele>
        <time>2019-05-01T07:18:49.000Z</time>
      </trkpt>
      <trkpt lat="45.24498" lon="6.15084">
        <ele>2398.1999511719</ele>
        <time>2019-05-01T07:18:52.000Z</time>
      </trkpt>
      <trkpt lat="45.24499" lon="6.15081">
        <ele>2398.6000976562</ele>
        <time>2019-05-01T07:18:56.000Z</time>
      </trkpt>
      <trkpt lat="45.24499" lon="6.15075">
        <ele>2399.1999511719</ele>
        <time>2019-05-01T07:19:00.000Z</time>
      </trkpt>
      <trkpt lat="45.245" lon="6.15072">
        <ele>2399.6000976562</ele>
        <time>2019-05-01T07:19:03.000Z</time>
      </trkpt>
      <trkpt lat="45.245" lon="6.1507">
        <ele>2400</ele>
        <time>2019-05-01T07:19:05.000Z</time>
      </trkpt>
      <trkpt lat="45.24501" lon="6.15066">
        <ele>2400.6000976562</ele>
        <time>2019-05-01T07:19:09.000Z</time>
      </trkpt>
      <trkpt lat="45.24501" lon="6.15064">
        <ele>2400.8000488281</ele>
        <time>2019-05-01T07:19:10.000Z</time>
      </trkpt>
      <trkpt lat="45.24501" lon="6.15061">
        <ele>2401.3999023438</ele>
        <time>2019-05-01T07:19:13.000Z</time>
      </trkpt>
      <trkpt lat="45.24502" lon="6.15059">
        <ele>2402</ele>
        <time>2019-05-01T07:19:15.000Z</time>
      </trkpt>
      <trkpt lat="45.24502" lon="6.15054">
        <ele>2402.6000976562</ele>
        <time>2019-05-01T07:19:18.000Z</time>
      </trkpt>
      <trkpt lat="45.24502" lon="6.15053">
        <ele>2403</ele>
        <time>2019-05-01T07:19:20.000Z</time>
      </trkpt>
      <trkpt lat="45.24503" lon="6.15051">
        <ele>2403.3999023438</ele>
        <time>2019-05-01T07:19:22.000Z</time>
      </trkpt>
      <trkpt lat="45.24503" lon="6.15048">
        <ele>2404</ele>
        <time>2019-05-01T07:19:25.000Z</time>
      </trkpt>
      <trkpt lat="45.24503" lon="6.15046">
        <ele>2404.1999511719</ele>
        <time>2019-05-01T07:19:26.000Z</time>
      </trkpt>
      <trkpt lat="45.24504" lon="6.15042">
        <ele>2404.8000488281</ele>
        <time>2019-05-01T07:19:30.000Z</time>
      </trkpt>
      <trkpt lat="45.24504" lon="6.15039">
        <ele>2405.1999511719</ele>
        <time>2019-05-01T07:19:32.000Z</time>
      </trkpt>
      <trkpt lat="45.24504" lon="6.15036">
        <ele>2405.8000488281</ele>
        <time>2019-05-01T07:19:36.000Z</time>
      </trkpt>
      <trkpt lat="45.24503" lon="6.15033">
        <ele>2406.1999511719</ele>
        <time>2019-05-01T07:19:38.000Z</time>
      </trkpt>
      <trkpt lat="45.24502" lon="6.1503">
        <ele>2406.8000488281</ele>
        <time>2019-05-01T07:19:41.000Z</time>
      </trkpt>
      <trkpt lat="45.24502" lon="6.15029">
        <ele>2407.1999511719</ele>
        <time>2019-05-01T07:19:43.000Z</time>
      </trkpt>
      <trkpt lat="45.24502" lon="6.15026">
        <ele>2407.6000976562</ele>
        <time>2019-05-01T07:19:46.000Z</time>
      </trkpt>
      <trkpt lat="45.24501" lon="6.15023">
        <ele>2408.3999023438</ele>
        <time>2019-05-01T07:19:50.000Z</time>
      </trkpt>
      <trkpt lat="45.24501" lon="6.15016">
        <ele>2409.1999511719</ele>
        <time>2019-05-01T07:19:56.000Z</time>
      </trkpt>
      <trkpt lat="45.24501" lon="6.15016">
        <ele>2409.3999023438</ele>
        <time>2019-05-01T07:19:57.000Z</time>
      </trkpt>
      <trkpt lat="45.245" lon="6.15014">
        <ele>2409.6000976562</ele>
        <time>2019-05-01T07:19:59.000Z</time>
      </trkpt>
      <trkpt lat="45.24499" lon="6.15012">
        <ele>2410</ele>
        <time>2019-05-01T07:20:01.000Z</time>
      </trkpt>
      <trkpt lat="45.24499" lon="6.1501">
        <ele>2410.6000976562</ele>
        <time>2019-05-01T07:20:03.000Z</time>
      </trkpt>
      <trkpt lat="45.245" lon="6.15007">
        <ele>2411.3999023438</ele>
        <time>2019-05-01T07:20:07.000Z</time>
      </trkpt>
      <trkpt lat="45.24499" lon="6.15005">
        <ele>2411.8000488281</ele>
        <time>2019-05-01T07:20:09.000Z</time>
      </trkpt>
      <trkpt lat="45.24499" lon="6.15">
        <ele>2412.6000976562</ele>
        <time>2019-05-01T07:20:13.000Z</time>
      </trkpt>
      <trkpt lat="45.24499" lon="6.14999">
        <ele>2412.8000488281</ele>
        <time>2019-05-01T07:20:15.000Z</time>
      </trkpt>
      <trkpt lat="45.24498" lon="6.14994">
        <ele>2413.3999023438</ele>
        <time>2019-05-01T07:20:18.000Z</time>
      </trkpt>
      <trkpt lat="45.24498" lon="6.14991">
        <ele>2414</ele>
        <time>2019-05-01T07:20:21.000Z</time>
      </trkpt>
      <trkpt lat="45.245" lon="6.14989">
        <ele>2414.3999023438</ele>
        <time>2019-05-01T07:20:23.000Z</time>
      </trkpt>
      <trkpt lat="45.245" lon="6.14989">
        <ele>2414.6000976562</ele>
        <time>2019-05-01T07:20:24.000Z</time>
      </trkpt>
      <trkpt lat="45.24501" lon="6.14987">
        <ele>2415</ele>
        <time>2019-05-01T07:20:26.000Z</time>
      </trkpt>
      <trkpt lat="45.24503" lon="6.14984">
        <ele>2415.8000488281</ele>
        <time>2019-05-01T07:20:29.000Z</time>
      </trkpt>
      <trkpt lat="45.24503" lon="6.14984">
        <ele>2416.1999511719</ele>
        <time>2019-05-01T07:20:30.000Z</time>
      </trkpt>
      <trkpt lat="45.24505" lon="6.14982">
        <ele>2416.8000488281</ele>
        <time>2019-05-01T07:20:33.000Z</time>
      </trkpt>
      <trkpt lat="45.24506" lon="6.14981">
        <ele>2417.1999511719</ele>
        <time>2019-05-01T07:20:35.000Z</time>
      </trkpt>
      <trkpt lat="45.24506" lon="6.14981">
        <ele>2417.3999023438</ele>
        <time>2019-05-01T07:20:37.000Z</time>
      </trkpt>
      <trkpt lat="45.24507" lon="6.14981">
        <ele>2418</ele>
        <time>2019-05-01T07:20:49.000Z</time>
      </trkpt>
      <trkpt lat="45.24508" lon="6.14979">
        <ele>2418.1999511719</ele>
        <time>2019-05-01T07:20:52.000Z</time>
      </trkpt>
      <trkpt lat="45.24508" lon="6.14979">
        <ele>2418.1999511719</ele>
        <time>2019-05-01T07:20:53.000Z</time>
      </trkpt>
      <trkpt lat="45.24508" lon="6.14979">
        <ele>2418.3999023438</ele>
        <time>2019-05-01T07:21:12.000Z</time>
      </trkpt>
      <trkpt lat="45.24509" lon="6.14979">
        <ele>2418.3999023438</ele>
        <time>2019-05-01T07:21:25.000Z</time>
      </trkpt>
      <trkpt lat="45.24512" lon="6.14975">
        <ele>2419</ele>
        <time>2019-05-01T07:21:30.000Z</time>
      </trkpt>
      <trkpt lat="45.24513" lon="6.14975">
        <ele>2419.3999023438</ele>
        <time>2019-05-01T07:21:31.000Z</time>
      </trkpt>
      <trkpt lat="45.24516" lon="6.14972">
        <ele>2420.3999023438</ele>
        <time>2019-05-01T07:21:35.000Z</time>
      </trkpt>
      <trkpt lat="45.24517" lon="6.14971">
        <ele>2420.6000976562</ele>
        <time>2019-05-01T07:21:36.000Z</time>
      </trkpt>
      <trkpt lat="45.24518" lon="6.14969">
        <ele>2421.3999023438</ele>
        <time>2019-05-01T07:21:39.000Z</time>
      </trkpt>
      <trkpt lat="45.24518" lon="6.14969">
        <ele>2422</ele>
        <time>2019-05-01T07:21:40.000Z</time>
      </trkpt>
      <trkpt lat="45.24519" lon="6.14965">
        <ele>2422.8000488281</ele>
        <time>2019-05-01T07:21:43.000Z</time>
      </trkpt>
      <trkpt lat="45.2452" lon="6.14964">
        <ele>2423</ele>
        <time>2019-05-01T07:21:44.000Z</time>
      </trkpt>
      <trkpt lat="45.2452" lon="6.14963">
        <ele>2423.8000488281</ele>
        <time>2019-05-01T07:21:47.000Z</time>
      </trkpt>
      <trkpt lat="45.2452" lon="6.14962">
        <ele>2424</ele>
        <time>2019-05-01T07:21:49.000Z</time>
      </trkpt>
      <trkpt lat="45.24521" lon="6.14961">
        <ele>2424.3999023438</ele>
        <time>2019-05-01T07:21:51.000Z</time>
      </trkpt>
      <trkpt lat="45.24522" lon="6.14959">
        <ele>2425.1999511719</ele>
        <time>2019-05-01T07:21:54.000Z</time>
      </trkpt>
      <trkpt lat="45.24523" lon="6.14958">
        <ele>2425.3999023438</ele>
        <time>2019-05-01T07:21:55.000Z</time>
      </trkpt>
      <trkpt lat="45.24524" lon="6.14954">
        <ele>2426</ele>
        <time>2019-05-01T07:21:59.000Z</time>
      </trkpt>
      <trkpt lat="45.24525" lon="6.14953">
        <ele>2426.1999511719</ele>
        <time>2019-05-01T07:22:00.000Z</time>
      </trkpt>
      <trkpt lat="45.24527" lon="6.1495">
        <ele>2427</ele>
        <time>2019-05-01T07:22:04.000Z</time>
      </trkpt>
      <trkpt lat="45.24527" lon="6.1495">
        <ele>2427.1999511719</ele>
        <time>2019-05-01T07:22:05.000Z</time>
      </trkpt>
      <trkpt lat="45.24528" lon="6.14948">
        <ele>2427.8000488281</ele>
        <time>2019-05-01T07:22:08.000Z</time>
      </trkpt>
      <trkpt lat="45.24529" lon="6.14944">
        <ele>2428.1999511719</ele>
        <time>2019-05-01T07:22:11.000Z</time>
      </trkpt>
      <trkpt lat="45.2453" lon="6.14943">
        <ele>2428.6000976562</ele>
        <time>2019-05-01T07:22:13.000Z</time>
      </trkpt>
      <trkpt lat="45.24531" lon="6.14938">
        <ele>2429.3999023438</ele>
        <time>2019-05-01T07:22:18.000Z</time>
      </trkpt>
      <trkpt lat="45.24532" lon="6.14934">
        <ele>2430.1999511719</ele>
        <time>2019-05-01T07:22:23.000Z</time>
      </trkpt>
      <trkpt lat="45.24533" lon="6.14932">
        <ele>2430.3999023438</ele>
        <time>2019-05-01T07:22:24.000Z</time>
      </trkpt>
      <trkpt lat="45.24534" lon="6.14931">
        <ele>2431</ele>
        <time>2019-05-01T07:22:27.000Z</time>
      </trkpt>
      <trkpt lat="45.24534" lon="6.14929">
        <ele>2431.6000976562</ele>
        <time>2019-05-01T07:22:29.000Z</time>
      </trkpt>
      <trkpt lat="45.24534" lon="6.14926">
        <ele>2432</ele>
        <time>2019-05-01T07:22:32.000Z</time>
      </trkpt>
      <trkpt lat="45.24535" lon="6.14923">
        <ele>2432.3999023438</ele>
        <time>2019-05-01T07:22:35.000Z</time>
      </trkpt>
      <trkpt lat="45.24535" lon="6.14923">
        <ele>2432.6000976562</ele>
        <time>2019-05-01T07:22:36.000Z</time>
      </trkpt>
      <trkpt lat="45.24536" lon="6.14921">
        <ele>2433.1999511719</ele>
        <time>2019-05-01T07:22:39.000Z</time>
      </trkpt>
      <trkpt lat="45.24537" lon="6.14917">
        <ele>2433.8000488281</ele>
        <time>2019-05-01T07:22:43.000Z</time>
      </trkpt>
      <trkpt lat="45.24537" lon="6.14915">
        <ele>2434.1999511719</ele>
        <time>2019-05-01T07:22:45.000Z</time>
      </trkpt>
      <trkpt lat="45.24538" lon="6.1491">
        <ele>2435</ele>
        <time>2019-05-01T07:22:49.000Z</time>
      </trkpt>
      <trkpt lat="45.24538" lon="6.1491">
        <ele>2435.1999511719</ele>
        <time>2019-05-01T07:22:50.000Z</time>
      </trkpt>
      <trkpt lat="45.24538" lon="6.14908">
        <ele>2436.1999511719</ele>
        <time>2019-05-01T07:22:55.000Z</time>
      </trkpt>
      <trkpt lat="45.24538" lon="6.14907">
        <ele>2436.3999023438</ele>
        <time>2019-05-01T07:22:57.000Z</time>
      </trkpt>
      <trkpt lat="45.24539" lon="6.14902">
        <ele>2437.1999511719</ele>
        <time>2019-05-01T07:23:01.000Z</time>
      </trkpt>
      <trkpt lat="45.24539" lon="6.14898">
        <ele>2438.3999023438</ele>
        <time>2019-05-01T07:23:06.000Z</time>
      </trkpt>
      <trkpt lat="45.24539" lon="6.14893">
        <ele>2439.3999023438</ele>
        <time>2019-05-01T07:23:11.000Z</time>
      </trkpt>
      <trkpt lat="45.2454" lon="6.14888">
        <ele>2440.8000488281</ele>
        <time>2019-05-01T07:23:16.000Z</time>
      </trkpt>
      <trkpt lat="45.2454" lon="6.14886">
        <ele>2441.6000976562</ele>
        <time>2019-05-01T07:23:20.000Z</time>
      </trkpt>
      <trkpt lat="45.2454" lon="6.14886">
        <ele>2441.8000488281</ele>
        <time>2019-05-01T07:23:21.000Z</time>
      </trkpt>
      <trkpt lat="45.2454" lon="6.14885">
        <ele>2442.6000976562</ele>
        <time>2019-05-01T07:23:25.000Z</time>
      </trkpt>
      <trkpt lat="45.2454" lon="6.14884">
        <ele>2443</ele>
        <time>2019-05-01T07:23:27.000Z</time>
      </trkpt>
      <trkpt lat="45.2454" lon="6.14884">
        <ele>2443.6000976562</ele>
        <time>2019-05-01T07:23:30.000Z</time>
      </trkpt>
      <trkpt lat="45.2454" lon="6.1488">
        <ele>2444.1999511719</ele>
        <time>2019-05-01T07:23:33.000Z</time>
      </trkpt>
      <trkpt lat="45.2454" lon="6.14879">
        <ele>2444.3999023438</ele>
        <time>2019-05-01T07:23:34.000Z</time>
      </trkpt>
      <trkpt lat="45.2454" lon="6.14874">
        <ele>2445.1999511719</ele>
        <time>2019-05-01T07:23:38.000Z</time>
      </trkpt>
      <trkpt lat="45.2454" lon="6.14873">
        <ele>2445.3999023438</ele>
        <time>2019-05-01T07:23:39.000Z</time>
      </trkpt>
      <trkpt lat="45.2454" lon="6.14869">
        <ele>2446.3999023438</ele>
        <time>2019-05-01T07:23:43.000Z</time>
      </trkpt>
      <trkpt lat="45.2454" lon="6.14862">
        <ele>2447.6000976562</ele>
        <time>2019-05-01T07:23:49.000Z</time>
      </trkpt>
      <trkpt lat="45.2454" lon="6.1486">
        <ele>2448.3999023438</ele>
        <time>2019-05-01T07:23:54.000Z</time>
      </trkpt>
      <trkpt lat="45.2454" lon="6.1486">
        <ele>2448.6000976562</ele>
        <time>2019-05-01T07:23:55.000Z</time>
      </trkpt>
      <trkpt lat="45.2454" lon="6.14858">
        <ele>2449.1999511719</ele>
        <time>2019-05-01T07:23:58.000Z</time>
      </trkpt>
      <trkpt lat="45.2454" lon="6.14858">
        <ele>2449.6000976562</ele>
        <time>2019-05-01T07:24:00.000Z</time>
      </trkpt>
      <trkpt lat="45.2454" lon="6.14858">
        <ele>2450</ele>
        <time>2019-05-01T07:24:01.000Z</time>
      </trkpt>
      <trkpt lat="45.24541" lon="6.14855">
        <ele>2450.8000488281</ele>
        <time>2019-05-01T07:24:04.000Z</time>
      </trkpt>
      <trkpt lat="45.24541" lon="6.14849">
        <ele>2451.3999023438</ele>
        <time>2019-05-01T07:24:08.000Z</time>
      </trkpt>
      <trkpt lat="45.24541" lon="6.14848">
        <ele>2451.8000488281</ele>
        <time>2019-05-01T07:24:10.000Z</time>
      </trkpt>
      <trkpt lat="45.24541" lon="6.14846">
        <ele>2452.3999023438</ele>
        <time>2019-05-01T07:24:12.000Z</time>
      </trkpt>
      <trkpt lat="45.24542" lon="6.14843">
        <ele>2452.8000488281</ele>
        <time>2019-05-01T07:24:15.000Z</time>
      </trkpt>
      <trkpt lat="45.24543" lon="6.14842">
        <ele>2453.1999511719</ele>
        <time>2019-05-01T07:24:17.000Z</time>
      </trkpt>
      <trkpt lat="45.24545" lon="6.14841">
        <ele>2454</ele>
        <time>2019-05-01T07:24:20.000Z</time>
      </trkpt>
      <trkpt lat="45.24545" lon="6.1484">
        <ele>2454.3999023438</ele>
        <time>2019-05-01T07:24:22.000Z</time>
      </trkpt>
      <trkpt lat="45.24545" lon="6.1484">
        <ele>2455</ele>
        <time>2019-05-01T07:24:25.000Z</time>
      </trkpt>
      <trkpt lat="45.24545" lon="6.1484">
        <ele>2455.8000488281</ele>
        <time>2019-05-01T07:24:28.000Z</time>
      </trkpt>
      <trkpt lat="45.24547" lon="6.14838">
        <ele>2456.1999511719</ele>
        <time>2019-05-01T07:24:36.000Z</time>
      </trkpt>
      <trkpt lat="45.2455" lon="6.14835">
        <ele>2457</ele>
        <time>2019-05-01T07:24:41.000Z</time>
      </trkpt>
      <trkpt lat="45.2455" lon="6.14835">
        <ele>2457.1999511719</ele>
        <time>2019-05-01T07:24:42.000Z</time>
      </trkpt>
      <trkpt lat="45.24552" lon="6.14832">
        <ele>2458</ele>
        <time>2019-05-01T07:24:45.000Z</time>
      </trkpt>
      <trkpt lat="45.24552" lon="6.1483">
        <ele>2458.3999023438</ele>
        <time>2019-05-01T07:24:47.000Z</time>
      </trkpt>
      <trkpt lat="45.24551" lon="6.14825">
        <ele>2459.3999023438</ele>
        <time>2019-05-01T07:24:52.000Z</time>
      </trkpt>
      <trkpt lat="45.24552" lon="6.14822">
        <ele>2460.3999023438</ele>
        <time>2019-05-01T07:24:56.000Z</time>
      </trkpt>
      <trkpt lat="45.24552" lon="6.14823">
        <ele>2460.6000976562</ele>
        <time>2019-05-01T07:24:58.000Z</time>
      </trkpt>
      <trkpt lat="45.2455" lon="6.14819">
        <ele>2461.6000976562</ele>
        <time>2019-05-01T07:25:03.000Z</time>
      </trkpt>
      <trkpt lat="45.24549" lon="6.14818">
        <ele>2461.8000488281</ele>
        <time>2019-05-01T07:25:04.000Z</time>
      </trkpt>
      <trkpt lat="45.24547" lon="6.14815">
        <ele>2462.6000976562</ele>
        <time>2019-05-01T07:25:08.000Z</time>
      </trkpt>
      <trkpt lat="45.24546" lon="6.14814">
        <ele>2463</ele>
        <time>2019-05-01T07:25:10.000Z</time>
      </trkpt>
      <trkpt lat="45.24545" lon="6.14812">
        <ele>2463.6000976562</ele>
        <time>2019-05-01T07:25:14.000Z</time>
      </trkpt>
      <trkpt lat="45.24545" lon="6.14812">
        <ele>2464.1999511719</ele>
        <time>2019-05-01T07:25:17.000Z</time>
      </trkpt>
      <trkpt lat="45.24543" lon="6.14807">
        <ele>2464.6000976562</ele>
        <time>2019-05-01T07:25:20.000Z</time>
      </trkpt>
      <trkpt lat="45.24541" lon="6.14803">
        <ele>2465.1999511719</ele>
        <time>2019-05-01T07:25:24.000Z</time>
      </trkpt>
      <trkpt lat="45.2454" lon="6.14802">
        <ele>2465.3999023438</ele>
        <time>2019-05-01T07:25:25.000Z</time>
      </trkpt>
      <trkpt lat="45.24539" lon="6.14798">
        <ele>2466.3999023438</ele>
        <time>2019-05-01T07:25:30.000Z</time>
      </trkpt>
      <trkpt lat="45.24539" lon="6.14797">
        <ele>2466.6000976562</ele>
        <time>2019-05-01T07:25:31.000Z</time>
      </trkpt>
      <trkpt lat="45.2454" lon="6.14792">
        <ele>2467.1999511719</ele>
        <time>2019-05-01T07:25:35.000Z</time>
      </trkpt>
      <trkpt lat="45.2454" lon="6.14792">
        <ele>2467.3999023438</ele>
        <time>2019-05-01T07:25:36.000Z</time>
      </trkpt>
      <trkpt lat="45.2454" lon="6.14791">
        <ele>2467.6000976562</ele>
        <time>2019-05-01T07:25:37.000Z</time>
      </trkpt>
      <trkpt lat="45.24541" lon="6.14787">
        <ele>2468.3999023438</ele>
        <time>2019-05-01T07:25:41.000Z</time>
      </trkpt>
      <trkpt lat="45.24541" lon="6.14786">
        <ele>2468.6000976562</ele>
        <time>2019-05-01T07:25:42.000Z</time>
      </trkpt>
      <trkpt lat="45.24543" lon="6.14783">
        <ele>2469.1999511719</ele>
        <time>2019-05-01T07:25:46.000Z</time>
      </trkpt>
      <trkpt lat="45.24544" lon="6.14779">
        <ele>2469.6000976562</ele>
        <time>2019-05-01T07:25:50.000Z</time>
      </trkpt>
      <trkpt lat="45.24544" lon="6.14778">
        <ele>2469.8000488281</ele>
        <time>2019-05-01T07:25:51.000Z</time>
      </trkpt>
      <trkpt lat="45.24545" lon="6.14775">
        <ele>2470.6000976562</ele>
        <time>2019-05-01T07:25:55.000Z</time>
      </trkpt>
      <trkpt lat="45.24546" lon="6.14775">
        <ele>2470.8000488281</ele>
        <time>2019-05-01T07:25:56.000Z</time>
      </trkpt>
      <trkpt lat="45.24548" lon="6.14772">
        <ele>2471.8000488281</ele>
        <time>2019-05-01T07:26:01.000Z</time>
      </trkpt>
      <trkpt lat="45.24551" lon="6.1477">
        <ele>2472.8000488281</ele>
        <time>2019-05-01T07:26:05.000Z</time>
      </trkpt>
      <trkpt lat="45.24554" lon="6.14769">
        <ele>2473.6000976562</ele>
        <time>2019-05-01T07:26:09.000Z</time>
      </trkpt>
      <trkpt lat="45.24554" lon="6.14769">
        <ele>2473.8000488281</ele>
        <time>2019-05-01T07:26:10.000Z</time>
      </trkpt>
      <trkpt lat="45.24557" lon="6.14768">
        <ele>2474.8000488281</ele>
        <time>2019-05-01T07:26:14.000Z</time>
      </trkpt>
      <trkpt lat="45.24558" lon="6.14768">
        <ele>2475.1999511719</ele>
        <time>2019-05-01T07:26:16.000Z</time>
      </trkpt>
      <trkpt lat="45.2456" lon="6.14767">
        <ele>2476</ele>
        <time>2019-05-01T07:26:19.000Z</time>
      </trkpt>
      <trkpt lat="45.24561" lon="6.14766">
        <ele>2476.3999023438</ele>
        <time>2019-05-01T07:26:22.000Z</time>
      </trkpt>
      <trkpt lat="45.24562" lon="6.14766">
        <ele>2477.1999511719</ele>
        <time>2019-05-01T07:26:25.000Z</time>
      </trkpt>
      <trkpt lat="45.24565" lon="6.14766">
        <ele>2477.6000976562</ele>
        <time>2019-05-01T07:26:28.000Z</time>
      </trkpt>
      <trkpt lat="45.24566" lon="6.14766">
        <ele>2478.1999511719</ele>
        <time>2019-05-01T07:26:30.000Z</time>
      </trkpt>
      <trkpt lat="45.24568" lon="6.14766">
        <ele>2478.8000488281</ele>
        <time>2019-05-01T07:26:33.000Z</time>
      </trkpt>
      <trkpt lat="45.24569" lon="6.14766">
        <ele>2479.3999023438</ele>
        <time>2019-05-01T07:26:35.000Z</time>
      </trkpt>
      <trkpt lat="45.24571" lon="6.14766">
        <ele>2479.8000488281</ele>
        <time>2019-05-01T07:26:38.000Z</time>
      </trkpt>
      <trkpt lat="45.24572" lon="6.14764">
        <ele>2480.3999023438</ele>
        <time>2019-05-01T07:26:41.000Z</time>
      </trkpt>
      <trkpt lat="45.24573" lon="6.14762">
        <ele>2481</ele>
        <time>2019-05-01T07:26:44.000Z</time>
      </trkpt>
      <trkpt lat="45.24572" lon="6.14759">
        <ele>2481.6000976562</ele>
        <time>2019-05-01T07:26:46.000Z</time>
      </trkpt>
      <trkpt lat="45.24572" lon="6.14758">
        <ele>2482.1999511719</ele>
        <time>2019-05-01T07:26:49.000Z</time>
      </trkpt>
      <trkpt lat="45.24573" lon="6.14757">
        <ele>2482.6000976562</ele>
        <time>2019-05-01T07:26:52.000Z</time>
      </trkpt>
      <trkpt lat="45.24572" lon="6.14756">
        <ele>2482.8000488281</ele>
        <time>2019-05-01T07:26:53.000Z</time>
      </trkpt>
      <trkpt lat="45.24572" lon="6.14751">
        <ele>2483.8000488281</ele>
        <time>2019-05-01T07:26:58.000Z</time>
      </trkpt>
      <trkpt lat="45.24572" lon="6.14746">
        <ele>2484.8000488281</ele>
        <time>2019-05-01T07:27:03.000Z</time>
      </trkpt>
      <trkpt lat="45.24571" lon="6.14743">
        <ele>2485.6000976562</ele>
        <time>2019-05-01T07:27:07.000Z</time>
      </trkpt>
      <trkpt lat="45.2457" lon="6.14742">
        <ele>2485.8000488281</ele>
        <time>2019-05-01T07:27:09.000Z</time>
      </trkpt>
      <trkpt lat="45.2457" lon="6.1474">
        <ele>2486.1999511719</ele>
        <time>2019-05-01T07:27:11.000Z</time>
      </trkpt>
      <trkpt lat="45.2457" lon="6.1474">
        <ele>2486.3999023438</ele>
        <time>2019-05-01T07:27:12.000Z</time>
      </trkpt>
      <trkpt lat="45.24569" lon="6.14738">
        <ele>2486.8000488281</ele>
        <time>2019-05-01T07:27:15.000Z</time>
      </trkpt>
      <trkpt lat="45.24569" lon="6.14736">
        <ele>2487.3999023438</ele>
        <time>2019-05-01T07:27:17.000Z</time>
      </trkpt>
      <trkpt lat="45.24568" lon="6.14733">
        <ele>2488</ele>
        <time>2019-05-01T07:27:19.000Z</time>
      </trkpt>
      <trkpt lat="45.24568" lon="6.14732">
        <ele>2488.3999023438</ele>
        <time>2019-05-01T07:27:21.000Z</time>
      </trkpt>
      <trkpt lat="45.24567" lon="6.1473">
        <ele>2489</ele>
        <time>2019-05-01T07:27:24.000Z</time>
      </trkpt>
      <trkpt lat="45.24567" lon="6.14728">
        <ele>2489.6000976562</ele>
        <time>2019-05-01T07:27:27.000Z</time>
      </trkpt>
      <trkpt lat="45.24567" lon="6.14726">
        <ele>2490.1999511719</ele>
        <time>2019-05-01T07:27:30.000Z</time>
      </trkpt>
      <trkpt lat="45.24566" lon="6.14725">
        <ele>2490.3999023438</ele>
        <time>2019-05-01T07:27:31.000Z</time>
      </trkpt>
      <trkpt lat="45.24565" lon="6.14722">
        <ele>2491.1999511719</ele>
        <time>2019-05-01T07:27:35.000Z</time>
      </trkpt>
      <trkpt lat="45.24565" lon="6.14721">
        <ele>2491.3999023438</ele>
        <time>2019-05-01T07:27:36.000Z</time>
      </trkpt>
      <trkpt lat="45.24564" lon="6.14718">
        <ele>2492.6000976562</ele>
        <time>2019-05-01T07:27:41.000Z</time>
      </trkpt>
      <trkpt lat="45.24563" lon="6.14716">
        <ele>2493.3999023438</ele>
        <time>2019-05-01T07:27:46.000Z</time>
      </trkpt>
      <trkpt lat="45.24563" lon="6.14716">
        <ele>2493.6000976562</ele>
        <time>2019-05-01T07:27:47.000Z</time>
      </trkpt>
      <trkpt lat="45.24563" lon="6.14712">
        <ele>2494.1999511719</ele>
        <time>2019-05-01T07:27:50.000Z</time>
      </trkpt>
      <trkpt lat="45.24563" lon="6.14712">
        <ele>2494.6000976562</ele>
        <time>2019-05-01T07:27:52.000Z</time>
      </trkpt>
      <trkpt lat="45.24563" lon="6.14712">
        <ele>2494.8000488281</ele>
        <time>2019-05-01T07:27:53.000Z</time>
      </trkpt>
      <trkpt lat="45.24563" lon="6.14712">
        <ele>2495.8000488281</ele>
        <time>2019-05-01T07:28:05.000Z</time>
      </trkpt>
      <trkpt lat="45.24563" lon="6.1471">
        <ele>2495.8000488281</ele>
        <time>2019-05-01T07:28:09.000Z</time>
      </trkpt>
      <trkpt lat="45.24563" lon="6.14709">
        <ele>2496</ele>
        <time>2019-05-01T07:28:11.000Z</time>
      </trkpt>
      <trkpt lat="45.24564" lon="6.14708">
        <ele>2496.6000976562</ele>
        <time>2019-05-01T07:28:13.000Z</time>
      </trkpt>
      <trkpt lat="45.24564" lon="6.14705">
        <ele>2497.1999511719</ele>
        <time>2019-05-01T07:28:16.000Z</time>
      </trkpt>
      <trkpt lat="45.24565" lon="6.14703">
        <ele>2497.6000976562</ele>
        <time>2019-05-01T07:28:18.000Z</time>
      </trkpt>
      <trkpt lat="45.24565" lon="6.14701">
        <ele>2498.1999511719</ele>
        <time>2019-05-01T07:28:21.000Z</time>
      </trkpt>
      <trkpt lat="45.24565" lon="6.14701">
        <ele>2498.6000976562</ele>
        <time>2019-05-01T07:28:24.000Z</time>
      </trkpt>
      <trkpt lat="45.24565" lon="6.147">
        <ele>2499</ele>
        <time>2019-05-01T07:28:27.000Z</time>
      </trkpt>
      <trkpt lat="45.24566" lon="6.14699">
        <ele>2499.1999511719</ele>
        <time>2019-05-01T07:28:29.000Z</time>
      </trkpt>
      <trkpt lat="45.24568" lon="6.14698">
        <ele>2499.6000976562</ele>
        <time>2019-05-01T07:28:34.000Z</time>
      </trkpt>
      <trkpt lat="45.2457" lon="6.14698">
        <ele>2500.3999023438</ele>
        <time>2019-05-01T07:28:38.000Z</time>
      </trkpt>
      <trkpt lat="45.24571" lon="6.14698">
        <ele>2500.6000976562</ele>
        <time>2019-05-01T07:28:39.000Z</time>
      </trkpt>
      <trkpt lat="45.24573" lon="6.14699">
        <ele>2501.3999023438</ele>
        <time>2019-05-01T07:28:43.000Z</time>
      </trkpt>
      <trkpt lat="45.24576" lon="6.14699">
        <ele>2502.6000976562</ele>
        <time>2019-05-01T07:28:48.000Z</time>
      </trkpt>
      <trkpt lat="45.24578" lon="6.14699">
        <ele>2503.3999023438</ele>
        <time>2019-05-01T07:28:52.000Z</time>
      </trkpt>
      <trkpt lat="45.24578" lon="6.14699">
        <ele>2503.6000976562</ele>
        <time>2019-05-01T07:28:53.000Z</time>
      </trkpt>
      <trkpt lat="45.24581" lon="6.14698">
        <ele>2504.6000976562</ele>
        <time>2019-05-01T07:28:57.000Z</time>
      </trkpt>
      <trkpt lat="45.24582" lon="6.14698">
        <ele>2504.8000488281</ele>
        <time>2019-05-01T07:28:58.000Z</time>
      </trkpt>
      <trkpt lat="45.24583" lon="6.14698">
        <ele>2505</ele>
        <time>2019-05-01T07:28:59.000Z</time>
      </trkpt>
      <trkpt lat="45.24584" lon="6.14698">
        <ele>2505.6000976562</ele>
        <time>2019-05-01T07:29:02.000Z</time>
      </trkpt>
      <trkpt lat="45.24584" lon="6.14698">
        <ele>2505.8000488281</ele>
        <time>2019-05-01T07:29:03.000Z</time>
      </trkpt>
      <trkpt lat="45.24586" lon="6.14696">
        <ele>2506.8000488281</ele>
        <time>2019-05-01T07:29:07.000Z</time>
      </trkpt>
      <trkpt lat="45.24587" lon="6.14695">
        <ele>2507</ele>
        <time>2019-05-01T07:29:08.000Z</time>
      </trkpt>
      <trkpt lat="45.24587" lon="6.14693">
        <ele>2507.1999511719</ele>
        <time>2019-05-01T07:29:09.000Z</time>
      </trkpt>
      <trkpt lat="45.24588" lon="6.14691">
        <ele>2507.8000488281</ele>
        <time>2019-05-01T07:29:12.000Z</time>
      </trkpt>
      <trkpt lat="45.24589" lon="6.14689">
        <ele>2508.1999511719</ele>
        <time>2019-05-01T07:29:14.000Z</time>
      </trkpt>
      <trkpt lat="45.2459" lon="6.14687">
        <ele>2509.1999511719</ele>
        <time>2019-05-01T07:29:18.000Z</time>
      </trkpt>
      <trkpt lat="45.2459" lon="6.14685">
        <ele>2509.1999511719</ele>
        <time>2019-05-01T07:29:19.000Z</time>
      </trkpt>
      <trkpt lat="45.2459" lon="6.14684">
        <ele>2509.8000488281</ele>
        <time>2019-05-01T07:29:22.000Z</time>
      </trkpt>
      <trkpt lat="45.24591" lon="6.14682">
        <ele>2510.3999023438</ele>
        <time>2019-05-01T07:29:25.000Z</time>
      </trkpt>
      <trkpt lat="45.24592" lon="6.1468">
        <ele>2510.6000976562</ele>
        <time>2019-05-01T07:29:27.000Z</time>
      </trkpt>
      <trkpt lat="45.24592" lon="6.14679">
        <ele>2511.3999023438</ele>
        <time>2019-05-01T07:29:30.000Z</time>
      </trkpt>
      <trkpt lat="45.24593" lon="6.14678">
        <ele>2511.8000488281</ele>
        <time>2019-05-01T07:29:32.000Z</time>
      </trkpt>
      <trkpt lat="45.24593" lon="6.14677">
        <ele>2512.3999023438</ele>
        <time>2019-05-01T07:29:35.000Z</time>
      </trkpt>
      <trkpt lat="45.24593" lon="6.14675">
        <ele>2512.8000488281</ele>
        <time>2019-05-01T07:29:37.000Z</time>
      </trkpt>
      <trkpt lat="45.24594" lon="6.14671">
        <ele>2513.8000488281</ele>
        <time>2019-05-01T07:29:41.000Z</time>
      </trkpt>
      <trkpt lat="45.24594" lon="6.14671">
        <ele>2514</ele>
        <time>2019-05-01T07:29:42.000Z</time>
      </trkpt>
      <trkpt lat="45.24595" lon="6.14668">
        <ele>2514.8000488281</ele>
        <time>2019-05-01T07:29:46.000Z</time>
      </trkpt>
      <trkpt lat="45.24595" lon="6.14667">
        <ele>2515</ele>
        <time>2019-05-01T07:29:47.000Z</time>
      </trkpt>
      <trkpt lat="45.24595" lon="6.14663">
        <ele>2515.6000976562</ele>
        <time>2019-05-01T07:29:51.000Z</time>
      </trkpt>
      <trkpt lat="45.24596" lon="6.14662">
        <ele>2516</ele>
        <time>2019-05-01T07:29:53.000Z</time>
      </trkpt>
      <trkpt lat="45.24596" lon="6.14661">
        <ele>2516.3999023438</ele>
        <time>2019-05-01T07:29:55.000Z</time>
      </trkpt>
      <trkpt lat="45.24597" lon="6.14658">
        <ele>2517</ele>
        <time>2019-05-01T07:29:58.000Z</time>
      </trkpt>
      <trkpt lat="45.24597" lon="6.14656">
        <ele>2517.3999023438</ele>
        <time>2019-05-01T07:30:00.000Z</time>
      </trkpt>
      <trkpt lat="45.24598" lon="6.14655">
        <ele>2518</ele>
        <time>2019-05-01T07:30:03.000Z</time>
      </trkpt>
      <trkpt lat="45.24598" lon="6.14655">
        <ele>2518.8000488281</ele>
        <time>2019-05-01T07:30:07.000Z</time>
      </trkpt>
      <trkpt lat="45.24597" lon="6.14653">
        <ele>2518.8000488281</ele>
        <time>2019-05-01T07:30:12.000Z</time>
      </trkpt>
      <trkpt lat="45.24596" lon="6.14651">
        <ele>2519</ele>
        <time>2019-05-01T07:30:14.000Z</time>
      </trkpt>
      <trkpt lat="45.24594" lon="6.14648">
        <ele>2519.1999511719</ele>
        <time>2019-05-01T07:30:17.000Z</time>
      </trkpt>
      <trkpt lat="45.24592" lon="6.14646">
        <ele>2519.3999023438</ele>
        <time>2019-05-01T07:30:19.000Z</time>
      </trkpt>
      <trkpt lat="45.24587" lon="6.14641">
        <ele>2519.8000488281</ele>
        <time>2019-05-01T07:30:24.000Z</time>
      </trkpt>
      <trkpt lat="45.24586" lon="6.14639">
        <ele>2520</ele>
        <time>2019-05-01T07:30:26.000Z</time>
      </trkpt>
      <trkpt lat="45.24584" lon="6.14636">
        <ele>2520.1999511719</ele>
        <time>2019-05-01T07:30:30.000Z</time>
      </trkpt>
      <trkpt lat="45.24584" lon="6.14636">
        <ele>2520.1999511719</ele>
        <time>2019-05-01T07:30:31.000Z</time>
      </trkpt>
      <trkpt lat="45.24583" lon="6.14635">
        <ele>2520.3999023438</ele>
        <time>2019-05-01T07:30:37.000Z</time>
      </trkpt>
      <trkpt lat="45.24582" lon="6.14633">
        <ele>2520.3999023438</ele>
        <time>2019-05-01T07:30:44.000Z</time>
      </trkpt>
      <trkpt lat="45.24577" lon="6.14627">
        <ele>2520.3999023438</ele>
        <time>2019-05-01T07:30:50.000Z</time>
      </trkpt>
      <trkpt lat="45.2457" lon="6.14623">
        <ele>2519.8000488281</ele>
        <time>2019-05-01T07:30:56.000Z</time>
      </trkpt>
      <trkpt lat="45.24564" lon="6.1462">
        <ele>2519</ele>
        <time>2019-05-01T07:31:00.000Z</time>
      </trkpt>
      <trkpt lat="45.24558" lon="6.14617">
        <ele>2517.8000488281</ele>
        <time>2019-05-01T07:31:03.000Z</time>
      </trkpt>
      <trkpt lat="45.24557" lon="6.14615">
        <ele>2517.1999511719</ele>
        <time>2019-05-01T07:31:04.000Z</time>
      </trkpt>
      <trkpt lat="45.24556" lon="6.14614">
        <ele>2516.1999511719</ele>
        <time>2019-05-01T07:31:06.000Z</time>
      </trkpt>
      <trkpt lat="45.24556" lon="6.14614">
        <ele>2515.1999511719</ele>
        <time>2019-05-01T07:31:09.000Z</time>
      </trkpt>
      <trkpt lat="45.24556" lon="6.14613">
        <ele>2515</ele>
        <time>2019-05-01T07:31:15.000Z</time>
      </trkpt>
      <trkpt lat="45.24556" lon="6.14613">
        <ele>2514.8000488281</ele>
        <time>2019-05-01T07:31:28.000Z</time>
      </trkpt>
      <trkpt lat="45.24556" lon="6.14613">
        <ele>2514.8000488281</ele>
        <time>2019-05-01T07:31:34.000Z</time>
      </trkpt>
      <trkpt lat="45.24556" lon="6.14613">
        <ele>2514.8000488281</ele>
        <time>2019-05-01T07:31:45.000Z</time>
      </trkpt>
      <trkpt lat="45.24556" lon="6.14613">
        <ele>2514.8000488281</ele>
        <time>2019-05-01T07:31:54.000Z</time>
      </trkpt>
      <trkpt lat="45.24556" lon="6.14613">
        <ele>2514.6000976562</ele>
        <time>2019-05-01T07:32:03.000Z</time>
      </trkpt>
      <trkpt lat="45.24556" lon="6.14613">
        <ele>2514.6000976562</ele>
        <time>2019-05-01T07:32:18.000Z</time>
      </trkpt>
      <trkpt lat="45.24556" lon="6.14613">
        <ele>2514.6000976562</ele>
        <time>2019-05-01T07:32:35.000Z</time>
      </trkpt>
      <trkpt lat="45.24556" lon="6.14613">
        <ele>2514.6000976562</ele>
        <time>2019-05-01T07:32:49.000Z</time>
      </trkpt>
      <trkpt lat="45.24556" lon="6.14613">
        <ele>2514.6000976562</ele>
        <time>2019-05-01T07:33:03.000Z</time>
      </trkpt>
      <trkpt lat="45.24556" lon="6.14613">
        <ele>2514.6000976562</ele>
        <time>2019-05-01T07:33:13.000Z</time>
      </trkpt>
      <trkpt lat="45.24556" lon="6.14613">
        <ele>2514.6000976562</ele>
        <time>2019-05-01T07:33:23.000Z</time>
      </trkpt>
      <trkpt lat="45.24556" lon="6.14613">
        <ele>2514.6000976562</ele>
        <time>2019-05-01T07:33:33.000Z</time>
      </trkpt>
      <trkpt lat="45.24556" lon="6.14613">
        <ele>2514.6000976562</ele>
        <time>2019-05-01T07:33:40.000Z</time>
      </trkpt>
      <trkpt lat="45.24556" lon="6.14613">
        <ele>2514.3999023438</ele>
        <time>2019-05-01T07:33:45.000Z</time>
      </trkpt>
      <trkpt lat="45.24556" lon="6.14613">
        <ele>2514.3999023438</ele>
        <time>2019-05-01T07:33:57.000Z</time>
      </trkpt>
      <trkpt lat="45.24557" lon="6.14612">
        <ele>2514.3999023438</ele>
        <time>2019-05-01T07:34:02.000Z</time>
      </trkpt>
      <trkpt lat="45.24557" lon="6.14612">
        <ele>2514.8000488281</ele>
        <time>2019-05-01T07:34:13.000Z</time>
      </trkpt>
      <trkpt lat="45.24558" lon="6.14611">
        <ele>2514.8000488281</ele>
        <time>2019-05-01T07:34:27.000Z</time>
      </trkpt>
      <trkpt lat="45.24562" lon="6.14606">
        <ele>2515.3999023438</ele>
        <time>2019-05-01T07:34:32.000Z</time>
      </trkpt>
      <trkpt lat="45.24564" lon="6.14604">
        <ele>2516.1999511719</ele>
        <time>2019-05-01T07:34:35.000Z</time>
      </trkpt>
      <trkpt lat="45.24565" lon="6.14603">
        <ele>2516.8000488281</ele>
        <time>2019-05-01T07:34:37.000Z</time>
      </trkpt>
      <trkpt lat="45.24567" lon="6.146">
        <ele>2517.3999023438</ele>
        <time>2019-05-01T07:34:40.000Z</time>
      </trkpt>
      <trkpt lat="45.24569" lon="6.14598">
        <ele>2518.3999023438</ele>
        <time>2019-05-01T07:34:43.000Z</time>
      </trkpt>
      <trkpt lat="45.24569" lon="6.14597">
        <ele>2518.6000976562</ele>
        <time>2019-05-01T07:34:44.000Z</time>
      </trkpt>
      <trkpt lat="45.2457" lon="6.14595">
        <ele>2519</ele>
        <time>2019-05-01T07:34:46.000Z</time>
      </trkpt>
      <trkpt lat="45.24571" lon="6.14595">
        <ele>2519.3999023438</ele>
        <time>2019-05-01T07:34:48.000Z</time>
      </trkpt>
      <trkpt lat="45.24571" lon="6.14593">
        <ele>2519.6000976562</ele>
        <time>2019-05-01T07:34:49.000Z</time>
      </trkpt>
      <trkpt lat="45.24572" lon="6.14591">
        <ele>2520.3999023438</ele>
        <time>2019-05-01T07:34:52.000Z</time>
      </trkpt>
      <trkpt lat="45.24572" lon="6.1459">
        <ele>2520.6000976562</ele>
        <time>2019-05-01T07:34:53.000Z</time>
      </trkpt>
      <trkpt lat="45.24573" lon="6.14589">
        <ele>2521</ele>
        <time>2019-05-01T07:34:54.000Z</time>
      </trkpt>
      <trkpt lat="45.24574" lon="6.14588">
        <ele>2521.6000976562</ele>
        <time>2019-05-01T07:34:57.000Z</time>
      </trkpt>
      <trkpt lat="45.24574" lon="6.14588">
        <ele>2522</ele>
        <time>2019-05-01T07:34:59.000Z</time>
      </trkpt>
      <trkpt lat="45.24574" lon="6.14587">
        <ele>2522.3999023438</ele>
        <time>2019-05-01T07:35:05.000Z</time>
      </trkpt>
      <trkpt lat="45.24575" lon="6.14584">
        <ele>2522.8000488281</ele>
        <time>2019-05-01T07:35:10.000Z</time>
      </trkpt>
      <trkpt lat="45.24576" lon="6.14583">
        <ele>2523.1999511719</ele>
        <time>2019-05-01T07:35:12.000Z</time>
      </trkpt>
      <trkpt lat="45.24577" lon="6.14581">
        <ele>2523.8000488281</ele>
        <time>2019-05-01T07:35:15.000Z</time>
      </trkpt>
      <trkpt lat="45.24578" lon="6.1458">
        <ele>2524.1999511719</ele>
        <time>2019-05-01T07:35:17.000Z</time>
      </trkpt>
      <trkpt lat="45.2458" lon="6.14579">
        <ele>2524.6000976562</ele>
        <time>2019-05-01T07:35:19.000Z</time>
      </trkpt>
      <trkpt lat="45.24582" lon="6.14576">
        <ele>2525.1999511719</ele>
        <time>2019-05-01T07:35:22.000Z</time>
      </trkpt>
      <trkpt lat="45.24582" lon="6.14576">
        <ele>2525.3999023438</ele>
        <time>2019-05-01T07:35:23.000Z</time>
      </trkpt>
      <trkpt lat="45.24583" lon="6.14573">
        <ele>2526</ele>
        <time>2019-05-01T07:35:27.000Z</time>
      </trkpt>
      <trkpt lat="45.24585" lon="6.1457">
        <ele>2526.3999023438</ele>
        <time>2019-05-01T07:35:29.000Z</time>
      </trkpt>
      <trkpt lat="45.24585" lon="6.14569">
        <ele>2526.8000488281</ele>
        <time>2019-05-01T07:35:32.000Z</time>
      </trkpt>
      <trkpt lat="45.24586" lon="6.14566">
        <ele>2527.3999023438</ele>
        <time>2019-05-01T07:35:35.000Z</time>
      </trkpt>
      <trkpt lat="45.24586" lon="6.14566">
        <ele>2527.6000976562</ele>
        <time>2019-05-01T07:35:36.000Z</time>
      </trkpt>
      <trkpt lat="45.24587" lon="6.14565">
        <ele>2528.6000976562</ele>
        <time>2019-05-01T07:35:41.000Z</time>
      </trkpt>
      <trkpt lat="45.24588" lon="6.14563">
        <ele>2529.6000976562</ele>
        <time>2019-05-01T07:35:45.000Z</time>
      </trkpt>
      <trkpt lat="45.24588" lon="6.14563">
        <ele>2529.8000488281</ele>
        <time>2019-05-01T07:35:46.000Z</time>
      </trkpt>
      <trkpt lat="45.24589" lon="6.14561">
        <ele>2530.6000976562</ele>
        <time>2019-05-01T07:35:50.000Z</time>
      </trkpt>
      <trkpt lat="45.2459" lon="6.1456">
        <ele>2530.8000488281</ele>
        <time>2019-05-01T07:35:51.000Z</time>
      </trkpt>
      <trkpt lat="45.24592" lon="6.14557">
        <ele>2531.6000976562</ele>
        <time>2019-05-01T07:35:55.000Z</time>
      </trkpt>
      <trkpt lat="45.24593" lon="6.14556">
        <ele>2531.8000488281</ele>
        <time>2019-05-01T07:35:57.000Z</time>
      </trkpt>
      <trkpt lat="45.24595" lon="6.14553">
        <ele>2532.3999023438</ele>
        <time>2019-05-01T07:36:00.000Z</time>
      </trkpt>
      <trkpt lat="45.24596" lon="6.14552">
        <ele>2533</ele>
        <time>2019-05-01T07:36:03.000Z</time>
      </trkpt>
      <trkpt lat="45.24597" lon="6.1455">
        <ele>2533.3999023438</ele>
        <time>2019-05-01T07:36:05.000Z</time>
      </trkpt>
      <trkpt lat="45.24598" lon="6.14548">
        <ele>2534</ele>
        <time>2019-05-01T07:36:07.000Z</time>
      </trkpt>
      <trkpt lat="45.24599" lon="6.14547">
        <ele>2534.3999023438</ele>
        <time>2019-05-01T07:36:10.000Z</time>
      </trkpt>
      <trkpt lat="45.24599" lon="6.14546">
        <ele>2535</ele>
        <time>2019-05-01T07:36:13.000Z</time>
      </trkpt>
      <trkpt lat="45.246" lon="6.14544">
        <ele>2535.3999023438</ele>
        <time>2019-05-01T07:36:15.000Z</time>
      </trkpt>
      <trkpt lat="45.24601" lon="6.14541">
        <ele>2536</ele>
        <time>2019-05-01T07:36:18.000Z</time>
      </trkpt>
      <trkpt lat="45.24602" lon="6.14539">
        <ele>2536.3999023438</ele>
        <time>2019-05-01T07:36:20.000Z</time>
      </trkpt>
      <trkpt lat="45.24602" lon="6.14538">
        <ele>2537.1999511719</ele>
        <time>2019-05-01T07:36:24.000Z</time>
      </trkpt>
      <trkpt lat="45.24602" lon="6.14538">
        <ele>2537.3999023438</ele>
        <time>2019-05-01T07:36:25.000Z</time>
      </trkpt>
      <trkpt lat="45.24603" lon="6.14536">
        <ele>2537.3999023438</ele>
        <time>2019-05-01T07:36:26.000Z</time>
      </trkpt>
      <trkpt lat="45.24604" lon="6.14532">
        <ele>2538.3999023438</ele>
        <time>2019-05-01T07:36:30.000Z</time>
      </trkpt>
      <trkpt lat="45.24606" lon="6.14524">
        <ele>2539.8000488281</ele>
        <time>2019-05-01T07:36:36.000Z</time>
      </trkpt>
      <trkpt lat="45.24606" lon="6.14523">
        <ele>2540.6000976562</ele>
        <time>2019-05-01T07:36:41.000Z</time>
      </trkpt>
      <trkpt lat="45.24606" lon="6.14523">
        <ele>2540.8000488281</ele>
        <time>2019-05-01T07:36:42.000Z</time>
      </trkpt>
      <trkpt lat="45.24608" lon="6.14521">
        <ele>2541.6000976562</ele>
        <time>2019-05-01T07:36:46.000Z</time>
      </trkpt>
      <trkpt lat="45.24608" lon="6.14521">
        <ele>2541.8000488281</ele>
        <time>2019-05-01T07:36:47.000Z</time>
      </trkpt>
      <trkpt lat="45.2461" lon="6.14518">
        <ele>2542.6000976562</ele>
        <time>2019-05-01T07:36:51.000Z</time>
      </trkpt>
      <trkpt lat="45.2461" lon="6.14518">
        <ele>2542.8000488281</ele>
        <time>2019-05-01T07:36:52.000Z</time>
      </trkpt>
      <trkpt lat="45.24612" lon="6.14515">
        <ele>2543.3999023438</ele>
        <time>2019-05-01T07:36:56.000Z</time>
      </trkpt>
      <trkpt lat="45.24613" lon="6.14514">
        <ele>2544</ele>
        <time>2019-05-01T07:36:58.000Z</time>
      </trkpt>
      <trkpt lat="45.24614" lon="6.14511">
        <ele>2544.3999023438</ele>
        <time>2019-05-01T07:37:01.000Z</time>
      </trkpt>
      <trkpt lat="45.24617" lon="6.14507">
        <ele>2545.1999511719</ele>
        <time>2019-05-01T07:37:05.000Z</time>
      </trkpt>
      <trkpt lat="45.24617" lon="6.14507">
        <ele>2546.1999511719</ele>
        <time>2019-05-01T07:37:10.000Z</time>
      </trkpt>
      <trkpt lat="45.24617" lon="6.14507">
        <ele>2547.1999511719</ele>
        <time>2019-05-01T07:37:15.000Z</time>
      </trkpt>
      <trkpt lat="45.24617" lon="6.14507">
        <ele>2548.1999511719</ele>
        <time>2019-05-01T07:37:20.000Z</time>
      </trkpt>
      <trkpt lat="45.24617" lon="6.14507">
        <ele>2548.3999023438</ele>
        <time>2019-05-01T07:37:21.000Z</time>
      </trkpt>
      <trkpt lat="45.24617" lon="6.14507">
        <ele>2549.1999511719</ele>
        <time>2019-05-01T07:37:25.000Z</time>
      </trkpt>
      <trkpt lat="45.24617" lon="6.14507">
        <ele>2549.6000976562</ele>
        <time>2019-05-01T07:37:27.000Z</time>
      </trkpt>
      <trkpt lat="45.24617" lon="6.14507">
        <ele>2550.1999511719</ele>
        <time>2019-05-01T07:37:30.000Z</time>
      </trkpt>
      <trkpt lat="45.24618" lon="6.14506">
        <ele>2550.6000976562</ele>
        <time>2019-05-01T07:37:32.000Z</time>
      </trkpt>
      <trkpt lat="45.24618" lon="6.14506">
        <ele>2551.1999511719</ele>
        <time>2019-05-01T07:37:35.000Z</time>
      </trkpt>
      <trkpt lat="45.24618" lon="6.14506">
        <ele>2551.8000488281</ele>
        <time>2019-05-01T07:37:38.000Z</time>
      </trkpt>
      <trkpt lat="45.24618" lon="6.14506">
        <ele>2552.8000488281</ele>
        <time>2019-05-01T07:37:42.000Z</time>
      </trkpt>
      <trkpt lat="45.24618" lon="6.14506">
        <ele>2553.8000488281</ele>
        <time>2019-05-01T07:37:49.000Z</time>
      </trkpt>
      <trkpt lat="45.24618" lon="6.14506">
        <ele>2554</ele>
        <time>2019-05-01T07:37:50.000Z</time>
      </trkpt>
      <trkpt lat="45.24618" lon="6.14506">
        <ele>2554.8000488281</ele>
        <time>2019-05-01T07:37:55.000Z</time>
      </trkpt>
      <trkpt lat="45.24618" lon="6.14506">
        <ele>2555</ele>
        <time>2019-05-01T07:37:56.000Z</time>
      </trkpt>
      <trkpt lat="45.24618" lon="6.14506">
        <ele>2555.8000488281</ele>
        <time>2019-05-01T07:38:00.000Z</time>
      </trkpt>
      <trkpt lat="45.24618" lon="6.14506">
        <ele>2556.1999511719</ele>
        <time>2019-05-01T07:38:01.000Z</time>
      </trkpt>
      <trkpt lat="45.24622" lon="6.14499">
        <ele>2557</ele>
        <time>2019-05-01T07:38:06.000Z</time>
      </trkpt>
      <trkpt lat="45.24623" lon="6.14498">
        <ele>2557.1999511719</ele>
        <time>2019-05-01T07:38:07.000Z</time>
      </trkpt>
      <trkpt lat="45.24624" lon="6.14496">
        <ele>2557.6000976562</ele>
        <time>2019-05-01T07:38:11.000Z</time>
      </trkpt>
      <trkpt lat="45.24626" lon="6.14493">
        <ele>2558.1999511719</ele>
        <time>2019-05-01T07:38:15.000Z</time>
      </trkpt>
      <trkpt lat="45.24626" lon="6.14493">
        <ele>2558.3999023438</ele>
        <time>2019-05-01T07:38:16.000Z</time>
      </trkpt>
      <trkpt lat="45.24628" lon="6.1449">
        <ele>2559.3999023438</ele>
        <time>2019-05-01T07:38:20.000Z</time>
      </trkpt>
      <trkpt lat="45.24629" lon="6.14488">
        <ele>2559.6000976562</ele>
        <time>2019-05-01T07:38:21.000Z</time>
      </trkpt>
      <trkpt lat="45.24634" lon="6.14484">
        <ele>2560.6000976562</ele>
        <time>2019-05-01T07:38:26.000Z</time>
      </trkpt>
      <trkpt lat="45.24639" lon="6.1448">
        <ele>2561.6000976562</ele>
        <time>2019-05-01T07:38:30.000Z</time>
      </trkpt>
      <trkpt lat="45.24643" lon="6.14478">
        <ele>2562.1999511719</ele>
        <time>2019-05-01T07:38:33.000Z</time>
      </trkpt>
      <trkpt lat="45.24645" lon="6.14475">
        <ele>2562.6000976562</ele>
        <time>2019-05-01T07:38:36.000Z</time>
      </trkpt>
      <trkpt lat="45.24645" lon="6.14475">
        <ele>2563.1999511719</ele>
        <time>2019-05-01T07:38:38.000Z</time>
      </trkpt>
      <trkpt lat="45.24645" lon="6.14473">
        <ele>2563.8000488281</ele>
        <time>2019-05-01T07:38:41.000Z</time>
      </trkpt>
      <trkpt lat="45.24644" lon="6.14468">
        <ele>2564.6000976562</ele>
        <time>2019-05-01T07:38:45.000Z</time>
      </trkpt>
      <trkpt lat="45.24643" lon="6.14466">
        <ele>2565</ele>
        <time>2019-05-01T07:38:47.000Z</time>
      </trkpt>
      <trkpt lat="45.24643" lon="6.14461">
        <ele>2565.6000976562</ele>
        <time>2019-05-01T07:38:51.000Z</time>
      </trkpt>
      <trkpt lat="45.24642" lon="6.14457">
        <ele>2566.3999023438</ele>
        <time>2019-05-01T07:38:54.000Z</time>
      </trkpt>
      <trkpt lat="45.24641" lon="6.14456">
        <ele>2566.3999023438</ele>
        <time>2019-05-01T07:38:55.000Z</time>
      </trkpt>
      <trkpt lat="45.2464" lon="6.14454">
        <ele>2566.8000488281</ele>
        <time>2019-05-01T07:38:57.000Z</time>
      </trkpt>
      <trkpt lat="45.2464" lon="6.14453">
        <ele>2567.3999023438</ele>
        <time>2019-05-01T07:39:01.000Z</time>
      </trkpt>
      <trkpt lat="45.24639" lon="6.14452">
        <ele>2567.8000488281</ele>
        <time>2019-05-01T07:39:04.000Z</time>
      </trkpt>
      <trkpt lat="45.24636" lon="6.14449">
        <ele>2568.3999023438</ele>
        <time>2019-05-01T07:39:08.000Z</time>
      </trkpt>
      <trkpt lat="45.24635" lon="6.14448">
        <ele>2568.6000976562</ele>
        <time>2019-05-01T07:39:09.000Z</time>
      </trkpt>
      <trkpt lat="45.24632" lon="6.14446">
        <ele>2569.3999023438</ele>
        <time>2019-05-01T07:39:14.000Z</time>
      </trkpt>
      <trkpt lat="45.24632" lon="6.14446">
        <ele>2569.6000976562</ele>
        <time>2019-05-01T07:39:15.000Z</time>
      </trkpt>
      <trkpt lat="45.24633" lon="6.14445">
        <ele>2570.6000976562</ele>
        <time>2019-05-01T07:39:19.000Z</time>
      </trkpt>
      <trkpt lat="45.24634" lon="6.14444">
        <ele>2570.6000976562</ele>
        <time>2019-05-01T07:39:21.000Z</time>
      </trkpt>
      <trkpt lat="45.24635" lon="6.14444">
        <ele>2571</ele>
        <time>2019-05-01T07:39:28.000Z</time>
      </trkpt>
      <trkpt lat="45.24635" lon="6.14444">
        <ele>2571.1999511719</ele>
        <time>2019-05-01T07:39:33.000Z</time>
      </trkpt>
      <trkpt lat="45.24635" lon="6.14444">
        <ele>2571.6000976562</ele>
        <time>2019-05-01T07:39:36.000Z</time>
      </trkpt>
      <trkpt lat="45.24636" lon="6.14443">
        <ele>2571.8000488281</ele>
        <time>2019-05-01T07:39:38.000Z</time>
      </trkpt>
      <trkpt lat="45.24639" lon="6.14441">
        <ele>2572.8000488281</ele>
        <time>2019-05-01T07:39:42.000Z</time>
      </trkpt>
      <trkpt lat="45.2464" lon="6.14441">
        <ele>2573</ele>
        <time>2019-05-01T07:39:43.000Z</time>
      </trkpt>
      <trkpt lat="45.24648" lon="6.14442">
        <ele>2574</ele>
        <time>2019-05-01T07:39:47.000Z</time>
      </trkpt>
      <trkpt lat="45.2465" lon="6.1444">
        <ele>2574.6000976562</ele>
        <time>2019-05-01T07:39:50.000Z</time>
      </trkpt>
      <trkpt lat="45.24652" lon="6.14439">
        <ele>2575</ele>
        <time>2019-05-01T07:39:53.000Z</time>
      </trkpt>
      <trkpt lat="45.24652" lon="6.14439">
        <ele>2575.6000976562</ele>
        <time>2019-05-01T07:39:55.000Z</time>
      </trkpt>
      <trkpt lat="45.24653" lon="6.14439">
        <ele>2576.1999511719</ele>
        <time>2019-05-01T07:39:59.000Z</time>
      </trkpt>
      <trkpt lat="45.24654" lon="6.14439">
        <ele>2576.1999511719</ele>
        <time>2019-05-01T07:40:00.000Z</time>
      </trkpt>
      <trkpt lat="45.24655" lon="6.14439">
        <ele>2576.8000488281</ele>
        <time>2019-05-01T07:40:05.000Z</time>
      </trkpt>
      <trkpt lat="45.24656" lon="6.14439">
        <ele>2577.1999511719</ele>
        <time>2019-05-01T07:40:06.000Z</time>
      </trkpt>
      <trkpt lat="45.24661" lon="6.14435">
        <ele>2578.1999511719</ele>
        <time>2019-05-01T07:40:11.000Z</time>
      </trkpt>
      <trkpt lat="45.24661" lon="6.14435">
        <ele>2579.1999511719</ele>
        <time>2019-05-01T07:40:18.000Z</time>
      </trkpt>
      <trkpt lat="45.24662" lon="6.14436">
        <ele>2579.8000488281</ele>
        <time>2019-05-01T07:40:24.000Z</time>
      </trkpt>
      <trkpt lat="45.24663" lon="6.14437">
        <ele>2580.6000976562</ele>
        <time>2019-05-01T07:40:27.000Z</time>
      </trkpt>
      <trkpt lat="45.24665" lon="6.14437">
        <ele>2581.6000976562</ele>
        <time>2019-05-01T07:40:31.000Z</time>
      </trkpt>
      <trkpt lat="45.24665" lon="6.14437">
        <ele>2581.8000488281</ele>
        <time>2019-05-01T07:40:32.000Z</time>
      </trkpt>
      <trkpt lat="45.24666" lon="6.14438">
        <ele>2582.6000976562</ele>
        <time>2019-05-01T07:40:37.000Z</time>
      </trkpt>
      <trkpt lat="45.24667" lon="6.14436">
        <ele>2583</ele>
        <time>2019-05-01T07:40:40.000Z</time>
      </trkpt>
      <trkpt lat="45.24668" lon="6.14432">
        <ele>2583.3999023438</ele>
        <time>2019-05-01T07:40:45.000Z</time>
      </trkpt>
      <trkpt lat="45.24668" lon="6.14431">
        <ele>2583.6000976562</ele>
        <time>2019-05-01T07:40:46.000Z</time>
      </trkpt>
      <trkpt lat="45.24667" lon="6.14429">
        <ele>2584.3999023438</ele>
        <time>2019-05-01T07:40:50.000Z</time>
      </trkpt>
      <trkpt lat="45.24666" lon="6.14426">
        <ele>2584.6000976562</ele>
        <time>2019-05-01T07:40:52.000Z</time>
      </trkpt>
      <trkpt lat="45.24665" lon="6.14424">
        <ele>2585.3999023438</ele>
        <time>2019-05-01T07:40:55.000Z</time>
      </trkpt>
      <trkpt lat="45.24665" lon="6.14423">
        <ele>2585.8000488281</ele>
        <time>2019-05-01T07:40:57.000Z</time>
      </trkpt>
      <trkpt lat="45.24664" lon="6.1442">
        <ele>2586.3999023438</ele>
        <time>2019-05-01T07:41:00.000Z</time>
      </trkpt>
      <trkpt lat="45.24664" lon="6.14418">
        <ele>2587</ele>
        <time>2019-05-01T07:41:03.000Z</time>
      </trkpt>
      <trkpt lat="45.24664" lon="6.14417">
        <ele>2587.1999511719</ele>
        <time>2019-05-01T07:41:04.000Z</time>
      </trkpt>
      <trkpt lat="45.24662" lon="6.14413">
        <ele>2588</ele>
        <time>2019-05-01T07:41:09.000Z</time>
      </trkpt>
      <trkpt lat="45.24662" lon="6.14413">
        <ele>2588</ele>
        <time>2019-05-01T07:41:10.000Z</time>
      </trkpt>
      <trkpt lat="45.24662" lon="6.1441">
        <ele>2588.8000488281</ele>
        <time>2019-05-01T07:41:14.000Z</time>
      </trkpt>
      <trkpt lat="45.24662" lon="6.14409">
        <ele>2589</ele>
        <time>2019-05-01T07:41:16.000Z</time>
      </trkpt>
      <trkpt lat="45.24663" lon="6.14408">
        <ele>2590</ele>
        <time>2019-05-01T07:41:20.000Z</time>
      </trkpt>
      <trkpt lat="45.24663" lon="6.14407">
        <ele>2590.1999511719</ele>
        <time>2019-05-01T07:41:22.000Z</time>
      </trkpt>
      <trkpt lat="45.24661" lon="6.14403">
        <ele>2591.1999511719</ele>
        <time>2019-05-01T07:41:26.000Z</time>
      </trkpt>
      <trkpt lat="45.24661" lon="6.14403">
        <ele>2591.3999023438</ele>
        <time>2019-05-01T07:41:27.000Z</time>
      </trkpt>
      <trkpt lat="45.24659" lon="6.14398">
        <ele>2592.1999511719</ele>
        <time>2019-05-01T07:41:31.000Z</time>
      </trkpt>
      <trkpt lat="45.24658" lon="6.14397">
        <ele>2592.6000976562</ele>
        <time>2019-05-01T07:41:33.000Z</time>
      </trkpt>
      <trkpt lat="45.24657" lon="6.14393">
        <ele>2593.3999023438</ele>
        <time>2019-05-01T07:41:38.000Z</time>
      </trkpt>
      <trkpt lat="45.24657" lon="6.14392">
        <ele>2593.6000976562</ele>
        <time>2019-05-01T07:41:39.000Z</time>
      </trkpt>
      <trkpt lat="45.24657" lon="6.14392">
        <ele>2594.8000488281</ele>
        <time>2019-05-01T07:41:44.000Z</time>
      </trkpt>
      <trkpt lat="45.24658" lon="6.14392">
        <ele>2594.8000488281</ele>
        <time>2019-05-01T07:41:45.000Z</time>
      </trkpt>
      <trkpt lat="45.24662" lon="6.14394">
        <ele>2595</ele>
        <time>2019-05-01T07:41:52.000Z</time>
      </trkpt>
      <trkpt lat="45.24665" lon="6.144">
        <ele>2595.8000488281</ele>
        <time>2019-05-01T07:41:57.000Z</time>
      </trkpt>
      <trkpt lat="45.24669" lon="6.14398">
        <ele>2596.6000976562</ele>
        <time>2019-05-01T07:42:01.000Z</time>
      </trkpt>
      <trkpt lat="45.24671" lon="6.14399">
        <ele>2597</ele>
        <time>2019-05-01T07:42:03.000Z</time>
      </trkpt>
      <trkpt lat="45.24673" lon="6.144">
        <ele>2598</ele>
        <time>2019-05-01T07:42:08.000Z</time>
      </trkpt>
      <trkpt lat="45.24676" lon="6.144">
        <ele>2599.1999511719</ele>
        <time>2019-05-01T07:42:15.000Z</time>
      </trkpt>
      <trkpt lat="45.24676" lon="6.14399">
        <ele>2599.8000488281</ele>
        <time>2019-05-01T07:42:22.000Z</time>
      </trkpt>
      <trkpt lat="45.24676" lon="6.14397">
        <ele>2600.1999511719</ele>
        <time>2019-05-01T07:42:25.000Z</time>
      </trkpt>
      <trkpt lat="45.24676" lon="6.14396">
        <ele>2600.8000488281</ele>
        <time>2019-05-01T07:42:28.000Z</time>
      </trkpt>
      <trkpt lat="45.24676" lon="6.14395">
        <ele>2601.3999023438</ele>
        <time>2019-05-01T07:42:30.000Z</time>
      </trkpt>
      <trkpt lat="45.24675" lon="6.14393">
        <ele>2601.8000488281</ele>
        <time>2019-05-01T07:42:33.000Z</time>
      </trkpt>
      <trkpt lat="45.24674" lon="6.14389">
        <ele>2602.3999023438</ele>
        <time>2019-05-01T07:42:36.000Z</time>
      </trkpt>
      <trkpt lat="45.24674" lon="6.14388">
        <ele>2603</ele>
        <time>2019-05-01T07:42:38.000Z</time>
      </trkpt>
      <trkpt lat="45.24672" lon="6.14384">
        <ele>2603.6000976562</ele>
        <time>2019-05-01T07:42:42.000Z</time>
      </trkpt>
      <trkpt lat="45.24671" lon="6.14382">
        <ele>2604</ele>
        <time>2019-05-01T07:42:44.000Z</time>
      </trkpt>
      <trkpt lat="45.24668" lon="6.14381">
        <ele>2604.6000976562</ele>
        <time>2019-05-01T07:42:47.000Z</time>
      </trkpt>
      <trkpt lat="45.24668" lon="6.14381">
        <ele>2605.1999511719</ele>
        <time>2019-05-01T07:42:51.000Z</time>
      </trkpt>
      <trkpt lat="45.24669" lon="6.14381">
        <ele>2605.8000488281</ele>
        <time>2019-05-01T07:42:58.000Z</time>
      </trkpt>
      <trkpt lat="45.2467" lon="6.14381">
        <ele>2606</ele>
        <time>2019-05-01T07:42:59.000Z</time>
      </trkpt>
      <trkpt lat="45.24672" lon="6.14381">
        <ele>2607</ele>
        <time>2019-05-01T07:43:04.000Z</time>
      </trkpt>
      <trkpt lat="45.24672" lon="6.14381">
        <ele>2607.1999511719</ele>
        <time>2019-05-01T07:43:05.000Z</time>
      </trkpt>
      <trkpt lat="45.24677" lon="6.14383">
        <ele>2608</ele>
        <time>2019-05-01T07:43:11.000Z</time>
      </trkpt>
      <trkpt lat="45.24677" lon="6.14383">
        <ele>2608.8000488281</ele>
        <time>2019-05-01T07:43:20.000Z</time>
      </trkpt>
      <trkpt lat="45.24677" lon="6.14383">
        <ele>2609</ele>
        <time>2019-05-01T07:43:22.000Z</time>
      </trkpt>
      <trkpt lat="45.24677" lon="6.14381">
        <ele>2609.6000976562</ele>
        <time>2019-05-01T07:43:27.000Z</time>
      </trkpt>
      <trkpt lat="45.24676" lon="6.14378">
        <ele>2610.1999511719</ele>
        <time>2019-05-01T07:43:31.000Z</time>
      </trkpt>
      <trkpt lat="45.24676" lon="6.14377">
        <ele>2610.3999023438</ele>
        <time>2019-05-01T07:43:32.000Z</time>
      </trkpt>
      <trkpt lat="45.24676" lon="6.14377">
        <ele>2611.3999023438</ele>
        <time>2019-05-01T07:43:37.000Z</time>
      </trkpt>
      <trkpt lat="45.24676" lon="6.14377">
        <ele>2612.3999023438</ele>
        <time>2019-05-01T07:43:42.000Z</time>
      </trkpt>
      <trkpt lat="45.24676" lon="6.14377">
        <ele>2612.3999023438</ele>
        <time>2019-05-01T07:43:49.000Z</time>
      </trkpt>
      <trkpt lat="45.24676" lon="6.14377">
        <ele>2612.3999023438</ele>
        <time>2019-05-01T07:43:50.000Z</time>
      </trkpt>
      <trkpt lat="45.24679" lon="6.14375">
        <ele>2613.6000976562</ele>
        <time>2019-05-01T07:43:58.000Z</time>
      </trkpt>
      <trkpt lat="45.24679" lon="6.14375">
        <ele>2613.6000976562</ele>
        <time>2019-05-01T07:44:02.000Z</time>
      </trkpt>
      <trkpt lat="45.24679" lon="6.14373">
        <ele>2613.8000488281</ele>
        <time>2019-05-01T07:44:04.000Z</time>
      </trkpt>
      <trkpt lat="45.24679" lon="6.14372">
        <ele>2614.6000976562</ele>
        <time>2019-05-01T07:44:08.000Z</time>
      </trkpt>
      <trkpt lat="45.24678" lon="6.14371">
        <ele>2615</ele>
        <time>2019-05-01T07:44:10.000Z</time>
      </trkpt>
      <trkpt lat="45.24677" lon="6.14368">
        <ele>2615.6000976562</ele>
        <time>2019-05-01T07:44:14.000Z</time>
      </trkpt>
      <trkpt lat="45.24677" lon="6.14368">
        <ele>2615.8000488281</ele>
        <time>2019-05-01T07:44:15.000Z</time>
      </trkpt>
      <trkpt lat="45.24677" lon="6.14368">
        <ele>2616.8000488281</ele>
        <time>2019-05-01T07:44:22.000Z</time>
      </trkpt>
      <trkpt lat="45.24677" lon="6.14368">
        <ele>2616.6000976562</ele>
        <time>2019-05-01T07:44:33.000Z</time>
      </trkpt>
      <trkpt lat="45.24677" lon="6.14368">
        <ele>2616.8000488281</ele>
        <time>2019-05-01T07:44:50.000Z</time>
      </trkpt>
      <trkpt lat="45.24678" lon="6.14367">
        <ele>2616.6000976562</ele>
        <time>2019-05-01T07:45:06.000Z</time>
      </trkpt>
      <trkpt lat="45.24682" lon="6.14366">
        <ele>2616.8000488281</ele>
        <time>2019-05-01T07:45:12.000Z</time>
      </trkpt>
      <trkpt lat="45.24682" lon="6.14366">
        <ele>2617</ele>
        <time>2019-05-01T07:45:13.000Z</time>
      </trkpt>
      <trkpt lat="45.24682" lon="6.14365">
        <ele>2618</ele>
        <time>2019-05-01T07:45:17.000Z</time>
      </trkpt>
      <trkpt lat="45.24683" lon="6.14365">
        <ele>2618.8000488281</ele>
        <time>2019-05-01T07:45:20.000Z</time>
      </trkpt>
      <trkpt lat="45.24683" lon="6.14365">
        <ele>2619</ele>
        <time>2019-05-01T07:45:22.000Z</time>
      </trkpt>
      <trkpt lat="45.24682" lon="6.14363">
        <ele>2619.3999023438</ele>
        <time>2019-05-01T07:45:26.000Z</time>
      </trkpt>
      <trkpt lat="45.24682" lon="6.14361">
        <ele>2620.1999511719</ele>
        <time>2019-05-01T07:45:31.000Z</time>
      </trkpt>
      <trkpt lat="45.24681" lon="6.14359">
        <ele>2621.3999023438</ele>
        <time>2019-05-01T07:45:36.000Z</time>
      </trkpt>
      <trkpt lat="45.2468" lon="6.14358">
        <ele>2622</ele>
        <time>2019-05-01T07:45:38.000Z</time>
      </trkpt>
      <trkpt lat="45.24678" lon="6.14355">
        <ele>2622.6000976562</ele>
        <time>2019-05-01T07:45:41.000Z</time>
      </trkpt>
      <trkpt lat="45.24677" lon="6.14353">
        <ele>2623.1999511719</ele>
        <time>2019-05-01T07:45:43.000Z</time>
      </trkpt>
      <trkpt lat="45.24677" lon="6.14353">
        <ele>2623.6000976562</ele>
        <time>2019-05-01T07:45:45.000Z</time>
      </trkpt>
      <trkpt lat="45.24677" lon="6.14352">
        <ele>2624.1999511719</ele>
        <time>2019-05-01T07:45:50.000Z</time>
      </trkpt>
      <trkpt lat="45.24677" lon="6.14352">
        <ele>2624</ele>
        <time>2019-05-01T07:46:00.000Z</time>
      </trkpt>
      <trkpt lat="45.24679" lon="6.14352">
        <ele>2624.6000976562</ele>
        <time>2019-05-01T07:46:03.000Z</time>
      </trkpt>
      <trkpt lat="45.24679" lon="6.14352">
        <ele>2625.3999023438</ele>
        <time>2019-05-01T07:46:08.000Z</time>
      </trkpt>
      <trkpt lat="45.24677" lon="6.14349">
        <ele>2626</ele>
        <time>2019-05-01T07:46:13.000Z</time>
      </trkpt>
      <trkpt lat="45.24676" lon="6.14347">
        <ele>2626.1999511719</ele>
        <time>2019-05-01T07:46:15.000Z</time>
      </trkpt>
      <trkpt lat="45.24674" lon="6.14345">
        <ele>2627</ele>
        <time>2019-05-01T07:46:20.000Z</time>
      </trkpt>
      <trkpt lat="45.24674" lon="6.14345">
        <ele>2627.3999023438</ele>
        <time>2019-05-01T07:46:22.000Z</time>
      </trkpt>
      <trkpt lat="45.24676" lon="6.14345">
        <ele>2628.1999511719</ele>
        <time>2019-05-01T07:46:27.000Z</time>
      </trkpt>
      <trkpt lat="45.24678" lon="6.14346">
        <ele>2628.3999023438</ele>
        <time>2019-05-01T07:46:31.000Z</time>
      </trkpt>
      <trkpt lat="45.24679" lon="6.14345">
        <ele>2628.6000976562</ele>
        <time>2019-05-01T07:46:38.000Z</time>
      </trkpt>
      <trkpt lat="45.24679" lon="6.14345">
        <ele>2629.1999511719</ele>
        <time>2019-05-01T07:46:51.000Z</time>
      </trkpt>
      <trkpt lat="45.24679" lon="6.14345">
        <ele>2629.1999511719</ele>
        <time>2019-05-01T07:46:54.000Z</time>
      </trkpt>
      <trkpt lat="45.24679" lon="6.14346">
        <ele>2629.1999511719</ele>
        <time>2019-05-01T07:47:05.000Z</time>
      </trkpt>
      <trkpt lat="45.24679" lon="6.14346">
        <ele>2629.1999511719</ele>
        <time>2019-05-01T07:47:15.000Z</time>
      </trkpt>
      <trkpt lat="45.24679" lon="6.14346">
        <ele>2629.1999511719</ele>
        <time>2019-05-01T07:47:29.000Z</time>
      </trkpt>
      <trkpt lat="45.24679" lon="6.14346">
        <ele>2629</ele>
        <time>2019-05-01T07:47:41.000Z</time>
      </trkpt>
      <trkpt lat="45.24679" lon="6.14346">
        <ele>2628.6000976562</ele>
        <time>2019-05-01T07:47:55.000Z</time>
      </trkpt>
      <trkpt lat="45.24678" lon="6.14346">
        <ele>2628.6000976562</ele>
        <time>2019-05-01T07:48:08.000Z</time>
      </trkpt>
      <trkpt lat="45.24679" lon="6.14347">
        <ele>2628.6000976562</ele>
        <time>2019-05-01T07:48:20.000Z</time>
      </trkpt>
      <trkpt lat="45.24682" lon="6.14348">
        <ele>2628.6000976562</ele>
        <time>2019-05-01T07:48:32.000Z</time>
      </trkpt>
      <trkpt lat="45.24685" lon="6.14348">
        <ele>2628.6000976562</ele>
        <time>2019-05-01T07:48:44.000Z</time>
      </trkpt>
      <trkpt lat="45.24685" lon="6.14348">
        <ele>2628.3999023438</ele>
        <time>2019-05-01T07:48:58.000Z</time>
      </trkpt>
      <trkpt lat="45.24684" lon="6.14348">
        <ele>2628.3999023438</ele>
        <time>2019-05-01T07:49:12.000Z</time>
      </trkpt>
      <trkpt lat="45.24684" lon="6.14348">
        <ele>2628.3999023438</ele>
        <time>2019-05-01T07:49:23.000Z</time>
      </trkpt>
      <trkpt lat="45.24684" lon="6.14348">
        <ele>2628.3999023438</ele>
        <time>2019-05-01T07:49:38.000Z</time>
      </trkpt>
      <trkpt lat="45.24685" lon="6.14348">
        <ele>2628.6000976562</ele>
        <time>2019-05-01T07:49:53.000Z</time>
      </trkpt>
      <trkpt lat="45.24683" lon="6.14345">
        <ele>2629.8000488281</ele>
        <time>2019-05-01T07:50:00.000Z</time>
      </trkpt>
      <trkpt lat="45.24682" lon="6.14344">
        <ele>2630.1999511719</ele>
        <time>2019-05-01T07:50:02.000Z</time>
      </trkpt>
      <trkpt lat="45.24681" lon="6.14343">
        <ele>2630.8000488281</ele>
        <time>2019-05-01T07:50:04.000Z</time>
      </trkpt>
      <trkpt lat="45.24679" lon="6.14342">
        <ele>2631.3999023438</ele>
        <time>2019-05-01T07:50:06.000Z</time>
      </trkpt>
      <trkpt lat="45.24678" lon="6.1434">
        <ele>2632.3999023438</ele>
        <time>2019-05-01T07:50:09.000Z</time>
      </trkpt>
      <trkpt lat="45.24678" lon="6.1434">
        <ele>2632.6000976562</ele>
        <time>2019-05-01T07:50:10.000Z</time>
      </trkpt>
      <trkpt lat="45.24678" lon="6.14338">
        <ele>2633.3999023438</ele>
        <time>2019-05-01T07:50:15.000Z</time>
      </trkpt>
      <trkpt lat="45.24677" lon="6.14337">
        <ele>2633.8000488281</ele>
        <time>2019-05-01T07:50:16.000Z</time>
      </trkpt>
      <trkpt lat="45.24676" lon="6.14336">
        <ele>2634.8000488281</ele>
        <time>2019-05-01T07:50:20.000Z</time>
      </trkpt>
      <trkpt lat="45.24676" lon="6.14336">
        <ele>2635.8000488281</ele>
        <time>2019-05-01T07:50:24.000Z</time>
      </trkpt>
      <trkpt lat="45.24676" lon="6.14335">
        <ele>2636.6000976562</ele>
        <time>2019-05-01T07:50:29.000Z</time>
      </trkpt>
      <trkpt lat="45.24676" lon="6.14335">
        <ele>2636.8000488281</ele>
        <time>2019-05-01T07:50:31.000Z</time>
      </trkpt>
      <trkpt lat="45.24675" lon="6.14334">
        <ele>2637.1999511719</ele>
        <time>2019-05-01T07:50:37.000Z</time>
      </trkpt>
      <trkpt lat="45.24675" lon="6.14334">
        <ele>2637.6000976562</ele>
        <time>2019-05-01T07:50:50.000Z</time>
      </trkpt>
      <trkpt lat="45.24673" lon="6.14334">
        <ele>2637.6000976562</ele>
        <time>2019-05-01T07:50:59.000Z</time>
      </trkpt>
      <trkpt lat="45.24673" lon="6.14333">
        <ele>2637.8000488281</ele>
        <time>2019-05-01T07:51:03.000Z</time>
      </trkpt>
      <trkpt lat="45.24672" lon="6.14333">
        <ele>2638.1999511719</ele>
        <time>2019-05-01T07:51:06.000Z</time>
      </trkpt>
      <trkpt lat="45.24671" lon="6.14332">
        <ele>2638.8000488281</ele>
        <time>2019-05-01T07:51:12.000Z</time>
      </trkpt>
      <trkpt lat="45.2467" lon="6.14331">
        <ele>2639</ele>
        <time>2019-05-01T07:51:13.000Z</time>
      </trkpt>
      <trkpt lat="45.24667" lon="6.14329">
        <ele>2639.8000488281</ele>
        <time>2019-05-01T07:51:17.000Z</time>
      </trkpt>
      <trkpt lat="45.24665" lon="6.14328">
        <ele>2640</ele>
        <time>2019-05-01T07:51:18.000Z</time>
      </trkpt>
      <trkpt lat="45.24663" lon="6.14328">
        <ele>2640.6000976562</ele>
        <time>2019-05-01T07:51:24.000Z</time>
      </trkpt>
      <trkpt lat="45.24662" lon="6.14325">
        <ele>2640.8000488281</ele>
        <time>2019-05-01T07:51:32.000Z</time>
      </trkpt>
      <trkpt lat="45.24662" lon="6.14325">
        <ele>2641</ele>
        <time>2019-05-01T07:51:34.000Z</time>
      </trkpt>
      <trkpt lat="45.24662" lon="6.14323">
        <ele>2641.3999023438</ele>
        <time>2019-05-01T07:51:37.000Z</time>
      </trkpt>
      <trkpt lat="45.24662" lon="6.14323">
        <ele>2641.8000488281</ele>
        <time>2019-05-01T07:51:38.000Z</time>
      </trkpt>
      <trkpt lat="45.24662" lon="6.14322">
        <ele>2642.3999023438</ele>
        <time>2019-05-01T07:51:40.000Z</time>
      </trkpt>
      <trkpt lat="45.24663" lon="6.14321">
        <ele>2642.6000976562</ele>
        <time>2019-05-01T07:51:41.000Z</time>
      </trkpt>
      <trkpt lat="45.24663" lon="6.1432">
        <ele>2643.6000976562</ele>
        <time>2019-05-01T07:51:43.000Z</time>
      </trkpt>
      <trkpt lat="45.24663" lon="6.14319">
        <ele>2644</ele>
        <time>2019-05-01T07:51:45.000Z</time>
      </trkpt>
      <trkpt lat="45.24663" lon="6.14319">
        <ele>2644.6000976562</ele>
        <time>2019-05-01T07:51:48.000Z</time>
      </trkpt>
      <trkpt lat="45.24664" lon="6.14318">
        <ele>2645.1999511719</ele>
        <time>2019-05-01T07:51:50.000Z</time>
      </trkpt>
      <trkpt lat="45.24664" lon="6.14317">
        <ele>2645.6000976562</ele>
        <time>2019-05-01T07:51:52.000Z</time>
      </trkpt>
      <trkpt lat="45.24665" lon="6.14317">
        <ele>2646</ele>
        <time>2019-05-01T07:51:54.000Z</time>
      </trkpt>
      <trkpt lat="45.24665" lon="6.14316">
        <ele>2646.8000488281</ele>
        <time>2019-05-01T07:51:58.000Z</time>
      </trkpt>
      <trkpt lat="45.24665" lon="6.14316">
        <ele>2647</ele>
        <time>2019-05-01T07:51:59.000Z</time>
      </trkpt>
      <trkpt lat="45.24665" lon="6.14316">
        <ele>2647.8000488281</ele>
        <time>2019-05-01T07:52:09.000Z</time>
      </trkpt>
      <trkpt lat="45.24666" lon="6.14315">
        <ele>2648.6000976562</ele>
        <time>2019-05-01T07:52:16.000Z</time>
      </trkpt>
      <trkpt lat="45.24668" lon="6.14315">
        <ele>2649</ele>
        <time>2019-05-01T07:52:20.000Z</time>
      </trkpt>
      <trkpt lat="45.24669" lon="6.14315">
        <ele>2649.1999511719</ele>
        <time>2019-05-01T07:52:24.000Z</time>
      </trkpt>
      <trkpt lat="45.2467" lon="6.14314">
        <ele>2650</ele>
        <time>2019-05-01T07:52:31.000Z</time>
      </trkpt>
      <trkpt lat="45.24671" lon="6.14314">
        <ele>2651.1999511719</ele>
        <time>2019-05-01T07:52:36.000Z</time>
      </trkpt>
      <trkpt lat="45.24671" lon="6.14314">
        <ele>2651.3999023438</ele>
        <time>2019-05-01T07:52:37.000Z</time>
      </trkpt>
      <trkpt lat="45.24671" lon="6.14314">
        <ele>2652.3999023438</ele>
        <time>2019-05-01T07:52:42.000Z</time>
      </trkpt>
      <trkpt lat="45.24672" lon="6.14313">
        <ele>2652.6000976562</ele>
        <time>2019-05-01T07:52:43.000Z</time>
      </trkpt>
      <trkpt lat="45.24672" lon="6.14311">
        <ele>2653.3999023438</ele>
        <time>2019-05-01T07:52:46.000Z</time>
      </trkpt>
      <trkpt lat="45.24673" lon="6.14309">
        <ele>2654</ele>
        <time>2019-05-01T07:52:52.000Z</time>
      </trkpt>
      <trkpt lat="45.24673" lon="6.14309">
        <ele>2654.3999023438</ele>
        <time>2019-05-01T07:52:58.000Z</time>
      </trkpt>
      <trkpt lat="45.24673" lon="6.14309">
        <ele>2654.3999023438</ele>
        <time>2019-05-01T07:53:01.000Z</time>
      </trkpt>
      <trkpt lat="45.24673" lon="6.14309">
        <ele>2654.3999023438</ele>
        <time>2019-05-01T07:53:17.000Z</time>
      </trkpt>
      <trkpt lat="45.24673" lon="6.14309">
        <ele>2654.3999023438</ele>
        <time>2019-05-01T07:53:31.000Z</time>
      </trkpt>
      <trkpt lat="45.24673" lon="6.14309">
        <ele>2654.3999023438</ele>
        <time>2019-05-01T07:53:44.000Z</time>
      </trkpt>
      <trkpt lat="45.24673" lon="6.14308">
        <ele>2655</ele>
        <time>2019-05-01T07:53:50.000Z</time>
      </trkpt>
      <trkpt lat="45.24673" lon="6.14308">
        <ele>2655.1999511719</ele>
        <time>2019-05-01T07:53:57.000Z</time>
      </trkpt>
      <trkpt lat="45.24673" lon="6.14308">
        <ele>2655.3999023438</ele>
        <time>2019-05-01T07:54:02.000Z</time>
      </trkpt>
      <trkpt lat="45.24673" lon="6.14308">
        <ele>2655.3999023438</ele>
        <time>2019-05-01T07:54:05.000Z</time>
      </trkpt>
      <trkpt lat="45.24673" lon="6.14308">
        <ele>2655.1999511719</ele>
        <time>2019-05-01T07:54:18.000Z</time>
      </trkpt>
      <trkpt lat="45.24673" lon="6.14308">
        <ele>2654.6000976562</ele>
        <time>2019-05-01T07:54:32.000Z</time>
      </trkpt>
      <trkpt lat="45.24673" lon="6.14308">
        <ele>2654.6000976562</ele>
        <time>2019-05-01T07:54:51.000Z</time>
      </trkpt>
      <trkpt lat="45.24673" lon="6.14308">
        <ele>2654.6000976562</ele>
        <time>2019-05-01T07:55:03.000Z</time>
      </trkpt>
      <trkpt lat="45.24673" lon="6.14308">
        <ele>2654.6000976562</ele>
        <time>2019-05-01T07:55:13.000Z</time>
      </trkpt>
      <trkpt lat="45.24673" lon="6.14308">
        <ele>2654.6000976562</ele>
        <time>2019-05-01T07:55:18.000Z</time>
      </trkpt>
      <trkpt lat="45.24673" lon="6.14308">
        <ele>2654.6000976562</ele>
        <time>2019-05-01T07:55:32.000Z</time>
      </trkpt>
      <trkpt lat="45.24673" lon="6.14308">
        <ele>2654.6000976562</ele>
        <time>2019-05-01T07:55:34.000Z</time>
      </trkpt>
      <trkpt lat="45.24672" lon="6.14307">
        <ele>2654.6000976562</ele>
        <time>2019-05-01T07:55:48.000Z</time>
      </trkpt>
      <trkpt lat="45.24671" lon="6.14306">
        <ele>2655.1999511719</ele>
        <time>2019-05-01T07:55:55.000Z</time>
      </trkpt>
      <trkpt lat="45.24671" lon="6.14306">
        <ele>2655.3999023438</ele>
        <time>2019-05-01T07:56:14.000Z</time>
      </trkpt>
      <trkpt lat="45.24672" lon="6.14306">
        <ele>2655.3999023438</ele>
        <time>2019-05-01T07:56:31.000Z</time>
      </trkpt>
      <trkpt lat="45.24672" lon="6.14306">
        <ele>2655.3999023438</ele>
        <time>2019-05-01T07:56:53.000Z</time>
      </trkpt>
      <trkpt lat="45.24673" lon="6.14308">
        <ele>2655.3999023438</ele>
        <time>2019-05-01T07:57:08.000Z</time>
      </trkpt>
      <trkpt lat="45.24673" lon="6.14309">
        <ele>2655.1999511719</ele>
        <time>2019-05-01T07:57:14.000Z</time>
      </trkpt>
      <trkpt lat="45.24673" lon="6.14309">
        <ele>2654.8000488281</ele>
        <time>2019-05-01T07:57:27.000Z</time>
      </trkpt>
      <trkpt lat="45.24673" lon="6.14309">
        <ele>2654.8000488281</ele>
        <time>2019-05-01T07:57:45.000Z</time>
      </trkpt>
      <trkpt lat="45.24673" lon="6.14309">
        <ele>2654.8000488281</ele>
        <time>2019-05-01T07:57:54.000Z</time>
      </trkpt>
      <trkpt lat="45.24673" lon="6.14309">
        <ele>2654.8000488281</ele>
        <time>2019-05-01T07:58:09.000Z</time>
      </trkpt>
      <trkpt lat="45.24673" lon="6.14309">
        <ele>2654.6000976562</ele>
        <time>2019-05-01T07:58:25.000Z</time>
      </trkpt>
      <trkpt lat="45.24673" lon="6.1431">
        <ele>2654.6000976562</ele>
        <time>2019-05-01T07:58:40.000Z</time>
      </trkpt>
      <trkpt lat="45.24673" lon="6.1431">
        <ele>2654.6000976562</ele>
        <time>2019-05-01T07:58:51.000Z</time>
      </trkpt>
      <trkpt lat="45.24673" lon="6.1431">
        <ele>2654.3999023438</ele>
        <time>2019-05-01T07:59:06.000Z</time>
      </trkpt>
      <trkpt lat="45.24673" lon="6.1431">
        <ele>2654.3999023438</ele>
        <time>2019-05-01T07:59:12.000Z</time>
      </trkpt>
      <trkpt lat="45.24673" lon="6.14309">
        <ele>2654.3999023438</ele>
        <time>2019-05-01T07:59:17.000Z</time>
      </trkpt>
      <trkpt lat="45.24673" lon="6.14309">
        <ele>2654.3999023438</ele>
        <time>2019-05-01T07:59:31.000Z</time>
      </trkpt>
      <trkpt lat="45.24673" lon="6.14309">
        <ele>2654.3999023438</ele>
        <time>2019-05-01T07:59:44.000Z</time>
      </trkpt>
      <trkpt lat="45.24673" lon="6.1431">
        <ele>2654.3999023438</ele>
        <time>2019-05-01T07:59:58.000Z</time>
      </trkpt>
      <trkpt lat="45.24673" lon="6.1431">
        <ele>2654.1999511719</ele>
        <time>2019-05-01T08:00:10.000Z</time>
      </trkpt>
      <trkpt lat="45.24673" lon="6.1431">
        <ele>2654.1999511719</ele>
        <time>2019-05-01T08:00:22.000Z</time>
      </trkpt>
      <trkpt lat="45.24673" lon="6.14309">
        <ele>2654.1999511719</ele>
        <time>2019-05-01T08:00:36.000Z</time>
      </trkpt>
      <trkpt lat="45.24673" lon="6.14309">
        <ele>2654.1999511719</ele>
        <time>2019-05-01T08:00:48.000Z</time>
      </trkpt>
      <trkpt lat="45.24673" lon="6.14309">
        <ele>2654.1999511719</ele>
        <time>2019-05-01T08:00:58.000Z</time>
      </trkpt>
      <trkpt lat="45.24673" lon="6.14309">
        <ele>2654</ele>
        <time>2019-05-01T08:01:12.000Z</time>
      </trkpt>
      <trkpt lat="45.24673" lon="6.14309">
        <ele>2654</ele>
        <time>2019-05-01T08:01:22.000Z</time>
      </trkpt>
      <trkpt lat="45.24673" lon="6.14309">
        <ele>2654.1999511719</ele>
        <time>2019-05-01T08:01:29.000Z</time>
      </trkpt>
      <trkpt lat="45.24673" lon="6.14307">
        <ele>2654.1999511719</ele>
        <time>2019-05-01T08:01:34.000Z</time>
      </trkpt>
      <trkpt lat="45.24673" lon="6.14307">
        <ele>2655</ele>
        <time>2019-05-01T08:01:44.000Z</time>
      </trkpt>
      <trkpt lat="45.24673" lon="6.14305">
        <ele>2655</ele>
        <time>2019-05-01T08:01:57.000Z</time>
      </trkpt>
      <trkpt lat="45.24672" lon="6.14304">
        <ele>2655</ele>
        <time>2019-05-01T08:01:58.000Z</time>
      </trkpt>
      <trkpt lat="45.2467" lon="6.14302">
        <ele>2655.1999511719</ele>
        <time>2019-05-01T08:02:02.000Z</time>
      </trkpt>
      <trkpt lat="45.2467" lon="6.14302">
        <ele>2655.3999023438</ele>
        <time>2019-05-01T08:02:03.000Z</time>
      </trkpt>
      <trkpt lat="45.24671" lon="6.14302">
        <ele>2656.1999511719</ele>
        <time>2019-05-01T08:02:07.000Z</time>
      </trkpt>
      <trkpt lat="45.24671" lon="6.14302">
        <ele>2656.3999023438</ele>
        <time>2019-05-01T08:02:08.000Z</time>
      </trkpt>
      <trkpt lat="45.24671" lon="6.14303">
        <ele>2657.1999511719</ele>
        <time>2019-05-01T08:02:20.000Z</time>
      </trkpt>
      <trkpt lat="45.24672" lon="6.14304">
        <ele>2657.1999511719</ele>
        <time>2019-05-01T08:02:22.000Z</time>
      </trkpt>
      <trkpt lat="45.24673" lon="6.14306">
        <ele>2657.1999511719</ele>
        <time>2019-05-01T08:02:25.000Z</time>
      </trkpt>
      <trkpt lat="45.24674" lon="6.14309">
        <ele>2656</ele>
        <time>2019-05-01T08:02:30.000Z</time>
      </trkpt>
      <trkpt lat="45.24675" lon="6.1431">
        <ele>2655.1999511719</ele>
        <time>2019-05-01T08:02:32.000Z</time>
      </trkpt>
      <trkpt lat="45.24676" lon="6.14311">
        <ele>2654.3999023438</ele>
        <time>2019-05-01T08:02:36.000Z</time>
      </trkpt>
      <trkpt lat="45.24676" lon="6.14311">
        <ele>2654.1999511719</ele>
        <time>2019-05-01T08:02:38.000Z</time>
      </trkpt>
      <trkpt lat="45.24676" lon="6.14311">
        <ele>2654.1999511719</ele>
        <time>2019-05-01T08:02:40.000Z</time>
      </trkpt>
      <trkpt lat="45.24676" lon="6.14311">
        <ele>2654</ele>
        <time>2019-05-01T08:02:50.000Z</time>
      </trkpt>
      <trkpt lat="45.24676" lon="6.14311">
        <ele>2654</ele>
        <time>2019-05-01T08:03:04.000Z</time>
      </trkpt>
      <trkpt lat="45.24676" lon="6.14311">
        <ele>2654</ele>
        <time>2019-05-01T08:03:17.000Z</time>
      </trkpt>
      <trkpt lat="45.24676" lon="6.14311">
        <ele>2654</ele>
        <time>2019-05-01T08:03:26.000Z</time>
      </trkpt>
      <trkpt lat="45.24676" lon="6.14311">
        <ele>2654</ele>
        <time>2019-05-01T08:03:42.000Z</time>
      </trkpt>
      <trkpt lat="45.24676" lon="6.14311">
        <ele>2654</ele>
        <time>2019-05-01T08:03:54.000Z</time>
      </trkpt>
      <trkpt lat="45.24676" lon="6.14311">
        <ele>2654</ele>
        <time>2019-05-01T08:04:05.000Z</time>
      </trkpt>
      <trkpt lat="45.24676" lon="6.14311">
        <ele>2654</ele>
        <time>2019-05-01T08:04:17.000Z</time>
      </trkpt>
      <trkpt lat="45.24676" lon="6.14311">
        <ele>2654.1999511719</ele>
        <time>2019-05-01T08:04:26.000Z</time>
      </trkpt>
      <trkpt lat="45.24676" lon="6.14312">
        <ele>2654</ele>
        <time>2019-05-01T08:04:37.000Z</time>
      </trkpt>
      <trkpt lat="45.24676" lon="6.14312">
        <ele>2653.8000488281</ele>
        <time>2019-05-01T08:04:53.000Z</time>
      </trkpt>
      <trkpt lat="45.24676" lon="6.14311">
        <ele>2653.8000488281</ele>
        <time>2019-05-01T08:04:59.000Z</time>
      </trkpt>
      <trkpt lat="45.24676" lon="6.14311">
        <ele>2653.8000488281</ele>
        <time>2019-05-01T08:05:08.000Z</time>
      </trkpt>
      <trkpt lat="45.24676" lon="6.14311">
        <ele>2653.8000488281</ele>
        <time>2019-05-01T08:05:20.000Z</time>
      </trkpt>
      <trkpt lat="45.24676" lon="6.14311">
        <ele>2653.6000976562</ele>
        <time>2019-05-01T08:05:33.000Z</time>
      </trkpt>
      <trkpt lat="45.24676" lon="6.14311">
        <ele>2653.6000976562</ele>
        <time>2019-05-01T08:05:40.000Z</time>
      </trkpt>
      <trkpt lat="45.24677" lon="6.14311">
        <ele>2653.6000976562</ele>
        <time>2019-05-01T08:05:50.000Z</time>
      </trkpt>
      <trkpt lat="45.24677" lon="6.14311">
        <ele>2653.6000976562</ele>
        <time>2019-05-01T08:05:58.000Z</time>
      </trkpt>
      <trkpt lat="45.24677" lon="6.14311">
        <ele>2653.3999023438</ele>
        <time>2019-05-01T08:06:15.000Z</time>
      </trkpt>
      <trkpt lat="45.24677" lon="6.14311">
        <ele>2653.3999023438</ele>
        <time>2019-05-01T08:06:28.000Z</time>
      </trkpt>
      <trkpt lat="45.24677" lon="6.14311">
        <ele>2653.3999023438</ele>
        <time>2019-05-01T08:06:41.000Z</time>
      </trkpt>
      <trkpt lat="45.24677" lon="6.14311">
        <ele>2653.3999023438</ele>
        <time>2019-05-01T08:06:52.000Z</time>
      </trkpt>
      <trkpt lat="45.24677" lon="6.14312">
        <ele>2653.3999023438</ele>
        <time>2019-05-01T08:07:05.000Z</time>
      </trkpt>
      <trkpt lat="45.24677" lon="6.14312">
        <ele>2653.3999023438</ele>
        <time>2019-05-01T08:07:20.000Z</time>
      </trkpt>
      <trkpt lat="45.24677" lon="6.14312">
        <ele>2653.3999023438</ele>
        <time>2019-05-01T08:07:29.000Z</time>
      </trkpt>
      <trkpt lat="45.24677" lon="6.14312">
        <ele>2653.3999023438</ele>
        <time>2019-05-01T08:07:42.000Z</time>
      </trkpt>
      <trkpt lat="45.24677" lon="6.14312">
        <ele>2653.3999023438</ele>
        <time>2019-05-01T08:07:59.000Z</time>
      </trkpt>
      <trkpt lat="45.24677" lon="6.14312">
        <ele>2653.3999023438</ele>
        <time>2019-05-01T08:08:10.000Z</time>
      </trkpt>
      <trkpt lat="45.24677" lon="6.14312">
        <ele>2653.1999511719</ele>
        <time>2019-05-01T08:08:23.000Z</time>
      </trkpt>
      <trkpt lat="45.24677" lon="6.14312">
        <ele>2653.1999511719</ele>
        <time>2019-05-01T08:08:44.000Z</time>
      </trkpt>
      <trkpt lat="45.24676" lon="6.14312">
        <ele>2653</ele>
        <time>2019-05-01T08:08:54.000Z</time>
      </trkpt>
      <trkpt lat="45.24676" lon="6.14312">
        <ele>2653.1999511719</ele>
        <time>2019-05-01T08:08:56.000Z</time>
      </trkpt>
      <trkpt lat="45.24676" lon="6.1431">
        <ele>2653.3999023438</ele>
        <time>2019-05-01T08:09:00.000Z</time>
      </trkpt>
      <trkpt lat="45.24674" lon="6.14308">
        <ele>2653.6000976562</ele>
        <time>2019-05-01T08:09:03.000Z</time>
      </trkpt>
      <trkpt lat="45.24674" lon="6.14308">
        <ele>2653.8000488281</ele>
        <time>2019-05-01T08:09:05.000Z</time>
      </trkpt>
      <trkpt lat="45.24674" lon="6.14308">
        <ele>2654.1999511719</ele>
        <time>2019-05-01T08:09:07.000Z</time>
      </trkpt>
      <trkpt lat="45.24674" lon="6.14308">
        <ele>2655</ele>
        <time>2019-05-01T08:09:14.000Z</time>
      </trkpt>
      <trkpt lat="45.24675" lon="6.14309">
        <ele>2654.6000976562</ele>
        <time>2019-05-01T08:09:20.000Z</time>
      </trkpt>
      <trkpt lat="45.24675" lon="6.14309">
        <ele>2654.3999023438</ele>
        <time>2019-05-01T08:09:33.000Z</time>
      </trkpt>
      <trkpt lat="45.24675" lon="6.14309">
        <ele>2654.1999511719</ele>
        <time>2019-05-01T08:09:44.000Z</time>
      </trkpt>
      <trkpt lat="45.24676" lon="6.14311">
        <ele>2653.6000976562</ele>
        <time>2019-05-01T08:09:50.000Z</time>
      </trkpt>
      <trkpt lat="45.24676" lon="6.14314">
        <ele>2653.1999511719</ele>
        <time>2019-05-01T08:09:58.000Z</time>
      </trkpt>
      <trkpt lat="45.24676" lon="6.14314">
        <ele>2653.1999511719</ele>
        <time>2019-05-01T08:09:59.000Z</time>
      </trkpt>
      <trkpt lat="45.24676" lon="6.14314">
        <ele>2653</ele>
        <time>2019-05-01T08:10:14.000Z</time>
      </trkpt>
      <trkpt lat="45.24676" lon="6.14314">
        <ele>2653.1999511719</ele>
        <time>2019-05-01T08:10:28.000Z</time>
      </trkpt>
      <trkpt lat="45.24676" lon="6.14313">
        <ele>2652.8000488281</ele>
        <time>2019-05-01T08:10:42.000Z</time>
      </trkpt>
      <trkpt lat="45.24676" lon="6.14313">
        <ele>2652.8000488281</ele>
        <time>2019-05-01T08:10:52.000Z</time>
      </trkpt>
      <trkpt lat="45.24676" lon="6.14313">
        <ele>2652.8000488281</ele>
        <time>2019-05-01T08:11:01.000Z</time>
      </trkpt>
      <trkpt lat="45.24676" lon="6.14313">
        <ele>2652.8000488281</ele>
        <time>2019-05-01T08:11:10.000Z</time>
      </trkpt>
      <trkpt lat="45.24676" lon="6.14313">
        <ele>2653</ele>
        <time>2019-05-01T08:11:22.000Z</time>
      </trkpt>
      <trkpt lat="45.24677" lon="6.14313">
        <ele>2653</ele>
        <time>2019-05-01T08:11:31.000Z</time>
      </trkpt>
      <trkpt lat="45.24677" lon="6.14313">
        <ele>2653</ele>
        <time>2019-05-01T08:11:46.000Z</time>
      </trkpt>
      <trkpt lat="45.24677" lon="6.14313">
        <ele>2652.8000488281</ele>
        <time>2019-05-01T08:11:47.000Z</time>
      </trkpt>
      <trkpt lat="45.24677" lon="6.14313">
        <ele>2653</ele>
        <time>2019-05-01T08:11:56.000Z</time>
      </trkpt>
      <trkpt lat="45.24677" lon="6.14313">
        <ele>2653</ele>
        <time>2019-05-01T08:12:08.000Z</time>
      </trkpt>
      <trkpt lat="45.24677" lon="6.14313">
        <ele>2652.8000488281</ele>
        <time>2019-05-01T08:12:24.000Z</time>
      </trkpt>
      <trkpt lat="45.24677" lon="6.14313">
        <ele>2652.8000488281</ele>
        <time>2019-05-01T08:12:41.000Z</time>
      </trkpt>
      <trkpt lat="45.24677" lon="6.14312">
        <ele>2653</ele>
        <time>2019-05-01T08:12:54.000Z</time>
      </trkpt>
      <trkpt lat="45.24677" lon="6.14312">
        <ele>2653</ele>
        <time>2019-05-01T08:13:05.000Z</time>
      </trkpt>
      <trkpt lat="45.24677" lon="6.14312">
        <ele>2652.8000488281</ele>
        <time>2019-05-01T08:13:16.000Z</time>
      </trkpt>
      <trkpt lat="45.24678" lon="6.14312">
        <ele>2652.6000976562</ele>
        <time>2019-05-01T08:13:24.000Z</time>
      </trkpt>
      <trkpt lat="45.24678" lon="6.14312">
        <ele>2652.3999023438</ele>
        <time>2019-05-01T08:13:39.000Z</time>
      </trkpt>
      <trkpt lat="45.24678" lon="6.14312">
        <ele>2652.6000976562</ele>
        <time>2019-05-01T08:13:51.000Z</time>
      </trkpt>
      <trkpt lat="45.24678" lon="6.14312">
        <ele>2652.6000976562</ele>
        <time>2019-05-01T08:14:04.000Z</time>
      </trkpt>
      <trkpt lat="45.24678" lon="6.14312">
        <ele>2652.6000976562</ele>
        <time>2019-05-01T08:14:17.000Z</time>
      </trkpt>
      <trkpt lat="45.24678" lon="6.14312">
        <ele>2652.6000976562</ele>
        <time>2019-05-01T08:14:26.000Z</time>
      </trkpt>
      <trkpt lat="45.24678" lon="6.14312">
        <ele>2652.6000976562</ele>
        <time>2019-05-01T08:14:39.000Z</time>
      </trkpt>
      <trkpt lat="45.24678" lon="6.14312">
        <ele>2652.6000976562</ele>
        <time>2019-05-01T08:14:51.000Z</time>
      </trkpt>
      <trkpt lat="45.24678" lon="6.14312">
        <ele>2652.6000976562</ele>
        <time>2019-05-01T08:15:00.000Z</time>
      </trkpt>
      <trkpt lat="45.24678" lon="6.14312">
        <ele>2652.6000976562</ele>
        <time>2019-05-01T08:15:09.000Z</time>
      </trkpt>
      <trkpt lat="45.24678" lon="6.14312">
        <ele>2652.6000976562</ele>
        <time>2019-05-01T08:15:20.000Z</time>
      </trkpt>
      <trkpt lat="45.24678" lon="6.14311">
        <ele>2652.6000976562</ele>
        <time>2019-05-01T08:15:32.000Z</time>
      </trkpt>
      <trkpt lat="45.24678" lon="6.14311">
        <ele>2652.6000976562</ele>
        <time>2019-05-01T08:15:43.000Z</time>
      </trkpt>
      <trkpt lat="45.24678" lon="6.14311">
        <ele>2652.6000976562</ele>
        <time>2019-05-01T08:15:52.000Z</time>
      </trkpt>
      <trkpt lat="45.24678" lon="6.14311">
        <ele>2652.6000976562</ele>
        <time>2019-05-01T08:16:03.000Z</time>
      </trkpt>
      <trkpt lat="45.24678" lon="6.14311">
        <ele>2652.6000976562</ele>
        <time>2019-05-01T08:16:14.000Z</time>
      </trkpt>
      <trkpt lat="45.24678" lon="6.14311">
        <ele>2652.6000976562</ele>
        <time>2019-05-01T08:16:24.000Z</time>
      </trkpt>
      <trkpt lat="45.24678" lon="6.14311">
        <ele>2652.6000976562</ele>
        <time>2019-05-01T08:16:37.000Z</time>
      </trkpt>
      <trkpt lat="45.24678" lon="6.14311">
        <ele>2652.6000976562</ele>
        <time>2019-05-01T08:16:48.000Z</time>
      </trkpt>
      <trkpt lat="45.24678" lon="6.14311">
        <ele>2652.6000976562</ele>
        <time>2019-05-01T08:16:55.000Z</time>
      </trkpt>
      <trkpt lat="45.24678" lon="6.14311">
        <ele>2652.3999023438</ele>
        <time>2019-05-01T08:17:07.000Z</time>
      </trkpt>
      <trkpt lat="45.24678" lon="6.14311">
        <ele>2652.6000976562</ele>
        <time>2019-05-01T08:17:19.000Z</time>
      </trkpt>
      <trkpt lat="45.24679" lon="6.14311">
        <ele>2652.6000976562</ele>
        <time>2019-05-01T08:17:26.000Z</time>
      </trkpt>
      <trkpt lat="45.24679" lon="6.14311">
        <ele>2652.3999023438</ele>
        <time>2019-05-01T08:17:36.000Z</time>
      </trkpt>
      <trkpt lat="45.24679" lon="6.14311">
        <ele>2652.3999023438</ele>
        <time>2019-05-01T08:17:48.000Z</time>
      </trkpt>
      <trkpt lat="45.24679" lon="6.14311">
        <ele>2652.3999023438</ele>
        <time>2019-05-01T08:17:59.000Z</time>
      </trkpt>
      <trkpt lat="45.24678" lon="6.14311">
        <ele>2652.3999023438</ele>
        <time>2019-05-01T08:18:09.000Z</time>
      </trkpt>
      <trkpt lat="45.24678" lon="6.14311">
        <ele>2652.8000488281</ele>
        <time>2019-05-01T08:18:21.000Z</time>
      </trkpt>
      <trkpt lat="45.24678" lon="6.14311">
        <ele>2652.6000976562</ele>
        <time>2019-05-01T08:18:36.000Z</time>
      </trkpt>
      <trkpt lat="45.24678" lon="6.14311">
        <ele>2652.6000976562</ele>
        <time>2019-05-01T08:18:47.000Z</time>
      </trkpt>
      <trkpt lat="45.24678" lon="6.14309">
        <ele>2652.8000488281</ele>
        <time>2019-05-01T08:18:54.000Z</time>
      </trkpt>
      <trkpt lat="45.24678" lon="6.14309">
        <ele>2652.8000488281</ele>
        <time>2019-05-01T08:19:07.000Z</time>
      </trkpt>
      <trkpt lat="45.24678" lon="6.14309">
        <ele>2652.8000488281</ele>
        <time>2019-05-01T08:19:25.000Z</time>
      </trkpt>
      <trkpt lat="45.24678" lon="6.14309">
        <ele>2652.8000488281</ele>
        <time>2019-05-01T08:19:38.000Z</time>
      </trkpt>
      <trkpt lat="45.24677" lon="6.14307">
        <ele>2653</ele>
        <time>2019-05-01T08:19:44.000Z</time>
      </trkpt>
      <trkpt lat="45.24677" lon="6.14307">
        <ele>2653.1999511719</ele>
        <time>2019-05-01T08:19:53.000Z</time>
      </trkpt>
      <trkpt lat="45.24677" lon="6.14307">
        <ele>2653.1999511719</ele>
        <time>2019-05-01T08:20:15.000Z</time>
      </trkpt>
      <trkpt lat="45.24677" lon="6.14307">
        <ele>2653.1999511719</ele>
        <time>2019-05-01T08:20:36.000Z</time>
      </trkpt>
      <trkpt lat="45.24677" lon="6.14307">
        <ele>2653.3999023438</ele>
        <time>2019-05-01T08:20:53.000Z</time>
      </trkpt>
      <trkpt lat="45.24678" lon="6.14307">
        <ele>2653.1999511719</ele>
        <time>2019-05-01T08:21:02.000Z</time>
      </trkpt>
      <trkpt lat="45.24677" lon="6.14306">
        <ele>2653.1999511719</ele>
        <time>2019-05-01T08:21:10.000Z</time>
      </trkpt>
      <trkpt lat="45.24676" lon="6.14304">
        <ele>2653.3999023438</ele>
        <time>2019-05-01T08:21:19.000Z</time>
      </trkpt>
      <trkpt lat="45.24676" lon="6.14299">
        <ele>2654</ele>
        <time>2019-05-01T08:21:25.000Z</time>
      </trkpt>
      <trkpt lat="45.24676" lon="6.14298">
        <ele>2654.1999511719</ele>
        <time>2019-05-01T08:21:28.000Z</time>
      </trkpt>
      <trkpt lat="45.24675" lon="6.14297">
        <ele>2654.6000976562</ele>
        <time>2019-05-01T08:21:30.000Z</time>
      </trkpt>
      <trkpt lat="45.24674" lon="6.14293">
        <ele>2655.1999511719</ele>
        <time>2019-05-01T08:21:34.000Z</time>
      </trkpt>
      <trkpt lat="45.24675" lon="6.14291">
        <ele>2655.6000976562</ele>
        <time>2019-05-01T08:21:36.000Z</time>
      </trkpt>
      <trkpt lat="45.24675" lon="6.14287">
        <ele>2656.1999511719</ele>
        <time>2019-05-01T08:21:42.000Z</time>
      </trkpt>
      <trkpt lat="45.24674" lon="6.14284">
        <ele>2656.1999511719</ele>
        <time>2019-05-01T08:21:46.000Z</time>
      </trkpt>
      <trkpt lat="45.24674" lon="6.14283">
        <ele>2656.3999023438</ele>
        <time>2019-05-01T08:21:48.000Z</time>
      </trkpt>
      <trkpt lat="45.2467" lon="6.14279">
        <ele>2657.1999511719</ele>
        <time>2019-05-01T08:21:54.000Z</time>
      </trkpt>
      <trkpt lat="45.24669" lon="6.14278">
        <ele>2657.3999023438</ele>
        <time>2019-05-01T08:21:56.000Z</time>
      </trkpt>
      <trkpt lat="45.24669" lon="6.14275">
        <ele>2657.6000976562</ele>
        <time>2019-05-01T08:21:59.000Z</time>
      </trkpt>
      <trkpt lat="45.24669" lon="6.14269">
        <ele>2658.3999023438</ele>
        <time>2019-05-01T08:22:04.000Z</time>
      </trkpt>
      <trkpt lat="45.24669" lon="6.14268">
        <ele>2658.6000976562</ele>
        <time>2019-05-01T08:22:05.000Z</time>
      </trkpt>
      <trkpt lat="45.24669" lon="6.14264">
        <ele>2659.3999023438</ele>
        <time>2019-05-01T08:22:11.000Z</time>
      </trkpt>
      <trkpt lat="45.24669" lon="6.14258">
        <ele>2660</ele>
        <time>2019-05-01T08:22:16.000Z</time>
      </trkpt>
      <trkpt lat="45.24669" lon="6.14253">
        <ele>2660.6000976562</ele>
        <time>2019-05-01T08:22:20.000Z</time>
      </trkpt>
      <trkpt lat="45.24669" lon="6.14253">
        <ele>2660.8000488281</ele>
        <time>2019-05-01T08:22:22.000Z</time>
      </trkpt>
      <trkpt lat="45.24669" lon="6.14249">
        <ele>2661.3999023438</ele>
        <time>2019-05-01T08:22:28.000Z</time>
      </trkpt>
      <trkpt lat="45.24669" lon="6.14248">
        <ele>2661.6000976562</ele>
        <time>2019-05-01T08:22:29.000Z</time>
      </trkpt>
      <trkpt lat="45.24668" lon="6.14242">
        <ele>2662.1999511719</ele>
        <time>2019-05-01T08:22:34.000Z</time>
      </trkpt>
      <trkpt lat="45.24668" lon="6.1424">
        <ele>2662.6000976562</ele>
        <time>2019-05-01T08:22:35.000Z</time>
      </trkpt>
      <trkpt lat="45.24668" lon="6.14236">
        <ele>2663.1999511719</ele>
        <time>2019-05-01T08:22:40.000Z</time>
      </trkpt>
      <trkpt lat="45.24668" lon="6.14231">
        <ele>2663.6000976562</ele>
        <time>2019-05-01T08:22:43.000Z</time>
      </trkpt>
      <trkpt lat="45.24668" lon="6.14228">
        <ele>2664</ele>
        <time>2019-05-01T08:22:46.000Z</time>
      </trkpt>
      <trkpt lat="45.24668" lon="6.14222">
        <ele>2664.6000976562</ele>
        <time>2019-05-01T08:22:51.000Z</time>
      </trkpt>
      <trkpt lat="45.24668" lon="6.14222">
        <ele>2664.8000488281</ele>
        <time>2019-05-01T08:22:52.000Z</time>
      </trkpt>
      <trkpt lat="45.24668" lon="6.14217">
        <ele>2665.3999023438</ele>
        <time>2019-05-01T08:22:58.000Z</time>
      </trkpt>
      <trkpt lat="45.24667" lon="6.14213">
        <ele>2665.8000488281</ele>
        <time>2019-05-01T08:23:02.000Z</time>
      </trkpt>
      <trkpt lat="45.24667" lon="6.1421">
        <ele>2666</ele>
        <time>2019-05-01T08:23:04.000Z</time>
      </trkpt>
      <trkpt lat="45.24668" lon="6.14205">
        <ele>2666.3999023438</ele>
        <time>2019-05-01T08:23:10.000Z</time>
      </trkpt>
      <trkpt lat="45.24668" lon="6.14203">
        <ele>2666.8000488281</ele>
        <time>2019-05-01T08:23:12.000Z</time>
      </trkpt>
      <trkpt lat="45.24667" lon="6.14201">
        <ele>2667.1999511719</ele>
        <time>2019-05-01T08:23:15.000Z</time>
      </trkpt>
      <trkpt lat="45.24668" lon="6.14197">
        <ele>2667.8000488281</ele>
        <time>2019-05-01T08:23:21.000Z</time>
      </trkpt>
      <trkpt lat="45.24668" lon="6.14192">
        <ele>2668.6000976562</ele>
        <time>2019-05-01T08:23:26.000Z</time>
      </trkpt>
      <trkpt lat="45.24668" lon="6.14189">
        <ele>2668.8000488281</ele>
        <time>2019-05-01T08:23:31.000Z</time>
      </trkpt>
      <trkpt lat="45.24668" lon="6.14184">
        <ele>2669.3999023438</ele>
        <time>2019-05-01T08:23:37.000Z</time>
      </trkpt>
      <trkpt lat="45.24668" lon="6.14177">
        <ele>2669.8000488281</ele>
        <time>2019-05-01T08:23:42.000Z</time>
      </trkpt>
      <trkpt lat="45.24668" lon="6.14178">
        <ele>2670</ele>
        <time>2019-05-01T08:23:43.000Z</time>
      </trkpt>
      <trkpt lat="45.24669" lon="6.14172">
        <ele>2670.8000488281</ele>
        <time>2019-05-01T08:23:50.000Z</time>
      </trkpt>
      <trkpt lat="45.24669" lon="6.14171">
        <ele>2671</ele>
        <time>2019-05-01T08:23:52.000Z</time>
      </trkpt>
      <trkpt lat="45.2467" lon="6.14166">
        <ele>2671.1999511719</ele>
        <time>2019-05-01T08:23:57.000Z</time>
      </trkpt>
      <trkpt lat="45.2467" lon="6.14161">
        <ele>2671.6000976562</ele>
        <time>2019-05-01T08:24:03.000Z</time>
      </trkpt>
      <trkpt lat="45.24671" lon="6.14157">
        <ele>2672</ele>
        <time>2019-05-01T08:24:06.000Z</time>
      </trkpt>
      <trkpt lat="45.24671" lon="6.14154">
        <ele>2672</ele>
        <time>2019-05-01T08:24:08.000Z</time>
      </trkpt>
      <trkpt lat="45.24672" lon="6.14148">
        <ele>2672.6000976562</ele>
        <time>2019-05-01T08:24:14.000Z</time>
      </trkpt>
      <trkpt lat="45.24672" lon="6.14145">
        <ele>2673</ele>
        <time>2019-05-01T08:24:18.000Z</time>
      </trkpt>
      <trkpt lat="45.24672" lon="6.14142">
        <ele>2673.1999511719</ele>
        <time>2019-05-01T08:24:20.000Z</time>
      </trkpt>
      <trkpt lat="45.24673" lon="6.14136">
        <ele>2674</ele>
        <time>2019-05-01T08:24:27.000Z</time>
      </trkpt>
      <trkpt lat="45.24672" lon="6.14134">
        <ele>2674.3999023438</ele>
        <time>2019-05-01T08:24:29.000Z</time>
      </trkpt>
      <trkpt lat="45.24672" lon="6.14133">
        <ele>2675</ele>
        <time>2019-05-01T08:24:34.000Z</time>
      </trkpt>
      <trkpt lat="45.24673" lon="6.14131">
        <ele>2675.3999023438</ele>
        <time>2019-05-01T08:24:35.000Z</time>
      </trkpt>
      <trkpt lat="45.24673" lon="6.14126">
        <ele>2676</ele>
        <time>2019-05-01T08:24:41.000Z</time>
      </trkpt>
      <trkpt lat="45.24673" lon="6.14125">
        <ele>2676.1999511719</ele>
        <time>2019-05-01T08:24:43.000Z</time>
      </trkpt>
      <trkpt lat="45.24674" lon="6.1412">
        <ele>2676.8000488281</ele>
        <time>2019-05-01T08:24:47.000Z</time>
      </trkpt>
      <trkpt lat="45.24675" lon="6.14117">
        <ele>2677.1999511719</ele>
        <time>2019-05-01T08:24:50.000Z</time>
      </trkpt>
      <trkpt lat="45.24675" lon="6.14113">
        <ele>2677.3999023438</ele>
        <time>2019-05-01T08:24:53.000Z</time>
      </trkpt>
      <trkpt lat="45.24676" lon="6.1411">
        <ele>2677.8000488281</ele>
        <time>2019-05-01T08:24:57.000Z</time>
      </trkpt>
      <trkpt lat="45.24676" lon="6.1411">
        <ele>2678.1999511719</ele>
        <time>2019-05-01T08:24:59.000Z</time>
      </trkpt>
      <trkpt lat="45.24675" lon="6.14105">
        <ele>2678.8000488281</ele>
        <time>2019-05-01T08:25:05.000Z</time>
      </trkpt>
      <trkpt lat="45.24675" lon="6.14103">
        <ele>2679.1999511719</ele>
        <time>2019-05-01T08:25:08.000Z</time>
      </trkpt>
      <trkpt lat="45.24675" lon="6.14098">
        <ele>2679.8000488281</ele>
        <time>2019-05-01T08:25:12.000Z</time>
      </trkpt>
      <trkpt lat="45.24676" lon="6.14093">
        <ele>2680.1999511719</ele>
        <time>2019-05-01T08:25:17.000Z</time>
      </trkpt>
      <trkpt lat="45.24676" lon="6.14091">
        <ele>2680.3999023438</ele>
        <time>2019-05-01T08:25:19.000Z</time>
      </trkpt>
      <trkpt lat="45.24677" lon="6.14087">
        <ele>2680.8000488281</ele>
        <time>2019-05-01T08:25:23.000Z</time>
      </trkpt>
      <trkpt lat="45.24678" lon="6.14082">
        <ele>2681.3999023438</ele>
        <time>2019-05-01T08:25:28.000Z</time>
      </trkpt>
      <trkpt lat="45.24678" lon="6.14081">
        <ele>2681.6000976562</ele>
        <time>2019-05-01T08:25:29.000Z</time>
      </trkpt>
      <trkpt lat="45.24678" lon="6.14079">
        <ele>2682</ele>
        <time>2019-05-01T08:25:33.000Z</time>
      </trkpt>
      <trkpt lat="45.24679" lon="6.14074">
        <ele>2682.6000976562</ele>
        <time>2019-05-01T08:25:39.000Z</time>
      </trkpt>
      <trkpt lat="45.24681" lon="6.14069">
        <ele>2683.3999023438</ele>
        <time>2019-05-01T08:25:44.000Z</time>
      </trkpt>
      <trkpt lat="45.24683" lon="6.14066">
        <ele>2683.8000488281</ele>
        <time>2019-05-01T08:25:47.000Z</time>
      </trkpt>
      <trkpt lat="45.24684" lon="6.14064">
        <ele>2684.1999511719</ele>
        <time>2019-05-01T08:25:50.000Z</time>
      </trkpt>
      <trkpt lat="45.24686" lon="6.1406">
        <ele>2685</ele>
        <time>2019-05-01T08:25:56.000Z</time>
      </trkpt>
      <trkpt lat="45.24689" lon="6.14054">
        <ele>2686</ele>
        <time>2019-05-01T08:26:03.000Z</time>
      </trkpt>
      <trkpt lat="45.2469" lon="6.14053">
        <ele>2686</ele>
        <time>2019-05-01T08:26:04.000Z</time>
      </trkpt>
      <trkpt lat="45.24691" lon="6.14049">
        <ele>2686.8000488281</ele>
        <time>2019-05-01T08:26:10.000Z</time>
      </trkpt>
      <trkpt lat="45.24691" lon="6.14049">
        <ele>2687.1999511719</ele>
        <time>2019-05-01T08:26:11.000Z</time>
      </trkpt>
      <trkpt lat="45.24692" lon="6.14045">
        <ele>2688</ele>
        <time>2019-05-01T08:26:16.000Z</time>
      </trkpt>
      <trkpt lat="45.24693" lon="6.14045">
        <ele>2688.1999511719</ele>
        <time>2019-05-01T08:26:18.000Z</time>
      </trkpt>
      <trkpt lat="45.24693" lon="6.14045">
        <ele>2688.6000976562</ele>
        <time>2019-05-01T08:26:22.000Z</time>
      </trkpt>
      <trkpt lat="45.24692" lon="6.14045">
        <ele>2689</ele>
        <time>2019-05-01T08:26:28.000Z</time>
      </trkpt>
      <trkpt lat="45.2469" lon="6.14044">
        <ele>2689.1999511719</ele>
        <time>2019-05-01T08:26:29.000Z</time>
      </trkpt>
      <trkpt lat="45.24686" lon="6.1404">
        <ele>2689.8000488281</ele>
        <time>2019-05-01T08:26:33.000Z</time>
      </trkpt>
      <trkpt lat="45.24683" lon="6.14039">
        <ele>2690.3999023438</ele>
        <time>2019-05-01T08:26:36.000Z</time>
      </trkpt>
      <trkpt lat="45.2468" lon="6.14039">
        <ele>2691</ele>
        <time>2019-05-01T08:26:39.000Z</time>
      </trkpt>
      <trkpt lat="45.2468" lon="6.14039">
        <ele>2691.3999023438</ele>
        <time>2019-05-01T08:26:42.000Z</time>
      </trkpt>
      <trkpt lat="45.2468" lon="6.14039">
        <ele>2691.3999023438</ele>
        <time>2019-05-01T08:26:49.000Z</time>
      </trkpt>
      <trkpt lat="45.2468" lon="6.14039">
        <ele>2691.1999511719</ele>
        <time>2019-05-01T08:27:05.000Z</time>
      </trkpt>
      <trkpt lat="45.24676" lon="6.1404">
        <ele>2691.1999511719</ele>
        <time>2019-05-01T08:27:09.000Z</time>
      </trkpt>
      <trkpt lat="45.24675" lon="6.1404">
        <ele>2691.3999023438</ele>
        <time>2019-05-01T08:27:11.000Z</time>
      </trkpt>
      <trkpt lat="45.2467" lon="6.14041">
        <ele>2692.3999023438</ele>
        <time>2019-05-01T08:27:17.000Z</time>
      </trkpt>
      <trkpt lat="45.24669" lon="6.14041">
        <ele>2692.3999023438</ele>
        <time>2019-05-01T08:27:18.000Z</time>
      </trkpt>
      <trkpt lat="45.24666" lon="6.14042">
        <ele>2693.1999511719</ele>
        <time>2019-05-01T08:27:23.000Z</time>
      </trkpt>
      <trkpt lat="45.24666" lon="6.14042">
        <ele>2693.6000976562</ele>
        <time>2019-05-01T08:27:25.000Z</time>
      </trkpt>
      <trkpt lat="45.24663" lon="6.14043">
        <ele>2694.3999023438</ele>
        <time>2019-05-01T08:27:30.000Z</time>
      </trkpt>
      <trkpt lat="45.24663" lon="6.14043">
        <ele>2694.6000976562</ele>
        <time>2019-05-01T08:27:31.000Z</time>
      </trkpt>
      <trkpt lat="45.2466" lon="6.14044">
        <ele>2695</ele>
        <time>2019-05-01T08:27:34.000Z</time>
      </trkpt>
      <trkpt lat="45.24658" lon="6.14044">
        <ele>2695.6000976562</ele>
        <time>2019-05-01T08:27:38.000Z</time>
      </trkpt>
      <trkpt lat="45.24657" lon="6.14044">
        <ele>2695.8000488281</ele>
        <time>2019-05-01T08:27:39.000Z</time>
      </trkpt>
      <trkpt lat="45.24657" lon="6.14044">
        <ele>2696.3999023438</ele>
        <time>2019-05-01T08:27:45.000Z</time>
      </trkpt>
      <trkpt lat="45.24663" lon="6.14039">
        <ele>2696.8000488281</ele>
        <time>2019-05-01T08:27:51.000Z</time>
      </trkpt>
      <trkpt lat="45.24664" lon="6.14034">
        <ele>2697.8000488281</ele>
        <time>2019-05-01T08:27:58.000Z</time>
      </trkpt>
      <trkpt lat="45.24665" lon="6.14029">
        <ele>2698.8000488281</ele>
        <time>2019-05-01T08:28:04.000Z</time>
      </trkpt>
      <trkpt lat="45.24665" lon="6.14029">
        <ele>2699</ele>
        <time>2019-05-01T08:28:05.000Z</time>
      </trkpt>
      <trkpt lat="45.24667" lon="6.14023">
        <ele>2700</ele>
        <time>2019-05-01T08:28:11.000Z</time>
      </trkpt>
      <trkpt lat="45.24668" lon="6.14019">
        <ele>2700.3999023438</ele>
        <time>2019-05-01T08:28:14.000Z</time>
      </trkpt>
      <trkpt lat="45.24669" lon="6.14018">
        <ele>2700.8000488281</ele>
        <time>2019-05-01T08:28:17.000Z</time>
      </trkpt>
      <trkpt lat="45.24669" lon="6.14016">
        <ele>2701</ele>
        <time>2019-05-01T08:28:19.000Z</time>
      </trkpt>
      <trkpt lat="45.24671" lon="6.14011">
        <ele>2701.6000976562</ele>
        <time>2019-05-01T08:28:23.000Z</time>
      </trkpt>
      <trkpt lat="45.24672" lon="6.1401">
        <ele>2702</ele>
        <time>2019-05-01T08:28:26.000Z</time>
      </trkpt>
      <trkpt lat="45.24673" lon="6.14008">
        <ele>2702.3999023438</ele>
        <time>2019-05-01T08:28:28.000Z</time>
      </trkpt>
      <trkpt lat="45.24676" lon="6.14003">
        <ele>2703.1999511719</ele>
        <time>2019-05-01T08:28:34.000Z</time>
      </trkpt>
      <trkpt lat="45.24676" lon="6.14003">
        <ele>2703.3999023438</ele>
        <time>2019-05-01T08:28:35.000Z</time>
      </trkpt>
      <trkpt lat="45.24677" lon="6.13999">
        <ele>2704.1999511719</ele>
        <time>2019-05-01T08:28:41.000Z</time>
      </trkpt>
      <trkpt lat="45.24677" lon="6.13999">
        <ele>2704.3999023438</ele>
        <time>2019-05-01T08:28:42.000Z</time>
      </trkpt>
      <trkpt lat="45.24676" lon="6.13998">
        <ele>2705.1999511719</ele>
        <time>2019-05-01T08:28:49.000Z</time>
      </trkpt>
      <trkpt lat="45.24676" lon="6.13998">
        <ele>2705.1999511719</ele>
        <time>2019-05-01T08:28:50.000Z</time>
      </trkpt>
      <trkpt lat="45.24672" lon="6.13996">
        <ele>2706</ele>
        <time>2019-05-01T08:28:56.000Z</time>
      </trkpt>
      <trkpt lat="45.24669" lon="6.13995">
        <ele>2706.6000976562</ele>
        <time>2019-05-01T08:28:59.000Z</time>
      </trkpt>
      <trkpt lat="45.24667" lon="6.13993">
        <ele>2706.8000488281</ele>
        <time>2019-05-01T08:29:01.000Z</time>
      </trkpt>
      <trkpt lat="45.24665" lon="6.13993">
        <ele>2707.3999023438</ele>
        <time>2019-05-01T08:29:06.000Z</time>
      </trkpt>
      <trkpt lat="45.24665" lon="6.13993">
        <ele>2707.6000976562</ele>
        <time>2019-05-01T08:29:07.000Z</time>
      </trkpt>
      <trkpt lat="45.24663" lon="6.13993">
        <ele>2708.3999023438</ele>
        <time>2019-05-01T08:29:12.000Z</time>
      </trkpt>
      <trkpt lat="45.24663" lon="6.13993">
        <ele>2708.6000976562</ele>
        <time>2019-05-01T08:29:14.000Z</time>
      </trkpt>
      <trkpt lat="45.24662" lon="6.13993">
        <ele>2708.8000488281</ele>
        <time>2019-05-01T08:29:16.000Z</time>
      </trkpt>
      <trkpt lat="45.2466" lon="6.13993">
        <ele>2709.1999511719</ele>
        <time>2019-05-01T08:29:18.000Z</time>
      </trkpt>
      <trkpt lat="45.2466" lon="6.13993">
        <ele>2709.6000976562</ele>
        <time>2019-05-01T08:29:21.000Z</time>
      </trkpt>
      <trkpt lat="45.2466" lon="6.13993">
        <ele>2709.8000488281</ele>
        <time>2019-05-01T08:29:22.000Z</time>
      </trkpt>
      <trkpt lat="45.2466" lon="6.13993">
        <ele>2710.6000976562</ele>
        <time>2019-05-01T08:29:29.000Z</time>
      </trkpt>
      <trkpt lat="45.2466" lon="6.13992">
        <ele>2710.6000976562</ele>
        <time>2019-05-01T08:29:30.000Z</time>
      </trkpt>
      <trkpt lat="45.2466" lon="6.13993">
        <ele>2711.1999511719</ele>
        <time>2019-05-01T08:29:35.000Z</time>
      </trkpt>
      <trkpt lat="45.24661" lon="6.13989">
        <ele>2711.8000488281</ele>
        <time>2019-05-01T08:29:38.000Z</time>
      </trkpt>
      <trkpt lat="45.24662" lon="6.13987">
        <ele>2711.8000488281</ele>
        <time>2019-05-01T08:29:39.000Z</time>
      </trkpt>
      <trkpt lat="45.24662" lon="6.13985">
        <ele>2712</ele>
        <time>2019-05-01T08:29:41.000Z</time>
      </trkpt>
      <trkpt lat="45.24663" lon="6.13982">
        <ele>2712.8000488281</ele>
        <time>2019-05-01T08:29:45.000Z</time>
      </trkpt>
      <trkpt lat="45.24665" lon="6.13979">
        <ele>2713.3999023438</ele>
        <time>2019-05-01T08:29:48.000Z</time>
      </trkpt>
      <trkpt lat="45.24667" lon="6.13976">
        <ele>2714</ele>
        <time>2019-05-01T08:29:52.000Z</time>
      </trkpt>
      <trkpt lat="45.24669" lon="6.13975">
        <ele>2714.3999023438</ele>
        <time>2019-05-01T08:29:55.000Z</time>
      </trkpt>
      <trkpt lat="45.24672" lon="6.13973">
        <ele>2715</ele>
        <time>2019-05-01T08:29:59.000Z</time>
      </trkpt>
      <trkpt lat="45.24673" lon="6.13972">
        <ele>2715.3999023438</ele>
        <time>2019-05-01T08:30:02.000Z</time>
      </trkpt>
      <trkpt lat="45.24672" lon="6.13971">
        <ele>2716</ele>
        <time>2019-05-01T08:30:06.000Z</time>
      </trkpt>
      <trkpt lat="45.24671" lon="6.1397">
        <ele>2716.1999511719</ele>
        <time>2019-05-01T08:30:09.000Z</time>
      </trkpt>
      <trkpt lat="45.24664" lon="6.13964">
        <ele>2717</ele>
        <time>2019-05-01T08:30:15.000Z</time>
      </trkpt>
      <trkpt lat="45.24663" lon="6.13963">
        <ele>2717</ele>
        <time>2019-05-01T08:30:16.000Z</time>
      </trkpt>
      <trkpt lat="45.24661" lon="6.13961">
        <ele>2717.8000488281</ele>
        <time>2019-05-01T08:30:20.000Z</time>
      </trkpt>
      <trkpt lat="45.2466" lon="6.1396">
        <ele>2718.1999511719</ele>
        <time>2019-05-01T08:30:22.000Z</time>
      </trkpt>
      <trkpt lat="45.2466" lon="6.1396">
        <ele>2718.8000488281</ele>
        <time>2019-05-01T08:30:28.000Z</time>
      </trkpt>
      <trkpt lat="45.2466" lon="6.1396">
        <ele>2718.8000488281</ele>
        <time>2019-05-01T08:30:44.000Z</time>
      </trkpt>
      <trkpt lat="45.2466" lon="6.1396">
        <ele>2718.8000488281</ele>
        <time>2019-05-01T08:31:01.000Z</time>
      </trkpt>
      <trkpt lat="45.2466" lon="6.1396">
        <ele>2719.1999511719</ele>
        <time>2019-05-01T08:31:05.000Z</time>
      </trkpt>
      <trkpt lat="45.2466" lon="6.1396">
        <ele>2719.3999023438</ele>
        <time>2019-05-01T08:31:08.000Z</time>
      </trkpt>
      <trkpt lat="45.24663" lon="6.13957">
        <ele>2720</ele>
        <time>2019-05-01T08:31:14.000Z</time>
      </trkpt>
      <trkpt lat="45.24664" lon="6.13957">
        <ele>2720.1999511719</ele>
        <time>2019-05-01T08:31:15.000Z</time>
      </trkpt>
      <trkpt lat="45.24668" lon="6.13955">
        <ele>2720.8000488281</ele>
        <time>2019-05-01T08:31:20.000Z</time>
      </trkpt>
      <trkpt lat="45.24669" lon="6.13955">
        <ele>2721.3999023438</ele>
        <time>2019-05-01T08:31:23.000Z</time>
      </trkpt>
      <trkpt lat="45.2467" lon="6.13955">
        <ele>2721.8000488281</ele>
        <time>2019-05-01T08:31:25.000Z</time>
      </trkpt>
      <trkpt lat="45.24669" lon="6.13954">
        <ele>2722</ele>
        <time>2019-05-01T08:31:31.000Z</time>
      </trkpt>
      <trkpt lat="45.24664" lon="6.13951">
        <ele>2722.6000976562</ele>
        <time>2019-05-01T08:31:35.000Z</time>
      </trkpt>
      <trkpt lat="45.24664" lon="6.13951">
        <ele>2722.8000488281</ele>
        <time>2019-05-01T08:31:37.000Z</time>
      </trkpt>
      <trkpt lat="45.24659" lon="6.13949">
        <ele>2723.6000976562</ele>
        <time>2019-05-01T08:31:42.000Z</time>
      </trkpt>
      <trkpt lat="45.24658" lon="6.13948">
        <ele>2723.6000976562</ele>
        <time>2019-05-01T08:31:43.000Z</time>
      </trkpt>
      <trkpt lat="45.24655" lon="6.13947">
        <ele>2724.3999023438</ele>
        <time>2019-05-01T08:31:47.000Z</time>
      </trkpt>
      <trkpt lat="45.24653" lon="6.1395">
        <ele>2724.6000976562</ele>
        <time>2019-05-01T08:31:49.000Z</time>
      </trkpt>
      <trkpt lat="45.24652" lon="6.1395">
        <ele>2724.8000488281</ele>
        <time>2019-05-01T08:31:50.000Z</time>
      </trkpt>
      <trkpt lat="45.24651" lon="6.1395">
        <ele>2724.8000488281</ele>
        <time>2019-05-01T08:31:51.000Z</time>
      </trkpt>
      <trkpt lat="45.24649" lon="6.1395">
        <ele>2725.8000488281</ele>
        <time>2019-05-01T08:31:56.000Z</time>
      </trkpt>
      <trkpt lat="45.24649" lon="6.1395">
        <ele>2726</ele>
        <time>2019-05-01T08:31:57.000Z</time>
      </trkpt>
      <trkpt lat="45.24649" lon="6.1395">
        <ele>2726.3999023438</ele>
        <time>2019-05-01T08:32:04.000Z</time>
      </trkpt>
      <trkpt lat="45.24649" lon="6.1395">
        <ele>2726.1999511719</ele>
        <time>2019-05-01T08:32:13.000Z</time>
      </trkpt>
      <trkpt lat="45.2465" lon="6.13949">
        <ele>2727</ele>
        <time>2019-05-01T08:32:20.000Z</time>
      </trkpt>
      <trkpt lat="45.24654" lon="6.13946">
        <ele>2728</ele>
        <time>2019-05-01T08:32:25.000Z</time>
      </trkpt>
      <trkpt lat="45.24654" lon="6.13946">
        <ele>2728.1999511719</ele>
        <time>2019-05-01T08:32:26.000Z</time>
      </trkpt>
      <trkpt lat="45.24658" lon="6.13943">
        <ele>2729.1999511719</ele>
        <time>2019-05-01T08:32:31.000Z</time>
      </trkpt>
      <trkpt lat="45.24659" lon="6.13943">
        <ele>2729.3999023438</ele>
        <time>2019-05-01T08:32:32.000Z</time>
      </trkpt>
      <trkpt lat="45.24664" lon="6.1394">
        <ele>2730.3999023438</ele>
        <time>2019-05-01T08:32:36.000Z</time>
      </trkpt>
      <trkpt lat="45.24666" lon="6.13939">
        <ele>2731</ele>
        <time>2019-05-01T08:32:39.000Z</time>
      </trkpt>
      <trkpt lat="45.24668" lon="6.13937">
        <ele>2731.3999023438</ele>
        <time>2019-05-01T08:32:41.000Z</time>
      </trkpt>
      <trkpt lat="45.24669" lon="6.13937">
        <ele>2731.8000488281</ele>
        <time>2019-05-01T08:32:46.000Z</time>
      </trkpt>
      <trkpt lat="45.24665" lon="6.13936">
        <ele>2732.1999511719</ele>
        <time>2019-05-01T08:32:51.000Z</time>
      </trkpt>
      <trkpt lat="45.24664" lon="6.13935">
        <ele>2732.1999511719</ele>
        <time>2019-05-01T08:32:52.000Z</time>
      </trkpt>
      <trkpt lat="45.24664" lon="6.13935">
        <ele>2732.3999023438</ele>
        <time>2019-05-01T08:32:53.000Z</time>
      </trkpt>
      <trkpt lat="45.2466" lon="6.13934">
        <ele>2733</ele>
        <time>2019-05-01T08:32:57.000Z</time>
      </trkpt>
      <trkpt lat="45.24658" lon="6.13934">
        <ele>2733.3999023438</ele>
        <time>2019-05-01T08:33:00.000Z</time>
      </trkpt>
      <trkpt lat="45.24658" lon="6.13933">
        <ele>2733.8000488281</ele>
        <time>2019-05-01T08:33:02.000Z</time>
      </trkpt>
      <trkpt lat="45.24654" lon="6.13931">
        <ele>2734.6000976562</ele>
        <time>2019-05-01T08:33:07.000Z</time>
      </trkpt>
      <trkpt lat="45.24653" lon="6.13932">
        <ele>2734.8000488281</ele>
        <time>2019-05-01T08:33:08.000Z</time>
      </trkpt>
      <trkpt lat="45.2465" lon="6.1393">
        <ele>2735.8000488281</ele>
        <time>2019-05-01T08:33:13.000Z</time>
      </trkpt>
      <trkpt lat="45.2465" lon="6.13929">
        <ele>2736.1999511719</ele>
        <time>2019-05-01T08:33:16.000Z</time>
      </trkpt>
      <trkpt lat="45.2465" lon="6.13929">
        <ele>2736.8000488281</ele>
        <time>2019-05-01T08:33:19.000Z</time>
      </trkpt>
      <trkpt lat="45.24653" lon="6.13929">
        <ele>2737.1999511719</ele>
        <time>2019-05-01T08:33:23.000Z</time>
      </trkpt>
      <trkpt lat="45.24654" lon="6.13928">
        <ele>2737.1999511719</ele>
        <time>2019-05-01T08:33:25.000Z</time>
      </trkpt>
      <trkpt lat="45.24656" lon="6.13928">
        <ele>2737.6000976562</ele>
        <time>2019-05-01T08:33:29.000Z</time>
      </trkpt>
      <trkpt lat="45.24657" lon="6.13928">
        <ele>2738</ele>
        <time>2019-05-01T08:33:31.000Z</time>
      </trkpt>
      <trkpt lat="45.24662" lon="6.13926">
        <ele>2739</ele>
        <time>2019-05-01T08:33:37.000Z</time>
      </trkpt>
      <trkpt lat="45.24667" lon="6.13924">
        <ele>2739.8000488281</ele>
        <time>2019-05-01T08:33:43.000Z</time>
      </trkpt>
      <trkpt lat="45.24668" lon="6.13924">
        <ele>2740</ele>
        <time>2019-05-01T08:33:45.000Z</time>
      </trkpt>
      <trkpt lat="45.24669" lon="6.13924">
        <ele>2740.8000488281</ele>
        <time>2019-05-01T08:33:49.000Z</time>
      </trkpt>
      <trkpt lat="45.24671" lon="6.13924">
        <ele>2741</ele>
        <time>2019-05-01T08:33:50.000Z</time>
      </trkpt>
      <trkpt lat="45.24672" lon="6.13923">
        <ele>2741.6000976562</ele>
        <time>2019-05-01T08:33:54.000Z</time>
      </trkpt>
      <trkpt lat="45.24672" lon="6.13923">
        <ele>2742.1999511719</ele>
        <time>2019-05-01T08:34:01.000Z</time>
      </trkpt>
      <trkpt lat="45.24672" lon="6.13926">
        <ele>2742.1999511719</ele>
        <time>2019-05-01T08:34:02.000Z</time>
      </trkpt>
      <trkpt lat="45.24672" lon="6.13928">
        <ele>2742.1999511719</ele>
        <time>2019-05-01T08:34:03.000Z</time>
      </trkpt>
      <trkpt lat="45.24672" lon="6.13932">
        <ele>2741</ele>
        <time>2019-05-01T08:34:08.000Z</time>
      </trkpt>
      <trkpt lat="45.24672" lon="6.13932">
        <ele>2740.3999023438</ele>
        <time>2019-05-01T08:34:09.000Z</time>
      </trkpt>
      <trkpt lat="45.24672" lon="6.13932">
        <ele>2739.8000488281</ele>
        <time>2019-05-01T08:34:10.000Z</time>
      </trkpt>
      <trkpt lat="45.24672" lon="6.13932">
        <ele>2738.6000976562</ele>
        <time>2019-05-01T08:34:11.000Z</time>
      </trkpt>
      <trkpt lat="45.24672" lon="6.13932">
        <ele>2737.3999023438</ele>
        <time>2019-05-01T08:34:15.000Z</time>
      </trkpt>
      <trkpt lat="45.24672" lon="6.13932">
        <ele>2737.1999511719</ele>
        <time>2019-05-01T08:34:18.000Z</time>
      </trkpt>
      <trkpt lat="45.24672" lon="6.13932">
        <ele>2737.1999511719</ele>
        <time>2019-05-01T08:34:32.000Z</time>
      </trkpt>
      <trkpt lat="45.24672" lon="6.13932">
        <ele>2737.1999511719</ele>
        <time>2019-05-01T08:34:35.000Z</time>
      </trkpt>
      <trkpt lat="45.24672" lon="6.13932">
        <ele>2737.1999511719</ele>
        <time>2019-05-01T08:34:46.000Z</time>
      </trkpt>
      <trkpt lat="45.24673" lon="6.13933">
        <ele>2737.1999511719</ele>
        <time>2019-05-01T08:34:55.000Z</time>
      </trkpt>
      <trkpt lat="45.24673" lon="6.13933">
        <ele>2737.1999511719</ele>
        <time>2019-05-01T08:35:07.000Z</time>
      </trkpt>
      <trkpt lat="45.24672" lon="6.13932">
        <ele>2737.8000488281</ele>
        <time>2019-05-01T08:35:13.000Z</time>
      </trkpt>
      <trkpt lat="45.24669" lon="6.13926">
        <ele>2738.1999511719</ele>
        <time>2019-05-01T08:35:18.000Z</time>
      </trkpt>
      <trkpt lat="45.24668" lon="6.13925">
        <ele>2738.6000976562</ele>
        <time>2019-05-01T08:35:20.000Z</time>
      </trkpt>
      <trkpt lat="45.24667" lon="6.13922">
        <ele>2739.3999023438</ele>
        <time>2019-05-01T08:35:24.000Z</time>
      </trkpt>
      <trkpt lat="45.24667" lon="6.13921">
        <ele>2739.8000488281</ele>
        <time>2019-05-01T08:35:26.000Z</time>
      </trkpt>
      <trkpt lat="45.24668" lon="6.13922">
        <ele>2740.1999511719</ele>
        <time>2019-05-01T08:35:29.000Z</time>
      </trkpt>
      <trkpt lat="45.24672" lon="6.13923">
        <ele>2740.3999023438</ele>
        <time>2019-05-01T08:35:35.000Z</time>
      </trkpt>
      <trkpt lat="45.24673" lon="6.13924">
        <ele>2740.8000488281</ele>
        <time>2019-05-01T08:35:39.000Z</time>
      </trkpt>
      <trkpt lat="45.24673" lon="6.13924">
        <ele>2741.1999511719</ele>
        <time>2019-05-01T08:35:42.000Z</time>
      </trkpt>
      <trkpt lat="45.24673" lon="6.13924">
        <ele>2742</ele>
        <time>2019-05-01T08:35:48.000Z</time>
      </trkpt>
      <trkpt lat="45.24673" lon="6.13924">
        <ele>2741.8000488281</ele>
        <time>2019-05-01T08:35:52.000Z</time>
      </trkpt>
      <trkpt lat="45.24673" lon="6.13922">
        <ele>2742</ele>
        <time>2019-05-01T08:35:59.000Z</time>
      </trkpt>
      <trkpt lat="45.2467" lon="6.13918">
        <ele>2742.6000976562</ele>
        <time>2019-05-01T08:36:04.000Z</time>
      </trkpt>
      <trkpt lat="45.24666" lon="6.13916">
        <ele>2743</ele>
        <time>2019-05-01T08:36:08.000Z</time>
      </trkpt>
      <trkpt lat="45.24665" lon="6.13915">
        <ele>2743</ele>
        <time>2019-05-01T08:36:09.000Z</time>
      </trkpt>
      <trkpt lat="45.24663" lon="6.13914">
        <ele>2744</ele>
        <time>2019-05-01T08:36:15.000Z</time>
      </trkpt>
      <trkpt lat="45.24659" lon="6.13911">
        <ele>2744.6000976562</ele>
        <time>2019-05-01T08:36:22.000Z</time>
      </trkpt>
      <trkpt lat="45.24655" lon="6.13911">
        <ele>2745.1999511719</ele>
        <time>2019-05-01T08:36:26.000Z</time>
      </trkpt>
      <trkpt lat="45.24654" lon="6.13912">
        <ele>2745.6000976562</ele>
        <time>2019-05-01T08:36:28.000Z</time>
      </trkpt>
      <trkpt lat="45.24652" lon="6.13912">
        <ele>2746.1999511719</ele>
        <time>2019-05-01T08:36:33.000Z</time>
      </trkpt>
      <trkpt lat="45.24652" lon="6.13912">
        <ele>2746.3999023438</ele>
        <time>2019-05-01T08:36:34.000Z</time>
      </trkpt>
      <trkpt lat="45.24653" lon="6.13912">
        <ele>2747</ele>
        <time>2019-05-01T08:36:41.000Z</time>
      </trkpt>
      <trkpt lat="45.24657" lon="6.13912">
        <ele>2747.1999511719</ele>
        <time>2019-05-01T08:36:48.000Z</time>
      </trkpt>
      <trkpt lat="45.24659" lon="6.13912">
        <ele>2747.3999023438</ele>
        <time>2019-05-01T08:36:50.000Z</time>
      </trkpt>
      <trkpt lat="45.24663" lon="6.13913">
        <ele>2748.1999511719</ele>
        <time>2019-05-01T08:36:56.000Z</time>
      </trkpt>
      <trkpt lat="45.24663" lon="6.13913">
        <ele>2748.3999023438</ele>
        <time>2019-05-01T08:36:57.000Z</time>
      </trkpt>
      <trkpt lat="45.24666" lon="6.13912">
        <ele>2749.6000976562</ele>
        <time>2019-05-01T08:37:01.000Z</time>
      </trkpt>
      <trkpt lat="45.2467" lon="6.13912">
        <ele>2750.8000488281</ele>
        <time>2019-05-01T08:37:07.000Z</time>
      </trkpt>
      <trkpt lat="45.24671" lon="6.13913">
        <ele>2751.3999023438</ele>
        <time>2019-05-01T08:37:09.000Z</time>
      </trkpt>
      <trkpt lat="45.24675" lon="6.13911">
        <ele>2752</ele>
        <time>2019-05-01T08:37:13.000Z</time>
      </trkpt>
      <trkpt lat="45.24676" lon="6.13911">
        <ele>2752.1999511719</ele>
        <time>2019-05-01T08:37:14.000Z</time>
      </trkpt>
      <trkpt lat="45.24677" lon="6.13911">
        <ele>2753</ele>
        <time>2019-05-01T08:37:18.000Z</time>
      </trkpt>
      <trkpt lat="45.24678" lon="6.1391">
        <ele>2753.1999511719</ele>
        <time>2019-05-01T08:37:19.000Z</time>
      </trkpt>
      <trkpt lat="45.24682" lon="6.13909">
        <ele>2754.1999511719</ele>
        <time>2019-05-01T08:37:24.000Z</time>
      </trkpt>
      <trkpt lat="45.24683" lon="6.13909">
        <ele>2754.1999511719</ele>
        <time>2019-05-01T08:37:25.000Z</time>
      </trkpt>
      <trkpt lat="45.24683" lon="6.13909">
        <ele>2755.1999511719</ele>
        <time>2019-05-01T08:37:30.000Z</time>
      </trkpt>
      <trkpt lat="45.24683" lon="6.13908">
        <ele>2755.8000488281</ele>
        <time>2019-05-01T08:37:41.000Z</time>
      </trkpt>
      <trkpt lat="45.24683" lon="6.13906">
        <ele>2756.1999511719</ele>
        <time>2019-05-01T08:37:44.000Z</time>
      </trkpt>
      <trkpt lat="45.24681" lon="6.13904">
        <ele>2756.6000976562</ele>
        <time>2019-05-01T08:37:47.000Z</time>
      </trkpt>
      <trkpt lat="45.24679" lon="6.13903">
        <ele>2757.1999511719</ele>
        <time>2019-05-01T08:37:50.000Z</time>
      </trkpt>
      <trkpt lat="45.24678" lon="6.13902">
        <ele>2758</ele>
        <time>2019-05-01T08:37:53.000Z</time>
      </trkpt>
      <trkpt lat="45.24678" lon="6.13902">
        <ele>2758.3999023438</ele>
        <time>2019-05-01T08:37:56.000Z</time>
      </trkpt>
      <trkpt lat="45.24678" lon="6.13902">
        <ele>2759.3999023438</ele>
        <time>2019-05-01T08:38:01.000Z</time>
      </trkpt>
      <trkpt lat="45.24679" lon="6.13903">
        <ele>2759.3999023438</ele>
        <time>2019-05-01T08:38:09.000Z</time>
      </trkpt>
      <trkpt lat="45.24683" lon="6.13901">
        <ele>2760.1999511719</ele>
        <time>2019-05-01T08:38:16.000Z</time>
      </trkpt>
      <trkpt lat="45.24683" lon="6.139">
        <ele>2760.3999023438</ele>
        <time>2019-05-01T08:38:17.000Z</time>
      </trkpt>
      <trkpt lat="45.24683" lon="6.13899">
        <ele>2761.6000976562</ele>
        <time>2019-05-01T08:38:24.000Z</time>
      </trkpt>
      <trkpt lat="45.24683" lon="6.13899">
        <ele>2762</ele>
        <time>2019-05-01T08:38:33.000Z</time>
      </trkpt>
      <trkpt lat="45.24683" lon="6.13899">
        <ele>2761.8000488281</ele>
        <time>2019-05-01T08:38:46.000Z</time>
      </trkpt>
      <trkpt lat="45.24683" lon="6.13899">
        <ele>2761.6000976562</ele>
        <time>2019-05-01T08:38:57.000Z</time>
      </trkpt>
      <trkpt lat="45.24683" lon="6.13899">
        <ele>2761.3999023438</ele>
        <time>2019-05-01T08:39:12.000Z</time>
      </trkpt>
      <trkpt lat="45.24683" lon="6.13899">
        <ele>2762.1999511719</ele>
        <time>2019-05-01T08:39:25.000Z</time>
      </trkpt>
      <trkpt lat="45.24683" lon="6.13899">
        <ele>2761.8000488281</ele>
        <time>2019-05-01T08:39:36.000Z</time>
      </trkpt>
      <trkpt lat="45.24683" lon="6.13898">
        <ele>2761.8000488281</ele>
        <time>2019-05-01T08:39:44.000Z</time>
      </trkpt>
      <trkpt lat="45.24683" lon="6.13898">
        <ele>2761.6000976562</ele>
        <time>2019-05-01T08:39:59.000Z</time>
      </trkpt>
      <trkpt lat="45.24683" lon="6.13898">
        <ele>2761.6000976562</ele>
        <time>2019-05-01T08:40:15.000Z</time>
      </trkpt>
      <trkpt lat="45.24683" lon="6.13899">
        <ele>2761.8000488281</ele>
        <time>2019-05-01T08:40:27.000Z</time>
      </trkpt>
      <trkpt lat="45.24683" lon="6.13899">
        <ele>2761.8000488281</ele>
        <time>2019-05-01T08:40:39.000Z</time>
      </trkpt>
      <trkpt lat="45.24683" lon="6.13899">
        <ele>2761.8000488281</ele>
        <time>2019-05-01T08:40:52.000Z</time>
      </trkpt>
      <trkpt lat="45.24683" lon="6.13898">
        <ele>2761.8000488281</ele>
        <time>2019-05-01T08:41:07.000Z</time>
      </trkpt>
      <trkpt lat="45.24683" lon="6.13898">
        <ele>2761.8000488281</ele>
        <time>2019-05-01T08:41:20.000Z</time>
      </trkpt>
      <trkpt lat="45.24683" lon="6.13898">
        <ele>2761.8000488281</ele>
        <time>2019-05-01T08:41:35.000Z</time>
      </trkpt>
      <trkpt lat="45.24683" lon="6.13898">
        <ele>2761.6000976562</ele>
        <time>2019-05-01T08:41:53.000Z</time>
      </trkpt>
      <trkpt lat="45.24683" lon="6.13898">
        <ele>2761.8000488281</ele>
        <time>2019-05-01T08:42:11.000Z</time>
      </trkpt>
      <trkpt lat="45.24683" lon="6.13898">
        <ele>2761.8000488281</ele>
        <time>2019-05-01T08:42:25.000Z</time>
      </trkpt>
      <trkpt lat="45.24683" lon="6.13898">
        <ele>2761.8000488281</ele>
        <time>2019-05-01T08:42:39.000Z</time>
      </trkpt>
      <trkpt lat="45.24683" lon="6.13898">
        <ele>2761.6000976562</ele>
        <time>2019-05-01T08:42:53.000Z</time>
      </trkpt>
      <trkpt lat="45.24683" lon="6.13898">
        <ele>2761.6000976562</ele>
        <time>2019-05-01T08:43:11.000Z</time>
      </trkpt>
      <trkpt lat="45.24683" lon="6.13898">
        <ele>2761.6000976562</ele>
        <time>2019-05-01T08:43:26.000Z</time>
      </trkpt>
      <trkpt lat="45.24683" lon="6.13898">
        <ele>2761.6000976562</ele>
        <time>2019-05-01T08:43:43.000Z</time>
      </trkpt>
      <trkpt lat="45.24683" lon="6.13898">
        <ele>2761.6000976562</ele>
        <time>2019-05-01T08:43:56.000Z</time>
      </trkpt>
      <trkpt lat="45.24683" lon="6.13898">
        <ele>2761.6000976562</ele>
        <time>2019-05-01T08:44:11.000Z</time>
      </trkpt>
      <trkpt lat="45.24683" lon="6.13898">
        <ele>2761.6000976562</ele>
        <time>2019-05-01T08:44:19.000Z</time>
      </trkpt>
      <trkpt lat="45.24683" lon="6.13898">
        <ele>2761.6000976562</ele>
        <time>2019-05-01T08:44:21.000Z</time>
      </trkpt>
      <trkpt lat="45.24683" lon="6.13899">
        <ele>2761.8000488281</ele>
        <time>2019-05-01T08:44:35.000Z</time>
      </trkpt>
      <trkpt lat="45.24683" lon="6.13899">
        <ele>2761.8000488281</ele>
        <time>2019-05-01T08:44:53.000Z</time>
      </trkpt>
      <trkpt lat="45.24683" lon="6.13899">
        <ele>2761.8000488281</ele>
        <time>2019-05-01T08:45:12.000Z</time>
      </trkpt>
      <trkpt lat="45.24683" lon="6.13899">
        <ele>2761.8000488281</ele>
        <time>2019-05-01T08:45:24.000Z</time>
      </trkpt>
      <trkpt lat="45.24683" lon="6.13899">
        <ele>2761.8000488281</ele>
        <time>2019-05-01T08:45:36.000Z</time>
      </trkpt>
      <trkpt lat="45.24683" lon="6.13899">
        <ele>2761.8000488281</ele>
        <time>2019-05-01T08:45:50.000Z</time>
      </trkpt>
      <trkpt lat="45.24683" lon="6.13899">
        <ele>2761.6000976562</ele>
        <time>2019-05-01T08:46:07.000Z</time>
      </trkpt>
      <trkpt lat="45.24683" lon="6.13899">
        <ele>2761.8000488281</ele>
        <time>2019-05-01T08:46:20.000Z</time>
      </trkpt>
      <trkpt lat="45.24683" lon="6.13899">
        <ele>2761.8000488281</ele>
        <time>2019-05-01T08:46:34.000Z</time>
      </trkpt>
      <trkpt lat="45.24683" lon="6.13898">
        <ele>2761.6000976562</ele>
        <time>2019-05-01T08:46:49.000Z</time>
      </trkpt>
      <trkpt lat="45.24681" lon="6.13896">
        <ele>2761.3999023438</ele>
        <time>2019-05-01T08:46:54.000Z</time>
      </trkpt>
      <trkpt lat="45.24681" lon="6.13896">
        <ele>2760.8000488281</ele>
        <time>2019-05-01T08:47:06.000Z</time>
      </trkpt>
      <trkpt lat="45.24681" lon="6.13896">
        <ele>2760.8000488281</ele>
        <time>2019-05-01T08:47:24.000Z</time>
      </trkpt>
      <trkpt lat="45.24681" lon="6.13893">
        <ele>2760.8000488281</ele>
        <time>2019-05-01T08:47:34.000Z</time>
      </trkpt>
      <trkpt lat="45.24681" lon="6.13892">
        <ele>2760.6000976562</ele>
        <time>2019-05-01T08:47:37.000Z</time>
      </trkpt>
      <trkpt lat="45.24681" lon="6.13892">
        <ele>2760</ele>
        <time>2019-05-01T08:47:40.000Z</time>
      </trkpt>
      <trkpt lat="45.24682" lon="6.1389">
        <ele>2759.8000488281</ele>
        <time>2019-05-01T08:47:42.000Z</time>
      </trkpt>
      <trkpt lat="45.24685" lon="6.1389">
        <ele>2759.8000488281</ele>
        <time>2019-05-01T08:47:44.000Z</time>
      </trkpt>
      <trkpt lat="45.24684" lon="6.1389">
        <ele>2759.3999023438</ele>
        <time>2019-05-01T08:47:46.000Z</time>
      </trkpt>
      <trkpt lat="45.24683" lon="6.1389">
        <ele>2758</ele>
        <time>2019-05-01T08:47:48.000Z</time>
      </trkpt>
      <trkpt lat="45.24683" lon="6.1389">
        <ele>2757.1999511719</ele>
        <time>2019-05-01T08:48:03.000Z</time>
      </trkpt>
      <trkpt lat="45.24683" lon="6.1389">
        <ele>2757.1999511719</ele>
        <time>2019-05-01T08:48:19.000Z</time>
      </trkpt>
      <trkpt lat="45.24684" lon="6.1389">
        <ele>2756.8000488281</ele>
        <time>2019-05-01T08:48:24.000Z</time>
      </trkpt>
      <trkpt lat="45.24685" lon="6.13889">
        <ele>2756.6000976562</ele>
        <time>2019-05-01T08:48:26.000Z</time>
      </trkpt>
      <trkpt lat="45.24685" lon="6.13884">
        <ele>2756.1999511719</ele>
        <time>2019-05-01T08:48:29.000Z</time>
      </trkpt>
      <trkpt lat="45.24685" lon="6.13883">
        <ele>2755.6000976562</ele>
        <time>2019-05-01T08:48:31.000Z</time>
      </trkpt>
      <trkpt lat="45.24685" lon="6.13881">
        <ele>2754.6000976562</ele>
        <time>2019-05-01T08:48:33.000Z</time>
      </trkpt>
      <trkpt lat="45.24685" lon="6.13881">
        <ele>2754.1999511719</ele>
        <time>2019-05-01T08:48:34.000Z</time>
      </trkpt>
      <trkpt lat="45.24686" lon="6.13879">
        <ele>2753.8000488281</ele>
        <time>2019-05-01T08:48:35.000Z</time>
      </trkpt>
      <trkpt lat="45.24688" lon="6.13879">
        <ele>2753</ele>
        <time>2019-05-01T08:48:36.000Z</time>
      </trkpt>
      <trkpt lat="45.24689" lon="6.13879">
        <ele>2752.8000488281</ele>
        <time>2019-05-01T08:48:37.000Z</time>
      </trkpt>
      <trkpt lat="45.2469" lon="6.13879">
        <ele>2751.6000976562</ele>
        <time>2019-05-01T08:48:40.000Z</time>
      </trkpt>
      <trkpt lat="45.2469" lon="6.13879">
        <ele>2751</ele>
        <time>2019-05-01T08:48:42.000Z</time>
      </trkpt>
      <trkpt lat="45.24689" lon="6.13875">
        <ele>2750.6000976562</ele>
        <time>2019-05-01T08:48:43.000Z</time>
      </trkpt>
      <trkpt lat="45.24688" lon="6.13872">
        <ele>2750.3999023438</ele>
        <time>2019-05-01T08:48:44.000Z</time>
      </trkpt>
      <trkpt lat="45.24688" lon="6.13872">
        <ele>2749.6000976562</ele>
        <time>2019-05-01T08:48:47.000Z</time>
      </trkpt>
      <trkpt lat="45.24688" lon="6.13872">
        <ele>2748.1999511719</ele>
        <time>2019-05-01T08:48:49.000Z</time>
      </trkpt>
      <trkpt lat="45.24688" lon="6.13871">
        <ele>2747.8000488281</ele>
        <time>2019-05-01T08:48:50.000Z</time>
      </trkpt>
      <trkpt lat="45.24689" lon="6.1387">
        <ele>2747.1999511719</ele>
        <time>2019-05-01T08:48:52.000Z</time>
      </trkpt>
      <trkpt lat="45.24689" lon="6.1387">
        <ele>2747</ele>
        <time>2019-05-01T08:48:53.000Z</time>
      </trkpt>
      <trkpt lat="45.24689" lon="6.13869">
        <ele>2746</ele>
        <time>2019-05-01T08:48:56.000Z</time>
      </trkpt>
      <trkpt lat="45.2469" lon="6.13866">
        <ele>2745.3999023438</ele>
        <time>2019-05-01T08:48:58.000Z</time>
      </trkpt>
      <trkpt lat="45.2469" lon="6.13863">
        <ele>2744.3999023438</ele>
        <time>2019-05-01T08:49:00.000Z</time>
      </trkpt>
      <trkpt lat="45.2469" lon="6.13861">
        <ele>2743.1999511719</ele>
        <time>2019-05-01T08:49:02.000Z</time>
      </trkpt>
      <trkpt lat="45.2469" lon="6.1386">
        <ele>2742.6000976562</ele>
        <time>2019-05-01T08:49:03.000Z</time>
      </trkpt>
      <trkpt lat="45.24691" lon="6.13859">
        <ele>2742</ele>
        <time>2019-05-01T08:49:04.000Z</time>
      </trkpt>
      <trkpt lat="45.24691" lon="6.13855">
        <ele>2741.1999511719</ele>
        <time>2019-05-01T08:49:05.000Z</time>
      </trkpt>
      <trkpt lat="45.24689" lon="6.1385">
        <ele>2740.6000976562</ele>
        <time>2019-05-01T08:49:06.000Z</time>
      </trkpt>
      <trkpt lat="45.24685" lon="6.13842">
        <ele>2739.3999023438</ele>
        <time>2019-05-01T08:49:08.000Z</time>
      </trkpt>
      <trkpt lat="45.24683" lon="6.13837">
        <ele>2737.8000488281</ele>
        <time>2019-05-01T08:49:10.000Z</time>
      </trkpt>
      <trkpt lat="45.24683" lon="6.13835">
        <ele>2737</ele>
        <time>2019-05-01T08:49:11.000Z</time>
      </trkpt>
      <trkpt lat="45.24682" lon="6.13833">
        <ele>2736.1999511719</ele>
        <time>2019-05-01T08:49:12.000Z</time>
      </trkpt>
      <trkpt lat="45.2468" lon="6.13828">
        <ele>2735</ele>
        <time>2019-05-01T08:49:14.000Z</time>
      </trkpt>
      <trkpt lat="45.24677" lon="6.13821">
        <ele>2734.1999511719</ele>
        <time>2019-05-01T08:49:16.000Z</time>
      </trkpt>
      <trkpt lat="45.24677" lon="6.13818">
        <ele>2733.8000488281</ele>
        <time>2019-05-01T08:49:17.000Z</time>
      </trkpt>
      <trkpt lat="45.24677" lon="6.13815">
        <ele>2732.6000976562</ele>
        <time>2019-05-01T08:49:19.000Z</time>
      </trkpt>
      <trkpt lat="45.2468" lon="6.13817">
        <ele>2732.1999511719</ele>
        <time>2019-05-01T08:49:20.000Z</time>
      </trkpt>
      <trkpt lat="45.24682" lon="6.13816">
        <ele>2731.6000976562</ele>
        <time>2019-05-01T08:49:21.000Z</time>
      </trkpt>
      <trkpt lat="45.24685" lon="6.1381">
        <ele>2730.1999511719</ele>
        <time>2019-05-01T08:49:23.000Z</time>
      </trkpt>
      <trkpt lat="45.24687" lon="6.1381">
        <ele>2728</ele>
        <time>2019-05-01T08:49:24.000Z</time>
      </trkpt>
      <trkpt lat="45.2469" lon="6.13811">
        <ele>2726.6000976562</ele>
        <time>2019-05-01T08:49:25.000Z</time>
      </trkpt>
      <trkpt lat="45.24693" lon="6.1381">
        <ele>2725.1999511719</ele>
        <time>2019-05-01T08:49:26.000Z</time>
      </trkpt>
      <trkpt lat="45.24695" lon="6.13807">
        <ele>2723.8000488281</ele>
        <time>2019-05-01T08:49:27.000Z</time>
      </trkpt>
      <trkpt lat="45.24696" lon="6.13803">
        <ele>2722.6000976562</ele>
        <time>2019-05-01T08:49:28.000Z</time>
      </trkpt>
      <trkpt lat="45.24695" lon="6.13802">
        <ele>2721.1999511719</ele>
        <time>2019-05-01T08:49:29.000Z</time>
      </trkpt>
      <trkpt lat="45.24695" lon="6.13802">
        <ele>2719.8000488281</ele>
        <time>2019-05-01T08:49:30.000Z</time>
      </trkpt>
      <trkpt lat="45.24695" lon="6.13802">
        <ele>2718.6000976562</ele>
        <time>2019-05-01T08:49:31.000Z</time>
      </trkpt>
      <trkpt lat="45.24696" lon="6.13802">
        <ele>2717.8000488281</ele>
        <time>2019-05-01T08:49:32.000Z</time>
      </trkpt>
      <trkpt lat="45.24695" lon="6.13802">
        <ele>2717.1999511719</ele>
        <time>2019-05-01T08:49:33.000Z</time>
      </trkpt>
      <trkpt lat="45.24694" lon="6.13803">
        <ele>2716</ele>
        <time>2019-05-01T08:49:36.000Z</time>
      </trkpt>
      <trkpt lat="45.24694" lon="6.13803">
        <ele>2715</ele>
        <time>2019-05-01T08:49:49.000Z</time>
      </trkpt>
      <trkpt lat="45.24694" lon="6.13803">
        <ele>2715</ele>
        <time>2019-05-01T08:49:50.000Z</time>
      </trkpt>
      <trkpt lat="45.24694" lon="6.13803">
        <ele>2715</ele>
        <time>2019-05-01T08:49:59.000Z</time>
      </trkpt>
      <trkpt lat="45.24694" lon="6.13803">
        <ele>2715</ele>
        <time>2019-05-01T08:50:16.000Z</time>
      </trkpt>
      <trkpt lat="45.24694" lon="6.13803">
        <ele>2715</ele>
        <time>2019-05-01T08:50:34.000Z</time>
      </trkpt>
      <trkpt lat="45.24693" lon="6.13803">
        <ele>2715</ele>
        <time>2019-05-01T08:50:55.000Z</time>
      </trkpt>
      <trkpt lat="45.24693" lon="6.13803">
        <ele>2715</ele>
        <time>2019-05-01T08:51:11.000Z</time>
      </trkpt>
      <trkpt lat="45.24693" lon="6.13803">
        <ele>2715</ele>
        <time>2019-05-01T08:51:29.000Z</time>
      </trkpt>
      <trkpt lat="45.24693" lon="6.13802">
        <ele>2714.6000976562</ele>
        <time>2019-05-01T08:51:37.000Z</time>
      </trkpt>
      <trkpt lat="45.24692" lon="6.13797">
        <ele>2714.3999023438</ele>
        <time>2019-05-01T08:51:41.000Z</time>
      </trkpt>
      <trkpt lat="45.24691" lon="6.13796">
        <ele>2714.1999511719</ele>
        <time>2019-05-01T08:51:43.000Z</time>
      </trkpt>
      <trkpt lat="45.24692" lon="6.13795">
        <ele>2714</ele>
        <time>2019-05-01T08:51:49.000Z</time>
      </trkpt>
      <trkpt lat="45.24693" lon="6.13796">
        <ele>2714</ele>
        <time>2019-05-01T08:51:50.000Z</time>
      </trkpt>
      <trkpt lat="45.24693" lon="6.13798">
        <ele>2713.1999511719</ele>
        <time>2019-05-01T08:51:54.000Z</time>
      </trkpt>
      <trkpt lat="45.24694" lon="6.13798">
        <ele>2713</ele>
        <time>2019-05-01T08:51:55.000Z</time>
      </trkpt>
      <trkpt lat="45.24697" lon="6.13803">
        <ele>2712.3999023438</ele>
        <time>2019-05-01T08:51:58.000Z</time>
      </trkpt>
      <trkpt lat="45.24701" lon="6.13805">
        <ele>2712</ele>
        <time>2019-05-01T08:52:00.000Z</time>
      </trkpt>
      <trkpt lat="45.24703" lon="6.13801">
        <ele>2711.6000976562</ele>
        <time>2019-05-01T08:52:01.000Z</time>
      </trkpt>
      <trkpt lat="45.24703" lon="6.13788">
        <ele>2710.8000488281</ele>
        <time>2019-05-01T08:52:04.000Z</time>
      </trkpt>
      <trkpt lat="45.24702" lon="6.13786">
        <ele>2710</ele>
        <time>2019-05-01T08:52:05.000Z</time>
      </trkpt>
      <trkpt lat="45.24702" lon="6.13785">
        <ele>2708</ele>
        <time>2019-05-01T08:52:07.000Z</time>
      </trkpt>
      <trkpt lat="45.24701" lon="6.13785">
        <ele>2707</ele>
        <time>2019-05-01T08:52:08.000Z</time>
      </trkpt>
      <trkpt lat="45.24701" lon="6.13785">
        <ele>2705.3999023438</ele>
        <time>2019-05-01T08:52:10.000Z</time>
      </trkpt>
      <trkpt lat="45.24701" lon="6.13785">
        <ele>2704.3999023438</ele>
        <time>2019-05-01T08:52:13.000Z</time>
      </trkpt>
      <trkpt lat="45.24701" lon="6.13785">
        <ele>2704.3999023438</ele>
        <time>2019-05-01T08:52:14.000Z</time>
      </trkpt>
      <trkpt lat="45.24701" lon="6.13785">
        <ele>2704.3999023438</ele>
        <time>2019-05-01T08:52:29.000Z</time>
      </trkpt>
      <trkpt lat="45.24701" lon="6.13785">
        <ele>2704.3999023438</ele>
        <time>2019-05-01T08:52:39.000Z</time>
      </trkpt>
      <trkpt lat="45.24702" lon="6.13785">
        <ele>2704.3999023438</ele>
        <time>2019-05-01T08:52:52.000Z</time>
      </trkpt>
      <trkpt lat="45.24702" lon="6.13785">
        <ele>2704.3999023438</ele>
        <time>2019-05-01T08:53:05.000Z</time>
      </trkpt>
      <trkpt lat="45.24702" lon="6.13785">
        <ele>2704.3999023438</ele>
        <time>2019-05-01T08:53:21.000Z</time>
      </trkpt>
      <trkpt lat="45.24702" lon="6.13785">
        <ele>2704.3999023438</ele>
        <time>2019-05-01T08:53:34.000Z</time>
      </trkpt>
      <trkpt lat="45.24702" lon="6.13786">
        <ele>2704.3999023438</ele>
        <time>2019-05-01T08:53:38.000Z</time>
      </trkpt>
      <trkpt lat="45.24703" lon="6.13787">
        <ele>2704.3999023438</ele>
        <time>2019-05-01T08:53:41.000Z</time>
      </trkpt>
      <trkpt lat="45.24703" lon="6.13787">
        <ele>2704.1999511719</ele>
        <time>2019-05-01T08:53:52.000Z</time>
      </trkpt>
      <trkpt lat="45.24706" lon="6.13786">
        <ele>2704.1999511719</ele>
        <time>2019-05-01T08:53:56.000Z</time>
      </trkpt>
      <trkpt lat="45.24707" lon="6.13787">
        <ele>2704.1999511719</ele>
        <time>2019-05-01T08:53:57.000Z</time>
      </trkpt>
      <trkpt lat="45.24707" lon="6.13788">
        <ele>2703.1999511719</ele>
        <time>2019-05-01T08:54:01.000Z</time>
      </trkpt>
      <trkpt lat="45.24712" lon="6.13791">
        <ele>2702.6000976562</ele>
        <time>2019-05-01T08:54:11.000Z</time>
      </trkpt>
      <trkpt lat="45.24717" lon="6.13795">
        <ele>2702.1999511719</ele>
        <time>2019-05-01T08:54:13.000Z</time>
      </trkpt>
      <trkpt lat="45.24718" lon="6.13791">
        <ele>2701.8000488281</ele>
        <time>2019-05-01T08:54:14.000Z</time>
      </trkpt>
      <trkpt lat="45.24725" lon="6.13791">
        <ele>2700.3999023438</ele>
        <time>2019-05-01T08:54:16.000Z</time>
      </trkpt>
      <trkpt lat="45.24729" lon="6.13786">
        <ele>2699.3999023438</ele>
        <time>2019-05-01T08:54:17.000Z</time>
      </trkpt>
      <trkpt lat="45.24733" lon="6.13782">
        <ele>2698.1999511719</ele>
        <time>2019-05-01T08:54:18.000Z</time>
      </trkpt>
      <trkpt lat="45.24736" lon="6.13777">
        <ele>2696.6000976562</ele>
        <time>2019-05-01T08:54:19.000Z</time>
      </trkpt>
      <trkpt lat="45.24738" lon="6.1377">
        <ele>2695</ele>
        <time>2019-05-01T08:54:20.000Z</time>
      </trkpt>
      <trkpt lat="45.24738" lon="6.13765">
        <ele>2693</ele>
        <time>2019-05-01T08:54:21.000Z</time>
      </trkpt>
      <trkpt lat="45.24737" lon="6.13761">
        <ele>2691</ele>
        <time>2019-05-01T08:54:22.000Z</time>
      </trkpt>
      <trkpt lat="45.24736" lon="6.13759">
        <ele>2689.1999511719</ele>
        <time>2019-05-01T08:54:23.000Z</time>
      </trkpt>
      <trkpt lat="45.24735" lon="6.13758">
        <ele>2687.3999023438</ele>
        <time>2019-05-01T08:54:24.000Z</time>
      </trkpt>
      <trkpt lat="45.24734" lon="6.13757">
        <ele>2686.1999511719</ele>
        <time>2019-05-01T08:54:25.000Z</time>
      </trkpt>
      <trkpt lat="45.24733" lon="6.13755">
        <ele>2685.1999511719</ele>
        <time>2019-05-01T08:54:27.000Z</time>
      </trkpt>
      <trkpt lat="45.2473" lon="6.13753">
        <ele>2684.8000488281</ele>
        <time>2019-05-01T08:54:30.000Z</time>
      </trkpt>
      <trkpt lat="45.24729" lon="6.13753">
        <ele>2684.6000976562</ele>
        <time>2019-05-01T08:54:37.000Z</time>
      </trkpt>
      <trkpt lat="45.24729" lon="6.13753">
        <ele>2684.6000976562</ele>
        <time>2019-05-01T08:54:46.000Z</time>
      </trkpt>
      <trkpt lat="45.24729" lon="6.13753">
        <ele>2684.6000976562</ele>
        <time>2019-05-01T08:54:50.000Z</time>
      </trkpt>
      <trkpt lat="45.24729" lon="6.13753">
        <ele>2684.3999023438</ele>
        <time>2019-05-01T08:54:59.000Z</time>
      </trkpt>
      <trkpt lat="45.24729" lon="6.13753">
        <ele>2684.6000976562</ele>
        <time>2019-05-01T08:55:14.000Z</time>
      </trkpt>
      <trkpt lat="45.24729" lon="6.13753">
        <ele>2684.3999023438</ele>
        <time>2019-05-01T08:55:27.000Z</time>
      </trkpt>
      <trkpt lat="45.24729" lon="6.13753">
        <ele>2684.6000976562</ele>
        <time>2019-05-01T08:55:39.000Z</time>
      </trkpt>
      <trkpt lat="45.24729" lon="6.13754">
        <ele>2684.6000976562</ele>
        <time>2019-05-01T08:55:57.000Z</time>
      </trkpt>
      <trkpt lat="45.24729" lon="6.13754">
        <ele>2684.3999023438</ele>
        <time>2019-05-01T08:56:03.000Z</time>
      </trkpt>
      <trkpt lat="45.24729" lon="6.13754">
        <ele>2684.3999023438</ele>
        <time>2019-05-01T08:56:10.000Z</time>
      </trkpt>
      <trkpt lat="45.24729" lon="6.13754">
        <ele>2684.3999023438</ele>
        <time>2019-05-01T08:56:21.000Z</time>
      </trkpt>
      <trkpt lat="45.24728" lon="6.13754">
        <ele>2684.3999023438</ele>
        <time>2019-05-01T08:56:33.000Z</time>
      </trkpt>
      <trkpt lat="45.24728" lon="6.13754">
        <ele>2684.3999023438</ele>
        <time>2019-05-01T08:56:47.000Z</time>
      </trkpt>
      <trkpt lat="45.24728" lon="6.13754">
        <ele>2684.3999023438</ele>
        <time>2019-05-01T08:56:57.000Z</time>
      </trkpt>
      <trkpt lat="45.24728" lon="6.13754">
        <ele>2684.6000976562</ele>
        <time>2019-05-01T08:57:07.000Z</time>
      </trkpt>
      <trkpt lat="45.24728" lon="6.13753">
        <ele>2684.3999023438</ele>
        <time>2019-05-01T08:57:19.000Z</time>
      </trkpt>
      <trkpt lat="45.24728" lon="6.13753">
        <ele>2684.3999023438</ele>
        <time>2019-05-01T08:57:31.000Z</time>
      </trkpt>
      <trkpt lat="45.24728" lon="6.13753">
        <ele>2684.3999023438</ele>
        <time>2019-05-01T08:57:42.000Z</time>
      </trkpt>
      <trkpt lat="45.24726" lon="6.13752">
        <ele>2684.3999023438</ele>
        <time>2019-05-01T08:57:51.000Z</time>
      </trkpt>
      <trkpt lat="45.24716" lon="6.13747">
        <ele>2684.3999023438</ele>
        <time>2019-05-01T08:57:54.000Z</time>
      </trkpt>
      <trkpt lat="45.2471" lon="6.13744">
        <ele>2684.1999511719</ele>
        <time>2019-05-01T08:57:55.000Z</time>
      </trkpt>
      <trkpt lat="45.24704" lon="6.13738">
        <ele>2683.6000976562</ele>
        <time>2019-05-01T08:57:56.000Z</time>
      </trkpt>
      <trkpt lat="45.24697" lon="6.13732">
        <ele>2682.8000488281</ele>
        <time>2019-05-01T08:57:57.000Z</time>
      </trkpt>
      <trkpt lat="45.24693" lon="6.13726">
        <ele>2681.6000976562</ele>
        <time>2019-05-01T08:57:58.000Z</time>
      </trkpt>
      <trkpt lat="45.24687" lon="6.13721">
        <ele>2680.3999023438</ele>
        <time>2019-05-01T08:57:59.000Z</time>
      </trkpt>
      <trkpt lat="45.24683" lon="6.13715">
        <ele>2679.1999511719</ele>
        <time>2019-05-01T08:58:00.000Z</time>
      </trkpt>
      <trkpt lat="45.24679" lon="6.13708">
        <ele>2678.1999511719</ele>
        <time>2019-05-01T08:58:01.000Z</time>
      </trkpt>
      <trkpt lat="45.24674" lon="6.13692">
        <ele>2676.8000488281</ele>
        <time>2019-05-01T08:58:03.000Z</time>
      </trkpt>
      <trkpt lat="45.24672" lon="6.13676">
        <ele>2675.3999023438</ele>
        <time>2019-05-01T08:58:05.000Z</time>
      </trkpt>
      <trkpt lat="45.24671" lon="6.1366">
        <ele>2674</ele>
        <time>2019-05-01T08:58:07.000Z</time>
      </trkpt>
      <trkpt lat="45.2467" lon="6.13645">
        <ele>2672.8000488281</ele>
        <time>2019-05-01T08:58:09.000Z</time>
      </trkpt>
      <trkpt lat="45.24669" lon="6.13638">
        <ele>2672</ele>
        <time>2019-05-01T08:58:10.000Z</time>
      </trkpt>
      <trkpt lat="45.24667" lon="6.13631">
        <ele>2671.3999023438</ele>
        <time>2019-05-01T08:58:11.000Z</time>
      </trkpt>
      <trkpt lat="45.24662" lon="6.1362">
        <ele>2668.6000976562</ele>
        <time>2019-05-01T08:58:13.000Z</time>
      </trkpt>
      <trkpt lat="45.2466" lon="6.13619">
        <ele>2667.8000488281</ele>
        <time>2019-05-01T08:58:14.000Z</time>
      </trkpt>
      <trkpt lat="45.2466" lon="6.13619">
        <ele>2667</ele>
        <time>2019-05-01T08:58:15.000Z</time>
      </trkpt>
      <trkpt lat="45.2466" lon="6.13619">
        <ele>2665.8000488281</ele>
        <time>2019-05-01T08:58:17.000Z</time>
      </trkpt>
      <trkpt lat="45.2466" lon="6.13619">
        <ele>2665.3999023438</ele>
        <time>2019-05-01T08:58:18.000Z</time>
      </trkpt>
      <trkpt lat="45.2466" lon="6.13619">
        <ele>2664.8000488281</ele>
        <time>2019-05-01T08:58:23.000Z</time>
      </trkpt>
      <trkpt lat="45.2466" lon="6.13619">
        <ele>2664.6000976562</ele>
        <time>2019-05-01T08:58:30.000Z</time>
      </trkpt>
      <trkpt lat="45.2466" lon="6.13619">
        <ele>2664.6000976562</ele>
        <time>2019-05-01T08:58:44.000Z</time>
      </trkpt>
      <trkpt lat="45.24659" lon="6.13616">
        <ele>2664.8000488281</ele>
        <time>2019-05-01T08:58:54.000Z</time>
      </trkpt>
      <trkpt lat="45.24653" lon="6.13597">
        <ele>2664.3999023438</ele>
        <time>2019-05-01T08:58:59.000Z</time>
      </trkpt>
      <trkpt lat="45.24651" lon="6.13586">
        <ele>2663.6000976562</ele>
        <time>2019-05-01T08:59:01.000Z</time>
      </trkpt>
      <trkpt lat="45.24649" lon="6.13564">
        <ele>2662.6000976562</ele>
        <time>2019-05-01T08:59:04.000Z</time>
      </trkpt>
      <trkpt lat="45.24648" lon="6.13552">
        <ele>2661.3999023438</ele>
        <time>2019-05-01T08:59:06.000Z</time>
      </trkpt>
      <trkpt lat="45.24647" lon="6.13544">
        <ele>2660</ele>
        <time>2019-05-01T08:59:08.000Z</time>
      </trkpt>
      <trkpt lat="45.24647" lon="6.1354">
        <ele>2659</ele>
        <time>2019-05-01T08:59:09.000Z</time>
      </trkpt>
      <trkpt lat="45.24646" lon="6.13536">
        <ele>2658.1999511719</ele>
        <time>2019-05-01T08:59:10.000Z</time>
      </trkpt>
      <trkpt lat="45.24646" lon="6.1353">
        <ele>2656.8000488281</ele>
        <time>2019-05-01T08:59:12.000Z</time>
      </trkpt>
      <trkpt lat="45.24647" lon="6.1352">
        <ele>2655.8000488281</ele>
        <time>2019-05-01T08:59:14.000Z</time>
      </trkpt>
      <trkpt lat="45.24647" lon="6.13514">
        <ele>2655.3999023438</ele>
        <time>2019-05-01T08:59:15.000Z</time>
      </trkpt>
      <trkpt lat="45.24647" lon="6.135">
        <ele>2654.1999511719</ele>
        <time>2019-05-01T08:59:17.000Z</time>
      </trkpt>
      <trkpt lat="45.24648" lon="6.13484">
        <ele>2653</ele>
        <time>2019-05-01T08:59:19.000Z</time>
      </trkpt>
      <trkpt lat="45.24649" lon="6.13476">
        <ele>2652.3999023438</ele>
        <time>2019-05-01T08:59:20.000Z</time>
      </trkpt>
      <trkpt lat="45.24649" lon="6.13468">
        <ele>2651.8000488281</ele>
        <time>2019-05-01T08:59:21.000Z</time>
      </trkpt>
      <trkpt lat="45.24649" lon="6.13462">
        <ele>2651</ele>
        <time>2019-05-01T08:59:22.000Z</time>
      </trkpt>
      <trkpt lat="45.2465" lon="6.13457">
        <ele>2650.1999511719</ele>
        <time>2019-05-01T08:59:23.000Z</time>
      </trkpt>
      <trkpt lat="45.24651" lon="6.13453">
        <ele>2649.1999511719</ele>
        <time>2019-05-01T08:59:24.000Z</time>
      </trkpt>
      <trkpt lat="45.24652" lon="6.1345">
        <ele>2647.3999023438</ele>
        <time>2019-05-01T08:59:25.000Z</time>
      </trkpt>
      <trkpt lat="45.24654" lon="6.13441">
        <ele>2646</ele>
        <time>2019-05-01T08:59:27.000Z</time>
      </trkpt>
      <trkpt lat="45.24655" lon="6.1343">
        <ele>2644.6000976562</ele>
        <time>2019-05-01T08:59:29.000Z</time>
      </trkpt>
      <trkpt lat="45.24658" lon="6.13418">
        <ele>2643.3999023438</ele>
        <time>2019-05-01T08:59:31.000Z</time>
      </trkpt>
      <trkpt lat="45.24662" lon="6.13404">
        <ele>2642.1999511719</ele>
        <time>2019-05-01T08:59:33.000Z</time>
      </trkpt>
      <trkpt lat="45.24664" lon="6.13398">
        <ele>2641.6000976562</ele>
        <time>2019-05-01T08:59:34.000Z</time>
      </trkpt>
      <trkpt lat="45.24666" lon="6.13391">
        <ele>2641</ele>
        <time>2019-05-01T08:59:35.000Z</time>
      </trkpt>
      <trkpt lat="45.2467" lon="6.1338">
        <ele>2639.3999023438</ele>
        <time>2019-05-01T08:59:37.000Z</time>
      </trkpt>
      <trkpt lat="45.24673" lon="6.13367">
        <ele>2638.1999511719</ele>
        <time>2019-05-01T08:59:39.000Z</time>
      </trkpt>
      <trkpt lat="45.24678" lon="6.13353">
        <ele>2637.1999511719</ele>
        <time>2019-05-01T08:59:41.000Z</time>
      </trkpt>
      <trkpt lat="45.24685" lon="6.13337">
        <ele>2636</ele>
        <time>2019-05-01T08:59:43.000Z</time>
      </trkpt>
      <trkpt lat="45.24693" lon="6.13323">
        <ele>2634.8000488281</ele>
        <time>2019-05-01T08:59:46.000Z</time>
      </trkpt>
      <trkpt lat="45.24699" lon="6.13312">
        <ele>2633</ele>
        <time>2019-05-01T08:59:48.000Z</time>
      </trkpt>
      <trkpt lat="45.24704" lon="6.13304">
        <ele>2630.8000488281</ele>
        <time>2019-05-01T08:59:50.000Z</time>
      </trkpt>
      <trkpt lat="45.24709" lon="6.13297">
        <ele>2629.6000976562</ele>
        <time>2019-05-01T08:59:54.000Z</time>
      </trkpt>
      <trkpt lat="45.24718" lon="6.1328">
        <ele>2628.3999023438</ele>
        <time>2019-05-01T09:00:01.000Z</time>
      </trkpt>
      <trkpt lat="45.24724" lon="6.13272">
        <ele>2627.3999023438</ele>
        <time>2019-05-01T09:00:06.000Z</time>
      </trkpt>
      <trkpt lat="45.24724" lon="6.13271">
        <ele>2627.3999023438</ele>
        <time>2019-05-01T09:00:07.000Z</time>
      </trkpt>
      <trkpt lat="45.24726" lon="6.13269">
        <ele>2626.6000976562</ele>
        <time>2019-05-01T09:00:13.000Z</time>
      </trkpt>
      <trkpt lat="45.24726" lon="6.13269">
        <ele>2626.3999023438</ele>
        <time>2019-05-01T09:00:25.000Z</time>
      </trkpt>
      <trkpt lat="45.24726" lon="6.13269">
        <ele>2626.3999023438</ele>
        <time>2019-05-01T09:00:26.000Z</time>
      </trkpt>
      <trkpt lat="45.24726" lon="6.13269">
        <ele>2626.3999023438</ele>
        <time>2019-05-01T09:00:37.000Z</time>
      </trkpt>
      <trkpt lat="45.24726" lon="6.13269">
        <ele>2626.1999511719</ele>
        <time>2019-05-01T09:00:48.000Z</time>
      </trkpt>
      <trkpt lat="45.24726" lon="6.13269">
        <ele>2626.3999023438</ele>
        <time>2019-05-01T09:01:00.000Z</time>
      </trkpt>
      <trkpt lat="45.24726" lon="6.13269">
        <ele>2626.1999511719</ele>
        <time>2019-05-01T09:01:12.000Z</time>
      </trkpt>
      <trkpt lat="45.24726" lon="6.13269">
        <ele>2626.1999511719</ele>
        <time>2019-05-01T09:01:22.000Z</time>
      </trkpt>
      <trkpt lat="45.24726" lon="6.13269">
        <ele>2626.3999023438</ele>
        <time>2019-05-01T09:01:31.000Z</time>
      </trkpt>
      <trkpt lat="45.24726" lon="6.13269">
        <ele>2626.1999511719</ele>
        <time>2019-05-01T09:01:44.000Z</time>
      </trkpt>
      <trkpt lat="45.24726" lon="6.13269">
        <ele>2626</ele>
        <time>2019-05-01T09:01:53.000Z</time>
      </trkpt>
      <trkpt lat="45.24726" lon="6.1327">
        <ele>2626</ele>
        <time>2019-05-01T09:02:11.000Z</time>
      </trkpt>
      <trkpt lat="45.24726" lon="6.1327">
        <ele>2626</ele>
        <time>2019-05-01T09:02:24.000Z</time>
      </trkpt>
      <trkpt lat="45.24726" lon="6.1327">
        <ele>2626</ele>
        <time>2019-05-01T09:02:34.000Z</time>
      </trkpt>
      <trkpt lat="45.24726" lon="6.1327">
        <ele>2626</ele>
        <time>2019-05-01T09:02:43.000Z</time>
      </trkpt>
      <trkpt lat="45.24726" lon="6.1327">
        <ele>2626</ele>
        <time>2019-05-01T09:02:58.000Z</time>
      </trkpt>
      <trkpt lat="45.24726" lon="6.1327">
        <ele>2625.8000488281</ele>
        <time>2019-05-01T09:03:10.000Z</time>
      </trkpt>
      <trkpt lat="45.24726" lon="6.1327">
        <ele>2626</ele>
        <time>2019-05-01T09:03:19.000Z</time>
      </trkpt>
      <trkpt lat="45.24727" lon="6.1327">
        <ele>2625.8000488281</ele>
        <time>2019-05-01T09:03:28.000Z</time>
      </trkpt>
      <trkpt lat="45.24727" lon="6.1327">
        <ele>2625.8000488281</ele>
        <time>2019-05-01T09:03:39.000Z</time>
      </trkpt>
      <trkpt lat="45.24727" lon="6.13271">
        <ele>2625.8000488281</ele>
        <time>2019-05-01T09:03:51.000Z</time>
      </trkpt>
      <trkpt lat="45.24727" lon="6.13271">
        <ele>2625.6000976562</ele>
        <time>2019-05-01T09:04:05.000Z</time>
      </trkpt>
      <trkpt lat="45.24727" lon="6.13271">
        <ele>2625.8000488281</ele>
        <time>2019-05-01T09:04:15.000Z</time>
      </trkpt>
      <trkpt lat="45.24727" lon="6.13271">
        <ele>2625.6000976562</ele>
        <time>2019-05-01T09:04:26.000Z</time>
      </trkpt>
      <trkpt lat="45.24727" lon="6.1327">
        <ele>2625.6000976562</ele>
        <time>2019-05-01T09:04:39.000Z</time>
      </trkpt>
      <trkpt lat="45.24728" lon="6.1327">
        <ele>2626</ele>
        <time>2019-05-01T09:04:47.000Z</time>
      </trkpt>
      <trkpt lat="45.24728" lon="6.1327">
        <ele>2625.8000488281</ele>
        <time>2019-05-01T09:04:58.000Z</time>
      </trkpt>
      <trkpt lat="45.24728" lon="6.1327">
        <ele>2626</ele>
        <time>2019-05-01T09:05:10.000Z</time>
      </trkpt>
      <trkpt lat="45.24728" lon="6.1327">
        <ele>2625.8000488281</ele>
        <time>2019-05-01T09:05:21.000Z</time>
      </trkpt>
      <trkpt lat="45.24728" lon="6.13269">
        <ele>2625.8000488281</ele>
        <time>2019-05-01T09:05:29.000Z</time>
      </trkpt>
      <trkpt lat="45.24728" lon="6.13269">
        <ele>2626</ele>
        <time>2019-05-01T09:05:42.000Z</time>
      </trkpt>
      <trkpt lat="45.24728" lon="6.13269">
        <ele>2626</ele>
        <time>2019-05-01T09:05:56.000Z</time>
      </trkpt>
      <trkpt lat="45.24729" lon="6.13265">
        <ele>2626.1999511719</ele>
        <time>2019-05-01T09:06:02.000Z</time>
      </trkpt>
      <trkpt lat="45.24729" lon="6.1326">
        <ele>2626.6000976562</ele>
        <time>2019-05-01T09:06:07.000Z</time>
      </trkpt>
      <trkpt lat="45.24729" lon="6.13257">
        <ele>2627.1999511719</ele>
        <time>2019-05-01T09:06:12.000Z</time>
      </trkpt>
      <trkpt lat="45.24729" lon="6.13257">
        <ele>2627.6000976562</ele>
        <time>2019-05-01T09:06:14.000Z</time>
      </trkpt>
      <trkpt lat="45.24729" lon="6.13257">
        <ele>2628</ele>
        <time>2019-05-01T09:06:24.000Z</time>
      </trkpt>
      <trkpt lat="45.24729" lon="6.13257">
        <ele>2627.8000488281</ele>
        <time>2019-05-01T09:06:34.000Z</time>
      </trkpt>
      <trkpt lat="45.24729" lon="6.13257">
        <ele>2627.8000488281</ele>
        <time>2019-05-01T09:06:49.000Z</time>
      </trkpt>
      <trkpt lat="45.24729" lon="6.13257">
        <ele>2628</ele>
        <time>2019-05-01T09:06:55.000Z</time>
      </trkpt>
      <trkpt lat="45.24729" lon="6.13257">
        <ele>2628.1999511719</ele>
        <time>2019-05-01T09:07:06.000Z</time>
      </trkpt>
      <trkpt lat="45.24729" lon="6.13255">
        <ele>2628</ele>
        <time>2019-05-01T09:07:14.000Z</time>
      </trkpt>
      <trkpt lat="45.24729" lon="6.13254">
        <ele>2628.3999023438</ele>
        <time>2019-05-01T09:07:22.000Z</time>
      </trkpt>
      <trkpt lat="45.24729" lon="6.13254">
        <ele>2628.6000976562</ele>
        <time>2019-05-01T09:07:29.000Z</time>
      </trkpt>
      <trkpt lat="45.24729" lon="6.13254">
        <ele>2628.6000976562</ele>
        <time>2019-05-01T09:07:31.000Z</time>
      </trkpt>
      <trkpt lat="45.24729" lon="6.13254">
        <ele>2628.3999023438</ele>
        <time>2019-05-01T09:07:43.000Z</time>
      </trkpt>
      <trkpt lat="45.24729" lon="6.13254">
        <ele>2628.3999023438</ele>
        <time>2019-05-01T09:07:55.000Z</time>
      </trkpt>
      <trkpt lat="45.24729" lon="6.13251">
        <ele>2628.3999023438</ele>
        <time>2019-05-01T09:08:07.000Z</time>
      </trkpt>
      <trkpt lat="45.24729" lon="6.1325">
        <ele>2628.3999023438</ele>
        <time>2019-05-01T09:08:19.000Z</time>
      </trkpt>
      <trkpt lat="45.24728" lon="6.13249">
        <ele>2628.3999023438</ele>
        <time>2019-05-01T09:08:31.000Z</time>
      </trkpt>
      <trkpt lat="45.24729" lon="6.13242">
        <ele>2629</ele>
        <time>2019-05-01T09:08:38.000Z</time>
      </trkpt>
      <trkpt lat="45.24729" lon="6.13236">
        <ele>2629.6000976562</ele>
        <time>2019-05-01T09:08:43.000Z</time>
      </trkpt>
      <trkpt lat="45.24729" lon="6.1323">
        <ele>2630.6000976562</ele>
        <time>2019-05-01T09:08:48.000Z</time>
      </trkpt>
      <trkpt lat="45.24728" lon="6.13225">
        <ele>2631.8000488281</ele>
        <time>2019-05-01T09:08:52.000Z</time>
      </trkpt>
      <trkpt lat="45.24728" lon="6.13224">
        <ele>2632.1999511719</ele>
        <time>2019-05-01T09:08:54.000Z</time>
      </trkpt>
      <trkpt lat="45.24727" lon="6.1322">
        <ele>2633</ele>
        <time>2019-05-01T09:08:58.000Z</time>
      </trkpt>
      <trkpt lat="45.24727" lon="6.13217">
        <ele>2633.8000488281</ele>
        <time>2019-05-01T09:09:01.000Z</time>
      </trkpt>
      <trkpt lat="45.24726" lon="6.13215">
        <ele>2634.1999511719</ele>
        <time>2019-05-01T09:09:03.000Z</time>
      </trkpt>
      <trkpt lat="45.24725" lon="6.13212">
        <ele>2635</ele>
        <time>2019-05-01T09:09:07.000Z</time>
      </trkpt>
      <trkpt lat="45.24725" lon="6.13208">
        <ele>2635.3999023438</ele>
        <time>2019-05-01T09:09:09.000Z</time>
      </trkpt>
      <trkpt lat="45.24725" lon="6.13204">
        <ele>2636</ele>
        <time>2019-05-01T09:09:12.000Z</time>
      </trkpt>
      <trkpt lat="45.24725" lon="6.13201">
        <ele>2636.6000976562</ele>
        <time>2019-05-01T09:09:15.000Z</time>
      </trkpt>
      <trkpt lat="45.24724" lon="6.13197">
        <ele>2637.1999511719</ele>
        <time>2019-05-01T09:09:19.000Z</time>
      </trkpt>
      <trkpt lat="45.24724" lon="6.13197">
        <ele>2637.6000976562</ele>
        <time>2019-05-01T09:09:21.000Z</time>
      </trkpt>
      <trkpt lat="45.24723" lon="6.13195">
        <ele>2638.6000976562</ele>
        <time>2019-05-01T09:09:26.000Z</time>
      </trkpt>
      <trkpt lat="45.24723" lon="6.13194">
        <ele>2638.8000488281</ele>
        <time>2019-05-01T09:09:27.000Z</time>
      </trkpt>
      <trkpt lat="45.24722" lon="6.13194">
        <ele>2639.6000976562</ele>
        <time>2019-05-01T09:09:31.000Z</time>
      </trkpt>
      <trkpt lat="45.24722" lon="6.13193">
        <ele>2640</ele>
        <time>2019-05-01T09:09:33.000Z</time>
      </trkpt>
      <trkpt lat="45.24722" lon="6.13191">
        <ele>2640.6000976562</ele>
        <time>2019-05-01T09:09:36.000Z</time>
      </trkpt>
      <trkpt lat="45.2472" lon="6.13189">
        <ele>2641</ele>
        <time>2019-05-01T09:09:38.000Z</time>
      </trkpt>
      <trkpt lat="45.24718" lon="6.13186">
        <ele>2641.8000488281</ele>
        <time>2019-05-01T09:09:42.000Z</time>
      </trkpt>
      <trkpt lat="45.24718" lon="6.13185">
        <ele>2642</ele>
        <time>2019-05-01T09:09:44.000Z</time>
      </trkpt>
      <trkpt lat="45.24717" lon="6.13181">
        <ele>2643.1999511719</ele>
        <time>2019-05-01T09:09:49.000Z</time>
      </trkpt>
      <trkpt lat="45.24716" lon="6.13181">
        <ele>2643.3999023438</ele>
        <time>2019-05-01T09:09:50.000Z</time>
      </trkpt>
      <trkpt lat="45.24715" lon="6.13178">
        <ele>2644.1999511719</ele>
        <time>2019-05-01T09:09:53.000Z</time>
      </trkpt>
      <trkpt lat="45.24715" lon="6.13177">
        <ele>2644.8000488281</ele>
        <time>2019-05-01T09:09:56.000Z</time>
      </trkpt>
      <trkpt lat="45.24716" lon="6.13176">
        <ele>2645.1999511719</ele>
        <time>2019-05-01T09:09:58.000Z</time>
      </trkpt>
      <trkpt lat="45.24715" lon="6.13174">
        <ele>2645.6000976562</ele>
        <time>2019-05-01T09:10:01.000Z</time>
      </trkpt>
      <trkpt lat="45.24714" lon="6.13173">
        <ele>2646.1999511719</ele>
        <time>2019-05-01T09:10:04.000Z</time>
      </trkpt>
      <trkpt lat="45.24714" lon="6.13171">
        <ele>2646.8000488281</ele>
        <time>2019-05-01T09:10:07.000Z</time>
      </trkpt>
      <trkpt lat="45.24713" lon="6.13171">
        <ele>2647.3999023438</ele>
        <time>2019-05-01T09:10:10.000Z</time>
      </trkpt>
      <trkpt lat="45.24712" lon="6.13168">
        <ele>2648</ele>
        <time>2019-05-01T09:10:13.000Z</time>
      </trkpt>
      <trkpt lat="45.24712" lon="6.13167">
        <ele>2648.3999023438</ele>
        <time>2019-05-01T09:10:15.000Z</time>
      </trkpt>
      <trkpt lat="45.24714" lon="6.13162">
        <ele>2649.3999023438</ele>
        <time>2019-05-01T09:10:20.000Z</time>
      </trkpt>
      <trkpt lat="45.24714" lon="6.13161">
        <ele>2649.6000976562</ele>
        <time>2019-05-01T09:10:21.000Z</time>
      </trkpt>
      <trkpt lat="45.24715" lon="6.13156">
        <ele>2650.6000976562</ele>
        <time>2019-05-01T09:10:27.000Z</time>
      </trkpt>
      <trkpt lat="45.24715" lon="6.13153">
        <ele>2651.6000976562</ele>
        <time>2019-05-01T09:10:32.000Z</time>
      </trkpt>
      <trkpt lat="45.24715" lon="6.13148">
        <ele>2652.6000976562</ele>
        <time>2019-05-01T09:10:37.000Z</time>
      </trkpt>
      <trkpt lat="45.24716" lon="6.13146">
        <ele>2653.1999511719</ele>
        <time>2019-05-01T09:10:39.000Z</time>
      </trkpt>
      <trkpt lat="45.24716" lon="6.13144">
        <ele>2653.6000976562</ele>
        <time>2019-05-01T09:10:41.000Z</time>
      </trkpt>
      <trkpt lat="45.24716" lon="6.13141">
        <ele>2654.6000976562</ele>
        <time>2019-05-01T09:10:46.000Z</time>
      </trkpt>
      <trkpt lat="45.24716" lon="6.13141">
        <ele>2654.8000488281</ele>
        <time>2019-05-01T09:10:47.000Z</time>
      </trkpt>
      <trkpt lat="45.24716" lon="6.13136">
        <ele>2655.6000976562</ele>
        <time>2019-05-01T09:10:52.000Z</time>
      </trkpt>
      <trkpt lat="45.24716" lon="6.13136">
        <ele>2655.8000488281</ele>
        <time>2019-05-01T09:10:53.000Z</time>
      </trkpt>
      <trkpt lat="45.24716" lon="6.13133">
        <ele>2656.8000488281</ele>
        <time>2019-05-01T09:10:58.000Z</time>
      </trkpt>
      <trkpt lat="45.24716" lon="6.13132">
        <ele>2657</ele>
        <time>2019-05-01T09:10:59.000Z</time>
      </trkpt>
      <trkpt lat="45.24715" lon="6.13129">
        <ele>2658</ele>
        <time>2019-05-01T09:11:03.000Z</time>
      </trkpt>
      <trkpt lat="45.24715" lon="6.13126">
        <ele>2658.3999023438</ele>
        <time>2019-05-01T09:11:05.000Z</time>
      </trkpt>
      <trkpt lat="45.24715" lon="6.13124">
        <ele>2659</ele>
        <time>2019-05-01T09:11:08.000Z</time>
      </trkpt>
      <trkpt lat="45.24715" lon="6.13122">
        <ele>2659.3999023438</ele>
        <time>2019-05-01T09:11:10.000Z</time>
      </trkpt>
      <trkpt lat="45.24715" lon="6.1312">
        <ele>2660</ele>
        <time>2019-05-01T09:11:13.000Z</time>
      </trkpt>
      <trkpt lat="45.24715" lon="6.13118">
        <ele>2660.6000976562</ele>
        <time>2019-05-01T09:11:16.000Z</time>
      </trkpt>
      <trkpt lat="45.24714" lon="6.13116">
        <ele>2661.1999511719</ele>
        <time>2019-05-01T09:11:19.000Z</time>
      </trkpt>
      <trkpt lat="45.24714" lon="6.13114">
        <ele>2661.8000488281</ele>
        <time>2019-05-01T09:11:22.000Z</time>
      </trkpt>
      <trkpt lat="45.24714" lon="6.13113">
        <ele>2662.1999511719</ele>
        <time>2019-05-01T09:11:24.000Z</time>
      </trkpt>
      <trkpt lat="45.24714" lon="6.13113">
        <ele>2663.3999023438</ele>
        <time>2019-05-01T09:11:28.000Z</time>
      </trkpt>
      <trkpt lat="45.24714" lon="6.13113">
        <ele>2663.8000488281</ele>
        <time>2019-05-01T09:11:30.000Z</time>
      </trkpt>
      <trkpt lat="45.24714" lon="6.13108">
        <ele>2664.6000976562</ele>
        <time>2019-05-01T09:11:34.000Z</time>
      </trkpt>
      <trkpt lat="45.24712" lon="6.13103">
        <ele>2665.3999023438</ele>
        <time>2019-05-01T09:11:39.000Z</time>
      </trkpt>
      <trkpt lat="45.24712" lon="6.13102">
        <ele>2665.6000976562</ele>
        <time>2019-05-01T09:11:40.000Z</time>
      </trkpt>
      <trkpt lat="45.24711" lon="6.13099">
        <ele>2666.6000976562</ele>
        <time>2019-05-01T09:11:44.000Z</time>
      </trkpt>
      <trkpt lat="45.24711" lon="6.13099">
        <ele>2666.8000488281</ele>
        <time>2019-05-01T09:11:45.000Z</time>
      </trkpt>
      <trkpt lat="45.24711" lon="6.13093">
        <ele>2668.1999511719</ele>
        <time>2019-05-01T09:11:51.000Z</time>
      </trkpt>
      <trkpt lat="45.24712" lon="6.13089">
        <ele>2668.8000488281</ele>
        <time>2019-05-01T09:11:56.000Z</time>
      </trkpt>
      <trkpt lat="45.24712" lon="6.13088">
        <ele>2669.1999511719</ele>
        <time>2019-05-01T09:11:58.000Z</time>
      </trkpt>
      <trkpt lat="45.24712" lon="6.13087">
        <ele>2669.6000976562</ele>
        <time>2019-05-01T09:12:00.000Z</time>
      </trkpt>
      <trkpt lat="45.24711" lon="6.13085">
        <ele>2670.3999023438</ele>
        <time>2019-05-01T09:12:04.000Z</time>
      </trkpt>
      <trkpt lat="45.2471" lon="6.13085">
        <ele>2670.8000488281</ele>
        <time>2019-05-01T09:12:06.000Z</time>
      </trkpt>
      <trkpt lat="45.24709" lon="6.13086">
        <ele>2671.3999023438</ele>
        <time>2019-05-01T09:12:10.000Z</time>
      </trkpt>
      <trkpt lat="45.24709" lon="6.13086">
        <ele>2671.8000488281</ele>
        <time>2019-05-01T09:12:12.000Z</time>
      </trkpt>
      <trkpt lat="45.24709" lon="6.13082">
        <ele>2672.1999511719</ele>
        <time>2019-05-01T09:12:20.000Z</time>
      </trkpt>
      <trkpt lat="45.24709" lon="6.13079">
        <ele>2672.6000976562</ele>
        <time>2019-05-01T09:12:22.000Z</time>
      </trkpt>
      <trkpt lat="45.24708" lon="6.13078">
        <ele>2673</ele>
        <time>2019-05-01T09:12:24.000Z</time>
      </trkpt>
      <trkpt lat="45.24708" lon="6.13076">
        <ele>2673.8000488281</ele>
        <time>2019-05-01T09:12:27.000Z</time>
      </trkpt>
      <trkpt lat="45.24708" lon="6.13075">
        <ele>2674</ele>
        <time>2019-05-01T09:12:28.000Z</time>
      </trkpt>
      <trkpt lat="45.24708" lon="6.13073">
        <ele>2675</ele>
        <time>2019-05-01T09:12:32.000Z</time>
      </trkpt>
      <trkpt lat="45.24709" lon="6.1307">
        <ele>2675.3999023438</ele>
        <time>2019-05-01T09:12:34.000Z</time>
      </trkpt>
      <trkpt lat="45.2471" lon="6.13068">
        <ele>2676</ele>
        <time>2019-05-01T09:12:36.000Z</time>
      </trkpt>
      <trkpt lat="45.24711" lon="6.13066">
        <ele>2677</ele>
        <time>2019-05-01T09:12:39.000Z</time>
      </trkpt>
      <trkpt lat="45.24711" lon="6.13064">
        <ele>2677.1999511719</ele>
        <time>2019-05-01T09:12:40.000Z</time>
      </trkpt>
      <trkpt lat="45.2471" lon="6.13064">
        <ele>2678</ele>
        <time>2019-05-01T09:12:44.000Z</time>
      </trkpt>
      <trkpt lat="45.2471" lon="6.13063">
        <ele>2678.3999023438</ele>
        <time>2019-05-01T09:12:45.000Z</time>
      </trkpt>
      <trkpt lat="45.24709" lon="6.1306">
        <ele>2679.6000976562</ele>
        <time>2019-05-01T09:12:50.000Z</time>
      </trkpt>
      <trkpt lat="45.24709" lon="6.13057">
        <ele>2680.6000976562</ele>
        <time>2019-05-01T09:12:54.000Z</time>
      </trkpt>
      <trkpt lat="45.24708" lon="6.13055">
        <ele>2681.1999511719</ele>
        <time>2019-05-01T09:12:56.000Z</time>
      </trkpt>
      <trkpt lat="45.24707" lon="6.13056">
        <ele>2681.8000488281</ele>
        <time>2019-05-01T09:12:58.000Z</time>
      </trkpt>
      <trkpt lat="45.24706" lon="6.13055">
        <ele>2682.3999023438</ele>
        <time>2019-05-01T09:13:01.000Z</time>
      </trkpt>
      <trkpt lat="45.24705" lon="6.13055">
        <ele>2683.1999511719</ele>
        <time>2019-05-01T09:13:03.000Z</time>
      </trkpt>
      <trkpt lat="45.24703" lon="6.13057">
        <ele>2683.8000488281</ele>
        <time>2019-05-01T09:13:06.000Z</time>
      </trkpt>
      <trkpt lat="45.24701" lon="6.13057">
        <ele>2684.1999511719</ele>
        <time>2019-05-01T09:13:08.000Z</time>
      </trkpt>
      <trkpt lat="45.24699" lon="6.13056">
        <ele>2685.1999511719</ele>
        <time>2019-05-01T09:13:12.000Z</time>
      </trkpt>
      <trkpt lat="45.24699" lon="6.13055">
        <ele>2685.3999023438</ele>
        <time>2019-05-01T09:13:13.000Z</time>
      </trkpt>
      <trkpt lat="45.24697" lon="6.13054">
        <ele>2686.1999511719</ele>
        <time>2019-05-01T09:13:17.000Z</time>
      </trkpt>
      <trkpt lat="45.24697" lon="6.13054">
        <ele>2686.6000976562</ele>
        <time>2019-05-01T09:13:18.000Z</time>
      </trkpt>
      <trkpt lat="45.24698" lon="6.13052">
        <ele>2687.1999511719</ele>
        <time>2019-05-01T09:13:22.000Z</time>
      </trkpt>
      <trkpt lat="45.24698" lon="6.13051">
        <ele>2687.8000488281</ele>
        <time>2019-05-01T09:13:25.000Z</time>
      </trkpt>
      <trkpt lat="45.24698" lon="6.1305">
        <ele>2688.1999511719</ele>
        <time>2019-05-01T09:13:27.000Z</time>
      </trkpt>
      <trkpt lat="45.24699" lon="6.13047">
        <ele>2688.8000488281</ele>
        <time>2019-05-01T09:13:31.000Z</time>
      </trkpt>
      <trkpt lat="45.24699" lon="6.13047">
        <ele>2689</ele>
        <time>2019-05-01T09:13:32.000Z</time>
      </trkpt>
      <trkpt lat="45.24699" lon="6.13041">
        <ele>2689.3999023438</ele>
        <time>2019-05-01T09:13:37.000Z</time>
      </trkpt>
      <trkpt lat="45.24699" lon="6.13037">
        <ele>2689.3999023438</ele>
        <time>2019-05-01T09:13:41.000Z</time>
      </trkpt>
      <trkpt lat="45.24698" lon="6.13033">
        <ele>2689.8000488281</ele>
        <time>2019-05-01T09:13:46.000Z</time>
      </trkpt>
      <trkpt lat="45.24697" lon="6.13029">
        <ele>2689.8000488281</ele>
        <time>2019-05-01T09:13:50.000Z</time>
      </trkpt>
      <trkpt lat="45.24697" lon="6.13028">
        <ele>2690</ele>
        <time>2019-05-01T09:13:51.000Z</time>
      </trkpt>
      <trkpt lat="45.24698" lon="6.13028">
        <ele>2690</ele>
        <time>2019-05-01T09:13:57.000Z</time>
      </trkpt>
      <trkpt lat="45.24698" lon="6.13028">
        <ele>2690</ele>
        <time>2019-05-01T09:14:08.000Z</time>
      </trkpt>
      <trkpt lat="45.24698" lon="6.13028">
        <ele>2690</ele>
        <time>2019-05-01T09:14:24.000Z</time>
      </trkpt>
      <trkpt lat="45.24697" lon="6.13028">
        <ele>2690</ele>
        <time>2019-05-01T09:14:31.000Z</time>
      </trkpt>
      <trkpt lat="45.24697" lon="6.13028">
        <ele>2690</ele>
        <time>2019-05-01T09:14:44.000Z</time>
      </trkpt>
      <trkpt lat="45.24697" lon="6.13028">
        <ele>2690</ele>
        <time>2019-05-01T09:14:58.000Z</time>
      </trkpt>
      <trkpt lat="45.24697" lon="6.13028">
        <ele>2690</ele>
        <time>2019-05-01T09:15:11.000Z</time>
      </trkpt>
      <trkpt lat="45.24697" lon="6.13028">
        <ele>2690</ele>
        <time>2019-05-01T09:15:25.000Z</time>
      </trkpt>
      <trkpt lat="45.24697" lon="6.13027">
        <ele>2690</ele>
        <time>2019-05-01T09:15:32.000Z</time>
      </trkpt>
      <trkpt lat="45.24697" lon="6.13027">
        <ele>2690</ele>
        <time>2019-05-01T09:15:47.000Z</time>
      </trkpt>
      <trkpt lat="45.24697" lon="6.13027">
        <ele>2690</ele>
        <time>2019-05-01T09:16:01.000Z</time>
      </trkpt>
      <trkpt lat="45.24697" lon="6.13027">
        <ele>2690.1999511719</ele>
        <time>2019-05-01T09:16:10.000Z</time>
      </trkpt>
      <trkpt lat="45.24697" lon="6.13027">
        <ele>2690</ele>
        <time>2019-05-01T09:16:19.000Z</time>
      </trkpt>
      <trkpt lat="45.24697" lon="6.13027">
        <ele>2690.6000976562</ele>
        <time>2019-05-01T09:16:25.000Z</time>
      </trkpt>
      <trkpt lat="45.24697" lon="6.13027">
        <ele>2690.8000488281</ele>
        <time>2019-05-01T09:16:42.000Z</time>
      </trkpt>
      <trkpt lat="45.24697" lon="6.13027">
        <ele>2690.8000488281</ele>
        <time>2019-05-01T09:17:04.000Z</time>
      </trkpt>
      <trkpt lat="45.24697" lon="6.13027">
        <ele>2690.8000488281</ele>
        <time>2019-05-01T09:17:18.000Z</time>
      </trkpt>
      <trkpt lat="45.24697" lon="6.13027">
        <ele>2690.8000488281</ele>
        <time>2019-05-01T09:17:21.000Z</time>
      </trkpt>
      <trkpt lat="45.24697" lon="6.13026">
        <ele>2690.6000976562</ele>
        <time>2019-05-01T09:17:35.000Z</time>
      </trkpt>
      <trkpt lat="45.24697" lon="6.13026">
        <ele>2690.6000976562</ele>
        <time>2019-05-01T09:17:50.000Z</time>
      </trkpt>
      <trkpt lat="45.24697" lon="6.13026">
        <ele>2690</ele>
        <time>2019-05-01T09:17:58.000Z</time>
      </trkpt>
      <trkpt lat="45.24697" lon="6.13026">
        <ele>2689.8000488281</ele>
        <time>2019-05-01T09:18:09.000Z</time>
      </trkpt>
      <trkpt lat="45.24697" lon="6.13026">
        <ele>2689.8000488281</ele>
        <time>2019-05-01T09:18:22.000Z</time>
      </trkpt>
      <trkpt lat="45.24697" lon="6.13026">
        <ele>2689.8000488281</ele>
        <time>2019-05-01T09:18:32.000Z</time>
      </trkpt>
      <trkpt lat="45.24697" lon="6.13026">
        <ele>2689.8000488281</ele>
        <time>2019-05-01T09:18:45.000Z</time>
      </trkpt>
      <trkpt lat="45.24697" lon="6.13026">
        <ele>2689.8000488281</ele>
        <time>2019-05-01T09:18:57.000Z</time>
      </trkpt>
      <trkpt lat="45.24697" lon="6.13026">
        <ele>2689.8000488281</ele>
        <time>2019-05-01T09:19:09.000Z</time>
      </trkpt>
      <trkpt lat="45.24697" lon="6.13026">
        <ele>2689.8000488281</ele>
        <time>2019-05-01T09:19:24.000Z</time>
      </trkpt>
      <trkpt lat="45.24697" lon="6.13027">
        <ele>2689.8000488281</ele>
        <time>2019-05-01T09:19:36.000Z</time>
      </trkpt>
      <trkpt lat="45.24696" lon="6.13027">
        <ele>2689.8000488281</ele>
        <time>2019-05-01T09:19:45.000Z</time>
      </trkpt>
      <trkpt lat="45.24696" lon="6.13027">
        <ele>2689.8000488281</ele>
        <time>2019-05-01T09:19:58.000Z</time>
      </trkpt>
      <trkpt lat="45.24696" lon="6.13027">
        <ele>2689.8000488281</ele>
        <time>2019-05-01T09:20:09.000Z</time>
      </trkpt>
      <trkpt lat="45.24696" lon="6.13027">
        <ele>2689.8000488281</ele>
        <time>2019-05-01T09:20:23.000Z</time>
      </trkpt>
      <trkpt lat="45.24696" lon="6.13027">
        <ele>2689.8000488281</ele>
        <time>2019-05-01T09:20:37.000Z</time>
      </trkpt>
      <trkpt lat="45.24696" lon="6.13027">
        <ele>2689.8000488281</ele>
        <time>2019-05-01T09:20:51.000Z</time>
      </trkpt>
      <trkpt lat="45.24696" lon="6.13027">
        <ele>2689.8000488281</ele>
        <time>2019-05-01T09:21:03.000Z</time>
      </trkpt>
      <trkpt lat="45.24696" lon="6.13027">
        <ele>2689.6000976562</ele>
        <time>2019-05-01T09:21:20.000Z</time>
      </trkpt>
      <trkpt lat="45.24696" lon="6.13027">
        <ele>2689.8000488281</ele>
        <time>2019-05-01T09:21:30.000Z</time>
      </trkpt>
      <trkpt lat="45.24696" lon="6.13027">
        <ele>2689.8000488281</ele>
        <time>2019-05-01T09:21:42.000Z</time>
      </trkpt>
      <trkpt lat="45.24696" lon="6.13027">
        <ele>2689.8000488281</ele>
        <time>2019-05-01T09:21:55.000Z</time>
      </trkpt>
      <trkpt lat="45.24696" lon="6.13027">
        <ele>2689.8000488281</ele>
        <time>2019-05-01T09:22:06.000Z</time>
      </trkpt>
      <trkpt lat="45.24695" lon="6.13027">
        <ele>2689.8000488281</ele>
        <time>2019-05-01T09:22:14.000Z</time>
      </trkpt>
      <trkpt lat="45.24695" lon="6.13027">
        <ele>2689.6000976562</ele>
        <time>2019-05-01T09:22:19.000Z</time>
      </trkpt>
      <trkpt lat="45.24695" lon="6.13027">
        <ele>2689.8000488281</ele>
        <time>2019-05-01T09:22:29.000Z</time>
      </trkpt>
      <trkpt lat="45.24695" lon="6.13027">
        <ele>2689.8000488281</ele>
        <time>2019-05-01T09:22:42.000Z</time>
      </trkpt>
      <trkpt lat="45.24695" lon="6.13027">
        <ele>2689.8000488281</ele>
        <time>2019-05-01T09:22:50.000Z</time>
      </trkpt>
      <trkpt lat="45.24695" lon="6.13028">
        <ele>2689.6000976562</ele>
        <time>2019-05-01T09:23:04.000Z</time>
      </trkpt>
      <trkpt lat="45.24695" lon="6.13028">
        <ele>2689.8000488281</ele>
        <time>2019-05-01T09:23:14.000Z</time>
      </trkpt>
      <trkpt lat="45.24695" lon="6.13029">
        <ele>2689.8000488281</ele>
        <time>2019-05-01T09:23:27.000Z</time>
      </trkpt>
      <trkpt lat="45.24694" lon="6.1303">
        <ele>2690</ele>
        <time>2019-05-01T09:23:32.000Z</time>
      </trkpt>
      <trkpt lat="45.24693" lon="6.1303">
        <ele>2690</ele>
        <time>2019-05-01T09:23:37.000Z</time>
      </trkpt>
      <trkpt lat="45.24693" lon="6.1303">
        <ele>2690.1999511719</ele>
        <time>2019-05-01T09:23:43.000Z</time>
      </trkpt>
      <trkpt lat="45.2469" lon="6.13032">
        <ele>2690.3999023438</ele>
        <time>2019-05-01T09:23:51.000Z</time>
      </trkpt>
      <trkpt lat="45.2469" lon="6.13032">
        <ele>2690.6000976562</ele>
        <time>2019-05-01T09:23:59.000Z</time>
      </trkpt>
      <trkpt lat="45.2469" lon="6.13032">
        <ele>2690.3999023438</ele>
        <time>2019-05-01T09:24:08.000Z</time>
      </trkpt>
      <trkpt lat="45.2469" lon="6.13032">
        <ele>2690.3999023438</ele>
        <time>2019-05-01T09:24:16.000Z</time>
      </trkpt>
      <trkpt lat="45.2469" lon="6.13032">
        <ele>2690.3999023438</ele>
        <time>2019-05-01T09:24:30.000Z</time>
      </trkpt>
      <trkpt lat="45.2469" lon="6.13032">
        <ele>2690.6000976562</ele>
        <time>2019-05-01T09:24:41.000Z</time>
      </trkpt>
      <trkpt lat="45.2469" lon="6.13031">
        <ele>2690.3999023438</ele>
        <time>2019-05-01T09:24:57.000Z</time>
      </trkpt>
      <trkpt lat="45.24689" lon="6.13031">
        <ele>2690.6000976562</ele>
        <time>2019-05-01T09:25:04.000Z</time>
      </trkpt>
      <trkpt lat="45.24689" lon="6.13031">
        <ele>2690.6000976562</ele>
        <time>2019-05-01T09:25:19.000Z</time>
      </trkpt>
      <trkpt lat="45.2469" lon="6.13029">
        <ele>2690.6000976562</ele>
        <time>2019-05-01T09:25:24.000Z</time>
      </trkpt>
      <trkpt lat="45.24692" lon="6.13024">
        <ele>2688.6000976562</ele>
        <time>2019-05-01T09:25:30.000Z</time>
      </trkpt>
      <trkpt lat="45.24692" lon="6.13022">
        <ele>2687.8000488281</ele>
        <time>2019-05-01T09:25:32.000Z</time>
      </trkpt>
      <trkpt lat="45.24692" lon="6.13022">
        <ele>2687.3999023438</ele>
        <time>2019-05-01T09:25:33.000Z</time>
      </trkpt>
      <trkpt lat="45.24691" lon="6.13019">
        <ele>2686.1999511719</ele>
        <time>2019-05-01T09:25:37.000Z</time>
      </trkpt>
      <trkpt lat="45.24691" lon="6.13017">
        <ele>2685.8000488281</ele>
        <time>2019-05-01T09:25:39.000Z</time>
      </trkpt>
      <trkpt lat="45.24691" lon="6.13012">
        <ele>2684.8000488281</ele>
        <time>2019-05-01T09:25:42.000Z</time>
      </trkpt>
      <trkpt lat="45.2469" lon="6.13008">
        <ele>2683.8000488281</ele>
        <time>2019-05-01T09:25:44.000Z</time>
      </trkpt>
      <trkpt lat="45.2469" lon="6.13006">
        <ele>2682.6000976562</ele>
        <time>2019-05-01T09:25:46.000Z</time>
      </trkpt>
      <trkpt lat="45.24689" lon="6.13003">
        <ele>2681.1999511719</ele>
        <time>2019-05-01T09:25:48.000Z</time>
      </trkpt>
      <trkpt lat="45.24689" lon="6.13002">
        <ele>2680</ele>
        <time>2019-05-01T09:25:50.000Z</time>
      </trkpt>
      <trkpt lat="45.24689" lon="6.13002">
        <ele>2678.6000976562</ele>
        <time>2019-05-01T09:25:52.000Z</time>
      </trkpt>
      <trkpt lat="45.24688" lon="6.13001">
        <ele>2678.1999511719</ele>
        <time>2019-05-01T09:25:53.000Z</time>
      </trkpt>
      <trkpt lat="45.24687" lon="6.13">
        <ele>2677.6000976562</ele>
        <time>2019-05-01T09:25:55.000Z</time>
      </trkpt>
      <trkpt lat="45.24686" lon="6.12999">
        <ele>2677.1999511719</ele>
        <time>2019-05-01T09:25:57.000Z</time>
      </trkpt>
      <trkpt lat="45.24684" lon="6.12997">
        <ele>2676.8000488281</ele>
        <time>2019-05-01T09:25:59.000Z</time>
      </trkpt>
      <trkpt lat="45.24683" lon="6.12996">
        <ele>2676.3999023438</ele>
        <time>2019-05-01T09:26:00.000Z</time>
      </trkpt>
      <trkpt lat="45.24682" lon="6.12994">
        <ele>2675.8000488281</ele>
        <time>2019-05-01T09:26:02.000Z</time>
      </trkpt>
      <trkpt lat="45.2468" lon="6.12992">
        <ele>2675.1999511719</ele>
        <time>2019-05-01T09:26:03.000Z</time>
      </trkpt>
      <trkpt lat="45.24679" lon="6.1299">
        <ele>2674.8000488281</ele>
        <time>2019-05-01T09:26:04.000Z</time>
      </trkpt>
      <trkpt lat="45.24676" lon="6.12987">
        <ele>2673.8000488281</ele>
        <time>2019-05-01T09:26:06.000Z</time>
      </trkpt>
      <trkpt lat="45.24674" lon="6.12984">
        <ele>2672.1999511719</ele>
        <time>2019-05-01T09:26:08.000Z</time>
      </trkpt>
      <trkpt lat="45.24674" lon="6.12981">
        <ele>2670.3999023438</ele>
        <time>2019-05-01T09:26:10.000Z</time>
      </trkpt>
      <trkpt lat="45.24674" lon="6.12981">
        <ele>2668.8000488281</ele>
        <time>2019-05-01T09:26:12.000Z</time>
      </trkpt>
      <trkpt lat="45.24674" lon="6.12981">
        <ele>2667.3999023438</ele>
        <time>2019-05-01T09:26:14.000Z</time>
      </trkpt>
      <trkpt lat="45.24674" lon="6.1298">
        <ele>2666.3999023438</ele>
        <time>2019-05-01T09:26:16.000Z</time>
      </trkpt>
      <trkpt lat="45.24675" lon="6.12979">
        <ele>2666.1999511719</ele>
        <time>2019-05-01T09:26:17.000Z</time>
      </trkpt>
      <trkpt lat="45.24677" lon="6.12979">
        <ele>2665</ele>
        <time>2019-05-01T09:26:22.000Z</time>
      </trkpt>
      <trkpt lat="45.24677" lon="6.12979">
        <ele>2664.3999023438</ele>
        <time>2019-05-01T09:26:25.000Z</time>
      </trkpt>
      <trkpt lat="45.24677" lon="6.12974">
        <ele>2664.1999511719</ele>
        <time>2019-05-01T09:26:27.000Z</time>
      </trkpt>
      <trkpt lat="45.24677" lon="6.12973">
        <ele>2663.8000488281</ele>
        <time>2019-05-01T09:26:29.000Z</time>
      </trkpt>
      <trkpt lat="45.24679" lon="6.12972">
        <ele>2663.3999023438</ele>
        <time>2019-05-01T09:26:30.000Z</time>
      </trkpt>
      <trkpt lat="45.24681" lon="6.12972">
        <ele>2662.6000976562</ele>
        <time>2019-05-01T09:26:31.000Z</time>
      </trkpt>
      <trkpt lat="45.24683" lon="6.12972">
        <ele>2661.3999023438</ele>
        <time>2019-05-01T09:26:33.000Z</time>
      </trkpt>
      <trkpt lat="45.24684" lon="6.12972">
        <ele>2660.3999023438</ele>
        <time>2019-05-01T09:26:35.000Z</time>
      </trkpt>
      <trkpt lat="45.24684" lon="6.12972">
        <ele>2659.1999511719</ele>
        <time>2019-05-01T09:26:38.000Z</time>
      </trkpt>
      <trkpt lat="45.24684" lon="6.12972">
        <ele>2659</ele>
        <time>2019-05-01T09:26:40.000Z</time>
      </trkpt>
      <trkpt lat="45.24684" lon="6.12968">
        <ele>2659</ele>
        <time>2019-05-01T09:26:41.000Z</time>
      </trkpt>
      <trkpt lat="45.24684" lon="6.12963">
        <ele>2657.6000976562</ele>
        <time>2019-05-01T09:26:45.000Z</time>
      </trkpt>
      <trkpt lat="45.24688" lon="6.12964">
        <ele>2656.1999511719</ele>
        <time>2019-05-01T09:26:47.000Z</time>
      </trkpt>
      <trkpt lat="45.24689" lon="6.12965">
        <ele>2655.8000488281</ele>
        <time>2019-05-01T09:26:48.000Z</time>
      </trkpt>
      <trkpt lat="45.2469" lon="6.12964">
        <ele>2655.1999511719</ele>
        <time>2019-05-01T09:26:49.000Z</time>
      </trkpt>
      <trkpt lat="45.2469" lon="6.12961">
        <ele>2654.6000976562</ele>
        <time>2019-05-01T09:26:50.000Z</time>
      </trkpt>
      <trkpt lat="45.24689" lon="6.12957">
        <ele>2654</ele>
        <time>2019-05-01T09:26:51.000Z</time>
      </trkpt>
      <trkpt lat="45.24682" lon="6.12947">
        <ele>2652.6000976562</ele>
        <time>2019-05-01T09:26:54.000Z</time>
      </trkpt>
      <trkpt lat="45.24682" lon="6.12947">
        <ele>2650.8000488281</ele>
        <time>2019-05-01T09:26:56.000Z</time>
      </trkpt>
      <trkpt lat="45.24682" lon="6.12947">
        <ele>2649</ele>
        <time>2019-05-01T09:26:58.000Z</time>
      </trkpt>
      <trkpt lat="45.24682" lon="6.12947">
        <ele>2648.1999511719</ele>
        <time>2019-05-01T09:27:01.000Z</time>
      </trkpt>
      <trkpt lat="45.24682" lon="6.12947">
        <ele>2648</ele>
        <time>2019-05-01T09:27:03.000Z</time>
      </trkpt>
      <trkpt lat="45.24682" lon="6.12946">
        <ele>2648</ele>
        <time>2019-05-01T09:27:04.000Z</time>
      </trkpt>
      <trkpt lat="45.24686" lon="6.12947">
        <ele>2647.8000488281</ele>
        <time>2019-05-01T09:27:06.000Z</time>
      </trkpt>
      <trkpt lat="45.24687" lon="6.12946">
        <ele>2646.8000488281</ele>
        <time>2019-05-01T09:27:09.000Z</time>
      </trkpt>
      <trkpt lat="45.24687" lon="6.12943">
        <ele>2646</ele>
        <time>2019-05-01T09:27:11.000Z</time>
      </trkpt>
      <trkpt lat="45.24687" lon="6.12939">
        <ele>2645.8000488281</ele>
        <time>2019-05-01T09:27:12.000Z</time>
      </trkpt>
      <trkpt lat="45.24686" lon="6.12935">
        <ele>2645.3999023438</ele>
        <time>2019-05-01T09:27:14.000Z</time>
      </trkpt>
      <trkpt lat="45.24689" lon="6.12935">
        <ele>2644.1999511719</ele>
        <time>2019-05-01T09:27:16.000Z</time>
      </trkpt>
      <trkpt lat="45.2469" lon="6.12936">
        <ele>2643.3999023438</ele>
        <time>2019-05-01T09:27:17.000Z</time>
      </trkpt>
      <trkpt lat="45.24691" lon="6.12937">
        <ele>2642.8000488281</ele>
        <time>2019-05-01T09:27:18.000Z</time>
      </trkpt>
      <trkpt lat="45.24691" lon="6.12938">
        <ele>2641.1999511719</ele>
        <time>2019-05-01T09:27:20.000Z</time>
      </trkpt>
      <trkpt lat="45.24691" lon="6.12938">
        <ele>2640</ele>
        <time>2019-05-01T09:27:22.000Z</time>
      </trkpt>
      <trkpt lat="45.24691" lon="6.12938">
        <ele>2639.3999023438</ele>
        <time>2019-05-01T09:27:26.000Z</time>
      </trkpt>
      <trkpt lat="45.24691" lon="6.12935">
        <ele>2639.3999023438</ele>
        <time>2019-05-01T09:27:27.000Z</time>
      </trkpt>
      <trkpt lat="45.24689" lon="6.12932">
        <ele>2639</ele>
        <time>2019-05-01T09:27:29.000Z</time>
      </trkpt>
      <trkpt lat="45.2469" lon="6.12931">
        <ele>2637.6000976562</ele>
        <time>2019-05-01T09:27:31.000Z</time>
      </trkpt>
      <trkpt lat="45.24698" lon="6.12933">
        <ele>2636.3999023438</ele>
        <time>2019-05-01T09:27:34.000Z</time>
      </trkpt>
      <trkpt lat="45.24701" lon="6.12933">
        <ele>2636</ele>
        <time>2019-05-01T09:27:35.000Z</time>
      </trkpt>
      <trkpt lat="45.24702" lon="6.12934">
        <ele>2635.1999511719</ele>
        <time>2019-05-01T09:27:36.000Z</time>
      </trkpt>
      <trkpt lat="45.24704" lon="6.12935">
        <ele>2633.8000488281</ele>
        <time>2019-05-01T09:27:38.000Z</time>
      </trkpt>
      <trkpt lat="45.24704" lon="6.12935">
        <ele>2633.1999511719</ele>
        <time>2019-05-01T09:27:39.000Z</time>
      </trkpt>
      <trkpt lat="45.24703" lon="6.12936">
        <ele>2632.6000976562</ele>
        <time>2019-05-01T09:27:40.000Z</time>
      </trkpt>
      <trkpt lat="45.24705" lon="6.12936">
        <ele>2632</ele>
        <time>2019-05-01T09:27:45.000Z</time>
      </trkpt>
      <trkpt lat="45.24705" lon="6.12935">
        <ele>2631.8000488281</ele>
        <time>2019-05-01T09:27:46.000Z</time>
      </trkpt>
      <trkpt lat="45.24705" lon="6.12932">
        <ele>2631.6000976562</ele>
        <time>2019-05-01T09:27:47.000Z</time>
      </trkpt>
      <trkpt lat="45.24704" lon="6.12928">
        <ele>2631.3999023438</ele>
        <time>2019-05-01T09:27:48.000Z</time>
      </trkpt>
      <trkpt lat="45.24707" lon="6.12923">
        <ele>2630.3999023438</ele>
        <time>2019-05-01T09:27:51.000Z</time>
      </trkpt>
      <trkpt lat="45.24708" lon="6.12922">
        <ele>2628.3999023438</ele>
        <time>2019-05-01T09:27:53.000Z</time>
      </trkpt>
      <trkpt lat="45.24708" lon="6.12922">
        <ele>2627.1999511719</ele>
        <time>2019-05-01T09:27:55.000Z</time>
      </trkpt>
      <trkpt lat="45.24708" lon="6.12922">
        <ele>2626.8000488281</ele>
        <time>2019-05-01T09:27:56.000Z</time>
      </trkpt>
      <trkpt lat="45.24707" lon="6.12923">
        <ele>2626.1999511719</ele>
        <time>2019-05-01T09:28:01.000Z</time>
      </trkpt>
      <trkpt lat="45.24708" lon="6.1292">
        <ele>2626</ele>
        <time>2019-05-01T09:28:05.000Z</time>
      </trkpt>
      <trkpt lat="45.24709" lon="6.12912">
        <ele>2625.8000488281</ele>
        <time>2019-05-01T09:28:08.000Z</time>
      </trkpt>
      <trkpt lat="45.2471" lon="6.12911">
        <ele>2625.3999023438</ele>
        <time>2019-05-01T09:28:09.000Z</time>
      </trkpt>
      <trkpt lat="45.24711" lon="6.12911">
        <ele>2624.8000488281</ele>
        <time>2019-05-01T09:28:10.000Z</time>
      </trkpt>
      <trkpt lat="45.24712" lon="6.12911">
        <ele>2623.6000976562</ele>
        <time>2019-05-01T09:28:12.000Z</time>
      </trkpt>
      <trkpt lat="45.24712" lon="6.12911">
        <ele>2622.3999023438</ele>
        <time>2019-05-01T09:28:14.000Z</time>
      </trkpt>
      <trkpt lat="45.2471" lon="6.12914">
        <ele>2621.6000976562</ele>
        <time>2019-05-01T09:28:23.000Z</time>
      </trkpt>
      <trkpt lat="45.2471" lon="6.12913">
        <ele>2621.3999023438</ele>
        <time>2019-05-01T09:28:26.000Z</time>
      </trkpt>
      <trkpt lat="45.2471" lon="6.12914">
        <ele>2620.6000976562</ele>
        <time>2019-05-01T09:28:31.000Z</time>
      </trkpt>
      <trkpt lat="45.2471" lon="6.12913">
        <ele>2620.3999023438</ele>
        <time>2019-05-01T09:28:33.000Z</time>
      </trkpt>
      <trkpt lat="45.24709" lon="6.12912">
        <ele>2620.3999023438</ele>
        <time>2019-05-01T09:28:34.000Z</time>
      </trkpt>
      <trkpt lat="45.24709" lon="6.12912">
        <ele>2620.3999023438</ele>
        <time>2019-05-01T09:28:35.000Z</time>
      </trkpt>
      <trkpt lat="45.24708" lon="6.12908">
        <ele>2619.1999511719</ele>
        <time>2019-05-01T09:28:39.000Z</time>
      </trkpt>
      <trkpt lat="45.24708" lon="6.12907">
        <ele>2618.3999023438</ele>
        <time>2019-05-01T09:28:41.000Z</time>
      </trkpt>
      <trkpt lat="45.24708" lon="6.12907">
        <ele>2618</ele>
        <time>2019-05-01T09:28:43.000Z</time>
      </trkpt>
      <trkpt lat="45.24709" lon="6.12904">
        <ele>2617.3999023438</ele>
        <time>2019-05-01T09:28:45.000Z</time>
      </trkpt>
      <trkpt lat="45.24709" lon="6.12902">
        <ele>2617.1999511719</ele>
        <time>2019-05-01T09:28:46.000Z</time>
      </trkpt>
      <trkpt lat="45.2471" lon="6.12901">
        <ele>2616.8000488281</ele>
        <time>2019-05-01T09:28:48.000Z</time>
      </trkpt>
      <trkpt lat="45.2471" lon="6.12899">
        <ele>2615.8000488281</ele>
        <time>2019-05-01T09:28:50.000Z</time>
      </trkpt>
      <trkpt lat="45.24713" lon="6.12896">
        <ele>2615</ele>
        <time>2019-05-01T09:28:52.000Z</time>
      </trkpt>
      <trkpt lat="45.24715" lon="6.12895">
        <ele>2614.8000488281</ele>
        <time>2019-05-01T09:28:53.000Z</time>
      </trkpt>
      <trkpt lat="45.24718" lon="6.12893">
        <ele>2614</ele>
        <time>2019-05-01T09:28:55.000Z</time>
      </trkpt>
      <trkpt lat="45.24721" lon="6.12889">
        <ele>2613.1999511719</ele>
        <time>2019-05-01T09:28:57.000Z</time>
      </trkpt>
      <trkpt lat="45.24729" lon="6.12884">
        <ele>2611.8000488281</ele>
        <time>2019-05-01T09:29:00.000Z</time>
      </trkpt>
      <trkpt lat="45.24731" lon="6.12885">
        <ele>2611.1999511719</ele>
        <time>2019-05-01T09:29:01.000Z</time>
      </trkpt>
      <trkpt lat="45.24731" lon="6.12886">
        <ele>2610.6000976562</ele>
        <time>2019-05-01T09:29:02.000Z</time>
      </trkpt>
      <trkpt lat="45.24731" lon="6.12885">
        <ele>2609.8000488281</ele>
        <time>2019-05-01T09:29:03.000Z</time>
      </trkpt>
      <trkpt lat="45.24732" lon="6.12884">
        <ele>2609.1999511719</ele>
        <time>2019-05-01T09:29:04.000Z</time>
      </trkpt>
      <trkpt lat="45.24732" lon="6.12884">
        <ele>2608.6000976562</ele>
        <time>2019-05-01T09:29:05.000Z</time>
      </trkpt>
      <trkpt lat="45.24734" lon="6.12886">
        <ele>2608</ele>
        <time>2019-05-01T09:29:07.000Z</time>
      </trkpt>
      <trkpt lat="45.24733" lon="6.12888">
        <ele>2606.8000488281</ele>
        <time>2019-05-01T09:29:10.000Z</time>
      </trkpt>
      <trkpt lat="45.24732" lon="6.12888">
        <ele>2605.8000488281</ele>
        <time>2019-05-01T09:29:15.000Z</time>
      </trkpt>
      <trkpt lat="45.24732" lon="6.12887">
        <ele>2605.3999023438</ele>
        <time>2019-05-01T09:29:16.000Z</time>
      </trkpt>
      <trkpt lat="45.24732" lon="6.12886">
        <ele>2605.1999511719</ele>
        <time>2019-05-01T09:29:17.000Z</time>
      </trkpt>
      <trkpt lat="45.24732" lon="6.12883">
        <ele>2604.8000488281</ele>
        <time>2019-05-01T09:29:19.000Z</time>
      </trkpt>
      <trkpt lat="45.24732" lon="6.12882">
        <ele>2604.3999023438</ele>
        <time>2019-05-01T09:29:20.000Z</time>
      </trkpt>
      <trkpt lat="45.24731" lon="6.12881">
        <ele>2603.3999023438</ele>
        <time>2019-05-01T09:29:22.000Z</time>
      </trkpt>
      <trkpt lat="45.24731" lon="6.12882">
        <ele>2602.3999023438</ele>
        <time>2019-05-01T09:29:24.000Z</time>
      </trkpt>
      <trkpt lat="45.24731" lon="6.12882">
        <ele>2601.6000976562</ele>
        <time>2019-05-01T09:29:27.000Z</time>
      </trkpt>
      <trkpt lat="45.24731" lon="6.12882">
        <ele>2601.1999511719</ele>
        <time>2019-05-01T09:29:28.000Z</time>
      </trkpt>
      <trkpt lat="45.2473" lon="6.12878">
        <ele>2600.3999023438</ele>
        <time>2019-05-01T09:29:33.000Z</time>
      </trkpt>
      <trkpt lat="45.24729" lon="6.12877">
        <ele>2600.1999511719</ele>
        <time>2019-05-01T09:29:34.000Z</time>
      </trkpt>
      <trkpt lat="45.24728" lon="6.12875">
        <ele>2599.3999023438</ele>
        <time>2019-05-01T09:29:36.000Z</time>
      </trkpt>
      <trkpt lat="45.24726" lon="6.12873">
        <ele>2599.1999511719</ele>
        <time>2019-05-01T09:29:37.000Z</time>
      </trkpt>
      <trkpt lat="45.24721" lon="6.12872">
        <ele>2597.8000488281</ele>
        <time>2019-05-01T09:29:40.000Z</time>
      </trkpt>
      <trkpt lat="45.24719" lon="6.12872">
        <ele>2597</ele>
        <time>2019-05-01T09:29:41.000Z</time>
      </trkpt>
      <trkpt lat="45.24718" lon="6.12872">
        <ele>2596.1999511719</ele>
        <time>2019-05-01T09:29:42.000Z</time>
      </trkpt>
      <trkpt lat="45.24711" lon="6.1287">
        <ele>2595</ele>
        <time>2019-05-01T09:29:45.000Z</time>
      </trkpt>
      <trkpt lat="45.2471" lon="6.12869">
        <ele>2594.8000488281</ele>
        <time>2019-05-01T09:29:46.000Z</time>
      </trkpt>
      <trkpt lat="45.24709" lon="6.12869">
        <ele>2594</ele>
        <time>2019-05-01T09:29:48.000Z</time>
      </trkpt>
      <trkpt lat="45.24703" lon="6.12867">
        <ele>2593.3999023438</ele>
        <time>2019-05-01T09:29:51.000Z</time>
      </trkpt>
      <trkpt lat="45.24695" lon="6.12863">
        <ele>2592.8000488281</ele>
        <time>2019-05-01T09:29:53.000Z</time>
      </trkpt>
      <trkpt lat="45.2469" lon="6.1286">
        <ele>2592.3999023438</ele>
        <time>2019-05-01T09:29:54.000Z</time>
      </trkpt>
      <trkpt lat="45.24686" lon="6.12857">
        <ele>2591.8000488281</ele>
        <time>2019-05-01T09:29:55.000Z</time>
      </trkpt>
      <trkpt lat="45.24679" lon="6.12851">
        <ele>2590.1999511719</ele>
        <time>2019-05-01T09:29:57.000Z</time>
      </trkpt>
      <trkpt lat="45.24674" lon="6.12846">
        <ele>2589</ele>
        <time>2019-05-01T09:29:59.000Z</time>
      </trkpt>
      <trkpt lat="45.24671" lon="6.12839">
        <ele>2587.8000488281</ele>
        <time>2019-05-01T09:30:02.000Z</time>
      </trkpt>
      <trkpt lat="45.24669" lon="6.12837">
        <ele>2587.6000976562</ele>
        <time>2019-05-01T09:30:03.000Z</time>
      </trkpt>
      <trkpt lat="45.24663" lon="6.12829">
        <ele>2586.8000488281</ele>
        <time>2019-05-01T09:30:06.000Z</time>
      </trkpt>
      <trkpt lat="45.24655" lon="6.12823">
        <ele>2585.6000976562</ele>
        <time>2019-05-01T09:30:09.000Z</time>
      </trkpt>
      <trkpt lat="45.24647" lon="6.12817">
        <ele>2584</ele>
        <time>2019-05-01T09:30:12.000Z</time>
      </trkpt>
      <trkpt lat="45.24643" lon="6.12811">
        <ele>2582.8000488281</ele>
        <time>2019-05-01T09:30:15.000Z</time>
      </trkpt>
      <trkpt lat="45.24641" lon="6.12807">
        <ele>2581.8000488281</ele>
        <time>2019-05-01T09:30:17.000Z</time>
      </trkpt>
      <trkpt lat="45.2464" lon="6.12805">
        <ele>2581</ele>
        <time>2019-05-01T09:30:20.000Z</time>
      </trkpt>
      <trkpt lat="45.2464" lon="6.12805">
        <ele>2580.8000488281</ele>
        <time>2019-05-01T09:30:25.000Z</time>
      </trkpt>
      <trkpt lat="45.2464" lon="6.12805">
        <ele>2580.8000488281</ele>
        <time>2019-05-01T09:30:33.000Z</time>
      </trkpt>
      <trkpt lat="45.24638" lon="6.12802">
        <ele>2580.6000976562</ele>
        <time>2019-05-01T09:30:42.000Z</time>
      </trkpt>
      <trkpt lat="45.24627" lon="6.12789">
        <ele>2579.8000488281</ele>
        <time>2019-05-01T09:30:48.000Z</time>
      </trkpt>
      <trkpt lat="45.24622" lon="6.1278">
        <ele>2578.8000488281</ele>
        <time>2019-05-01T09:30:51.000Z</time>
      </trkpt>
      <trkpt lat="45.24622" lon="6.12777">
        <ele>2578.3999023438</ele>
        <time>2019-05-01T09:30:52.000Z</time>
      </trkpt>
      <trkpt lat="45.24622" lon="6.12776">
        <ele>2578</ele>
        <time>2019-05-01T09:30:53.000Z</time>
      </trkpt>
      <trkpt lat="45.24621" lon="6.12775">
        <ele>2577.1999511719</ele>
        <time>2019-05-01T09:30:55.000Z</time>
      </trkpt>
      <trkpt lat="45.24621" lon="6.12775">
        <ele>2576.3999023438</ele>
        <time>2019-05-01T09:30:58.000Z</time>
      </trkpt>
      <trkpt lat="45.24621" lon="6.12775">
        <ele>2576.1999511719</ele>
        <time>2019-05-01T09:31:01.000Z</time>
      </trkpt>
      <trkpt lat="45.24621" lon="6.12775">
        <ele>2576</ele>
        <time>2019-05-01T09:31:07.000Z</time>
      </trkpt>
      <trkpt lat="45.24621" lon="6.12775">
        <ele>2576.1999511719</ele>
        <time>2019-05-01T09:31:21.000Z</time>
      </trkpt>
      <trkpt lat="45.2462" lon="6.12775">
        <ele>2576</ele>
        <time>2019-05-01T09:31:37.000Z</time>
      </trkpt>
      <trkpt lat="45.2462" lon="6.12775">
        <ele>2576.1999511719</ele>
        <time>2019-05-01T09:31:51.000Z</time>
      </trkpt>
      <trkpt lat="45.2462" lon="6.12775">
        <ele>2576.1999511719</ele>
        <time>2019-05-01T09:32:02.000Z</time>
      </trkpt>
      <trkpt lat="45.2462" lon="6.12775">
        <ele>2576.1999511719</ele>
        <time>2019-05-01T09:32:08.000Z</time>
      </trkpt>
      <trkpt lat="45.2462" lon="6.12769">
        <ele>2576</ele>
        <time>2019-05-01T09:32:16.000Z</time>
      </trkpt>
      <trkpt lat="45.24614" lon="6.12758">
        <ele>2575.1999511719</ele>
        <time>2019-05-01T09:32:20.000Z</time>
      </trkpt>
      <trkpt lat="45.24613" lon="6.12755">
        <ele>2574.8000488281</ele>
        <time>2019-05-01T09:32:21.000Z</time>
      </trkpt>
      <trkpt lat="45.24612" lon="6.12753">
        <ele>2574.1999511719</ele>
        <time>2019-05-01T09:32:22.000Z</time>
      </trkpt>
      <trkpt lat="45.24611" lon="6.12749">
        <ele>2572.6000976562</ele>
        <time>2019-05-01T09:32:24.000Z</time>
      </trkpt>
      <trkpt lat="45.24609" lon="6.12745">
        <ele>2571.1999511719</ele>
        <time>2019-05-01T09:32:26.000Z</time>
      </trkpt>
      <trkpt lat="45.24607" lon="6.12741">
        <ele>2570</ele>
        <time>2019-05-01T09:32:28.000Z</time>
      </trkpt>
      <trkpt lat="45.24606" lon="6.12741">
        <ele>2568.3999023438</ele>
        <time>2019-05-01T09:32:30.000Z</time>
      </trkpt>
      <trkpt lat="45.24606" lon="6.12741">
        <ele>2566.8000488281</ele>
        <time>2019-05-01T09:32:32.000Z</time>
      </trkpt>
      <trkpt lat="45.24606" lon="6.12739">
        <ele>2566</ele>
        <time>2019-05-01T09:32:34.000Z</time>
      </trkpt>
      <trkpt lat="45.24605" lon="6.12736">
        <ele>2565.8000488281</ele>
        <time>2019-05-01T09:32:35.000Z</time>
      </trkpt>
      <trkpt lat="45.24602" lon="6.12727">
        <ele>2564.8000488281</ele>
        <time>2019-05-01T09:32:38.000Z</time>
      </trkpt>
      <trkpt lat="45.24601" lon="6.12722">
        <ele>2564</ele>
        <time>2019-05-01T09:32:39.000Z</time>
      </trkpt>
      <trkpt lat="45.246" lon="6.12714">
        <ele>2563.1999511719</ele>
        <time>2019-05-01T09:32:40.000Z</time>
      </trkpt>
      <trkpt lat="45.24598" lon="6.12705">
        <ele>2561.3999023438</ele>
        <time>2019-05-01T09:32:41.000Z</time>
      </trkpt>
      <trkpt lat="45.24596" lon="6.12697">
        <ele>2560.3999023438</ele>
        <time>2019-05-01T09:32:42.000Z</time>
      </trkpt>
      <trkpt lat="45.24595" lon="6.12692">
        <ele>2559</ele>
        <time>2019-05-01T09:32:43.000Z</time>
      </trkpt>
      <trkpt lat="45.24595" lon="6.12689">
        <ele>2557.6000976562</ele>
        <time>2019-05-01T09:32:44.000Z</time>
      </trkpt>
      <trkpt lat="45.24595" lon="6.12687">
        <ele>2556.6000976562</ele>
        <time>2019-05-01T09:32:45.000Z</time>
      </trkpt>
      <trkpt lat="45.24594" lon="6.12686">
        <ele>2556</ele>
        <time>2019-05-01T09:32:46.000Z</time>
      </trkpt>
      <trkpt lat="45.24594" lon="6.1268">
        <ele>2555.3999023438</ele>
        <time>2019-05-01T09:32:50.000Z</time>
      </trkpt>
      <trkpt lat="45.24594" lon="6.12675">
        <ele>2555</ele>
        <time>2019-05-01T09:32:53.000Z</time>
      </trkpt>
      <trkpt lat="45.24595" lon="6.12666">
        <ele>2554.6000976562</ele>
        <time>2019-05-01T09:32:56.000Z</time>
      </trkpt>
      <trkpt lat="45.24594" lon="6.12659">
        <ele>2554</ele>
        <time>2019-05-01T09:32:59.000Z</time>
      </trkpt>
      <trkpt lat="45.24595" lon="6.1265">
        <ele>2552.8000488281</ele>
        <time>2019-05-01T09:33:03.000Z</time>
      </trkpt>
      <trkpt lat="45.24596" lon="6.12638">
        <ele>2551.6000976562</ele>
        <time>2019-05-01T09:33:07.000Z</time>
      </trkpt>
      <trkpt lat="45.24596" lon="6.12631">
        <ele>2551</ele>
        <time>2019-05-01T09:33:10.000Z</time>
      </trkpt>
      <trkpt lat="45.24597" lon="6.12626">
        <ele>2550.6000976562</ele>
        <time>2019-05-01T09:33:13.000Z</time>
      </trkpt>
      <trkpt lat="45.24598" lon="6.12619">
        <ele>2550</ele>
        <time>2019-05-01T09:33:16.000Z</time>
      </trkpt>
      <trkpt lat="45.24598" lon="6.12612">
        <ele>2549.3999023438</ele>
        <time>2019-05-01T09:33:21.000Z</time>
      </trkpt>
      <trkpt lat="45.24598" lon="6.12612">
        <ele>2549.3999023438</ele>
        <time>2019-05-01T09:33:22.000Z</time>
      </trkpt>
      <trkpt lat="45.24598" lon="6.12612">
        <ele>2548.8000488281</ele>
        <time>2019-05-01T09:33:37.000Z</time>
      </trkpt>
      <trkpt lat="45.24598" lon="6.12612">
        <ele>2548.8000488281</ele>
        <time>2019-05-01T09:33:48.000Z</time>
      </trkpt>
      <trkpt lat="45.24598" lon="6.12612">
        <ele>2548.8000488281</ele>
        <time>2019-05-01T09:34:02.000Z</time>
      </trkpt>
      <trkpt lat="45.24598" lon="6.12612">
        <ele>2548.8000488281</ele>
        <time>2019-05-01T09:34:10.000Z</time>
      </trkpt>
      <trkpt lat="45.24598" lon="6.12612">
        <ele>2548.8000488281</ele>
        <time>2019-05-01T09:34:24.000Z</time>
      </trkpt>
      <trkpt lat="45.24598" lon="6.12612">
        <ele>2548.8000488281</ele>
        <time>2019-05-01T09:34:34.000Z</time>
      </trkpt>
      <trkpt lat="45.24598" lon="6.12612">
        <ele>2549.3999023438</ele>
        <time>2019-05-01T09:34:44.000Z</time>
      </trkpt>
      <trkpt lat="45.24598" lon="6.12612">
        <ele>2549.3999023438</ele>
        <time>2019-05-01T09:34:53.000Z</time>
      </trkpt>
      <trkpt lat="45.24598" lon="6.12612">
        <ele>2549.1999511719</ele>
        <time>2019-05-01T09:34:59.000Z</time>
      </trkpt>
      <trkpt lat="45.24598" lon="6.12612">
        <ele>2549.1999511719</ele>
        <time>2019-05-01T09:35:11.000Z</time>
      </trkpt>
      <trkpt lat="45.24597" lon="6.12612">
        <ele>2549.1999511719</ele>
        <time>2019-05-01T09:35:22.000Z</time>
      </trkpt>
      <trkpt lat="45.24597" lon="6.12612">
        <ele>2549.3999023438</ele>
        <time>2019-05-01T09:35:37.000Z</time>
      </trkpt>
      <trkpt lat="45.24597" lon="6.12612">
        <ele>2549.1999511719</ele>
        <time>2019-05-01T09:35:48.000Z</time>
      </trkpt>
      <trkpt lat="45.24597" lon="6.12612">
        <ele>2549.3999023438</ele>
        <time>2019-05-01T09:35:57.000Z</time>
      </trkpt>
      <trkpt lat="45.24597" lon="6.12612">
        <ele>2549.3999023438</ele>
        <time>2019-05-01T09:36:10.000Z</time>
      </trkpt>
      <trkpt lat="45.24597" lon="6.12612">
        <ele>2549.3999023438</ele>
        <time>2019-05-01T09:36:12.000Z</time>
      </trkpt>
      <trkpt lat="45.24597" lon="6.12612">
        <ele>2549.1999511719</ele>
        <time>2019-05-01T09:36:18.000Z</time>
      </trkpt>
      <trkpt lat="45.24597" lon="6.12612">
        <ele>2548.8000488281</ele>
        <time>2019-05-01T09:36:27.000Z</time>
      </trkpt>
      <trkpt lat="45.24597" lon="6.12612">
        <ele>2548.8000488281</ele>
        <time>2019-05-01T09:36:41.000Z</time>
      </trkpt>
      <trkpt lat="45.24597" lon="6.12612">
        <ele>2548.6000976562</ele>
        <time>2019-05-01T09:36:54.000Z</time>
      </trkpt>
      <trkpt lat="45.24597" lon="6.12612">
        <ele>2548.8000488281</ele>
        <time>2019-05-01T09:37:11.000Z</time>
      </trkpt>
      <trkpt lat="45.24597" lon="6.12612">
        <ele>2548.8000488281</ele>
        <time>2019-05-01T09:37:29.000Z</time>
      </trkpt>
      <trkpt lat="45.24597" lon="6.12612">
        <ele>2548.8000488281</ele>
        <time>2019-05-01T09:37:47.000Z</time>
      </trkpt>
      <trkpt lat="45.24597" lon="6.12611">
        <ele>2548.6000976562</ele>
        <time>2019-05-01T09:38:06.000Z</time>
      </trkpt>
      <trkpt lat="45.24597" lon="6.12611">
        <ele>2548.6000976562</ele>
        <time>2019-05-01T09:38:19.000Z</time>
      </trkpt>
      <trkpt lat="45.24597" lon="6.12611">
        <ele>2548.6000976562</ele>
        <time>2019-05-01T09:38:35.000Z</time>
      </trkpt>
      <trkpt lat="45.24597" lon="6.12611">
        <ele>2548.3999023438</ele>
        <time>2019-05-01T09:38:48.000Z</time>
      </trkpt>
      <trkpt lat="45.24597" lon="6.12611">
        <ele>2548.6000976562</ele>
        <time>2019-05-01T09:39:06.000Z</time>
      </trkpt>
      <trkpt lat="45.24597" lon="6.12612">
        <ele>2548.3999023438</ele>
        <time>2019-05-01T09:39:21.000Z</time>
      </trkpt>
      <trkpt lat="45.24597" lon="6.12612">
        <ele>2548.3999023438</ele>
        <time>2019-05-01T09:39:33.000Z</time>
      </trkpt>
      <trkpt lat="45.24597" lon="6.12612">
        <ele>2548.3999023438</ele>
        <time>2019-05-01T09:39:45.000Z</time>
      </trkpt>
      <trkpt lat="45.24597" lon="6.12612">
        <ele>2548.3999023438</ele>
        <time>2019-05-01T09:39:48.000Z</time>
      </trkpt>
      <trkpt lat="45.24596" lon="6.12613">
        <ele>2548.3999023438</ele>
        <time>2019-05-01T09:40:03.000Z</time>
      </trkpt>
      <trkpt lat="45.24596" lon="6.12613">
        <ele>2548.3999023438</ele>
        <time>2019-05-01T09:40:24.000Z</time>
      </trkpt>
      <trkpt lat="45.24596" lon="6.12613">
        <ele>2548.3999023438</ele>
        <time>2019-05-01T09:40:37.000Z</time>
      </trkpt>
      <trkpt lat="45.24596" lon="6.12614">
        <ele>2548.3999023438</ele>
        <time>2019-05-01T09:40:49.000Z</time>
      </trkpt>
      <trkpt lat="45.24595" lon="6.12613">
        <ele>2548.3999023438</ele>
        <time>2019-05-01T09:40:58.000Z</time>
      </trkpt>
      <trkpt lat="45.24595" lon="6.12613">
        <ele>2548.6000976562</ele>
        <time>2019-05-01T09:41:12.000Z</time>
      </trkpt>
      <trkpt lat="45.24595" lon="6.12611">
        <ele>2548.3999023438</ele>
        <time>2019-05-01T09:41:31.000Z</time>
      </trkpt>
      <trkpt lat="45.24595" lon="6.12611">
        <ele>2548.3999023438</ele>
        <time>2019-05-01T09:41:45.000Z</time>
      </trkpt>
      <trkpt lat="45.24595" lon="6.12611">
        <ele>2548.3999023438</ele>
        <time>2019-05-01T09:42:01.000Z</time>
      </trkpt>
      <trkpt lat="45.24594" lon="6.12612">
        <ele>2548.3999023438</ele>
        <time>2019-05-01T09:42:19.000Z</time>
      </trkpt>
      <trkpt lat="45.24594" lon="6.12612">
        <ele>2548.1999511719</ele>
        <time>2019-05-01T09:42:33.000Z</time>
      </trkpt>
      <trkpt lat="45.24594" lon="6.12612">
        <ele>2548.1999511719</ele>
        <time>2019-05-01T09:42:48.000Z</time>
      </trkpt>
      <trkpt lat="45.24594" lon="6.12611">
        <ele>2548.1999511719</ele>
        <time>2019-05-01T09:43:00.000Z</time>
      </trkpt>
      <trkpt lat="45.24594" lon="6.12611">
        <ele>2548</ele>
        <time>2019-05-01T09:43:09.000Z</time>
      </trkpt>
      <trkpt lat="45.24594" lon="6.12611">
        <ele>2548</ele>
        <time>2019-05-01T09:43:22.000Z</time>
      </trkpt>
      <trkpt lat="45.24594" lon="6.12613">
        <ele>2548.1999511719</ele>
        <time>2019-05-01T09:43:39.000Z</time>
      </trkpt>
      <trkpt lat="45.24594" lon="6.12613">
        <ele>2548</ele>
        <time>2019-05-01T09:43:53.000Z</time>
      </trkpt>
      <trkpt lat="45.24594" lon="6.12613">
        <ele>2547.8000488281</ele>
        <time>2019-05-01T09:44:05.000Z</time>
      </trkpt>
      <trkpt lat="45.24594" lon="6.12611">
        <ele>2547.8000488281</ele>
        <time>2019-05-01T09:44:24.000Z</time>
      </trkpt>
      <trkpt lat="45.24594" lon="6.1261">
        <ele>2548</ele>
        <time>2019-05-01T09:44:30.000Z</time>
      </trkpt>
      <trkpt lat="45.24597" lon="6.12597">
        <ele>2547.6000976562</ele>
        <time>2019-05-01T09:44:35.000Z</time>
      </trkpt>
      <trkpt lat="45.24599" lon="6.1259">
        <ele>2547.3999023438</ele>
        <time>2019-05-01T09:44:37.000Z</time>
      </trkpt>
      <trkpt lat="45.24603" lon="6.12579">
        <ele>2546.8000488281</ele>
        <time>2019-05-01T09:44:40.000Z</time>
      </trkpt>
      <trkpt lat="45.24605" lon="6.12578">
        <ele>2546.3999023438</ele>
        <time>2019-05-01T09:44:41.000Z</time>
      </trkpt>
      <trkpt lat="45.24609" lon="6.12575">
        <ele>2545.6000976562</ele>
        <time>2019-05-01T09:44:42.000Z</time>
      </trkpt>
      <trkpt lat="45.24617" lon="6.12573">
        <ele>2544</ele>
        <time>2019-05-01T09:44:44.000Z</time>
      </trkpt>
      <trkpt lat="45.24622" lon="6.1257">
        <ele>2542.8000488281</ele>
        <time>2019-05-01T09:44:45.000Z</time>
      </trkpt>
      <trkpt lat="45.24629" lon="6.12568">
        <ele>2541.1999511719</ele>
        <time>2019-05-01T09:44:46.000Z</time>
      </trkpt>
      <trkpt lat="45.24634" lon="6.12567">
        <ele>2539.3999023438</ele>
        <time>2019-05-01T09:44:47.000Z</time>
      </trkpt>
      <trkpt lat="45.24642" lon="6.12567">
        <ele>2537.6000976562</ele>
        <time>2019-05-01T09:44:48.000Z</time>
      </trkpt>
      <trkpt lat="45.24651" lon="6.12565">
        <ele>2535.6000976562</ele>
        <time>2019-05-01T09:44:49.000Z</time>
      </trkpt>
      <trkpt lat="45.24659" lon="6.12562">
        <ele>2533.6000976562</ele>
        <time>2019-05-01T09:44:50.000Z</time>
      </trkpt>
      <trkpt lat="45.24666" lon="6.1256">
        <ele>2531.3999023438</ele>
        <time>2019-05-01T09:44:51.000Z</time>
      </trkpt>
      <trkpt lat="45.24676" lon="6.1256">
        <ele>2529</ele>
        <time>2019-05-01T09:44:52.000Z</time>
      </trkpt>
      <trkpt lat="45.24684" lon="6.12558">
        <ele>2526.6000976562</ele>
        <time>2019-05-01T09:44:53.000Z</time>
      </trkpt>
      <trkpt lat="45.24693" lon="6.12555">
        <ele>2524</ele>
        <time>2019-05-01T09:44:54.000Z</time>
      </trkpt>
      <trkpt lat="45.24701" lon="6.12551">
        <ele>2521.3999023438</ele>
        <time>2019-05-01T09:44:55.000Z</time>
      </trkpt>
      <trkpt lat="45.2471" lon="6.12547">
        <ele>2518.8000488281</ele>
        <time>2019-05-01T09:44:56.000Z</time>
      </trkpt>
      <trkpt lat="45.24719" lon="6.12543">
        <ele>2516.3999023438</ele>
        <time>2019-05-01T09:44:57.000Z</time>
      </trkpt>
      <trkpt lat="45.24732" lon="6.12546">
        <ele>2514.1999511719</ele>
        <time>2019-05-01T09:44:58.000Z</time>
      </trkpt>
      <trkpt lat="45.24744" lon="6.1255">
        <ele>2512</ele>
        <time>2019-05-01T09:44:59.000Z</time>
      </trkpt>
      <trkpt lat="45.24751" lon="6.12559">
        <ele>2509.6000976562</ele>
        <time>2019-05-01T09:45:00.000Z</time>
      </trkpt>
      <trkpt lat="45.24754" lon="6.12566">
        <ele>2507.3999023438</ele>
        <time>2019-05-01T09:45:01.000Z</time>
      </trkpt>
      <trkpt lat="45.24756" lon="6.1257">
        <ele>2505.8000488281</ele>
        <time>2019-05-01T09:45:02.000Z</time>
      </trkpt>
      <trkpt lat="45.24758" lon="6.12573">
        <ele>2504.8000488281</ele>
        <time>2019-05-01T09:45:03.000Z</time>
      </trkpt>
      <trkpt lat="45.2476" lon="6.12578">
        <ele>2504.1999511719</ele>
        <time>2019-05-01T09:45:04.000Z</time>
      </trkpt>
      <trkpt lat="45.24769" lon="6.12585">
        <ele>2503.6000976562</ele>
        <time>2019-05-01T09:45:07.000Z</time>
      </trkpt>
      <trkpt lat="45.24773" lon="6.12588">
        <ele>2503.3999023438</ele>
        <time>2019-05-01T09:45:08.000Z</time>
      </trkpt>
      <trkpt lat="45.24772" lon="6.1259">
        <ele>2503.1999511719</ele>
        <time>2019-05-01T09:45:09.000Z</time>
      </trkpt>
      <trkpt lat="45.24772" lon="6.12593">
        <ele>2502.1999511719</ele>
        <time>2019-05-01T09:45:11.000Z</time>
      </trkpt>
      <trkpt lat="45.24772" lon="6.12594">
        <ele>2501.6000976562</ele>
        <time>2019-05-01T09:45:12.000Z</time>
      </trkpt>
      <trkpt lat="45.24772" lon="6.12594">
        <ele>2500.6000976562</ele>
        <time>2019-05-01T09:45:17.000Z</time>
      </trkpt>
      <trkpt lat="45.24772" lon="6.12594">
        <ele>2500.6000976562</ele>
        <time>2019-05-01T09:45:21.000Z</time>
      </trkpt>
      <trkpt lat="45.24772" lon="6.12594">
        <ele>2500.6000976562</ele>
        <time>2019-05-01T09:45:38.000Z</time>
      </trkpt>
      <trkpt lat="45.24772" lon="6.12594">
        <ele>2500.6000976562</ele>
        <time>2019-05-01T09:45:55.000Z</time>
      </trkpt>
      <trkpt lat="45.24772" lon="6.12597">
        <ele>2500.6000976562</ele>
        <time>2019-05-01T09:46:06.000Z</time>
      </trkpt>
      <trkpt lat="45.24773" lon="6.12597">
        <ele>2500.6000976562</ele>
        <time>2019-05-01T09:46:07.000Z</time>
      </trkpt>
      <trkpt lat="45.24774" lon="6.12591">
        <ele>2500.3999023438</ele>
        <time>2019-05-01T09:46:09.000Z</time>
      </trkpt>
      <trkpt lat="45.24777" lon="6.12577">
        <ele>2499.3999023438</ele>
        <time>2019-05-01T09:46:12.000Z</time>
      </trkpt>
      <trkpt lat="45.24777" lon="6.12573">
        <ele>2499</ele>
        <time>2019-05-01T09:46:13.000Z</time>
      </trkpt>
      <trkpt lat="45.24779" lon="6.12564">
        <ele>2498</ele>
        <time>2019-05-01T09:46:15.000Z</time>
      </trkpt>
      <trkpt lat="45.24779" lon="6.12552">
        <ele>2496.8000488281</ele>
        <time>2019-05-01T09:46:17.000Z</time>
      </trkpt>
      <trkpt lat="45.24775" lon="6.12547">
        <ele>2495.8000488281</ele>
        <time>2019-05-01T09:46:18.000Z</time>
      </trkpt>
      <trkpt lat="45.24778" lon="6.12537">
        <ele>2494.6000976562</ele>
        <time>2019-05-01T09:46:20.000Z</time>
      </trkpt>
      <trkpt lat="45.24781" lon="6.12532">
        <ele>2494</ele>
        <time>2019-05-01T09:46:21.000Z</time>
      </trkpt>
      <trkpt lat="45.24781" lon="6.12533">
        <ele>2493.3999023438</ele>
        <time>2019-05-01T09:46:22.000Z</time>
      </trkpt>
      <trkpt lat="45.24782" lon="6.12536">
        <ele>2492.8000488281</ele>
        <time>2019-05-01T09:46:23.000Z</time>
      </trkpt>
      <trkpt lat="45.24783" lon="6.12538">
        <ele>2492.1999511719</ele>
        <time>2019-05-01T09:46:24.000Z</time>
      </trkpt>
      <trkpt lat="45.24787" lon="6.12543">
        <ele>2491</ele>
        <time>2019-05-01T09:46:26.000Z</time>
      </trkpt>
      <trkpt lat="45.2479" lon="6.12542">
        <ele>2490.1999511719</ele>
        <time>2019-05-01T09:46:27.000Z</time>
      </trkpt>
      <trkpt lat="45.24793" lon="6.12544">
        <ele>2489.3999023438</ele>
        <time>2019-05-01T09:46:28.000Z</time>
      </trkpt>
      <trkpt lat="45.24799" lon="6.12546">
        <ele>2487.6000976562</ele>
        <time>2019-05-01T09:46:30.000Z</time>
      </trkpt>
      <trkpt lat="45.24805" lon="6.12542">
        <ele>2485.6000976562</ele>
        <time>2019-05-01T09:46:32.000Z</time>
      </trkpt>
      <trkpt lat="45.24808" lon="6.12535">
        <ele>2484</ele>
        <time>2019-05-01T09:46:34.000Z</time>
      </trkpt>
      <trkpt lat="45.24807" lon="6.12532">
        <ele>2483.1999511719</ele>
        <time>2019-05-01T09:46:35.000Z</time>
      </trkpt>
      <trkpt lat="45.24806" lon="6.1253">
        <ele>2482.8000488281</ele>
        <time>2019-05-01T09:46:36.000Z</time>
      </trkpt>
      <trkpt lat="45.24805" lon="6.12516">
        <ele>2482.1999511719</ele>
        <time>2019-05-01T09:46:40.000Z</time>
      </trkpt>
      <trkpt lat="45.24806" lon="6.12508">
        <ele>2481.6000976562</ele>
        <time>2019-05-01T09:46:43.000Z</time>
      </trkpt>
      <trkpt lat="45.24806" lon="6.12508">
        <ele>2481.3999023438</ele>
        <time>2019-05-01T09:46:45.000Z</time>
      </trkpt>
      <trkpt lat="45.24806" lon="6.12508">
        <ele>2481.1999511719</ele>
        <time>2019-05-01T09:47:01.000Z</time>
      </trkpt>
      <trkpt lat="45.24806" lon="6.12508">
        <ele>2481.1999511719</ele>
        <time>2019-05-01T09:47:17.000Z</time>
      </trkpt>
      <trkpt lat="45.24806" lon="6.12508">
        <ele>2481</ele>
        <time>2019-05-01T09:47:39.000Z</time>
      </trkpt>
      <trkpt lat="45.24806" lon="6.12508">
        <ele>2481</ele>
        <time>2019-05-01T09:47:48.000Z</time>
      </trkpt>
      <trkpt lat="45.24802" lon="6.12512">
        <ele>2480.8000488281</ele>
        <time>2019-05-01T09:47:54.000Z</time>
      </trkpt>
      <trkpt lat="45.24802" lon="6.12512">
        <ele>2480.6000976562</ele>
        <time>2019-05-01T09:47:55.000Z</time>
      </trkpt>
      <trkpt lat="45.24802" lon="6.12512">
        <ele>2480.6000976562</ele>
        <time>2019-05-01T09:48:12.000Z</time>
      </trkpt>
      <trkpt lat="45.24802" lon="6.12512">
        <ele>2480.3999023438</ele>
        <time>2019-05-01T09:48:31.000Z</time>
      </trkpt>
      <trkpt lat="45.24804" lon="6.12515">
        <ele>2480.3999023438</ele>
        <time>2019-05-01T09:48:33.000Z</time>
      </trkpt>
      <trkpt lat="45.24806" lon="6.12523">
        <ele>2480.3999023438</ele>
        <time>2019-05-01T09:48:35.000Z</time>
      </trkpt>
      <trkpt lat="45.24805" lon="6.1253">
        <ele>2479.8000488281</ele>
        <time>2019-05-01T09:48:37.000Z</time>
      </trkpt>
      <trkpt lat="45.24805" lon="6.12533">
        <ele>2479.3999023438</ele>
        <time>2019-05-01T09:48:38.000Z</time>
      </trkpt>
      <trkpt lat="45.24807" lon="6.12533">
        <ele>2479</ele>
        <time>2019-05-01T09:48:39.000Z</time>
      </trkpt>
      <trkpt lat="45.2481" lon="6.12533">
        <ele>2478</ele>
        <time>2019-05-01T09:48:41.000Z</time>
      </trkpt>
      <trkpt lat="45.24814" lon="6.12536">
        <ele>2477.6000976562</ele>
        <time>2019-05-01T09:48:42.000Z</time>
      </trkpt>
      <trkpt lat="45.24818" lon="6.12541">
        <ele>2476.1999511719</ele>
        <time>2019-05-01T09:48:43.000Z</time>
      </trkpt>
      <trkpt lat="45.24822" lon="6.12545">
        <ele>2475</ele>
        <time>2019-05-01T09:48:44.000Z</time>
      </trkpt>
      <trkpt lat="45.24826" lon="6.1255">
        <ele>2473.8000488281</ele>
        <time>2019-05-01T09:48:45.000Z</time>
      </trkpt>
      <trkpt lat="45.24828" lon="6.12556">
        <ele>2472.1999511719</ele>
        <time>2019-05-01T09:48:46.000Z</time>
      </trkpt>
      <trkpt lat="45.24829" lon="6.1256">
        <ele>2470.6000976562</ele>
        <time>2019-05-01T09:48:47.000Z</time>
      </trkpt>
      <trkpt lat="45.2483" lon="6.12563">
        <ele>2469</ele>
        <time>2019-05-01T09:48:48.000Z</time>
      </trkpt>
      <trkpt lat="45.24831" lon="6.12566">
        <ele>2467.3999023438</ele>
        <time>2019-05-01T09:48:49.000Z</time>
      </trkpt>
      <trkpt lat="45.24832" lon="6.12568">
        <ele>2466.1999511719</ele>
        <time>2019-05-01T09:48:50.000Z</time>
      </trkpt>
      <trkpt lat="45.24834" lon="6.12571">
        <ele>2465.3999023438</ele>
        <time>2019-05-01T09:48:51.000Z</time>
      </trkpt>
      <trkpt lat="45.24836" lon="6.12576">
        <ele>2464.6000976562</ele>
        <time>2019-05-01T09:48:52.000Z</time>
      </trkpt>
      <trkpt lat="45.24837" lon="6.12579">
        <ele>2463.6000976562</ele>
        <time>2019-05-01T09:48:54.000Z</time>
      </trkpt>
      <trkpt lat="45.24837" lon="6.1258">
        <ele>2462.1999511719</ele>
        <time>2019-05-01T09:48:56.000Z</time>
      </trkpt>
      <trkpt lat="45.24837" lon="6.1258">
        <ele>2461.1999511719</ele>
        <time>2019-05-01T09:48:58.000Z</time>
      </trkpt>
      <trkpt lat="45.24837" lon="6.1258">
        <ele>2460.6000976562</ele>
        <time>2019-05-01T09:49:01.000Z</time>
      </trkpt>
      <trkpt lat="45.24837" lon="6.1258">
        <ele>2460.6000976562</ele>
        <time>2019-05-01T09:49:18.000Z</time>
      </trkpt>
      <trkpt lat="45.24837" lon="6.1258">
        <ele>2460.6000976562</ele>
        <time>2019-05-01T09:49:28.000Z</time>
      </trkpt>
      <trkpt lat="45.24839" lon="6.12582">
        <ele>2460.3999023438</ele>
        <time>2019-05-01T09:49:38.000Z</time>
      </trkpt>
      <trkpt lat="45.24846" lon="6.1259">
        <ele>2460</ele>
        <time>2019-05-01T09:49:41.000Z</time>
      </trkpt>
      <trkpt lat="45.24851" lon="6.12591">
        <ele>2458.6000976562</ele>
        <time>2019-05-01T09:49:43.000Z</time>
      </trkpt>
      <trkpt lat="45.24854" lon="6.12594">
        <ele>2457.6000976562</ele>
        <time>2019-05-01T09:49:44.000Z</time>
      </trkpt>
      <trkpt lat="45.24857" lon="6.12593">
        <ele>2456.1999511719</ele>
        <time>2019-05-01T09:49:45.000Z</time>
      </trkpt>
      <trkpt lat="45.24862" lon="6.12595">
        <ele>2454.8000488281</ele>
        <time>2019-05-01T09:49:46.000Z</time>
      </trkpt>
      <trkpt lat="45.24866" lon="6.12602">
        <ele>2453.1999511719</ele>
        <time>2019-05-01T09:49:47.000Z</time>
      </trkpt>
      <trkpt lat="45.2487" lon="6.12609">
        <ele>2451.6000976562</ele>
        <time>2019-05-01T09:49:48.000Z</time>
      </trkpt>
      <trkpt lat="45.24875" lon="6.12614">
        <ele>2449.8000488281</ele>
        <time>2019-05-01T09:49:49.000Z</time>
      </trkpt>
      <trkpt lat="45.24877" lon="6.1262">
        <ele>2447.8000488281</ele>
        <time>2019-05-01T09:49:50.000Z</time>
      </trkpt>
      <trkpt lat="45.24877" lon="6.12621">
        <ele>2445.8000488281</ele>
        <time>2019-05-01T09:49:51.000Z</time>
      </trkpt>
      <trkpt lat="45.24876" lon="6.12621">
        <ele>2443.8000488281</ele>
        <time>2019-05-01T09:49:52.000Z</time>
      </trkpt>
      <trkpt lat="45.24875" lon="6.12623">
        <ele>2442</ele>
        <time>2019-05-01T09:49:53.000Z</time>
      </trkpt>
      <trkpt lat="45.24874" lon="6.12623">
        <ele>2440.3999023438</ele>
        <time>2019-05-01T09:49:54.000Z</time>
      </trkpt>
      <trkpt lat="45.24873" lon="6.12625">
        <ele>2438.1999511719</ele>
        <time>2019-05-01T09:49:55.000Z</time>
      </trkpt>
      <trkpt lat="45.24872" lon="6.12627">
        <ele>2437.3999023438</ele>
        <time>2019-05-01T09:49:57.000Z</time>
      </trkpt>
      <trkpt lat="45.24872" lon="6.12626">
        <ele>2437.1999511719</ele>
        <time>2019-05-01T09:49:58.000Z</time>
      </trkpt>
      <trkpt lat="45.24874" lon="6.12631">
        <ele>2436.8000488281</ele>
        <time>2019-05-01T09:50:03.000Z</time>
      </trkpt>
      <trkpt lat="45.24884" lon="6.12642">
        <ele>2436.6000976562</ele>
        <time>2019-05-01T09:50:06.000Z</time>
      </trkpt>
      <trkpt lat="45.24888" lon="6.12654">
        <ele>2435.8000488281</ele>
        <time>2019-05-01T09:50:08.000Z</time>
      </trkpt>
      <trkpt lat="45.24893" lon="6.12666">
        <ele>2434.1999511719</ele>
        <time>2019-05-01T09:50:10.000Z</time>
      </trkpt>
      <trkpt lat="45.24896" lon="6.12672">
        <ele>2433.3999023438</ele>
        <time>2019-05-01T09:50:11.000Z</time>
      </trkpt>
      <trkpt lat="45.24899" lon="6.12679">
        <ele>2432.6000976562</ele>
        <time>2019-05-01T09:50:12.000Z</time>
      </trkpt>
      <trkpt lat="45.24907" lon="6.1269">
        <ele>2431.1999511719</ele>
        <time>2019-05-01T09:50:14.000Z</time>
      </trkpt>
      <trkpt lat="45.24914" lon="6.12697">
        <ele>2429.8000488281</ele>
        <time>2019-05-01T09:50:16.000Z</time>
      </trkpt>
      <trkpt lat="45.2492" lon="6.12701">
        <ele>2428.6000976562</ele>
        <time>2019-05-01T09:50:18.000Z</time>
      </trkpt>
      <trkpt lat="45.24924" lon="6.12702">
        <ele>2428</ele>
        <time>2019-05-01T09:50:19.000Z</time>
      </trkpt>
      <trkpt lat="45.24928" lon="6.12703">
        <ele>2427.8000488281</ele>
        <time>2019-05-01T09:50:20.000Z</time>
      </trkpt>
      <trkpt lat="45.24933" lon="6.12705">
        <ele>2427.3999023438</ele>
        <time>2019-05-01T09:50:21.000Z</time>
      </trkpt>
      <trkpt lat="45.24945" lon="6.12711">
        <ele>2426.3999023438</ele>
        <time>2019-05-01T09:50:24.000Z</time>
      </trkpt>
      <trkpt lat="45.24953" lon="6.12716">
        <ele>2425.8000488281</ele>
        <time>2019-05-01T09:50:26.000Z</time>
      </trkpt>
      <trkpt lat="45.24959" lon="6.12721">
        <ele>2425</ele>
        <time>2019-05-01T09:50:28.000Z</time>
      </trkpt>
      <trkpt lat="45.24973" lon="6.12734">
        <ele>2423.8000488281</ele>
        <time>2019-05-01T09:50:32.000Z</time>
      </trkpt>
      <trkpt lat="45.24976" lon="6.12737">
        <ele>2422.3999023438</ele>
        <time>2019-05-01T09:50:35.000Z</time>
      </trkpt>
      <trkpt lat="45.24976" lon="6.12737">
        <ele>2421.3999023438</ele>
        <time>2019-05-01T09:50:38.000Z</time>
      </trkpt>
      <trkpt lat="45.24976" lon="6.12737">
        <ele>2421</ele>
        <time>2019-05-01T09:50:46.000Z</time>
      </trkpt>
      <trkpt lat="45.24976" lon="6.12737">
        <ele>2421</ele>
        <time>2019-05-01T09:50:52.000Z</time>
      </trkpt>
      <trkpt lat="45.24976" lon="6.12737">
        <ele>2421</ele>
        <time>2019-05-01T09:50:58.000Z</time>
      </trkpt>
      <trkpt lat="45.24978" lon="6.12738">
        <ele>2420.8000488281</ele>
        <time>2019-05-01T09:51:14.000Z</time>
      </trkpt>
      <trkpt lat="45.24978" lon="6.12738">
        <ele>2420.8000488281</ele>
        <time>2019-05-01T09:51:31.000Z</time>
      </trkpt>
      <trkpt lat="45.24978" lon="6.12738">
        <ele>2420.8000488281</ele>
        <time>2019-05-01T09:51:46.000Z</time>
      </trkpt>
      <trkpt lat="45.24979" lon="6.12738">
        <ele>2420.8000488281</ele>
        <time>2019-05-01T09:52:01.000Z</time>
      </trkpt>
      <trkpt lat="45.24979" lon="6.12738">
        <ele>2420.8000488281</ele>
        <time>2019-05-01T09:52:17.000Z</time>
      </trkpt>
      <trkpt lat="45.24979" lon="6.12738">
        <ele>2420.8000488281</ele>
        <time>2019-05-01T09:52:30.000Z</time>
      </trkpt>
      <trkpt lat="45.24979" lon="6.12739">
        <ele>2420.8000488281</ele>
        <time>2019-05-01T09:52:46.000Z</time>
      </trkpt>
      <trkpt lat="45.24979" lon="6.12739">
        <ele>2420.8000488281</ele>
        <time>2019-05-01T09:52:58.000Z</time>
      </trkpt>
      <trkpt lat="45.24982" lon="6.12744">
        <ele>2420.3999023438</ele>
        <time>2019-05-01T09:53:07.000Z</time>
      </trkpt>
      <trkpt lat="45.24983" lon="6.12746">
        <ele>2420.3999023438</ele>
        <time>2019-05-01T09:53:08.000Z</time>
      </trkpt>
      <trkpt lat="45.24987" lon="6.12751">
        <ele>2420</ele>
        <time>2019-05-01T09:53:10.000Z</time>
      </trkpt>
      <trkpt lat="45.2499" lon="6.1275">
        <ele>2419.6000976562</ele>
        <time>2019-05-01T09:53:11.000Z</time>
      </trkpt>
      <trkpt lat="45.24992" lon="6.12749">
        <ele>2419.1999511719</ele>
        <time>2019-05-01T09:53:12.000Z</time>
      </trkpt>
      <trkpt lat="45.25" lon="6.12747">
        <ele>2418.1999511719</ele>
        <time>2019-05-01T09:53:14.000Z</time>
      </trkpt>
      <trkpt lat="45.25003" lon="6.12745">
        <ele>2417.3999023438</ele>
        <time>2019-05-01T09:53:15.000Z</time>
      </trkpt>
      <trkpt lat="45.25005" lon="6.12744">
        <ele>2416.6000976562</ele>
        <time>2019-05-01T09:53:16.000Z</time>
      </trkpt>
      <trkpt lat="45.2501" lon="6.12744">
        <ele>2415</ele>
        <time>2019-05-01T09:53:18.000Z</time>
      </trkpt>
      <trkpt lat="45.25014" lon="6.12741">
        <ele>2413.6000976562</ele>
        <time>2019-05-01T09:53:20.000Z</time>
      </trkpt>
      <trkpt lat="45.2502" lon="6.1274">
        <ele>2412.3999023438</ele>
        <time>2019-05-01T09:53:22.000Z</time>
      </trkpt>
      <trkpt lat="45.25024" lon="6.12743">
        <ele>2411.1999511719</ele>
        <time>2019-05-01T09:53:24.000Z</time>
      </trkpt>
      <trkpt lat="45.25032" lon="6.12746">
        <ele>2409.6000976562</ele>
        <time>2019-05-01T09:53:26.000Z</time>
      </trkpt>
      <trkpt lat="45.25036" lon="6.12745">
        <ele>2409</ele>
        <time>2019-05-01T09:53:27.000Z</time>
      </trkpt>
      <trkpt lat="45.25041" lon="6.12744">
        <ele>2408</ele>
        <time>2019-05-01T09:53:28.000Z</time>
      </trkpt>
      <trkpt lat="45.25044" lon="6.12745">
        <ele>2407</ele>
        <time>2019-05-01T09:53:29.000Z</time>
      </trkpt>
      <trkpt lat="45.25046" lon="6.12748">
        <ele>2405.6000976562</ele>
        <time>2019-05-01T09:53:30.000Z</time>
      </trkpt>
      <trkpt lat="45.25049" lon="6.12754">
        <ele>2402.6000976562</ele>
        <time>2019-05-01T09:53:31.000Z</time>
      </trkpt>
      <trkpt lat="45.25052" lon="6.12758">
        <ele>2401.1999511719</ele>
        <time>2019-05-01T09:53:32.000Z</time>
      </trkpt>
      <trkpt lat="45.25056" lon="6.1276">
        <ele>2399.8000488281</ele>
        <time>2019-05-01T09:53:33.000Z</time>
      </trkpt>
      <trkpt lat="45.25062" lon="6.12759">
        <ele>2398.1999511719</ele>
        <time>2019-05-01T09:53:34.000Z</time>
      </trkpt>
      <trkpt lat="45.25067" lon="6.12757">
        <ele>2396.3999023438</ele>
        <time>2019-05-01T09:53:35.000Z</time>
      </trkpt>
      <trkpt lat="45.25074" lon="6.12757">
        <ele>2394.6000976562</ele>
        <time>2019-05-01T09:53:36.000Z</time>
      </trkpt>
      <trkpt lat="45.25079" lon="6.12759">
        <ele>2393</ele>
        <time>2019-05-01T09:53:37.000Z</time>
      </trkpt>
      <trkpt lat="45.25083" lon="6.12763">
        <ele>2391.3999023438</ele>
        <time>2019-05-01T09:53:38.000Z</time>
      </trkpt>
      <trkpt lat="45.25088" lon="6.12768">
        <ele>2389.8000488281</ele>
        <time>2019-05-01T09:53:39.000Z</time>
      </trkpt>
      <trkpt lat="45.25094" lon="6.12768">
        <ele>2388.3999023438</ele>
        <time>2019-05-01T09:53:40.000Z</time>
      </trkpt>
      <trkpt lat="45.251" lon="6.12769">
        <ele>2386.6000976562</ele>
        <time>2019-05-01T09:53:41.000Z</time>
      </trkpt>
      <trkpt lat="45.25101" lon="6.12768">
        <ele>2384.8000488281</ele>
        <time>2019-05-01T09:53:42.000Z</time>
      </trkpt>
      <trkpt lat="45.25103" lon="6.12767">
        <ele>2383</ele>
        <time>2019-05-01T09:53:43.000Z</time>
      </trkpt>
      <trkpt lat="45.25106" lon="6.12765">
        <ele>2381.1999511719</ele>
        <time>2019-05-01T09:53:44.000Z</time>
      </trkpt>
      <trkpt lat="45.25111" lon="6.1276">
        <ele>2379.8000488281</ele>
        <time>2019-05-01T09:53:45.000Z</time>
      </trkpt>
      <trkpt lat="45.25115" lon="6.12753">
        <ele>2378.6000976562</ele>
        <time>2019-05-01T09:53:46.000Z</time>
      </trkpt>
      <trkpt lat="45.25126" lon="6.12739">
        <ele>2376.6000976562</ele>
        <time>2019-05-01T09:53:48.000Z</time>
      </trkpt>
      <trkpt lat="45.2513" lon="6.12732">
        <ele>2375.1999511719</ele>
        <time>2019-05-01T09:53:49.000Z</time>
      </trkpt>
      <trkpt lat="45.25135" lon="6.12725">
        <ele>2373.6000976562</ele>
        <time>2019-05-01T09:53:50.000Z</time>
      </trkpt>
      <trkpt lat="45.25139" lon="6.12719">
        <ele>2371.8000488281</ele>
        <time>2019-05-01T09:53:51.000Z</time>
      </trkpt>
      <trkpt lat="45.25143" lon="6.12713">
        <ele>2370</ele>
        <time>2019-05-01T09:53:52.000Z</time>
      </trkpt>
      <trkpt lat="45.25146" lon="6.12708">
        <ele>2368.1999511719</ele>
        <time>2019-05-01T09:53:53.000Z</time>
      </trkpt>
      <trkpt lat="45.25148" lon="6.12704">
        <ele>2366.8000488281</ele>
        <time>2019-05-01T09:53:54.000Z</time>
      </trkpt>
      <trkpt lat="45.25149" lon="6.12706">
        <ele>2364.3999023438</ele>
        <time>2019-05-01T09:53:55.000Z</time>
      </trkpt>
      <trkpt lat="45.25156" lon="6.12707">
        <ele>2362.6000976562</ele>
        <time>2019-05-01T09:53:57.000Z</time>
      </trkpt>
      <trkpt lat="45.25162" lon="6.12708">
        <ele>2360.8000488281</ele>
        <time>2019-05-01T09:53:59.000Z</time>
      </trkpt>
      <trkpt lat="45.25164" lon="6.12709">
        <ele>2359.8000488281</ele>
        <time>2019-05-01T09:54:00.000Z</time>
      </trkpt>
      <trkpt lat="45.2517" lon="6.12709">
        <ele>2358.1999511719</ele>
        <time>2019-05-01T09:54:01.000Z</time>
      </trkpt>
      <trkpt lat="45.25175" lon="6.12711">
        <ele>2356.6000976562</ele>
        <time>2019-05-01T09:54:02.000Z</time>
      </trkpt>
      <trkpt lat="45.25179" lon="6.12713">
        <ele>2354.8000488281</ele>
        <time>2019-05-01T09:54:03.000Z</time>
      </trkpt>
      <trkpt lat="45.25185" lon="6.12712">
        <ele>2353</ele>
        <time>2019-05-01T09:54:04.000Z</time>
      </trkpt>
      <trkpt lat="45.25188" lon="6.12711">
        <ele>2351.1999511719</ele>
        <time>2019-05-01T09:54:05.000Z</time>
      </trkpt>
      <trkpt lat="45.25192" lon="6.12711">
        <ele>2349.3999023438</ele>
        <time>2019-05-01T09:54:06.000Z</time>
      </trkpt>
      <trkpt lat="45.25199" lon="6.12711">
        <ele>2347.1999511719</ele>
        <time>2019-05-01T09:54:07.000Z</time>
      </trkpt>
      <trkpt lat="45.25202" lon="6.12714">
        <ele>2345</ele>
        <time>2019-05-01T09:54:08.000Z</time>
      </trkpt>
      <trkpt lat="45.25202" lon="6.12716">
        <ele>2343</ele>
        <time>2019-05-01T09:54:09.000Z</time>
      </trkpt>
      <trkpt lat="45.25202" lon="6.12717">
        <ele>2340.8000488281</ele>
        <time>2019-05-01T09:54:10.000Z</time>
      </trkpt>
      <trkpt lat="45.25201" lon="6.12718">
        <ele>2338.8000488281</ele>
        <time>2019-05-01T09:54:11.000Z</time>
      </trkpt>
      <trkpt lat="45.25201" lon="6.12718">
        <ele>2336.8000488281</ele>
        <time>2019-05-01T09:54:12.000Z</time>
      </trkpt>
      <trkpt lat="45.25201" lon="6.12718">
        <ele>2335.3999023438</ele>
        <time>2019-05-01T09:54:13.000Z</time>
      </trkpt>
      <trkpt lat="45.25201" lon="6.12718">
        <ele>2334.1999511719</ele>
        <time>2019-05-01T09:54:15.000Z</time>
      </trkpt>
      <trkpt lat="45.25202" lon="6.12721">
        <ele>2333.8000488281</ele>
        <time>2019-05-01T09:54:18.000Z</time>
      </trkpt>
      <trkpt lat="45.25205" lon="6.12723">
        <ele>2333.8000488281</ele>
        <time>2019-05-01T09:54:19.000Z</time>
      </trkpt>
      <trkpt lat="45.2521" lon="6.12729">
        <ele>2332.8000488281</ele>
        <time>2019-05-01T09:54:22.000Z</time>
      </trkpt>
      <trkpt lat="45.25213" lon="6.12732">
        <ele>2331.8000488281</ele>
        <time>2019-05-01T09:54:23.000Z</time>
      </trkpt>
      <trkpt lat="45.25217" lon="6.12735">
        <ele>2330.3999023438</ele>
        <time>2019-05-01T09:54:24.000Z</time>
      </trkpt>
      <trkpt lat="45.25219" lon="6.12735">
        <ele>2329.1999511719</ele>
        <time>2019-05-01T09:54:25.000Z</time>
      </trkpt>
      <trkpt lat="45.25222" lon="6.12736">
        <ele>2327.8000488281</ele>
        <time>2019-05-01T09:54:26.000Z</time>
      </trkpt>
      <trkpt lat="45.25225" lon="6.12739">
        <ele>2326.1999511719</ele>
        <time>2019-05-01T09:54:27.000Z</time>
      </trkpt>
      <trkpt lat="45.25228" lon="6.12739">
        <ele>2324.8000488281</ele>
        <time>2019-05-01T09:54:28.000Z</time>
      </trkpt>
      <trkpt lat="45.2523" lon="6.12741">
        <ele>2323.3999023438</ele>
        <time>2019-05-01T09:54:29.000Z</time>
      </trkpt>
      <trkpt lat="45.25234" lon="6.12745">
        <ele>2322.1999511719</ele>
        <time>2019-05-01T09:54:30.000Z</time>
      </trkpt>
      <trkpt lat="45.25238" lon="6.12746">
        <ele>2320.8000488281</ele>
        <time>2019-05-01T09:54:31.000Z</time>
      </trkpt>
      <trkpt lat="45.25241" lon="6.12744">
        <ele>2319.6000976562</ele>
        <time>2019-05-01T09:54:32.000Z</time>
      </trkpt>
      <trkpt lat="45.25244" lon="6.12745">
        <ele>2318.3999023438</ele>
        <time>2019-05-01T09:54:33.000Z</time>
      </trkpt>
      <trkpt lat="45.25248" lon="6.12746">
        <ele>2317</ele>
        <time>2019-05-01T09:54:34.000Z</time>
      </trkpt>
      <trkpt lat="45.25252" lon="6.12746">
        <ele>2315.6000976562</ele>
        <time>2019-05-01T09:54:35.000Z</time>
      </trkpt>
      <trkpt lat="45.25254" lon="6.12746">
        <ele>2314</ele>
        <time>2019-05-01T09:54:36.000Z</time>
      </trkpt>
      <trkpt lat="45.25256" lon="6.12747">
        <ele>2312.6000976562</ele>
        <time>2019-05-01T09:54:37.000Z</time>
      </trkpt>
      <trkpt lat="45.2526" lon="6.12749">
        <ele>2311.3999023438</ele>
        <time>2019-05-01T09:54:38.000Z</time>
      </trkpt>
      <trkpt lat="45.25263" lon="6.1275">
        <ele>2310.1999511719</ele>
        <time>2019-05-01T09:54:39.000Z</time>
      </trkpt>
      <trkpt lat="45.2527" lon="6.12751">
        <ele>2308.3999023438</ele>
        <time>2019-05-01T09:54:41.000Z</time>
      </trkpt>
      <trkpt lat="45.25278" lon="6.12753">
        <ele>2305</ele>
        <time>2019-05-01T09:54:43.000Z</time>
      </trkpt>
      <trkpt lat="45.25282" lon="6.12754">
        <ele>2303.8000488281</ele>
        <time>2019-05-01T09:54:44.000Z</time>
      </trkpt>
      <trkpt lat="45.25285" lon="6.12754">
        <ele>2302.6000976562</ele>
        <time>2019-05-01T09:54:45.000Z</time>
      </trkpt>
      <trkpt lat="45.25289" lon="6.12755">
        <ele>2301.1999511719</ele>
        <time>2019-05-01T09:54:46.000Z</time>
      </trkpt>
      <trkpt lat="45.25295" lon="6.12757">
        <ele>2299.8000488281</ele>
        <time>2019-05-01T09:54:47.000Z</time>
      </trkpt>
      <trkpt lat="45.253" lon="6.12759">
        <ele>2298.6000976562</ele>
        <time>2019-05-01T09:54:48.000Z</time>
      </trkpt>
      <trkpt lat="45.25304" lon="6.12759">
        <ele>2297.1999511719</ele>
        <time>2019-05-01T09:54:49.000Z</time>
      </trkpt>
      <trkpt lat="45.25308" lon="6.12759">
        <ele>2295.6000976562</ele>
        <time>2019-05-01T09:54:50.000Z</time>
      </trkpt>
      <trkpt lat="45.25313" lon="6.12758">
        <ele>2294</ele>
        <time>2019-05-01T09:54:51.000Z</time>
      </trkpt>
      <trkpt lat="45.25318" lon="6.12759">
        <ele>2292.3999023438</ele>
        <time>2019-05-01T09:54:52.000Z</time>
      </trkpt>
      <trkpt lat="45.2532" lon="6.12761">
        <ele>2291</ele>
        <time>2019-05-01T09:54:53.000Z</time>
      </trkpt>
      <trkpt lat="45.25321" lon="6.12764">
        <ele>2289.8000488281</ele>
        <time>2019-05-01T09:54:54.000Z</time>
      </trkpt>
      <trkpt lat="45.25322" lon="6.12765">
        <ele>2288.8000488281</ele>
        <time>2019-05-01T09:54:55.000Z</time>
      </trkpt>
      <trkpt lat="45.25326" lon="6.1277">
        <ele>2287.6000976562</ele>
        <time>2019-05-01T09:54:56.000Z</time>
      </trkpt>
      <trkpt lat="45.25328" lon="6.12777">
        <ele>2286.1999511719</ele>
        <time>2019-05-01T09:54:57.000Z</time>
      </trkpt>
      <trkpt lat="45.25329" lon="6.12785">
        <ele>2284.8000488281</ele>
        <time>2019-05-01T09:54:58.000Z</time>
      </trkpt>
      <trkpt lat="45.25331" lon="6.12793">
        <ele>2283.3999023438</ele>
        <time>2019-05-01T09:54:59.000Z</time>
      </trkpt>
      <trkpt lat="45.25333" lon="6.128">
        <ele>2282.1999511719</ele>
        <time>2019-05-01T09:55:00.000Z</time>
      </trkpt>
      <trkpt lat="45.25334" lon="6.12807">
        <ele>2281.1999511719</ele>
        <time>2019-05-01T09:55:01.000Z</time>
      </trkpt>
      <trkpt lat="45.25333" lon="6.12811">
        <ele>2280.3999023438</ele>
        <time>2019-05-01T09:55:02.000Z</time>
      </trkpt>
      <trkpt lat="45.25334" lon="6.12816">
        <ele>2279.1999511719</ele>
        <time>2019-05-01T09:55:04.000Z</time>
      </trkpt>
      <trkpt lat="45.25335" lon="6.12829">
        <ele>2278</ele>
        <time>2019-05-01T09:55:07.000Z</time>
      </trkpt>
      <trkpt lat="45.25351" lon="6.12842">
        <ele>2276</ele>
        <time>2019-05-01T09:55:10.000Z</time>
      </trkpt>
      <trkpt lat="45.25356" lon="6.12847">
        <ele>2274.6000976562</ele>
        <time>2019-05-01T09:55:11.000Z</time>
      </trkpt>
      <trkpt lat="45.25359" lon="6.12853">
        <ele>2273.1999511719</ele>
        <time>2019-05-01T09:55:12.000Z</time>
      </trkpt>
      <trkpt lat="45.25362" lon="6.12858">
        <ele>2271.6000976562</ele>
        <time>2019-05-01T09:55:13.000Z</time>
      </trkpt>
      <trkpt lat="45.25365" lon="6.12864">
        <ele>2270.3999023438</ele>
        <time>2019-05-01T09:55:14.000Z</time>
      </trkpt>
      <trkpt lat="45.25369" lon="6.12866">
        <ele>2269.1999511719</ele>
        <time>2019-05-01T09:55:15.000Z</time>
      </trkpt>
      <trkpt lat="45.25377" lon="6.12874">
        <ele>2267.3999023438</ele>
        <time>2019-05-01T09:55:17.000Z</time>
      </trkpt>
      <trkpt lat="45.25381" lon="6.12878">
        <ele>2266.1999511719</ele>
        <time>2019-05-01T09:55:18.000Z</time>
      </trkpt>
      <trkpt lat="45.25385" lon="6.12884">
        <ele>2265.1999511719</ele>
        <time>2019-05-01T09:55:19.000Z</time>
      </trkpt>
      <trkpt lat="45.25392" lon="6.12886">
        <ele>2264</ele>
        <time>2019-05-01T09:55:20.000Z</time>
      </trkpt>
      <trkpt lat="45.25396" lon="6.12891">
        <ele>2262.6000976562</ele>
        <time>2019-05-01T09:55:21.000Z</time>
      </trkpt>
      <trkpt lat="45.25401" lon="6.12894">
        <ele>2261.1999511719</ele>
        <time>2019-05-01T09:55:22.000Z</time>
      </trkpt>
      <trkpt lat="45.25407" lon="6.12899">
        <ele>2259.6000976562</ele>
        <time>2019-05-01T09:55:23.000Z</time>
      </trkpt>
      <trkpt lat="45.25411" lon="6.12903">
        <ele>2258.1999511719</ele>
        <time>2019-05-01T09:55:24.000Z</time>
      </trkpt>
      <trkpt lat="45.25414" lon="6.12906">
        <ele>2256.8000488281</ele>
        <time>2019-05-01T09:55:25.000Z</time>
      </trkpt>
      <trkpt lat="45.25419" lon="6.12906">
        <ele>2255.3999023438</ele>
        <time>2019-05-01T09:55:26.000Z</time>
      </trkpt>
      <trkpt lat="45.25425" lon="6.12904">
        <ele>2253.8000488281</ele>
        <time>2019-05-01T09:55:27.000Z</time>
      </trkpt>
      <trkpt lat="45.25431" lon="6.12906">
        <ele>2252.3999023438</ele>
        <time>2019-05-01T09:55:28.000Z</time>
      </trkpt>
      <trkpt lat="45.25439" lon="6.12904">
        <ele>2251</ele>
        <time>2019-05-01T09:55:29.000Z</time>
      </trkpt>
      <trkpt lat="45.25442" lon="6.12904">
        <ele>2249.8000488281</ele>
        <time>2019-05-01T09:55:30.000Z</time>
      </trkpt>
      <trkpt lat="45.25444" lon="6.12906">
        <ele>2247</ele>
        <time>2019-05-01T09:55:31.000Z</time>
      </trkpt>
      <trkpt lat="45.25445" lon="6.12908">
        <ele>2245.3999023438</ele>
        <time>2019-05-01T09:55:32.000Z</time>
      </trkpt>
      <trkpt lat="45.25448" lon="6.12911">
        <ele>2244.1999511719</ele>
        <time>2019-05-01T09:55:33.000Z</time>
      </trkpt>
      <trkpt lat="45.2545" lon="6.12913">
        <ele>2243.1999511719</ele>
        <time>2019-05-01T09:55:34.000Z</time>
      </trkpt>
      <trkpt lat="45.25452" lon="6.12916">
        <ele>2242.3999023438</ele>
        <time>2019-05-01T09:55:35.000Z</time>
      </trkpt>
      <trkpt lat="45.25453" lon="6.12926">
        <ele>2241.1999511719</ele>
        <time>2019-05-01T09:55:37.000Z</time>
      </trkpt>
      <trkpt lat="45.25456" lon="6.12931">
        <ele>2240</ele>
        <time>2019-05-01T09:55:39.000Z</time>
      </trkpt>
      <trkpt lat="45.25465" lon="6.12938">
        <ele>2238.8000488281</ele>
        <time>2019-05-01T09:55:43.000Z</time>
      </trkpt>
      <trkpt lat="45.25471" lon="6.12942">
        <ele>2238</ele>
        <time>2019-05-01T09:55:46.000Z</time>
      </trkpt>
      <trkpt lat="45.25473" lon="6.12943">
        <ele>2237.8000488281</ele>
        <time>2019-05-01T09:55:47.000Z</time>
      </trkpt>
      <trkpt lat="45.25475" lon="6.12946">
        <ele>2236.8000488281</ele>
        <time>2019-05-01T09:55:51.000Z</time>
      </trkpt>
      <trkpt lat="45.25475" lon="6.12946">
        <ele>2236.6000976562</ele>
        <time>2019-05-01T09:55:53.000Z</time>
      </trkpt>
      <trkpt lat="45.25478" lon="6.12948">
        <ele>2236.6000976562</ele>
        <time>2019-05-01T09:55:58.000Z</time>
      </trkpt>
      <trkpt lat="45.2549" lon="6.12958">
        <ele>2235.6000976562</ele>
        <time>2019-05-01T09:56:06.000Z</time>
      </trkpt>
      <trkpt lat="45.25502" lon="6.12967">
        <ele>2234.6000976562</ele>
        <time>2019-05-01T09:56:10.000Z</time>
      </trkpt>
      <trkpt lat="45.2551" lon="6.12974">
        <ele>2233.8000488281</ele>
        <time>2019-05-01T09:56:12.000Z</time>
      </trkpt>
      <trkpt lat="45.25515" lon="6.12978">
        <ele>2233.3999023438</ele>
        <time>2019-05-01T09:56:13.000Z</time>
      </trkpt>
      <trkpt lat="45.25522" lon="6.12987">
        <ele>2232.1999511719</ele>
        <time>2019-05-01T09:56:15.000Z</time>
      </trkpt>
      <trkpt lat="45.25525" lon="6.12989">
        <ele>2231.3999023438</ele>
        <time>2019-05-01T09:56:16.000Z</time>
      </trkpt>
      <trkpt lat="45.25528" lon="6.12992">
        <ele>2230.6000976562</ele>
        <time>2019-05-01T09:56:17.000Z</time>
      </trkpt>
      <trkpt lat="45.25533" lon="6.12993">
        <ele>2228.1999511719</ele>
        <time>2019-05-01T09:56:19.000Z</time>
      </trkpt>
      <trkpt lat="45.25536" lon="6.1299">
        <ele>2227.1999511719</ele>
        <time>2019-05-01T09:56:20.000Z</time>
      </trkpt>
      <trkpt lat="45.25535" lon="6.12984">
        <ele>2226.6000976562</ele>
        <time>2019-05-01T09:56:21.000Z</time>
      </trkpt>
      <trkpt lat="45.2554" lon="6.1298">
        <ele>2224.8000488281</ele>
        <time>2019-05-01T09:56:23.000Z</time>
      </trkpt>
      <trkpt lat="45.25542" lon="6.12979">
        <ele>2223.6000976562</ele>
        <time>2019-05-01T09:56:24.000Z</time>
      </trkpt>
      <trkpt lat="45.25544" lon="6.12978">
        <ele>2222.1999511719</ele>
        <time>2019-05-01T09:56:25.000Z</time>
      </trkpt>
      <trkpt lat="45.25547" lon="6.12979">
        <ele>2220.8000488281</ele>
        <time>2019-05-01T09:56:26.000Z</time>
      </trkpt>
      <trkpt lat="45.2555" lon="6.1298">
        <ele>2219.3999023438</ele>
        <time>2019-05-01T09:56:27.000Z</time>
      </trkpt>
      <trkpt lat="45.25553" lon="6.12981">
        <ele>2218.3999023438</ele>
        <time>2019-05-01T09:56:28.000Z</time>
      </trkpt>
      <trkpt lat="45.25563" lon="6.12988">
        <ele>2216.8000488281</ele>
        <time>2019-05-01T09:56:30.000Z</time>
      </trkpt>
      <trkpt lat="45.25572" lon="6.12993">
        <ele>2216</ele>
        <time>2019-05-01T09:56:32.000Z</time>
      </trkpt>
      <trkpt lat="45.25575" lon="6.12995">
        <ele>2215.6000976562</ele>
        <time>2019-05-01T09:56:33.000Z</time>
      </trkpt>
      <trkpt lat="45.25589" lon="6.13004">
        <ele>2214.6000976562</ele>
        <time>2019-05-01T09:56:37.000Z</time>
      </trkpt>
      <trkpt lat="45.25592" lon="6.13006">
        <ele>2214.1999511719</ele>
        <time>2019-05-01T09:56:38.000Z</time>
      </trkpt>
      <trkpt lat="45.25601" lon="6.13011">
        <ele>2213.3999023438</ele>
        <time>2019-05-01T09:56:41.000Z</time>
      </trkpt>
      <trkpt lat="45.25608" lon="6.13016">
        <ele>2212.6000976562</ele>
        <time>2019-05-01T09:56:44.000Z</time>
      </trkpt>
      <trkpt lat="45.25611" lon="6.13017">
        <ele>2212.3999023438</ele>
        <time>2019-05-01T09:56:45.000Z</time>
      </trkpt>
      <trkpt lat="45.25622" lon="6.13024">
        <ele>2211.3999023438</ele>
        <time>2019-05-01T09:56:52.000Z</time>
      </trkpt>
      <trkpt lat="45.25631" lon="6.13031">
        <ele>2210.3999023438</ele>
        <time>2019-05-01T09:56:59.000Z</time>
      </trkpt>
      <trkpt lat="45.25637" lon="6.13037">
        <ele>2209.3999023438</ele>
        <time>2019-05-01T09:57:07.000Z</time>
      </trkpt>
      <trkpt lat="45.25644" lon="6.13041">
        <ele>2208.6000976562</ele>
        <time>2019-05-01T09:57:13.000Z</time>
      </trkpt>
      <trkpt lat="45.25648" lon="6.13044">
        <ele>2208.1999511719</ele>
        <time>2019-05-01T09:57:15.000Z</time>
      </trkpt>
      <trkpt lat="45.25654" lon="6.13049">
        <ele>2207.1999511719</ele>
        <time>2019-05-01T09:57:18.000Z</time>
      </trkpt>
      <trkpt lat="45.25655" lon="6.1305">
        <ele>2206.8000488281</ele>
        <time>2019-05-01T09:57:19.000Z</time>
      </trkpt>
      <trkpt lat="45.25658" lon="6.13052">
        <ele>2206</ele>
        <time>2019-05-01T09:57:21.000Z</time>
      </trkpt>
      <trkpt lat="45.25655" lon="6.13051">
        <ele>2205</ele>
        <time>2019-05-01T09:57:23.000Z</time>
      </trkpt>
      <trkpt lat="45.25655" lon="6.13051">
        <ele>2204.6000976562</ele>
        <time>2019-05-01T09:57:24.000Z</time>
      </trkpt>
      <trkpt lat="45.25654" lon="6.1305">
        <ele>2204.1999511719</ele>
        <time>2019-05-01T09:57:30.000Z</time>
      </trkpt>
      <trkpt lat="45.25654" lon="6.13051">
        <ele>2204</ele>
        <time>2019-05-01T09:57:37.000Z</time>
      </trkpt>
      <trkpt lat="45.25652" lon="6.13052">
        <ele>2203.6000976562</ele>
        <time>2019-05-01T09:57:41.000Z</time>
      </trkpt>
      <trkpt lat="45.25652" lon="6.13052">
        <ele>2203.1999511719</ele>
        <time>2019-05-01T09:57:49.000Z</time>
      </trkpt>
      <trkpt lat="45.2565" lon="6.13052">
        <ele>2203</ele>
        <time>2019-05-01T09:57:56.000Z</time>
      </trkpt>
      <trkpt lat="45.25648" lon="6.13054">
        <ele>2202.6000976562</ele>
        <time>2019-05-01T09:57:59.000Z</time>
      </trkpt>
      <trkpt lat="45.25648" lon="6.13054">
        <ele>2202.3999023438</ele>
        <time>2019-05-01T09:58:00.000Z</time>
      </trkpt>
      <trkpt lat="45.25647" lon="6.13055">
        <ele>2201.6000976562</ele>
        <time>2019-05-01T09:58:09.000Z</time>
      </trkpt>
      <trkpt lat="45.25649" lon="6.13056">
        <ele>2201.6000976562</ele>
        <time>2019-05-01T09:58:17.000Z</time>
      </trkpt>
      <trkpt lat="45.25649" lon="6.13057">
        <ele>2201.6000976562</ele>
        <time>2019-05-01T09:58:18.000Z</time>
      </trkpt>
      <trkpt lat="45.25649" lon="6.13057">
        <ele>2201.3999023438</ele>
        <time>2019-05-01T09:58:20.000Z</time>
      </trkpt>
      <trkpt lat="45.25653" lon="6.13059">
        <ele>2201</ele>
        <time>2019-05-01T09:58:23.000Z</time>
      </trkpt>
      <trkpt lat="45.25656" lon="6.13061">
        <ele>2200.3999023438</ele>
        <time>2019-05-01T09:58:28.000Z</time>
      </trkpt>
      <trkpt lat="45.25656" lon="6.13061">
        <ele>2200.3999023438</ele>
        <time>2019-05-01T09:58:30.000Z</time>
      </trkpt>
      <trkpt lat="45.2566" lon="6.13065">
        <ele>2200.1999511719</ele>
        <time>2019-05-01T09:58:34.000Z</time>
      </trkpt>
      <trkpt lat="45.25665" lon="6.13068">
        <ele>2199.3999023438</ele>
        <time>2019-05-01T09:58:39.000Z</time>
      </trkpt>
      <trkpt lat="45.25675" lon="6.13072">
        <ele>2198.8000488281</ele>
        <time>2019-05-01T09:58:43.000Z</time>
      </trkpt>
      <trkpt lat="45.25677" lon="6.13073">
        <ele>2198.1999511719</ele>
        <time>2019-05-01T09:58:44.000Z</time>
      </trkpt>
      <trkpt lat="45.25681" lon="6.13072">
        <ele>2197.1999511719</ele>
        <time>2019-05-01T09:58:48.000Z</time>
      </trkpt>
      <trkpt lat="45.25683" lon="6.13071">
        <ele>2197.1999511719</ele>
        <time>2019-05-01T09:58:50.000Z</time>
      </trkpt>
      <trkpt lat="45.25688" lon="6.1307">
        <ele>2196.6000976562</ele>
        <time>2019-05-01T09:58:54.000Z</time>
      </trkpt>
      <trkpt lat="45.25696" lon="6.13076">
        <ele>2196.1999511719</ele>
        <time>2019-05-01T09:59:00.000Z</time>
      </trkpt>
      <trkpt lat="45.25698" lon="6.13076">
        <ele>2196</ele>
        <time>2019-05-01T09:59:01.000Z</time>
      </trkpt>
      <trkpt lat="45.25704" lon="6.13078">
        <ele>2195.1999511719</ele>
        <time>2019-05-01T09:59:06.000Z</time>
      </trkpt>
      <trkpt lat="45.25706" lon="6.13079">
        <ele>2195</ele>
        <time>2019-05-01T09:59:08.000Z</time>
      </trkpt>
      <trkpt lat="45.25706" lon="6.13079">
        <ele>2195</ele>
        <time>2019-05-01T09:59:11.000Z</time>
      </trkpt>
      <trkpt lat="45.25705" lon="6.13079">
        <ele>2195</ele>
        <time>2019-05-01T09:59:17.000Z</time>
      </trkpt>
      <trkpt lat="45.25705" lon="6.1308">
        <ele>2194.6000976562</ele>
        <time>2019-05-01T09:59:24.000Z</time>
      </trkpt>
      <trkpt lat="45.25705" lon="6.1308">
        <ele>2195</ele>
        <time>2019-05-01T09:59:29.000Z</time>
      </trkpt>
      <trkpt lat="45.25705" lon="6.1308">
        <ele>2195</ele>
        <time>2019-05-01T09:59:37.000Z</time>
      </trkpt>
      <trkpt lat="45.25705" lon="6.1308">
        <ele>2195</ele>
        <time>2019-05-01T09:59:50.000Z</time>
      </trkpt>
      <trkpt lat="45.25705" lon="6.1308">
        <ele>2195</ele>
        <time>2019-05-01T10:00:04.000Z</time>
      </trkpt>
      <trkpt lat="45.25704" lon="6.1308">
        <ele>2195</ele>
        <time>2019-05-01T10:00:18.000Z</time>
      </trkpt>
      <trkpt lat="45.25704" lon="6.1308">
        <ele>2195</ele>
        <time>2019-05-01T10:00:30.000Z</time>
      </trkpt>
      <trkpt lat="45.25704" lon="6.1308">
        <ele>2195</ele>
        <time>2019-05-01T10:00:39.000Z</time>
      </trkpt>
      <trkpt lat="45.25704" lon="6.1308">
        <ele>2195</ele>
        <time>2019-05-01T10:00:46.000Z</time>
      </trkpt>
      <trkpt lat="45.25704" lon="6.1308">
        <ele>2194.8000488281</ele>
        <time>2019-05-01T10:00:56.000Z</time>
      </trkpt>
      <trkpt lat="45.25704" lon="6.1308">
        <ele>2194.6000976562</ele>
        <time>2019-05-01T10:01:04.000Z</time>
      </trkpt>
      <trkpt lat="45.25704" lon="6.1308">
        <ele>2194.8000488281</ele>
        <time>2019-05-01T10:01:05.000Z</time>
      </trkpt>
      <trkpt lat="45.25704" lon="6.1308">
        <ele>2195</ele>
        <time>2019-05-01T10:01:16.000Z</time>
      </trkpt>
      <trkpt lat="45.25704" lon="6.1308">
        <ele>2194.8000488281</ele>
        <time>2019-05-01T10:01:29.000Z</time>
      </trkpt>
      <trkpt lat="45.25704" lon="6.1308">
        <ele>2194.6000976562</ele>
        <time>2019-05-01T10:01:40.000Z</time>
      </trkpt>
      <trkpt lat="45.25704" lon="6.1308">
        <ele>2194.6000976562</ele>
        <time>2019-05-01T10:01:52.000Z</time>
      </trkpt>
      <trkpt lat="45.25704" lon="6.1308">
        <ele>2194.1999511719</ele>
        <time>2019-05-01T10:02:09.000Z</time>
      </trkpt>
      <trkpt lat="45.25703" lon="6.13079">
        <ele>2194.1999511719</ele>
        <time>2019-05-01T10:02:25.000Z</time>
      </trkpt>
      <trkpt lat="45.25703" lon="6.13079">
        <ele>2194.6000976562</ele>
        <time>2019-05-01T10:02:39.000Z</time>
      </trkpt>
      <trkpt lat="45.25703" lon="6.13079">
        <ele>2194.6000976562</ele>
        <time>2019-05-01T10:02:53.000Z</time>
      </trkpt>
      <trkpt lat="45.25703" lon="6.13079">
        <ele>2194.6000976562</ele>
        <time>2019-05-01T10:03:10.000Z</time>
      </trkpt>
      <trkpt lat="45.25703" lon="6.13079">
        <ele>2194.6000976562</ele>
        <time>2019-05-01T10:03:25.000Z</time>
      </trkpt>
      <trkpt lat="45.25703" lon="6.13079">
        <ele>2194.6000976562</ele>
        <time>2019-05-01T10:03:42.000Z</time>
      </trkpt>
      <trkpt lat="45.25705" lon="6.13081">
        <ele>2194.3999023438</ele>
        <time>2019-05-01T10:03:48.000Z</time>
      </trkpt>
      <trkpt lat="45.25705" lon="6.13083">
        <ele>2194.3999023438</ele>
        <time>2019-05-01T10:03:53.000Z</time>
      </trkpt>
      <trkpt lat="45.25706" lon="6.13084">
        <ele>2194.1999511719</ele>
        <time>2019-05-01T10:04:00.000Z</time>
      </trkpt>
      <trkpt lat="45.25709" lon="6.13087">
        <ele>2194.3999023438</ele>
        <time>2019-05-01T10:04:07.000Z</time>
      </trkpt>
      <trkpt lat="45.25716" lon="6.13093">
        <ele>2194</ele>
        <time>2019-05-01T10:04:15.000Z</time>
      </trkpt>
      <trkpt lat="45.25717" lon="6.13095">
        <ele>2194</ele>
        <time>2019-05-01T10:04:17.000Z</time>
      </trkpt>
      <trkpt lat="45.2572" lon="6.13099">
        <ele>2193.6000976562</ele>
        <time>2019-05-01T10:04:21.000Z</time>
      </trkpt>
      <trkpt lat="45.25722" lon="6.13101">
        <ele>2193.1999511719</ele>
        <time>2019-05-01T10:04:29.000Z</time>
      </trkpt>
      <trkpt lat="45.25722" lon="6.13101">
        <ele>2193</ele>
        <time>2019-05-01T10:04:33.000Z</time>
      </trkpt>
      <trkpt lat="45.25722" lon="6.13101">
        <ele>2193</ele>
        <time>2019-05-01T10:04:41.000Z</time>
      </trkpt>
      <trkpt lat="45.25721" lon="6.13101">
        <ele>2193</ele>
        <time>2019-05-01T10:04:56.000Z</time>
      </trkpt>
      <trkpt lat="45.25721" lon="6.13101">
        <ele>2193</ele>
        <time>2019-05-01T10:05:10.000Z</time>
      </trkpt>
      <trkpt lat="45.25721" lon="6.13101">
        <ele>2193</ele>
        <time>2019-05-01T10:05:23.000Z</time>
      </trkpt>
      <trkpt lat="45.25721" lon="6.13101">
        <ele>2193</ele>
        <time>2019-05-01T10:05:37.000Z</time>
      </trkpt>
      <trkpt lat="45.25721" lon="6.13101">
        <ele>2192.8000488281</ele>
        <time>2019-05-01T10:05:48.000Z</time>
      </trkpt>
      <trkpt lat="45.25721" lon="6.13101">
        <ele>2192.8000488281</ele>
        <time>2019-05-01T10:06:00.000Z</time>
      </trkpt>
      <trkpt lat="45.25721" lon="6.13101">
        <ele>2192.8000488281</ele>
        <time>2019-05-01T10:06:09.000Z</time>
      </trkpt>
      <trkpt lat="45.25721" lon="6.13101">
        <ele>2192.8000488281</ele>
        <time>2019-05-01T10:06:22.000Z</time>
      </trkpt>
      <trkpt lat="45.25721" lon="6.13101">
        <ele>2192.1999511719</ele>
        <time>2019-05-01T10:06:33.000Z</time>
      </trkpt>
      <trkpt lat="45.25721" lon="6.13101">
        <ele>2192.3999023438</ele>
        <time>2019-05-01T10:06:47.000Z</time>
      </trkpt>
      <trkpt lat="45.25721" lon="6.13101">
        <ele>2192.3999023438</ele>
        <time>2019-05-01T10:07:02.000Z</time>
      </trkpt>
      <trkpt lat="45.25721" lon="6.13101">
        <ele>2192.3999023438</ele>
        <time>2019-05-01T10:07:20.000Z</time>
      </trkpt>
      <trkpt lat="45.25721" lon="6.13101">
        <ele>2192.3999023438</ele>
        <time>2019-05-01T10:07:25.000Z</time>
      </trkpt>
      <trkpt lat="45.25722" lon="6.13102">
        <ele>2192.3999023438</ele>
        <time>2019-05-01T10:07:38.000Z</time>
      </trkpt>
      <trkpt lat="45.25722" lon="6.13102">
        <ele>2192.3999023438</ele>
        <time>2019-05-01T10:07:55.000Z</time>
      </trkpt>
      <trkpt lat="45.25722" lon="6.13102">
        <ele>2192.8000488281</ele>
        <time>2019-05-01T10:08:10.000Z</time>
      </trkpt>
      <trkpt lat="45.25723" lon="6.13103">
        <ele>2192.6000976562</ele>
        <time>2019-05-01T10:08:23.000Z</time>
      </trkpt>
      <trkpt lat="45.25723" lon="6.13103">
        <ele>2192.8000488281</ele>
        <time>2019-05-01T10:08:31.000Z</time>
      </trkpt>
      <trkpt lat="45.25721" lon="6.13102">
        <ele>2192.6000976562</ele>
        <time>2019-05-01T10:08:43.000Z</time>
      </trkpt>
      <trkpt lat="45.25721" lon="6.13102">
        <ele>2192.6000976562</ele>
        <time>2019-05-01T10:08:56.000Z</time>
      </trkpt>
      <trkpt lat="45.25721" lon="6.13102">
        <ele>2192.8000488281</ele>
        <time>2019-05-01T10:09:06.000Z</time>
      </trkpt>
      <trkpt lat="45.25721" lon="6.13102">
        <ele>2192.8000488281</ele>
        <time>2019-05-01T10:09:17.000Z</time>
      </trkpt>
      <trkpt lat="45.25721" lon="6.13101">
        <ele>2192.8000488281</ele>
        <time>2019-05-01T10:09:29.000Z</time>
      </trkpt>
      <trkpt lat="45.25721" lon="6.13101">
        <ele>2192.8000488281</ele>
        <time>2019-05-01T10:09:31.000Z</time>
      </trkpt>
      <trkpt lat="45.2572" lon="6.13101">
        <ele>2192.8000488281</ele>
        <time>2019-05-01T10:09:40.000Z</time>
      </trkpt>
      <trkpt lat="45.2572" lon="6.13101">
        <ele>2192.6000976562</ele>
        <time>2019-05-01T10:09:51.000Z</time>
      </trkpt>
      <trkpt lat="45.2572" lon="6.13101">
        <ele>2192.6000976562</ele>
        <time>2019-05-01T10:10:02.000Z</time>
      </trkpt>
      <trkpt lat="45.2572" lon="6.13101">
        <ele>2192.6000976562</ele>
        <time>2019-05-01T10:10:12.000Z</time>
      </trkpt>
      <trkpt lat="45.2572" lon="6.13101">
        <ele>2192.6000976562</ele>
        <time>2019-05-01T10:10:25.000Z</time>
      </trkpt>
      <trkpt lat="45.2572" lon="6.13101">
        <ele>2192.6000976562</ele>
        <time>2019-05-01T10:10:37.000Z</time>
      </trkpt>
      <trkpt lat="45.25719" lon="6.13099">
        <ele>2192.3999023438</ele>
        <time>2019-05-01T10:10:47.000Z</time>
      </trkpt>
      <trkpt lat="45.25719" lon="6.13099">
        <ele>2192.3999023438</ele>
        <time>2019-05-01T10:11:00.000Z</time>
      </trkpt>
      <trkpt lat="45.25719" lon="6.13099">
        <ele>2192.3999023438</ele>
        <time>2019-05-01T10:11:13.000Z</time>
      </trkpt>
      <trkpt lat="45.25719" lon="6.13099">
        <ele>2192.3999023438</ele>
        <time>2019-05-01T10:11:21.000Z</time>
      </trkpt>
      <trkpt lat="45.25719" lon="6.13099">
        <ele>2192.3999023438</ele>
        <time>2019-05-01T10:11:29.000Z</time>
      </trkpt>
      <trkpt lat="45.25719" lon="6.13099">
        <ele>2192.6000976562</ele>
        <time>2019-05-01T10:11:40.000Z</time>
      </trkpt>
      <trkpt lat="45.25719" lon="6.13099">
        <ele>2192.3999023438</ele>
        <time>2019-05-01T10:11:48.000Z</time>
      </trkpt>
      <trkpt lat="45.2572" lon="6.13099">
        <ele>2192.3999023438</ele>
        <time>2019-05-01T10:12:02.000Z</time>
      </trkpt>
      <trkpt lat="45.2572" lon="6.13098">
        <ele>2192.3999023438</ele>
        <time>2019-05-01T10:12:12.000Z</time>
      </trkpt>
      <trkpt lat="45.2572" lon="6.13098">
        <ele>2192.3999023438</ele>
        <time>2019-05-01T10:12:23.000Z</time>
      </trkpt>
      <trkpt lat="45.2572" lon="6.13103">
        <ele>2192.3999023438</ele>
        <time>2019-05-01T10:12:35.000Z</time>
      </trkpt>
      <trkpt lat="45.25725" lon="6.13106">
        <ele>2192.3999023438</ele>
        <time>2019-05-01T10:12:42.000Z</time>
      </trkpt>
      <trkpt lat="45.25725" lon="6.13106">
        <ele>2192</ele>
        <time>2019-05-01T10:12:54.000Z</time>
      </trkpt>
      <trkpt lat="45.25728" lon="6.13112">
        <ele>2192.1999511719</ele>
        <time>2019-05-01T10:13:00.000Z</time>
      </trkpt>
      <trkpt lat="45.2573" lon="6.13117">
        <ele>2192.3999023438</ele>
        <time>2019-05-01T10:13:05.000Z</time>
      </trkpt>
      <trkpt lat="45.25734" lon="6.13121">
        <ele>2192.6000976562</ele>
        <time>2019-05-01T10:13:10.000Z</time>
      </trkpt>
      <trkpt lat="45.25735" lon="6.13123">
        <ele>2192.6000976562</ele>
        <time>2019-05-01T10:13:12.000Z</time>
      </trkpt>
      <trkpt lat="45.25738" lon="6.13126">
        <ele>2193.1999511719</ele>
        <time>2019-05-01T10:13:17.000Z</time>
      </trkpt>
      <trkpt lat="45.2574" lon="6.13127">
        <ele>2194</ele>
        <time>2019-05-01T10:13:23.000Z</time>
      </trkpt>
      <trkpt lat="45.2574" lon="6.13127">
        <ele>2194</ele>
        <time>2019-05-01T10:13:24.000Z</time>
      </trkpt>
      <trkpt lat="45.25744" lon="6.13131">
        <ele>2195</ele>
        <time>2019-05-01T10:13:30.000Z</time>
      </trkpt>
      <trkpt lat="45.25744" lon="6.13131">
        <ele>2195.1999511719</ele>
        <time>2019-05-01T10:13:31.000Z</time>
      </trkpt>
      <trkpt lat="45.25747" lon="6.13135">
        <ele>2196</ele>
        <time>2019-05-01T10:13:36.000Z</time>
      </trkpt>
      <trkpt lat="45.25747" lon="6.13135">
        <ele>2196.1999511719</ele>
        <time>2019-05-01T10:13:38.000Z</time>
      </trkpt>
      <trkpt lat="45.25748" lon="6.13137">
        <ele>2196.8000488281</ele>
        <time>2019-05-01T10:13:42.000Z</time>
      </trkpt>
      <trkpt lat="45.2575" lon="6.13138">
        <ele>2197.1999511719</ele>
        <time>2019-05-01T10:13:47.000Z</time>
      </trkpt>
      <trkpt lat="45.2575" lon="6.13138">
        <ele>2197.3999023438</ele>
        <time>2019-05-01T10:13:48.000Z</time>
      </trkpt>
      <trkpt lat="45.25752" lon="6.13139">
        <ele>2198</ele>
        <time>2019-05-01T10:13:52.000Z</time>
      </trkpt>
      <trkpt lat="45.25754" lon="6.13141">
        <ele>2198.1999511719</ele>
        <time>2019-05-01T10:13:56.000Z</time>
      </trkpt>
      <trkpt lat="45.25754" lon="6.13142">
        <ele>2198.6000976562</ele>
        <time>2019-05-01T10:13:57.000Z</time>
      </trkpt>
      <trkpt lat="45.25756" lon="6.13143">
        <ele>2199.3999023438</ele>
        <time>2019-05-01T10:14:01.000Z</time>
      </trkpt>
      <trkpt lat="45.25758" lon="6.13144">
        <ele>2199.8000488281</ele>
        <time>2019-05-01T10:14:04.000Z</time>
      </trkpt>
      <trkpt lat="45.25758" lon="6.13144">
        <ele>2200.1999511719</ele>
        <time>2019-05-01T10:14:08.000Z</time>
      </trkpt>
      <trkpt lat="45.25758" lon="6.13145">
        <ele>2200.8000488281</ele>
        <time>2019-05-01T10:14:12.000Z</time>
      </trkpt>
      <trkpt lat="45.25759" lon="6.13146">
        <ele>2201</ele>
        <time>2019-05-01T10:14:14.000Z</time>
      </trkpt>
      <trkpt lat="45.25761" lon="6.13149">
        <ele>2201.6000976562</ele>
        <time>2019-05-01T10:14:18.000Z</time>
      </trkpt>
      <trkpt lat="45.25761" lon="6.1315">
        <ele>2201.8000488281</ele>
        <time>2019-05-01T10:14:20.000Z</time>
      </trkpt>
      <trkpt lat="45.25763" lon="6.13151">
        <ele>2202.6000976562</ele>
        <time>2019-05-01T10:14:22.000Z</time>
      </trkpt>
      <trkpt lat="45.25764" lon="6.13152">
        <ele>2202.8000488281</ele>
        <time>2019-05-01T10:14:24.000Z</time>
      </trkpt>
      <trkpt lat="45.25768" lon="6.13154">
        <ele>2203.3999023438</ele>
        <time>2019-05-01T10:14:29.000Z</time>
      </trkpt>
      <trkpt lat="45.25769" lon="6.13156">
        <ele>2204</ele>
        <time>2019-05-01T10:14:33.000Z</time>
      </trkpt>
      <trkpt lat="45.25771" lon="6.13156">
        <ele>2204.6000976562</ele>
        <time>2019-05-01T10:14:36.000Z</time>
      </trkpt>
      <trkpt lat="45.25774" lon="6.13157">
        <ele>2205.1999511719</ele>
        <time>2019-05-01T10:14:40.000Z</time>
      </trkpt>
      <trkpt lat="45.25775" lon="6.13157">
        <ele>2205.1999511719</ele>
        <time>2019-05-01T10:14:41.000Z</time>
      </trkpt>
      <trkpt lat="45.25777" lon="6.13158">
        <ele>2206</ele>
        <time>2019-05-01T10:14:45.000Z</time>
      </trkpt>
      <trkpt lat="45.25778" lon="6.13159">
        <ele>2206.1999511719</ele>
        <time>2019-05-01T10:14:46.000Z</time>
      </trkpt>
      <trkpt lat="45.25781" lon="6.13161">
        <ele>2206.6000976562</ele>
        <time>2019-05-01T10:14:49.000Z</time>
      </trkpt>
      <trkpt lat="45.25782" lon="6.13162">
        <ele>2207.1999511719</ele>
        <time>2019-05-01T10:14:52.000Z</time>
      </trkpt>
      <trkpt lat="45.25783" lon="6.13163">
        <ele>2207.3999023438</ele>
        <time>2019-05-01T10:14:54.000Z</time>
      </trkpt>
      <trkpt lat="45.25787" lon="6.13164">
        <ele>2208.3999023438</ele>
        <time>2019-05-01T10:14:59.000Z</time>
      </trkpt>
      <trkpt lat="45.25788" lon="6.13165">
        <ele>2208.8000488281</ele>
        <time>2019-05-01T10:15:02.000Z</time>
      </trkpt>
      <trkpt lat="45.2579" lon="6.13167">
        <ele>2209.3999023438</ele>
        <time>2019-05-01T10:15:06.000Z</time>
      </trkpt>
      <trkpt lat="45.25792" lon="6.1317">
        <ele>2210.3999023438</ele>
        <time>2019-05-01T10:15:10.000Z</time>
      </trkpt>
      <trkpt lat="45.25793" lon="6.13172">
        <ele>2210.6000976562</ele>
        <time>2019-05-01T10:15:12.000Z</time>
      </trkpt>
      <trkpt lat="45.25794" lon="6.13175">
        <ele>2211.3999023438</ele>
        <time>2019-05-01T10:15:18.000Z</time>
      </trkpt>
      <trkpt lat="45.25794" lon="6.13175">
        <ele>2211.6000976562</ele>
        <time>2019-05-01T10:15:19.000Z</time>
      </trkpt>
      <trkpt lat="45.25794" lon="6.13175">
        <ele>2211.8000488281</ele>
        <time>2019-05-01T10:15:33.000Z</time>
      </trkpt>
      <trkpt lat="45.25794" lon="6.13175">
        <ele>2211.8000488281</ele>
        <time>2019-05-01T10:15:49.000Z</time>
      </trkpt>
      <trkpt lat="45.25794" lon="6.13176">
        <ele>2211.8000488281</ele>
        <time>2019-05-01T10:16:01.000Z</time>
      </trkpt>
      <trkpt lat="45.25794" lon="6.13176">
        <ele>2211.8000488281</ele>
        <time>2019-05-01T10:16:09.000Z</time>
      </trkpt>
      <trkpt lat="45.25794" lon="6.13176">
        <ele>2211.8000488281</ele>
        <time>2019-05-01T10:16:15.000Z</time>
      </trkpt>
      <trkpt lat="45.25794" lon="6.13176">
        <ele>2211.6000976562</ele>
        <time>2019-05-01T10:16:30.000Z</time>
      </trkpt>
      <trkpt lat="45.25794" lon="6.13176">
        <ele>2211.6000976562</ele>
        <time>2019-05-01T10:16:44.000Z</time>
      </trkpt>
      <trkpt lat="45.25794" lon="6.13176">
        <ele>2211.6000976562</ele>
        <time>2019-05-01T10:16:55.000Z</time>
      </trkpt>
      <trkpt lat="45.25793" lon="6.13181">
        <ele>2211.6000976562</ele>
        <time>2019-05-01T10:17:06.000Z</time>
      </trkpt>
      <trkpt lat="45.25794" lon="6.13183">
        <ele>2211.6000976562</ele>
        <time>2019-05-01T10:17:14.000Z</time>
      </trkpt>
      <trkpt lat="45.25797" lon="6.13188">
        <ele>2212.1999511719</ele>
        <time>2019-05-01T10:17:20.000Z</time>
      </trkpt>
      <trkpt lat="45.25798" lon="6.13189">
        <ele>2212.6000976562</ele>
        <time>2019-05-01T10:17:22.000Z</time>
      </trkpt>
      <trkpt lat="45.25797" lon="6.13191">
        <ele>2213.3999023438</ele>
        <time>2019-05-01T10:17:26.000Z</time>
      </trkpt>
      <trkpt lat="45.25797" lon="6.13192">
        <ele>2213.8000488281</ele>
        <time>2019-05-01T10:17:29.000Z</time>
      </trkpt>
      <trkpt lat="45.25798" lon="6.13195">
        <ele>2214</ele>
        <time>2019-05-01T10:17:31.000Z</time>
      </trkpt>
      <trkpt lat="45.25799" lon="6.13196">
        <ele>2214.3999023438</ele>
        <time>2019-05-01T10:17:33.000Z</time>
      </trkpt>
      <trkpt lat="45.258" lon="6.132">
        <ele>2214.8000488281</ele>
        <time>2019-05-01T10:17:36.000Z</time>
      </trkpt>
      <trkpt lat="45.258" lon="6.13201">
        <ele>2215</ele>
        <time>2019-05-01T10:17:38.000Z</time>
      </trkpt>
      <trkpt lat="45.25803" lon="6.13204">
        <ele>2215.8000488281</ele>
        <time>2019-05-01T10:17:43.000Z</time>
      </trkpt>
      <trkpt lat="45.25803" lon="6.13204">
        <ele>2216.3999023438</ele>
        <time>2019-05-01T10:17:46.000Z</time>
      </trkpt>
      <trkpt lat="45.25805" lon="6.13206">
        <ele>2217</ele>
        <time>2019-05-01T10:17:50.000Z</time>
      </trkpt>
      <trkpt lat="45.25808" lon="6.13209">
        <ele>2217.6000976562</ele>
        <time>2019-05-01T10:17:54.000Z</time>
      </trkpt>
      <trkpt lat="45.2581" lon="6.13211">
        <ele>2218</ele>
        <time>2019-05-01T10:17:56.000Z</time>
      </trkpt>
      <trkpt lat="45.25812" lon="6.13214">
        <ele>2218.8000488281</ele>
        <time>2019-05-01T10:18:01.000Z</time>
      </trkpt>
      <trkpt lat="45.25812" lon="6.13215">
        <ele>2219</ele>
        <time>2019-05-01T10:18:03.000Z</time>
      </trkpt>
      <trkpt lat="45.25814" lon="6.13218">
        <ele>2219.6000976562</ele>
        <time>2019-05-01T10:18:07.000Z</time>
      </trkpt>
      <trkpt lat="45.25814" lon="6.13218">
        <ele>2220</ele>
        <time>2019-05-01T10:18:09.000Z</time>
      </trkpt>
      <trkpt lat="45.25814" lon="6.13218">
        <ele>2220.8000488281</ele>
        <time>2019-05-01T10:18:15.000Z</time>
      </trkpt>
      <trkpt lat="45.25814" lon="6.13218">
        <ele>2221.1999511719</ele>
        <time>2019-05-01T10:18:18.000Z</time>
      </trkpt>
      <trkpt lat="45.25814" lon="6.1322">
        <ele>2221.6000976562</ele>
        <time>2019-05-01T10:18:22.000Z</time>
      </trkpt>
      <trkpt lat="45.25817" lon="6.13225">
        <ele>2222.1999511719</ele>
        <time>2019-05-01T10:18:28.000Z</time>
      </trkpt>
      <trkpt lat="45.25817" lon="6.13226">
        <ele>2222.6000976562</ele>
        <time>2019-05-01T10:18:30.000Z</time>
      </trkpt>
      <trkpt lat="45.25818" lon="6.13227">
        <ele>2223.1999511719</ele>
        <time>2019-05-01T10:18:34.000Z</time>
      </trkpt>
      <trkpt lat="45.25818" lon="6.13228">
        <ele>2223.6000976562</ele>
        <time>2019-05-01T10:18:36.000Z</time>
      </trkpt>
      <trkpt lat="45.25821" lon="6.13233">
        <ele>2224.3999023438</ele>
        <time>2019-05-01T10:18:41.000Z</time>
      </trkpt>
      <trkpt lat="45.25821" lon="6.13235">
        <ele>2224.6000976562</ele>
        <time>2019-05-01T10:18:43.000Z</time>
      </trkpt>
      <trkpt lat="45.25824" lon="6.13239">
        <ele>2225.3999023438</ele>
        <time>2019-05-01T10:18:48.000Z</time>
      </trkpt>
      <trkpt lat="45.25827" lon="6.13244">
        <ele>2226</ele>
        <time>2019-05-01T10:18:55.000Z</time>
      </trkpt>
      <trkpt lat="45.25829" lon="6.13247">
        <ele>2226.3999023438</ele>
        <time>2019-05-01T10:18:58.000Z</time>
      </trkpt>
      <trkpt lat="45.2583" lon="6.13248">
        <ele>2226.8000488281</ele>
        <time>2019-05-01T10:19:01.000Z</time>
      </trkpt>
      <trkpt lat="45.25832" lon="6.1325">
        <ele>2227.6000976562</ele>
        <time>2019-05-01T10:19:06.000Z</time>
      </trkpt>
      <trkpt lat="45.25831" lon="6.13251">
        <ele>2228.1999511719</ele>
        <time>2019-05-01T10:19:09.000Z</time>
      </trkpt>
      <trkpt lat="45.25831" lon="6.13252">
        <ele>2228.6000976562</ele>
        <time>2019-05-01T10:19:12.000Z</time>
      </trkpt>
      <trkpt lat="45.25832" lon="6.13255">
        <ele>2229.3999023438</ele>
        <time>2019-05-01T10:19:18.000Z</time>
      </trkpt>
      <trkpt lat="45.25832" lon="6.13256">
        <ele>2229.8000488281</ele>
        <time>2019-05-01T10:19:20.000Z</time>
      </trkpt>
      <trkpt lat="45.25834" lon="6.13259">
        <ele>2230.1999511719</ele>
        <time>2019-05-01T10:19:24.000Z</time>
      </trkpt>
      <trkpt lat="45.25836" lon="6.13262">
        <ele>2230.8000488281</ele>
        <time>2019-05-01T10:19:28.000Z</time>
      </trkpt>
      <trkpt lat="45.25837" lon="6.13263">
        <ele>2231.6000976562</ele>
        <time>2019-05-01T10:19:32.000Z</time>
      </trkpt>
      <trkpt lat="45.25837" lon="6.13264">
        <ele>2232</ele>
        <time>2019-05-01T10:19:33.000Z</time>
      </trkpt>
      <trkpt lat="45.25837" lon="6.13265">
        <ele>2233</ele>
        <time>2019-05-01T10:19:39.000Z</time>
      </trkpt>
      <trkpt lat="45.2584" lon="6.13269">
        <ele>2234</ele>
        <time>2019-05-01T10:19:46.000Z</time>
      </trkpt>
      <trkpt lat="45.2584" lon="6.13269">
        <ele>2234.1999511719</ele>
        <time>2019-05-01T10:19:47.000Z</time>
      </trkpt>
      <trkpt lat="45.25841" lon="6.13271">
        <ele>2235.1999511719</ele>
        <time>2019-05-01T10:19:52.000Z</time>
      </trkpt>
      <trkpt lat="45.25844" lon="6.13273">
        <ele>2235.8000488281</ele>
        <time>2019-05-01T10:19:56.000Z</time>
      </trkpt>
      <trkpt lat="45.25844" lon="6.13273">
        <ele>2236.1999511719</ele>
        <time>2019-05-01T10:19:57.000Z</time>
      </trkpt>
      <trkpt lat="45.25846" lon="6.13277">
        <ele>2237</ele>
        <time>2019-05-01T10:20:03.000Z</time>
      </trkpt>
      <trkpt lat="45.25846" lon="6.13277">
        <ele>2237.1999511719</ele>
        <time>2019-05-01T10:20:04.000Z</time>
      </trkpt>
      <trkpt lat="45.25848" lon="6.13282">
        <ele>2238.1999511719</ele>
        <time>2019-05-01T10:20:10.000Z</time>
      </trkpt>
      <trkpt lat="45.25848" lon="6.13283">
        <ele>2238.3999023438</ele>
        <time>2019-05-01T10:20:11.000Z</time>
      </trkpt>
      <trkpt lat="45.25851" lon="6.13288">
        <ele>2239.3999023438</ele>
        <time>2019-05-01T10:20:17.000Z</time>
      </trkpt>
      <trkpt lat="45.25851" lon="6.13288">
        <ele>2239.6000976562</ele>
        <time>2019-05-01T10:20:18.000Z</time>
      </trkpt>
      <trkpt lat="45.25854" lon="6.1329">
        <ele>2240.3999023438</ele>
        <time>2019-05-01T10:20:22.000Z</time>
      </trkpt>
      <trkpt lat="45.25854" lon="6.1329">
        <ele>2241</ele>
        <time>2019-05-01T10:20:25.000Z</time>
      </trkpt>
      <trkpt lat="45.25854" lon="6.1329">
        <ele>2241.3999023438</ele>
        <time>2019-05-01T10:20:36.000Z</time>
      </trkpt>
      <trkpt lat="45.25855" lon="6.13291">
        <ele>2241.3999023438</ele>
        <time>2019-05-01T10:20:49.000Z</time>
      </trkpt>
      <trkpt lat="45.25858" lon="6.13293">
        <ele>2241.6000976562</ele>
        <time>2019-05-01T10:20:54.000Z</time>
      </trkpt>
      <trkpt lat="45.25859" lon="6.13295">
        <ele>2242</ele>
        <time>2019-05-01T10:20:57.000Z</time>
      </trkpt>
      <trkpt lat="45.25862" lon="6.13296">
        <ele>2242.6000976562</ele>
        <time>2019-05-01T10:21:03.000Z</time>
      </trkpt>
      <trkpt lat="45.25863" lon="6.13297">
        <ele>2242.8000488281</ele>
        <time>2019-05-01T10:21:04.000Z</time>
      </trkpt>
      <trkpt lat="45.25867" lon="6.133">
        <ele>2243.8000488281</ele>
        <time>2019-05-01T10:21:11.000Z</time>
      </trkpt>
      <trkpt lat="45.2587" lon="6.13302">
        <ele>2244</ele>
        <time>2019-05-01T10:21:14.000Z</time>
      </trkpt>
      <trkpt lat="45.25871" lon="6.13303">
        <ele>2244.8000488281</ele>
        <time>2019-05-01T10:21:22.000Z</time>
      </trkpt>
      <trkpt lat="45.25871" lon="6.13303">
        <ele>2245</ele>
        <time>2019-05-01T10:21:23.000Z</time>
      </trkpt>
      <trkpt lat="45.25871" lon="6.13303">
        <ele>2245</ele>
        <time>2019-05-01T10:21:34.000Z</time>
      </trkpt>
      <trkpt lat="45.25871" lon="6.13303">
        <ele>2245.1999511719</ele>
        <time>2019-05-01T10:21:39.000Z</time>
      </trkpt>
      <trkpt lat="45.25871" lon="6.13303">
        <ele>2245.1999511719</ele>
        <time>2019-05-01T10:21:51.000Z</time>
      </trkpt>
      <trkpt lat="45.25873" lon="6.13302">
        <ele>2245</ele>
        <time>2019-05-01T10:22:07.000Z</time>
      </trkpt>
      <trkpt lat="45.25873" lon="6.13302">
        <ele>2245</ele>
        <time>2019-05-01T10:22:24.000Z</time>
      </trkpt>
      <trkpt lat="45.25873" lon="6.13303">
        <ele>2245</ele>
        <time>2019-05-01T10:22:44.000Z</time>
      </trkpt>
      <trkpt lat="45.25873" lon="6.13303">
        <ele>2245.1999511719</ele>
        <time>2019-05-01T10:22:57.000Z</time>
      </trkpt>
      <trkpt lat="45.25873" lon="6.13302">
        <ele>2245.1999511719</ele>
        <time>2019-05-01T10:22:58.000Z</time>
      </trkpt>
      <trkpt lat="45.25872" lon="6.13301">
        <ele>2245</ele>
        <time>2019-05-01T10:23:11.000Z</time>
      </trkpt>
      <trkpt lat="45.25872" lon="6.13301">
        <ele>2244.6000976562</ele>
        <time>2019-05-01T10:23:25.000Z</time>
      </trkpt>
      <trkpt lat="45.25873" lon="6.13305">
        <ele>2244.8000488281</ele>
        <time>2019-05-01T10:23:31.000Z</time>
      </trkpt>
      <trkpt lat="45.25877" lon="6.13311">
        <ele>2246</ele>
        <time>2019-05-01T10:23:38.000Z</time>
      </trkpt>
      <trkpt lat="45.25878" lon="6.13315">
        <ele>2247</ele>
        <time>2019-05-01T10:23:45.000Z</time>
      </trkpt>
      <trkpt lat="45.25877" lon="6.13317">
        <ele>2248</ele>
        <time>2019-05-01T10:23:50.000Z</time>
      </trkpt>
      <trkpt lat="45.25877" lon="6.13317">
        <ele>2248.3999023438</ele>
        <time>2019-05-01T10:23:52.000Z</time>
      </trkpt>
      <trkpt lat="45.25873" lon="6.1332">
        <ele>2249.1999511719</ele>
        <time>2019-05-01T10:23:57.000Z</time>
      </trkpt>
      <trkpt lat="45.25872" lon="6.13321">
        <ele>2249.6000976562</ele>
        <time>2019-05-01T10:23:59.000Z</time>
      </trkpt>
      <trkpt lat="45.25868" lon="6.13322">
        <ele>2250.3999023438</ele>
        <time>2019-05-01T10:24:04.000Z</time>
      </trkpt>
      <trkpt lat="45.25863" lon="6.13321">
        <ele>2251.3999023438</ele>
        <time>2019-05-01T10:24:10.000Z</time>
      </trkpt>
      <trkpt lat="45.25861" lon="6.13322">
        <ele>2252.3999023438</ele>
        <time>2019-05-01T10:24:16.000Z</time>
      </trkpt>
      <trkpt lat="45.25859" lon="6.13324">
        <ele>2253.6000976562</ele>
        <time>2019-05-01T10:24:21.000Z</time>
      </trkpt>
      <trkpt lat="45.25859" lon="6.13324">
        <ele>2253.8000488281</ele>
        <time>2019-05-01T10:24:22.000Z</time>
      </trkpt>
      <trkpt lat="45.25859" lon="6.13324">
        <ele>2254.1999511719</ele>
        <time>2019-05-01T10:24:39.000Z</time>
      </trkpt>
      <trkpt lat="45.25859" lon="6.13324">
        <ele>2254.1999511719</ele>
        <time>2019-05-01T10:24:55.000Z</time>
      </trkpt>
      <trkpt lat="45.2586" lon="6.13323">
        <ele>2254.1999511719</ele>
        <time>2019-05-01T10:25:08.000Z</time>
      </trkpt>
      <trkpt lat="45.2586" lon="6.13324">
        <ele>2254.1999511719</ele>
        <time>2019-05-01T10:25:24.000Z</time>
      </trkpt>
      <trkpt lat="45.25857" lon="6.13325">
        <ele>2254.1999511719</ele>
        <time>2019-05-01T10:25:28.000Z</time>
      </trkpt>
      <trkpt lat="45.25854" lon="6.13327">
        <ele>2254.6000976562</ele>
        <time>2019-05-01T10:25:31.000Z</time>
      </trkpt>
      <trkpt lat="45.25853" lon="6.13327">
        <ele>2255</ele>
        <time>2019-05-01T10:25:33.000Z</time>
      </trkpt>
      <trkpt lat="45.25853" lon="6.13328">
        <ele>2256</ele>
        <time>2019-05-01T10:25:35.000Z</time>
      </trkpt>
      <trkpt lat="45.25851" lon="6.13328">
        <ele>2256.8000488281</ele>
        <time>2019-05-01T10:25:39.000Z</time>
      </trkpt>
      <trkpt lat="45.25851" lon="6.13328">
        <ele>2257</ele>
        <time>2019-05-01T10:25:40.000Z</time>
      </trkpt>
      <trkpt lat="45.25848" lon="6.1333">
        <ele>2258</ele>
        <time>2019-05-01T10:25:45.000Z</time>
      </trkpt>
      <trkpt lat="45.25846" lon="6.13331">
        <ele>2259</ele>
        <time>2019-05-01T10:25:50.000Z</time>
      </trkpt>
      <trkpt lat="45.25845" lon="6.13331">
        <ele>2259.1999511719</ele>
        <time>2019-05-01T10:25:51.000Z</time>
      </trkpt>
      <trkpt lat="45.25842" lon="6.13334">
        <ele>2260.1999511719</ele>
        <time>2019-05-01T10:25:57.000Z</time>
      </trkpt>
      <trkpt lat="45.25841" lon="6.13335">
        <ele>2260.6000976562</ele>
        <time>2019-05-01T10:25:58.000Z</time>
      </trkpt>
      <trkpt lat="45.25839" lon="6.13337">
        <ele>2261.3999023438</ele>
        <time>2019-05-01T10:26:02.000Z</time>
      </trkpt>
      <trkpt lat="45.25838" lon="6.13337">
        <ele>2261.6000976562</ele>
        <time>2019-05-01T10:26:03.000Z</time>
      </trkpt>
      <trkpt lat="45.25836" lon="6.13339">
        <ele>2262.3999023438</ele>
        <time>2019-05-01T10:26:08.000Z</time>
      </trkpt>
      <trkpt lat="45.25835" lon="6.13339">
        <ele>2262.6000976562</ele>
        <time>2019-05-01T10:26:09.000Z</time>
      </trkpt>
      <trkpt lat="45.25833" lon="6.1334">
        <ele>2263.6000976562</ele>
        <time>2019-05-01T10:26:14.000Z</time>
      </trkpt>
      <trkpt lat="45.25832" lon="6.1334">
        <ele>2264</ele>
        <time>2019-05-01T10:26:16.000Z</time>
      </trkpt>
      <trkpt lat="45.25831" lon="6.1334">
        <ele>2264.6000976562</ele>
        <time>2019-05-01T10:26:19.000Z</time>
      </trkpt>
      <trkpt lat="45.25829" lon="6.13342">
        <ele>2265.6000976562</ele>
        <time>2019-05-01T10:26:23.000Z</time>
      </trkpt>
      <trkpt lat="45.25829" lon="6.13343">
        <ele>2265.8000488281</ele>
        <time>2019-05-01T10:26:24.000Z</time>
      </trkpt>
      <trkpt lat="45.25829" lon="6.13345">
        <ele>2266.8000488281</ele>
        <time>2019-05-01T10:26:30.000Z</time>
      </trkpt>
      <trkpt lat="45.25829" lon="6.13345">
        <ele>2267.1999511719</ele>
        <time>2019-05-01T10:26:32.000Z</time>
      </trkpt>
      <trkpt lat="45.25829" lon="6.13345">
        <ele>2267.8000488281</ele>
        <time>2019-05-01T10:26:37.000Z</time>
      </trkpt>
      <trkpt lat="45.25829" lon="6.13345">
        <ele>2268</ele>
        <time>2019-05-01T10:26:38.000Z</time>
      </trkpt>
      <trkpt lat="45.2583" lon="6.13351">
        <ele>2268.6000976562</ele>
        <time>2019-05-01T10:26:42.000Z</time>
      </trkpt>
      <trkpt lat="45.2583" lon="6.13353">
        <ele>2269</ele>
        <time>2019-05-01T10:26:44.000Z</time>
      </trkpt>
      <trkpt lat="45.25829" lon="6.13358">
        <ele>2269.8000488281</ele>
        <time>2019-05-01T10:26:48.000Z</time>
      </trkpt>
      <trkpt lat="45.25829" lon="6.13359">
        <ele>2270.1999511719</ele>
        <time>2019-05-01T10:26:50.000Z</time>
      </trkpt>
      <trkpt lat="45.2583" lon="6.13361">
        <ele>2270.8000488281</ele>
        <time>2019-05-01T10:26:53.000Z</time>
      </trkpt>
      <trkpt lat="45.2583" lon="6.13362">
        <ele>2271.3999023438</ele>
        <time>2019-05-01T10:26:56.000Z</time>
      </trkpt>
      <trkpt lat="45.25831" lon="6.13364">
        <ele>2272</ele>
        <time>2019-05-01T10:27:00.000Z</time>
      </trkpt>
      <trkpt lat="45.25832" lon="6.13367">
        <ele>2272.3999023438</ele>
        <time>2019-05-01T10:27:03.000Z</time>
      </trkpt>
      <trkpt lat="45.25831" lon="6.13371">
        <ele>2273.1999511719</ele>
        <time>2019-05-01T10:27:07.000Z</time>
      </trkpt>
      <trkpt lat="45.25831" lon="6.13373">
        <ele>2273.3999023438</ele>
        <time>2019-05-01T10:27:09.000Z</time>
      </trkpt>
      <trkpt lat="45.25833" lon="6.13378">
        <ele>2274.1999511719</ele>
        <time>2019-05-01T10:27:13.000Z</time>
      </trkpt>
      <trkpt lat="45.25833" lon="6.1338">
        <ele>2274.6000976562</ele>
        <time>2019-05-01T10:27:15.000Z</time>
      </trkpt>
      <trkpt lat="45.25832" lon="6.13384">
        <ele>2275.1999511719</ele>
        <time>2019-05-01T10:27:18.000Z</time>
      </trkpt>
      <trkpt lat="45.25832" lon="6.13385">
        <ele>2275.6000976562</ele>
        <time>2019-05-01T10:27:21.000Z</time>
      </trkpt>
      <trkpt lat="45.25833" lon="6.13386">
        <ele>2276.1999511719</ele>
        <time>2019-05-01T10:27:25.000Z</time>
      </trkpt>
      <trkpt lat="45.25832" lon="6.13388">
        <ele>2276.8000488281</ele>
        <time>2019-05-01T10:27:28.000Z</time>
      </trkpt>
      <trkpt lat="45.25831" lon="6.13389">
        <ele>2277.6000976562</ele>
        <time>2019-05-01T10:27:32.000Z</time>
      </trkpt>
      <trkpt lat="45.25831" lon="6.13389">
        <ele>2277.8000488281</ele>
        <time>2019-05-01T10:27:33.000Z</time>
      </trkpt>
      <trkpt lat="45.2583" lon="6.1339">
        <ele>2278.3999023438</ele>
        <time>2019-05-01T10:27:37.000Z</time>
      </trkpt>
      <trkpt lat="45.25829" lon="6.13391">
        <ele>2278.8000488281</ele>
        <time>2019-05-01T10:27:40.000Z</time>
      </trkpt>
      <trkpt lat="45.25827" lon="6.13391">
        <ele>2279.1999511719</ele>
        <time>2019-05-01T10:27:43.000Z</time>
      </trkpt>
      <trkpt lat="45.25825" lon="6.13392">
        <ele>2279.8000488281</ele>
        <time>2019-05-01T10:27:47.000Z</time>
      </trkpt>
      <trkpt lat="45.25825" lon="6.13393">
        <ele>2280</ele>
        <time>2019-05-01T10:27:48.000Z</time>
      </trkpt>
      <trkpt lat="45.25823" lon="6.13393">
        <ele>2280.6000976562</ele>
        <time>2019-05-01T10:27:52.000Z</time>
      </trkpt>
      <trkpt lat="45.25821" lon="6.13394">
        <ele>2281</ele>
        <time>2019-05-01T10:27:55.000Z</time>
      </trkpt>
      <trkpt lat="45.2582" lon="6.13395">
        <ele>2281.3999023438</ele>
        <time>2019-05-01T10:27:57.000Z</time>
      </trkpt>
      <trkpt lat="45.25818" lon="6.13396">
        <ele>2282.1999511719</ele>
        <time>2019-05-01T10:28:02.000Z</time>
      </trkpt>
      <trkpt lat="45.25816" lon="6.13397">
        <ele>2283.1999511719</ele>
        <time>2019-05-01T10:28:08.000Z</time>
      </trkpt>
      <trkpt lat="45.25813" lon="6.134">
        <ele>2284.1999511719</ele>
        <time>2019-05-01T10:28:14.000Z</time>
      </trkpt>
      <trkpt lat="45.25811" lon="6.134">
        <ele>2285</ele>
        <time>2019-05-01T10:28:19.000Z</time>
      </trkpt>
      <trkpt lat="45.2581" lon="6.13401">
        <ele>2285.3999023438</ele>
        <time>2019-05-01T10:28:21.000Z</time>
      </trkpt>
      <trkpt lat="45.25809" lon="6.13401">
        <ele>2285.8000488281</ele>
        <time>2019-05-01T10:28:24.000Z</time>
      </trkpt>
      <trkpt lat="45.25808" lon="6.13402">
        <ele>2286.3999023438</ele>
        <time>2019-05-01T10:28:27.000Z</time>
      </trkpt>
      <trkpt lat="45.25805" lon="6.13403">
        <ele>2286.8000488281</ele>
        <time>2019-05-01T10:28:30.000Z</time>
      </trkpt>
      <trkpt lat="45.25803" lon="6.13404">
        <ele>2287.6000976562</ele>
        <time>2019-05-01T10:28:34.000Z</time>
      </trkpt>
      <trkpt lat="45.25803" lon="6.13404">
        <ele>2287.8000488281</ele>
        <time>2019-05-01T10:28:36.000Z</time>
      </trkpt>
      <trkpt lat="45.25801" lon="6.13406">
        <ele>2288.8000488281</ele>
        <time>2019-05-01T10:28:42.000Z</time>
      </trkpt>
      <trkpt lat="45.25796" lon="6.13408">
        <ele>2289.8000488281</ele>
        <time>2019-05-01T10:28:47.000Z</time>
      </trkpt>
      <trkpt lat="45.25793" lon="6.13409">
        <ele>2290</ele>
        <time>2019-05-01T10:28:49.000Z</time>
      </trkpt>
      <trkpt lat="45.2579" lon="6.1341">
        <ele>2290.6000976562</ele>
        <time>2019-05-01T10:28:53.000Z</time>
      </trkpt>
      <trkpt lat="45.2579" lon="6.1341">
        <ele>2290.8000488281</ele>
        <time>2019-05-01T10:28:54.000Z</time>
      </trkpt>
      <trkpt lat="45.25788" lon="6.13411">
        <ele>2291.3999023438</ele>
        <time>2019-05-01T10:28:58.000Z</time>
      </trkpt>
      <trkpt lat="45.25787" lon="6.13412">
        <ele>2292</ele>
        <time>2019-05-01T10:29:01.000Z</time>
      </trkpt>
      <trkpt lat="45.25787" lon="6.13412">
        <ele>2292.3999023438</ele>
        <time>2019-05-01T10:29:03.000Z</time>
      </trkpt>
      <trkpt lat="45.25785" lon="6.13412">
        <ele>2293</ele>
        <time>2019-05-01T10:29:07.000Z</time>
      </trkpt>
      <trkpt lat="45.25785" lon="6.13412">
        <ele>2293.1999511719</ele>
        <time>2019-05-01T10:29:08.000Z</time>
      </trkpt>
      <trkpt lat="45.25782" lon="6.13412">
        <ele>2294</ele>
        <time>2019-05-01T10:29:13.000Z</time>
      </trkpt>
      <trkpt lat="45.25779" lon="6.13413">
        <ele>2295.1999511719</ele>
        <time>2019-05-01T10:29:19.000Z</time>
      </trkpt>
      <trkpt lat="45.25779" lon="6.13416">
        <ele>2296.1999511719</ele>
        <time>2019-05-01T10:29:24.000Z</time>
      </trkpt>
      <trkpt lat="45.25779" lon="6.13417">
        <ele>2296.3999023438</ele>
        <time>2019-05-01T10:29:25.000Z</time>
      </trkpt>
      <trkpt lat="45.2578" lon="6.13423">
        <ele>2297.1999511719</ele>
        <time>2019-05-01T10:29:30.000Z</time>
      </trkpt>
      <trkpt lat="45.2578" lon="6.13423">
        <ele>2297.3999023438</ele>
        <time>2019-05-01T10:29:31.000Z</time>
      </trkpt>
      <trkpt lat="45.25781" lon="6.13431">
        <ele>2298.1999511719</ele>
        <time>2019-05-01T10:29:36.000Z</time>
      </trkpt>
      <trkpt lat="45.25781" lon="6.13434">
        <ele>2298.3999023438</ele>
        <time>2019-05-01T10:29:39.000Z</time>
      </trkpt>
      <trkpt lat="45.25781" lon="6.13436">
        <ele>2298.6000976562</ele>
        <time>2019-05-01T10:29:41.000Z</time>
      </trkpt>
      <trkpt lat="45.25781" lon="6.13442">
        <ele>2299.1999511719</ele>
        <time>2019-05-01T10:29:46.000Z</time>
      </trkpt>
      <trkpt lat="45.25782" lon="6.13443">
        <ele>2299.3999023438</ele>
        <time>2019-05-01T10:29:48.000Z</time>
      </trkpt>
      <trkpt lat="45.25782" lon="6.13446">
        <ele>2299.6000976562</ele>
        <time>2019-05-01T10:29:52.000Z</time>
      </trkpt>
      <trkpt lat="45.25784" lon="6.13453">
        <ele>2300.1999511719</ele>
        <time>2019-05-01T10:29:56.000Z</time>
      </trkpt>
      <trkpt lat="45.25785" lon="6.13455">
        <ele>2300.3999023438</ele>
        <time>2019-05-01T10:29:58.000Z</time>
      </trkpt>
      <trkpt lat="45.25785" lon="6.13457">
        <ele>2300.6000976562</ele>
        <time>2019-05-01T10:30:00.000Z</time>
      </trkpt>
      <trkpt lat="45.25786" lon="6.1346">
        <ele>2301.3999023438</ele>
        <time>2019-05-01T10:30:05.000Z</time>
      </trkpt>
      <trkpt lat="45.25786" lon="6.13462">
        <ele>2302.1999511719</ele>
        <time>2019-05-01T10:30:10.000Z</time>
      </trkpt>
      <trkpt lat="45.25786" lon="6.13462">
        <ele>2302.6000976562</ele>
        <time>2019-05-01T10:30:13.000Z</time>
      </trkpt>
      <trkpt lat="45.25787" lon="6.13463">
        <ele>2303</ele>
        <time>2019-05-01T10:30:16.000Z</time>
      </trkpt>
      <trkpt lat="45.25789" lon="6.13465">
        <ele>2303.6000976562</ele>
        <time>2019-05-01T10:30:19.000Z</time>
      </trkpt>
      <trkpt lat="45.2579" lon="6.13468">
        <ele>2304.3999023438</ele>
        <time>2019-05-01T10:30:22.000Z</time>
      </trkpt>
      <trkpt lat="45.25791" lon="6.13471">
        <ele>2304.8000488281</ele>
        <time>2019-05-01T10:30:25.000Z</time>
      </trkpt>
      <trkpt lat="45.25791" lon="6.13473">
        <ele>2305</ele>
        <time>2019-05-01T10:30:27.000Z</time>
      </trkpt>
      <trkpt lat="45.25795" lon="6.13478">
        <ele>2305.8000488281</ele>
        <time>2019-05-01T10:30:31.000Z</time>
      </trkpt>
      <trkpt lat="45.25795" lon="6.13478">
        <ele>2306</ele>
        <time>2019-05-01T10:30:32.000Z</time>
      </trkpt>
      <trkpt lat="45.25796" lon="6.13481">
        <ele>2306.6000976562</ele>
        <time>2019-05-01T10:30:37.000Z</time>
      </trkpt>
      <trkpt lat="45.25796" lon="6.13483">
        <ele>2307</ele>
        <time>2019-05-01T10:30:39.000Z</time>
      </trkpt>
      <trkpt lat="45.25797" lon="6.13485">
        <ele>2307.3999023438</ele>
        <time>2019-05-01T10:30:42.000Z</time>
      </trkpt>
      <trkpt lat="45.25798" lon="6.13487">
        <ele>2308</ele>
        <time>2019-05-01T10:30:45.000Z</time>
      </trkpt>
      <trkpt lat="45.25799" lon="6.13489">
        <ele>2308.1999511719</ele>
        <time>2019-05-01T10:30:46.000Z</time>
      </trkpt>
      <trkpt lat="45.258" lon="6.1349">
        <ele>2309</ele>
        <time>2019-05-01T10:30:51.000Z</time>
      </trkpt>
      <trkpt lat="45.25803" lon="6.13493">
        <ele>2310</ele>
        <time>2019-05-01T10:30:57.000Z</time>
      </trkpt>
      <trkpt lat="45.25804" lon="6.13493">
        <ele>2310.1999511719</ele>
        <time>2019-05-01T10:30:58.000Z</time>
      </trkpt>
      <trkpt lat="45.25806" lon="6.13496">
        <ele>2310.8000488281</ele>
        <time>2019-05-01T10:31:03.000Z</time>
      </trkpt>
      <trkpt lat="45.25807" lon="6.13498">
        <ele>2311.1999511719</ele>
        <time>2019-05-01T10:31:05.000Z</time>
      </trkpt>
      <trkpt lat="45.25809" lon="6.13501">
        <ele>2312.3999023438</ele>
        <time>2019-05-01T10:31:10.000Z</time>
      </trkpt>
      <trkpt lat="45.2581" lon="6.13503">
        <ele>2313.3999023438</ele>
        <time>2019-05-01T10:31:16.000Z</time>
      </trkpt>
      <trkpt lat="45.2581" lon="6.13507">
        <ele>2314.1999511719</ele>
        <time>2019-05-01T10:31:22.000Z</time>
      </trkpt>
      <trkpt lat="45.2581" lon="6.13507">
        <ele>2314.3999023438</ele>
        <time>2019-05-01T10:31:24.000Z</time>
      </trkpt>
      <trkpt lat="45.2581" lon="6.13507">
        <ele>2314.6000976562</ele>
        <time>2019-05-01T10:31:28.000Z</time>
      </trkpt>
      <trkpt lat="45.25804" lon="6.13503">
        <ele>2315.3999023438</ele>
        <time>2019-05-01T10:31:36.000Z</time>
      </trkpt>
      <trkpt lat="45.25803" lon="6.13503">
        <ele>2315.6000976562</ele>
        <time>2019-05-01T10:31:37.000Z</time>
      </trkpt>
      <trkpt lat="45.258" lon="6.13503">
        <ele>2316.6000976562</ele>
        <time>2019-05-01T10:31:42.000Z</time>
      </trkpt>
      <trkpt lat="45.25798" lon="6.13503">
        <ele>2316.8000488281</ele>
        <time>2019-05-01T10:31:43.000Z</time>
      </trkpt>
      <trkpt lat="45.25793" lon="6.13503">
        <ele>2317.6000976562</ele>
        <time>2019-05-01T10:31:48.000Z</time>
      </trkpt>
      <trkpt lat="45.25792" lon="6.13503">
        <ele>2317.8000488281</ele>
        <time>2019-05-01T10:31:49.000Z</time>
      </trkpt>
      <trkpt lat="45.2579" lon="6.13505">
        <ele>2318.8000488281</ele>
        <time>2019-05-01T10:31:54.000Z</time>
      </trkpt>
      <trkpt lat="45.25789" lon="6.13505">
        <ele>2319.1999511719</ele>
        <time>2019-05-01T10:31:56.000Z</time>
      </trkpt>
      <trkpt lat="45.25788" lon="6.13506">
        <ele>2319.8000488281</ele>
        <time>2019-05-01T10:31:59.000Z</time>
      </trkpt>
      <trkpt lat="45.25787" lon="6.13507">
        <ele>2320.6000976562</ele>
        <time>2019-05-01T10:32:04.000Z</time>
      </trkpt>
      <trkpt lat="45.25787" lon="6.13507">
        <ele>2321</ele>
        <time>2019-05-01T10:32:06.000Z</time>
      </trkpt>
      <trkpt lat="45.25787" lon="6.13508">
        <ele>2322</ele>
        <time>2019-05-01T10:32:11.000Z</time>
      </trkpt>
      <trkpt lat="45.25787" lon="6.13508">
        <ele>2322</ele>
        <time>2019-05-01T10:32:12.000Z</time>
      </trkpt>
      <trkpt lat="45.25785" lon="6.13511">
        <ele>2323.1999511719</ele>
        <time>2019-05-01T10:32:17.000Z</time>
      </trkpt>
      <trkpt lat="45.25784" lon="6.13512">
        <ele>2324</ele>
        <time>2019-05-01T10:32:22.000Z</time>
      </trkpt>
      <trkpt lat="45.25783" lon="6.13513">
        <ele>2324.1999511719</ele>
        <time>2019-05-01T10:32:24.000Z</time>
      </trkpt>
      <trkpt lat="45.25782" lon="6.13513">
        <ele>2325</ele>
        <time>2019-05-01T10:32:29.000Z</time>
      </trkpt>
      <trkpt lat="45.25781" lon="6.13514">
        <ele>2325.3999023438</ele>
        <time>2019-05-01T10:32:37.000Z</time>
      </trkpt>
      <trkpt lat="45.2578" lon="6.13519">
        <ele>2326.1999511719</ele>
        <time>2019-05-01T10:32:43.000Z</time>
      </trkpt>
      <trkpt lat="45.2578" lon="6.1352">
        <ele>2326.3999023438</ele>
        <time>2019-05-01T10:32:44.000Z</time>
      </trkpt>
      <trkpt lat="45.25779" lon="6.13522">
        <ele>2327.3999023438</ele>
        <time>2019-05-01T10:32:48.000Z</time>
      </trkpt>
      <trkpt lat="45.25779" lon="6.13523">
        <ele>2327.6000976562</ele>
        <time>2019-05-01T10:32:49.000Z</time>
      </trkpt>
      <trkpt lat="45.2578" lon="6.13527">
        <ele>2328.1999511719</ele>
        <time>2019-05-01T10:32:53.000Z</time>
      </trkpt>
      <trkpt lat="45.2578" lon="6.13527">
        <ele>2328.6000976562</ele>
        <time>2019-05-01T10:32:56.000Z</time>
      </trkpt>
      <trkpt lat="45.25781" lon="6.13529">
        <ele>2329.1999511719</ele>
        <time>2019-05-01T10:32:59.000Z</time>
      </trkpt>
      <trkpt lat="45.25783" lon="6.13532">
        <ele>2329.8000488281</ele>
        <time>2019-05-01T10:33:03.000Z</time>
      </trkpt>
      <trkpt lat="45.25784" lon="6.13533">
        <ele>2330</ele>
        <time>2019-05-01T10:33:04.000Z</time>
      </trkpt>
      <trkpt lat="45.25786" lon="6.13537">
        <ele>2330.8000488281</ele>
        <time>2019-05-01T10:33:09.000Z</time>
      </trkpt>
      <trkpt lat="45.25786" lon="6.13537">
        <ele>2331.1999511719</ele>
        <time>2019-05-01T10:33:10.000Z</time>
      </trkpt>
      <trkpt lat="45.25787" lon="6.13536">
        <ele>2332</ele>
        <time>2019-05-01T10:33:14.000Z</time>
      </trkpt>
      <trkpt lat="45.25792" lon="6.13541">
        <ele>2332.3999023438</ele>
        <time>2019-05-01T10:33:17.000Z</time>
      </trkpt>
      <trkpt lat="45.25796" lon="6.13546">
        <ele>2333.1999511719</ele>
        <time>2019-05-01T10:33:21.000Z</time>
      </trkpt>
      <trkpt lat="45.25799" lon="6.13548">
        <ele>2333.8000488281</ele>
        <time>2019-05-01T10:33:25.000Z</time>
      </trkpt>
      <trkpt lat="45.25798" lon="6.13547">
        <ele>2334.1999511719</ele>
        <time>2019-05-01T10:33:31.000Z</time>
      </trkpt>
      <trkpt lat="45.25797" lon="6.13546">
        <ele>2334.1999511719</ele>
        <time>2019-05-01T10:33:33.000Z</time>
      </trkpt>
      <trkpt lat="45.25791" lon="6.13542">
        <ele>2335</ele>
        <time>2019-05-01T10:33:39.000Z</time>
      </trkpt>
      <trkpt lat="45.2579" lon="6.13542">
        <ele>2335.1999511719</ele>
        <time>2019-05-01T10:33:41.000Z</time>
      </trkpt>
      <trkpt lat="45.25788" lon="6.13542">
        <ele>2335.8000488281</ele>
        <time>2019-05-01T10:33:46.000Z</time>
      </trkpt>
      <trkpt lat="45.25785" lon="6.13543">
        <ele>2336.3999023438</ele>
        <time>2019-05-01T10:33:49.000Z</time>
      </trkpt>
      <trkpt lat="45.25785" lon="6.13543">
        <ele>2336.8000488281</ele>
        <time>2019-05-01T10:33:52.000Z</time>
      </trkpt>
      <trkpt lat="45.25783" lon="6.13544">
        <ele>2337.3999023438</ele>
        <time>2019-05-01T10:33:56.000Z</time>
      </trkpt>
      <trkpt lat="45.25781" lon="6.13545">
        <ele>2338</ele>
        <time>2019-05-01T10:33:58.000Z</time>
      </trkpt>
      <trkpt lat="45.25778" lon="6.13547">
        <ele>2338.6000976562</ele>
        <time>2019-05-01T10:34:03.000Z</time>
      </trkpt>
      <trkpt lat="45.25779" lon="6.13549">
        <ele>2339</ele>
        <time>2019-05-01T10:34:05.000Z</time>
      </trkpt>
      <trkpt lat="45.25776" lon="6.1355">
        <ele>2339.6000976562</ele>
        <time>2019-05-01T10:34:09.000Z</time>
      </trkpt>
      <trkpt lat="45.25776" lon="6.1355">
        <ele>2340.1999511719</ele>
        <time>2019-05-01T10:34:11.000Z</time>
      </trkpt>
      <trkpt lat="45.25774" lon="6.13551">
        <ele>2340.8000488281</ele>
        <time>2019-05-01T10:34:15.000Z</time>
      </trkpt>
      <trkpt lat="45.25775" lon="6.13551">
        <ele>2341</ele>
        <time>2019-05-01T10:34:19.000Z</time>
      </trkpt>
      <trkpt lat="45.25776" lon="6.13555">
        <ele>2341.1999511719</ele>
        <time>2019-05-01T10:34:25.000Z</time>
      </trkpt>
      <trkpt lat="45.25778" lon="6.13558">
        <ele>2341.8000488281</ele>
        <time>2019-05-01T10:34:28.000Z</time>
      </trkpt>
      <trkpt lat="45.25781" lon="6.1356">
        <ele>2342.6000976562</ele>
        <time>2019-05-01T10:34:32.000Z</time>
      </trkpt>
      <trkpt lat="45.25783" lon="6.13562">
        <ele>2342.8000488281</ele>
        <time>2019-05-01T10:34:34.000Z</time>
      </trkpt>
      <trkpt lat="45.25787" lon="6.13566">
        <ele>2344</ele>
        <time>2019-05-01T10:34:40.000Z</time>
      </trkpt>
      <trkpt lat="45.25787" lon="6.13567">
        <ele>2344</ele>
        <time>2019-05-01T10:34:41.000Z</time>
      </trkpt>
      <trkpt lat="45.25793" lon="6.13569">
        <ele>2345</ele>
        <time>2019-05-01T10:34:48.000Z</time>
      </trkpt>
      <trkpt lat="45.25794" lon="6.1357">
        <ele>2345</ele>
        <time>2019-05-01T10:34:49.000Z</time>
      </trkpt>
      <trkpt lat="45.25798" lon="6.13572">
        <ele>2346</ele>
        <time>2019-05-01T10:34:53.000Z</time>
      </trkpt>
      <trkpt lat="45.25801" lon="6.13576">
        <ele>2346.8000488281</ele>
        <time>2019-05-01T10:34:58.000Z</time>
      </trkpt>
      <trkpt lat="45.25802" lon="6.13577">
        <ele>2347.1999511719</ele>
        <time>2019-05-01T10:35:00.000Z</time>
      </trkpt>
      <trkpt lat="45.25808" lon="6.13582">
        <ele>2348.1999511719</ele>
        <time>2019-05-01T10:35:06.000Z</time>
      </trkpt>
      <trkpt lat="45.25812" lon="6.13586">
        <ele>2349.3999023438</ele>
        <time>2019-05-01T10:35:13.000Z</time>
      </trkpt>
      <trkpt lat="45.25813" lon="6.13587">
        <ele>2350.3999023438</ele>
        <time>2019-05-01T10:35:20.000Z</time>
      </trkpt>
      <trkpt lat="45.25813" lon="6.13587">
        <ele>2350.3999023438</ele>
        <time>2019-05-01T10:35:22.000Z</time>
      </trkpt>
      <trkpt lat="45.25815" lon="6.13589">
        <ele>2350.6000976562</ele>
        <time>2019-05-01T10:35:28.000Z</time>
      </trkpt>
      <trkpt lat="45.25822" lon="6.13594">
        <ele>2351.8000488281</ele>
        <time>2019-05-01T10:35:35.000Z</time>
      </trkpt>
      <trkpt lat="45.25822" lon="6.13594">
        <ele>2352</ele>
        <time>2019-05-01T10:35:36.000Z</time>
      </trkpt>
      <trkpt lat="45.25823" lon="6.13596">
        <ele>2352.3999023438</ele>
        <time>2019-05-01T10:35:41.000Z</time>
      </trkpt>
      <trkpt lat="45.25823" lon="6.13596">
        <ele>2352.3999023438</ele>
        <time>2019-05-01T10:36:00.000Z</time>
      </trkpt>
      <trkpt lat="45.25823" lon="6.13596">
        <ele>2352.6000976562</ele>
        <time>2019-05-01T10:36:17.000Z</time>
      </trkpt>
      <trkpt lat="45.25823" lon="6.13596">
        <ele>2352.8000488281</ele>
        <time>2019-05-01T10:36:23.000Z</time>
      </trkpt>
      <trkpt lat="45.25823" lon="6.13596">
        <ele>2353</ele>
        <time>2019-05-01T10:36:28.000Z</time>
      </trkpt>
      <trkpt lat="45.25823" lon="6.13596">
        <ele>2353</ele>
        <time>2019-05-01T10:36:47.000Z</time>
      </trkpt>
      <trkpt lat="45.25824" lon="6.13598">
        <ele>2353</ele>
        <time>2019-05-01T10:37:00.000Z</time>
      </trkpt>
      <trkpt lat="45.2582" lon="6.13592">
        <ele>2353</ele>
        <time>2019-05-01T10:37:08.000Z</time>
      </trkpt>
      <trkpt lat="45.2582" lon="6.13592">
        <ele>2353</ele>
        <time>2019-05-01T10:37:10.000Z</time>
      </trkpt>
      <trkpt lat="45.2582" lon="6.13592">
        <ele>2352.8000488281</ele>
        <time>2019-05-01T10:37:25.000Z</time>
      </trkpt>
      <trkpt lat="45.2582" lon="6.13592">
        <ele>2352.8000488281</ele>
        <time>2019-05-01T10:37:39.000Z</time>
      </trkpt>
      <trkpt lat="45.2582" lon="6.13592">
        <ele>2352.8000488281</ele>
        <time>2019-05-01T10:37:55.000Z</time>
      </trkpt>
      <trkpt lat="45.2582" lon="6.13592">
        <ele>2352.6000976562</ele>
        <time>2019-05-01T10:37:58.000Z</time>
      </trkpt>
      <trkpt lat="45.2582" lon="6.13592">
        <ele>2352.1999511719</ele>
        <time>2019-05-01T10:38:04.000Z</time>
      </trkpt>
      <trkpt lat="45.25817" lon="6.13589">
        <ele>2352.3999023438</ele>
        <time>2019-05-01T10:38:10.000Z</time>
      </trkpt>
      <trkpt lat="45.2581" lon="6.13586">
        <ele>2352.8000488281</ele>
        <time>2019-05-01T10:38:16.000Z</time>
      </trkpt>
      <trkpt lat="45.25804" lon="6.13585">
        <ele>2353.3999023438</ele>
        <time>2019-05-01T10:38:21.000Z</time>
      </trkpt>
      <trkpt lat="45.25802" lon="6.13584">
        <ele>2353.6000976562</ele>
        <time>2019-05-01T10:38:38.000Z</time>
      </trkpt>
      <trkpt lat="45.25795" lon="6.13583">
        <ele>2354</ele>
        <time>2019-05-01T10:38:44.000Z</time>
      </trkpt>
      <trkpt lat="45.25794" lon="6.13584">
        <ele>2354</ele>
        <time>2019-05-01T10:38:45.000Z</time>
      </trkpt>
      <trkpt lat="45.25791" lon="6.13584">
        <ele>2354.8000488281</ele>
        <time>2019-05-01T10:38:49.000Z</time>
      </trkpt>
      <trkpt lat="45.2579" lon="6.13585">
        <ele>2355</ele>
        <time>2019-05-01T10:38:51.000Z</time>
      </trkpt>
      <trkpt lat="45.25787" lon="6.13586">
        <ele>2355.3999023438</ele>
        <time>2019-05-01T10:38:54.000Z</time>
      </trkpt>
      <trkpt lat="45.25785" lon="6.13585">
        <ele>2355.6000976562</ele>
        <time>2019-05-01T10:38:56.000Z</time>
      </trkpt>
      <trkpt lat="45.25782" lon="6.13586">
        <ele>2355.8000488281</ele>
        <time>2019-05-01T10:38:58.000Z</time>
      </trkpt>
      <trkpt lat="45.25778" lon="6.13587">
        <ele>2356.1999511719</ele>
        <time>2019-05-01T10:39:02.000Z</time>
      </trkpt>
      <trkpt lat="45.25777" lon="6.13587">
        <ele>2356.1999511719</ele>
        <time>2019-05-01T10:39:03.000Z</time>
      </trkpt>
      <trkpt lat="45.25773" lon="6.13588">
        <ele>2357</ele>
        <time>2019-05-01T10:39:09.000Z</time>
      </trkpt>
      <trkpt lat="45.25771" lon="6.13588">
        <ele>2357.1999511719</ele>
        <time>2019-05-01T10:39:10.000Z</time>
      </trkpt>
      <trkpt lat="45.25767" lon="6.13587">
        <ele>2358</ele>
        <time>2019-05-01T10:39:15.000Z</time>
      </trkpt>
      <trkpt lat="45.25766" lon="6.13588">
        <ele>2358.1999511719</ele>
        <time>2019-05-01T10:39:17.000Z</time>
      </trkpt>
      <trkpt lat="45.25763" lon="6.13588">
        <ele>2358.8000488281</ele>
        <time>2019-05-01T10:39:21.000Z</time>
      </trkpt>
      <trkpt lat="45.25759" lon="6.13589">
        <ele>2359.3999023438</ele>
        <time>2019-05-01T10:39:26.000Z</time>
      </trkpt>
      <trkpt lat="45.25759" lon="6.13589">
        <ele>2359.6000976562</ele>
        <time>2019-05-01T10:39:27.000Z</time>
      </trkpt>
      <trkpt lat="45.25757" lon="6.1359">
        <ele>2360.3999023438</ele>
        <time>2019-05-01T10:39:34.000Z</time>
      </trkpt>
      <trkpt lat="45.25758" lon="6.13591">
        <ele>2360.8000488281</ele>
        <time>2019-05-01T10:39:42.000Z</time>
      </trkpt>
      <trkpt lat="45.25763" lon="6.13593">
        <ele>2361</ele>
        <time>2019-05-01T10:39:50.000Z</time>
      </trkpt>
      <trkpt lat="45.25766" lon="6.13595">
        <ele>2361.3999023438</ele>
        <time>2019-05-01T10:39:53.000Z</time>
      </trkpt>
      <trkpt lat="45.2577" lon="6.13598">
        <ele>2362.1999511719</ele>
        <time>2019-05-01T10:39:58.000Z</time>
      </trkpt>
      <trkpt lat="45.25772" lon="6.13599">
        <ele>2362.6000976562</ele>
        <time>2019-05-01T10:40:00.000Z</time>
      </trkpt>
      <trkpt lat="45.25778" lon="6.13602">
        <ele>2363.6000976562</ele>
        <time>2019-05-01T10:40:06.000Z</time>
      </trkpt>
      <trkpt lat="45.25779" lon="6.13603">
        <ele>2363.8000488281</ele>
        <time>2019-05-01T10:40:07.000Z</time>
      </trkpt>
      <trkpt lat="45.25784" lon="6.13605">
        <ele>2364.8000488281</ele>
        <time>2019-05-01T10:40:14.000Z</time>
      </trkpt>
      <trkpt lat="45.25782" lon="6.13606">
        <ele>2365.3999023438</ele>
        <time>2019-05-01T10:40:21.000Z</time>
      </trkpt>
      <trkpt lat="45.25779" lon="6.13607">
        <ele>2366</ele>
        <time>2019-05-01T10:40:25.000Z</time>
      </trkpt>
      <trkpt lat="45.25775" lon="6.13608">
        <ele>2366.3999023438</ele>
        <time>2019-05-01T10:40:29.000Z</time>
      </trkpt>
      <trkpt lat="45.25771" lon="6.13607">
        <ele>2367</ele>
        <time>2019-05-01T10:40:34.000Z</time>
      </trkpt>
      <trkpt lat="45.2577" lon="6.13607">
        <ele>2367</ele>
        <time>2019-05-01T10:40:35.000Z</time>
      </trkpt>
      <trkpt lat="45.25765" lon="6.13607">
        <ele>2367.8000488281</ele>
        <time>2019-05-01T10:40:41.000Z</time>
      </trkpt>
      <trkpt lat="45.25762" lon="6.13607">
        <ele>2368</ele>
        <time>2019-05-01T10:40:44.000Z</time>
      </trkpt>
      <trkpt lat="45.25761" lon="6.13608">
        <ele>2368.3999023438</ele>
        <time>2019-05-01T10:40:46.000Z</time>
      </trkpt>
      <trkpt lat="45.2576" lon="6.13608">
        <ele>2369</ele>
        <time>2019-05-01T10:40:52.000Z</time>
      </trkpt>
      <trkpt lat="45.2576" lon="6.13608">
        <ele>2369.1999511719</ele>
        <time>2019-05-01T10:40:55.000Z</time>
      </trkpt>
      <trkpt lat="45.25764" lon="6.13612">
        <ele>2369.3999023438</ele>
        <time>2019-05-01T10:40:58.000Z</time>
      </trkpt>
      <trkpt lat="45.25769" lon="6.13614">
        <ele>2370.1999511719</ele>
        <time>2019-05-01T10:41:04.000Z</time>
      </trkpt>
      <trkpt lat="45.2577" lon="6.13615">
        <ele>2370.6000976562</ele>
        <time>2019-05-01T10:41:05.000Z</time>
      </trkpt>
      <trkpt lat="45.25773" lon="6.13617">
        <ele>2371.1999511719</ele>
        <time>2019-05-01T10:41:09.000Z</time>
      </trkpt>
      <trkpt lat="45.25775" lon="6.13619">
        <ele>2371.3999023438</ele>
        <time>2019-05-01T10:41:11.000Z</time>
      </trkpt>
      <trkpt lat="45.25778" lon="6.13623">
        <ele>2372.3999023438</ele>
        <time>2019-05-01T10:41:17.000Z</time>
      </trkpt>
      <trkpt lat="45.25778" lon="6.13623">
        <ele>2372.6000976562</ele>
        <time>2019-05-01T10:41:19.000Z</time>
      </trkpt>
      <trkpt lat="45.25777" lon="6.13623">
        <ele>2373</ele>
        <time>2019-05-01T10:41:27.000Z</time>
      </trkpt>
      <trkpt lat="45.25774" lon="6.13622">
        <ele>2373.3999023438</ele>
        <time>2019-05-01T10:41:30.000Z</time>
      </trkpt>
      <trkpt lat="45.25772" lon="6.13623">
        <ele>2373.8000488281</ele>
        <time>2019-05-01T10:41:33.000Z</time>
      </trkpt>
      <trkpt lat="45.2577" lon="6.13623">
        <ele>2374.3999023438</ele>
        <time>2019-05-01T10:41:36.000Z</time>
      </trkpt>
      <trkpt lat="45.25767" lon="6.13624">
        <ele>2374.6000976562</ele>
        <time>2019-05-01T10:41:39.000Z</time>
      </trkpt>
      <trkpt lat="45.25764" lon="6.13626">
        <ele>2375.3999023438</ele>
        <time>2019-05-01T10:41:44.000Z</time>
      </trkpt>
      <trkpt lat="45.25764" lon="6.13627">
        <ele>2375.8000488281</ele>
        <time>2019-05-01T10:41:46.000Z</time>
      </trkpt>
      <trkpt lat="45.2576" lon="6.13627">
        <ele>2376.1999511719</ele>
        <time>2019-05-01T10:41:53.000Z</time>
      </trkpt>
      <trkpt lat="45.2576" lon="6.13627">
        <ele>2376.6000976562</ele>
        <time>2019-05-01T10:41:56.000Z</time>
      </trkpt>
      <trkpt lat="45.25764" lon="6.1363">
        <ele>2377</ele>
        <time>2019-05-01T10:42:02.000Z</time>
      </trkpt>
      <trkpt lat="45.25768" lon="6.13633">
        <ele>2377.6000976562</ele>
        <time>2019-05-01T10:42:07.000Z</time>
      </trkpt>
      <trkpt lat="45.2577" lon="6.13633">
        <ele>2377.8000488281</ele>
        <time>2019-05-01T10:42:09.000Z</time>
      </trkpt>
      <trkpt lat="45.25773" lon="6.13634">
        <ele>2378.6000976562</ele>
        <time>2019-05-01T10:42:16.000Z</time>
      </trkpt>
      <trkpt lat="45.25774" lon="6.13635">
        <ele>2378.8000488281</ele>
        <time>2019-05-01T10:42:17.000Z</time>
      </trkpt>
      <trkpt lat="45.25777" lon="6.13636">
        <ele>2380</ele>
        <time>2019-05-01T10:42:24.000Z</time>
      </trkpt>
      <trkpt lat="45.25776" lon="6.13636">
        <ele>2380</ele>
        <time>2019-05-01T10:42:25.000Z</time>
      </trkpt>
      <trkpt lat="45.25773" lon="6.13635">
        <ele>2380.6000976562</ele>
        <time>2019-05-01T10:42:35.000Z</time>
      </trkpt>
      <trkpt lat="45.25769" lon="6.13635">
        <ele>2381</ele>
        <time>2019-05-01T10:42:39.000Z</time>
      </trkpt>
      <trkpt lat="45.25767" lon="6.13635">
        <ele>2381.3999023438</ele>
        <time>2019-05-01T10:42:41.000Z</time>
      </trkpt>
      <trkpt lat="45.25765" lon="6.13637">
        <ele>2381.8000488281</ele>
        <time>2019-05-01T10:42:46.000Z</time>
      </trkpt>
      <trkpt lat="45.25764" lon="6.13637">
        <ele>2382</ele>
        <time>2019-05-01T10:42:47.000Z</time>
      </trkpt>
      <trkpt lat="45.2576" lon="6.13638">
        <ele>2383</ele>
        <time>2019-05-01T10:42:53.000Z</time>
      </trkpt>
      <trkpt lat="45.25759" lon="6.13638">
        <ele>2383.1999511719</ele>
        <time>2019-05-01T10:42:54.000Z</time>
      </trkpt>
      <trkpt lat="45.25759" lon="6.13638">
        <ele>2383.8000488281</ele>
        <time>2019-05-01T10:43:02.000Z</time>
      </trkpt>
      <trkpt lat="45.25759" lon="6.13638">
        <ele>2384</ele>
        <time>2019-05-01T10:43:07.000Z</time>
      </trkpt>
      <trkpt lat="45.2576" lon="6.13639">
        <ele>2384.3999023438</ele>
        <time>2019-05-01T10:43:09.000Z</time>
      </trkpt>
      <trkpt lat="45.25764" lon="6.13641">
        <ele>2385.1999511719</ele>
        <time>2019-05-01T10:43:13.000Z</time>
      </trkpt>
      <trkpt lat="45.25765" lon="6.13641">
        <ele>2385.1999511719</ele>
        <time>2019-05-01T10:43:15.000Z</time>
      </trkpt>
      <trkpt lat="45.2577" lon="6.13643">
        <ele>2386.1999511719</ele>
        <time>2019-05-01T10:43:22.000Z</time>
      </trkpt>
      <trkpt lat="45.2577" lon="6.13643">
        <ele>2386.3999023438</ele>
        <time>2019-05-01T10:43:23.000Z</time>
      </trkpt>
      <trkpt lat="45.25773" lon="6.13644">
        <ele>2387.3999023438</ele>
        <time>2019-05-01T10:43:28.000Z</time>
      </trkpt>
      <trkpt lat="45.25774" lon="6.13645">
        <ele>2387.8000488281</ele>
        <time>2019-05-01T10:43:30.000Z</time>
      </trkpt>
      <trkpt lat="45.25775" lon="6.13646">
        <ele>2388.6000976562</ele>
        <time>2019-05-01T10:43:35.000Z</time>
      </trkpt>
      <trkpt lat="45.25775" lon="6.13646">
        <ele>2389</ele>
        <time>2019-05-01T10:43:37.000Z</time>
      </trkpt>
      <trkpt lat="45.25775" lon="6.13646">
        <ele>2389.3999023438</ele>
        <time>2019-05-01T10:43:45.000Z</time>
      </trkpt>
      <trkpt lat="45.25775" lon="6.13646">
        <ele>2389.6000976562</ele>
        <time>2019-05-01T10:43:50.000Z</time>
      </trkpt>
      <trkpt lat="45.25775" lon="6.13646">
        <ele>2389.6000976562</ele>
        <time>2019-05-01T10:43:53.000Z</time>
      </trkpt>
      <trkpt lat="45.25775" lon="6.13646">
        <ele>2389.8000488281</ele>
        <time>2019-05-01T10:43:59.000Z</time>
      </trkpt>
      <trkpt lat="45.25755" lon="6.13637">
        <ele>2389.6000976562</ele>
        <time>2019-05-01T10:44:08.000Z</time>
      </trkpt>
      <trkpt lat="45.25749" lon="6.13637">
        <ele>2390.6000976562</ele>
        <time>2019-05-01T10:44:14.000Z</time>
      </trkpt>
      <trkpt lat="45.25747" lon="6.13644">
        <ele>2391.6000976562</ele>
        <time>2019-05-01T10:44:20.000Z</time>
      </trkpt>
      <trkpt lat="45.25751" lon="6.13651">
        <ele>2391.6000976562</ele>
        <time>2019-05-01T10:44:25.000Z</time>
      </trkpt>
      <trkpt lat="45.2575" lon="6.13651">
        <ele>2391.8000488281</ele>
        <time>2019-05-01T10:44:33.000Z</time>
      </trkpt>
      <trkpt lat="45.25747" lon="6.13651">
        <ele>2392.1999511719</ele>
        <time>2019-05-01T10:44:38.000Z</time>
      </trkpt>
      <trkpt lat="45.25747" lon="6.13653">
        <ele>2392.8000488281</ele>
        <time>2019-05-01T10:44:40.000Z</time>
      </trkpt>
      <trkpt lat="45.25746" lon="6.13654">
        <ele>2393.3999023438</ele>
        <time>2019-05-01T10:44:44.000Z</time>
      </trkpt>
      <trkpt lat="45.25746" lon="6.13655">
        <ele>2393.8000488281</ele>
        <time>2019-05-01T10:44:48.000Z</time>
      </trkpt>
      <trkpt lat="45.25746" lon="6.13655">
        <ele>2393.8000488281</ele>
        <time>2019-05-01T10:44:49.000Z</time>
      </trkpt>
      <trkpt lat="45.25753" lon="6.13659">
        <ele>2394.1999511719</ele>
        <time>2019-05-01T10:44:55.000Z</time>
      </trkpt>
      <trkpt lat="45.25764" lon="6.13662">
        <ele>2394.8000488281</ele>
        <time>2019-05-01T10:45:01.000Z</time>
      </trkpt>
      <trkpt lat="45.25765" lon="6.13663">
        <ele>2394.8000488281</ele>
        <time>2019-05-01T10:45:02.000Z</time>
      </trkpt>
      <trkpt lat="45.25768" lon="6.13663">
        <ele>2396</ele>
        <time>2019-05-01T10:45:07.000Z</time>
      </trkpt>
      <trkpt lat="45.25773" lon="6.13665">
        <ele>2397</ele>
        <time>2019-05-01T10:45:12.000Z</time>
      </trkpt>
      <trkpt lat="45.25774" lon="6.13665">
        <ele>2397.1999511719</ele>
        <time>2019-05-01T10:45:14.000Z</time>
      </trkpt>
      <trkpt lat="45.2578" lon="6.13666">
        <ele>2398</ele>
        <time>2019-05-01T10:45:20.000Z</time>
      </trkpt>
      <trkpt lat="45.25782" lon="6.13667">
        <ele>2398.3999023438</ele>
        <time>2019-05-01T10:45:22.000Z</time>
      </trkpt>
      <trkpt lat="45.25785" lon="6.13669">
        <ele>2399</ele>
        <time>2019-05-01T10:45:25.000Z</time>
      </trkpt>
      <trkpt lat="45.25785" lon="6.13669">
        <ele>2399.1999511719</ele>
        <time>2019-05-01T10:45:27.000Z</time>
      </trkpt>
      <trkpt lat="45.25785" lon="6.13671">
        <ele>2399.6000976562</ele>
        <time>2019-05-01T10:45:32.000Z</time>
      </trkpt>
      <trkpt lat="45.25781" lon="6.13672">
        <ele>2400.1999511719</ele>
        <time>2019-05-01T10:45:38.000Z</time>
      </trkpt>
      <trkpt lat="45.2578" lon="6.13672">
        <ele>2400.3999023438</ele>
        <time>2019-05-01T10:45:39.000Z</time>
      </trkpt>
      <trkpt lat="45.25775" lon="6.13671">
        <ele>2401.1999511719</ele>
        <time>2019-05-01T10:45:44.000Z</time>
      </trkpt>
      <trkpt lat="45.25772" lon="6.1367">
        <ele>2401.8000488281</ele>
        <time>2019-05-01T10:45:48.000Z</time>
      </trkpt>
      <trkpt lat="45.2577" lon="6.13672">
        <ele>2402.3999023438</ele>
        <time>2019-05-01T10:45:51.000Z</time>
      </trkpt>
      <trkpt lat="45.25769" lon="6.13672">
        <ele>2402.6000976562</ele>
        <time>2019-05-01T10:45:53.000Z</time>
      </trkpt>
      <trkpt lat="45.25764" lon="6.13673">
        <ele>2403.3999023438</ele>
        <time>2019-05-01T10:45:59.000Z</time>
      </trkpt>
      <trkpt lat="45.25763" lon="6.13672">
        <ele>2403.6000976562</ele>
        <time>2019-05-01T10:46:00.000Z</time>
      </trkpt>
      <trkpt lat="45.25758" lon="6.13672">
        <ele>2404.6000976562</ele>
        <time>2019-05-01T10:46:07.000Z</time>
      </trkpt>
      <trkpt lat="45.25758" lon="6.13672">
        <ele>2404.6000976562</ele>
        <time>2019-05-01T10:46:08.000Z</time>
      </trkpt>
      <trkpt lat="45.25758" lon="6.13672">
        <ele>2405.1999511719</ele>
        <time>2019-05-01T10:46:18.000Z</time>
      </trkpt>
      <trkpt lat="45.2576" lon="6.13673">
        <ele>2405.6000976562</ele>
        <time>2019-05-01T10:46:21.000Z</time>
      </trkpt>
      <trkpt lat="45.25765" lon="6.13676">
        <ele>2406</ele>
        <time>2019-05-01T10:46:24.000Z</time>
      </trkpt>
      <trkpt lat="45.25772" lon="6.13679">
        <ele>2406.6000976562</ele>
        <time>2019-05-01T10:46:29.000Z</time>
      </trkpt>
      <trkpt lat="45.25774" lon="6.13679">
        <ele>2406.8000488281</ele>
        <time>2019-05-01T10:46:30.000Z</time>
      </trkpt>
      <trkpt lat="45.25783" lon="6.13684">
        <ele>2407.3999023438</ele>
        <time>2019-05-01T10:46:36.000Z</time>
      </trkpt>
      <trkpt lat="45.25784" lon="6.13684">
        <ele>2407.8000488281</ele>
        <time>2019-05-01T10:46:38.000Z</time>
      </trkpt>
      <trkpt lat="45.25786" lon="6.13684">
        <ele>2408.3999023438</ele>
        <time>2019-05-01T10:46:42.000Z</time>
      </trkpt>
      <trkpt lat="45.25787" lon="6.13684">
        <ele>2408.8000488281</ele>
        <time>2019-05-01T10:46:44.000Z</time>
      </trkpt>
      <trkpt lat="45.25789" lon="6.13685">
        <ele>2409</ele>
        <time>2019-05-01T10:46:46.000Z</time>
      </trkpt>
      <trkpt lat="45.2579" lon="6.13686">
        <ele>2409.8000488281</ele>
        <time>2019-05-01T10:46:49.000Z</time>
      </trkpt>
      <trkpt lat="45.2579" lon="6.13686">
        <ele>2410</ele>
        <time>2019-05-01T10:46:51.000Z</time>
      </trkpt>
      <trkpt lat="45.25789" lon="6.13687">
        <ele>2410.1999511719</ele>
        <time>2019-05-01T10:46:57.000Z</time>
      </trkpt>
      <trkpt lat="45.25785" lon="6.1369">
        <ele>2410.8000488281</ele>
        <time>2019-05-01T10:47:01.000Z</time>
      </trkpt>
      <trkpt lat="45.25785" lon="6.1369">
        <ele>2411</ele>
        <time>2019-05-01T10:47:02.000Z</time>
      </trkpt>
      <trkpt lat="45.2578" lon="6.13693">
        <ele>2412</ele>
        <time>2019-05-01T10:47:07.000Z</time>
      </trkpt>
      <trkpt lat="45.25777" lon="6.13695">
        <ele>2413.3999023438</ele>
        <time>2019-05-01T10:47:12.000Z</time>
      </trkpt>
      <trkpt lat="45.25775" lon="6.13696">
        <ele>2414</ele>
        <time>2019-05-01T10:47:14.000Z</time>
      </trkpt>
      <trkpt lat="45.25772" lon="6.13696">
        <ele>2414.3999023438</ele>
        <time>2019-05-01T10:47:17.000Z</time>
      </trkpt>
      <trkpt lat="45.25771" lon="6.13696">
        <ele>2414.6000976562</ele>
        <time>2019-05-01T10:47:18.000Z</time>
      </trkpt>
      <trkpt lat="45.25769" lon="6.13695">
        <ele>2415.3999023438</ele>
        <time>2019-05-01T10:47:25.000Z</time>
      </trkpt>
      <trkpt lat="45.25769" lon="6.13695">
        <ele>2415.3999023438</ele>
        <time>2019-05-01T10:47:26.000Z</time>
      </trkpt>
      <trkpt lat="45.25769" lon="6.13695">
        <ele>2415.8000488281</ele>
        <time>2019-05-01T10:47:32.000Z</time>
      </trkpt>
      <trkpt lat="45.25778" lon="6.13699">
        <ele>2416.3999023438</ele>
        <time>2019-05-01T10:47:38.000Z</time>
      </trkpt>
      <trkpt lat="45.2578" lon="6.13699">
        <ele>2416.6000976562</ele>
        <time>2019-05-01T10:47:39.000Z</time>
      </trkpt>
      <trkpt lat="45.25783" lon="6.137">
        <ele>2416.8000488281</ele>
        <time>2019-05-01T10:47:43.000Z</time>
      </trkpt>
      <trkpt lat="45.25786" lon="6.137">
        <ele>2417.3999023438</ele>
        <time>2019-05-01T10:47:47.000Z</time>
      </trkpt>
      <trkpt lat="45.25786" lon="6.137">
        <ele>2417.6000976562</ele>
        <time>2019-05-01T10:47:48.000Z</time>
      </trkpt>
      <trkpt lat="45.25788" lon="6.13699">
        <ele>2418.1999511719</ele>
        <time>2019-05-01T10:47:52.000Z</time>
      </trkpt>
      <trkpt lat="45.25791" lon="6.13699">
        <ele>2418.6000976562</ele>
        <time>2019-05-01T10:47:55.000Z</time>
      </trkpt>
      <trkpt lat="45.25792" lon="6.137">
        <ele>2418.8000488281</ele>
        <time>2019-05-01T10:47:56.000Z</time>
      </trkpt>
      <trkpt lat="45.25792" lon="6.137">
        <ele>2419.8000488281</ele>
        <time>2019-05-01T10:48:00.000Z</time>
      </trkpt>
      <trkpt lat="45.25792" lon="6.13701">
        <ele>2420</ele>
        <time>2019-05-01T10:48:03.000Z</time>
      </trkpt>
      <trkpt lat="45.25789" lon="6.13704">
        <ele>2420.1999511719</ele>
        <time>2019-05-01T10:48:08.000Z</time>
      </trkpt>
      <trkpt lat="45.25785" lon="6.13707">
        <ele>2421</ele>
        <time>2019-05-01T10:48:13.000Z</time>
      </trkpt>
      <trkpt lat="45.2578" lon="6.13707">
        <ele>2422.1999511719</ele>
        <time>2019-05-01T10:48:19.000Z</time>
      </trkpt>
      <trkpt lat="45.25779" lon="6.13708">
        <ele>2422.3999023438</ele>
        <time>2019-05-01T10:48:20.000Z</time>
      </trkpt>
      <trkpt lat="45.25779" lon="6.13707">
        <ele>2423.1999511719</ele>
        <time>2019-05-01T10:48:24.000Z</time>
      </trkpt>
      <trkpt lat="45.25778" lon="6.13707">
        <ele>2423.1999511719</ele>
        <time>2019-05-01T10:48:25.000Z</time>
      </trkpt>
      <trkpt lat="45.25774" lon="6.13709">
        <ele>2424</ele>
        <time>2019-05-01T10:48:31.000Z</time>
      </trkpt>
      <trkpt lat="45.25774" lon="6.1371">
        <ele>2424.1999511719</ele>
        <time>2019-05-01T10:48:32.000Z</time>
      </trkpt>
      <trkpt lat="45.25771" lon="6.13712">
        <ele>2425.1999511719</ele>
        <time>2019-05-01T10:48:37.000Z</time>
      </trkpt>
      <trkpt lat="45.25771" lon="6.13713">
        <ele>2425.3999023438</ele>
        <time>2019-05-01T10:48:38.000Z</time>
      </trkpt>
      <trkpt lat="45.25771" lon="6.13714">
        <ele>2425.8000488281</ele>
        <time>2019-05-01T10:48:44.000Z</time>
      </trkpt>
      <trkpt lat="45.25777" lon="6.13717">
        <ele>2426.3999023438</ele>
        <time>2019-05-01T10:48:51.000Z</time>
      </trkpt>
      <trkpt lat="45.2578" lon="6.13718">
        <ele>2426.8000488281</ele>
        <time>2019-05-01T10:48:56.000Z</time>
      </trkpt>
      <trkpt lat="45.25783" lon="6.13718">
        <ele>2427.3999023438</ele>
        <time>2019-05-01T10:49:00.000Z</time>
      </trkpt>
      <trkpt lat="45.25784" lon="6.13719">
        <ele>2427.6000976562</ele>
        <time>2019-05-01T10:49:02.000Z</time>
      </trkpt>
      <trkpt lat="45.25784" lon="6.13718">
        <ele>2428.3999023438</ele>
        <time>2019-05-01T10:49:08.000Z</time>
      </trkpt>
      <trkpt lat="45.25783" lon="6.13719">
        <ele>2428.6000976562</ele>
        <time>2019-05-01T10:49:11.000Z</time>
      </trkpt>
      <trkpt lat="45.25782" lon="6.1372">
        <ele>2428.6000976562</ele>
        <time>2019-05-01T10:49:12.000Z</time>
      </trkpt>
      <trkpt lat="45.25779" lon="6.13721">
        <ele>2429</ele>
        <time>2019-05-01T10:49:16.000Z</time>
      </trkpt>
      <trkpt lat="45.25777" lon="6.13722">
        <ele>2429.6000976562</ele>
        <time>2019-05-01T10:49:19.000Z</time>
      </trkpt>
      <trkpt lat="45.25775" lon="6.13725">
        <ele>2430.1999511719</ele>
        <time>2019-05-01T10:49:22.000Z</time>
      </trkpt>
      <trkpt lat="45.25774" lon="6.13726">
        <ele>2430.6000976562</ele>
        <time>2019-05-01T10:49:24.000Z</time>
      </trkpt>
      <trkpt lat="45.25771" lon="6.13729">
        <ele>2431.1999511719</ele>
        <time>2019-05-01T10:49:28.000Z</time>
      </trkpt>
      <trkpt lat="45.2577" lon="6.13729">
        <ele>2431.8000488281</ele>
        <time>2019-05-01T10:49:30.000Z</time>
      </trkpt>
      <trkpt lat="45.25768" lon="6.1373">
        <ele>2432.1999511719</ele>
        <time>2019-05-01T10:49:33.000Z</time>
      </trkpt>
      <trkpt lat="45.25767" lon="6.13732">
        <ele>2432.8000488281</ele>
        <time>2019-05-01T10:49:36.000Z</time>
      </trkpt>
      <trkpt lat="45.25766" lon="6.13732">
        <ele>2433.6000976562</ele>
        <time>2019-05-01T10:49:40.000Z</time>
      </trkpt>
      <trkpt lat="45.25767" lon="6.13732">
        <ele>2433.8000488281</ele>
        <time>2019-05-01T10:49:46.000Z</time>
      </trkpt>
      <trkpt lat="45.25768" lon="6.13733">
        <ele>2433.8000488281</ele>
        <time>2019-05-01T10:49:47.000Z</time>
      </trkpt>
      <trkpt lat="45.2577" lon="6.13735">
        <ele>2434</ele>
        <time>2019-05-01T10:49:49.000Z</time>
      </trkpt>
      <trkpt lat="45.2577" lon="6.13734">
        <ele>2434</ele>
        <time>2019-05-01T10:49:50.000Z</time>
      </trkpt>
      <trkpt lat="45.25776" lon="6.13736">
        <ele>2435</ele>
        <time>2019-05-01T10:49:56.000Z</time>
      </trkpt>
      <trkpt lat="45.25777" lon="6.13736">
        <ele>2436.1999511719</ele>
        <time>2019-05-01T10:50:01.000Z</time>
      </trkpt>
      <trkpt lat="45.25777" lon="6.13736">
        <ele>2436.3999023438</ele>
        <time>2019-05-01T10:50:02.000Z</time>
      </trkpt>
      <trkpt lat="45.2578" lon="6.13736">
        <ele>2437.1999511719</ele>
        <time>2019-05-01T10:50:07.000Z</time>
      </trkpt>
      <trkpt lat="45.25782" lon="6.13737">
        <ele>2437.3999023438</ele>
        <time>2019-05-01T10:50:08.000Z</time>
      </trkpt>
      <trkpt lat="45.25785" lon="6.13738">
        <ele>2438.3999023438</ele>
        <time>2019-05-01T10:50:13.000Z</time>
      </trkpt>
      <trkpt lat="45.25788" lon="6.13739">
        <ele>2439.1999511719</ele>
        <time>2019-05-01T10:50:17.000Z</time>
      </trkpt>
      <trkpt lat="45.25788" lon="6.1374">
        <ele>2439.3999023438</ele>
        <time>2019-05-01T10:50:18.000Z</time>
      </trkpt>
      <trkpt lat="45.2579" lon="6.13741">
        <ele>2440.1999511719</ele>
        <time>2019-05-01T10:50:22.000Z</time>
      </trkpt>
      <trkpt lat="45.25791" lon="6.13741">
        <ele>2440.3999023438</ele>
        <time>2019-05-01T10:50:23.000Z</time>
      </trkpt>
      <trkpt lat="45.25792" lon="6.13741">
        <ele>2441.1999511719</ele>
        <time>2019-05-01T10:50:26.000Z</time>
      </trkpt>
      <trkpt lat="45.25793" lon="6.13741">
        <ele>2441.6000976562</ele>
        <time>2019-05-01T10:50:28.000Z</time>
      </trkpt>
      <trkpt lat="45.25795" lon="6.13742">
        <ele>2442.1999511719</ele>
        <time>2019-05-01T10:50:31.000Z</time>
      </trkpt>
      <trkpt lat="45.25796" lon="6.13743">
        <ele>2442.6000976562</ele>
        <time>2019-05-01T10:50:33.000Z</time>
      </trkpt>
      <trkpt lat="45.25798" lon="6.13743">
        <ele>2443</ele>
        <time>2019-05-01T10:50:35.000Z</time>
      </trkpt>
      <trkpt lat="45.258" lon="6.13745">
        <ele>2443.6000976562</ele>
        <time>2019-05-01T10:50:38.000Z</time>
      </trkpt>
      <trkpt lat="45.25802" lon="6.13746">
        <ele>2444.1999511719</ele>
        <time>2019-05-01T10:50:40.000Z</time>
      </trkpt>
      <trkpt lat="45.25804" lon="6.13747">
        <ele>2444.8000488281</ele>
        <time>2019-05-01T10:50:43.000Z</time>
      </trkpt>
      <trkpt lat="45.25804" lon="6.13748">
        <ele>2445</ele>
        <time>2019-05-01T10:50:44.000Z</time>
      </trkpt>
      <trkpt lat="45.25806" lon="6.13749">
        <ele>2445.8000488281</ele>
        <time>2019-05-01T10:50:48.000Z</time>
      </trkpt>
      <trkpt lat="45.25807" lon="6.1375">
        <ele>2446.3999023438</ele>
        <time>2019-05-01T10:50:50.000Z</time>
      </trkpt>
      <trkpt lat="45.25808" lon="6.13751">
        <ele>2446.6000976562</ele>
        <time>2019-05-01T10:50:51.000Z</time>
      </trkpt>
      <trkpt lat="45.25808" lon="6.13751">
        <ele>2446.8000488281</ele>
        <time>2019-05-01T10:50:52.000Z</time>
      </trkpt>
      <trkpt lat="45.25809" lon="6.13751">
        <ele>2447.1999511719</ele>
        <time>2019-05-01T10:50:54.000Z</time>
      </trkpt>
      <trkpt lat="45.2581" lon="6.13754">
        <ele>2448</ele>
        <time>2019-05-01T10:50:58.000Z</time>
      </trkpt>
      <trkpt lat="45.2581" lon="6.13755">
        <ele>2448.3999023438</ele>
        <time>2019-05-01T10:51:00.000Z</time>
      </trkpt>
      <trkpt lat="45.2581" lon="6.13755">
        <ele>2449</ele>
        <time>2019-05-01T10:51:03.000Z</time>
      </trkpt>
      <trkpt lat="45.2581" lon="6.13755">
        <ele>2449.1999511719</ele>
        <time>2019-05-01T10:51:16.000Z</time>
      </trkpt>
      <trkpt lat="45.25808" lon="6.13756">
        <ele>2449.1999511719</ele>
        <time>2019-05-01T10:51:28.000Z</time>
      </trkpt>
      <trkpt lat="45.25806" lon="6.13759">
        <ele>2449.8000488281</ele>
        <time>2019-05-01T10:51:33.000Z</time>
      </trkpt>
      <trkpt lat="45.25805" lon="6.1376">
        <ele>2450.1999511719</ele>
        <time>2019-05-01T10:51:35.000Z</time>
      </trkpt>
      <trkpt lat="45.25803" lon="6.13762">
        <ele>2451</ele>
        <time>2019-05-01T10:51:38.000Z</time>
      </trkpt>
      <trkpt lat="45.25802" lon="6.13762">
        <ele>2451.1999511719</ele>
        <time>2019-05-01T10:51:39.000Z</time>
      </trkpt>
      <trkpt lat="45.25801" lon="6.13765">
        <ele>2452</ele>
        <time>2019-05-01T10:51:43.000Z</time>
      </trkpt>
      <trkpt lat="45.258" lon="6.13767">
        <ele>2452.3999023438</ele>
        <time>2019-05-01T10:51:45.000Z</time>
      </trkpt>
      <trkpt lat="45.258" lon="6.13768">
        <ele>2452.8000488281</ele>
        <time>2019-05-01T10:51:47.000Z</time>
      </trkpt>
      <trkpt lat="45.258" lon="6.1377">
        <ele>2453.1999511719</ele>
        <time>2019-05-01T10:51:49.000Z</time>
      </trkpt>
      <trkpt lat="45.25801" lon="6.13771">
        <ele>2453.3999023438</ele>
        <time>2019-05-01T10:51:50.000Z</time>
      </trkpt>
      <trkpt lat="45.25801" lon="6.13772">
        <ele>2454</ele>
        <time>2019-05-01T10:51:52.000Z</time>
      </trkpt>
      <trkpt lat="45.25802" lon="6.13773">
        <ele>2454.3999023438</ele>
        <time>2019-05-01T10:51:54.000Z</time>
      </trkpt>
      <trkpt lat="45.25803" lon="6.13774">
        <ele>2454.8000488281</ele>
        <time>2019-05-01T10:51:55.000Z</time>
      </trkpt>
      <trkpt lat="45.25804" lon="6.13775">
        <ele>2455.6000976562</ele>
        <time>2019-05-01T10:51:59.000Z</time>
      </trkpt>
      <trkpt lat="45.25807" lon="6.1378">
        <ele>2456.8000488281</ele>
        <time>2019-05-01T10:52:04.000Z</time>
      </trkpt>
      <trkpt lat="45.25809" lon="6.13783">
        <ele>2457.6000976562</ele>
        <time>2019-05-01T10:52:09.000Z</time>
      </trkpt>
      <trkpt lat="45.25809" lon="6.13783">
        <ele>2458</ele>
        <time>2019-05-01T10:52:10.000Z</time>
      </trkpt>
      <trkpt lat="45.25812" lon="6.13786">
        <ele>2458.6000976562</ele>
        <time>2019-05-01T10:52:14.000Z</time>
      </trkpt>
      <trkpt lat="45.25812" lon="6.13787">
        <ele>2459</ele>
        <time>2019-05-01T10:52:15.000Z</time>
      </trkpt>
      <trkpt lat="45.25815" lon="6.13791">
        <ele>2460</ele>
        <time>2019-05-01T10:52:20.000Z</time>
      </trkpt>
      <trkpt lat="45.25816" lon="6.13794">
        <ele>2460.6000976562</ele>
        <time>2019-05-01T10:52:24.000Z</time>
      </trkpt>
      <trkpt lat="45.25816" lon="6.13796">
        <ele>2461.1999511719</ele>
        <time>2019-05-01T10:52:25.000Z</time>
      </trkpt>
      <trkpt lat="45.25814" lon="6.13801">
        <ele>2462.1999511719</ele>
        <time>2019-05-01T10:52:30.000Z</time>
      </trkpt>
      <trkpt lat="45.25812" lon="6.13804">
        <ele>2463</ele>
        <time>2019-05-01T10:52:34.000Z</time>
      </trkpt>
      <trkpt lat="45.25812" lon="6.13805">
        <ele>2463.1999511719</ele>
        <time>2019-05-01T10:52:35.000Z</time>
      </trkpt>
      <trkpt lat="45.25812" lon="6.13805">
        <ele>2463.3999023438</ele>
        <time>2019-05-01T10:52:36.000Z</time>
      </trkpt>
      <trkpt lat="45.2581" lon="6.13805">
        <ele>2464.3999023438</ele>
        <time>2019-05-01T10:52:41.000Z</time>
      </trkpt>
      <trkpt lat="45.25809" lon="6.13806">
        <ele>2465.3999023438</ele>
        <time>2019-05-01T10:52:46.000Z</time>
      </trkpt>
      <trkpt lat="45.25809" lon="6.13806">
        <ele>2466</ele>
        <time>2019-05-01T10:52:59.000Z</time>
      </trkpt>
      <trkpt lat="45.25809" lon="6.13806">
        <ele>2466.3999023438</ele>
        <time>2019-05-01T10:53:04.000Z</time>
      </trkpt>
      <trkpt lat="45.25809" lon="6.13806">
        <ele>2466.6000976562</ele>
        <time>2019-05-01T10:53:05.000Z</time>
      </trkpt>
      <trkpt lat="45.25804" lon="6.13807">
        <ele>2467.6000976562</ele>
        <time>2019-05-01T10:53:10.000Z</time>
      </trkpt>
      <trkpt lat="45.25803" lon="6.13808">
        <ele>2468.8000488281</ele>
        <time>2019-05-01T10:53:14.000Z</time>
      </trkpt>
      <trkpt lat="45.25802" lon="6.13809">
        <ele>2469</ele>
        <time>2019-05-01T10:53:15.000Z</time>
      </trkpt>
      <trkpt lat="45.258" lon="6.13809">
        <ele>2469.8000488281</ele>
        <time>2019-05-01T10:53:19.000Z</time>
      </trkpt>
      <trkpt lat="45.258" lon="6.13809">
        <ele>2470</ele>
        <time>2019-05-01T10:53:20.000Z</time>
      </trkpt>
      <trkpt lat="45.25795" lon="6.1381">
        <ele>2470.8000488281</ele>
        <time>2019-05-01T10:53:26.000Z</time>
      </trkpt>
      <trkpt lat="45.25797" lon="6.13812">
        <ele>2471.8000488281</ele>
        <time>2019-05-01T10:53:33.000Z</time>
      </trkpt>
      <trkpt lat="45.25796" lon="6.13812">
        <ele>2471.8000488281</ele>
        <time>2019-05-01T10:53:34.000Z</time>
      </trkpt>
      <trkpt lat="45.25797" lon="6.13814">
        <ele>2471.8000488281</ele>
        <time>2019-05-01T10:53:35.000Z</time>
      </trkpt>
      <trkpt lat="45.25797" lon="6.13814">
        <ele>2472.6000976562</ele>
        <time>2019-05-01T10:53:38.000Z</time>
      </trkpt>
      <trkpt lat="45.25799" lon="6.13818">
        <ele>2473</ele>
        <time>2019-05-01T10:53:40.000Z</time>
      </trkpt>
      <trkpt lat="45.25799" lon="6.13819">
        <ele>2473.6000976562</ele>
        <time>2019-05-01T10:53:43.000Z</time>
      </trkpt>
      <trkpt lat="45.25801" lon="6.13821">
        <ele>2474</ele>
        <time>2019-05-01T10:53:45.000Z</time>
      </trkpt>
      <trkpt lat="45.25801" lon="6.13822">
        <ele>2474.3999023438</ele>
        <time>2019-05-01T10:53:48.000Z</time>
      </trkpt>
      <trkpt lat="45.25803" lon="6.13826">
        <ele>2475.1999511719</ele>
        <time>2019-05-01T10:53:53.000Z</time>
      </trkpt>
      <trkpt lat="45.25803" lon="6.13827">
        <ele>2475.3999023438</ele>
        <time>2019-05-01T10:53:54.000Z</time>
      </trkpt>
      <trkpt lat="45.25803" lon="6.13826">
        <ele>2476.1999511719</ele>
        <time>2019-05-01T10:53:58.000Z</time>
      </trkpt>
      <trkpt lat="45.25803" lon="6.13826">
        <ele>2476.3999023438</ele>
        <time>2019-05-01T10:53:59.000Z</time>
      </trkpt>
      <trkpt lat="45.25803" lon="6.13827">
        <ele>2476.6000976562</ele>
        <time>2019-05-01T10:54:00.000Z</time>
      </trkpt>
      <trkpt lat="45.25801" lon="6.13827">
        <ele>2476.8000488281</ele>
        <time>2019-05-01T10:54:03.000Z</time>
      </trkpt>
      <trkpt lat="45.25799" lon="6.13826">
        <ele>2477.1999511719</ele>
        <time>2019-05-01T10:54:06.000Z</time>
      </trkpt>
      <trkpt lat="45.25797" lon="6.13826">
        <ele>2477.8000488281</ele>
        <time>2019-05-01T10:54:08.000Z</time>
      </trkpt>
      <trkpt lat="45.25794" lon="6.13825">
        <ele>2478.3999023438</ele>
        <time>2019-05-01T10:54:12.000Z</time>
      </trkpt>
      <trkpt lat="45.25793" lon="6.13825">
        <ele>2478.8000488281</ele>
        <time>2019-05-01T10:54:14.000Z</time>
      </trkpt>
      <trkpt lat="45.25792" lon="6.13825">
        <ele>2479.3999023438</ele>
        <time>2019-05-01T10:54:19.000Z</time>
      </trkpt>
      <trkpt lat="45.25792" lon="6.13825">
        <ele>2479.6000976562</ele>
        <time>2019-05-01T10:54:20.000Z</time>
      </trkpt>
      <trkpt lat="45.25792" lon="6.13828">
        <ele>2479.8000488281</ele>
        <time>2019-05-01T10:54:25.000Z</time>
      </trkpt>
      <trkpt lat="45.25792" lon="6.13828">
        <ele>2480</ele>
        <time>2019-05-01T10:54:26.000Z</time>
      </trkpt>
      <trkpt lat="45.25793" lon="6.13832">
        <ele>2480.3999023438</ele>
        <time>2019-05-01T10:54:29.000Z</time>
      </trkpt>
      <trkpt lat="45.25794" lon="6.13834">
        <ele>2480.8000488281</ele>
        <time>2019-05-01T10:54:31.000Z</time>
      </trkpt>
      <trkpt lat="45.25795" lon="6.13837">
        <ele>2481.6000976562</ele>
        <time>2019-05-01T10:54:35.000Z</time>
      </trkpt>
      <trkpt lat="45.25795" lon="6.13837">
        <ele>2481.8000488281</ele>
        <time>2019-05-01T10:54:36.000Z</time>
      </trkpt>
      <trkpt lat="45.25796" lon="6.13839">
        <ele>2482.6000976562</ele>
        <time>2019-05-01T10:54:40.000Z</time>
      </trkpt>
      <trkpt lat="45.25796" lon="6.13842">
        <ele>2483.8000488281</ele>
        <time>2019-05-01T10:54:45.000Z</time>
      </trkpt>
      <trkpt lat="45.25796" lon="6.13842">
        <ele>2484.8000488281</ele>
        <time>2019-05-01T10:54:49.000Z</time>
      </trkpt>
      <trkpt lat="45.25795" lon="6.13841">
        <ele>2485.1999511719</ele>
        <time>2019-05-01T10:54:58.000Z</time>
      </trkpt>
      <trkpt lat="45.25792" lon="6.13841">
        <ele>2485.8000488281</ele>
        <time>2019-05-01T10:55:04.000Z</time>
      </trkpt>
      <trkpt lat="45.25792" lon="6.13841">
        <ele>2486</ele>
        <time>2019-05-01T10:55:05.000Z</time>
      </trkpt>
      <trkpt lat="45.25789" lon="6.1384">
        <ele>2486.6000976562</ele>
        <time>2019-05-01T10:55:10.000Z</time>
      </trkpt>
      <trkpt lat="45.25789" lon="6.1384">
        <ele>2487.1999511719</ele>
        <time>2019-05-01T10:55:12.000Z</time>
      </trkpt>
      <trkpt lat="45.2579" lon="6.13841">
        <ele>2487.8000488281</ele>
        <time>2019-05-01T10:55:15.000Z</time>
      </trkpt>
      <trkpt lat="45.2579" lon="6.13841">
        <ele>2488</ele>
        <time>2019-05-01T10:55:16.000Z</time>
      </trkpt>
      <trkpt lat="45.25791" lon="6.13844">
        <ele>2488.1999511719</ele>
        <time>2019-05-01T10:55:19.000Z</time>
      </trkpt>
      <trkpt lat="45.25791" lon="6.13845">
        <ele>2488.3999023438</ele>
        <time>2019-05-01T10:55:20.000Z</time>
      </trkpt>
      <trkpt lat="45.25792" lon="6.13852">
        <ele>2489</ele>
        <time>2019-05-01T10:55:25.000Z</time>
      </trkpt>
      <trkpt lat="45.25793" lon="6.13853">
        <ele>2489.1999511719</ele>
        <time>2019-05-01T10:55:26.000Z</time>
      </trkpt>
      <trkpt lat="45.25795" lon="6.13856">
        <ele>2490</ele>
        <time>2019-05-01T10:55:31.000Z</time>
      </trkpt>
      <trkpt lat="45.25796" lon="6.13858">
        <ele>2490.3999023438</ele>
        <time>2019-05-01T10:55:33.000Z</time>
      </trkpt>
      <trkpt lat="45.25796" lon="6.13857">
        <ele>2490.8000488281</ele>
        <time>2019-05-01T10:55:35.000Z</time>
      </trkpt>
      <trkpt lat="45.25796" lon="6.13857">
        <ele>2491.3999023438</ele>
        <time>2019-05-01T10:55:39.000Z</time>
      </trkpt>
      <trkpt lat="45.25794" lon="6.13856">
        <ele>2491.6000976562</ele>
        <time>2019-05-01T10:55:42.000Z</time>
      </trkpt>
      <trkpt lat="45.25791" lon="6.13854">
        <ele>2492</ele>
        <time>2019-05-01T10:55:47.000Z</time>
      </trkpt>
      <trkpt lat="45.25789" lon="6.13854">
        <ele>2492.6000976562</ele>
        <time>2019-05-01T10:55:51.000Z</time>
      </trkpt>
      <trkpt lat="45.25788" lon="6.13853">
        <ele>2493</ele>
        <time>2019-05-01T10:55:53.000Z</time>
      </trkpt>
      <trkpt lat="45.25787" lon="6.13854">
        <ele>2493.8000488281</ele>
        <time>2019-05-01T10:55:57.000Z</time>
      </trkpt>
      <trkpt lat="45.25787" lon="6.13854">
        <ele>2494</ele>
        <time>2019-05-01T10:56:00.000Z</time>
      </trkpt>
      <trkpt lat="45.25789" lon="6.13859">
        <ele>2494.6000976562</ele>
        <time>2019-05-01T10:56:05.000Z</time>
      </trkpt>
      <trkpt lat="45.25791" lon="6.13863">
        <ele>2494.8000488281</ele>
        <time>2019-05-01T10:56:08.000Z</time>
      </trkpt>
      <trkpt lat="45.25792" lon="6.13865">
        <ele>2495</ele>
        <time>2019-05-01T10:56:09.000Z</time>
      </trkpt>
      <trkpt lat="45.25791" lon="6.13865">
        <ele>2495.1999511719</ele>
        <time>2019-05-01T10:56:10.000Z</time>
      </trkpt>
      <trkpt lat="45.25793" lon="6.13869">
        <ele>2495.8000488281</ele>
        <time>2019-05-01T10:56:15.000Z</time>
      </trkpt>
      <trkpt lat="45.25795" lon="6.13872">
        <ele>2497</ele>
        <time>2019-05-01T10:56:20.000Z</time>
      </trkpt>
      <trkpt lat="45.25796" lon="6.13872">
        <ele>2497.3999023438</ele>
        <time>2019-05-01T10:56:22.000Z</time>
      </trkpt>
      <trkpt lat="45.25796" lon="6.13871">
        <ele>2498</ele>
        <time>2019-05-01T10:56:25.000Z</time>
      </trkpt>
      <trkpt lat="45.25796" lon="6.13871">
        <ele>2498.1999511719</ele>
        <time>2019-05-01T10:56:27.000Z</time>
      </trkpt>
      <trkpt lat="45.25792" lon="6.1387">
        <ele>2498.1999511719</ele>
        <time>2019-05-01T10:56:33.000Z</time>
      </trkpt>
      <trkpt lat="45.25791" lon="6.1387">
        <ele>2498.3999023438</ele>
        <time>2019-05-01T10:56:35.000Z</time>
      </trkpt>
      <trkpt lat="45.25788" lon="6.13869">
        <ele>2499</ele>
        <time>2019-05-01T10:56:38.000Z</time>
      </trkpt>
      <trkpt lat="45.25786" lon="6.13868">
        <ele>2500</ele>
        <time>2019-05-01T10:56:43.000Z</time>
      </trkpt>
      <trkpt lat="45.25783" lon="6.13866">
        <ele>2501.1999511719</ele>
        <time>2019-05-01T10:56:50.000Z</time>
      </trkpt>
      <trkpt lat="45.25785" lon="6.13871">
        <ele>2502</ele>
        <time>2019-05-01T10:56:59.000Z</time>
      </trkpt>
      <trkpt lat="45.25785" lon="6.13873">
        <ele>2502.1999511719</ele>
        <time>2019-05-01T10:57:00.000Z</time>
      </trkpt>
      <trkpt lat="45.2579" lon="6.13879">
        <ele>2503.1999511719</ele>
        <time>2019-05-01T10:57:06.000Z</time>
      </trkpt>
      <trkpt lat="45.25791" lon="6.1388">
        <ele>2503.3999023438</ele>
        <time>2019-05-01T10:57:07.000Z</time>
      </trkpt>
      <trkpt lat="45.25794" lon="6.13883">
        <ele>2504.1999511719</ele>
        <time>2019-05-01T10:57:12.000Z</time>
      </trkpt>
      <trkpt lat="45.25794" lon="6.13883">
        <ele>2504.6000976562</ele>
        <time>2019-05-01T10:57:13.000Z</time>
      </trkpt>
      <trkpt lat="45.25791" lon="6.13882">
        <ele>2505</ele>
        <time>2019-05-01T10:57:19.000Z</time>
      </trkpt>
      <trkpt lat="45.25788" lon="6.13881">
        <ele>2505.6000976562</ele>
        <time>2019-05-01T10:57:23.000Z</time>
      </trkpt>
      <trkpt lat="45.25787" lon="6.13882">
        <ele>2506</ele>
        <time>2019-05-01T10:57:26.000Z</time>
      </trkpt>
      <trkpt lat="45.25784" lon="6.1388">
        <ele>2506.6000976562</ele>
        <time>2019-05-01T10:57:30.000Z</time>
      </trkpt>
      <trkpt lat="45.25784" lon="6.1388">
        <ele>2507.1999511719</ele>
        <time>2019-05-01T10:57:34.000Z</time>
      </trkpt>
      <trkpt lat="45.25785" lon="6.13883">
        <ele>2507.6000976562</ele>
        <time>2019-05-01T10:57:39.000Z</time>
      </trkpt>
      <trkpt lat="45.25786" lon="6.13886">
        <ele>2507.8000488281</ele>
        <time>2019-05-01T10:57:40.000Z</time>
      </trkpt>
      <trkpt lat="45.25787" lon="6.13888">
        <ele>2508.6000976562</ele>
        <time>2019-05-01T10:57:44.000Z</time>
      </trkpt>
      <trkpt lat="45.25787" lon="6.13891">
        <ele>2509.1999511719</ele>
        <time>2019-05-01T10:57:46.000Z</time>
      </trkpt>
      <trkpt lat="45.25789" lon="6.13894">
        <ele>2509.8000488281</ele>
        <time>2019-05-01T10:57:50.000Z</time>
      </trkpt>
      <trkpt lat="45.25792" lon="6.13897">
        <ele>2510.8000488281</ele>
        <time>2019-05-01T10:57:54.000Z</time>
      </trkpt>
      <trkpt lat="45.25791" lon="6.13897">
        <ele>2511</ele>
        <time>2019-05-01T10:57:55.000Z</time>
      </trkpt>
      <trkpt lat="45.25793" lon="6.13898">
        <ele>2511.8000488281</ele>
        <time>2019-05-01T10:57:59.000Z</time>
      </trkpt>
      <trkpt lat="45.25792" lon="6.139">
        <ele>2512.3999023438</ele>
        <time>2019-05-01T10:58:01.000Z</time>
      </trkpt>
      <trkpt lat="45.2579" lon="6.13904">
        <ele>2513.3999023438</ele>
        <time>2019-05-01T10:58:05.000Z</time>
      </trkpt>
      <trkpt lat="45.2579" lon="6.13904">
        <ele>2513.8000488281</ele>
        <time>2019-05-01T10:58:06.000Z</time>
      </trkpt>
      <trkpt lat="45.25788" lon="6.13907">
        <ele>2514.6000976562</ele>
        <time>2019-05-01T10:58:10.000Z</time>
      </trkpt>
      <trkpt lat="45.25788" lon="6.13907">
        <ele>2514.8000488281</ele>
        <time>2019-05-01T10:58:11.000Z</time>
      </trkpt>
      <trkpt lat="45.25787" lon="6.1391">
        <ele>2516</ele>
        <time>2019-05-01T10:58:15.000Z</time>
      </trkpt>
      <trkpt lat="45.25787" lon="6.13911">
        <ele>2516.3999023438</ele>
        <time>2019-05-01T10:58:17.000Z</time>
      </trkpt>
      <trkpt lat="45.25789" lon="6.13911">
        <ele>2517.1999511719</ele>
        <time>2019-05-01T10:58:20.000Z</time>
      </trkpt>
      <trkpt lat="45.25789" lon="6.13911">
        <ele>2517.6000976562</ele>
        <time>2019-05-01T10:58:22.000Z</time>
      </trkpt>
      <trkpt lat="45.2579" lon="6.13911">
        <ele>2518.1999511719</ele>
        <time>2019-05-01T10:58:26.000Z</time>
      </trkpt>
      <trkpt lat="45.2579" lon="6.13911">
        <ele>2518.3999023438</ele>
        <time>2019-05-01T10:58:27.000Z</time>
      </trkpt>
      <trkpt lat="45.2579" lon="6.13911">
        <ele>2518.8000488281</ele>
        <time>2019-05-01T10:58:39.000Z</time>
      </trkpt>
      <trkpt lat="45.25793" lon="6.13915">
        <ele>2518.6000976562</ele>
        <time>2019-05-01T10:58:44.000Z</time>
      </trkpt>
      <trkpt lat="45.25794" lon="6.13915">
        <ele>2518.6000976562</ele>
        <time>2019-05-01T10:58:50.000Z</time>
      </trkpt>
      <trkpt lat="45.25794" lon="6.13915">
        <ele>2518.6000976562</ele>
        <time>2019-05-01T10:59:02.000Z</time>
      </trkpt>
      <trkpt lat="45.25794" lon="6.13915">
        <ele>2518.6000976562</ele>
        <time>2019-05-01T10:59:14.000Z</time>
      </trkpt>
      <trkpt lat="45.25794" lon="6.13915">
        <ele>2518.6000976562</ele>
        <time>2019-05-01T10:59:29.000Z</time>
      </trkpt>
      <trkpt lat="45.25794" lon="6.13915">
        <ele>2518.3999023438</ele>
        <time>2019-05-01T10:59:42.000Z</time>
      </trkpt>
      <trkpt lat="45.25794" lon="6.13915">
        <ele>2518.6000976562</ele>
        <time>2019-05-01T10:59:56.000Z</time>
      </trkpt>
      <trkpt lat="45.25794" lon="6.13916">
        <ele>2518.6000976562</ele>
        <time>2019-05-01T11:00:02.000Z</time>
      </trkpt>
      <trkpt lat="45.25794" lon="6.13916">
        <ele>2518.6000976562</ele>
        <time>2019-05-01T11:00:10.000Z</time>
      </trkpt>
      <trkpt lat="45.25795" lon="6.13914">
        <ele>2518.3999023438</ele>
        <time>2019-05-01T11:00:26.000Z</time>
      </trkpt>
      <trkpt lat="45.25795" lon="6.13911">
        <ele>2518.6000976562</ele>
        <time>2019-05-01T11:00:36.000Z</time>
      </trkpt>
      <trkpt lat="45.25795" lon="6.1391">
        <ele>2518.6000976562</ele>
        <time>2019-05-01T11:00:45.000Z</time>
      </trkpt>
      <trkpt lat="45.25795" lon="6.1391">
        <ele>2518.6000976562</ele>
        <time>2019-05-01T11:01:00.000Z</time>
      </trkpt>
      <trkpt lat="45.25796" lon="6.13911">
        <ele>2518.6000976562</ele>
        <time>2019-05-01T11:01:03.000Z</time>
      </trkpt>
      <trkpt lat="45.25796" lon="6.13913">
        <ele>2518.6000976562</ele>
        <time>2019-05-01T11:01:05.000Z</time>
      </trkpt>
      <trkpt lat="45.25797" lon="6.13914">
        <ele>2518.6000976562</ele>
        <time>2019-05-01T11:01:07.000Z</time>
      </trkpt>
      <trkpt lat="45.25797" lon="6.13917">
        <ele>2518.6000976562</ele>
        <time>2019-05-01T11:01:09.000Z</time>
      </trkpt>
      <trkpt lat="45.25797" lon="6.13919">
        <ele>2518.8000488281</ele>
        <time>2019-05-01T11:01:14.000Z</time>
      </trkpt>
      <trkpt lat="45.25797" lon="6.13919">
        <ele>2518.8000488281</ele>
        <time>2019-05-01T11:01:28.000Z</time>
      </trkpt>
      <trkpt lat="45.25797" lon="6.13919">
        <ele>2519</ele>
        <time>2019-05-01T11:01:35.000Z</time>
      </trkpt>
      <trkpt lat="45.25797" lon="6.13919">
        <ele>2519</ele>
        <time>2019-05-01T11:01:42.000Z</time>
      </trkpt>
      <trkpt lat="45.25797" lon="6.13915">
        <ele>2519</ele>
        <time>2019-05-01T11:01:45.000Z</time>
      </trkpt>
      <trkpt lat="45.25797" lon="6.13914">
        <ele>2519</ele>
        <time>2019-05-01T11:01:47.000Z</time>
      </trkpt>
      <trkpt lat="45.25797" lon="6.13914">
        <ele>2518.8000488281</ele>
        <time>2019-05-01T11:01:57.000Z</time>
      </trkpt>
      <trkpt lat="45.25797" lon="6.13914">
        <ele>2519.1999511719</ele>
        <time>2019-05-01T11:02:08.000Z</time>
      </trkpt>
      <trkpt lat="45.25797" lon="6.13914">
        <ele>2519.3999023438</ele>
        <time>2019-05-01T11:02:09.000Z</time>
      </trkpt>
      <trkpt lat="45.25797" lon="6.13914">
        <ele>2519.6000976562</ele>
        <time>2019-05-01T11:02:20.000Z</time>
      </trkpt>
      <trkpt lat="45.25797" lon="6.13914">
        <ele>2519.6000976562</ele>
        <time>2019-05-01T11:02:29.000Z</time>
      </trkpt>
      <trkpt lat="45.25797" lon="6.13914">
        <ele>2519.6000976562</ele>
        <time>2019-05-01T11:02:42.000Z</time>
      </trkpt>
      <trkpt lat="45.25797" lon="6.13914">
        <ele>2519.6000976562</ele>
        <time>2019-05-01T11:02:59.000Z</time>
      </trkpt>
      <trkpt lat="45.25797" lon="6.13914">
        <ele>2519.8000488281</ele>
        <time>2019-05-01T11:03:07.000Z</time>
      </trkpt>
      <trkpt lat="45.25797" lon="6.13914">
        <ele>2519</ele>
        <time>2019-05-01T11:03:19.000Z</time>
      </trkpt>
      <trkpt lat="45.25797" lon="6.13914">
        <ele>2518.8000488281</ele>
        <time>2019-05-01T11:03:30.000Z</time>
      </trkpt>
      <trkpt lat="45.25797" lon="6.13914">
        <ele>2518.8000488281</ele>
        <time>2019-05-01T11:03:40.000Z</time>
      </trkpt>
      <trkpt lat="45.25797" lon="6.13914">
        <ele>2518.6000976562</ele>
        <time>2019-05-01T11:03:57.000Z</time>
      </trkpt>
      <trkpt lat="45.25797" lon="6.13914">
        <ele>2518.8000488281</ele>
        <time>2019-05-01T11:04:11.000Z</time>
      </trkpt>
      <trkpt lat="45.25797" lon="6.13914">
        <ele>2518.8000488281</ele>
        <time>2019-05-01T11:04:25.000Z</time>
      </trkpt>
      <trkpt lat="45.25797" lon="6.13914">
        <ele>2518.8000488281</ele>
        <time>2019-05-01T11:04:36.000Z</time>
      </trkpt>
      <trkpt lat="45.25797" lon="6.13913">
        <ele>2518.8000488281</ele>
        <time>2019-05-01T11:04:41.000Z</time>
      </trkpt>
      <trkpt lat="45.25796" lon="6.13914">
        <ele>2518.8000488281</ele>
        <time>2019-05-01T11:04:42.000Z</time>
      </trkpt>
      <trkpt lat="45.25795" lon="6.13916">
        <ele>2519</ele>
        <time>2019-05-01T11:04:46.000Z</time>
      </trkpt>
      <trkpt lat="45.25794" lon="6.13916">
        <ele>2519</ele>
        <time>2019-05-01T11:04:58.000Z</time>
      </trkpt>
      <trkpt lat="45.25795" lon="6.13916">
        <ele>2519.1999511719</ele>
        <time>2019-05-01T11:05:14.000Z</time>
      </trkpt>
      <trkpt lat="45.25796" lon="6.13911">
        <ele>2519</ele>
        <time>2019-05-01T11:05:20.000Z</time>
      </trkpt>
      <trkpt lat="45.25795" lon="6.13906">
        <ele>2519</ele>
        <time>2019-05-01T11:05:26.000Z</time>
      </trkpt>
      <trkpt lat="45.25796" lon="6.13907">
        <ele>2519.1999511719</ele>
        <time>2019-05-01T11:05:33.000Z</time>
      </trkpt>
      <trkpt lat="45.25796" lon="6.13909">
        <ele>2519.1999511719</ele>
        <time>2019-05-01T11:05:34.000Z</time>
      </trkpt>
      <trkpt lat="45.25797" lon="6.13911">
        <ele>2519.1999511719</ele>
        <time>2019-05-01T11:05:37.000Z</time>
      </trkpt>
      <trkpt lat="45.25798" lon="6.13911">
        <ele>2519</ele>
        <time>2019-05-01T11:05:43.000Z</time>
      </trkpt>
      <trkpt lat="45.25798" lon="6.13911">
        <ele>2518.8000488281</ele>
        <time>2019-05-01T11:05:51.000Z</time>
      </trkpt>
      <trkpt lat="45.25798" lon="6.13911">
        <ele>2519</ele>
        <time>2019-05-01T11:06:02.000Z</time>
      </trkpt>
      <trkpt lat="45.25798" lon="6.13911">
        <ele>2519</ele>
        <time>2019-05-01T11:06:14.000Z</time>
      </trkpt>
      <trkpt lat="45.25798" lon="6.13911">
        <ele>2519</ele>
        <time>2019-05-01T11:06:26.000Z</time>
      </trkpt>
      <trkpt lat="45.25798" lon="6.13911">
        <ele>2519</ele>
        <time>2019-05-01T11:06:40.000Z</time>
      </trkpt>
      <trkpt lat="45.25798" lon="6.13911">
        <ele>2519</ele>
        <time>2019-05-01T11:06:53.000Z</time>
      </trkpt>
      <trkpt lat="45.25798" lon="6.13911">
        <ele>2519</ele>
        <time>2019-05-01T11:07:08.000Z</time>
      </trkpt>
      <trkpt lat="45.25798" lon="6.13911">
        <ele>2519.1999511719</ele>
        <time>2019-05-01T11:07:16.000Z</time>
      </trkpt>
      <trkpt lat="45.25798" lon="6.13911">
        <ele>2519.3999023438</ele>
        <time>2019-05-01T11:07:29.000Z</time>
      </trkpt>
      <trkpt lat="45.25798" lon="6.13911">
        <ele>2519.1999511719</ele>
        <time>2019-05-01T11:07:43.000Z</time>
      </trkpt>
      <trkpt lat="45.25798" lon="6.13911">
        <ele>2519.3999023438</ele>
        <time>2019-05-01T11:07:57.000Z</time>
      </trkpt>
      <trkpt lat="45.25798" lon="6.13911">
        <ele>2519.3999023438</ele>
        <time>2019-05-01T11:07:59.000Z</time>
      </trkpt>
      <trkpt lat="45.25798" lon="6.13911">
        <ele>2519.1999511719</ele>
        <time>2019-05-01T11:08:07.000Z</time>
      </trkpt>
      <trkpt lat="45.25798" lon="6.13911">
        <ele>2519.3999023438</ele>
        <time>2019-05-01T11:08:15.000Z</time>
      </trkpt>
      <trkpt lat="45.25798" lon="6.13913">
        <ele>2519.3999023438</ele>
        <time>2019-05-01T11:08:17.000Z</time>
      </trkpt>
      <trkpt lat="45.25798" lon="6.13915">
        <ele>2519.6000976562</ele>
        <time>2019-05-01T11:08:23.000Z</time>
      </trkpt>
      <trkpt lat="45.25798" lon="6.13915">
        <ele>2519.6000976562</ele>
        <time>2019-05-01T11:08:41.000Z</time>
      </trkpt>
      <trkpt lat="45.25798" lon="6.13913">
        <ele>2519.6000976562</ele>
        <time>2019-05-01T11:08:46.000Z</time>
      </trkpt>
      <trkpt lat="45.25798" lon="6.13913">
        <ele>2519.6000976562</ele>
        <time>2019-05-01T11:08:56.000Z</time>
      </trkpt>
      <trkpt lat="45.25798" lon="6.13912">
        <ele>2519.6000976562</ele>
        <time>2019-05-01T11:09:13.000Z</time>
      </trkpt>
      <trkpt lat="45.25797" lon="6.1391">
        <ele>2519.6000976562</ele>
        <time>2019-05-01T11:09:18.000Z</time>
      </trkpt>
      <trkpt lat="45.25796" lon="6.13908">
        <ele>2519.6000976562</ele>
        <time>2019-05-01T11:09:24.000Z</time>
      </trkpt>
      <trkpt lat="45.25796" lon="6.13908">
        <ele>2519.6000976562</ele>
        <time>2019-05-01T11:09:40.000Z</time>
      </trkpt>
      <trkpt lat="45.25796" lon="6.13908">
        <ele>2519.6000976562</ele>
        <time>2019-05-01T11:09:52.000Z</time>
      </trkpt>
      <trkpt lat="45.25795" lon="6.13909">
        <ele>2519.6000976562</ele>
        <time>2019-05-01T11:09:53.000Z</time>
      </trkpt>
      <trkpt lat="45.25795" lon="6.13909">
        <ele>2519.3999023438</ele>
        <time>2019-05-01T11:10:01.000Z</time>
      </trkpt>
      <trkpt lat="45.25795" lon="6.13909">
        <ele>2519.3999023438</ele>
        <time>2019-05-01T11:10:18.000Z</time>
      </trkpt>
      <trkpt lat="45.25795" lon="6.13909">
        <ele>2519.3999023438</ele>
        <time>2019-05-01T11:10:22.000Z</time>
      </trkpt>
      <trkpt lat="45.25795" lon="6.13909">
        <ele>2519.3999023438</ele>
        <time>2019-05-01T11:10:45.000Z</time>
      </trkpt>
      <trkpt lat="45.25795" lon="6.1391">
        <ele>2519.3999023438</ele>
        <time>2019-05-01T11:10:52.000Z</time>
      </trkpt>
      <trkpt lat="45.25797" lon="6.13912">
        <ele>2519.6000976562</ele>
        <time>2019-05-01T11:10:55.000Z</time>
      </trkpt>
      <trkpt lat="45.25796" lon="6.13913">
        <ele>2519.6000976562</ele>
        <time>2019-05-01T11:10:57.000Z</time>
      </trkpt>
      <trkpt lat="45.25797" lon="6.13913">
        <ele>2519.6000976562</ele>
        <time>2019-05-01T11:11:02.000Z</time>
      </trkpt>
      <trkpt lat="45.25797" lon="6.13913">
        <ele>2519.8000488281</ele>
        <time>2019-05-01T11:11:16.000Z</time>
      </trkpt>
      <trkpt lat="45.25797" lon="6.13913">
        <ele>2519.8000488281</ele>
        <time>2019-05-01T11:11:35.000Z</time>
      </trkpt>
      <trkpt lat="45.25797" lon="6.13913">
        <ele>2519.8000488281</ele>
        <time>2019-05-01T11:11:48.000Z</time>
      </trkpt>
      <trkpt lat="45.25797" lon="6.13913">
        <ele>2519.8000488281</ele>
        <time>2019-05-01T11:12:03.000Z</time>
      </trkpt>
      <trkpt lat="45.25797" lon="6.13913">
        <ele>2519.8000488281</ele>
        <time>2019-05-01T11:12:22.000Z</time>
      </trkpt>
      <trkpt lat="45.25797" lon="6.13913">
        <ele>2520</ele>
        <time>2019-05-01T11:12:30.000Z</time>
      </trkpt>
      <trkpt lat="45.25797" lon="6.13913">
        <ele>2520</ele>
        <time>2019-05-01T11:12:48.000Z</time>
      </trkpt>
      <trkpt lat="45.25797" lon="6.13913">
        <ele>2520</ele>
        <time>2019-05-01T11:13:08.000Z</time>
      </trkpt>
      <trkpt lat="45.25797" lon="6.13913">
        <ele>2520</ele>
        <time>2019-05-01T11:13:15.000Z</time>
      </trkpt>
      <trkpt lat="45.25796" lon="6.13914">
        <ele>2520</ele>
        <time>2019-05-01T11:13:17.000Z</time>
      </trkpt>
      <trkpt lat="45.25796" lon="6.13916">
        <ele>2520</ele>
        <time>2019-05-01T11:13:22.000Z</time>
      </trkpt>
      <trkpt lat="45.25796" lon="6.13916">
        <ele>2520.1999511719</ele>
        <time>2019-05-01T11:13:41.000Z</time>
      </trkpt>
      <trkpt lat="45.25796" lon="6.13916">
        <ele>2520.3999023438</ele>
        <time>2019-05-01T11:13:54.000Z</time>
      </trkpt>
      <trkpt lat="45.25796" lon="6.13916">
        <ele>2520.1999511719</ele>
        <time>2019-05-01T11:14:08.000Z</time>
      </trkpt>
      <trkpt lat="45.25797" lon="6.13915">
        <ele>2520.1999511719</ele>
        <time>2019-05-01T11:14:16.000Z</time>
      </trkpt>
      <trkpt lat="45.25797" lon="6.13914">
        <ele>2520</ele>
        <time>2019-05-01T11:14:24.000Z</time>
      </trkpt>
      <trkpt lat="45.25797" lon="6.13914">
        <ele>2520</ele>
        <time>2019-05-01T11:14:41.000Z</time>
      </trkpt>
      <trkpt lat="45.25797" lon="6.13914">
        <ele>2520</ele>
        <time>2019-05-01T11:14:59.000Z</time>
      </trkpt>
      <trkpt lat="45.25797" lon="6.13914">
        <ele>2520</ele>
        <time>2019-05-01T11:15:10.000Z</time>
      </trkpt>
      <trkpt lat="45.25797" lon="6.13914">
        <ele>2520</ele>
        <time>2019-05-01T11:15:24.000Z</time>
      </trkpt>
      <trkpt lat="45.25797" lon="6.13914">
        <ele>2520</ele>
        <time>2019-05-01T11:15:41.000Z</time>
      </trkpt>
      <trkpt lat="45.25797" lon="6.13914">
        <ele>2520</ele>
        <time>2019-05-01T11:16:00.000Z</time>
      </trkpt>
      <trkpt lat="45.25797" lon="6.13914">
        <ele>2520</ele>
        <time>2019-05-01T11:16:10.000Z</time>
      </trkpt>
      <trkpt lat="45.25797" lon="6.13914">
        <ele>2520.1999511719</ele>
        <time>2019-05-01T11:16:29.000Z</time>
      </trkpt>
      <trkpt lat="45.25797" lon="6.13914">
        <ele>2520.1999511719</ele>
        <time>2019-05-01T11:16:46.000Z</time>
      </trkpt>
      <trkpt lat="45.25797" lon="6.13914">
        <ele>2520.1999511719</ele>
        <time>2019-05-01T11:17:06.000Z</time>
      </trkpt>
      <trkpt lat="45.25797" lon="6.13915">
        <ele>2520.3999023438</ele>
        <time>2019-05-01T11:17:17.000Z</time>
      </trkpt>
      <trkpt lat="45.25797" lon="6.13915">
        <ele>2520.3999023438</ele>
        <time>2019-05-01T11:17:18.000Z</time>
      </trkpt>
      <trkpt lat="45.25797" lon="6.13915">
        <ele>2520.3999023438</ele>
        <time>2019-05-01T11:17:31.000Z</time>
      </trkpt>
      <trkpt lat="45.25797" lon="6.13915">
        <ele>2520.3999023438</ele>
        <time>2019-05-01T11:17:34.000Z</time>
      </trkpt>
      <trkpt lat="45.25797" lon="6.13915">
        <ele>2520.3999023438</ele>
        <time>2019-05-01T11:17:42.000Z</time>
      </trkpt>
      <trkpt lat="45.25797" lon="6.13915">
        <ele>2520.3999023438</ele>
        <time>2019-05-01T11:17:49.000Z</time>
      </trkpt>
      <trkpt lat="45.25797" lon="6.13915">
        <ele>2520.3999023438</ele>
        <time>2019-05-01T11:18:07.000Z</time>
      </trkpt>
      <trkpt lat="45.25797" lon="6.13915">
        <ele>2520.3999023438</ele>
        <time>2019-05-01T11:18:16.000Z</time>
      </trkpt>
      <trkpt lat="45.25797" lon="6.13915">
        <ele>2520.3999023438</ele>
        <time>2019-05-01T11:18:31.000Z</time>
      </trkpt>
      <trkpt lat="45.25797" lon="6.13915">
        <ele>2520.3999023438</ele>
        <time>2019-05-01T11:18:48.000Z</time>
      </trkpt>
      <trkpt lat="45.25797" lon="6.13915">
        <ele>2520.6000976562</ele>
        <time>2019-05-01T11:19:01.000Z</time>
      </trkpt>
      <trkpt lat="45.25797" lon="6.13915">
        <ele>2520.3999023438</ele>
        <time>2019-05-01T11:19:13.000Z</time>
      </trkpt>
      <trkpt lat="45.25797" lon="6.13915">
        <ele>2520.3999023438</ele>
        <time>2019-05-01T11:19:26.000Z</time>
      </trkpt>
      <trkpt lat="45.25797" lon="6.13915">
        <ele>2520.3999023438</ele>
        <time>2019-05-01T11:19:38.000Z</time>
      </trkpt>
      <trkpt lat="45.25797" lon="6.13915">
        <ele>2520.3999023438</ele>
        <time>2019-05-01T11:19:53.000Z</time>
      </trkpt>
      <trkpt lat="45.25797" lon="6.13915">
        <ele>2520.3999023438</ele>
        <time>2019-05-01T11:20:08.000Z</time>
      </trkpt>
      <trkpt lat="45.25797" lon="6.13915">
        <ele>2520.6000976562</ele>
        <time>2019-05-01T11:20:23.000Z</time>
      </trkpt>
      <trkpt lat="45.25797" lon="6.13914">
        <ele>2520.6000976562</ele>
        <time>2019-05-01T11:20:33.000Z</time>
      </trkpt>
      <trkpt lat="45.25797" lon="6.13914">
        <ele>2520.6000976562</ele>
        <time>2019-05-01T11:20:48.000Z</time>
      </trkpt>
      <trkpt lat="45.25797" lon="6.13914">
        <ele>2520.6000976562</ele>
        <time>2019-05-01T11:21:01.000Z</time>
      </trkpt>
      <trkpt lat="45.25797" lon="6.13914">
        <ele>2520.3999023438</ele>
        <time>2019-05-01T11:21:13.000Z</time>
      </trkpt>
      <trkpt lat="45.25797" lon="6.13914">
        <ele>2520.6000976562</ele>
        <time>2019-05-01T11:21:32.000Z</time>
      </trkpt>
      <trkpt lat="45.25797" lon="6.13914">
        <ele>2520.3999023438</ele>
        <time>2019-05-01T11:21:52.000Z</time>
      </trkpt>
      <trkpt lat="45.25797" lon="6.13915">
        <ele>2520.3999023438</ele>
        <time>2019-05-01T11:22:03.000Z</time>
      </trkpt>
      <trkpt lat="45.25797" lon="6.13915">
        <ele>2520.3999023438</ele>
        <time>2019-05-01T11:22:19.000Z</time>
      </trkpt>
      <trkpt lat="45.25797" lon="6.13915">
        <ele>2520.3999023438</ele>
        <time>2019-05-01T11:22:30.000Z</time>
      </trkpt>
      <trkpt lat="45.25797" lon="6.13915">
        <ele>2520.3999023438</ele>
        <time>2019-05-01T11:22:35.000Z</time>
      </trkpt>
      <trkpt lat="45.25797" lon="6.13915">
        <ele>2520.3999023438</ele>
        <time>2019-05-01T11:22:51.000Z</time>
      </trkpt>
      <trkpt lat="45.25797" lon="6.13915">
        <ele>2520.3999023438</ele>
        <time>2019-05-01T11:23:06.000Z</time>
      </trkpt>
      <trkpt lat="45.25797" lon="6.13915">
        <ele>2520.3999023438</ele>
        <time>2019-05-01T11:23:20.000Z</time>
      </trkpt>
      <trkpt lat="45.25797" lon="6.13915">
        <ele>2520.3999023438</ele>
        <time>2019-05-01T11:23:39.000Z</time>
      </trkpt>
      <trkpt lat="45.25797" lon="6.13915">
        <ele>2520.3999023438</ele>
        <time>2019-05-01T11:23:48.000Z</time>
      </trkpt>
      <trkpt lat="45.25797" lon="6.13915">
        <ele>2520.3999023438</ele>
        <time>2019-05-01T11:23:56.000Z</time>
      </trkpt>
      <trkpt lat="45.25797" lon="6.13915">
        <ele>2520.3999023438</ele>
        <time>2019-05-01T11:24:11.000Z</time>
      </trkpt>
      <trkpt lat="45.25797" lon="6.13914">
        <ele>2520.3999023438</ele>
        <time>2019-05-01T11:24:25.000Z</time>
      </trkpt>
      <trkpt lat="45.25797" lon="6.13914">
        <ele>2520.3999023438</ele>
        <time>2019-05-01T11:24:37.000Z</time>
      </trkpt>
      <trkpt lat="45.25797" lon="6.13914">
        <ele>2520.3999023438</ele>
        <time>2019-05-01T11:24:54.000Z</time>
      </trkpt>
      <trkpt lat="45.25797" lon="6.13914">
        <ele>2520.1999511719</ele>
        <time>2019-05-01T11:25:06.000Z</time>
      </trkpt>
      <trkpt lat="45.25797" lon="6.13914">
        <ele>2520.1999511719</ele>
        <time>2019-05-01T11:25:32.000Z</time>
      </trkpt>
      <trkpt lat="45.25797" lon="6.13914">
        <ele>2520.1999511719</ele>
        <time>2019-05-01T11:25:48.000Z</time>
      </trkpt>
      <trkpt lat="45.25797" lon="6.13914">
        <ele>2520.1999511719</ele>
        <time>2019-05-01T11:26:09.000Z</time>
      </trkpt>
      <trkpt lat="45.25797" lon="6.13915">
        <ele>2520.1999511719</ele>
        <time>2019-05-01T11:26:26.000Z</time>
      </trkpt>
      <trkpt lat="45.25797" lon="6.13915">
        <ele>2520.1999511719</ele>
        <time>2019-05-01T11:26:49.000Z</time>
      </trkpt>
      <trkpt lat="45.25797" lon="6.13915">
        <ele>2520</ele>
        <time>2019-05-01T11:27:14.000Z</time>
      </trkpt>
      <trkpt lat="45.25797" lon="6.13915">
        <ele>2520</ele>
        <time>2019-05-01T11:27:39.000Z</time>
      </trkpt>
      <trkpt lat="45.25797" lon="6.13915">
        <ele>2520</ele>
        <time>2019-05-01T11:27:58.000Z</time>
      </trkpt>
      <trkpt lat="45.25797" lon="6.13915">
        <ele>2520</ele>
        <time>2019-05-01T11:28:13.000Z</time>
      </trkpt>
      <trkpt lat="45.25797" lon="6.13915">
        <ele>2520</ele>
        <time>2019-05-01T11:28:19.000Z</time>
      </trkpt>
      <trkpt lat="45.25797" lon="6.13915">
        <ele>2519.8000488281</ele>
        <time>2019-05-01T11:28:33.000Z</time>
      </trkpt>
      <trkpt lat="45.25797" lon="6.13915">
        <ele>2520</ele>
        <time>2019-05-01T11:28:48.000Z</time>
      </trkpt>
      <trkpt lat="45.25797" lon="6.13915">
        <ele>2520</ele>
        <time>2019-05-01T11:28:59.000Z</time>
      </trkpt>
      <trkpt lat="45.25797" lon="6.13915">
        <ele>2520</ele>
        <time>2019-05-01T11:29:13.000Z</time>
      </trkpt>
      <trkpt lat="45.25797" lon="6.13915">
        <ele>2520</ele>
        <time>2019-05-01T11:29:24.000Z</time>
      </trkpt>
      <trkpt lat="45.25797" lon="6.13916">
        <ele>2520</ele>
        <time>2019-05-01T11:29:32.000Z</time>
      </trkpt>
      <trkpt lat="45.25797" lon="6.13915">
        <ele>2519.6000976562</ele>
        <time>2019-05-01T11:29:40.000Z</time>
      </trkpt>
      <trkpt lat="45.25797" lon="6.13915">
        <ele>2519.6000976562</ele>
        <time>2019-05-01T11:30:01.000Z</time>
      </trkpt>
      <trkpt lat="45.25797" lon="6.13915">
        <ele>2519.3999023438</ele>
        <time>2019-05-01T11:30:19.000Z</time>
      </trkpt>
      <trkpt lat="45.25797" lon="6.13915">
        <ele>2519.6000976562</ele>
        <time>2019-05-01T11:30:45.000Z</time>
      </trkpt>
      <trkpt lat="45.25797" lon="6.13915">
        <ele>2519.6000976562</ele>
        <time>2019-05-01T11:31:04.000Z</time>
      </trkpt>
      <trkpt lat="45.25797" lon="6.13915">
        <ele>2519.6000976562</ele>
        <time>2019-05-01T11:31:26.000Z</time>
      </trkpt>
      <trkpt lat="45.25797" lon="6.13915">
        <ele>2519.6000976562</ele>
        <time>2019-05-01T11:31:45.000Z</time>
      </trkpt>
      <trkpt lat="45.25797" lon="6.13915">
        <ele>2519.6000976562</ele>
        <time>2019-05-01T11:32:04.000Z</time>
      </trkpt>
      <trkpt lat="45.25797" lon="6.13915">
        <ele>2519.8000488281</ele>
        <time>2019-05-01T11:32:26.000Z</time>
      </trkpt>
      <trkpt lat="45.25797" lon="6.13915">
        <ele>2519.8000488281</ele>
        <time>2019-05-01T11:32:49.000Z</time>
      </trkpt>
      <trkpt lat="45.25797" lon="6.13915">
        <ele>2519.6000976562</ele>
        <time>2019-05-01T11:33:11.000Z</time>
      </trkpt>
      <trkpt lat="45.25797" lon="6.13914">
        <ele>2519.8000488281</ele>
        <time>2019-05-01T11:33:42.000Z</time>
      </trkpt>
      <trkpt lat="45.25797" lon="6.13914">
        <ele>2519.8000488281</ele>
        <time>2019-05-01T11:34:06.000Z</time>
      </trkpt>
      <trkpt lat="45.25798" lon="6.13914">
        <ele>2519.8000488281</ele>
        <time>2019-05-01T11:34:29.000Z</time>
      </trkpt>
      <trkpt lat="45.25798" lon="6.13915">
        <ele>2520</ele>
        <time>2019-05-01T11:34:54.000Z</time>
      </trkpt>
      <trkpt lat="45.25798" lon="6.13915">
        <ele>2520</ele>
        <time>2019-05-01T11:35:09.000Z</time>
      </trkpt>
      <trkpt lat="45.25798" lon="6.13915">
        <ele>2520.1999511719</ele>
        <time>2019-05-01T11:35:12.000Z</time>
      </trkpt>
      <trkpt lat="45.25798" lon="6.13915">
        <ele>2520.3999023438</ele>
        <time>2019-05-01T11:35:23.000Z</time>
      </trkpt>
      <trkpt lat="45.25798" lon="6.13914">
        <ele>2520.6000976562</ele>
        <time>2019-05-01T11:35:37.000Z</time>
      </trkpt>
      <trkpt lat="45.25799" lon="6.13914">
        <ele>2520.6000976562</ele>
        <time>2019-05-01T11:35:44.000Z</time>
      </trkpt>
      <trkpt lat="45.25799" lon="6.13914">
        <ele>2520.6000976562</ele>
        <time>2019-05-01T11:35:55.000Z</time>
      </trkpt>
      <trkpt lat="45.25799" lon="6.13914">
        <ele>2520.6000976562</ele>
        <time>2019-05-01T11:36:05.000Z</time>
      </trkpt>
      <trkpt lat="45.25799" lon="6.13914">
        <ele>2520.6000976562</ele>
        <time>2019-05-01T11:36:13.000Z</time>
      </trkpt>
      <trkpt lat="45.25799" lon="6.13914">
        <ele>2520.6000976562</ele>
        <time>2019-05-01T11:36:25.000Z</time>
      </trkpt>
      <trkpt lat="45.25799" lon="6.13914">
        <ele>2520.6000976562</ele>
        <time>2019-05-01T11:36:36.000Z</time>
      </trkpt>
      <trkpt lat="45.25799" lon="6.13914">
        <ele>2520.6000976562</ele>
        <time>2019-05-01T11:36:48.000Z</time>
      </trkpt>
      <trkpt lat="45.25799" lon="6.13914">
        <ele>2520.6000976562</ele>
        <time>2019-05-01T11:36:59.000Z</time>
      </trkpt>
      <trkpt lat="45.25799" lon="6.13914">
        <ele>2520.6000976562</ele>
        <time>2019-05-01T11:37:13.000Z</time>
      </trkpt>
      <trkpt lat="45.25799" lon="6.13914">
        <ele>2520.6000976562</ele>
        <time>2019-05-01T11:37:28.000Z</time>
      </trkpt>
      <trkpt lat="45.25799" lon="6.13914">
        <ele>2520.6000976562</ele>
        <time>2019-05-01T11:37:43.000Z</time>
      </trkpt>
      <trkpt lat="45.25799" lon="6.13914">
        <ele>2520.6000976562</ele>
        <time>2019-05-01T11:37:58.000Z</time>
      </trkpt>
      <trkpt lat="45.25799" lon="6.13914">
        <ele>2520.6000976562</ele>
        <time>2019-05-01T11:38:15.000Z</time>
      </trkpt>
      <trkpt lat="45.25798" lon="6.13914">
        <ele>2520.6000976562</ele>
        <time>2019-05-01T11:38:32.000Z</time>
      </trkpt>
      <trkpt lat="45.25799" lon="6.13914">
        <ele>2520.6000976562</ele>
        <time>2019-05-01T11:38:45.000Z</time>
      </trkpt>
      <trkpt lat="45.25798" lon="6.13914">
        <ele>2520.8000488281</ele>
        <time>2019-05-01T11:38:55.000Z</time>
      </trkpt>
      <trkpt lat="45.25798" lon="6.13914">
        <ele>2520.6000976562</ele>
        <time>2019-05-01T11:39:08.000Z</time>
      </trkpt>
      <trkpt lat="45.25798" lon="6.13914">
        <ele>2520.3999023438</ele>
        <time>2019-05-01T11:39:22.000Z</time>
      </trkpt>
      <trkpt lat="45.25798" lon="6.13914">
        <ele>2520.3999023438</ele>
        <time>2019-05-01T11:39:32.000Z</time>
      </trkpt>
      <trkpt lat="45.25798" lon="6.13914">
        <ele>2520.6000976562</ele>
        <time>2019-05-01T11:39:47.000Z</time>
      </trkpt>
      <trkpt lat="45.25798" lon="6.13916">
        <ele>2520.3999023438</ele>
        <time>2019-05-01T11:39:59.000Z</time>
      </trkpt>
      <trkpt lat="45.25798" lon="6.13919">
        <ele>2520.3999023438</ele>
        <time>2019-05-01T11:40:06.000Z</time>
      </trkpt>
      <trkpt lat="45.25799" lon="6.1392">
        <ele>2520.3999023438</ele>
        <time>2019-05-01T11:40:07.000Z</time>
      </trkpt>
      <trkpt lat="45.25811" lon="6.13929">
        <ele>2520.3999023438</ele>
        <time>2019-05-01T11:40:10.000Z</time>
      </trkpt>
      <trkpt lat="45.25816" lon="6.13932">
        <ele>2520.1999511719</ele>
        <time>2019-05-01T11:40:11.000Z</time>
      </trkpt>
      <trkpt lat="45.25826" lon="6.13942">
        <ele>2518.8000488281</ele>
        <time>2019-05-01T11:40:14.000Z</time>
      </trkpt>
      <trkpt lat="45.25828" lon="6.13945">
        <ele>2518.1999511719</ele>
        <time>2019-05-01T11:40:15.000Z</time>
      </trkpt>
      <trkpt lat="45.25828" lon="6.13948">
        <ele>2517.3999023438</ele>
        <time>2019-05-01T11:40:16.000Z</time>
      </trkpt>
      <trkpt lat="45.25832" lon="6.13967">
        <ele>2516</ele>
        <time>2019-05-01T11:40:18.000Z</time>
      </trkpt>
      <trkpt lat="45.25836" lon="6.13975">
        <ele>2515</ele>
        <time>2019-05-01T11:40:19.000Z</time>
      </trkpt>
      <trkpt lat="45.25837" lon="6.13983">
        <ele>2513.6000976562</ele>
        <time>2019-05-01T11:40:20.000Z</time>
      </trkpt>
      <trkpt lat="45.25836" lon="6.13989">
        <ele>2512.1999511719</ele>
        <time>2019-05-01T11:40:21.000Z</time>
      </trkpt>
      <trkpt lat="45.25833" lon="6.13997">
        <ele>2510.8000488281</ele>
        <time>2019-05-01T11:40:22.000Z</time>
      </trkpt>
      <trkpt lat="45.25832" lon="6.14006">
        <ele>2509.3999023438</ele>
        <time>2019-05-01T11:40:23.000Z</time>
      </trkpt>
      <trkpt lat="45.25835" lon="6.14014">
        <ele>2507.6000976562</ele>
        <time>2019-05-01T11:40:24.000Z</time>
      </trkpt>
      <trkpt lat="45.25837" lon="6.14022">
        <ele>2505.6000976562</ele>
        <time>2019-05-01T11:40:25.000Z</time>
      </trkpt>
      <trkpt lat="45.25839" lon="6.14031">
        <ele>2503.3999023438</ele>
        <time>2019-05-01T11:40:26.000Z</time>
      </trkpt>
      <trkpt lat="45.25841" lon="6.14038">
        <ele>2501</ele>
        <time>2019-05-01T11:40:27.000Z</time>
      </trkpt>
      <trkpt lat="45.25844" lon="6.14045">
        <ele>2499</ele>
        <time>2019-05-01T11:40:28.000Z</time>
      </trkpt>
      <trkpt lat="45.25847" lon="6.14052">
        <ele>2497.3999023438</ele>
        <time>2019-05-01T11:40:29.000Z</time>
      </trkpt>
      <trkpt lat="45.2585" lon="6.14058">
        <ele>2495</ele>
        <time>2019-05-01T11:40:30.000Z</time>
      </trkpt>
      <trkpt lat="45.25853" lon="6.14063">
        <ele>2493.8000488281</ele>
        <time>2019-05-01T11:40:31.000Z</time>
      </trkpt>
      <trkpt lat="45.25854" lon="6.14067">
        <ele>2492.6000976562</ele>
        <time>2019-05-01T11:40:32.000Z</time>
      </trkpt>
      <trkpt lat="45.25854" lon="6.14067">
        <ele>2491.3999023438</ele>
        <time>2019-05-01T11:40:33.000Z</time>
      </trkpt>
      <trkpt lat="45.25849" lon="6.14062">
        <ele>2490.1999511719</ele>
        <time>2019-05-01T11:40:34.000Z</time>
      </trkpt>
      <trkpt lat="45.25846" lon="6.14061">
        <ele>2488.8000488281</ele>
        <time>2019-05-01T11:40:35.000Z</time>
      </trkpt>
      <trkpt lat="45.25845" lon="6.1406">
        <ele>2487.3999023438</ele>
        <time>2019-05-01T11:40:36.000Z</time>
      </trkpt>
      <trkpt lat="45.25844" lon="6.14059">
        <ele>2486.3999023438</ele>
        <time>2019-05-01T11:40:37.000Z</time>
      </trkpt>
      <trkpt lat="45.25843" lon="6.14058">
        <ele>2485.6000976562</ele>
        <time>2019-05-01T11:40:38.000Z</time>
      </trkpt>
      <trkpt lat="45.25843" lon="6.14058">
        <ele>2485</ele>
        <time>2019-05-01T11:40:39.000Z</time>
      </trkpt>
      <trkpt lat="45.25839" lon="6.14057">
        <ele>2484.3999023438</ele>
        <time>2019-05-01T11:40:49.000Z</time>
      </trkpt>
      <trkpt lat="45.25821" lon="6.14057">
        <ele>2484.1999511719</ele>
        <time>2019-05-01T11:40:52.000Z</time>
      </trkpt>
      <trkpt lat="45.25809" lon="6.14059">
        <ele>2483.1999511719</ele>
        <time>2019-05-01T11:40:54.000Z</time>
      </trkpt>
      <trkpt lat="45.258" lon="6.14066">
        <ele>2482</ele>
        <time>2019-05-01T11:40:56.000Z</time>
      </trkpt>
      <trkpt lat="45.25795" lon="6.14068">
        <ele>2481</ele>
        <time>2019-05-01T11:40:59.000Z</time>
      </trkpt>
      <trkpt lat="45.25795" lon="6.14068">
        <ele>2481.1999511719</ele>
        <time>2019-05-01T11:41:04.000Z</time>
      </trkpt>
      <trkpt lat="45.25795" lon="6.14068">
        <ele>2481.3999023438</ele>
        <time>2019-05-01T11:41:22.000Z</time>
      </trkpt>
      <trkpt lat="45.25795" lon="6.14068">
        <ele>2481</ele>
        <time>2019-05-01T11:41:37.000Z</time>
      </trkpt>
      <trkpt lat="45.25795" lon="6.14067">
        <ele>2481.1999511719</ele>
        <time>2019-05-01T11:41:49.000Z</time>
      </trkpt>
      <trkpt lat="45.25795" lon="6.14067">
        <ele>2481.1999511719</ele>
        <time>2019-05-01T11:42:02.000Z</time>
      </trkpt>
      <trkpt lat="45.25795" lon="6.14067">
        <ele>2481.1999511719</ele>
        <time>2019-05-01T11:42:13.000Z</time>
      </trkpt>
      <trkpt lat="45.25794" lon="6.14066">
        <ele>2481.3999023438</ele>
        <time>2019-05-01T11:42:26.000Z</time>
      </trkpt>
      <trkpt lat="45.25795" lon="6.14066">
        <ele>2481.1999511719</ele>
        <time>2019-05-01T11:42:31.000Z</time>
      </trkpt>
      <trkpt lat="45.25798" lon="6.14066">
        <ele>2481.1999511719</ele>
        <time>2019-05-01T11:42:32.000Z</time>
      </trkpt>
      <trkpt lat="45.25811" lon="6.14073">
        <ele>2481</ele>
        <time>2019-05-01T11:42:35.000Z</time>
      </trkpt>
      <trkpt lat="45.25807" lon="6.14085">
        <ele>2479.8000488281</ele>
        <time>2019-05-01T11:42:37.000Z</time>
      </trkpt>
      <trkpt lat="45.25811" lon="6.14103">
        <ele>2478.1999511719</ele>
        <time>2019-05-01T11:42:39.000Z</time>
      </trkpt>
      <trkpt lat="45.2582" lon="6.14116">
        <ele>2476</ele>
        <time>2019-05-01T11:42:41.000Z</time>
      </trkpt>
      <trkpt lat="45.25822" lon="6.14124">
        <ele>2474.8000488281</ele>
        <time>2019-05-01T11:42:42.000Z</time>
      </trkpt>
      <trkpt lat="45.25825" lon="6.14129">
        <ele>2473.6000976562</ele>
        <time>2019-05-01T11:42:43.000Z</time>
      </trkpt>
      <trkpt lat="45.25824" lon="6.14134">
        <ele>2472.3999023438</ele>
        <time>2019-05-01T11:42:44.000Z</time>
      </trkpt>
      <trkpt lat="45.25821" lon="6.14137">
        <ele>2471.1999511719</ele>
        <time>2019-05-01T11:42:45.000Z</time>
      </trkpt>
      <trkpt lat="45.25819" lon="6.14141">
        <ele>2470</ele>
        <time>2019-05-01T11:42:46.000Z</time>
      </trkpt>
      <trkpt lat="45.25821" lon="6.14149">
        <ele>2469</ele>
        <time>2019-05-01T11:42:47.000Z</time>
      </trkpt>
      <trkpt lat="45.25822" lon="6.14157">
        <ele>2467.8000488281</ele>
        <time>2019-05-01T11:42:48.000Z</time>
      </trkpt>
      <trkpt lat="45.25821" lon="6.14164">
        <ele>2466.3999023438</ele>
        <time>2019-05-01T11:42:49.000Z</time>
      </trkpt>
      <trkpt lat="45.25819" lon="6.14169">
        <ele>2464.6000976562</ele>
        <time>2019-05-01T11:42:50.000Z</time>
      </trkpt>
      <trkpt lat="45.25817" lon="6.1418">
        <ele>2462.6000976562</ele>
        <time>2019-05-01T11:42:51.000Z</time>
      </trkpt>
      <trkpt lat="45.25817" lon="6.14189">
        <ele>2460.3999023438</ele>
        <time>2019-05-01T11:42:52.000Z</time>
      </trkpt>
      <trkpt lat="45.25815" lon="6.14198">
        <ele>2458.1999511719</ele>
        <time>2019-05-01T11:42:53.000Z</time>
      </trkpt>
      <trkpt lat="45.25812" lon="6.14204">
        <ele>2453.1999511719</ele>
        <time>2019-05-01T11:42:54.000Z</time>
      </trkpt>
      <trkpt lat="45.25809" lon="6.14213">
        <ele>2450.8000488281</ele>
        <time>2019-05-01T11:42:55.000Z</time>
      </trkpt>
      <trkpt lat="45.25805" lon="6.14223">
        <ele>2448.1999511719</ele>
        <time>2019-05-01T11:42:56.000Z</time>
      </trkpt>
      <trkpt lat="45.25803" lon="6.14231">
        <ele>2445.8000488281</ele>
        <time>2019-05-01T11:42:57.000Z</time>
      </trkpt>
      <trkpt lat="45.25801" lon="6.14236">
        <ele>2443.3999023438</ele>
        <time>2019-05-01T11:42:58.000Z</time>
      </trkpt>
      <trkpt lat="45.25799" lon="6.14241">
        <ele>2441</ele>
        <time>2019-05-01T11:42:59.000Z</time>
      </trkpt>
      <trkpt lat="45.25794" lon="6.14244">
        <ele>2439</ele>
        <time>2019-05-01T11:43:00.000Z</time>
      </trkpt>
      <trkpt lat="45.25791" lon="6.14243">
        <ele>2437.6000976562</ele>
        <time>2019-05-01T11:43:01.000Z</time>
      </trkpt>
      <trkpt lat="45.25781" lon="6.14241">
        <ele>2435.6000976562</ele>
        <time>2019-05-01T11:43:03.000Z</time>
      </trkpt>
      <trkpt lat="45.25772" lon="6.14247">
        <ele>2433.8000488281</ele>
        <time>2019-05-01T11:43:05.000Z</time>
      </trkpt>
      <trkpt lat="45.25769" lon="6.14248">
        <ele>2432.8000488281</ele>
        <time>2019-05-01T11:43:06.000Z</time>
      </trkpt>
      <trkpt lat="45.25763" lon="6.14248">
        <ele>2431.6000976562</ele>
        <time>2019-05-01T11:43:07.000Z</time>
      </trkpt>
      <trkpt lat="45.25762" lon="6.14255">
        <ele>2430.3999023438</ele>
        <time>2019-05-01T11:43:08.000Z</time>
      </trkpt>
      <trkpt lat="45.2576" lon="6.1426">
        <ele>2428.8000488281</ele>
        <time>2019-05-01T11:43:09.000Z</time>
      </trkpt>
      <trkpt lat="45.25758" lon="6.14265">
        <ele>2427.3999023438</ele>
        <time>2019-05-01T11:43:10.000Z</time>
      </trkpt>
      <trkpt lat="45.25756" lon="6.14271">
        <ele>2425.8000488281</ele>
        <time>2019-05-01T11:43:11.000Z</time>
      </trkpt>
      <trkpt lat="45.25757" lon="6.14276">
        <ele>2424</ele>
        <time>2019-05-01T11:43:12.000Z</time>
      </trkpt>
      <trkpt lat="45.25757" lon="6.14281">
        <ele>2422.1999511719</ele>
        <time>2019-05-01T11:43:13.000Z</time>
      </trkpt>
      <trkpt lat="45.25756" lon="6.14283">
        <ele>2420.1999511719</ele>
        <time>2019-05-01T11:43:14.000Z</time>
      </trkpt>
      <trkpt lat="45.25754" lon="6.14288">
        <ele>2418.3999023438</ele>
        <time>2019-05-01T11:43:15.000Z</time>
      </trkpt>
      <trkpt lat="45.25753" lon="6.14292">
        <ele>2416.6000976562</ele>
        <time>2019-05-01T11:43:16.000Z</time>
      </trkpt>
      <trkpt lat="45.25752" lon="6.14294">
        <ele>2414.8000488281</ele>
        <time>2019-05-01T11:43:17.000Z</time>
      </trkpt>
      <trkpt lat="45.25752" lon="6.14295">
        <ele>2411.3999023438</ele>
        <time>2019-05-01T11:43:18.000Z</time>
      </trkpt>
      <trkpt lat="45.25752" lon="6.14294">
        <ele>2409.8000488281</ele>
        <time>2019-05-01T11:43:19.000Z</time>
      </trkpt>
      <trkpt lat="45.25752" lon="6.14293">
        <ele>2408.6000976562</ele>
        <time>2019-05-01T11:43:20.000Z</time>
      </trkpt>
      <trkpt lat="45.25752" lon="6.14293">
        <ele>2407.1999511719</ele>
        <time>2019-05-01T11:43:22.000Z</time>
      </trkpt>
      <trkpt lat="45.25751" lon="6.14293">
        <ele>2406.3999023438</ele>
        <time>2019-05-01T11:43:31.000Z</time>
      </trkpt>
      <trkpt lat="45.25746" lon="6.1429">
        <ele>2406.3999023438</ele>
        <time>2019-05-01T11:43:32.000Z</time>
      </trkpt>
      <trkpt lat="45.25741" lon="6.14289">
        <ele>2406.1999511719</ele>
        <time>2019-05-01T11:43:33.000Z</time>
      </trkpt>
      <trkpt lat="45.2574" lon="6.14294">
        <ele>2405.8000488281</ele>
        <time>2019-05-01T11:43:34.000Z</time>
      </trkpt>
      <trkpt lat="45.25739" lon="6.143">
        <ele>2405.1999511719</ele>
        <time>2019-05-01T11:43:35.000Z</time>
      </trkpt>
      <trkpt lat="45.25735" lon="6.14299">
        <ele>2404</ele>
        <time>2019-05-01T11:43:36.000Z</time>
      </trkpt>
      <trkpt lat="45.25732" lon="6.14302">
        <ele>2402.6000976562</ele>
        <time>2019-05-01T11:43:37.000Z</time>
      </trkpt>
      <trkpt lat="45.2573" lon="6.14309">
        <ele>2401</ele>
        <time>2019-05-01T11:43:38.000Z</time>
      </trkpt>
      <trkpt lat="45.25727" lon="6.14313">
        <ele>2399.1999511719</ele>
        <time>2019-05-01T11:43:39.000Z</time>
      </trkpt>
      <trkpt lat="45.25724" lon="6.14312">
        <ele>2397.1999511719</ele>
        <time>2019-05-01T11:43:40.000Z</time>
      </trkpt>
      <trkpt lat="45.25719" lon="6.14312">
        <ele>2395.1999511719</ele>
        <time>2019-05-01T11:43:41.000Z</time>
      </trkpt>
      <trkpt lat="45.25715" lon="6.14318">
        <ele>2390.8000488281</ele>
        <time>2019-05-01T11:43:42.000Z</time>
      </trkpt>
      <trkpt lat="45.25713" lon="6.14321">
        <ele>2388.6000976562</ele>
        <time>2019-05-01T11:43:43.000Z</time>
      </trkpt>
      <trkpt lat="45.25709" lon="6.14324">
        <ele>2386.6000976562</ele>
        <time>2019-05-01T11:43:44.000Z</time>
      </trkpt>
      <trkpt lat="45.25704" lon="6.14326">
        <ele>2384.1999511719</ele>
        <time>2019-05-01T11:43:45.000Z</time>
      </trkpt>
      <trkpt lat="45.25701" lon="6.14329">
        <ele>2381.8000488281</ele>
        <time>2019-05-01T11:43:46.000Z</time>
      </trkpt>
      <trkpt lat="45.25694" lon="6.14333">
        <ele>2379.6000976562</ele>
        <time>2019-05-01T11:43:47.000Z</time>
      </trkpt>
      <trkpt lat="45.25694" lon="6.1434">
        <ele>2377.6000976562</ele>
        <time>2019-05-01T11:43:48.000Z</time>
      </trkpt>
      <trkpt lat="45.25693" lon="6.14345">
        <ele>2376</ele>
        <time>2019-05-01T11:43:49.000Z</time>
      </trkpt>
      <trkpt lat="45.25692" lon="6.1435">
        <ele>2374.1999511719</ele>
        <time>2019-05-01T11:43:50.000Z</time>
      </trkpt>
      <trkpt lat="45.2569" lon="6.14355">
        <ele>2372.6000976562</ele>
        <time>2019-05-01T11:43:51.000Z</time>
      </trkpt>
      <trkpt lat="45.25687" lon="6.14358">
        <ele>2371.1999511719</ele>
        <time>2019-05-01T11:43:52.000Z</time>
      </trkpt>
      <trkpt lat="45.25684" lon="6.14359">
        <ele>2370</ele>
        <time>2019-05-01T11:43:53.000Z</time>
      </trkpt>
      <trkpt lat="45.25681" lon="6.14363">
        <ele>2369</ele>
        <time>2019-05-01T11:43:54.000Z</time>
      </trkpt>
      <trkpt lat="45.25678" lon="6.1437">
        <ele>2367.8000488281</ele>
        <time>2019-05-01T11:43:55.000Z</time>
      </trkpt>
      <trkpt lat="45.25676" lon="6.14376">
        <ele>2366.3999023438</ele>
        <time>2019-05-01T11:43:56.000Z</time>
      </trkpt>
      <trkpt lat="45.25674" lon="6.1438">
        <ele>2364.6000976562</ele>
        <time>2019-05-01T11:43:57.000Z</time>
      </trkpt>
      <trkpt lat="45.25674" lon="6.14384">
        <ele>2362.8000488281</ele>
        <time>2019-05-01T11:43:58.000Z</time>
      </trkpt>
      <trkpt lat="45.25674" lon="6.14387">
        <ele>2361</ele>
        <time>2019-05-01T11:43:59.000Z</time>
      </trkpt>
      <trkpt lat="45.25672" lon="6.14392">
        <ele>2359.3999023438</ele>
        <time>2019-05-01T11:44:00.000Z</time>
      </trkpt>
      <trkpt lat="45.25671" lon="6.14394">
        <ele>2358.3999023438</ele>
        <time>2019-05-01T11:44:01.000Z</time>
      </trkpt>
      <trkpt lat="45.25669" lon="6.14398">
        <ele>2357.1999511719</ele>
        <time>2019-05-01T11:44:03.000Z</time>
      </trkpt>
      <trkpt lat="45.25665" lon="6.14404">
        <ele>2356.1999511719</ele>
        <time>2019-05-01T11:44:05.000Z</time>
      </trkpt>
      <trkpt lat="45.25663" lon="6.14407">
        <ele>2355.1999511719</ele>
        <time>2019-05-01T11:44:06.000Z</time>
      </trkpt>
      <trkpt lat="45.2566" lon="6.14416">
        <ele>2353.8000488281</ele>
        <time>2019-05-01T11:44:09.000Z</time>
      </trkpt>
      <trkpt lat="45.25658" lon="6.14421">
        <ele>2353.1999511719</ele>
        <time>2019-05-01T11:44:11.000Z</time>
      </trkpt>
      <trkpt lat="45.25658" lon="6.14424">
        <ele>2352.8000488281</ele>
        <time>2019-05-01T11:44:13.000Z</time>
      </trkpt>
      <trkpt lat="45.25658" lon="6.14423">
        <ele>2352.3999023438</ele>
        <time>2019-05-01T11:44:15.000Z</time>
      </trkpt>
      <trkpt lat="45.25658" lon="6.14423">
        <ele>2352.1999511719</ele>
        <time>2019-05-01T11:44:22.000Z</time>
      </trkpt>
      <trkpt lat="45.25658" lon="6.14423">
        <ele>2352</ele>
        <time>2019-05-01T11:44:35.000Z</time>
      </trkpt>
      <trkpt lat="45.25658" lon="6.14423">
        <ele>2352</ele>
        <time>2019-05-01T11:44:47.000Z</time>
      </trkpt>
      <trkpt lat="45.25657" lon="6.14424">
        <ele>2352.1999511719</ele>
        <time>2019-05-01T11:44:57.000Z</time>
      </trkpt>
      <trkpt lat="45.25654" lon="6.14429">
        <ele>2351.6000976562</ele>
        <time>2019-05-01T11:45:01.000Z</time>
      </trkpt>
      <trkpt lat="45.25654" lon="6.14429">
        <ele>2351.1999511719</ele>
        <time>2019-05-01T11:45:13.000Z</time>
      </trkpt>
      <trkpt lat="45.25648" lon="6.14436">
        <ele>2351</ele>
        <time>2019-05-01T11:45:21.000Z</time>
      </trkpt>
      <trkpt lat="45.2564" lon="6.14446">
        <ele>2350.6000976562</ele>
        <time>2019-05-01T11:45:23.000Z</time>
      </trkpt>
      <trkpt lat="45.25635" lon="6.14452">
        <ele>2350.1999511719</ele>
        <time>2019-05-01T11:45:24.000Z</time>
      </trkpt>
      <trkpt lat="45.25623" lon="6.14457">
        <ele>2348.8000488281</ele>
        <time>2019-05-01T11:45:26.000Z</time>
      </trkpt>
      <trkpt lat="45.25617" lon="6.14465">
        <ele>2347.8000488281</ele>
        <time>2019-05-01T11:45:27.000Z</time>
      </trkpt>
      <trkpt lat="45.25612" lon="6.14472">
        <ele>2346.6000976562</ele>
        <time>2019-05-01T11:45:28.000Z</time>
      </trkpt>
      <trkpt lat="45.25606" lon="6.14479">
        <ele>2345.1999511719</ele>
        <time>2019-05-01T11:45:29.000Z</time>
      </trkpt>
      <trkpt lat="45.25601" lon="6.14485">
        <ele>2343.8000488281</ele>
        <time>2019-05-01T11:45:30.000Z</time>
      </trkpt>
      <trkpt lat="45.25596" lon="6.1449">
        <ele>2342.3999023438</ele>
        <time>2019-05-01T11:45:31.000Z</time>
      </trkpt>
      <trkpt lat="45.25591" lon="6.14495">
        <ele>2340.8000488281</ele>
        <time>2019-05-01T11:45:32.000Z</time>
      </trkpt>
      <trkpt lat="45.25588" lon="6.14502">
        <ele>2339.3999023438</ele>
        <time>2019-05-01T11:45:33.000Z</time>
      </trkpt>
      <trkpt lat="45.25584" lon="6.14508">
        <ele>2338.3999023438</ele>
        <time>2019-05-01T11:45:34.000Z</time>
      </trkpt>
      <trkpt lat="45.25576" lon="6.14508">
        <ele>2337.3999023438</ele>
        <time>2019-05-01T11:45:35.000Z</time>
      </trkpt>
      <trkpt lat="45.25571" lon="6.14516">
        <ele>2336.1999511719</ele>
        <time>2019-05-01T11:45:36.000Z</time>
      </trkpt>
      <trkpt lat="45.25568" lon="6.14525">
        <ele>2335.1999511719</ele>
        <time>2019-05-01T11:45:37.000Z</time>
      </trkpt>
      <trkpt lat="45.25564" lon="6.14529">
        <ele>2334.1999511719</ele>
        <time>2019-05-01T11:45:38.000Z</time>
      </trkpt>
      <trkpt lat="45.25561" lon="6.14539">
        <ele>2333.1999511719</ele>
        <time>2019-05-01T11:45:39.000Z</time>
      </trkpt>
      <trkpt lat="45.25564" lon="6.14549">
        <ele>2332.3999023438</ele>
        <time>2019-05-01T11:45:40.000Z</time>
      </trkpt>
      <trkpt lat="45.25568" lon="6.14554">
        <ele>2331.3999023438</ele>
        <time>2019-05-01T11:45:41.000Z</time>
      </trkpt>
      <trkpt lat="45.25568" lon="6.1456">
        <ele>2329.3999023438</ele>
        <time>2019-05-01T11:45:42.000Z</time>
      </trkpt>
      <trkpt lat="45.25566" lon="6.14566">
        <ele>2328.3999023438</ele>
        <time>2019-05-01T11:45:43.000Z</time>
      </trkpt>
      <trkpt lat="45.25566" lon="6.14572">
        <ele>2327.3999023438</ele>
        <time>2019-05-01T11:45:44.000Z</time>
      </trkpt>
      <trkpt lat="45.25566" lon="6.14581">
        <ele>2326.3999023438</ele>
        <time>2019-05-01T11:45:45.000Z</time>
      </trkpt>
      <trkpt lat="45.25567" lon="6.1459">
        <ele>2325</ele>
        <time>2019-05-01T11:45:46.000Z</time>
      </trkpt>
      <trkpt lat="45.25565" lon="6.14596">
        <ele>2323.3999023438</ele>
        <time>2019-05-01T11:45:47.000Z</time>
      </trkpt>
      <trkpt lat="45.25564" lon="6.146">
        <ele>2321.8000488281</ele>
        <time>2019-05-01T11:45:48.000Z</time>
      </trkpt>
      <trkpt lat="45.2556" lon="6.14605">
        <ele>2320.1999511719</ele>
        <time>2019-05-01T11:45:49.000Z</time>
      </trkpt>
      <trkpt lat="45.25558" lon="6.14613">
        <ele>2318.3999023438</ele>
        <time>2019-05-01T11:45:50.000Z</time>
      </trkpt>
      <trkpt lat="45.25557" lon="6.14622">
        <ele>2316.3999023438</ele>
        <time>2019-05-01T11:45:51.000Z</time>
      </trkpt>
      <trkpt lat="45.25559" lon="6.14629">
        <ele>2314.1999511719</ele>
        <time>2019-05-01T11:45:52.000Z</time>
      </trkpt>
      <trkpt lat="45.25559" lon="6.14638">
        <ele>2312</ele>
        <time>2019-05-01T11:45:53.000Z</time>
      </trkpt>
      <trkpt lat="45.25558" lon="6.14644">
        <ele>2310</ele>
        <time>2019-05-01T11:45:54.000Z</time>
      </trkpt>
      <trkpt lat="45.25556" lon="6.14647">
        <ele>2308.3999023438</ele>
        <time>2019-05-01T11:45:55.000Z</time>
      </trkpt>
      <trkpt lat="45.25553" lon="6.14646">
        <ele>2307</ele>
        <time>2019-05-01T11:45:56.000Z</time>
      </trkpt>
      <trkpt lat="45.2555" lon="6.14644">
        <ele>2305.8000488281</ele>
        <time>2019-05-01T11:45:57.000Z</time>
      </trkpt>
      <trkpt lat="45.25543" lon="6.14645">
        <ele>2304.6000976562</ele>
        <time>2019-05-01T11:45:58.000Z</time>
      </trkpt>
      <trkpt lat="45.25537" lon="6.14648">
        <ele>2303</ele>
        <time>2019-05-01T11:45:59.000Z</time>
      </trkpt>
      <trkpt lat="45.25533" lon="6.14652">
        <ele>2301.1999511719</ele>
        <time>2019-05-01T11:46:00.000Z</time>
      </trkpt>
      <trkpt lat="45.25533" lon="6.14665">
        <ele>2299.1999511719</ele>
        <time>2019-05-01T11:46:01.000Z</time>
      </trkpt>
      <trkpt lat="45.2553" lon="6.14671">
        <ele>2297</ele>
        <time>2019-05-01T11:46:02.000Z</time>
      </trkpt>
      <trkpt lat="45.25528" lon="6.14678">
        <ele>2294.8000488281</ele>
        <time>2019-05-01T11:46:03.000Z</time>
      </trkpt>
      <trkpt lat="45.25523" lon="6.14681">
        <ele>2292.6000976562</ele>
        <time>2019-05-01T11:46:04.000Z</time>
      </trkpt>
      <trkpt lat="45.25515" lon="6.14687">
        <ele>2290.6000976562</ele>
        <time>2019-05-01T11:46:05.000Z</time>
      </trkpt>
      <trkpt lat="45.2551" lon="6.14694">
        <ele>2285.8000488281</ele>
        <time>2019-05-01T11:46:06.000Z</time>
      </trkpt>
      <trkpt lat="45.25506" lon="6.14702">
        <ele>2283.3999023438</ele>
        <time>2019-05-01T11:46:07.000Z</time>
      </trkpt>
      <trkpt lat="45.25501" lon="6.1471">
        <ele>2280.8000488281</ele>
        <time>2019-05-01T11:46:08.000Z</time>
      </trkpt>
      <trkpt lat="45.25497" lon="6.14722">
        <ele>2278.3999023438</ele>
        <time>2019-05-01T11:46:09.000Z</time>
      </trkpt>
      <trkpt lat="45.25496" lon="6.14736">
        <ele>2276.1999511719</ele>
        <time>2019-05-01T11:46:10.000Z</time>
      </trkpt>
      <trkpt lat="45.25496" lon="6.14749">
        <ele>2274.1999511719</ele>
        <time>2019-05-01T11:46:11.000Z</time>
      </trkpt>
      <trkpt lat="45.25495" lon="6.1476">
        <ele>2272</ele>
        <time>2019-05-01T11:46:12.000Z</time>
      </trkpt>
      <trkpt lat="45.25494" lon="6.14766">
        <ele>2269.6000976562</ele>
        <time>2019-05-01T11:46:13.000Z</time>
      </trkpt>
      <trkpt lat="45.25491" lon="6.14768">
        <ele>2267.6000976562</ele>
        <time>2019-05-01T11:46:14.000Z</time>
      </trkpt>
      <trkpt lat="45.25489" lon="6.14771">
        <ele>2266.1999511719</ele>
        <time>2019-05-01T11:46:15.000Z</time>
      </trkpt>
      <trkpt lat="45.25487" lon="6.1478">
        <ele>2265</ele>
        <time>2019-05-01T11:46:16.000Z</time>
      </trkpt>
      <trkpt lat="45.25485" lon="6.14789">
        <ele>2263.8000488281</ele>
        <time>2019-05-01T11:46:17.000Z</time>
      </trkpt>
      <trkpt lat="45.25486" lon="6.14798">
        <ele>2262.3999023438</ele>
        <time>2019-05-01T11:46:18.000Z</time>
      </trkpt>
      <trkpt lat="45.25482" lon="6.14806">
        <ele>2260.6000976562</ele>
        <time>2019-05-01T11:46:19.000Z</time>
      </trkpt>
      <trkpt lat="45.2548" lon="6.14813">
        <ele>2258.3999023438</ele>
        <time>2019-05-01T11:46:20.000Z</time>
      </trkpt>
      <trkpt lat="45.2548" lon="6.14819">
        <ele>2256.3999023438</ele>
        <time>2019-05-01T11:46:21.000Z</time>
      </trkpt>
      <trkpt lat="45.25481" lon="6.14821">
        <ele>2254.6000976562</ele>
        <time>2019-05-01T11:46:22.000Z</time>
      </trkpt>
      <trkpt lat="45.25481" lon="6.14822">
        <ele>2253</ele>
        <time>2019-05-01T11:46:23.000Z</time>
      </trkpt>
      <trkpt lat="45.2548" lon="6.14821">
        <ele>2251.3999023438</ele>
        <time>2019-05-01T11:46:24.000Z</time>
      </trkpt>
      <trkpt lat="45.2548" lon="6.14821">
        <ele>2250.1999511719</ele>
        <time>2019-05-01T11:46:25.000Z</time>
      </trkpt>
      <trkpt lat="45.25479" lon="6.14821">
        <ele>2248.8000488281</ele>
        <time>2019-05-01T11:46:27.000Z</time>
      </trkpt>
      <trkpt lat="45.25479" lon="6.14815">
        <ele>2247.6000976562</ele>
        <time>2019-05-01T11:46:30.000Z</time>
      </trkpt>
      <trkpt lat="45.25479" lon="6.14815">
        <ele>2246.6000976562</ele>
        <time>2019-05-01T11:46:43.000Z</time>
      </trkpt>
      <trkpt lat="45.25479" lon="6.14815">
        <ele>2246.6000976562</ele>
        <time>2019-05-01T11:46:51.000Z</time>
      </trkpt>
      <trkpt lat="45.25479" lon="6.14815">
        <ele>2246.6000976562</ele>
        <time>2019-05-01T11:46:56.000Z</time>
      </trkpt>
      <trkpt lat="45.25479" lon="6.14811">
        <ele>2246.8000488281</ele>
        <time>2019-05-01T11:47:12.000Z</time>
      </trkpt>
      <trkpt lat="45.25479" lon="6.14811">
        <ele>2246.6000976562</ele>
        <time>2019-05-01T11:47:22.000Z</time>
      </trkpt>
      <trkpt lat="45.25479" lon="6.14811">
        <ele>2246.6000976562</ele>
        <time>2019-05-01T11:47:39.000Z</time>
      </trkpt>
      <trkpt lat="45.25478" lon="6.1481">
        <ele>2246.6000976562</ele>
        <time>2019-05-01T11:48:01.000Z</time>
      </trkpt>
      <trkpt lat="45.25478" lon="6.1481">
        <ele>2246.6000976562</ele>
        <time>2019-05-01T11:48:15.000Z</time>
      </trkpt>
      <trkpt lat="45.25467" lon="6.14795">
        <ele>2246.3999023438</ele>
        <time>2019-05-01T11:48:18.000Z</time>
      </trkpt>
      <trkpt lat="45.25465" lon="6.14801">
        <ele>2246.1999511719</ele>
        <time>2019-05-01T11:48:19.000Z</time>
      </trkpt>
      <trkpt lat="45.25462" lon="6.1481">
        <ele>2245.8000488281</ele>
        <time>2019-05-01T11:48:20.000Z</time>
      </trkpt>
      <trkpt lat="45.2546" lon="6.14818">
        <ele>2245.1999511719</ele>
        <time>2019-05-01T11:48:21.000Z</time>
      </trkpt>
      <trkpt lat="45.25455" lon="6.14825">
        <ele>2244.1999511719</ele>
        <time>2019-05-01T11:48:22.000Z</time>
      </trkpt>
      <trkpt lat="45.25451" lon="6.14833">
        <ele>2242.8000488281</ele>
        <time>2019-05-01T11:48:23.000Z</time>
      </trkpt>
      <trkpt lat="45.2545" lon="6.14843">
        <ele>2241.1999511719</ele>
        <time>2019-05-01T11:48:24.000Z</time>
      </trkpt>
      <trkpt lat="45.25451" lon="6.14854">
        <ele>2239.3999023438</ele>
        <time>2019-05-01T11:48:25.000Z</time>
      </trkpt>
      <trkpt lat="45.25451" lon="6.14863">
        <ele>2237.1999511719</ele>
        <time>2019-05-01T11:48:26.000Z</time>
      </trkpt>
      <trkpt lat="45.25449" lon="6.14872">
        <ele>2235</ele>
        <time>2019-05-01T11:48:27.000Z</time>
      </trkpt>
      <trkpt lat="45.25446" lon="6.14881">
        <ele>2232.8000488281</ele>
        <time>2019-05-01T11:48:28.000Z</time>
      </trkpt>
      <trkpt lat="45.25444" lon="6.14891">
        <ele>2231</ele>
        <time>2019-05-01T11:48:29.000Z</time>
      </trkpt>
      <trkpt lat="45.25442" lon="6.149">
        <ele>2229.3999023438</ele>
        <time>2019-05-01T11:48:30.000Z</time>
      </trkpt>
      <trkpt lat="45.25438" lon="6.14908">
        <ele>2226</ele>
        <time>2019-05-01T11:48:31.000Z</time>
      </trkpt>
      <trkpt lat="45.25433" lon="6.14917">
        <ele>2223.8000488281</ele>
        <time>2019-05-01T11:48:32.000Z</time>
      </trkpt>
      <trkpt lat="45.25432" lon="6.14925">
        <ele>2221.6000976562</ele>
        <time>2019-05-01T11:48:33.000Z</time>
      </trkpt>
      <trkpt lat="45.25433" lon="6.14933">
        <ele>2219.6000976562</ele>
        <time>2019-05-01T11:48:34.000Z</time>
      </trkpt>
      <trkpt lat="45.25433" lon="6.1494">
        <ele>2217.8000488281</ele>
        <time>2019-05-01T11:48:35.000Z</time>
      </trkpt>
      <trkpt lat="45.25429" lon="6.14945">
        <ele>2216.1999511719</ele>
        <time>2019-05-01T11:48:36.000Z</time>
      </trkpt>
      <trkpt lat="45.25425" lon="6.14945">
        <ele>2215</ele>
        <time>2019-05-01T11:48:37.000Z</time>
      </trkpt>
      <trkpt lat="45.2542" lon="6.14945">
        <ele>2214</ele>
        <time>2019-05-01T11:48:38.000Z</time>
      </trkpt>
      <trkpt lat="45.25414" lon="6.14948">
        <ele>2213</ele>
        <time>2019-05-01T11:48:39.000Z</time>
      </trkpt>
      <trkpt lat="45.25408" lon="6.14951">
        <ele>2212</ele>
        <time>2019-05-01T11:48:40.000Z</time>
      </trkpt>
      <trkpt lat="45.25401" lon="6.14955">
        <ele>2211</ele>
        <time>2019-05-01T11:48:41.000Z</time>
      </trkpt>
      <trkpt lat="45.25394" lon="6.1496">
        <ele>2209.6000976562</ele>
        <time>2019-05-01T11:48:42.000Z</time>
      </trkpt>
      <trkpt lat="45.25391" lon="6.14969">
        <ele>2208</ele>
        <time>2019-05-01T11:48:43.000Z</time>
      </trkpt>
      <trkpt lat="45.25387" lon="6.14978">
        <ele>2206.1999511719</ele>
        <time>2019-05-01T11:48:44.000Z</time>
      </trkpt>
      <trkpt lat="45.25382" lon="6.14988">
        <ele>2204.6000976562</ele>
        <time>2019-05-01T11:48:45.000Z</time>
      </trkpt>
      <trkpt lat="45.25374" lon="6.14998">
        <ele>2203</ele>
        <time>2019-05-01T11:48:46.000Z</time>
      </trkpt>
      <trkpt lat="45.25369" lon="6.15004">
        <ele>2201.3999023438</ele>
        <time>2019-05-01T11:48:47.000Z</time>
      </trkpt>
      <trkpt lat="45.25364" lon="6.15007">
        <ele>2199.3999023438</ele>
        <time>2019-05-01T11:48:48.000Z</time>
      </trkpt>
      <trkpt lat="45.25361" lon="6.15013">
        <ele>2197.6000976562</ele>
        <time>2019-05-01T11:48:49.000Z</time>
      </trkpt>
      <trkpt lat="45.25361" lon="6.15017">
        <ele>2196.1999511719</ele>
        <time>2019-05-01T11:48:50.000Z</time>
      </trkpt>
      <trkpt lat="45.25365" lon="6.1503">
        <ele>2195.1999511719</ele>
        <time>2019-05-01T11:48:51.000Z</time>
      </trkpt>
      <trkpt lat="45.25367" lon="6.15046">
        <ele>2193.6000976562</ele>
        <time>2019-05-01T11:48:53.000Z</time>
      </trkpt>
      <trkpt lat="45.25364" lon="6.15055">
        <ele>2192.6000976562</ele>
        <time>2019-05-01T11:48:54.000Z</time>
      </trkpt>
      <trkpt lat="45.25363" lon="6.15066">
        <ele>2190.3999023438</ele>
        <time>2019-05-01T11:48:55.000Z</time>
      </trkpt>
      <trkpt lat="45.25364" lon="6.15074">
        <ele>2189</ele>
        <time>2019-05-01T11:48:56.000Z</time>
      </trkpt>
      <trkpt lat="45.25361" lon="6.15083">
        <ele>2187.6000976562</ele>
        <time>2019-05-01T11:48:57.000Z</time>
      </trkpt>
      <trkpt lat="45.25356" lon="6.15089">
        <ele>2185.8000488281</ele>
        <time>2019-05-01T11:48:58.000Z</time>
      </trkpt>
      <trkpt lat="45.25352" lon="6.15093">
        <ele>2184</ele>
        <time>2019-05-01T11:48:59.000Z</time>
      </trkpt>
      <trkpt lat="45.25349" lon="6.15096">
        <ele>2182.1999511719</ele>
        <time>2019-05-01T11:49:00.000Z</time>
      </trkpt>
      <trkpt lat="45.25347" lon="6.15099">
        <ele>2180.6000976562</ele>
        <time>2019-05-01T11:49:01.000Z</time>
      </trkpt>
      <trkpt lat="45.25346" lon="6.151">
        <ele>2179.1999511719</ele>
        <time>2019-05-01T11:49:02.000Z</time>
      </trkpt>
      <trkpt lat="45.25346" lon="6.151">
        <ele>2178</ele>
        <time>2019-05-01T11:49:03.000Z</time>
      </trkpt>
      <trkpt lat="45.25345" lon="6.15099">
        <ele>2176.3999023438</ele>
        <time>2019-05-01T11:49:05.000Z</time>
      </trkpt>
      <trkpt lat="45.25344" lon="6.15094">
        <ele>2175.3999023438</ele>
        <time>2019-05-01T11:49:15.000Z</time>
      </trkpt>
      <trkpt lat="45.25343" lon="6.15093">
        <ele>2175.3999023438</ele>
        <time>2019-05-01T11:49:24.000Z</time>
      </trkpt>
      <trkpt lat="45.25344" lon="6.15094">
        <ele>2175.3999023438</ele>
        <time>2019-05-01T11:49:26.000Z</time>
      </trkpt>
      <trkpt lat="45.25342" lon="6.15102">
        <ele>2175.3999023438</ele>
        <time>2019-05-01T11:49:28.000Z</time>
      </trkpt>
      <trkpt lat="45.25338" lon="6.15116">
        <ele>2175</ele>
        <time>2019-05-01T11:49:30.000Z</time>
      </trkpt>
      <trkpt lat="45.25329" lon="6.15132">
        <ele>2173.6000976562</ele>
        <time>2019-05-01T11:49:32.000Z</time>
      </trkpt>
      <trkpt lat="45.25324" lon="6.15142">
        <ele>2172.6000976562</ele>
        <time>2019-05-01T11:49:33.000Z</time>
      </trkpt>
      <trkpt lat="45.25319" lon="6.15155">
        <ele>2171</ele>
        <time>2019-05-01T11:49:34.000Z</time>
      </trkpt>
      <trkpt lat="45.25315" lon="6.1517">
        <ele>2169.1999511719</ele>
        <time>2019-05-01T11:49:35.000Z</time>
      </trkpt>
      <trkpt lat="45.25312" lon="6.15186">
        <ele>2167</ele>
        <time>2019-05-01T11:49:36.000Z</time>
      </trkpt>
      <trkpt lat="45.25309" lon="6.15202">
        <ele>2164.3999023438</ele>
        <time>2019-05-01T11:49:37.000Z</time>
      </trkpt>
      <trkpt lat="45.25305" lon="6.15217">
        <ele>2161.6000976562</ele>
        <time>2019-05-01T11:49:38.000Z</time>
      </trkpt>
      <trkpt lat="45.25301" lon="6.15232">
        <ele>2158.8000488281</ele>
        <time>2019-05-01T11:49:39.000Z</time>
      </trkpt>
      <trkpt lat="45.25293" lon="6.15247">
        <ele>2156</ele>
        <time>2019-05-01T11:49:40.000Z</time>
      </trkpt>
      <trkpt lat="45.25286" lon="6.1526">
        <ele>2153.6000976562</ele>
        <time>2019-05-01T11:49:41.000Z</time>
      </trkpt>
      <trkpt lat="45.25281" lon="6.15275">
        <ele>2151.3999023438</ele>
        <time>2019-05-01T11:49:42.000Z</time>
      </trkpt>
      <trkpt lat="45.25277" lon="6.1529">
        <ele>2147.3999023438</ele>
        <time>2019-05-01T11:49:43.000Z</time>
      </trkpt>
      <trkpt lat="45.25272" lon="6.15305">
        <ele>2145.6000976562</ele>
        <time>2019-05-01T11:49:44.000Z</time>
      </trkpt>
      <trkpt lat="45.25267" lon="6.15318">
        <ele>2144</ele>
        <time>2019-05-01T11:49:45.000Z</time>
      </trkpt>
      <trkpt lat="45.25262" lon="6.15332">
        <ele>2142.6000976562</ele>
        <time>2019-05-01T11:49:46.000Z</time>
      </trkpt>
      <trkpt lat="45.25256" lon="6.15344">
        <ele>2141.3999023438</ele>
        <time>2019-05-01T11:49:47.000Z</time>
      </trkpt>
      <trkpt lat="45.25252" lon="6.15355">
        <ele>2140.1999511719</ele>
        <time>2019-05-01T11:49:48.000Z</time>
      </trkpt>
      <trkpt lat="45.25245" lon="6.15372">
        <ele>2138.3999023438</ele>
        <time>2019-05-01T11:49:50.000Z</time>
      </trkpt>
      <trkpt lat="45.25244" lon="6.15381">
        <ele>2137.8000488281</ele>
        <time>2019-05-01T11:49:51.000Z</time>
      </trkpt>
      <trkpt lat="45.25243" lon="6.1539">
        <ele>2137.3999023438</ele>
        <time>2019-05-01T11:49:52.000Z</time>
      </trkpt>
      <trkpt lat="45.25243" lon="6.15401">
        <ele>2137.1999511719</ele>
        <time>2019-05-01T11:49:53.000Z</time>
      </trkpt>
      <trkpt lat="45.25241" lon="6.15433">
        <ele>2136.1999511719</ele>
        <time>2019-05-01T11:49:56.000Z</time>
      </trkpt>
      <trkpt lat="45.25239" lon="6.15454">
        <ele>2134.6000976562</ele>
        <time>2019-05-01T11:49:58.000Z</time>
      </trkpt>
      <trkpt lat="45.25238" lon="6.15465">
        <ele>2134</ele>
        <time>2019-05-01T11:49:59.000Z</time>
      </trkpt>
      <trkpt lat="45.25237" lon="6.15475">
        <ele>2133.3999023438</ele>
        <time>2019-05-01T11:50:00.000Z</time>
      </trkpt>
      <trkpt lat="45.25234" lon="6.15484">
        <ele>2132.8000488281</ele>
        <time>2019-05-01T11:50:01.000Z</time>
      </trkpt>
      <trkpt lat="45.25225" lon="6.15502">
        <ele>2132</ele>
        <time>2019-05-01T11:50:03.000Z</time>
      </trkpt>
      <trkpt lat="45.25209" lon="6.15535">
        <ele>2130.1999511719</ele>
        <time>2019-05-01T11:50:06.000Z</time>
      </trkpt>
      <trkpt lat="45.25205" lon="6.15547">
        <ele>2128.3999023438</ele>
        <time>2019-05-01T11:50:07.000Z</time>
      </trkpt>
      <trkpt lat="45.25202" lon="6.15559">
        <ele>2127</ele>
        <time>2019-05-01T11:50:08.000Z</time>
      </trkpt>
      <trkpt lat="45.25198" lon="6.1557">
        <ele>2125.8000488281</ele>
        <time>2019-05-01T11:50:09.000Z</time>
      </trkpt>
      <trkpt lat="45.25194" lon="6.1558">
        <ele>2124.6000976562</ele>
        <time>2019-05-01T11:50:10.000Z</time>
      </trkpt>
      <trkpt lat="45.25186" lon="6.156">
        <ele>2123.1999511719</ele>
        <time>2019-05-01T11:50:12.000Z</time>
      </trkpt>
      <trkpt lat="45.25179" lon="6.15619">
        <ele>2121.8000488281</ele>
        <time>2019-05-01T11:50:14.000Z</time>
      </trkpt>
      <trkpt lat="45.25176" lon="6.15628">
        <ele>2121.1999511719</ele>
        <time>2019-05-01T11:50:15.000Z</time>
      </trkpt>
      <trkpt lat="45.25173" lon="6.15638">
        <ele>2120.6000976562</ele>
        <time>2019-05-01T11:50:16.000Z</time>
      </trkpt>
      <trkpt lat="45.2517" lon="6.15647">
        <ele>2119.8000488281</ele>
        <time>2019-05-01T11:50:17.000Z</time>
      </trkpt>
      <trkpt lat="45.25166" lon="6.15656">
        <ele>2119.3999023438</ele>
        <time>2019-05-01T11:50:18.000Z</time>
      </trkpt>
      <trkpt lat="45.25164" lon="6.15666">
        <ele>2118.8000488281</ele>
        <time>2019-05-01T11:50:19.000Z</time>
      </trkpt>
      <trkpt lat="45.25162" lon="6.15675">
        <ele>2118.1999511719</ele>
        <time>2019-05-01T11:50:20.000Z</time>
      </trkpt>
      <trkpt lat="45.25156" lon="6.15693">
        <ele>2117</ele>
        <time>2019-05-01T11:50:22.000Z</time>
      </trkpt>
      <trkpt lat="45.25151" lon="6.15709">
        <ele>2115.8000488281</ele>
        <time>2019-05-01T11:50:24.000Z</time>
      </trkpt>
      <trkpt lat="45.2514" lon="6.15731">
        <ele>2114.3999023438</ele>
        <time>2019-05-01T11:50:27.000Z</time>
      </trkpt>
      <trkpt lat="45.25127" lon="6.15752">
        <ele>2112.8000488281</ele>
        <time>2019-05-01T11:50:31.000Z</time>
      </trkpt>
      <trkpt lat="45.25124" lon="6.15755">
        <ele>2112.8000488281</ele>
        <time>2019-05-01T11:50:32.000Z</time>
      </trkpt>
      <trkpt lat="45.25117" lon="6.15762">
        <ele>2112.6000976562</ele>
        <time>2019-05-01T11:50:37.000Z</time>
      </trkpt>
      <trkpt lat="45.25117" lon="6.15762">
        <ele>2112.6000976562</ele>
        <time>2019-05-01T11:50:43.000Z</time>
      </trkpt>
      <trkpt lat="45.25117" lon="6.15762">
        <ele>2112.3999023438</ele>
        <time>2019-05-01T11:50:58.000Z</time>
      </trkpt>
      <trkpt lat="45.25117" lon="6.15762">
        <ele>2112.1999511719</ele>
        <time>2019-05-01T11:51:20.000Z</time>
      </trkpt>
      <trkpt lat="45.25117" lon="6.15762">
        <ele>2112.6000976562</ele>
        <time>2019-05-01T11:51:36.000Z</time>
      </trkpt>
      <trkpt lat="45.25117" lon="6.15762">
        <ele>2112.8000488281</ele>
        <time>2019-05-01T11:51:46.000Z</time>
      </trkpt>
      <trkpt lat="45.25117" lon="6.15762">
        <ele>2112.8000488281</ele>
        <time>2019-05-01T11:52:05.000Z</time>
      </trkpt>
      <trkpt lat="45.25117" lon="6.15763">
        <ele>2112.8000488281</ele>
        <time>2019-05-01T11:52:07.000Z</time>
      </trkpt>
      <trkpt lat="45.25114" lon="6.15771">
        <ele>2112.6000976562</ele>
        <time>2019-05-01T11:52:10.000Z</time>
      </trkpt>
      <trkpt lat="45.2511" lon="6.1578">
        <ele>2112.1999511719</ele>
        <time>2019-05-01T11:52:12.000Z</time>
      </trkpt>
      <trkpt lat="45.25108" lon="6.15787">
        <ele>2111.8000488281</ele>
        <time>2019-05-01T11:52:13.000Z</time>
      </trkpt>
      <trkpt lat="45.25104" lon="6.15804">
        <ele>2111</ele>
        <time>2019-05-01T11:52:15.000Z</time>
      </trkpt>
      <trkpt lat="45.251" lon="6.15813">
        <ele>2110.3999023438</ele>
        <time>2019-05-01T11:52:16.000Z</time>
      </trkpt>
      <trkpt lat="45.25094" lon="6.15819">
        <ele>2109.6000976562</ele>
        <time>2019-05-01T11:52:17.000Z</time>
      </trkpt>
      <trkpt lat="45.2509" lon="6.15826">
        <ele>2108.6000976562</ele>
        <time>2019-05-01T11:52:18.000Z</time>
      </trkpt>
      <trkpt lat="45.25086" lon="6.15833">
        <ele>2107.1999511719</ele>
        <time>2019-05-01T11:52:19.000Z</time>
      </trkpt>
      <trkpt lat="45.25082" lon="6.15839">
        <ele>2105.8000488281</ele>
        <time>2019-05-01T11:52:20.000Z</time>
      </trkpt>
      <trkpt lat="45.25078" lon="6.15845">
        <ele>2104.6000976562</ele>
        <time>2019-05-01T11:52:21.000Z</time>
      </trkpt>
      <trkpt lat="45.25076" lon="6.15853">
        <ele>2103.6000976562</ele>
        <time>2019-05-01T11:52:22.000Z</time>
      </trkpt>
      <trkpt lat="45.25073" lon="6.15859">
        <ele>2102.8000488281</ele>
        <time>2019-05-01T11:52:23.000Z</time>
      </trkpt>
      <trkpt lat="45.25071" lon="6.15866">
        <ele>2102</ele>
        <time>2019-05-01T11:52:24.000Z</time>
      </trkpt>
      <trkpt lat="45.25071" lon="6.15873">
        <ele>2101.1999511719</ele>
        <time>2019-05-01T11:52:25.000Z</time>
      </trkpt>
      <trkpt lat="45.25071" lon="6.1588">
        <ele>2100.3999023438</ele>
        <time>2019-05-01T11:52:26.000Z</time>
      </trkpt>
      <trkpt lat="45.25065" lon="6.15892">
        <ele>2098.8000488281</ele>
        <time>2019-05-01T11:52:28.000Z</time>
      </trkpt>
      <trkpt lat="45.25062" lon="6.15898">
        <ele>2097.6000976562</ele>
        <time>2019-05-01T11:52:29.000Z</time>
      </trkpt>
      <trkpt lat="45.2506" lon="6.15906">
        <ele>2096.1999511719</ele>
        <time>2019-05-01T11:52:30.000Z</time>
      </trkpt>
      <trkpt lat="45.25058" lon="6.15915">
        <ele>2094</ele>
        <time>2019-05-01T11:52:31.000Z</time>
      </trkpt>
      <trkpt lat="45.25048" lon="6.15928">
        <ele>2092.3999023438</ele>
        <time>2019-05-01T11:52:33.000Z</time>
      </trkpt>
      <trkpt lat="45.25044" lon="6.15935">
        <ele>2091.1999511719</ele>
        <time>2019-05-01T11:52:34.000Z</time>
      </trkpt>
      <trkpt lat="45.25042" lon="6.15944">
        <ele>2090</ele>
        <time>2019-05-01T11:52:35.000Z</time>
      </trkpt>
      <trkpt lat="45.25041" lon="6.15952">
        <ele>2088.8000488281</ele>
        <time>2019-05-01T11:52:36.000Z</time>
      </trkpt>
      <trkpt lat="45.25042" lon="6.15961">
        <ele>2088</ele>
        <time>2019-05-01T11:52:37.000Z</time>
      </trkpt>
      <trkpt lat="45.25042" lon="6.15971">
        <ele>2087</ele>
        <time>2019-05-01T11:52:38.000Z</time>
      </trkpt>
      <trkpt lat="45.25042" lon="6.15979">
        <ele>2085.8000488281</ele>
        <time>2019-05-01T11:52:39.000Z</time>
      </trkpt>
      <trkpt lat="45.25038" lon="6.15986">
        <ele>2084.1999511719</ele>
        <time>2019-05-01T11:52:40.000Z</time>
      </trkpt>
      <trkpt lat="45.25031" lon="6.15993">
        <ele>2081.8000488281</ele>
        <time>2019-05-01T11:52:41.000Z</time>
      </trkpt>
      <trkpt lat="45.25024" lon="6.15998">
        <ele>2079.3999023438</ele>
        <time>2019-05-01T11:52:42.000Z</time>
      </trkpt>
      <trkpt lat="45.25016" lon="6.16001">
        <ele>2077</ele>
        <time>2019-05-01T11:52:43.000Z</time>
      </trkpt>
      <trkpt lat="45.2501" lon="6.16006">
        <ele>2075</ele>
        <time>2019-05-01T11:52:44.000Z</time>
      </trkpt>
      <trkpt lat="45.25007" lon="6.16013">
        <ele>2073.3999023438</ele>
        <time>2019-05-01T11:52:45.000Z</time>
      </trkpt>
      <trkpt lat="45.25003" lon="6.16021">
        <ele>2072</ele>
        <time>2019-05-01T11:52:46.000Z</time>
      </trkpt>
      <trkpt lat="45.24991" lon="6.16035">
        <ele>2070.3999023438</ele>
        <time>2019-05-01T11:52:48.000Z</time>
      </trkpt>
      <trkpt lat="45.2498" lon="6.16044">
        <ele>2068.8000488281</ele>
        <time>2019-05-01T11:52:50.000Z</time>
      </trkpt>
      <trkpt lat="45.24977" lon="6.1605">
        <ele>2067.8000488281</ele>
        <time>2019-05-01T11:52:51.000Z</time>
      </trkpt>
      <trkpt lat="45.24976" lon="6.16057">
        <ele>2066.8000488281</ele>
        <time>2019-05-01T11:52:52.000Z</time>
      </trkpt>
      <trkpt lat="45.24973" lon="6.16076">
        <ele>2065.6000976562</ele>
        <time>2019-05-01T11:52:54.000Z</time>
      </trkpt>
      <trkpt lat="45.2497" lon="6.16089">
        <ele>2064.3999023438</ele>
        <time>2019-05-01T11:52:55.000Z</time>
      </trkpt>
      <trkpt lat="45.24966" lon="6.16102">
        <ele>2063</ele>
        <time>2019-05-01T11:52:56.000Z</time>
      </trkpt>
      <trkpt lat="45.24963" lon="6.16115">
        <ele>2061.1999511719</ele>
        <time>2019-05-01T11:52:57.000Z</time>
      </trkpt>
      <trkpt lat="45.2496" lon="6.16128">
        <ele>2059</ele>
        <time>2019-05-01T11:52:58.000Z</time>
      </trkpt>
      <trkpt lat="45.24956" lon="6.16141">
        <ele>2056.8000488281</ele>
        <time>2019-05-01T11:52:59.000Z</time>
      </trkpt>
      <trkpt lat="45.24952" lon="6.16153">
        <ele>2055</ele>
        <time>2019-05-01T11:53:00.000Z</time>
      </trkpt>
      <trkpt lat="45.24949" lon="6.16166">
        <ele>2053.3999023438</ele>
        <time>2019-05-01T11:53:01.000Z</time>
      </trkpt>
      <trkpt lat="45.24945" lon="6.16177">
        <ele>2051.8000488281</ele>
        <time>2019-05-01T11:53:02.000Z</time>
      </trkpt>
      <trkpt lat="45.24943" lon="6.16189">
        <ele>2050.3999023438</ele>
        <time>2019-05-01T11:53:03.000Z</time>
      </trkpt>
      <trkpt lat="45.24941" lon="6.162">
        <ele>2049.3999023438</ele>
        <time>2019-05-01T11:53:04.000Z</time>
      </trkpt>
      <trkpt lat="45.24937" lon="6.1622">
        <ele>2047.8000488281</ele>
        <time>2019-05-01T11:53:06.000Z</time>
      </trkpt>
      <trkpt lat="45.24935" lon="6.16229">
        <ele>2047</ele>
        <time>2019-05-01T11:53:07.000Z</time>
      </trkpt>
      <trkpt lat="45.24932" lon="6.16236">
        <ele>2046.4000244141</ele>
        <time>2019-05-01T11:53:08.000Z</time>
      </trkpt>
      <trkpt lat="45.24929" lon="6.16243">
        <ele>2045</ele>
        <time>2019-05-01T11:53:10.000Z</time>
      </trkpt>
      <trkpt lat="45.24928" lon="6.16244">
        <ele>2043.5999755859</ele>
        <time>2019-05-01T11:53:12.000Z</time>
      </trkpt>
      <trkpt lat="45.24928" lon="6.16244">
        <ele>2042.5999755859</ele>
        <time>2019-05-01T11:53:15.000Z</time>
      </trkpt>
      <trkpt lat="45.24928" lon="6.16245">
        <ele>2042.4000244141</ele>
        <time>2019-05-01T11:53:24.000Z</time>
      </trkpt>
      <trkpt lat="45.24927" lon="6.1625">
        <ele>2042.4000244141</ele>
        <time>2019-05-01T11:53:26.000Z</time>
      </trkpt>
      <trkpt lat="45.24927" lon="6.16252">
        <ele>2041</ele>
        <time>2019-05-01T11:53:30.000Z</time>
      </trkpt>
      <trkpt lat="45.24927" lon="6.16258">
        <ele>2040.4000244141</ele>
        <time>2019-05-01T11:53:36.000Z</time>
      </trkpt>
      <trkpt lat="45.24933" lon="6.16262">
        <ele>2040.4000244141</ele>
        <time>2019-05-01T11:53:38.000Z</time>
      </trkpt>
      <trkpt lat="45.24935" lon="6.16271">
        <ele>2039.5999755859</ele>
        <time>2019-05-01T11:53:40.000Z</time>
      </trkpt>
      <trkpt lat="45.24939" lon="6.16282">
        <ele>2037.8000488281</ele>
        <time>2019-05-01T11:53:42.000Z</time>
      </trkpt>
      <trkpt lat="45.24943" lon="6.16284">
        <ele>2034.8000488281</ele>
        <time>2019-05-01T11:53:43.000Z</time>
      </trkpt>
      <trkpt lat="45.24947" lon="6.16287">
        <ele>2033</ele>
        <time>2019-05-01T11:53:44.000Z</time>
      </trkpt>
      <trkpt lat="45.24951" lon="6.16292">
        <ele>2031.1999511719</ele>
        <time>2019-05-01T11:53:45.000Z</time>
      </trkpt>
      <trkpt lat="45.24953" lon="6.16298">
        <ele>2029.4000244141</ele>
        <time>2019-05-01T11:53:46.000Z</time>
      </trkpt>
      <trkpt lat="45.24956" lon="6.16304">
        <ele>2027.5999755859</ele>
        <time>2019-05-01T11:53:47.000Z</time>
      </trkpt>
      <trkpt lat="45.24959" lon="6.16311">
        <ele>2025.8000488281</ele>
        <time>2019-05-01T11:53:48.000Z</time>
      </trkpt>
      <trkpt lat="45.24961" lon="6.16318">
        <ele>2024</ele>
        <time>2019-05-01T11:53:49.000Z</time>
      </trkpt>
      <trkpt lat="45.24962" lon="6.16325">
        <ele>2022.1999511719</ele>
        <time>2019-05-01T11:53:50.000Z</time>
      </trkpt>
      <trkpt lat="45.24963" lon="6.16333">
        <ele>2020.4000244141</ele>
        <time>2019-05-01T11:53:51.000Z</time>
      </trkpt>
      <trkpt lat="45.24962" lon="6.16341">
        <ele>2018.4000244141</ele>
        <time>2019-05-01T11:53:52.000Z</time>
      </trkpt>
      <trkpt lat="45.24961" lon="6.16348">
        <ele>2016.1999511719</ele>
        <time>2019-05-01T11:53:53.000Z</time>
      </trkpt>
      <trkpt lat="45.24957" lon="6.16357">
        <ele>2014.4000244141</ele>
        <time>2019-05-01T11:53:54.000Z</time>
      </trkpt>
      <trkpt lat="45.2495" lon="6.16363">
        <ele>2012.1999511719</ele>
        <time>2019-05-01T11:53:55.000Z</time>
      </trkpt>
      <trkpt lat="45.24944" lon="6.16366">
        <ele>2010.1999511719</ele>
        <time>2019-05-01T11:53:56.000Z</time>
      </trkpt>
      <trkpt lat="45.24939" lon="6.16367">
        <ele>2008.1999511719</ele>
        <time>2019-05-01T11:53:57.000Z</time>
      </trkpt>
      <trkpt lat="45.24935" lon="6.16368">
        <ele>2006.4000244141</ele>
        <time>2019-05-01T11:53:58.000Z</time>
      </trkpt>
      <trkpt lat="45.24932" lon="6.16369">
        <ele>2004.8000488281</ele>
        <time>2019-05-01T11:53:59.000Z</time>
      </trkpt>
      <trkpt lat="45.24929" lon="6.1637">
        <ele>2003.5999755859</ele>
        <time>2019-05-01T11:54:00.000Z</time>
      </trkpt>
      <trkpt lat="45.24922" lon="6.16374">
        <ele>2002</ele>
        <time>2019-05-01T11:54:02.000Z</time>
      </trkpt>
      <trkpt lat="45.24912" lon="6.16386">
        <ele>2000.8000488281</ele>
        <time>2019-05-01T11:54:04.000Z</time>
      </trkpt>
      <trkpt lat="45.24906" lon="6.16394">
        <ele>1999.8000488281</ele>
        <time>2019-05-01T11:54:05.000Z</time>
      </trkpt>
      <trkpt lat="45.249" lon="6.16401">
        <ele>1998.5999755859</ele>
        <time>2019-05-01T11:54:06.000Z</time>
      </trkpt>
      <trkpt lat="45.24894" lon="6.16407">
        <ele>1995.8000488281</ele>
        <time>2019-05-01T11:54:07.000Z</time>
      </trkpt>
      <trkpt lat="45.24889" lon="6.16412">
        <ele>1994</ele>
        <time>2019-05-01T11:54:08.000Z</time>
      </trkpt>
      <trkpt lat="45.24884" lon="6.16417">
        <ele>1992</ele>
        <time>2019-05-01T11:54:09.000Z</time>
      </trkpt>
      <trkpt lat="45.2488" lon="6.1642">
        <ele>1990.4000244141</ele>
        <time>2019-05-01T11:54:10.000Z</time>
      </trkpt>
      <trkpt lat="45.24876" lon="6.16424">
        <ele>1989.1999511719</ele>
        <time>2019-05-01T11:54:11.000Z</time>
      </trkpt>
      <trkpt lat="45.24876" lon="6.16429">
        <ele>1988.1999511719</ele>
        <time>2019-05-01T11:54:12.000Z</time>
      </trkpt>
      <trkpt lat="45.24877" lon="6.16436">
        <ele>1986.5999755859</ele>
        <time>2019-05-01T11:54:14.000Z</time>
      </trkpt>
      <trkpt lat="45.24877" lon="6.16437">
        <ele>1985.5999755859</ele>
        <time>2019-05-01T11:54:15.000Z</time>
      </trkpt>
      <trkpt lat="45.24877" lon="6.16437">
        <ele>1984.5999755859</ele>
        <time>2019-05-01T11:54:16.000Z</time>
      </trkpt>
      <trkpt lat="45.24877" lon="6.16437">
        <ele>1983.5999755859</ele>
        <time>2019-05-01T11:54:17.000Z</time>
      </trkpt>
      <trkpt lat="45.24877" lon="6.16437">
        <ele>1982.4000244141</ele>
        <time>2019-05-01T11:54:19.000Z</time>
      </trkpt>
      <trkpt lat="45.24877" lon="6.16437">
        <ele>1981.8000488281</ele>
        <time>2019-05-01T11:54:23.000Z</time>
      </trkpt>
      <trkpt lat="45.24877" lon="6.16437">
        <ele>1981.8000488281</ele>
        <time>2019-05-01T11:54:26.000Z</time>
      </trkpt>
      <trkpt lat="45.24879" lon="6.16441">
        <ele>1981.8000488281</ele>
        <time>2019-05-01T11:54:28.000Z</time>
      </trkpt>
      <trkpt lat="45.24874" lon="6.16451">
        <ele>1981.5999755859</ele>
        <time>2019-05-01T11:54:30.000Z</time>
      </trkpt>
      <trkpt lat="45.24872" lon="6.16459">
        <ele>1980.4000244141</ele>
        <time>2019-05-01T11:54:31.000Z</time>
      </trkpt>
      <trkpt lat="45.2487" lon="6.16466">
        <ele>1979.4000244141</ele>
        <time>2019-05-01T11:54:32.000Z</time>
      </trkpt>
      <trkpt lat="45.24867" lon="6.16471">
        <ele>1978</ele>
        <time>2019-05-01T11:54:33.000Z</time>
      </trkpt>
      <trkpt lat="45.24863" lon="6.16476">
        <ele>1976.4000244141</ele>
        <time>2019-05-01T11:54:34.000Z</time>
      </trkpt>
      <trkpt lat="45.24859" lon="6.16481">
        <ele>1974.5999755859</ele>
        <time>2019-05-01T11:54:35.000Z</time>
      </trkpt>
      <trkpt lat="45.24854" lon="6.16488">
        <ele>1972.8000488281</ele>
        <time>2019-05-01T11:54:36.000Z</time>
      </trkpt>
      <trkpt lat="45.24849" lon="6.16494">
        <ele>1971.1999511719</ele>
        <time>2019-05-01T11:54:37.000Z</time>
      </trkpt>
      <trkpt lat="45.24845" lon="6.16499">
        <ele>1969.5999755859</ele>
        <time>2019-05-01T11:54:38.000Z</time>
      </trkpt>
      <trkpt lat="45.24841" lon="6.16504">
        <ele>1968.1999511719</ele>
        <time>2019-05-01T11:54:39.000Z</time>
      </trkpt>
      <trkpt lat="45.24836" lon="6.16509">
        <ele>1966.5999755859</ele>
        <time>2019-05-01T11:54:40.000Z</time>
      </trkpt>
      <trkpt lat="45.24832" lon="6.16515">
        <ele>1965</ele>
        <time>2019-05-01T11:54:41.000Z</time>
      </trkpt>
      <trkpt lat="45.24828" lon="6.16521">
        <ele>1963.4000244141</ele>
        <time>2019-05-01T11:54:42.000Z</time>
      </trkpt>
      <trkpt lat="45.24823" lon="6.16526">
        <ele>1962.1999511719</ele>
        <time>2019-05-01T11:54:43.000Z</time>
      </trkpt>
      <trkpt lat="45.24819" lon="6.1653">
        <ele>1960.8000488281</ele>
        <time>2019-05-01T11:54:44.000Z</time>
      </trkpt>
      <trkpt lat="45.24816" lon="6.16532">
        <ele>1959.1999511719</ele>
        <time>2019-05-01T11:54:45.000Z</time>
      </trkpt>
      <trkpt lat="45.24814" lon="6.16536">
        <ele>1957.8000488281</ele>
        <time>2019-05-01T11:54:46.000Z</time>
      </trkpt>
      <trkpt lat="45.24815" lon="6.16542">
        <ele>1956.1999511719</ele>
        <time>2019-05-01T11:54:47.000Z</time>
      </trkpt>
      <trkpt lat="45.24818" lon="6.16546">
        <ele>1954.8000488281</ele>
        <time>2019-05-01T11:54:48.000Z</time>
      </trkpt>
      <trkpt lat="45.24821" lon="6.16549">
        <ele>1953.5999755859</ele>
        <time>2019-05-01T11:54:49.000Z</time>
      </trkpt>
      <trkpt lat="45.24823" lon="6.16552">
        <ele>1952.4000244141</ele>
        <time>2019-05-01T11:54:50.000Z</time>
      </trkpt>
      <trkpt lat="45.24822" lon="6.16556">
        <ele>1951</ele>
        <time>2019-05-01T11:54:51.000Z</time>
      </trkpt>
      <trkpt lat="45.24819" lon="6.16559">
        <ele>1949.4000244141</ele>
        <time>2019-05-01T11:54:52.000Z</time>
      </trkpt>
      <trkpt lat="45.24815" lon="6.16564">
        <ele>1947.8000488281</ele>
        <time>2019-05-01T11:54:53.000Z</time>
      </trkpt>
      <trkpt lat="45.2481" lon="6.1657">
        <ele>1945.8000488281</ele>
        <time>2019-05-01T11:54:54.000Z</time>
      </trkpt>
      <trkpt lat="45.24806" lon="6.16575">
        <ele>1942.1999511719</ele>
        <time>2019-05-01T11:54:55.000Z</time>
      </trkpt>
      <trkpt lat="45.24803" lon="6.1658">
        <ele>1940.4000244141</ele>
        <time>2019-05-01T11:54:56.000Z</time>
      </trkpt>
      <trkpt lat="45.248" lon="6.16584">
        <ele>1938.5999755859</ele>
        <time>2019-05-01T11:54:57.000Z</time>
      </trkpt>
      <trkpt lat="45.24797" lon="6.16589">
        <ele>1937</ele>
        <time>2019-05-01T11:54:58.000Z</time>
      </trkpt>
      <trkpt lat="45.24794" lon="6.16593">
        <ele>1935.4000244141</ele>
        <time>2019-05-01T11:54:59.000Z</time>
      </trkpt>
      <trkpt lat="45.24792" lon="6.16597">
        <ele>1934.1999511719</ele>
        <time>2019-05-01T11:55:00.000Z</time>
      </trkpt>
      <trkpt lat="45.24789" lon="6.166">
        <ele>1932.8000488281</ele>
        <time>2019-05-01T11:55:01.000Z</time>
      </trkpt>
      <trkpt lat="45.24786" lon="6.16604">
        <ele>1931.5999755859</ele>
        <time>2019-05-01T11:55:02.000Z</time>
      </trkpt>
      <trkpt lat="45.24783" lon="6.16608">
        <ele>1930.5999755859</ele>
        <time>2019-05-01T11:55:03.000Z</time>
      </trkpt>
      <trkpt lat="45.24778" lon="6.16612">
        <ele>1929.4000244141</ele>
        <time>2019-05-01T11:55:04.000Z</time>
      </trkpt>
      <trkpt lat="45.24768" lon="6.16622">
        <ele>1927.5999755859</ele>
        <time>2019-05-01T11:55:06.000Z</time>
      </trkpt>
      <trkpt lat="45.24763" lon="6.16628">
        <ele>1926.4000244141</ele>
        <time>2019-05-01T11:55:07.000Z</time>
      </trkpt>
      <trkpt lat="45.24759" lon="6.16634">
        <ele>1925.1999511719</ele>
        <time>2019-05-01T11:55:08.000Z</time>
      </trkpt>
      <trkpt lat="45.24755" lon="6.1664">
        <ele>1924</ele>
        <time>2019-05-01T11:55:09.000Z</time>
      </trkpt>
      <trkpt lat="45.2475" lon="6.16645">
        <ele>1922.5999755859</ele>
        <time>2019-05-01T11:55:10.000Z</time>
      </trkpt>
      <trkpt lat="45.24747" lon="6.16651">
        <ele>1921.4000244141</ele>
        <time>2019-05-01T11:55:11.000Z</time>
      </trkpt>
      <trkpt lat="45.24743" lon="6.16656">
        <ele>1920.1999511719</ele>
        <time>2019-05-01T11:55:12.000Z</time>
      </trkpt>
      <trkpt lat="45.24739" lon="6.16661">
        <ele>1919</ele>
        <time>2019-05-01T11:55:13.000Z</time>
      </trkpt>
      <trkpt lat="45.24736" lon="6.16665">
        <ele>1917.5999755859</ele>
        <time>2019-05-01T11:55:14.000Z</time>
      </trkpt>
      <trkpt lat="45.24733" lon="6.16669">
        <ele>1916.4000244141</ele>
        <time>2019-05-01T11:55:15.000Z</time>
      </trkpt>
      <trkpt lat="45.24729" lon="6.16674">
        <ele>1915.4000244141</ele>
        <time>2019-05-01T11:55:16.000Z</time>
      </trkpt>
      <trkpt lat="45.24725" lon="6.16679">
        <ele>1914.4000244141</ele>
        <time>2019-05-01T11:55:17.000Z</time>
      </trkpt>
      <trkpt lat="45.24722" lon="6.1668">
        <ele>1913.8000488281</ele>
        <time>2019-05-01T11:55:18.000Z</time>
      </trkpt>
      <trkpt lat="45.24721" lon="6.1668">
        <ele>1912.5999755859</ele>
        <time>2019-05-01T11:55:19.000Z</time>
      </trkpt>
      <trkpt lat="45.2472" lon="6.1668">
        <ele>1911</ele>
        <time>2019-05-01T11:55:21.000Z</time>
      </trkpt>
      <trkpt lat="45.2472" lon="6.1668">
        <ele>1909.8000488281</ele>
        <time>2019-05-01T11:55:24.000Z</time>
      </trkpt>
      <trkpt lat="45.2472" lon="6.1668">
        <ele>1909.5999755859</ele>
        <time>2019-05-01T11:55:25.000Z</time>
      </trkpt>
      <trkpt lat="45.2472" lon="6.1668">
        <ele>1909.5999755859</ele>
        <time>2019-05-01T11:55:35.000Z</time>
      </trkpt>
      <trkpt lat="45.2472" lon="6.1668">
        <ele>1909.5999755859</ele>
        <time>2019-05-01T11:55:54.000Z</time>
      </trkpt>
      <trkpt lat="45.2472" lon="6.1668">
        <ele>1909.5999755859</ele>
        <time>2019-05-01T11:56:07.000Z</time>
      </trkpt>
      <trkpt lat="45.2472" lon="6.1668">
        <ele>1909.8000488281</ele>
        <time>2019-05-01T11:56:23.000Z</time>
      </trkpt>
      <trkpt lat="45.2472" lon="6.16681">
        <ele>1909.5999755859</ele>
        <time>2019-05-01T11:56:44.000Z</time>
      </trkpt>
      <trkpt lat="45.2472" lon="6.16681">
        <ele>1909.5999755859</ele>
        <time>2019-05-01T11:57:01.000Z</time>
      </trkpt>
      <trkpt lat="45.2472" lon="6.16681">
        <ele>1909.5999755859</ele>
        <time>2019-05-01T11:57:08.000Z</time>
      </trkpt>
      <trkpt lat="45.2472" lon="6.16681">
        <ele>1909.4000244141</ele>
        <time>2019-05-01T11:57:20.000Z</time>
      </trkpt>
      <trkpt lat="45.24716" lon="6.16689">
        <ele>1909.1999511719</ele>
        <time>2019-05-01T11:57:24.000Z</time>
      </trkpt>
      <trkpt lat="45.24718" lon="6.16693">
        <ele>1909</ele>
        <time>2019-05-01T11:57:25.000Z</time>
      </trkpt>
      <trkpt lat="45.2472" lon="6.16695">
        <ele>1908.5999755859</ele>
        <time>2019-05-01T11:57:26.000Z</time>
      </trkpt>
      <trkpt lat="45.24724" lon="6.167">
        <ele>1907.4000244141</ele>
        <time>2019-05-01T11:57:28.000Z</time>
      </trkpt>
      <trkpt lat="45.24724" lon="6.167">
        <ele>1906.4000244141</ele>
        <time>2019-05-01T11:57:29.000Z</time>
      </trkpt>
      <trkpt lat="45.24724" lon="6.167">
        <ele>1905.4000244141</ele>
        <time>2019-05-01T11:57:30.000Z</time>
      </trkpt>
      <trkpt lat="45.24724" lon="6.167">
        <ele>1904.1999511719</ele>
        <time>2019-05-01T11:57:31.000Z</time>
      </trkpt>
      <trkpt lat="45.24724" lon="6.167">
        <ele>1902.4000244141</ele>
        <time>2019-05-01T11:57:33.000Z</time>
      </trkpt>
      <trkpt lat="45.24724" lon="6.16701">
        <ele>1902</ele>
        <time>2019-05-01T11:57:34.000Z</time>
      </trkpt>
      <trkpt lat="45.24722" lon="6.16704">
        <ele>1901.5999755859</ele>
        <time>2019-05-01T11:57:35.000Z</time>
      </trkpt>
      <trkpt lat="45.24719" lon="6.16708">
        <ele>1901.4000244141</ele>
        <time>2019-05-01T11:57:36.000Z</time>
      </trkpt>
      <trkpt lat="45.24714" lon="6.16713">
        <ele>1900.5999755859</ele>
        <time>2019-05-01T11:57:38.000Z</time>
      </trkpt>
      <trkpt lat="45.24713" lon="6.16713">
        <ele>1900</ele>
        <time>2019-05-01T11:57:39.000Z</time>
      </trkpt>
      <trkpt lat="45.24712" lon="6.16713">
        <ele>1897.8000488281</ele>
        <time>2019-05-01T11:57:41.000Z</time>
      </trkpt>
      <trkpt lat="45.24711" lon="6.16714">
        <ele>1896.8000488281</ele>
        <time>2019-05-01T11:57:42.000Z</time>
      </trkpt>
      <trkpt lat="45.24709" lon="6.16715">
        <ele>1895.8000488281</ele>
        <time>2019-05-01T11:57:43.000Z</time>
      </trkpt>
      <trkpt lat="45.24707" lon="6.16716">
        <ele>1894.8000488281</ele>
        <time>2019-05-01T11:57:44.000Z</time>
      </trkpt>
      <trkpt lat="45.24698" lon="6.16717">
        <ele>1893.8000488281</ele>
        <time>2019-05-01T11:57:47.000Z</time>
      </trkpt>
      <trkpt lat="45.24697" lon="6.16717">
        <ele>1893.4000244141</ele>
        <time>2019-05-01T11:57:48.000Z</time>
      </trkpt>
      <trkpt lat="45.24696" lon="6.16716">
        <ele>1892.1999511719</ele>
        <time>2019-05-01T11:57:50.000Z</time>
      </trkpt>
      <trkpt lat="45.24696" lon="6.16717">
        <ele>1891.8000488281</ele>
        <time>2019-05-01T11:57:51.000Z</time>
      </trkpt>
      <trkpt lat="45.24698" lon="6.16721">
        <ele>1891.1999511719</ele>
        <time>2019-05-01T11:57:53.000Z</time>
      </trkpt>
      <trkpt lat="45.24697" lon="6.16724">
        <ele>1890.8000488281</ele>
        <time>2019-05-01T11:57:55.000Z</time>
      </trkpt>
      <trkpt lat="45.24695" lon="6.16726">
        <ele>1890.4000244141</ele>
        <time>2019-05-01T11:57:56.000Z</time>
      </trkpt>
      <trkpt lat="45.24692" lon="6.16728">
        <ele>1889.5999755859</ele>
        <time>2019-05-01T11:57:57.000Z</time>
      </trkpt>
      <trkpt lat="45.24685" lon="6.16732">
        <ele>1888.4000244141</ele>
        <time>2019-05-01T11:57:59.000Z</time>
      </trkpt>
      <trkpt lat="45.24681" lon="6.16732">
        <ele>1887.8000488281</ele>
        <time>2019-05-01T11:58:00.000Z</time>
      </trkpt>
      <trkpt lat="45.24679" lon="6.16732">
        <ele>1887</ele>
        <time>2019-05-01T11:58:01.000Z</time>
      </trkpt>
      <trkpt lat="45.24675" lon="6.16733">
        <ele>1885.4000244141</ele>
        <time>2019-05-01T11:58:03.000Z</time>
      </trkpt>
      <trkpt lat="45.24672" lon="6.16734">
        <ele>1884.5999755859</ele>
        <time>2019-05-01T11:58:04.000Z</time>
      </trkpt>
      <trkpt lat="45.24669" lon="6.16737">
        <ele>1884</ele>
        <time>2019-05-01T11:58:05.000Z</time>
      </trkpt>
      <trkpt lat="45.24666" lon="6.16741">
        <ele>1883.4000244141</ele>
        <time>2019-05-01T11:58:06.000Z</time>
      </trkpt>
      <trkpt lat="45.24662" lon="6.16745">
        <ele>1883.1999511719</ele>
        <time>2019-05-01T11:58:07.000Z</time>
      </trkpt>
      <trkpt lat="45.24658" lon="6.16748">
        <ele>1882.1999511719</ele>
        <time>2019-05-01T11:58:08.000Z</time>
      </trkpt>
      <trkpt lat="45.24654" lon="6.16748">
        <ele>1880.8000488281</ele>
        <time>2019-05-01T11:58:10.000Z</time>
      </trkpt>
      <trkpt lat="45.24654" lon="6.16748">
        <ele>1879.8000488281</ele>
        <time>2019-05-01T11:58:11.000Z</time>
      </trkpt>
      <trkpt lat="45.24654" lon="6.16748">
        <ele>1878.1999511719</ele>
        <time>2019-05-01T11:58:13.000Z</time>
      </trkpt>
      <trkpt lat="45.24654" lon="6.16748">
        <ele>1877.4000244141</ele>
        <time>2019-05-01T11:58:16.000Z</time>
      </trkpt>
      <trkpt lat="45.24652" lon="6.16747">
        <ele>1877.1999511719</ele>
        <time>2019-05-01T11:58:22.000Z</time>
      </trkpt>
      <trkpt lat="45.24651" lon="6.16747">
        <ele>1877.1999511719</ele>
        <time>2019-05-01T11:58:30.000Z</time>
      </trkpt>
      <trkpt lat="45.24651" lon="6.16747">
        <ele>1877.5999755859</ele>
        <time>2019-05-01T11:58:36.000Z</time>
      </trkpt>
      <trkpt lat="45.24651" lon="6.16747">
        <ele>1878</ele>
        <time>2019-05-01T11:58:44.000Z</time>
      </trkpt>
      <trkpt lat="45.24647" lon="6.1675">
        <ele>1877.8000488281</ele>
        <time>2019-05-01T11:58:48.000Z</time>
      </trkpt>
      <trkpt lat="45.24642" lon="6.1675">
        <ele>1877.1999511719</ele>
        <time>2019-05-01T11:58:51.000Z</time>
      </trkpt>
      <trkpt lat="45.2464" lon="6.16751">
        <ele>1876.5999755859</ele>
        <time>2019-05-01T11:58:52.000Z</time>
      </trkpt>
      <trkpt lat="45.24639" lon="6.16751">
        <ele>1875</ele>
        <time>2019-05-01T11:58:54.000Z</time>
      </trkpt>
      <trkpt lat="45.24639" lon="6.16751">
        <ele>1874</ele>
        <time>2019-05-01T11:58:55.000Z</time>
      </trkpt>
      <trkpt lat="45.24637" lon="6.16751">
        <ele>1872.4000244141</ele>
        <time>2019-05-01T11:58:56.000Z</time>
      </trkpt>
      <trkpt lat="45.24637" lon="6.16754">
        <ele>1872</ele>
        <time>2019-05-01T11:58:57.000Z</time>
      </trkpt>
      <trkpt lat="45.24637" lon="6.16756">
        <ele>1871.5999755859</ele>
        <time>2019-05-01T11:58:58.000Z</time>
      </trkpt>
      <trkpt lat="45.24636" lon="6.16757">
        <ele>1871.4000244141</ele>
        <time>2019-05-01T11:58:59.000Z</time>
      </trkpt>
      <trkpt lat="45.24635" lon="6.16757">
        <ele>1870.5999755859</ele>
        <time>2019-05-01T11:59:01.000Z</time>
      </trkpt>
      <trkpt lat="45.24634" lon="6.16757">
        <ele>1869.8000488281</ele>
        <time>2019-05-01T11:59:02.000Z</time>
      </trkpt>
      <trkpt lat="45.24629" lon="6.16759">
        <ele>1868.4000244141</ele>
        <time>2019-05-01T11:59:04.000Z</time>
      </trkpt>
      <trkpt lat="45.24626" lon="6.1676">
        <ele>1868</ele>
        <time>2019-05-01T11:59:05.000Z</time>
      </trkpt>
      <trkpt lat="45.24621" lon="6.16764">
        <ele>1867</ele>
        <time>2019-05-01T11:59:07.000Z</time>
      </trkpt>
      <trkpt lat="45.24621" lon="6.16767">
        <ele>1866.1999511719</ele>
        <time>2019-05-01T11:59:08.000Z</time>
      </trkpt>
      <trkpt lat="45.24621" lon="6.16769">
        <ele>1865.4000244141</ele>
        <time>2019-05-01T11:59:09.000Z</time>
      </trkpt>
      <trkpt lat="45.2462" lon="6.1677">
        <ele>1864.5999755859</ele>
        <time>2019-05-01T11:59:10.000Z</time>
      </trkpt>
      <trkpt lat="45.24619" lon="6.1677">
        <ele>1863.5999755859</ele>
        <time>2019-05-01T11:59:11.000Z</time>
      </trkpt>
      <trkpt lat="45.24618" lon="6.16769">
        <ele>1862.4000244141</ele>
        <time>2019-05-01T11:59:12.000Z</time>
      </trkpt>
      <trkpt lat="45.24618" lon="6.16769">
        <ele>1861.1999511719</ele>
        <time>2019-05-01T11:59:13.000Z</time>
      </trkpt>
      <trkpt lat="45.24617" lon="6.16768">
        <ele>1860.1999511719</ele>
        <time>2019-05-01T11:59:14.000Z</time>
      </trkpt>
      <trkpt lat="45.24617" lon="6.16767">
        <ele>1858.5999755859</ele>
        <time>2019-05-01T11:59:16.000Z</time>
      </trkpt>
      <trkpt lat="45.24616" lon="6.16766">
        <ele>1858</ele>
        <time>2019-05-01T11:59:18.000Z</time>
      </trkpt>
      <trkpt lat="45.24616" lon="6.16766">
        <ele>1857.5999755859</ele>
        <time>2019-05-01T11:59:20.000Z</time>
      </trkpt>
      <trkpt lat="45.24615" lon="6.16766">
        <ele>1857.1999511719</ele>
        <time>2019-05-01T11:59:25.000Z</time>
      </trkpt>
      <trkpt lat="45.24614" lon="6.16766">
        <ele>1856.5999755859</ele>
        <time>2019-05-01T11:59:30.000Z</time>
      </trkpt>
      <trkpt lat="45.24614" lon="6.16766">
        <ele>1856.1999511719</ele>
        <time>2019-05-01T11:59:33.000Z</time>
      </trkpt>
      <trkpt lat="45.24613" lon="6.16766">
        <ele>1856</ele>
        <time>2019-05-01T11:59:39.000Z</time>
      </trkpt>
      <trkpt lat="45.24613" lon="6.16766">
        <ele>1855.5999755859</ele>
        <time>2019-05-01T11:59:43.000Z</time>
      </trkpt>
      <trkpt lat="45.24613" lon="6.16766">
        <ele>1855.1999511719</ele>
        <time>2019-05-01T11:59:46.000Z</time>
      </trkpt>
      <trkpt lat="45.24613" lon="6.16765">
        <ele>1855</ele>
        <time>2019-05-01T11:59:53.000Z</time>
      </trkpt>
      <trkpt lat="45.24613" lon="6.16765">
        <ele>1854.5999755859</ele>
        <time>2019-05-01T12:00:00.000Z</time>
      </trkpt>
      <trkpt lat="45.24613" lon="6.16765">
        <ele>1854.5999755859</ele>
        <time>2019-05-01T12:00:01.000Z</time>
      </trkpt>
      <trkpt lat="45.24613" lon="6.16765">
        <ele>1854.1999511719</ele>
        <time>2019-05-01T12:00:10.000Z</time>
      </trkpt>
      <trkpt lat="45.24612" lon="6.16766">
        <ele>1853.8000488281</ele>
        <time>2019-05-01T12:00:17.000Z</time>
      </trkpt>
      <trkpt lat="45.24612" lon="6.16766">
        <ele>1853.8000488281</ele>
        <time>2019-05-01T12:00:26.000Z</time>
      </trkpt>
      <trkpt lat="45.24611" lon="6.16766">
        <ele>1853.5999755859</ele>
        <time>2019-05-01T12:00:31.000Z</time>
      </trkpt>
      <trkpt lat="45.24611" lon="6.16766">
        <ele>1853.4000244141</ele>
        <time>2019-05-01T12:00:32.000Z</time>
      </trkpt>
      <trkpt lat="45.24611" lon="6.16766">
        <ele>1852.1999511719</ele>
        <time>2019-05-01T12:00:39.000Z</time>
      </trkpt>
      <trkpt lat="45.24611" lon="6.16766">
        <ele>1852</ele>
        <time>2019-05-01T12:00:42.000Z</time>
      </trkpt>
      <trkpt lat="45.2461" lon="6.16766">
        <ele>1851.5999755859</ele>
        <time>2019-05-01T12:00:50.000Z</time>
      </trkpt>
      <trkpt lat="45.2461" lon="6.16766">
        <ele>1851.1999511719</ele>
        <time>2019-05-01T12:00:52.000Z</time>
      </trkpt>
      <trkpt lat="45.2461" lon="6.16766">
        <ele>1851</ele>
        <time>2019-05-01T12:00:59.000Z</time>
      </trkpt>
      <trkpt lat="45.2461" lon="6.16766">
        <ele>1851.1999511719</ele>
        <time>2019-05-01T12:01:05.000Z</time>
      </trkpt>
      <trkpt lat="45.2461" lon="6.16766">
        <ele>1851.1999511719</ele>
        <time>2019-05-01T12:01:12.000Z</time>
      </trkpt>
      <trkpt lat="45.2461" lon="6.16766">
        <ele>1851.1999511719</ele>
        <time>2019-05-01T12:01:14.000Z</time>
      </trkpt>
      <trkpt lat="45.2461" lon="6.16766">
        <ele>1851.1999511719</ele>
        <time>2019-05-01T12:01:24.000Z</time>
      </trkpt>
      <trkpt lat="45.24608" lon="6.16768">
        <ele>1851.1999511719</ele>
        <time>2019-05-01T12:01:28.000Z</time>
      </trkpt>
      <trkpt lat="45.24606" lon="6.1677">
        <ele>1851.1999511719</ele>
        <time>2019-05-01T12:01:29.000Z</time>
      </trkpt>
      <trkpt lat="45.24597" lon="6.16779">
        <ele>1850.4000244141</ele>
        <time>2019-05-01T12:01:33.000Z</time>
      </trkpt>
      <trkpt lat="45.24595" lon="6.16782">
        <ele>1850</ele>
        <time>2019-05-01T12:01:34.000Z</time>
      </trkpt>
      <trkpt lat="45.24591" lon="6.16788">
        <ele>1849</ele>
        <time>2019-05-01T12:01:37.000Z</time>
      </trkpt>
      <trkpt lat="45.2459" lon="6.16789">
        <ele>1848.8000488281</ele>
        <time>2019-05-01T12:01:38.000Z</time>
      </trkpt>
      <trkpt lat="45.2459" lon="6.1679">
        <ele>1848.5999755859</ele>
        <time>2019-05-01T12:01:40.000Z</time>
      </trkpt>
      <trkpt lat="45.24594" lon="6.16793">
        <ele>1848.4000244141</ele>
        <time>2019-05-01T12:01:42.000Z</time>
      </trkpt>
      <trkpt lat="45.24592" lon="6.168">
        <ele>1847.8000488281</ele>
        <time>2019-05-01T12:01:44.000Z</time>
      </trkpt>
      <trkpt lat="45.2459" lon="6.16804">
        <ele>1846</ele>
        <time>2019-05-01T12:01:46.000Z</time>
      </trkpt>
      <trkpt lat="45.2459" lon="6.16805">
        <ele>1844.8000488281</ele>
        <time>2019-05-01T12:01:47.000Z</time>
      </trkpt>
      <trkpt lat="45.24589" lon="6.16808">
        <ele>1843.5999755859</ele>
        <time>2019-05-01T12:01:48.000Z</time>
      </trkpt>
      <trkpt lat="45.24587" lon="6.16812">
        <ele>1842.5999755859</ele>
        <time>2019-05-01T12:01:49.000Z</time>
      </trkpt>
      <trkpt lat="45.24584" lon="6.16814">
        <ele>1841.8000488281</ele>
        <time>2019-05-01T12:01:50.000Z</time>
      </trkpt>
      <trkpt lat="45.24582" lon="6.16816">
        <ele>1841.4000244141</ele>
        <time>2019-05-01T12:01:51.000Z</time>
      </trkpt>
      <trkpt lat="45.2458" lon="6.16817">
        <ele>1840</ele>
        <time>2019-05-01T12:01:53.000Z</time>
      </trkpt>
      <trkpt lat="45.2458" lon="6.16817">
        <ele>1839.1999511719</ele>
        <time>2019-05-01T12:01:54.000Z</time>
      </trkpt>
      <trkpt lat="45.2458" lon="6.16817">
        <ele>1838.5999755859</ele>
        <time>2019-05-01T12:01:55.000Z</time>
      </trkpt>
      <trkpt lat="45.2458" lon="6.16816">
        <ele>1838</ele>
        <time>2019-05-01T12:02:01.000Z</time>
      </trkpt>
      <trkpt lat="45.2458" lon="6.16816">
        <ele>1837.8000488281</ele>
        <time>2019-05-01T12:02:08.000Z</time>
      </trkpt>
      <trkpt lat="45.2458" lon="6.16816">
        <ele>1837.5999755859</ele>
        <time>2019-05-01T12:02:10.000Z</time>
      </trkpt>
      <trkpt lat="45.2458" lon="6.16816">
        <ele>1837.4000244141</ele>
        <time>2019-05-01T12:02:21.000Z</time>
      </trkpt>
      <trkpt lat="45.24579" lon="6.16817">
        <ele>1837.4000244141</ele>
        <time>2019-05-01T12:02:29.000Z</time>
      </trkpt>
      <trkpt lat="45.24576" lon="6.16817">
        <ele>1837.8000488281</ele>
        <time>2019-05-01T12:02:36.000Z</time>
      </trkpt>
      <trkpt lat="45.24573" lon="6.16814">
        <ele>1838.4000244141</ele>
        <time>2019-05-01T12:02:41.000Z</time>
      </trkpt>
      <trkpt lat="45.24572" lon="6.16814">
        <ele>1838.8000488281</ele>
        <time>2019-05-01T12:02:43.000Z</time>
      </trkpt>
      <trkpt lat="45.24572" lon="6.16814">
        <ele>1838.8000488281</ele>
        <time>2019-05-01T12:02:47.000Z</time>
      </trkpt>
      <trkpt lat="45.24571" lon="6.16813">
        <ele>1838.5999755859</ele>
        <time>2019-05-01T12:02:53.000Z</time>
      </trkpt>
      <trkpt lat="45.24566" lon="6.16812">
        <ele>1840</ele>
        <time>2019-05-01T12:02:58.000Z</time>
      </trkpt>
      <trkpt lat="45.24565" lon="6.16812">
        <ele>1840.4000244141</ele>
        <time>2019-05-01T12:03:00.000Z</time>
      </trkpt>
      <trkpt lat="45.24564" lon="6.16812">
        <ele>1841.1999511719</ele>
        <time>2019-05-01T12:03:04.000Z</time>
      </trkpt>
      <trkpt lat="45.24562" lon="6.1681">
        <ele>1841.5999755859</ele>
        <time>2019-05-01T12:03:06.000Z</time>
      </trkpt>
      <trkpt lat="45.2456" lon="6.16811">
        <ele>1842.4000244141</ele>
        <time>2019-05-01T12:03:09.000Z</time>
      </trkpt>
      <trkpt lat="45.24559" lon="6.16813">
        <ele>1842.4000244141</ele>
        <time>2019-05-01T12:03:12.000Z</time>
      </trkpt>
      <trkpt lat="45.24559" lon="6.16814">
        <ele>1842.4000244141</ele>
        <time>2019-05-01T12:03:13.000Z</time>
      </trkpt>
      <trkpt lat="45.24558" lon="6.16816">
        <ele>1841.1999511719</ele>
        <time>2019-05-01T12:03:19.000Z</time>
      </trkpt>
      <trkpt lat="45.24557" lon="6.1682">
        <ele>1840.5999755859</ele>
        <time>2019-05-01T12:03:22.000Z</time>
      </trkpt>
      <trkpt lat="45.24556" lon="6.16821">
        <ele>1840.1999511719</ele>
        <time>2019-05-01T12:03:23.000Z</time>
      </trkpt>
      <trkpt lat="45.24554" lon="6.16823">
        <ele>1839.1999511719</ele>
        <time>2019-05-01T12:03:25.000Z</time>
      </trkpt>
      <trkpt lat="45.24554" lon="6.16823">
        <ele>1838.8000488281</ele>
        <time>2019-05-01T12:03:26.000Z</time>
      </trkpt>
      <trkpt lat="45.2455" lon="6.16825">
        <ele>1837.4000244141</ele>
        <time>2019-05-01T12:03:30.000Z</time>
      </trkpt>
      <trkpt lat="45.2455" lon="6.16826">
        <ele>1836.8000488281</ele>
        <time>2019-05-01T12:03:31.000Z</time>
      </trkpt>
      <trkpt lat="45.24549" lon="6.16827">
        <ele>1836.4000244141</ele>
        <time>2019-05-01T12:03:32.000Z</time>
      </trkpt>
      <trkpt lat="45.24549" lon="6.16829">
        <ele>1835.4000244141</ele>
        <time>2019-05-01T12:03:35.000Z</time>
      </trkpt>
      <trkpt lat="45.24548" lon="6.1683">
        <ele>1834.8000488281</ele>
        <time>2019-05-01T12:03:36.000Z</time>
      </trkpt>
      <trkpt lat="45.24548" lon="6.1683">
        <ele>1834.1999511719</ele>
        <time>2019-05-01T12:03:38.000Z</time>
      </trkpt>
      <trkpt lat="45.24547" lon="6.16833">
        <ele>1833.8000488281</ele>
        <time>2019-05-01T12:03:42.000Z</time>
      </trkpt>
      <trkpt lat="45.24548" lon="6.16836">
        <ele>1833</ele>
        <time>2019-05-01T12:03:44.000Z</time>
      </trkpt>
      <trkpt lat="45.24548" lon="6.1684">
        <ele>1831.8000488281</ele>
        <time>2019-05-01T12:03:47.000Z</time>
      </trkpt>
      <trkpt lat="45.24548" lon="6.16842">
        <ele>1830.5999755859</ele>
        <time>2019-05-01T12:03:49.000Z</time>
      </trkpt>
      <trkpt lat="45.24548" lon="6.16844">
        <ele>1829.4000244141</ele>
        <time>2019-05-01T12:03:51.000Z</time>
      </trkpt>
      <trkpt lat="45.24547" lon="6.16844">
        <ele>1828.8000488281</ele>
        <time>2019-05-01T12:03:52.000Z</time>
      </trkpt>
      <trkpt lat="45.24547" lon="6.16845">
        <ele>1828.1999511719</ele>
        <time>2019-05-01T12:03:53.000Z</time>
      </trkpt>
      <trkpt lat="45.24545" lon="6.16847">
        <ele>1827.1999511719</ele>
        <time>2019-05-01T12:03:55.000Z</time>
      </trkpt>
      <trkpt lat="45.24542" lon="6.1685">
        <ele>1826</ele>
        <time>2019-05-01T12:03:58.000Z</time>
      </trkpt>
      <trkpt lat="45.24541" lon="6.16851">
        <ele>1825.5999755859</ele>
        <time>2019-05-01T12:03:59.000Z</time>
      </trkpt>
      <trkpt lat="45.24541" lon="6.16851">
        <ele>1824.5999755859</ele>
        <time>2019-05-01T12:04:01.000Z</time>
      </trkpt>
      <trkpt lat="45.24538" lon="6.16852">
        <ele>1823.4000244141</ele>
        <time>2019-05-01T12:04:04.000Z</time>
      </trkpt>
      <trkpt lat="45.24537" lon="6.16854">
        <ele>1822.5999755859</ele>
        <time>2019-05-01T12:04:06.000Z</time>
      </trkpt>
      <trkpt lat="45.24537" lon="6.16855">
        <ele>1822.4000244141</ele>
        <time>2019-05-01T12:04:07.000Z</time>
      </trkpt>
      <trkpt lat="45.24536" lon="6.16856">
        <ele>1821.1999511719</ele>
        <time>2019-05-01T12:04:09.000Z</time>
      </trkpt>
      <trkpt lat="45.24534" lon="6.16857">
        <ele>1820</ele>
        <time>2019-05-01T12:04:12.000Z</time>
      </trkpt>
      <trkpt lat="45.24533" lon="6.16857">
        <ele>1819</ele>
        <time>2019-05-01T12:04:14.000Z</time>
      </trkpt>
      <trkpt lat="45.24532" lon="6.16858">
        <ele>1818.8000488281</ele>
        <time>2019-05-01T12:04:15.000Z</time>
      </trkpt>
      <trkpt lat="45.2453" lon="6.16859">
        <ele>1818.8000488281</ele>
        <time>2019-05-01T12:04:17.000Z</time>
      </trkpt>
      <trkpt lat="45.24528" lon="6.16861">
        <ele>1818.5999755859</ele>
        <time>2019-05-01T12:04:19.000Z</time>
      </trkpt>
      <trkpt lat="45.24525" lon="6.16861">
        <ele>1818.1999511719</ele>
        <time>2019-05-01T12:04:21.000Z</time>
      </trkpt>
      <trkpt lat="45.24523" lon="6.16862">
        <ele>1817.5999755859</ele>
        <time>2019-05-01T12:04:23.000Z</time>
      </trkpt>
      <trkpt lat="45.24521" lon="6.16861">
        <ele>1817</ele>
        <time>2019-05-01T12:04:25.000Z</time>
      </trkpt>
      <trkpt lat="45.24519" lon="6.16863">
        <ele>1816.4000244141</ele>
        <time>2019-05-01T12:04:29.000Z</time>
      </trkpt>
      <trkpt lat="45.24518" lon="6.16864">
        <ele>1815.8000488281</ele>
        <time>2019-05-01T12:04:31.000Z</time>
      </trkpt>
      <trkpt lat="45.24518" lon="6.16865">
        <ele>1815.1999511719</ele>
        <time>2019-05-01T12:04:32.000Z</time>
      </trkpt>
      <trkpt lat="45.24519" lon="6.16866">
        <ele>1814</ele>
        <time>2019-05-01T12:04:36.000Z</time>
      </trkpt>
      <trkpt lat="45.24519" lon="6.16867">
        <ele>1813.5999755859</ele>
        <time>2019-05-01T12:04:37.000Z</time>
      </trkpt>
      <trkpt lat="45.24519" lon="6.16867">
        <ele>1813</ele>
        <time>2019-05-01T12:04:46.000Z</time>
      </trkpt>
      <trkpt lat="45.24519" lon="6.16867">
        <ele>1812.8000488281</ele>
        <time>2019-05-01T12:04:48.000Z</time>
      </trkpt>
      <trkpt lat="45.24519" lon="6.16867">
        <ele>1812.5999755859</ele>
        <time>2019-05-01T12:05:03.000Z</time>
      </trkpt>
      <trkpt lat="45.24519" lon="6.16867">
        <ele>1812.1999511719</ele>
        <time>2019-05-01T12:05:14.000Z</time>
      </trkpt>
      <trkpt lat="45.24519" lon="6.16866">
        <ele>1812.1999511719</ele>
        <time>2019-05-01T12:05:30.000Z</time>
      </trkpt>
      <trkpt lat="45.24519" lon="6.16866">
        <ele>1812.4000244141</ele>
        <time>2019-05-01T12:05:44.000Z</time>
      </trkpt>
      <trkpt lat="45.24519" lon="6.16866">
        <ele>1812.1999511719</ele>
        <time>2019-05-01T12:05:55.000Z</time>
      </trkpt>
      <trkpt lat="45.24519" lon="6.16866">
        <ele>1812.1999511719</ele>
        <time>2019-05-01T12:06:04.000Z</time>
      </trkpt>
      <trkpt lat="45.24519" lon="6.16866">
        <ele>1812.4000244141</ele>
        <time>2019-05-01T12:06:13.000Z</time>
      </trkpt>
      <trkpt lat="45.24519" lon="6.16866">
        <ele>1812.4000244141</ele>
        <time>2019-05-01T12:06:26.000Z</time>
      </trkpt>
      <trkpt lat="45.24521" lon="6.16869">
        <ele>1812.4000244141</ele>
        <time>2019-05-01T12:06:33.000Z</time>
      </trkpt>
      <trkpt lat="45.24523" lon="6.1687">
        <ele>1812.4000244141</ele>
        <time>2019-05-01T12:06:34.000Z</time>
      </trkpt>
      <trkpt lat="45.24523" lon="6.16876">
        <ele>1811.8000488281</ele>
        <time>2019-05-01T12:06:36.000Z</time>
      </trkpt>
      <trkpt lat="45.24521" lon="6.16879">
        <ele>1811.1999511719</ele>
        <time>2019-05-01T12:06:37.000Z</time>
      </trkpt>
      <trkpt lat="45.2452" lon="6.16884">
        <ele>1810.4000244141</ele>
        <time>2019-05-01T12:06:38.000Z</time>
      </trkpt>
      <trkpt lat="45.24522" lon="6.16888">
        <ele>1809.4000244141</ele>
        <time>2019-05-01T12:06:39.000Z</time>
      </trkpt>
      <trkpt lat="45.24521" lon="6.16892">
        <ele>1808.5999755859</ele>
        <time>2019-05-01T12:06:40.000Z</time>
      </trkpt>
      <trkpt lat="45.24515" lon="6.169">
        <ele>1806.5999755859</ele>
        <time>2019-05-01T12:06:42.000Z</time>
      </trkpt>
      <trkpt lat="45.24512" lon="6.16903">
        <ele>1805.1999511719</ele>
        <time>2019-05-01T12:06:43.000Z</time>
      </trkpt>
      <trkpt lat="45.24508" lon="6.16904">
        <ele>1803.5999755859</ele>
        <time>2019-05-01T12:06:44.000Z</time>
      </trkpt>
      <trkpt lat="45.24505" lon="6.16905">
        <ele>1802</ele>
        <time>2019-05-01T12:06:45.000Z</time>
      </trkpt>
      <trkpt lat="45.24503" lon="6.16905">
        <ele>1800.5999755859</ele>
        <time>2019-05-01T12:06:46.000Z</time>
      </trkpt>
      <trkpt lat="45.24501" lon="6.16908">
        <ele>1799.4000244141</ele>
        <time>2019-05-01T12:06:47.000Z</time>
      </trkpt>
      <trkpt lat="45.24499" lon="6.16913">
        <ele>1797.8000488281</ele>
        <time>2019-05-01T12:06:49.000Z</time>
      </trkpt>
      <trkpt lat="45.245" lon="6.16913">
        <ele>1797.1999511719</ele>
        <time>2019-05-01T12:06:50.000Z</time>
      </trkpt>
      <trkpt lat="45.245" lon="6.16913">
        <ele>1796.4000244141</ele>
        <time>2019-05-01T12:06:51.000Z</time>
      </trkpt>
      <trkpt lat="45.245" lon="6.16913">
        <ele>1795</ele>
        <time>2019-05-01T12:06:53.000Z</time>
      </trkpt>
      <trkpt lat="45.245" lon="6.16913">
        <ele>1794</ele>
        <time>2019-05-01T12:06:55.000Z</time>
      </trkpt>
      <trkpt lat="45.245" lon="6.16913">
        <ele>1793.4000244141</ele>
        <time>2019-05-01T12:06:58.000Z</time>
      </trkpt>
      <trkpt lat="45.245" lon="6.16913">
        <ele>1793.5999755859</ele>
        <time>2019-05-01T12:07:14.000Z</time>
      </trkpt>
      <trkpt lat="45.245" lon="6.16913">
        <ele>1793.5999755859</ele>
        <time>2019-05-01T12:07:29.000Z</time>
      </trkpt>
      <trkpt lat="45.24501" lon="6.16913">
        <ele>1793.5999755859</ele>
        <time>2019-05-01T12:07:47.000Z</time>
      </trkpt>
      <trkpt lat="45.24503" lon="6.16921">
        <ele>1793.1999511719</ele>
        <time>2019-05-01T12:07:50.000Z</time>
      </trkpt>
      <trkpt lat="45.24501" lon="6.16924">
        <ele>1792.5999755859</ele>
        <time>2019-05-01T12:07:51.000Z</time>
      </trkpt>
      <trkpt lat="45.24496" lon="6.16931">
        <ele>1790.8000488281</ele>
        <time>2019-05-01T12:07:53.000Z</time>
      </trkpt>
      <trkpt lat="45.24493" lon="6.16934">
        <ele>1789.8000488281</ele>
        <time>2019-05-01T12:07:54.000Z</time>
      </trkpt>
      <trkpt lat="45.24491" lon="6.16937">
        <ele>1788.8000488281</ele>
        <time>2019-05-01T12:07:55.000Z</time>
      </trkpt>
      <trkpt lat="45.24487" lon="6.16946">
        <ele>1787.1999511719</ele>
        <time>2019-05-01T12:07:57.000Z</time>
      </trkpt>
      <trkpt lat="45.24487" lon="6.16952">
        <ele>1786.5999755859</ele>
        <time>2019-05-01T12:07:58.000Z</time>
      </trkpt>
      <trkpt lat="45.24489" lon="6.16956">
        <ele>1786</ele>
        <time>2019-05-01T12:07:59.000Z</time>
      </trkpt>
      <trkpt lat="45.24494" lon="6.16966">
        <ele>1784.4000244141</ele>
        <time>2019-05-01T12:08:01.000Z</time>
      </trkpt>
      <trkpt lat="45.24496" lon="6.16971">
        <ele>1783.1999511719</ele>
        <time>2019-05-01T12:08:02.000Z</time>
      </trkpt>
      <trkpt lat="45.24497" lon="6.16976">
        <ele>1781.5999755859</ele>
        <time>2019-05-01T12:08:03.000Z</time>
      </trkpt>
      <trkpt lat="45.24498" lon="6.16981">
        <ele>1780</ele>
        <time>2019-05-01T12:08:04.000Z</time>
      </trkpt>
      <trkpt lat="45.24498" lon="6.16987">
        <ele>1778</ele>
        <time>2019-05-01T12:08:05.000Z</time>
      </trkpt>
      <trkpt lat="45.24498" lon="6.16993">
        <ele>1776.1999511719</ele>
        <time>2019-05-01T12:08:06.000Z</time>
      </trkpt>
      <trkpt lat="45.245" lon="6.16998">
        <ele>1774.4000244141</ele>
        <time>2019-05-01T12:08:07.000Z</time>
      </trkpt>
      <trkpt lat="45.24502" lon="6.17006">
        <ele>1771.1999511719</ele>
        <time>2019-05-01T12:08:08.000Z</time>
      </trkpt>
      <trkpt lat="45.24499" lon="6.17014">
        <ele>1769.5999755859</ele>
        <time>2019-05-01T12:08:09.000Z</time>
      </trkpt>
      <trkpt lat="45.24499" lon="6.1702">
        <ele>1767.5999755859</ele>
        <time>2019-05-01T12:08:10.000Z</time>
      </trkpt>
      <trkpt lat="45.24495" lon="6.17026">
        <ele>1765.5999755859</ele>
        <time>2019-05-01T12:08:11.000Z</time>
      </trkpt>
      <trkpt lat="45.24493" lon="6.1703">
        <ele>1763.5999755859</ele>
        <time>2019-05-01T12:08:12.000Z</time>
      </trkpt>
      <trkpt lat="45.24491" lon="6.17033">
        <ele>1762.1999511719</ele>
        <time>2019-05-01T12:08:13.000Z</time>
      </trkpt>
      <trkpt lat="45.24489" lon="6.17034">
        <ele>1761.1999511719</ele>
        <time>2019-05-01T12:08:14.000Z</time>
      </trkpt>
      <trkpt lat="45.24487" lon="6.17036">
        <ele>1760.4000244141</ele>
        <time>2019-05-01T12:08:15.000Z</time>
      </trkpt>
      <trkpt lat="45.24485" lon="6.17038">
        <ele>1760</ele>
        <time>2019-05-01T12:08:16.000Z</time>
      </trkpt>
      <trkpt lat="45.24481" lon="6.17042">
        <ele>1759.5999755859</ele>
        <time>2019-05-01T12:08:19.000Z</time>
      </trkpt>
      <trkpt lat="45.24476" lon="6.1704">
        <ele>1759.1999511719</ele>
        <time>2019-05-01T12:08:25.000Z</time>
      </trkpt>
      <trkpt lat="45.24475" lon="6.17039">
        <ele>1759.4000244141</ele>
        <time>2019-05-01T12:08:31.000Z</time>
      </trkpt>
      <trkpt lat="45.24474" lon="6.17038">
        <ele>1759.5999755859</ele>
        <time>2019-05-01T12:08:32.000Z</time>
      </trkpt>
      <trkpt lat="45.24473" lon="6.17037">
        <ele>1760.4000244141</ele>
        <time>2019-05-01T12:08:38.000Z</time>
      </trkpt>
      <trkpt lat="45.24471" lon="6.17033">
        <ele>1761</ele>
        <time>2019-05-01T12:08:44.000Z</time>
      </trkpt>
      <trkpt lat="45.24471" lon="6.17033">
        <ele>1761.1999511719</ele>
        <time>2019-05-01T12:08:45.000Z</time>
      </trkpt>
      <trkpt lat="45.2447" lon="6.17034">
        <ele>1761.4000244141</ele>
        <time>2019-05-01T12:08:46.000Z</time>
      </trkpt>
      <trkpt lat="45.24467" lon="6.17039">
        <ele>1761.5999755859</ele>
        <time>2019-05-01T12:08:48.000Z</time>
      </trkpt>
      <trkpt lat="45.24463" lon="6.17046">
        <ele>1761.1999511719</ele>
        <time>2019-05-01T12:08:52.000Z</time>
      </trkpt>
      <trkpt lat="45.24462" lon="6.17046">
        <ele>1761</ele>
        <time>2019-05-01T12:08:53.000Z</time>
      </trkpt>
      <trkpt lat="45.24462" lon="6.17046">
        <ele>1760</ele>
        <time>2019-05-01T12:08:57.000Z</time>
      </trkpt>
      <trkpt lat="45.24462" lon="6.17046">
        <ele>1759.5999755859</ele>
        <time>2019-05-01T12:09:01.000Z</time>
      </trkpt>
      <trkpt lat="45.24462" lon="6.17047">
        <ele>1759.5999755859</ele>
        <time>2019-05-01T12:09:02.000Z</time>
      </trkpt>
      <trkpt lat="45.24466" lon="6.17055">
        <ele>1759.5999755859</ele>
        <time>2019-05-01T12:09:04.000Z</time>
      </trkpt>
      <trkpt lat="45.24474" lon="6.17067">
        <ele>1758.8000488281</ele>
        <time>2019-05-01T12:09:07.000Z</time>
      </trkpt>
      <trkpt lat="45.24476" lon="6.17075">
        <ele>1758.1999511719</ele>
        <time>2019-05-01T12:09:08.000Z</time>
      </trkpt>
      <trkpt lat="45.2448" lon="6.1708">
        <ele>1757.1999511719</ele>
        <time>2019-05-01T12:09:09.000Z</time>
      </trkpt>
      <trkpt lat="45.24483" lon="6.17084">
        <ele>1756.1999511719</ele>
        <time>2019-05-01T12:09:10.000Z</time>
      </trkpt>
      <trkpt lat="45.24485" lon="6.17089">
        <ele>1755</ele>
        <time>2019-05-01T12:09:11.000Z</time>
      </trkpt>
      <trkpt lat="45.24488" lon="6.17094">
        <ele>1753.5999755859</ele>
        <time>2019-05-01T12:09:12.000Z</time>
      </trkpt>
      <trkpt lat="45.24492" lon="6.17097">
        <ele>1752</ele>
        <time>2019-05-01T12:09:13.000Z</time>
      </trkpt>
      <trkpt lat="45.24495" lon="6.17102">
        <ele>1750.1999511719</ele>
        <time>2019-05-01T12:09:14.000Z</time>
      </trkpt>
      <trkpt lat="45.24497" lon="6.17106">
        <ele>1748.8000488281</ele>
        <time>2019-05-01T12:09:15.000Z</time>
      </trkpt>
      <trkpt lat="45.24499" lon="6.17112">
        <ele>1747.1999511719</ele>
        <time>2019-05-01T12:09:16.000Z</time>
      </trkpt>
      <trkpt lat="45.24502" lon="6.17118">
        <ele>1745.8000488281</ele>
        <time>2019-05-01T12:09:17.000Z</time>
      </trkpt>
      <trkpt lat="45.24501" lon="6.17124">
        <ele>1744.4000244141</ele>
        <time>2019-05-01T12:09:18.000Z</time>
      </trkpt>
      <trkpt lat="45.24501" lon="6.17127">
        <ele>1743</ele>
        <time>2019-05-01T12:09:19.000Z</time>
      </trkpt>
      <trkpt lat="45.24501" lon="6.17127">
        <ele>1740.1999511719</ele>
        <time>2019-05-01T12:09:20.000Z</time>
      </trkpt>
      <trkpt lat="45.24501" lon="6.17127">
        <ele>1738.5999755859</ele>
        <time>2019-05-01T12:09:21.000Z</time>
      </trkpt>
      <trkpt lat="45.24501" lon="6.17127">
        <ele>1737.5999755859</ele>
        <time>2019-05-01T12:09:22.000Z</time>
      </trkpt>
      <trkpt lat="45.24501" lon="6.17126">
        <ele>1736.8000488281</ele>
        <time>2019-05-01T12:09:23.000Z</time>
      </trkpt>
      <trkpt lat="45.245" lon="6.17125">
        <ele>1736.4000244141</ele>
        <time>2019-05-01T12:09:24.000Z</time>
      </trkpt>
      <trkpt lat="45.24501" lon="6.17131">
        <ele>1736</ele>
        <time>2019-05-01T12:09:28.000Z</time>
      </trkpt>
      <trkpt lat="45.2451" lon="6.17142">
        <ele>1735.5999755859</ele>
        <time>2019-05-01T12:09:31.000Z</time>
      </trkpt>
      <trkpt lat="45.24511" lon="6.17146">
        <ele>1735</ele>
        <time>2019-05-01T12:09:32.000Z</time>
      </trkpt>
      <trkpt lat="45.24509" lon="6.1715">
        <ele>1733</ele>
        <time>2019-05-01T12:09:34.000Z</time>
      </trkpt>
      <trkpt lat="45.24509" lon="6.1715">
        <ele>1731.5999755859</ele>
        <time>2019-05-01T12:09:35.000Z</time>
      </trkpt>
      <trkpt lat="45.24508" lon="6.1715">
        <ele>1730.1999511719</ele>
        <time>2019-05-01T12:09:36.000Z</time>
      </trkpt>
      <trkpt lat="45.24508" lon="6.1715">
        <ele>1729</ele>
        <time>2019-05-01T12:09:37.000Z</time>
      </trkpt>
      <trkpt lat="45.24508" lon="6.17151">
        <ele>1727.5999755859</ele>
        <time>2019-05-01T12:09:39.000Z</time>
      </trkpt>
      <trkpt lat="45.24508" lon="6.17151">
        <ele>1726.8000488281</ele>
        <time>2019-05-01T12:09:55.000Z</time>
      </trkpt>
      <trkpt lat="45.24508" lon="6.17151">
        <ele>1726.8000488281</ele>
        <time>2019-05-01T12:10:10.000Z</time>
      </trkpt>
      <trkpt lat="45.24508" lon="6.17151">
        <ele>1726.8000488281</ele>
        <time>2019-05-01T12:10:26.000Z</time>
      </trkpt>
      <trkpt lat="45.24508" lon="6.17151">
        <ele>1726.5999755859</ele>
        <time>2019-05-01T12:10:40.000Z</time>
      </trkpt>
      <trkpt lat="45.24507" lon="6.17155">
        <ele>1726.5999755859</ele>
        <time>2019-05-01T12:10:49.000Z</time>
      </trkpt>
      <trkpt lat="45.24509" lon="6.17165">
        <ele>1726.5999755859</ele>
        <time>2019-05-01T12:10:52.000Z</time>
      </trkpt>
      <trkpt lat="45.24507" lon="6.17179">
        <ele>1725.1999511719</ele>
        <time>2019-05-01T12:10:54.000Z</time>
      </trkpt>
      <trkpt lat="45.24507" lon="6.17187">
        <ele>1724</ele>
        <time>2019-05-01T12:10:55.000Z</time>
      </trkpt>
      <trkpt lat="45.24504" lon="6.17197">
        <ele>1722.1999511719</ele>
        <time>2019-05-01T12:10:56.000Z</time>
      </trkpt>
      <trkpt lat="45.24504" lon="6.17208">
        <ele>1718</ele>
        <time>2019-05-01T12:10:57.000Z</time>
      </trkpt>
      <trkpt lat="45.24503" lon="6.17217">
        <ele>1715.5999755859</ele>
        <time>2019-05-01T12:10:58.000Z</time>
      </trkpt>
      <trkpt lat="45.24501" lon="6.17226">
        <ele>1713.1999511719</ele>
        <time>2019-05-01T12:10:59.000Z</time>
      </trkpt>
      <trkpt lat="45.24501" lon="6.17237">
        <ele>1710.4000244141</ele>
        <time>2019-05-01T12:11:00.000Z</time>
      </trkpt>
      <trkpt lat="45.245" lon="6.17248">
        <ele>1707.5999755859</ele>
        <time>2019-05-01T12:11:01.000Z</time>
      </trkpt>
      <trkpt lat="45.24499" lon="6.17258">
        <ele>1705</ele>
        <time>2019-05-01T12:11:02.000Z</time>
      </trkpt>
      <trkpt lat="45.24495" lon="6.17266">
        <ele>1702.5999755859</ele>
        <time>2019-05-01T12:11:03.000Z</time>
      </trkpt>
      <trkpt lat="45.24492" lon="6.17273">
        <ele>1700.1999511719</ele>
        <time>2019-05-01T12:11:04.000Z</time>
      </trkpt>
      <trkpt lat="45.2449" lon="6.1728">
        <ele>1698</ele>
        <time>2019-05-01T12:11:05.000Z</time>
      </trkpt>
      <trkpt lat="45.24492" lon="6.17285">
        <ele>1696.1999511719</ele>
        <time>2019-05-01T12:11:06.000Z</time>
      </trkpt>
      <trkpt lat="45.24495" lon="6.17289">
        <ele>1694.5999755859</ele>
        <time>2019-05-01T12:11:07.000Z</time>
      </trkpt>
      <trkpt lat="45.24498" lon="6.17295">
        <ele>1693.5999755859</ele>
        <time>2019-05-01T12:11:08.000Z</time>
      </trkpt>
      <trkpt lat="45.245" lon="6.17299">
        <ele>1692.4000244141</ele>
        <time>2019-05-01T12:11:09.000Z</time>
      </trkpt>
      <trkpt lat="45.24499" lon="6.17305">
        <ele>1691.1999511719</ele>
        <time>2019-05-01T12:11:10.000Z</time>
      </trkpt>
      <trkpt lat="45.24496" lon="6.17312">
        <ele>1689.8000488281</ele>
        <time>2019-05-01T12:11:11.000Z</time>
      </trkpt>
      <trkpt lat="45.24493" lon="6.17317">
        <ele>1688</ele>
        <time>2019-05-01T12:11:12.000Z</time>
      </trkpt>
      <trkpt lat="45.2449" lon="6.17322">
        <ele>1686.1999511719</ele>
        <time>2019-05-01T12:11:13.000Z</time>
      </trkpt>
      <trkpt lat="45.24488" lon="6.17326">
        <ele>1684.4000244141</ele>
        <time>2019-05-01T12:11:14.000Z</time>
      </trkpt>
      <trkpt lat="45.24485" lon="6.17331">
        <ele>1683</ele>
        <time>2019-05-01T12:11:15.000Z</time>
      </trkpt>
      <trkpt lat="45.24482" lon="6.17343">
        <ele>1681.5999755859</ele>
        <time>2019-05-01T12:11:17.000Z</time>
      </trkpt>
      <trkpt lat="45.2448" lon="6.17358">
        <ele>1680</ele>
        <time>2019-05-01T12:11:20.000Z</time>
      </trkpt>
      <trkpt lat="45.24479" lon="6.17362">
        <ele>1678.8000488281</ele>
        <time>2019-05-01T12:11:21.000Z</time>
      </trkpt>
      <trkpt lat="45.24479" lon="6.17367">
        <ele>1678.5999755859</ele>
        <time>2019-05-01T12:11:22.000Z</time>
      </trkpt>
      <trkpt lat="45.24479" lon="6.17379">
        <ele>1677.8000488281</ele>
        <time>2019-05-01T12:11:25.000Z</time>
      </trkpt>
      <trkpt lat="45.24482" lon="6.17387">
        <ele>1677.4000244141</ele>
        <time>2019-05-01T12:11:27.000Z</time>
      </trkpt>
      <trkpt lat="45.2449" lon="6.17399">
        <ele>1676.4000244141</ele>
        <time>2019-05-01T12:11:30.000Z</time>
      </trkpt>
      <trkpt lat="45.24494" lon="6.17402">
        <ele>1675.8000488281</ele>
        <time>2019-05-01T12:11:31.000Z</time>
      </trkpt>
      <trkpt lat="45.24496" lon="6.17405">
        <ele>1675.1999511719</ele>
        <time>2019-05-01T12:11:32.000Z</time>
      </trkpt>
      <trkpt lat="45.245" lon="6.17409">
        <ele>1674</ele>
        <time>2019-05-01T12:11:34.000Z</time>
      </trkpt>
      <trkpt lat="45.24501" lon="6.17411">
        <ele>1673.4000244141</ele>
        <time>2019-05-01T12:11:35.000Z</time>
      </trkpt>
      <trkpt lat="45.24502" lon="6.17412">
        <ele>1672.8000488281</ele>
        <time>2019-05-01T12:11:36.000Z</time>
      </trkpt>
      <trkpt lat="45.24506" lon="6.17417">
        <ele>1672.1999511719</ele>
        <time>2019-05-01T12:11:39.000Z</time>
      </trkpt>
      <trkpt lat="45.24509" lon="6.17419">
        <ele>1672</ele>
        <time>2019-05-01T12:11:41.000Z</time>
      </trkpt>
      <trkpt lat="45.24516" lon="6.17424">
        <ele>1671.8000488281</ele>
        <time>2019-05-01T12:11:45.000Z</time>
      </trkpt>
      <trkpt lat="45.2452" lon="6.17426">
        <ele>1671.5999755859</ele>
        <time>2019-05-01T12:11:47.000Z</time>
      </trkpt>
      <trkpt lat="45.24528" lon="6.17428">
        <ele>1670.5999755859</ele>
        <time>2019-05-01T12:11:51.000Z</time>
      </trkpt>
      <trkpt lat="45.24528" lon="6.17428">
        <ele>1670.1999511719</ele>
        <time>2019-05-01T12:11:52.000Z</time>
      </trkpt>
      <trkpt lat="45.24528" lon="6.17428">
        <ele>1669.4000244141</ele>
        <time>2019-05-01T12:11:54.000Z</time>
      </trkpt>
      <trkpt lat="45.24528" lon="6.17428">
        <ele>1669</ele>
        <time>2019-05-01T12:12:04.000Z</time>
      </trkpt>
      <trkpt lat="45.24528" lon="6.17428">
        <ele>1668.5999755859</ele>
        <time>2019-05-01T12:12:18.000Z</time>
      </trkpt>
      <trkpt lat="45.24529" lon="6.17432">
        <ele>1668.5999755859</ele>
        <time>2019-05-01T12:12:23.000Z</time>
      </trkpt>
      <trkpt lat="45.2453" lon="6.17432">
        <ele>1668.4000244141</ele>
        <time>2019-05-01T12:12:29.000Z</time>
      </trkpt>
      <trkpt lat="45.2453" lon="6.17432">
        <ele>1668</ele>
        <time>2019-05-01T12:12:38.000Z</time>
      </trkpt>
      <trkpt lat="45.2453" lon="6.17433">
        <ele>1668.1999511719</ele>
        <time>2019-05-01T12:12:45.000Z</time>
      </trkpt>
      <trkpt lat="45.24533" lon="6.17434">
        <ele>1668.1999511719</ele>
        <time>2019-05-01T12:12:50.000Z</time>
      </trkpt>
      <trkpt lat="45.24535" lon="6.17434">
        <ele>1667.8000488281</ele>
        <time>2019-05-01T12:12:58.000Z</time>
      </trkpt>
      <trkpt lat="45.24535" lon="6.17434">
        <ele>1667.8000488281</ele>
        <time>2019-05-01T12:13:07.000Z</time>
      </trkpt>
      <trkpt lat="45.24535" lon="6.17434">
        <ele>1668</ele>
        <time>2019-05-01T12:13:22.000Z</time>
      </trkpt>
      <trkpt lat="45.24535" lon="6.17434">
        <ele>1668</ele>
        <time>2019-05-01T12:13:34.000Z</time>
      </trkpt>
      <trkpt lat="45.24539" lon="6.17438">
        <ele>1668</ele>
        <time>2019-05-01T12:13:43.000Z</time>
      </trkpt>
      <trkpt lat="45.24551" lon="6.17447">
        <ele>1667.1999511719</ele>
        <time>2019-05-01T12:13:48.000Z</time>
      </trkpt>
      <trkpt lat="45.24558" lon="6.1746">
        <ele>1666.1999511719</ele>
        <time>2019-05-01T12:13:52.000Z</time>
      </trkpt>
      <trkpt lat="45.24562" lon="6.17463">
        <ele>1665.4000244141</ele>
        <time>2019-05-01T12:13:57.000Z</time>
      </trkpt>
      <trkpt lat="45.24566" lon="6.17464">
        <ele>1665.1999511719</ele>
        <time>2019-05-01T12:14:04.000Z</time>
      </trkpt>
      <trkpt lat="45.24571" lon="6.17466">
        <ele>1665</ele>
        <time>2019-05-01T12:14:10.000Z</time>
      </trkpt>
      <trkpt lat="45.24574" lon="6.17469">
        <ele>1665</ele>
        <time>2019-05-01T12:14:15.000Z</time>
      </trkpt>
      <trkpt lat="45.24582" lon="6.17478">
        <ele>1665</ele>
        <time>2019-05-01T12:14:22.000Z</time>
      </trkpt>
      <trkpt lat="45.24597" lon="6.17487">
        <ele>1664.5999755859</ele>
        <time>2019-05-01T12:14:29.000Z</time>
      </trkpt>
      <trkpt lat="45.24611" lon="6.17494">
        <ele>1663.8000488281</ele>
        <time>2019-05-01T12:14:33.000Z</time>
      </trkpt>
      <trkpt lat="45.24617" lon="6.17498">
        <ele>1662.8000488281</ele>
        <time>2019-05-01T12:14:35.000Z</time>
      </trkpt>
      <trkpt lat="45.24623" lon="6.17502">
        <ele>1661.5999755859</ele>
        <time>2019-05-01T12:14:38.000Z</time>
      </trkpt>
      <trkpt lat="45.24624" lon="6.17503">
        <ele>1661.1999511719</ele>
        <time>2019-05-01T12:14:39.000Z</time>
      </trkpt>
      <trkpt lat="45.24626" lon="6.17505">
        <ele>1660.8000488281</ele>
        <time>2019-05-01T12:14:44.000Z</time>
      </trkpt>
      <trkpt lat="45.24625" lon="6.17509">
        <ele>1661.1999511719</ele>
        <time>2019-05-01T12:14:49.000Z</time>
      </trkpt>
      <trkpt lat="45.24628" lon="6.17513">
        <ele>1661.5999755859</ele>
        <time>2019-05-01T12:14:54.000Z</time>
      </trkpt>
      <trkpt lat="45.24628" lon="6.17518">
        <ele>1662.1999511719</ele>
        <time>2019-05-01T12:14:59.000Z</time>
      </trkpt>
      <trkpt lat="45.2463" lon="6.17523">
        <ele>1662.5999755859</ele>
        <time>2019-05-01T12:15:03.000Z</time>
      </trkpt>
      <trkpt lat="45.24631" lon="6.17525">
        <ele>1662.8000488281</ele>
        <time>2019-05-01T12:15:06.000Z</time>
      </trkpt>
      <trkpt lat="45.24636" lon="6.17528">
        <ele>1663.1999511719</ele>
        <time>2019-05-01T12:15:12.000Z</time>
      </trkpt>
      <trkpt lat="45.24648" lon="6.17533">
        <ele>1663.1999511719</ele>
        <time>2019-05-01T12:15:19.000Z</time>
      </trkpt>
      <trkpt lat="45.24657" lon="6.17538">
        <ele>1662.8000488281</ele>
        <time>2019-05-01T12:15:25.000Z</time>
      </trkpt>
      <trkpt lat="45.24663" lon="6.17545">
        <ele>1662.8000488281</ele>
        <time>2019-05-01T12:15:31.000Z</time>
      </trkpt>
      <trkpt lat="45.24666" lon="6.1755">
        <ele>1663.1999511719</ele>
        <time>2019-05-01T12:15:37.000Z</time>
      </trkpt>
      <trkpt lat="45.24668" lon="6.17555">
        <ele>1663.5999755859</ele>
        <time>2019-05-01T12:15:43.000Z</time>
      </trkpt>
      <trkpt lat="45.24667" lon="6.17555">
        <ele>1663.5999755859</ele>
        <time>2019-05-01T12:15:44.000Z</time>
      </trkpt>
      <trkpt lat="45.24669" lon="6.17559">
        <ele>1663.8000488281</ele>
        <time>2019-05-01T12:15:48.000Z</time>
      </trkpt>
      <trkpt lat="45.2467" lon="6.17566">
        <ele>1664.4000244141</ele>
        <time>2019-05-01T12:15:54.000Z</time>
      </trkpt>
      <trkpt lat="45.2467" lon="6.17567">
        <ele>1664.5999755859</ele>
        <time>2019-05-01T12:16:00.000Z</time>
      </trkpt>
      <trkpt lat="45.24678" lon="6.17571">
        <ele>1664.4000244141</ele>
        <time>2019-05-01T12:16:04.000Z</time>
      </trkpt>
      <trkpt lat="45.24696" lon="6.17577">
        <ele>1663.1999511719</ele>
        <time>2019-05-01T12:16:10.000Z</time>
      </trkpt>
      <trkpt lat="45.24702" lon="6.17579">
        <ele>1662.4000244141</ele>
        <time>2019-05-01T12:16:12.000Z</time>
      </trkpt>
      <trkpt lat="45.24712" lon="6.17583">
        <ele>1661.4000244141</ele>
        <time>2019-05-01T12:16:15.000Z</time>
      </trkpt>
      <trkpt lat="45.24718" lon="6.17587">
        <ele>1660.8000488281</ele>
        <time>2019-05-01T12:16:17.000Z</time>
      </trkpt>
      <trkpt lat="45.24721" lon="6.17589">
        <ele>1660.4000244141</ele>
        <time>2019-05-01T12:16:18.000Z</time>
      </trkpt>
      <trkpt lat="45.24731" lon="6.17602">
        <ele>1659.1999511719</ele>
        <time>2019-05-01T12:16:22.000Z</time>
      </trkpt>
      <trkpt lat="45.24736" lon="6.17609">
        <ele>1658.4000244141</ele>
        <time>2019-05-01T12:16:24.000Z</time>
      </trkpt>
      <trkpt lat="45.24739" lon="6.17613">
        <ele>1658.1999511719</ele>
        <time>2019-05-01T12:16:25.000Z</time>
      </trkpt>
      <trkpt lat="45.24748" lon="6.17625">
        <ele>1657</ele>
        <time>2019-05-01T12:16:28.000Z</time>
      </trkpt>
      <trkpt lat="45.24754" lon="6.17631">
        <ele>1656</ele>
        <time>2019-05-01T12:16:30.000Z</time>
      </trkpt>
      <trkpt lat="45.24757" lon="6.17634">
        <ele>1655.5999755859</ele>
        <time>2019-05-01T12:16:31.000Z</time>
      </trkpt>
      <trkpt lat="45.24764" lon="6.17643">
        <ele>1653.8000488281</ele>
        <time>2019-05-01T12:16:34.000Z</time>
      </trkpt>
      <trkpt lat="45.24772" lon="6.17652">
        <ele>1653.1999511719</ele>
        <time>2019-05-01T12:16:37.000Z</time>
      </trkpt>
      <trkpt lat="45.24774" lon="6.17655">
        <ele>1652.8000488281</ele>
        <time>2019-05-01T12:16:38.000Z</time>
      </trkpt>
      <trkpt lat="45.24782" lon="6.17667">
        <ele>1651.8000488281</ele>
        <time>2019-05-01T12:16:42.000Z</time>
      </trkpt>
      <trkpt lat="45.24788" lon="6.17678">
        <ele>1651</ele>
        <time>2019-05-01T12:16:45.000Z</time>
      </trkpt>
      <trkpt lat="45.2479" lon="6.17682">
        <ele>1650.8000488281</ele>
        <time>2019-05-01T12:16:46.000Z</time>
      </trkpt>
      <trkpt lat="45.24796" lon="6.17691">
        <ele>1650.1999511719</ele>
        <time>2019-05-01T12:16:48.000Z</time>
      </trkpt>
      <trkpt lat="45.24802" lon="6.17702">
        <ele>1649.4000244141</ele>
        <time>2019-05-01T12:16:50.000Z</time>
      </trkpt>
      <trkpt lat="45.24805" lon="6.17708">
        <ele>1649</ele>
        <time>2019-05-01T12:16:51.000Z</time>
      </trkpt>
      <trkpt lat="45.24809" lon="6.17718">
        <ele>1647.8000488281</ele>
        <time>2019-05-01T12:16:53.000Z</time>
      </trkpt>
      <trkpt lat="45.24812" lon="6.17727">
        <ele>1646.5999755859</ele>
        <time>2019-05-01T12:16:55.000Z</time>
      </trkpt>
      <trkpt lat="45.24816" lon="6.17735">
        <ele>1645.4000244141</ele>
        <time>2019-05-01T12:16:57.000Z</time>
      </trkpt>
      <trkpt lat="45.2482" lon="6.17744">
        <ele>1644.4000244141</ele>
        <time>2019-05-01T12:16:59.000Z</time>
      </trkpt>
      <trkpt lat="45.24826" lon="6.17757">
        <ele>1643.1999511719</ele>
        <time>2019-05-01T12:17:02.000Z</time>
      </trkpt>
      <trkpt lat="45.24831" lon="6.1777">
        <ele>1642.1999511719</ele>
        <time>2019-05-01T12:17:05.000Z</time>
      </trkpt>
      <trkpt lat="45.24833" lon="6.17774">
        <ele>1641.8000488281</ele>
        <time>2019-05-01T12:17:06.000Z</time>
      </trkpt>
      <trkpt lat="45.24838" lon="6.17782">
        <ele>1641</ele>
        <time>2019-05-01T12:17:08.000Z</time>
      </trkpt>
      <trkpt lat="45.24844" lon="6.17792">
        <ele>1639.5999755859</ele>
        <time>2019-05-01T12:17:11.000Z</time>
      </trkpt>
      <trkpt lat="45.24852" lon="6.17803">
        <ele>1638.5999755859</ele>
        <time>2019-05-01T12:17:15.000Z</time>
      </trkpt>
      <trkpt lat="45.24856" lon="6.17808">
        <ele>1638</ele>
        <time>2019-05-01T12:17:17.000Z</time>
      </trkpt>
      <trkpt lat="45.24863" lon="6.17813">
        <ele>1637.4000244141</ele>
        <time>2019-05-01T12:17:20.000Z</time>
      </trkpt>
      <trkpt lat="45.2487" lon="6.1782">
        <ele>1636.5999755859</ele>
        <time>2019-05-01T12:17:23.000Z</time>
      </trkpt>
      <trkpt lat="45.24875" lon="6.17823">
        <ele>1636.1999511719</ele>
        <time>2019-05-01T12:17:25.000Z</time>
      </trkpt>
      <trkpt lat="45.24889" lon="6.17833">
        <ele>1635.1999511719</ele>
        <time>2019-05-01T12:17:30.000Z</time>
      </trkpt>
      <trkpt lat="45.24892" lon="6.17836">
        <ele>1635</ele>
        <time>2019-05-01T12:17:31.000Z</time>
      </trkpt>
      <trkpt lat="45.24906" lon="6.17847">
        <ele>1633.8000488281</ele>
        <time>2019-05-01T12:17:36.000Z</time>
      </trkpt>
      <trkpt lat="45.24909" lon="6.1785">
        <ele>1633.5999755859</ele>
        <time>2019-05-01T12:17:37.000Z</time>
      </trkpt>
      <trkpt lat="45.24917" lon="6.17856">
        <ele>1632.8000488281</ele>
        <time>2019-05-01T12:17:40.000Z</time>
      </trkpt>
      <trkpt lat="45.24926" lon="6.17866">
        <ele>1632</ele>
        <time>2019-05-01T12:17:44.000Z</time>
      </trkpt>
      <trkpt lat="45.2493" lon="6.17872">
        <ele>1631.4000244141</ele>
        <time>2019-05-01T12:17:46.000Z</time>
      </trkpt>
      <trkpt lat="45.24937" lon="6.17885">
        <ele>1631</ele>
        <time>2019-05-01T12:17:51.000Z</time>
      </trkpt>
      <trkpt lat="45.2494" lon="6.17901">
        <ele>1630.4000244141</ele>
        <time>2019-05-01T12:17:56.000Z</time>
      </trkpt>
      <trkpt lat="45.24941" lon="6.17909">
        <ele>1630.1999511719</ele>
        <time>2019-05-01T12:17:59.000Z</time>
      </trkpt>
      <trkpt lat="45.24946" lon="6.17927">
        <ele>1630</ele>
        <time>2019-05-01T12:18:05.000Z</time>
      </trkpt>
      <trkpt lat="45.24952" lon="6.1794">
        <ele>1629.1999511719</ele>
        <time>2019-05-01T12:18:09.000Z</time>
      </trkpt>
      <trkpt lat="45.24954" lon="6.17947">
        <ele>1628.5999755859</ele>
        <time>2019-05-01T12:18:11.000Z</time>
      </trkpt>
      <trkpt lat="45.24956" lon="6.17954">
        <ele>1628</ele>
        <time>2019-05-01T12:18:13.000Z</time>
      </trkpt>
      <trkpt lat="45.24961" lon="6.17969">
        <ele>1627</ele>
        <time>2019-05-01T12:18:18.000Z</time>
      </trkpt>
      <trkpt lat="45.24963" lon="6.17971">
        <ele>1626.8000488281</ele>
        <time>2019-05-01T12:18:19.000Z</time>
      </trkpt>
      <trkpt lat="45.24969" lon="6.17983">
        <ele>1625.8000488281</ele>
        <time>2019-05-01T12:18:24.000Z</time>
      </trkpt>
      <trkpt lat="45.24971" lon="6.17988">
        <ele>1625.5999755859</ele>
        <time>2019-05-01T12:18:26.000Z</time>
      </trkpt>
      <trkpt lat="45.24982" lon="6.18013">
        <ele>1624.8000488281</ele>
        <time>2019-05-01T12:18:34.000Z</time>
      </trkpt>
      <trkpt lat="45.24994" lon="6.18029">
        <ele>1623.5999755859</ele>
        <time>2019-05-01T12:18:39.000Z</time>
      </trkpt>
      <trkpt lat="45.24997" lon="6.18031">
        <ele>1623.1999511719</ele>
        <time>2019-05-01T12:18:40.000Z</time>
      </trkpt>
      <trkpt lat="45.25006" lon="6.1804">
        <ele>1622.4000244141</ele>
        <time>2019-05-01T12:18:44.000Z</time>
      </trkpt>
      <trkpt lat="45.25011" lon="6.18046">
        <ele>1621.8000488281</ele>
        <time>2019-05-01T12:18:47.000Z</time>
      </trkpt>
      <trkpt lat="45.2502" lon="6.18056">
        <ele>1621.4000244141</ele>
        <time>2019-05-01T12:18:52.000Z</time>
      </trkpt>
      <trkpt lat="45.25023" lon="6.18059">
        <ele>1621.1999511719</ele>
        <time>2019-05-01T12:18:53.000Z</time>
      </trkpt>
      <trkpt lat="45.25035" lon="6.18074">
        <ele>1620</ele>
        <time>2019-05-01T12:18:57.000Z</time>
      </trkpt>
      <trkpt lat="45.25041" lon="6.18081">
        <ele>1619</ele>
        <time>2019-05-01T12:18:59.000Z</time>
      </trkpt>
      <trkpt lat="45.25047" lon="6.18091">
        <ele>1618</ele>
        <time>2019-05-01T12:19:02.000Z</time>
      </trkpt>
      <trkpt lat="45.25058" lon="6.18108">
        <ele>1616.5999755859</ele>
        <time>2019-05-01T12:19:07.000Z</time>
      </trkpt>
      <trkpt lat="45.25065" lon="6.1812">
        <ele>1615.5999755859</ele>
        <time>2019-05-01T12:19:11.000Z</time>
      </trkpt>
      <trkpt lat="45.2507" lon="6.18133">
        <ele>1614.8000488281</ele>
        <time>2019-05-01T12:19:15.000Z</time>
      </trkpt>
      <trkpt lat="45.25073" lon="6.1814">
        <ele>1614.4000244141</ele>
        <time>2019-05-01T12:19:17.000Z</time>
      </trkpt>
      <trkpt lat="45.25078" lon="6.18152">
        <ele>1613.4000244141</ele>
        <time>2019-05-01T12:19:21.000Z</time>
      </trkpt>
      <trkpt lat="45.2508" lon="6.18156">
        <ele>1613.1999511719</ele>
        <time>2019-05-01T12:19:22.000Z</time>
      </trkpt>
      <trkpt lat="45.25092" lon="6.18168">
        <ele>1612.1999511719</ele>
        <time>2019-05-01T12:19:27.000Z</time>
      </trkpt>
      <trkpt lat="45.25106" lon="6.18174">
        <ele>1611.1999511719</ele>
        <time>2019-05-01T12:19:33.000Z</time>
      </trkpt>
      <trkpt lat="45.25122" lon="6.18183">
        <ele>1610.1999511719</ele>
        <time>2019-05-01T12:19:41.000Z</time>
      </trkpt>
      <trkpt lat="45.25133" lon="6.18195">
        <ele>1609</ele>
        <time>2019-05-01T12:19:48.000Z</time>
      </trkpt>
      <trkpt lat="45.25141" lon="6.18205">
        <ele>1608.1999511719</ele>
        <time>2019-05-01T12:19:55.000Z</time>
      </trkpt>
      <trkpt lat="45.25141" lon="6.18205">
        <ele>1608</ele>
        <time>2019-05-01T12:19:56.000Z</time>
      </trkpt>
      <trkpt lat="45.25141" lon="6.18205">
        <ele>1608</ele>
        <time>2019-05-01T12:20:02.000Z</time>
      </trkpt>
      <trkpt lat="45.25141" lon="6.18205">
        <ele>1607.8000488281</ele>
        <time>2019-05-01T12:20:13.000Z</time>
      </trkpt>
      <trkpt lat="45.25141" lon="6.18205">
        <ele>1607.1999511719</ele>
        <time>2019-05-01T12:20:21.000Z</time>
      </trkpt>
      <trkpt lat="45.2514" lon="6.18204">
        <ele>1607.5999755859</ele>
        <time>2019-05-01T12:20:29.000Z</time>
      </trkpt>
      <trkpt lat="45.2514" lon="6.18204">
        <ele>1607.5999755859</ele>
        <time>2019-05-01T12:20:40.000Z</time>
      </trkpt>
      <trkpt lat="45.2514" lon="6.18204">
        <ele>1607.1999511719</ele>
        <time>2019-05-01T12:20:48.000Z</time>
      </trkpt>
      <trkpt lat="45.2514" lon="6.18203">
        <ele>1607.5999755859</ele>
        <time>2019-05-01T12:20:59.000Z</time>
      </trkpt>
      <trkpt lat="45.2514" lon="6.18202">
        <ele>1607.8000488281</ele>
        <time>2019-05-01T12:21:04.000Z</time>
      </trkpt>
      <trkpt lat="45.25139" lon="6.18203">
        <ele>1608</ele>
        <time>2019-05-01T12:21:05.000Z</time>
      </trkpt>
      <trkpt lat="45.25139" lon="6.18204">
        <ele>1607.8000488281</ele>
        <time>2019-05-01T12:21:09.000Z</time>
      </trkpt>
      <trkpt lat="45.25139" lon="6.18204">
        <ele>1607.5999755859</ele>
        <time>2019-05-01T12:21:21.000Z</time>
      </trkpt>
      <trkpt lat="45.25138" lon="6.18203">
        <ele>1607.5999755859</ele>
        <time>2019-05-01T12:21:28.000Z</time>
      </trkpt>
      <trkpt lat="45.25138" lon="6.18203">
        <ele>1607.5999755859</ele>
        <time>2019-05-01T12:21:36.000Z</time>
      </trkpt>
      <trkpt lat="45.25138" lon="6.18202">
        <ele>1607.8000488281</ele>
        <time>2019-05-01T12:21:46.000Z</time>
      </trkpt>
      <trkpt lat="45.25139" lon="6.182">
        <ele>1608</ele>
        <time>2019-05-01T12:21:51.000Z</time>
      </trkpt>
      <trkpt lat="45.25138" lon="6.182">
        <ele>1608</ele>
        <time>2019-05-01T12:21:56.000Z</time>
      </trkpt>
      <trkpt lat="45.25138" lon="6.182">
        <ele>1608</ele>
        <time>2019-05-01T12:21:57.000Z</time>
      </trkpt>
      <trkpt lat="45.25137" lon="6.18203">
        <ele>1608</ele>
        <time>2019-05-01T12:21:59.000Z</time>
      </trkpt>
      <trkpt lat="45.25135" lon="6.18204">
        <ele>1608</ele>
        <time>2019-05-01T12:22:02.000Z</time>
      </trkpt>
      <trkpt lat="45.25133" lon="6.18204">
        <ele>1608</ele>
        <time>2019-05-01T12:22:07.000Z</time>
      </trkpt>
      <trkpt lat="45.2513" lon="6.18207">
        <ele>1607.5999755859</ele>
        <time>2019-05-01T12:22:16.000Z</time>
      </trkpt>
      <trkpt lat="45.2513" lon="6.18206">
        <ele>1607.5999755859</ele>
        <time>2019-05-01T12:22:25.000Z</time>
      </trkpt>
      <trkpt lat="45.25131" lon="6.18204">
        <ele>1607.5999755859</ele>
        <time>2019-05-01T12:22:31.000Z</time>
      </trkpt>
      <trkpt lat="45.25134" lon="6.18202">
        <ele>1608</ele>
        <time>2019-05-01T12:22:37.000Z</time>
      </trkpt>
      <trkpt lat="45.25135" lon="6.182">
        <ele>1608.1999511719</ele>
        <time>2019-05-01T12:22:42.000Z</time>
      </trkpt>
      <trkpt lat="45.25136" lon="6.182">
        <ele>1608</ele>
        <time>2019-05-01T12:22:51.000Z</time>
      </trkpt>
      <trkpt lat="45.25136" lon="6.18199">
        <ele>1607.8000488281</ele>
        <time>2019-05-01T12:22:58.000Z</time>
      </trkpt>
      <trkpt lat="45.25136" lon="6.18199">
        <ele>1608.1999511719</ele>
        <time>2019-05-01T12:23:12.000Z</time>
      </trkpt>
      <trkpt lat="45.25136" lon="6.18199">
        <ele>1608</ele>
        <time>2019-05-01T12:23:24.000Z</time>
      </trkpt>
      <trkpt lat="45.25136" lon="6.18199">
        <ele>1607.8000488281</ele>
        <time>2019-05-01T12:23:36.000Z</time>
      </trkpt>
      <trkpt lat="45.25136" lon="6.18199">
        <ele>1608</ele>
        <time>2019-05-01T12:23:50.000Z</time>
      </trkpt>
      <trkpt lat="45.25136" lon="6.18199">
        <ele>1608.4000244141</ele>
        <time>2019-05-01T12:24:04.000Z</time>
      </trkpt>
      <trkpt lat="45.25136" lon="6.182">
        <ele>1608.5999755859</ele>
        <time>2019-05-01T12:24:13.000Z</time>
      </trkpt>
      <trkpt lat="45.25135" lon="6.18206">
        <ele>1608</ele>
        <time>2019-05-01T12:24:20.000Z</time>
      </trkpt>
      <trkpt lat="45.25136" lon="6.18205">
        <ele>1607.5999755859</ele>
        <time>2019-05-01T12:24:25.000Z</time>
      </trkpt>
      <trkpt lat="45.25136" lon="6.18204">
        <ele>1607.8000488281</ele>
        <time>2019-05-01T12:24:32.000Z</time>
      </trkpt>
      <trkpt lat="45.25136" lon="6.18204">
        <ele>1607.8000488281</ele>
        <time>2019-05-01T12:24:43.000Z</time>
      </trkpt>
      <trkpt lat="45.25135" lon="6.18204">
        <ele>1607.5999755859</ele>
        <time>2019-05-01T12:24:48.000Z</time>
      </trkpt>
      <trkpt lat="45.25135" lon="6.18204">
        <ele>1607.5999755859</ele>
        <time>2019-05-01T12:24:55.000Z</time>
      </trkpt>
      <trkpt lat="45.25135" lon="6.18205">
        <ele>1607.4000244141</ele>
        <time>2019-05-01T12:25:00.000Z</time>
      </trkpt>
      <trkpt lat="45.25136" lon="6.18204">
        <ele>1607.8000488281</ele>
        <time>2019-05-01T12:25:13.000Z</time>
      </trkpt>
      <trkpt lat="45.25136" lon="6.18204">
        <ele>1607.5999755859</ele>
        <time>2019-05-01T12:25:20.000Z</time>
      </trkpt>
      <trkpt lat="45.25137" lon="6.18202">
        <ele>1607.5999755859</ele>
        <time>2019-05-01T12:25:26.000Z</time>
      </trkpt>
      <trkpt lat="45.25137" lon="6.18202">
        <ele>1607.8000488281</ele>
        <time>2019-05-01T12:25:37.000Z</time>
      </trkpt>
      <trkpt lat="45.25137" lon="6.18202">
        <ele>1607.8000488281</ele>
        <time>2019-05-01T12:25:50.000Z</time>
      </trkpt>
      <trkpt lat="45.25138" lon="6.18202">
        <ele>1607.8000488281</ele>
        <time>2019-05-01T12:26:03.000Z</time>
      </trkpt>
      <trkpt lat="45.25138" lon="6.18202">
        <ele>1607.8000488281</ele>
        <time>2019-05-01T12:26:11.000Z</time>
      </trkpt>
      <trkpt lat="45.25138" lon="6.18202">
        <ele>1608</ele>
        <time>2019-05-01T12:26:21.000Z</time>
      </trkpt>
      <trkpt lat="45.25137" lon="6.18201">
        <ele>1607.8000488281</ele>
        <time>2019-05-01T12:26:30.000Z</time>
      </trkpt>
      <trkpt lat="45.25138" lon="6.182">
        <ele>1608</ele>
        <time>2019-05-01T12:26:37.000Z</time>
      </trkpt>
      <trkpt lat="45.25138" lon="6.182">
        <ele>1608</ele>
        <time>2019-05-01T12:26:51.000Z</time>
      </trkpt>
      <trkpt lat="45.25138" lon="6.182">
        <ele>1608</ele>
        <time>2019-05-01T12:27:05.000Z</time>
      </trkpt>
      <trkpt lat="45.25138" lon="6.182">
        <ele>1608.4000244141</ele>
        <time>2019-05-01T12:27:13.000Z</time>
      </trkpt>
      <trkpt lat="45.25138" lon="6.182">
        <ele>1608.1999511719</ele>
        <time>2019-05-01T12:27:21.000Z</time>
      </trkpt>
      <trkpt lat="45.2514" lon="6.18203">
        <ele>1608.4000244141</ele>
        <time>2019-05-01T12:27:27.000Z</time>
      </trkpt>
      <trkpt lat="45.2514" lon="6.18203">
        <ele>1607.8000488281</ele>
        <time>2019-05-01T12:27:33.000Z</time>
      </trkpt>
      <trkpt lat="45.2514" lon="6.18203">
        <ele>1607.8000488281</ele>
        <time>2019-05-01T12:27:45.000Z</time>
      </trkpt>
      <trkpt lat="45.2514" lon="6.18203">
        <ele>1608</ele>
        <time>2019-05-01T12:28:01.000Z</time>
      </trkpt>
      <trkpt lat="45.2514" lon="6.18203">
        <ele>1608.1999511719</ele>
        <time>2019-05-01T12:28:10.000Z</time>
      </trkpt>
      <trkpt lat="45.2514" lon="6.18203">
        <ele>1607.8000488281</ele>
        <time>2019-05-01T12:28:22.000Z</time>
      </trkpt>
      <trkpt lat="45.25139" lon="6.18204">
        <ele>1607.5999755859</ele>
        <time>2019-05-01T12:28:28.000Z</time>
      </trkpt>
      <trkpt lat="45.25138" lon="6.18203">
        <ele>1607.4000244141</ele>
        <time>2019-05-01T12:28:38.000Z</time>
      </trkpt>
      <trkpt lat="45.25138" lon="6.18203">
        <ele>1607.1999511719</ele>
        <time>2019-05-01T12:28:46.000Z</time>
      </trkpt>
      <trkpt lat="45.25139" lon="6.18202">
        <ele>1607.5999755859</ele>
        <time>2019-05-01T12:28:49.000Z</time>
      </trkpt>
      <trkpt lat="45.25139" lon="6.18201">
        <ele>1607.8000488281</ele>
        <time>2019-05-01T12:28:52.000Z</time>
      </trkpt>
      <trkpt lat="45.2514" lon="6.18201">
        <ele>1607.5999755859</ele>
        <time>2019-05-01T12:28:59.000Z</time>
      </trkpt>
      <trkpt lat="45.2514" lon="6.18201">
        <ele>1607.5999755859</ele>
        <time>2019-05-01T12:29:09.000Z</time>
      </trkpt>
      <trkpt lat="45.25139" lon="6.18202">
        <ele>1607.8000488281</ele>
        <time>2019-05-01T12:29:20.000Z</time>
      </trkpt>
      <trkpt lat="45.25139" lon="6.18202">
        <ele>1607.5999755859</ele>
        <time>2019-05-01T12:29:32.000Z</time>
      </trkpt>
      <trkpt lat="45.25139" lon="6.18201">
        <ele>1607.5999755859</ele>
        <time>2019-05-01T12:29:43.000Z</time>
      </trkpt>
      <trkpt lat="45.2514" lon="6.182">
        <ele>1607.8000488281</ele>
        <time>2019-05-01T12:29:47.000Z</time>
      </trkpt>
      <trkpt lat="45.2514" lon="6.182">
        <ele>1608</ele>
        <time>2019-05-01T12:29:49.000Z</time>
      </trkpt>
      <trkpt lat="45.25141" lon="6.18202">
        <ele>1608</ele>
        <time>2019-05-01T12:29:57.000Z</time>
      </trkpt>
      <trkpt lat="45.25141" lon="6.18203">
        <ele>1607.5999755859</ele>
        <time>2019-05-01T12:30:06.000Z</time>
      </trkpt>
      <trkpt lat="45.25141" lon="6.18203">
        <ele>1607.4000244141</ele>
        <time>2019-05-01T12:30:16.000Z</time>
      </trkpt>
      <trkpt lat="45.25144" lon="6.18204">
        <ele>1607.4000244141</ele>
        <time>2019-05-01T12:30:21.000Z</time>
      </trkpt>
      <trkpt lat="45.25144" lon="6.18203">
        <ele>1607.1999511719</ele>
        <time>2019-05-01T12:30:22.000Z</time>
      </trkpt>
      <trkpt lat="45.25143" lon="6.18203">
        <ele>1607.1999511719</ele>
        <time>2019-05-01T12:30:23.000Z</time>
      </trkpt>
      <trkpt lat="45.25143" lon="6.18202">
        <ele>1607.4000244141</ele>
        <time>2019-05-01T12:30:26.000Z</time>
      </trkpt>
      <trkpt lat="45.25143" lon="6.18201">
        <ele>1607.5999755859</ele>
        <time>2019-05-01T12:30:36.000Z</time>
      </trkpt>
      <trkpt lat="45.25143" lon="6.18201">
        <ele>1607.5999755859</ele>
        <time>2019-05-01T12:30:49.000Z</time>
      </trkpt>
      <trkpt lat="45.25144" lon="6.182">
        <ele>1607.8000488281</ele>
        <time>2019-05-01T12:31:03.000Z</time>
      </trkpt>
      <trkpt lat="45.25147" lon="6.18203">
        <ele>1607.5999755859</ele>
        <time>2019-05-01T12:31:07.000Z</time>
      </trkpt>
      <trkpt lat="45.25148" lon="6.18203">
        <ele>1607.5999755859</ele>
        <time>2019-05-01T12:31:08.000Z</time>
      </trkpt>
      <trkpt lat="45.25154" lon="6.18208">
        <ele>1607.4000244141</ele>
        <time>2019-05-01T12:31:14.000Z</time>
      </trkpt>
      <trkpt lat="45.25157" lon="6.18211">
        <ele>1607.4000244141</ele>
        <time>2019-05-01T12:31:16.000Z</time>
      </trkpt>
      <trkpt lat="45.2516" lon="6.18212">
        <ele>1607.1999511719</ele>
        <time>2019-05-01T12:31:19.000Z</time>
      </trkpt>
      <trkpt lat="45.25165" lon="6.18216">
        <ele>1607.1999511719</ele>
        <time>2019-05-01T12:31:24.000Z</time>
      </trkpt>
      <trkpt lat="45.25166" lon="6.18216">
        <ele>1607.1999511719</ele>
        <time>2019-05-01T12:31:25.000Z</time>
      </trkpt>
      <trkpt lat="45.25172" lon="6.18219">
        <ele>1607.1999511719</ele>
        <time>2019-05-01T12:31:30.000Z</time>
      </trkpt>
      <trkpt lat="45.25174" lon="6.1822">
        <ele>1607</ele>
        <time>2019-05-01T12:31:31.000Z</time>
      </trkpt>
      <trkpt lat="45.25175" lon="6.18221">
        <ele>1606.8000488281</ele>
        <time>2019-05-01T12:31:32.000Z</time>
      </trkpt>
      <trkpt lat="45.25178" lon="6.18224">
        <ele>1606.4000244141</ele>
        <time>2019-05-01T12:31:36.000Z</time>
      </trkpt>
      <trkpt lat="45.25182" lon="6.18231">
        <ele>1606</ele>
        <time>2019-05-01T12:31:42.000Z</time>
      </trkpt>
      <trkpt lat="45.25183" lon="6.18234">
        <ele>1605.8000488281</ele>
        <time>2019-05-01T12:31:45.000Z</time>
      </trkpt>
      <trkpt lat="45.25185" lon="6.18236">
        <ele>1605.8000488281</ele>
        <time>2019-05-01T12:31:47.000Z</time>
      </trkpt>
      <trkpt lat="45.25186" lon="6.18243">
        <ele>1605.5999755859</ele>
        <time>2019-05-01T12:31:52.000Z</time>
      </trkpt>
      <trkpt lat="45.25189" lon="6.18249">
        <ele>1605</ele>
        <time>2019-05-01T12:31:57.000Z</time>
      </trkpt>
      <trkpt lat="45.25189" lon="6.18251">
        <ele>1605</ele>
        <time>2019-05-01T12:31:58.000Z</time>
      </trkpt>
      <trkpt lat="45.25189" lon="6.18252">
        <ele>1604.8000488281</ele>
        <time>2019-05-01T12:31:59.000Z</time>
      </trkpt>
      <trkpt lat="45.2519" lon="6.18256">
        <ele>1604.5999755859</ele>
        <time>2019-05-01T12:32:02.000Z</time>
      </trkpt>
      <trkpt lat="45.25194" lon="6.18269">
        <ele>1604</ele>
        <time>2019-05-01T12:32:11.000Z</time>
      </trkpt>
      <trkpt lat="45.25194" lon="6.18271">
        <ele>1603.8000488281</ele>
        <time>2019-05-01T12:32:12.000Z</time>
      </trkpt>
      <trkpt lat="45.25196" lon="6.18273">
        <ele>1603.5999755859</ele>
        <time>2019-05-01T12:32:14.000Z</time>
      </trkpt>
      <trkpt lat="45.25198" lon="6.18278">
        <ele>1603.1999511719</ele>
        <time>2019-05-01T12:32:17.000Z</time>
      </trkpt>
      <trkpt lat="45.25201" lon="6.18285">
        <ele>1603</ele>
        <time>2019-05-01T12:32:22.000Z</time>
      </trkpt>
      <trkpt lat="45.25204" lon="6.18289">
        <ele>1602.8000488281</ele>
        <time>2019-05-01T12:32:26.000Z</time>
      </trkpt>
      <trkpt lat="45.25206" lon="6.18292">
        <ele>1602.5999755859</ele>
        <time>2019-05-01T12:32:28.000Z</time>
      </trkpt>
      <trkpt lat="45.25212" lon="6.18299">
        <ele>1602.4000244141</ele>
        <time>2019-05-01T12:32:34.000Z</time>
      </trkpt>
      <trkpt lat="45.25215" lon="6.18307">
        <ele>1602.1999511719</ele>
        <time>2019-05-01T12:32:40.000Z</time>
      </trkpt>
      <trkpt lat="45.25217" lon="6.18309">
        <ele>1601.8000488281</ele>
        <time>2019-05-01T12:32:43.000Z</time>
      </trkpt>
      <trkpt lat="45.2522" lon="6.18313">
        <ele>1601.5999755859</ele>
        <time>2019-05-01T12:32:46.000Z</time>
      </trkpt>
      <trkpt lat="45.25223" lon="6.1832">
        <ele>1601.4000244141</ele>
        <time>2019-05-01T12:32:52.000Z</time>
      </trkpt>
      <trkpt lat="45.25225" lon="6.18331">
        <ele>1601.1999511719</ele>
        <time>2019-05-01T12:32:59.000Z</time>
      </trkpt>
      <trkpt lat="45.25226" lon="6.18341">
        <ele>1600.8000488281</ele>
        <time>2019-05-01T12:33:05.000Z</time>
      </trkpt>
      <trkpt lat="45.25226" lon="6.1835">
        <ele>1600.4000244141</ele>
        <time>2019-05-01T12:33:11.000Z</time>
      </trkpt>
      <trkpt lat="45.25227" lon="6.18357">
        <ele>1600.1999511719</ele>
        <time>2019-05-01T12:33:17.000Z</time>
      </trkpt>
      <trkpt lat="45.2523" lon="6.18366">
        <ele>1599.8000488281</ele>
        <time>2019-05-01T12:33:22.000Z</time>
      </trkpt>
      <trkpt lat="45.25229" lon="6.18367">
        <ele>1599.5999755859</ele>
        <time>2019-05-01T12:33:23.000Z</time>
      </trkpt>
      <trkpt lat="45.25231" lon="6.18374">
        <ele>1599.1999511719</ele>
        <time>2019-05-01T12:33:28.000Z</time>
      </trkpt>
      <trkpt lat="45.25231" lon="6.1838">
        <ele>1598.8000488281</ele>
        <time>2019-05-01T12:33:33.000Z</time>
      </trkpt>
      <trkpt lat="45.25231" lon="6.18387">
        <ele>1598.5999755859</ele>
        <time>2019-05-01T12:33:37.000Z</time>
      </trkpt>
      <trkpt lat="45.25231" lon="6.18391">
        <ele>1598.4000244141</ele>
        <time>2019-05-01T12:33:40.000Z</time>
      </trkpt>
      <trkpt lat="45.25233" lon="6.18402">
        <ele>1598.1999511719</ele>
        <time>2019-05-01T12:33:47.000Z</time>
      </trkpt>
      <trkpt lat="45.25235" lon="6.18412">
        <ele>1597.8000488281</ele>
        <time>2019-05-01T12:33:53.000Z</time>
      </trkpt>
      <trkpt lat="45.25235" lon="6.1842">
        <ele>1597.5999755859</ele>
        <time>2019-05-01T12:33:58.000Z</time>
      </trkpt>
      <trkpt lat="45.25237" lon="6.18426">
        <ele>1597.5999755859</ele>
        <time>2019-05-01T12:34:01.000Z</time>
      </trkpt>
      <trkpt lat="45.25237" lon="6.18426">
        <ele>1597.4000244141</ele>
        <time>2019-05-01T12:34:02.000Z</time>
      </trkpt>
      <trkpt lat="45.25238" lon="6.18432">
        <ele>1597.4000244141</ele>
        <time>2019-05-01T12:34:05.000Z</time>
      </trkpt>
      <trkpt lat="45.25239" lon="6.18435">
        <ele>1597.4000244141</ele>
        <time>2019-05-01T12:34:07.000Z</time>
      </trkpt>
      <trkpt lat="45.2524" lon="6.18442">
        <ele>1597.4000244141</ele>
        <time>2019-05-01T12:34:11.000Z</time>
      </trkpt>
      <trkpt lat="45.25242" lon="6.18452">
        <ele>1596.8000488281</ele>
        <time>2019-05-01T12:34:17.000Z</time>
      </trkpt>
      <trkpt lat="45.25243" lon="6.18454">
        <ele>1596.5999755859</ele>
        <time>2019-05-01T12:34:18.000Z</time>
      </trkpt>
      <trkpt lat="45.25243" lon="6.18455">
        <ele>1596.5999755859</ele>
        <time>2019-05-01T12:34:20.000Z</time>
      </trkpt>
      <trkpt lat="45.25245" lon="6.18461">
        <ele>1596.4000244141</ele>
        <time>2019-05-01T12:34:23.000Z</time>
      </trkpt>
      <trkpt lat="45.25247" lon="6.18471">
        <ele>1596.1999511719</ele>
        <time>2019-05-01T12:34:29.000Z</time>
      </trkpt>
      <trkpt lat="45.25247" lon="6.18483">
        <ele>1595.8000488281</ele>
        <time>2019-05-01T12:34:36.000Z</time>
      </trkpt>
      <trkpt lat="45.25246" lon="6.1849">
        <ele>1595.5999755859</ele>
        <time>2019-05-01T12:34:41.000Z</time>
      </trkpt>
      <trkpt lat="45.25246" lon="6.18493">
        <ele>1595.5999755859</ele>
        <time>2019-05-01T12:34:42.000Z</time>
      </trkpt>
      <trkpt lat="45.25244" lon="6.185">
        <ele>1595.8000488281</ele>
        <time>2019-05-01T12:34:47.000Z</time>
      </trkpt>
      <trkpt lat="45.25243" lon="6.18505">
        <ele>1595.5999755859</ele>
        <time>2019-05-01T12:34:51.000Z</time>
      </trkpt>
      <trkpt lat="45.25242" lon="6.18508">
        <ele>1595.5999755859</ele>
        <time>2019-05-01T12:34:53.000Z</time>
      </trkpt>
      <trkpt lat="45.2524" lon="6.18511">
        <ele>1595.5999755859</ele>
        <time>2019-05-01T12:34:58.000Z</time>
      </trkpt>
      <trkpt lat="45.2524" lon="6.18515">
        <ele>1596.4000244141</ele>
        <time>2019-05-01T12:35:04.000Z</time>
      </trkpt>
      <trkpt lat="45.2524" lon="6.18515">
        <ele>1596.5999755859</ele>
        <time>2019-05-01T12:35:06.000Z</time>
      </trkpt>
      <trkpt lat="45.2524" lon="6.18515">
        <ele>1596.4000244141</ele>
        <time>2019-05-01T12:35:13.000Z</time>
      </trkpt>
      <trkpt lat="45.25241" lon="6.18518">
        <ele>1596.5999755859</ele>
        <time>2019-05-01T12:35:23.000Z</time>
      </trkpt>
      <trkpt lat="45.25242" lon="6.18521">
        <ele>1596.4000244141</ele>
        <time>2019-05-01T12:35:24.000Z</time>
      </trkpt>
      <trkpt lat="45.25248" lon="6.18534">
        <ele>1596.1999511719</ele>
        <time>2019-05-01T12:35:27.000Z</time>
      </trkpt>
      <trkpt lat="45.25256" lon="6.18545">
        <ele>1595.4000244141</ele>
        <time>2019-05-01T12:35:30.000Z</time>
      </trkpt>
      <trkpt lat="45.25263" lon="6.18554">
        <ele>1594.1999511719</ele>
        <time>2019-05-01T12:35:33.000Z</time>
      </trkpt>
      <trkpt lat="45.25265" lon="6.18556">
        <ele>1593.8000488281</ele>
        <time>2019-05-01T12:35:34.000Z</time>
      </trkpt>
      <trkpt lat="45.25273" lon="6.18562">
        <ele>1593</ele>
        <time>2019-05-01T12:35:37.000Z</time>
      </trkpt>
      <trkpt lat="45.2528" lon="6.18573">
        <ele>1592.4000244141</ele>
        <time>2019-05-01T12:35:41.000Z</time>
      </trkpt>
      <trkpt lat="45.25285" lon="6.18578">
        <ele>1592</ele>
        <time>2019-05-01T12:35:43.000Z</time>
      </trkpt>
      <trkpt lat="45.25286" lon="6.18577">
        <ele>1591.8000488281</ele>
        <time>2019-05-01T12:35:44.000Z</time>
      </trkpt>
      <trkpt lat="45.25285" lon="6.1858">
        <ele>1591.4000244141</ele>
        <time>2019-05-01T12:35:46.000Z</time>
      </trkpt>
      <trkpt lat="45.25284" lon="6.18581">
        <ele>1590.8000488281</ele>
        <time>2019-05-01T12:35:48.000Z</time>
      </trkpt>
      <trkpt lat="45.25284" lon="6.18581">
        <ele>1590.5999755859</ele>
        <time>2019-05-01T12:35:54.000Z</time>
      </trkpt>
      <trkpt lat="45.25284" lon="6.18581">
        <ele>1590.5999755859</ele>
        <time>2019-05-01T12:36:02.000Z</time>
      </trkpt>
      <trkpt lat="45.25287" lon="6.18584">
        <ele>1590.8000488281</ele>
        <time>2019-05-01T12:36:08.000Z</time>
      </trkpt>
      <trkpt lat="45.25289" lon="6.18586">
        <ele>1590.8000488281</ele>
        <time>2019-05-01T12:36:09.000Z</time>
      </trkpt>
      <trkpt lat="45.25299" lon="6.18594">
        <ele>1590.4000244141</ele>
        <time>2019-05-01T12:36:15.000Z</time>
      </trkpt>
      <trkpt lat="45.25306" lon="6.18597">
        <ele>1590</ele>
        <time>2019-05-01T12:36:20.000Z</time>
      </trkpt>
      <trkpt lat="45.25316" lon="6.18604">
        <ele>1589.8000488281</ele>
        <time>2019-05-01T12:36:26.000Z</time>
      </trkpt>
      <trkpt lat="45.25318" lon="6.18605">
        <ele>1589.5999755859</ele>
        <time>2019-05-01T12:36:27.000Z</time>
      </trkpt>
      <trkpt lat="45.25332" lon="6.18615">
        <ele>1589</ele>
        <time>2019-05-01T12:36:35.000Z</time>
      </trkpt>
      <trkpt lat="45.25337" lon="6.1862">
        <ele>1588.8000488281</ele>
        <time>2019-05-01T12:36:38.000Z</time>
      </trkpt>
      <trkpt lat="45.25347" lon="6.1863">
        <ele>1587.8000488281</ele>
        <time>2019-05-01T12:36:44.000Z</time>
      </trkpt>
      <trkpt lat="45.2535" lon="6.18636">
        <ele>1587.5999755859</ele>
        <time>2019-05-01T12:36:47.000Z</time>
      </trkpt>
      <trkpt lat="45.25352" lon="6.18642">
        <ele>1587.1999511719</ele>
        <time>2019-05-01T12:36:50.000Z</time>
      </trkpt>
      <trkpt lat="45.25349" lon="6.18669">
        <ele>1586.5999755859</ele>
        <time>2019-05-01T12:36:59.000Z</time>
      </trkpt>
      <trkpt lat="45.25349" lon="6.18671">
        <ele>1586.4000244141</ele>
        <time>2019-05-01T12:37:00.000Z</time>
      </trkpt>
      <trkpt lat="45.25349" lon="6.18674">
        <ele>1585.8000488281</ele>
        <time>2019-05-01T12:37:03.000Z</time>
      </trkpt>
      <trkpt lat="45.25351" lon="6.18677">
        <ele>1585.5999755859</ele>
        <time>2019-05-01T12:37:08.000Z</time>
      </trkpt>
      <trkpt lat="45.25354" lon="6.18684">
        <ele>1585.8000488281</ele>
        <time>2019-05-01T12:37:14.000Z</time>
      </trkpt>
      <trkpt lat="45.25353" lon="6.18692">
        <ele>1585.5999755859</ele>
        <time>2019-05-01T12:37:19.000Z</time>
      </trkpt>
      <trkpt lat="45.25354" lon="6.18696">
        <ele>1585.4000244141</ele>
        <time>2019-05-01T12:37:21.000Z</time>
      </trkpt>
      <trkpt lat="45.25355" lon="6.18697">
        <ele>1585.4000244141</ele>
        <time>2019-05-01T12:37:22.000Z</time>
      </trkpt>
      <trkpt lat="45.25359" lon="6.18699">
        <ele>1585.1999511719</ele>
        <time>2019-05-01T12:37:24.000Z</time>
      </trkpt>
      <trkpt lat="45.25368" lon="6.18704">
        <ele>1584.4000244141</ele>
        <time>2019-05-01T12:37:28.000Z</time>
      </trkpt>
      <trkpt lat="45.25375" lon="6.18707">
        <ele>1583.5999755859</ele>
        <time>2019-05-01T12:37:31.000Z</time>
      </trkpt>
      <trkpt lat="45.25378" lon="6.18708">
        <ele>1583.1999511719</ele>
        <time>2019-05-01T12:37:33.000Z</time>
      </trkpt>
      <trkpt lat="45.2538" lon="6.18708">
        <ele>1582.5999755859</ele>
        <time>2019-05-01T12:37:36.000Z</time>
      </trkpt>
      <trkpt lat="45.25379" lon="6.18708">
        <ele>1582.1999511719</ele>
        <time>2019-05-01T12:37:47.000Z</time>
      </trkpt>
      <trkpt lat="45.25379" lon="6.18708">
        <ele>1582.4000244141</ele>
        <time>2019-05-01T12:37:56.000Z</time>
      </trkpt>
      <trkpt lat="45.25379" lon="6.18708">
        <ele>1582.4000244141</ele>
        <time>2019-05-01T12:38:07.000Z</time>
      </trkpt>
      <trkpt lat="45.2538" lon="6.18707">
        <ele>1582.4000244141</ele>
        <time>2019-05-01T12:38:14.000Z</time>
      </trkpt>
      <trkpt lat="45.25382" lon="6.18707">
        <ele>1582.4000244141</ele>
        <time>2019-05-01T12:38:15.000Z</time>
      </trkpt>
      <trkpt lat="45.25382" lon="6.18708">
        <ele>1582.4000244141</ele>
        <time>2019-05-01T12:38:16.000Z</time>
      </trkpt>
      <trkpt lat="45.25387" lon="6.18713">
        <ele>1582.1999511719</ele>
        <time>2019-05-01T12:38:21.000Z</time>
      </trkpt>
      <trkpt lat="45.25387" lon="6.18713">
        <ele>1582</ele>
        <time>2019-05-01T12:38:22.000Z</time>
      </trkpt>
      <trkpt lat="45.25389" lon="6.18712">
        <ele>1581.5999755859</ele>
        <time>2019-05-01T12:38:28.000Z</time>
      </trkpt>
      <trkpt lat="45.25389" lon="6.18712">
        <ele>1581.8000488281</ele>
        <time>2019-05-01T12:38:37.000Z</time>
      </trkpt>
      <trkpt lat="45.25389" lon="6.18713">
        <ele>1581.5999755859</ele>
        <time>2019-05-01T12:38:52.000Z</time>
      </trkpt>
      <trkpt lat="45.25389" lon="6.18713">
        <ele>1581.4000244141</ele>
        <time>2019-05-01T12:39:03.000Z</time>
      </trkpt>
      <trkpt lat="45.25389" lon="6.18713">
        <ele>1581.1999511719</ele>
        <time>2019-05-01T12:39:13.000Z</time>
      </trkpt>
      <trkpt lat="45.25389" lon="6.18713">
        <ele>1581.4000244141</ele>
        <time>2019-05-01T12:39:23.000Z</time>
      </trkpt>
      <trkpt lat="45.25389" lon="6.18713">
        <ele>1581.5999755859</ele>
        <time>2019-05-01T12:39:30.000Z</time>
      </trkpt>
      <trkpt lat="45.25389" lon="6.18712">
        <ele>1581.8000488281</ele>
        <time>2019-05-01T12:39:43.000Z</time>
      </trkpt>
      <trkpt lat="45.25389" lon="6.18712">
        <ele>1582</ele>
        <time>2019-05-01T12:39:50.000Z</time>
      </trkpt>
    </trkseg>
  </trk>
</gpx>